<?xml version="1.0" encoding="UTF-8"?>
<gpx version="1.1" creator="https://www.youtrack.es" xsi:schemaLocation="http://www.topografix.com/GPX/1/1 http://www.topografix.com/GPX/1/1/gpx.xsd http://www.garmin.com/xmlschemas/GpxExtensions/v3 http://www.garmin.com/xmlschemas/GpxExtensionsv3.xsd http://www.garmin.com/xmlschemas/TrackPointExtension/v1 http://www.garmin.com/xmlschemas/TrackPointExtensionv1.xsd" xmlns:gpxtpx="http://www.garmin.com/xmlschemas/TrackPointExtension/v1" xmlns:gpxx="http://www.garmin.com/xmlschemas/GpxExtensions/v3" xmlns:xsi="http://www.w3.org/2001/XMLSchema-instance">
  <metadata>
    <link href="https://www.youtrack.es">
      <text>YouTrack.es</text>
    </link>
    <time>2026-05-08T04:13:18Z</time>
  </metadata>
  <trk>
    <src>https://www.youtrack.es</src>
    <link href="https://www.youtrack.es/ruta/12410-algarve-res">
      <text>YouTrack.es</text>
    </link>
    <trkseg>
      <trkpt lat="37.0855649" lon="-8.2571406">
        <ele>37.968</ele>
        <time>2018-09-21T08:22:55.920Z</time>
      </trkpt>
      <trkpt lat="37.0855649" lon="-8.2571406">
        <ele>37.964</ele>
        <time>2018-09-21T08:23:15.666Z</time>
      </trkpt>
      <trkpt lat="37.0854070" lon="-8.2573566">
        <ele>38.168</ele>
        <time>2018-09-21T08:23:33.703Z</time>
      </trkpt>
      <trkpt lat="37.0853922" lon="-8.2573823">
        <ele>38.847</ele>
        <time>2018-09-21T08:23:34.877Z</time>
      </trkpt>
      <trkpt lat="37.0853397" lon="-8.2574918">
        <ele>39.779</ele>
        <time>2018-09-21T08:23:39.382Z</time>
      </trkpt>
      <trkpt lat="37.0852856" lon="-8.2575936">
        <ele>40.471</ele>
        <time>2018-09-21T08:23:43.300Z</time>
      </trkpt>
      <trkpt lat="37.0852243" lon="-8.2576938">
        <ele>40.782</ele>
        <time>2018-09-21T08:23:47.132Z</time>
      </trkpt>
      <trkpt lat="37.0851544" lon="-8.2578026">
        <ele>40.818</ele>
        <time>2018-09-21T08:23:51.343Z</time>
      </trkpt>
      <trkpt lat="37.0850897" lon="-8.2579042">
        <ele>40.705</ele>
        <time>2018-09-21T08:23:55.283Z</time>
      </trkpt>
      <trkpt lat="37.0850075" lon="-8.2579834">
        <ele>40.583</ele>
        <time>2018-09-21T08:23:59.107Z</time>
      </trkpt>
      <trkpt lat="37.0848972" lon="-8.2580163">
        <ele>40.474</ele>
        <time>2018-09-21T08:24:03.127Z</time>
      </trkpt>
      <trkpt lat="37.0848062" lon="-8.2580893">
        <ele>40.269</ele>
        <time>2018-09-21T08:24:06.461Z</time>
      </trkpt>
      <trkpt lat="37.0847139" lon="-8.2581551">
        <ele>39.953</ele>
        <time>2018-09-21T08:24:09.315Z</time>
      </trkpt>
      <trkpt lat="37.0846058" lon="-8.2582114">
        <ele>39.646</ele>
        <time>2018-09-21T08:24:12.213Z</time>
      </trkpt>
      <trkpt lat="37.0844851" lon="-8.2582525">
        <ele>39.401</ele>
        <time>2018-09-21T08:24:15.132Z</time>
      </trkpt>
      <trkpt lat="37.0843588" lon="-8.2582906">
        <ele>39.194</ele>
        <time>2018-09-21T08:24:17.963Z</time>
      </trkpt>
      <trkpt lat="37.0842174" lon="-8.2583355">
        <ele>39.028</ele>
        <time>2018-09-21T08:24:20.879Z</time>
      </trkpt>
      <trkpt lat="37.0840607" lon="-8.2583929">
        <ele>38.846</ele>
        <time>2018-09-21T08:24:23.944Z</time>
      </trkpt>
      <trkpt lat="37.0839500" lon="-8.2585537">
        <ele>38.422</ele>
        <time>2018-09-21T08:24:27.060Z</time>
      </trkpt>
      <trkpt lat="37.0838587" lon="-8.2587160">
        <ele>37.746</ele>
        <time>2018-09-21T08:24:30.068Z</time>
      </trkpt>
      <trkpt lat="37.0837659" lon="-8.2588772">
        <ele>37.173</ele>
        <time>2018-09-21T08:24:33.345Z</time>
      </trkpt>
      <trkpt lat="37.0837019" lon="-8.2590256">
        <ele>36.927</ele>
        <time>2018-09-21T08:24:36.235Z</time>
      </trkpt>
      <trkpt lat="37.0836691" lon="-8.2591805">
        <ele>36.816</ele>
        <time>2018-09-21T08:24:38.854Z</time>
      </trkpt>
      <trkpt lat="37.0836313" lon="-8.2593596">
        <ele>36.629</ele>
        <time>2018-09-21T08:24:41.594Z</time>
      </trkpt>
      <trkpt lat="37.0836118" lon="-8.2595734">
        <ele>36.351</ele>
        <time>2018-09-21T08:24:44.421Z</time>
      </trkpt>
      <trkpt lat="37.0835843" lon="-8.2597902">
        <ele>35.898</ele>
        <time>2018-09-21T08:24:47.118Z</time>
      </trkpt>
      <trkpt lat="37.0835466" lon="-8.2600202">
        <ele>34.987</ele>
        <time>2018-09-21T08:24:50.013Z</time>
      </trkpt>
      <trkpt lat="37.0834751" lon="-8.2602405">
        <ele>33.443</ele>
        <time>2018-09-21T08:24:52.998Z</time>
      </trkpt>
      <trkpt lat="37.0834064" lon="-8.2604426">
        <ele>31.579</ele>
        <time>2018-09-21T08:24:55.720Z</time>
      </trkpt>
      <trkpt lat="37.0833699" lon="-8.2606699">
        <ele>29.839</ele>
        <time>2018-09-21T08:24:58.502Z</time>
      </trkpt>
      <trkpt lat="37.0832664" lon="-8.2609132">
        <ele>28.206</ele>
        <time>2018-09-21T08:25:01.755Z</time>
      </trkpt>
      <trkpt lat="37.0831695" lon="-8.2611625">
        <ele>26.598</ele>
        <time>2018-09-21T08:25:05.421Z</time>
      </trkpt>
      <trkpt lat="37.0831122" lon="-8.2613688">
        <ele>25.291</ele>
        <time>2018-09-21T08:25:08.937Z</time>
      </trkpt>
      <trkpt lat="37.0830750" lon="-8.2615334">
        <ele>24.295</ele>
        <time>2018-09-21T08:25:11.733Z</time>
      </trkpt>
      <trkpt lat="37.0830971" lon="-8.2617013">
        <ele>23.328</ele>
        <time>2018-09-21T08:25:14.392Z</time>
      </trkpt>
      <trkpt lat="37.0831326" lon="-8.2618712">
        <ele>22.205</ele>
        <time>2018-09-21T08:25:17.045Z</time>
      </trkpt>
      <trkpt lat="37.0832008" lon="-8.2620539">
        <ele>21.023</ele>
        <time>2018-09-21T08:25:19.922Z</time>
      </trkpt>
      <trkpt lat="37.0833452" lon="-8.2621626">
        <ele>19.943</ele>
        <time>2018-09-21T08:25:22.808Z</time>
      </trkpt>
      <trkpt lat="37.0835321" lon="-8.2621855">
        <ele>18.948</ele>
        <time>2018-09-21T08:25:25.974Z</time>
      </trkpt>
      <trkpt lat="37.0837063" lon="-8.2622082">
        <ele>18.017</ele>
        <time>2018-09-21T08:25:28.968Z</time>
      </trkpt>
      <trkpt lat="37.0838967" lon="-8.2622229">
        <ele>17.266</ele>
        <time>2018-09-21T08:25:32.539Z</time>
      </trkpt>
      <trkpt lat="37.0840364" lon="-8.2622238">
        <ele>16.523</ele>
        <time>2018-09-21T08:25:35.548Z</time>
      </trkpt>
      <trkpt lat="37.0841573" lon="-8.2621797">
        <ele>15.566</ele>
        <time>2018-09-21T08:25:38.848Z</time>
      </trkpt>
      <trkpt lat="37.0842479" lon="-8.2622968">
        <ele>14.629</ele>
        <time>2018-09-21T08:25:42.246Z</time>
      </trkpt>
      <trkpt lat="37.0842721" lon="-8.2624631">
        <ele>14.256</ele>
        <time>2018-09-21T08:25:45.541Z</time>
      </trkpt>
      <trkpt lat="37.0843562" lon="-8.2625770">
        <ele>14.562</ele>
        <time>2018-09-21T08:25:48.609Z</time>
      </trkpt>
      <trkpt lat="37.0844330" lon="-8.2627049">
        <ele>14.678</ele>
        <time>2018-09-21T08:25:51.709Z</time>
      </trkpt>
      <trkpt lat="37.0845177" lon="-8.2628151">
        <ele>13.948</ele>
        <time>2018-09-21T08:25:54.487Z</time>
      </trkpt>
      <trkpt lat="37.0846129" lon="-8.2629278">
        <ele>12.970</ele>
        <time>2018-09-21T08:25:57.231Z</time>
      </trkpt>
      <trkpt lat="37.0847053" lon="-8.2630860">
        <ele>12.245</ele>
        <time>2018-09-21T08:26:00.340Z</time>
      </trkpt>
      <trkpt lat="37.0847980" lon="-8.2632310">
        <ele>11.620</ele>
        <time>2018-09-21T08:26:03.326Z</time>
      </trkpt>
      <trkpt lat="37.0849005" lon="-8.2633511">
        <ele>11.223</ele>
        <time>2018-09-21T08:26:06.277Z</time>
      </trkpt>
      <trkpt lat="37.0849802" lon="-8.2634959">
        <ele>11.209</ele>
        <time>2018-09-21T08:26:09.300Z</time>
      </trkpt>
      <trkpt lat="37.0850607" lon="-8.2636442">
        <ele>11.370</ele>
        <time>2018-09-21T08:26:12.358Z</time>
      </trkpt>
      <trkpt lat="37.0851548" lon="-8.2637827">
        <ele>11.492</ele>
        <time>2018-09-21T08:26:15.509Z</time>
      </trkpt>
      <trkpt lat="37.0852211" lon="-8.2639193">
        <ele>11.605</ele>
        <time>2018-09-21T08:26:18.414Z</time>
      </trkpt>
      <trkpt lat="37.0852477" lon="-8.2640469">
        <ele>11.784</ele>
        <time>2018-09-21T08:26:20.907Z</time>
      </trkpt>
      <trkpt lat="37.0852595" lon="-8.2641984">
        <ele>11.948</ele>
        <time>2018-09-21T08:26:23.825Z</time>
      </trkpt>
      <trkpt lat="37.0852631" lon="-8.2643209">
        <ele>11.861</ele>
        <time>2018-09-21T08:26:26.043Z</time>
      </trkpt>
      <trkpt lat="37.0853047" lon="-8.2645318">
        <ele>11.425</ele>
        <time>2018-09-21T08:26:29.594Z</time>
      </trkpt>
      <trkpt lat="37.0853220" lon="-8.2646974">
        <ele>10.784</ele>
        <time>2018-09-21T08:26:32.710Z</time>
      </trkpt>
      <trkpt lat="37.0853249" lon="-8.2648694">
        <ele>10.175</ele>
        <time>2018-09-21T08:26:37.043Z</time>
      </trkpt>
      <trkpt lat="37.0853217" lon="-8.2650044">
        <ele>9.771</ele>
        <time>2018-09-21T08:26:41.231Z</time>
      </trkpt>
      <trkpt lat="37.0853188" lon="-8.2651407">
        <ele>9.690</ele>
        <time>2018-09-21T08:26:44.518Z</time>
      </trkpt>
      <trkpt lat="37.0853070" lon="-8.2652861">
        <ele>9.910</ele>
        <time>2018-09-21T08:26:47.464Z</time>
      </trkpt>
      <trkpt lat="37.0853083" lon="-8.2654359">
        <ele>10.287</ele>
        <time>2018-09-21T08:26:50.366Z</time>
      </trkpt>
      <trkpt lat="37.0853110" lon="-8.2656090">
        <ele>10.644</ele>
        <time>2018-09-21T08:26:53.996Z</time>
      </trkpt>
      <trkpt lat="37.0853212" lon="-8.2657405">
        <ele>10.890</ele>
        <time>2018-09-21T08:26:57.271Z</time>
      </trkpt>
      <trkpt lat="37.0853217" lon="-8.2658622">
        <ele>10.947</ele>
        <time>2018-09-21T08:27:00.644Z</time>
      </trkpt>
      <trkpt lat="37.0853177" lon="-8.2660053">
        <ele>10.785</ele>
        <time>2018-09-21T08:27:04.704Z</time>
      </trkpt>
      <trkpt lat="37.0853259" lon="-8.2661359">
        <ele>10.518</ele>
        <time>2018-09-21T08:27:07.862Z</time>
      </trkpt>
      <trkpt lat="37.0853326" lon="-8.2662572">
        <ele>10.486</ele>
        <time>2018-09-21T08:27:10.502Z</time>
      </trkpt>
      <trkpt lat="37.0853279" lon="-8.2663951">
        <ele>10.901</ele>
        <time>2018-09-21T08:27:13.524Z</time>
      </trkpt>
      <trkpt lat="37.0853226" lon="-8.2665358">
        <ele>11.495</ele>
        <time>2018-09-21T08:27:17.253Z</time>
      </trkpt>
      <trkpt lat="37.0853282" lon="-8.2666491">
        <ele>11.779</ele>
        <time>2018-09-21T08:27:20.618Z</time>
      </trkpt>
      <trkpt lat="37.0853301" lon="-8.2667879">
        <ele>11.633</ele>
        <time>2018-09-21T08:27:24.887Z</time>
      </trkpt>
      <trkpt lat="37.0853349" lon="-8.2669397">
        <ele>11.281</ele>
        <time>2018-09-21T08:27:28.464Z</time>
      </trkpt>
      <trkpt lat="37.0853452" lon="-8.2670766">
        <ele>10.941</ele>
        <time>2018-09-21T08:27:31.369Z</time>
      </trkpt>
      <trkpt lat="37.0853490" lon="-8.2672288">
        <ele>10.692</ele>
        <time>2018-09-21T08:27:34.630Z</time>
      </trkpt>
      <trkpt lat="37.0853536" lon="-8.2673955">
        <ele>10.533</ele>
        <time>2018-09-21T08:27:38.596Z</time>
      </trkpt>
      <trkpt lat="37.0853604" lon="-8.2675187">
        <ele>10.418</ele>
        <time>2018-09-21T08:27:42.077Z</time>
      </trkpt>
      <trkpt lat="37.0853642" lon="-8.2676452">
        <ele>10.394</ele>
        <time>2018-09-21T08:27:46.022Z</time>
      </trkpt>
      <trkpt lat="37.0853692" lon="-8.2677650">
        <ele>10.570</ele>
        <time>2018-09-21T08:27:49.362Z</time>
      </trkpt>
      <trkpt lat="37.0853822" lon="-8.2679040">
        <ele>10.907</ele>
        <time>2018-09-21T08:27:52.438Z</time>
      </trkpt>
      <trkpt lat="37.0853891" lon="-8.2680642">
        <ele>11.180</ele>
        <time>2018-09-21T08:27:55.623Z</time>
      </trkpt>
      <trkpt lat="37.0853979" lon="-8.2682412">
        <ele>11.259</ele>
        <time>2018-09-21T08:27:58.775Z</time>
      </trkpt>
      <trkpt lat="37.0854057" lon="-8.2684215">
        <ele>11.225</ele>
        <time>2018-09-21T08:28:01.903Z</time>
      </trkpt>
      <trkpt lat="37.0853824" lon="-8.2685733">
        <ele>11.168</ele>
        <time>2018-09-21T08:28:04.920Z</time>
      </trkpt>
      <trkpt lat="37.0854066" lon="-8.2687326">
        <ele>10.731</ele>
        <time>2018-09-21T08:28:08.384Z</time>
      </trkpt>
      <trkpt lat="37.0853968" lon="-8.2688668">
        <ele>9.661</ele>
        <time>2018-09-21T08:28:11.776Z</time>
      </trkpt>
      <trkpt lat="37.0853997" lon="-8.2690012">
        <ele>8.503</ele>
        <time>2018-09-21T08:28:15.224Z</time>
      </trkpt>
      <trkpt lat="37.0853181" lon="-8.2690838">
        <ele>7.814</ele>
        <time>2018-09-21T08:28:18.102Z</time>
      </trkpt>
      <trkpt lat="37.0852040" lon="-8.2691383">
        <ele>7.514</ele>
        <time>2018-09-21T08:28:21.543Z</time>
      </trkpt>
      <trkpt lat="37.0851773" lon="-8.2692662">
        <ele>7.426</ele>
        <time>2018-09-21T08:28:24.442Z</time>
      </trkpt>
      <trkpt lat="37.0851818" lon="-8.2694091">
        <ele>7.353</ele>
        <time>2018-09-21T08:28:27.366Z</time>
      </trkpt>
      <trkpt lat="37.0851972" lon="-8.2695566">
        <ele>7.118</ele>
        <time>2018-09-21T08:28:30.390Z</time>
      </trkpt>
      <trkpt lat="37.0852039" lon="-8.2697024">
        <ele>6.773</ele>
        <time>2018-09-21T08:28:33.783Z</time>
      </trkpt>
      <trkpt lat="37.0852080" lon="-8.2698239">
        <ele>6.754</ele>
        <time>2018-09-21T08:28:37.062Z</time>
      </trkpt>
      <trkpt lat="37.0851829" lon="-8.2699601">
        <ele>7.333</ele>
        <time>2018-09-21T08:28:41.067Z</time>
      </trkpt>
      <trkpt lat="37.0851900" lon="-8.2701093">
        <ele>8.154</ele>
        <time>2018-09-21T08:28:44.630Z</time>
      </trkpt>
      <trkpt lat="37.0852203" lon="-8.2702504">
        <ele>8.808</ele>
        <time>2018-09-21T08:28:47.721Z</time>
      </trkpt>
      <trkpt lat="37.0852124" lon="-8.2703950">
        <ele>9.235</ele>
        <time>2018-09-21T08:28:50.714Z</time>
      </trkpt>
      <trkpt lat="37.0852023" lon="-8.2705400">
        <ele>9.427</ele>
        <time>2018-09-21T08:28:53.531Z</time>
      </trkpt>
      <trkpt lat="37.0851947" lon="-8.2707117">
        <ele>9.333</ele>
        <time>2018-09-21T08:28:56.677Z</time>
      </trkpt>
      <trkpt lat="37.0851919" lon="-8.2708673">
        <ele>9.020</ele>
        <time>2018-09-21T08:28:59.569Z</time>
      </trkpt>
      <trkpt lat="37.0851840" lon="-8.2710291">
        <ele>8.738</ele>
        <time>2018-09-21T08:29:02.627Z</time>
      </trkpt>
      <trkpt lat="37.0851843" lon="-8.2711945">
        <ele>8.806</ele>
        <time>2018-09-21T08:29:05.858Z</time>
      </trkpt>
      <trkpt lat="37.0851627" lon="-8.2713224">
        <ele>9.257</ele>
        <time>2018-09-21T08:29:08.486Z</time>
      </trkpt>
      <trkpt lat="37.0851400" lon="-8.2714713">
        <ele>9.785</ele>
        <time>2018-09-21T08:29:11.433Z</time>
      </trkpt>
      <trkpt lat="37.0851471" lon="-8.2716320">
        <ele>10.047</ele>
        <time>2018-09-21T08:29:14.411Z</time>
      </trkpt>
      <trkpt lat="37.0851643" lon="-8.2718089">
        <ele>9.944</ele>
        <time>2018-09-21T08:29:17.671Z</time>
      </trkpt>
      <trkpt lat="37.0851588" lon="-8.2719774">
        <ele>9.621</ele>
        <time>2018-09-21T08:29:20.947Z</time>
      </trkpt>
      <trkpt lat="37.0851397" lon="-8.2721424">
        <ele>9.334</ele>
        <time>2018-09-21T08:29:24.399Z</time>
      </trkpt>
      <trkpt lat="37.0851211" lon="-8.2722846">
        <ele>9.285</ele>
        <time>2018-09-21T08:29:27.378Z</time>
      </trkpt>
      <trkpt lat="37.0851078" lon="-8.2724284">
        <ele>9.482</ele>
        <time>2018-09-21T08:29:30.196Z</time>
      </trkpt>
      <trkpt lat="37.0850936" lon="-8.2725711">
        <ele>9.710</ele>
        <time>2018-09-21T08:29:32.797Z</time>
      </trkpt>
      <trkpt lat="37.0850707" lon="-8.2727461">
        <ele>9.639</ele>
        <time>2018-09-21T08:29:35.836Z</time>
      </trkpt>
      <trkpt lat="37.0850524" lon="-8.2729174">
        <ele>9.119</ele>
        <time>2018-09-21T08:29:38.779Z</time>
      </trkpt>
      <trkpt lat="37.0850498" lon="-8.2730891">
        <ele>8.378</ele>
        <time>2018-09-21T08:29:41.707Z</time>
      </trkpt>
      <trkpt lat="37.0850289" lon="-8.2732600">
        <ele>7.713</ele>
        <time>2018-09-21T08:29:44.614Z</time>
      </trkpt>
      <trkpt lat="37.0850301" lon="-8.2734332">
        <ele>7.123</ele>
        <time>2018-09-21T08:29:47.518Z</time>
      </trkpt>
      <trkpt lat="37.0850074" lon="-8.2736234">
        <ele>6.600</ele>
        <time>2018-09-21T08:29:50.891Z</time>
      </trkpt>
      <trkpt lat="37.0850240" lon="-8.2737703">
        <ele>6.320</ele>
        <time>2018-09-21T08:29:53.677Z</time>
      </trkpt>
      <trkpt lat="37.0850179" lon="-8.2739208">
        <ele>6.366</ele>
        <time>2018-09-21T08:29:56.617Z</time>
      </trkpt>
      <trkpt lat="37.0850170" lon="-8.2740756">
        <ele>6.745</ele>
        <time>2018-09-21T08:29:59.536Z</time>
      </trkpt>
      <trkpt lat="37.0850149" lon="-8.2742273">
        <ele>7.438</ele>
        <time>2018-09-21T08:30:02.280Z</time>
      </trkpt>
      <trkpt lat="37.0850219" lon="-8.2743927">
        <ele>8.215</ele>
        <time>2018-09-21T08:30:05.189Z</time>
      </trkpt>
      <trkpt lat="37.0850338" lon="-8.2745633">
        <ele>8.809</ele>
        <time>2018-09-21T08:30:08.133Z</time>
      </trkpt>
      <trkpt lat="37.0850342" lon="-8.2747284">
        <ele>9.160</ele>
        <time>2018-09-21T08:30:11.055Z</time>
      </trkpt>
      <trkpt lat="37.0850453" lon="-8.2748816">
        <ele>9.296</ele>
        <time>2018-09-21T08:30:13.868Z</time>
      </trkpt>
      <trkpt lat="37.0850397" lon="-8.2750538">
        <ele>9.290</ele>
        <time>2018-09-21T08:30:16.995Z</time>
      </trkpt>
      <trkpt lat="37.0850511" lon="-8.2752112">
        <ele>9.210</ele>
        <time>2018-09-21T08:30:19.854Z</time>
      </trkpt>
      <trkpt lat="37.0850588" lon="-8.2753864">
        <ele>9.101</ele>
        <time>2018-09-21T08:30:23.074Z</time>
      </trkpt>
      <trkpt lat="37.0850705" lon="-8.2755512">
        <ele>8.992</ele>
        <time>2018-09-21T08:30:26.151Z</time>
      </trkpt>
      <trkpt lat="37.0850738" lon="-8.2757064">
        <ele>8.894</ele>
        <time>2018-09-21T08:30:29.042Z</time>
      </trkpt>
      <trkpt lat="37.0850773" lon="-8.2758794">
        <ele>8.813</ele>
        <time>2018-09-21T08:30:32.425Z</time>
      </trkpt>
      <trkpt lat="37.0850802" lon="-8.2760402">
        <ele>8.753</ele>
        <time>2018-09-21T08:30:36.151Z</time>
      </trkpt>
      <trkpt lat="37.0850251" lon="-8.2761714">
        <ele>8.705</ele>
        <time>2018-09-21T08:30:40.359Z</time>
      </trkpt>
      <trkpt lat="37.0849269" lon="-8.2761505">
        <ele>8.763</ele>
        <time>2018-09-21T08:30:43.520Z</time>
      </trkpt>
      <trkpt lat="37.0848035" lon="-8.2761242">
        <ele>8.978</ele>
        <time>2018-09-21T08:30:46.786Z</time>
      </trkpt>
      <trkpt lat="37.0846704" lon="-8.2761508">
        <ele>9.110</ele>
        <time>2018-09-21T08:30:49.965Z</time>
      </trkpt>
      <trkpt lat="37.0845476" lon="-8.2761922">
        <ele>8.968</ele>
        <time>2018-09-21T08:30:52.928Z</time>
      </trkpt>
      <trkpt lat="37.0844312" lon="-8.2762261">
        <ele>8.743</ele>
        <time>2018-09-21T08:30:55.768Z</time>
      </trkpt>
      <trkpt lat="37.0843154" lon="-8.2762485">
        <ele>8.725</ele>
        <time>2018-09-21T08:30:58.628Z</time>
      </trkpt>
      <trkpt lat="37.0841961" lon="-8.2762802">
        <ele>9.057</ele>
        <time>2018-09-21T08:31:01.626Z</time>
      </trkpt>
      <trkpt lat="37.0840659" lon="-8.2763004">
        <ele>9.712</ele>
        <time>2018-09-21T08:31:04.769Z</time>
      </trkpt>
      <trkpt lat="37.0839304" lon="-8.2763356">
        <ele>10.460</ele>
        <time>2018-09-21T08:31:07.966Z</time>
      </trkpt>
      <trkpt lat="37.0837996" lon="-8.2763807">
        <ele>11.028</ele>
        <time>2018-09-21T08:31:11.002Z</time>
      </trkpt>
      <trkpt lat="37.0836630" lon="-8.2764428">
        <ele>11.352</ele>
        <time>2018-09-21T08:31:14.872Z</time>
      </trkpt>
      <trkpt lat="37.0835502" lon="-8.2765300">
        <ele>11.729</ele>
        <time>2018-09-21T08:31:18.657Z</time>
      </trkpt>
      <trkpt lat="37.0834499" lon="-8.2766115">
        <ele>12.512</ele>
        <time>2018-09-21T08:31:21.761Z</time>
      </trkpt>
      <trkpt lat="37.0833512" lon="-8.2767077">
        <ele>13.599</ele>
        <time>2018-09-21T08:31:25.177Z</time>
      </trkpt>
      <trkpt lat="37.0832852" lon="-8.2768343">
        <ele>14.551</ele>
        <time>2018-09-21T08:31:28.906Z</time>
      </trkpt>
      <trkpt lat="37.0832329" lon="-8.2769280">
        <ele>15.247</ele>
        <time>2018-09-21T08:31:31.744Z</time>
      </trkpt>
      <trkpt lat="37.0831770" lon="-8.2770401">
        <ele>15.850</ele>
        <time>2018-09-21T08:31:35.017Z</time>
      </trkpt>
      <trkpt lat="37.0831029" lon="-8.2771414">
        <ele>16.361</ele>
        <time>2018-09-21T08:31:38.419Z</time>
      </trkpt>
      <trkpt lat="37.0830559" lon="-8.2772834">
        <ele>16.829</ele>
        <time>2018-09-21T08:31:41.971Z</time>
      </trkpt>
      <trkpt lat="37.0830230" lon="-8.2774142">
        <ele>17.577</ele>
        <time>2018-09-21T08:31:45.367Z</time>
      </trkpt>
      <trkpt lat="37.0829578" lon="-8.2775086">
        <ele>18.650</ele>
        <time>2018-09-21T08:31:48.954Z</time>
      </trkpt>
      <trkpt lat="37.0828683" lon="-8.2775786">
        <ele>19.628</ele>
        <time>2018-09-21T08:31:52.695Z</time>
      </trkpt>
      <trkpt lat="37.0827780" lon="-8.2776453">
        <ele>20.280</ele>
        <time>2018-09-21T08:31:56.911Z</time>
      </trkpt>
      <trkpt lat="37.0826984" lon="-8.2777276">
        <ele>20.814</ele>
        <time>2018-09-21T08:32:01.227Z</time>
      </trkpt>
      <trkpt lat="37.0826194" lon="-8.2778024">
        <ele>21.566</ele>
        <time>2018-09-21T08:32:04.947Z</time>
      </trkpt>
      <trkpt lat="37.0825148" lon="-8.2778697">
        <ele>22.688</ele>
        <time>2018-09-21T08:32:09.685Z</time>
      </trkpt>
      <trkpt lat="37.0824109" lon="-8.2778807">
        <ele>24.034</ele>
        <time>2018-09-21T08:32:14.657Z</time>
      </trkpt>
      <trkpt lat="37.0823134" lon="-8.2779184">
        <ele>25.441</ele>
        <time>2018-09-21T08:32:19.725Z</time>
      </trkpt>
      <trkpt lat="37.0822219" lon="-8.2779520">
        <ele>26.881</ele>
        <time>2018-09-21T08:32:24.380Z</time>
      </trkpt>
      <trkpt lat="37.0821266" lon="-8.2779935">
        <ele>28.237</ele>
        <time>2018-09-21T08:32:29.121Z</time>
      </trkpt>
      <trkpt lat="37.0820410" lon="-8.2780410">
        <ele>29.332</ele>
        <time>2018-09-21T08:32:33.469Z</time>
      </trkpt>
      <trkpt lat="37.0819467" lon="-8.2780758">
        <ele>30.163</ele>
        <time>2018-09-21T08:32:38.201Z</time>
      </trkpt>
      <trkpt lat="37.0818459" lon="-8.2781076">
        <ele>30.956</ele>
        <time>2018-09-21T08:32:43.311Z</time>
      </trkpt>
      <trkpt lat="37.0817664" lon="-8.2781760">
        <ele>31.947</ele>
        <time>2018-09-21T08:32:47.866Z</time>
      </trkpt>
      <trkpt lat="37.0816696" lon="-8.2782109">
        <ele>33.160</ele>
        <time>2018-09-21T08:32:53.005Z</time>
      </trkpt>
      <trkpt lat="37.0815752" lon="-8.2782816">
        <ele>34.574</ele>
        <time>2018-09-21T08:32:58.763Z</time>
      </trkpt>
      <trkpt lat="37.0814837" lon="-8.2783459">
        <ele>36.229</ele>
        <time>2018-09-21T08:33:03.998Z</time>
      </trkpt>
      <trkpt lat="37.0814837" lon="-8.2783459">
        <ele>37.819</ele>
        <time>2018-09-21T08:33:15.998Z</time>
      </trkpt>
      <trkpt lat="37.0814837" lon="-8.2783459">
        <ele>38.662</ele>
        <time>2018-09-21T08:35:59.481Z</time>
      </trkpt>
      <trkpt lat="37.0813022" lon="-8.2785272">
        <ele>38.574</ele>
        <time>2018-09-21T08:36:15.415Z</time>
      </trkpt>
      <trkpt lat="37.0812259" lon="-8.2786112">
        <ele>39.282</ele>
        <time>2018-09-21T08:36:19.633Z</time>
      </trkpt>
      <trkpt lat="37.0811544" lon="-8.2787028">
        <ele>41.985</ele>
        <time>2018-09-21T08:36:23.864Z</time>
      </trkpt>
      <trkpt lat="37.0810948" lon="-8.2788033">
        <ele>44.974</ele>
        <time>2018-09-21T08:36:27.994Z</time>
      </trkpt>
      <trkpt lat="37.0810948" lon="-8.2788033">
        <ele>46.383</ele>
        <time>2018-09-21T08:36:47.993Z</time>
      </trkpt>
      <trkpt lat="37.0810948" lon="-8.2788033">
        <ele>46.557</ele>
        <time>2018-09-21T08:36:48.093Z</time>
      </trkpt>
      <trkpt lat="37.0809839" lon="-8.2790428">
        <ele>46.391</ele>
        <time>2018-09-21T08:37:01.173Z</time>
      </trkpt>
      <trkpt lat="37.0809532" lon="-8.2791705">
        <ele>46.717</ele>
        <time>2018-09-21T08:37:04.288Z</time>
      </trkpt>
      <trkpt lat="37.0809126" lon="-8.2793027">
        <ele>47.760</ele>
        <time>2018-09-21T08:37:07.163Z</time>
      </trkpt>
      <trkpt lat="37.0809175" lon="-8.2794943">
        <ele>48.829</ele>
        <time>2018-09-21T08:37:10.669Z</time>
      </trkpt>
      <trkpt lat="37.0809249" lon="-8.2796971">
        <ele>49.223</ele>
        <time>2018-09-21T08:37:13.932Z</time>
      </trkpt>
      <trkpt lat="37.0809369" lon="-8.2798824">
        <ele>48.977</ele>
        <time>2018-09-21T08:37:16.614Z</time>
      </trkpt>
      <trkpt lat="37.0809221" lon="-8.2800807">
        <ele>48.173</ele>
        <time>2018-09-21T08:37:19.268Z</time>
      </trkpt>
      <trkpt lat="37.0809023" lon="-8.2802930">
        <ele>46.881</ele>
        <time>2018-09-21T08:37:21.890Z</time>
      </trkpt>
      <trkpt lat="37.0808414" lon="-8.2805041">
        <ele>45.437</ele>
        <time>2018-09-21T08:37:24.418Z</time>
      </trkpt>
      <trkpt lat="37.0807794" lon="-8.2807486">
        <ele>44.229</ele>
        <time>2018-09-21T08:37:27.105Z</time>
      </trkpt>
      <trkpt lat="37.0807133" lon="-8.2810147">
        <ele>43.425</ele>
        <time>2018-09-21T08:37:29.845Z</time>
      </trkpt>
      <trkpt lat="37.0806163" lon="-8.2813073">
        <ele>43.038</ele>
        <time>2018-09-21T08:37:32.743Z</time>
      </trkpt>
      <trkpt lat="37.0805783" lon="-8.2815046">
        <ele>42.777</ele>
        <time>2018-09-21T08:37:34.538Z</time>
      </trkpt>
      <trkpt lat="37.0805134" lon="-8.2818220">
        <ele>42.237</ele>
        <time>2018-09-21T08:37:37.400Z</time>
      </trkpt>
      <trkpt lat="37.0804846" lon="-8.2821720">
        <ele>41.254</ele>
        <time>2018-09-21T08:37:40.728Z</time>
      </trkpt>
      <trkpt lat="37.0804838" lon="-8.2824112">
        <ele>40.042</ele>
        <time>2018-09-21T08:37:43.497Z</time>
      </trkpt>
      <trkpt lat="37.0805181" lon="-8.2826288">
        <ele>38.894</ele>
        <time>2018-09-21T08:37:46.464Z</time>
      </trkpt>
      <trkpt lat="37.0805316" lon="-8.2828215">
        <ele>37.873</ele>
        <time>2018-09-21T08:37:49.391Z</time>
      </trkpt>
      <trkpt lat="37.0805466" lon="-8.2829768">
        <ele>37.033</ele>
        <time>2018-09-21T08:37:52.033Z</time>
      </trkpt>
      <trkpt lat="37.0805755" lon="-8.2831365">
        <ele>36.686</ele>
        <time>2018-09-21T08:37:55.018Z</time>
      </trkpt>
      <trkpt lat="37.0806007" lon="-8.2832830">
        <ele>36.988</ele>
        <time>2018-09-21T08:37:57.907Z</time>
      </trkpt>
      <trkpt lat="37.0806326" lon="-8.2834239">
        <ele>37.735</ele>
        <time>2018-09-21T08:38:00.864Z</time>
      </trkpt>
      <trkpt lat="37.0806665" lon="-8.2835467">
        <ele>38.840</ele>
        <time>2018-09-21T08:38:03.601Z</time>
      </trkpt>
      <trkpt lat="37.0807115" lon="-8.2836663">
        <ele>40.379</ele>
        <time>2018-09-21T08:38:06.408Z</time>
      </trkpt>
      <trkpt lat="37.0807652" lon="-8.2837963">
        <ele>41.958</ele>
        <time>2018-09-21T08:38:09.393Z</time>
      </trkpt>
      <trkpt lat="37.0808100" lon="-8.2839352">
        <ele>42.969</ele>
        <time>2018-09-21T08:38:12.348Z</time>
      </trkpt>
      <trkpt lat="37.0808399" lon="-8.2840658">
        <ele>43.211</ele>
        <time>2018-09-21T08:38:15.119Z</time>
      </trkpt>
      <trkpt lat="37.0808546" lon="-8.2841973">
        <ele>42.857</ele>
        <time>2018-09-21T08:38:18.057Z</time>
      </trkpt>
      <trkpt lat="37.0808590" lon="-8.2843185">
        <ele>42.298</ele>
        <time>2018-09-21T08:38:20.927Z</time>
      </trkpt>
      <trkpt lat="37.0808676" lon="-8.2844374">
        <ele>41.783</ele>
        <time>2018-09-21T08:38:23.854Z</time>
      </trkpt>
      <trkpt lat="37.0808533" lon="-8.2845709">
        <ele>41.340</ele>
        <time>2018-09-21T08:38:27.352Z</time>
      </trkpt>
      <trkpt lat="37.0808147" lon="-8.2846860">
        <ele>41.043</ele>
        <time>2018-09-21T08:38:30.991Z</time>
      </trkpt>
      <trkpt lat="37.0808147" lon="-8.2846860">
        <ele>40.935</ele>
        <time>2018-09-21T08:38:35.991Z</time>
      </trkpt>
      <trkpt lat="37.0808147" lon="-8.2846860">
        <ele>40.933</ele>
        <time>2018-09-21T08:39:35.018Z</time>
      </trkpt>
      <trkpt lat="37.0807094" lon="-8.2849390">
        <ele>40.964</ele>
        <time>2018-09-21T08:39:51.477Z</time>
      </trkpt>
      <trkpt lat="37.0806765" lon="-8.2850530">
        <ele>41.333</ele>
        <time>2018-09-21T08:39:54.396Z</time>
      </trkpt>
      <trkpt lat="37.0806366" lon="-8.2851892">
        <ele>42.240</ele>
        <time>2018-09-21T08:39:57.421Z</time>
      </trkpt>
      <trkpt lat="37.0805970" lon="-8.2853444">
        <ele>43.097</ele>
        <time>2018-09-21T08:40:00.566Z</time>
      </trkpt>
      <trkpt lat="37.0805548" lon="-8.2854953">
        <ele>43.121</ele>
        <time>2018-09-21T08:40:03.393Z</time>
      </trkpt>
      <trkpt lat="37.0805671" lon="-8.2857028">
        <ele>42.370</ele>
        <time>2018-09-21T08:40:06.656Z</time>
      </trkpt>
      <trkpt lat="37.0805427" lon="-8.2859044">
        <ele>41.327</ele>
        <time>2018-09-21T08:40:09.590Z</time>
      </trkpt>
      <trkpt lat="37.0805675" lon="-8.2861142">
        <ele>40.310</ele>
        <time>2018-09-21T08:40:12.512Z</time>
      </trkpt>
      <trkpt lat="37.0805678" lon="-8.2863483">
        <ele>39.175</ele>
        <time>2018-09-21T08:40:15.628Z</time>
      </trkpt>
      <trkpt lat="37.0805708" lon="-8.2865812">
        <ele>37.883</ele>
        <time>2018-09-21T08:40:18.791Z</time>
      </trkpt>
      <trkpt lat="37.0806033" lon="-8.2867941">
        <ele>36.871</ele>
        <time>2018-09-21T08:40:21.982Z</time>
      </trkpt>
      <trkpt lat="37.0805994" lon="-8.2869985">
        <ele>36.416</ele>
        <time>2018-09-21T08:40:25.209Z</time>
      </trkpt>
      <trkpt lat="37.0805955" lon="-8.2871708">
        <ele>36.246</ele>
        <time>2018-09-21T08:40:27.974Z</time>
      </trkpt>
      <trkpt lat="37.0805688" lon="-8.2873482">
        <ele>36.313</ele>
        <time>2018-09-21T08:40:30.848Z</time>
      </trkpt>
      <trkpt lat="37.0805613" lon="-8.2875452">
        <ele>36.914</ele>
        <time>2018-09-21T08:40:34.056Z</time>
      </trkpt>
      <trkpt lat="37.0805320" lon="-8.2877280">
        <ele>38.165</ele>
        <time>2018-09-21T08:40:37.211Z</time>
      </trkpt>
      <trkpt lat="37.0804887" lon="-8.2878911">
        <ele>39.839</ele>
        <time>2018-09-21T08:40:40.223Z</time>
      </trkpt>
      <trkpt lat="37.0804549" lon="-8.2880600">
        <ele>41.671</ele>
        <time>2018-09-21T08:40:43.523Z</time>
      </trkpt>
      <trkpt lat="37.0804129" lon="-8.2882128">
        <ele>43.611</ele>
        <time>2018-09-21T08:40:46.785Z</time>
      </trkpt>
      <trkpt lat="37.0803785" lon="-8.2883471">
        <ele>45.517</ele>
        <time>2018-09-21T08:40:49.632Z</time>
      </trkpt>
      <trkpt lat="37.0803550" lon="-8.2884888">
        <ele>47.037</ele>
        <time>2018-09-21T08:40:52.608Z</time>
      </trkpt>
      <trkpt lat="37.0803308" lon="-8.2886288">
        <ele>47.998</ele>
        <time>2018-09-21T08:40:55.676Z</time>
      </trkpt>
      <trkpt lat="37.0803113" lon="-8.2887589">
        <ele>48.504</ele>
        <time>2018-09-21T08:40:58.559Z</time>
      </trkpt>
      <trkpt lat="37.0802914" lon="-8.2888806">
        <ele>48.752</ele>
        <time>2018-09-21T08:41:01.206Z</time>
      </trkpt>
      <trkpt lat="37.0802755" lon="-8.2890045">
        <ele>48.961</ele>
        <time>2018-09-21T08:41:03.791Z</time>
      </trkpt>
      <trkpt lat="37.0802723" lon="-8.2891475">
        <ele>48.909</ele>
        <time>2018-09-21T08:41:06.667Z</time>
      </trkpt>
      <trkpt lat="37.0802832" lon="-8.2892949">
        <ele>48.380</ele>
        <time>2018-09-21T08:41:09.600Z</time>
      </trkpt>
      <trkpt lat="37.0802993" lon="-8.2894432">
        <ele>47.578</ele>
        <time>2018-09-21T08:41:12.546Z</time>
      </trkpt>
      <trkpt lat="37.0803081" lon="-8.2895902">
        <ele>46.591</ele>
        <time>2018-09-21T08:41:15.416Z</time>
      </trkpt>
      <trkpt lat="37.0803003" lon="-8.2897351">
        <ele>45.394</ele>
        <time>2018-09-21T08:41:18.131Z</time>
      </trkpt>
      <trkpt lat="37.0802845" lon="-8.2898939">
        <ele>44.148</ele>
        <time>2018-09-21T08:41:20.938Z</time>
      </trkpt>
      <trkpt lat="37.0802816" lon="-8.2900591">
        <ele>42.822</ele>
        <time>2018-09-21T08:41:23.672Z</time>
      </trkpt>
      <trkpt lat="37.0802643" lon="-8.2902369">
        <ele>41.514</ele>
        <time>2018-09-21T08:41:26.467Z</time>
      </trkpt>
      <trkpt lat="37.0802496" lon="-8.2904370">
        <ele>40.700</ele>
        <time>2018-09-21T08:41:29.344Z</time>
      </trkpt>
      <trkpt lat="37.0802652" lon="-8.2906383">
        <ele>40.559</ele>
        <time>2018-09-21T08:41:32.008Z</time>
      </trkpt>
      <trkpt lat="37.0802642" lon="-8.2908840">
        <ele>40.326</ele>
        <time>2018-09-21T08:41:35.017Z</time>
      </trkpt>
      <trkpt lat="37.0803069" lon="-8.2911288">
        <ele>39.049</ele>
        <time>2018-09-21T08:41:37.954Z</time>
      </trkpt>
      <trkpt lat="37.0803621" lon="-8.2913640">
        <ele>36.755</ele>
        <time>2018-09-21T08:41:40.773Z</time>
      </trkpt>
      <trkpt lat="37.0804164" lon="-8.2916109">
        <ele>34.237</ele>
        <time>2018-09-21T08:41:43.681Z</time>
      </trkpt>
      <trkpt lat="37.0804497" lon="-8.2918816">
        <ele>32.164</ele>
        <time>2018-09-21T08:41:46.780Z</time>
      </trkpt>
      <trkpt lat="37.0804491" lon="-8.2921399">
        <ele>30.750</ele>
        <time>2018-09-21T08:41:49.789Z</time>
      </trkpt>
      <trkpt lat="37.0804535" lon="-8.2923886">
        <ele>29.843</ele>
        <time>2018-09-21T08:41:52.919Z</time>
      </trkpt>
      <trkpt lat="37.0804920" lon="-8.2925998">
        <ele>29.267</ele>
        <time>2018-09-21T08:41:55.958Z</time>
      </trkpt>
      <trkpt lat="37.0805346" lon="-8.2927956">
        <ele>28.959</ele>
        <time>2018-09-21T08:41:59.058Z</time>
      </trkpt>
      <trkpt lat="37.0805746" lon="-8.2929827">
        <ele>28.883</ele>
        <time>2018-09-21T08:42:02.200Z</time>
      </trkpt>
      <trkpt lat="37.0806185" lon="-8.2931436">
        <ele>28.986</ele>
        <time>2018-09-21T08:42:05.061Z</time>
      </trkpt>
      <trkpt lat="37.0806545" lon="-8.2933174">
        <ele>29.118</ele>
        <time>2018-09-21T08:42:08.146Z</time>
      </trkpt>
      <trkpt lat="37.0806844" lon="-8.2934751">
        <ele>29.147</ele>
        <time>2018-09-21T08:42:10.952Z</time>
      </trkpt>
      <trkpt lat="37.0807048" lon="-8.2936331">
        <ele>28.716</ele>
        <time>2018-09-21T08:42:13.792Z</time>
      </trkpt>
      <trkpt lat="37.0807486" lon="-8.2937943">
        <ele>27.698</ele>
        <time>2018-09-21T08:42:16.888Z</time>
      </trkpt>
      <trkpt lat="37.0807809" lon="-8.2939439">
        <ele>26.599</ele>
        <time>2018-09-21T08:42:19.731Z</time>
      </trkpt>
      <trkpt lat="37.0808208" lon="-8.2940987">
        <ele>25.966</ele>
        <time>2018-09-21T08:42:22.761Z</time>
      </trkpt>
      <trkpt lat="37.0808541" lon="-8.2942583">
        <ele>25.875</ele>
        <time>2018-09-21T08:42:25.914Z</time>
      </trkpt>
      <trkpt lat="37.0808630" lon="-8.2944162">
        <ele>26.354</ele>
        <time>2018-09-21T08:42:29.055Z</time>
      </trkpt>
      <trkpt lat="37.0808752" lon="-8.2945627">
        <ele>27.541</ele>
        <time>2018-09-21T08:42:32.896Z</time>
      </trkpt>
      <trkpt lat="37.0808585" lon="-8.2946790">
        <ele>29.427</ele>
        <time>2018-09-21T08:42:37.011Z</time>
      </trkpt>
      <trkpt lat="37.0808024" lon="-8.2947761">
        <ele>31.858</ele>
        <time>2018-09-21T08:42:40.366Z</time>
      </trkpt>
      <trkpt lat="37.0807617" lon="-8.2948900">
        <ele>34.506</ele>
        <time>2018-09-21T08:42:43.323Z</time>
      </trkpt>
      <trkpt lat="37.0807105" lon="-8.2950079">
        <ele>36.740</ele>
        <time>2018-09-21T08:42:46.355Z</time>
      </trkpt>
      <trkpt lat="37.0806530" lon="-8.2951176">
        <ele>38.313</ele>
        <time>2018-09-21T08:42:49.284Z</time>
      </trkpt>
      <trkpt lat="37.0806030" lon="-8.2952395">
        <ele>39.432</ele>
        <time>2018-09-21T08:42:52.312Z</time>
      </trkpt>
      <trkpt lat="37.0805571" lon="-8.2953635">
        <ele>40.206</ele>
        <time>2018-09-21T08:42:55.257Z</time>
      </trkpt>
      <trkpt lat="37.0805077" lon="-8.2954925">
        <ele>41.101</ele>
        <time>2018-09-21T08:42:58.263Z</time>
      </trkpt>
      <trkpt lat="37.0804631" lon="-8.2956185">
        <ele>42.487</ele>
        <time>2018-09-21T08:43:01.100Z</time>
      </trkpt>
      <trkpt lat="37.0804112" lon="-8.2957499">
        <ele>44.048</ele>
        <time>2018-09-21T08:43:04.000Z</time>
      </trkpt>
      <trkpt lat="37.0803592" lon="-8.2958815">
        <ele>45.305</ele>
        <time>2018-09-21T08:43:06.956Z</time>
      </trkpt>
      <trkpt lat="37.0803162" lon="-8.2960114">
        <ele>46.124</ele>
        <time>2018-09-21T08:43:10.007Z</time>
      </trkpt>
      <trkpt lat="37.0802811" lon="-8.2961327">
        <ele>46.660</ele>
        <time>2018-09-21T08:43:12.929Z</time>
      </trkpt>
      <trkpt lat="37.0802378" lon="-8.2962528">
        <ele>47.153</ele>
        <time>2018-09-21T08:43:15.893Z</time>
      </trkpt>
      <trkpt lat="37.0801894" lon="-8.2963722">
        <ele>47.566</ele>
        <time>2018-09-21T08:43:18.743Z</time>
      </trkpt>
      <trkpt lat="37.0801356" lon="-8.2964987">
        <ele>47.802</ele>
        <time>2018-09-21T08:43:21.719Z</time>
      </trkpt>
      <trkpt lat="37.0800857" lon="-8.2966321">
        <ele>47.842</ele>
        <time>2018-09-21T08:43:24.852Z</time>
      </trkpt>
      <trkpt lat="37.0800334" lon="-8.2967611">
        <ele>47.522</ele>
        <time>2018-09-21T08:43:27.901Z</time>
      </trkpt>
      <trkpt lat="37.0799779" lon="-8.2968875">
        <ele>46.754</ele>
        <time>2018-09-21T08:43:30.827Z</time>
      </trkpt>
      <trkpt lat="37.0799254" lon="-8.2970256">
        <ele>45.914</ele>
        <time>2018-09-21T08:43:33.824Z</time>
      </trkpt>
      <trkpt lat="37.0798640" lon="-8.2971655">
        <ele>45.433</ele>
        <time>2018-09-21T08:43:36.943Z</time>
      </trkpt>
      <trkpt lat="37.0798066" lon="-8.2972998">
        <ele>45.426</ele>
        <time>2018-09-21T08:43:39.933Z</time>
      </trkpt>
      <trkpt lat="37.0797540" lon="-8.2974421">
        <ele>45.773</ele>
        <time>2018-09-21T08:43:42.873Z</time>
      </trkpt>
      <trkpt lat="37.0796951" lon="-8.2975920">
        <ele>46.216</ele>
        <time>2018-09-21T08:43:45.924Z</time>
      </trkpt>
      <trkpt lat="37.0796343" lon="-8.2977361">
        <ele>46.405</ele>
        <time>2018-09-21T08:43:48.792Z</time>
      </trkpt>
      <trkpt lat="37.0795724" lon="-8.2978800">
        <ele>46.160</ele>
        <time>2018-09-21T08:43:51.705Z</time>
      </trkpt>
      <trkpt lat="37.0795149" lon="-8.2980168">
        <ele>45.712</ele>
        <time>2018-09-21T08:43:54.533Z</time>
      </trkpt>
      <trkpt lat="37.0794943" lon="-8.2981758">
        <ele>44.931</ele>
        <time>2018-09-21T08:43:57.376Z</time>
      </trkpt>
      <trkpt lat="37.0794791" lon="-8.2983320">
        <ele>43.578</ele>
        <time>2018-09-21T08:44:00.075Z</time>
      </trkpt>
      <trkpt lat="37.0794501" lon="-8.2985193">
        <ele>42.339</ele>
        <time>2018-09-21T08:44:03.212Z</time>
      </trkpt>
      <trkpt lat="37.0794432" lon="-8.2987110">
        <ele>42.497</ele>
        <time>2018-09-21T08:44:06.281Z</time>
      </trkpt>
      <trkpt lat="37.0794566" lon="-8.2988728">
        <ele>44.190</ele>
        <time>2018-09-21T08:44:09.034Z</time>
      </trkpt>
      <trkpt lat="37.0794465" lon="-8.2990534">
        <ele>46.110</ele>
        <time>2018-09-21T08:44:12.078Z</time>
      </trkpt>
      <trkpt lat="37.0794496" lon="-8.2992699">
        <ele>47.195</ele>
        <time>2018-09-21T08:44:15.310Z</time>
      </trkpt>
      <trkpt lat="37.0794424" lon="-8.2994837">
        <ele>47.567</ele>
        <time>2018-09-21T08:44:18.239Z</time>
      </trkpt>
      <trkpt lat="37.0794158" lon="-8.2997127">
        <ele>47.110</ele>
        <time>2018-09-21T08:44:21.284Z</time>
      </trkpt>
      <trkpt lat="37.0794354" lon="-8.2999520">
        <ele>45.608</ele>
        <time>2018-09-21T08:44:24.234Z</time>
      </trkpt>
      <trkpt lat="37.0794908" lon="-8.3001944">
        <ele>43.425</ele>
        <time>2018-09-21T08:44:27.044Z</time>
      </trkpt>
      <trkpt lat="37.0795655" lon="-8.3004669">
        <ele>41.301</ele>
        <time>2018-09-21T08:44:30.134Z</time>
      </trkpt>
      <trkpt lat="37.0796368" lon="-8.3007240">
        <ele>39.531</ele>
        <time>2018-09-21T08:44:33.031Z</time>
      </trkpt>
      <trkpt lat="37.0797195" lon="-8.3009898">
        <ele>37.879</ele>
        <time>2018-09-21T08:44:35.967Z</time>
      </trkpt>
      <trkpt lat="37.0798036" lon="-8.3012721">
        <ele>36.301</ele>
        <time>2018-09-21T08:44:38.953Z</time>
      </trkpt>
      <trkpt lat="37.0798961" lon="-8.3015669">
        <ele>35.150</ele>
        <time>2018-09-21T08:44:42.052Z</time>
      </trkpt>
      <trkpt lat="37.0799793" lon="-8.3018436">
        <ele>34.281</ele>
        <time>2018-09-21T08:44:44.970Z</time>
      </trkpt>
      <trkpt lat="37.0800384" lon="-8.3021343">
        <ele>33.313</ele>
        <time>2018-09-21T08:44:47.963Z</time>
      </trkpt>
      <trkpt lat="37.0800741" lon="-8.3024269">
        <ele>32.240</ele>
        <time>2018-09-21T08:44:50.850Z</time>
      </trkpt>
      <trkpt lat="37.0800953" lon="-8.3027549">
        <ele>31.284</ele>
        <time>2018-09-21T08:44:53.892Z</time>
      </trkpt>
      <trkpt lat="37.0800894" lon="-8.3030825">
        <ele>30.528</ele>
        <time>2018-09-21T08:44:56.871Z</time>
      </trkpt>
      <trkpt lat="37.0800689" lon="-8.3033783">
        <ele>29.903</ele>
        <time>2018-09-21T08:44:59.595Z</time>
      </trkpt>
      <trkpt lat="37.0800601" lon="-8.3037112">
        <ele>29.333</ele>
        <time>2018-09-21T08:45:02.638Z</time>
      </trkpt>
      <trkpt lat="37.0800266" lon="-8.3040396">
        <ele>28.802</ele>
        <time>2018-09-21T08:45:05.684Z</time>
      </trkpt>
      <trkpt lat="37.0799827" lon="-8.3043416">
        <ele>28.432</ele>
        <time>2018-09-21T08:45:08.584Z</time>
      </trkpt>
      <trkpt lat="37.0799661" lon="-8.3046564">
        <ele>28.414</ele>
        <time>2018-09-21T08:45:11.686Z</time>
      </trkpt>
      <trkpt lat="37.0799632" lon="-8.3049534">
        <ele>28.775</ele>
        <time>2018-09-21T08:45:14.789Z</time>
      </trkpt>
      <trkpt lat="37.0799459" lon="-8.3052105">
        <ele>29.724</ele>
        <time>2018-09-21T08:45:17.688Z</time>
      </trkpt>
      <trkpt lat="37.0799287" lon="-8.3054604">
        <ele>31.230</ele>
        <time>2018-09-21T08:45:20.719Z</time>
      </trkpt>
      <trkpt lat="37.0799495" lon="-8.3056983">
        <ele>32.516</ele>
        <time>2018-09-21T08:45:23.768Z</time>
      </trkpt>
      <trkpt lat="37.0799731" lon="-8.3059148">
        <ele>32.876</ele>
        <time>2018-09-21T08:45:26.618Z</time>
      </trkpt>
      <trkpt lat="37.0800018" lon="-8.3061341">
        <ele>32.422</ele>
        <time>2018-09-21T08:45:29.576Z</time>
      </trkpt>
      <trkpt lat="37.0800280" lon="-8.3063513">
        <ele>31.610</ele>
        <time>2018-09-21T08:45:32.587Z</time>
      </trkpt>
      <trkpt lat="37.0800572" lon="-8.3065502">
        <ele>30.842</ele>
        <time>2018-09-21T08:45:35.462Z</time>
      </trkpt>
      <trkpt lat="37.0800853" lon="-8.3067342">
        <ele>30.308</ele>
        <time>2018-09-21T08:45:38.405Z</time>
      </trkpt>
      <trkpt lat="37.0801122" lon="-8.3068657">
        <ele>30.020</ele>
        <time>2018-09-21T08:45:40.993Z</time>
      </trkpt>
      <trkpt lat="37.0801541" lon="-8.3070035">
        <ele>29.851</ele>
        <time>2018-09-21T08:45:44.446Z</time>
      </trkpt>
      <trkpt lat="37.0801342" lon="-8.3071287">
        <ele>29.740</ele>
        <time>2018-09-21T08:45:48.050Z</time>
      </trkpt>
      <trkpt lat="37.0801461" lon="-8.3072473">
        <ele>29.679</ele>
        <time>2018-09-21T08:45:52.288Z</time>
      </trkpt>
      <trkpt lat="37.0801754" lon="-8.3073749">
        <ele>29.659</ele>
        <time>2018-09-21T08:45:56.990Z</time>
      </trkpt>
      <trkpt lat="37.0801754" lon="-8.3073749">
        <ele>29.653</ele>
        <time>2018-09-21T08:46:03.990Z</time>
      </trkpt>
      <trkpt lat="37.0801754" lon="-8.3073749">
        <ele>29.646</ele>
        <time>2018-09-21T08:53:18.270Z</time>
      </trkpt>
      <trkpt lat="37.0801388" lon="-8.3072275">
        <ele>29.635</ele>
        <time>2018-09-21T08:53:28.894Z</time>
      </trkpt>
      <trkpt lat="37.0801238" lon="-8.3071077">
        <ele>29.495</ele>
        <time>2018-09-21T08:53:32.512Z</time>
      </trkpt>
      <trkpt lat="37.0801558" lon="-8.3069718">
        <ele>29.142</ele>
        <time>2018-09-21T08:53:36.850Z</time>
      </trkpt>
      <trkpt lat="37.0802181" lon="-8.3068824">
        <ele>28.600</ele>
        <time>2018-09-21T08:53:40.800Z</time>
      </trkpt>
      <trkpt lat="37.0803327" lon="-8.3068981">
        <ele>27.975</ele>
        <time>2018-09-21T08:53:45.101Z</time>
      </trkpt>
      <trkpt lat="37.0804205" lon="-8.3069721">
        <ele>27.546</ele>
        <time>2018-09-21T08:53:48.393Z</time>
      </trkpt>
      <trkpt lat="37.0805187" lon="-8.3070466">
        <ele>27.501</ele>
        <time>2018-09-21T08:53:51.684Z</time>
      </trkpt>
      <trkpt lat="37.0806123" lon="-8.3071177">
        <ele>27.660</ele>
        <time>2018-09-21T08:53:54.760Z</time>
      </trkpt>
      <trkpt lat="37.0807027" lon="-8.3071910">
        <ele>27.818</ele>
        <time>2018-09-21T08:53:57.794Z</time>
      </trkpt>
      <trkpt lat="37.0807890" lon="-8.3072672">
        <ele>27.935</ele>
        <time>2018-09-21T08:54:00.789Z</time>
      </trkpt>
      <trkpt lat="37.0808543" lon="-8.3073471">
        <ele>28.039</ele>
        <time>2018-09-21T08:54:03.324Z</time>
      </trkpt>
      <trkpt lat="37.0809481" lon="-8.3074025">
        <ele>28.229</ele>
        <time>2018-09-21T08:54:06.115Z</time>
      </trkpt>
      <trkpt lat="37.0810428" lon="-8.3074522">
        <ele>28.605</ele>
        <time>2018-09-21T08:54:08.861Z</time>
      </trkpt>
      <trkpt lat="37.0811407" lon="-8.3075101">
        <ele>29.066</ele>
        <time>2018-09-21T08:54:11.817Z</time>
      </trkpt>
      <trkpt lat="37.0812268" lon="-8.3075735">
        <ele>29.425</ele>
        <time>2018-09-21T08:54:14.554Z</time>
      </trkpt>
      <trkpt lat="37.0813223" lon="-8.3076453">
        <ele>29.751</ele>
        <time>2018-09-21T08:54:17.652Z</time>
      </trkpt>
      <trkpt lat="37.0814160" lon="-8.3077117">
        <ele>30.131</ele>
        <time>2018-09-21T08:54:20.691Z</time>
      </trkpt>
      <trkpt lat="37.0815022" lon="-8.3077905">
        <ele>30.268</ele>
        <time>2018-09-21T08:54:23.590Z</time>
      </trkpt>
      <trkpt lat="37.0815968" lon="-8.3078599">
        <ele>29.773</ele>
        <time>2018-09-21T08:54:26.408Z</time>
      </trkpt>
      <trkpt lat="37.0816931" lon="-8.3079444">
        <ele>28.686</ele>
        <time>2018-09-21T08:54:29.340Z</time>
      </trkpt>
      <trkpt lat="37.0817688" lon="-8.3080568">
        <ele>27.506</ele>
        <time>2018-09-21T08:54:32.411Z</time>
      </trkpt>
      <trkpt lat="37.0818447" lon="-8.3081502">
        <ele>26.888</ele>
        <time>2018-09-21T08:54:35.284Z</time>
      </trkpt>
      <trkpt lat="37.0819215" lon="-8.3082607">
        <ele>27.024</ele>
        <time>2018-09-21T08:54:38.373Z</time>
      </trkpt>
      <trkpt lat="37.0819952" lon="-8.3083673">
        <ele>27.483</ele>
        <time>2018-09-21T08:54:41.501Z</time>
      </trkpt>
      <trkpt lat="37.0820547" lon="-8.3084644">
        <ele>27.908</ele>
        <time>2018-09-21T08:54:44.333Z</time>
      </trkpt>
      <trkpt lat="37.0821280" lon="-8.3085590">
        <ele>28.270</ele>
        <time>2018-09-21T08:54:47.228Z</time>
      </trkpt>
      <trkpt lat="37.0822044" lon="-8.3086763">
        <ele>28.679</ele>
        <time>2018-09-21T08:54:50.228Z</time>
      </trkpt>
      <trkpt lat="37.0822848" lon="-8.3088043">
        <ele>29.200</ele>
        <time>2018-09-21T08:54:53.325Z</time>
      </trkpt>
      <trkpt lat="37.0823750" lon="-8.3089225">
        <ele>29.681</ele>
        <time>2018-09-21T08:54:56.435Z</time>
      </trkpt>
      <trkpt lat="37.0824717" lon="-8.3090340">
        <ele>29.914</ele>
        <time>2018-09-21T08:54:59.471Z</time>
      </trkpt>
      <trkpt lat="37.0825692" lon="-8.3091520">
        <ele>29.917</ele>
        <time>2018-09-21T08:55:02.573Z</time>
      </trkpt>
      <trkpt lat="37.0826486" lon="-8.3092643">
        <ele>29.862</ele>
        <time>2018-09-21T08:55:05.327Z</time>
      </trkpt>
      <trkpt lat="37.0827236" lon="-8.3093945">
        <ele>29.904</ele>
        <time>2018-09-21T08:55:08.247Z</time>
      </trkpt>
      <trkpt lat="37.0828059" lon="-8.3095315">
        <ele>30.072</ele>
        <time>2018-09-21T08:55:11.422Z</time>
      </trkpt>
      <trkpt lat="37.0828830" lon="-8.3096431">
        <ele>30.284</ele>
        <time>2018-09-21T08:55:14.291Z</time>
      </trkpt>
      <trkpt lat="37.0829546" lon="-8.3097537">
        <ele>30.353</ele>
        <time>2018-09-21T08:55:17.136Z</time>
      </trkpt>
      <trkpt lat="37.0830366" lon="-8.3098577">
        <ele>30.098</ele>
        <time>2018-09-21T08:55:20.010Z</time>
      </trkpt>
      <trkpt lat="37.0831239" lon="-8.3099704">
        <ele>29.546</ele>
        <time>2018-09-21T08:55:23.237Z</time>
      </trkpt>
      <trkpt lat="37.0832143" lon="-8.3100534">
        <ele>28.883</ele>
        <time>2018-09-21T08:55:26.258Z</time>
      </trkpt>
      <trkpt lat="37.0833120" lon="-8.3101234">
        <ele>28.224</ele>
        <time>2018-09-21T08:55:29.204Z</time>
      </trkpt>
      <trkpt lat="37.0834079" lon="-8.3101978">
        <ele>27.636</ele>
        <time>2018-09-21T08:55:32.195Z</time>
      </trkpt>
      <trkpt lat="37.0834387" lon="-8.3103335">
        <ele>26.996</ele>
        <time>2018-09-21T08:55:34.986Z</time>
      </trkpt>
      <trkpt lat="37.0834406" lon="-8.3105079">
        <ele>26.085</ele>
        <time>2018-09-21T08:55:37.986Z</time>
      </trkpt>
      <trkpt lat="37.0834876" lon="-8.3106782">
        <ele>25.113</ele>
        <time>2018-09-21T08:55:40.894Z</time>
      </trkpt>
      <trkpt lat="37.0835522" lon="-8.3108677">
        <ele>24.516</ele>
        <time>2018-09-21T08:55:44.178Z</time>
      </trkpt>
      <trkpt lat="37.0836074" lon="-8.3110331">
        <ele>24.498</ele>
        <time>2018-09-21T08:55:47.179Z</time>
      </trkpt>
      <trkpt lat="37.0836473" lon="-8.3111732">
        <ele>25.053</ele>
        <time>2018-09-21T08:55:49.912Z</time>
      </trkpt>
      <trkpt lat="37.0837083" lon="-8.3113104">
        <ele>25.840</ele>
        <time>2018-09-21T08:55:53.263Z</time>
      </trkpt>
      <trkpt lat="37.0837573" lon="-8.3114541">
        <ele>26.405</ele>
        <time>2018-09-21T08:55:56.428Z</time>
      </trkpt>
      <trkpt lat="37.0838042" lon="-8.3116373">
        <ele>26.692</ele>
        <time>2018-09-21T08:55:59.926Z</time>
      </trkpt>
      <trkpt lat="37.0838613" lon="-8.3117763">
        <ele>26.879</ele>
        <time>2018-09-21T08:56:02.766Z</time>
      </trkpt>
      <trkpt lat="37.0839097" lon="-8.3119264">
        <ele>26.973</ele>
        <time>2018-09-21T08:56:05.685Z</time>
      </trkpt>
      <trkpt lat="37.0839595" lon="-8.3120808">
        <ele>26.924</ele>
        <time>2018-09-21T08:56:08.693Z</time>
      </trkpt>
      <trkpt lat="37.0840088" lon="-8.3122272">
        <ele>26.824</ele>
        <time>2018-09-21T08:56:11.566Z</time>
      </trkpt>
      <trkpt lat="37.0840661" lon="-8.3123784">
        <ele>26.768</ele>
        <time>2018-09-21T08:56:14.650Z</time>
      </trkpt>
      <trkpt lat="37.0841249" lon="-8.3125243">
        <ele>26.804</ele>
        <time>2018-09-21T08:56:17.775Z</time>
      </trkpt>
      <trkpt lat="37.0841802" lon="-8.3126621">
        <ele>26.941</ele>
        <time>2018-09-21T08:56:20.731Z</time>
      </trkpt>
      <trkpt lat="37.0842337" lon="-8.3128001">
        <ele>27.291</ele>
        <time>2018-09-21T08:56:23.659Z</time>
      </trkpt>
      <trkpt lat="37.0842869" lon="-8.3129413">
        <ele>27.988</ele>
        <time>2018-09-21T08:56:26.639Z</time>
      </trkpt>
      <trkpt lat="37.0843340" lon="-8.3130914">
        <ele>28.807</ele>
        <time>2018-09-21T08:56:29.818Z</time>
      </trkpt>
      <trkpt lat="37.0843723" lon="-8.3132339">
        <ele>29.429</ele>
        <time>2018-09-21T08:56:33.019Z</time>
      </trkpt>
      <trkpt lat="37.0844099" lon="-8.3133574">
        <ele>29.822</ele>
        <time>2018-09-21T08:56:35.979Z</time>
      </trkpt>
      <trkpt lat="37.0844445" lon="-8.3134736">
        <ele>30.048</ele>
        <time>2018-09-21T08:56:38.759Z</time>
      </trkpt>
      <trkpt lat="37.0844672" lon="-8.3136159">
        <ele>30.139</ele>
        <time>2018-09-21T08:56:41.931Z</time>
      </trkpt>
      <trkpt lat="37.0845284" lon="-8.3137523">
        <ele>30.154</ele>
        <time>2018-09-21T08:56:45.505Z</time>
      </trkpt>
      <trkpt lat="37.0845812" lon="-8.3138590">
        <ele>30.135</ele>
        <time>2018-09-21T08:56:48.448Z</time>
      </trkpt>
      <trkpt lat="37.0846283" lon="-8.3139696">
        <ele>30.063</ele>
        <time>2018-09-21T08:56:51.360Z</time>
      </trkpt>
      <trkpt lat="37.0846694" lon="-8.3140864">
        <ele>29.929</ele>
        <time>2018-09-21T08:56:54.247Z</time>
      </trkpt>
      <trkpt lat="37.0847143" lon="-8.3142113">
        <ele>29.809</ele>
        <time>2018-09-21T08:56:57.166Z</time>
      </trkpt>
      <trkpt lat="37.0847448" lon="-8.3143443">
        <ele>29.513</ele>
        <time>2018-09-21T08:56:59.966Z</time>
      </trkpt>
      <trkpt lat="37.0847800" lon="-8.3144775">
        <ele>28.871</ele>
        <time>2018-09-21T08:57:02.844Z</time>
      </trkpt>
      <trkpt lat="37.0848223" lon="-8.3146085">
        <ele>28.227</ele>
        <time>2018-09-21T08:57:05.881Z</time>
      </trkpt>
      <trkpt lat="37.0848694" lon="-8.3147254">
        <ele>27.884</ele>
        <time>2018-09-21T08:57:08.629Z</time>
      </trkpt>
      <trkpt lat="37.0849286" lon="-8.3148293">
        <ele>27.736</ele>
        <time>2018-09-21T08:57:11.026Z</time>
      </trkpt>
      <trkpt lat="37.0850023" lon="-8.3149868">
        <ele>27.690</ele>
        <time>2018-09-21T08:57:14.205Z</time>
      </trkpt>
      <trkpt lat="37.0850504" lon="-8.3151298">
        <ele>27.726</ele>
        <time>2018-09-21T08:57:17.090Z</time>
      </trkpt>
      <trkpt lat="37.0850890" lon="-8.3152765">
        <ele>27.806</ele>
        <time>2018-09-21T08:57:19.812Z</time>
      </trkpt>
      <trkpt lat="37.0851455" lon="-8.3154211">
        <ele>27.881</ele>
        <time>2018-09-21T08:57:22.466Z</time>
      </trkpt>
      <trkpt lat="37.0852217" lon="-8.3155788">
        <ele>27.881</ele>
        <time>2018-09-21T08:57:25.519Z</time>
      </trkpt>
      <trkpt lat="37.0852703" lon="-8.3157395">
        <ele>27.805</ele>
        <time>2018-09-21T08:57:28.478Z</time>
      </trkpt>
      <trkpt lat="37.0853126" lon="-8.3159026">
        <ele>27.843</ele>
        <time>2018-09-21T08:57:31.560Z</time>
      </trkpt>
      <trkpt lat="37.0853482" lon="-8.3160532">
        <ele>28.141</ele>
        <time>2018-09-21T08:57:34.512Z</time>
      </trkpt>
      <trkpt lat="37.0854184" lon="-8.3161979">
        <ele>28.515</ele>
        <time>2018-09-21T08:57:37.756Z</time>
      </trkpt>
      <trkpt lat="37.0854941" lon="-8.3163237">
        <ele>28.660</ele>
        <time>2018-09-21T08:57:40.732Z</time>
      </trkpt>
      <trkpt lat="37.0855766" lon="-8.3164259">
        <ele>28.496</ele>
        <time>2018-09-21T08:57:43.238Z</time>
      </trkpt>
      <trkpt lat="37.0856907" lon="-8.3165866">
        <ele>28.170</ele>
        <time>2018-09-21T08:57:46.629Z</time>
      </trkpt>
      <trkpt lat="37.0858116" lon="-8.3167140">
        <ele>27.885</ele>
        <time>2018-09-21T08:57:49.579Z</time>
      </trkpt>
      <trkpt lat="37.0859643" lon="-8.3167841">
        <ele>27.791</ele>
        <time>2018-09-21T08:57:52.712Z</time>
      </trkpt>
      <trkpt lat="37.0861054" lon="-8.3167765">
        <ele>27.913</ele>
        <time>2018-09-21T08:57:55.780Z</time>
      </trkpt>
      <trkpt lat="37.0862269" lon="-8.3167682">
        <ele>27.977</ele>
        <time>2018-09-21T08:57:58.840Z</time>
      </trkpt>
      <trkpt lat="37.0863423" lon="-8.3167502">
        <ele>27.702</ele>
        <time>2018-09-21T08:58:02.084Z</time>
      </trkpt>
      <trkpt lat="37.0864376" lon="-8.3167433">
        <ele>26.921</ele>
        <time>2018-09-21T08:58:04.700Z</time>
      </trkpt>
      <trkpt lat="37.0865493" lon="-8.3167380">
        <ele>25.753</ele>
        <time>2018-09-21T08:58:07.572Z</time>
      </trkpt>
      <trkpt lat="37.0866770" lon="-8.3167352">
        <ele>24.589</ele>
        <time>2018-09-21T08:58:10.759Z</time>
      </trkpt>
      <trkpt lat="37.0868011" lon="-8.3167371">
        <ele>23.707</ele>
        <time>2018-09-21T08:58:13.875Z</time>
      </trkpt>
      <trkpt lat="37.0869175" lon="-8.3167376">
        <ele>23.072</ele>
        <time>2018-09-21T08:58:16.799Z</time>
      </trkpt>
      <trkpt lat="37.0870306" lon="-8.3167470">
        <ele>22.461</ele>
        <time>2018-09-21T08:58:19.500Z</time>
      </trkpt>
      <trkpt lat="37.0871532" lon="-8.3167685">
        <ele>21.722</ele>
        <time>2018-09-21T08:58:22.291Z</time>
      </trkpt>
      <trkpt lat="37.0872900" lon="-8.3167819">
        <ele>21.073</ele>
        <time>2018-09-21T08:58:25.208Z</time>
      </trkpt>
      <trkpt lat="37.0874206" lon="-8.3167991">
        <ele>20.719</ele>
        <time>2018-09-21T08:58:27.964Z</time>
      </trkpt>
      <trkpt lat="37.0875559" lon="-8.3168195">
        <ele>20.483</ele>
        <time>2018-09-21T08:58:31.063Z</time>
      </trkpt>
      <trkpt lat="37.0876711" lon="-8.3168336">
        <ele>20.145</ele>
        <time>2018-09-21T08:58:33.890Z</time>
      </trkpt>
      <trkpt lat="37.0877971" lon="-8.3168362">
        <ele>19.715</ele>
        <time>2018-09-21T08:58:36.852Z</time>
      </trkpt>
      <trkpt lat="37.0879359" lon="-8.3168438">
        <ele>19.309</ele>
        <time>2018-09-21T08:58:39.776Z</time>
      </trkpt>
      <trkpt lat="37.0880954" lon="-8.3168443">
        <ele>18.952</ele>
        <time>2018-09-21T08:58:42.710Z</time>
      </trkpt>
      <trkpt lat="37.0882980" lon="-8.3168742">
        <ele>18.570</ele>
        <time>2018-09-21T08:58:46.094Z</time>
      </trkpt>
      <trkpt lat="37.0884915" lon="-8.3169062">
        <ele>17.997</ele>
        <time>2018-09-21T08:58:49.253Z</time>
      </trkpt>
      <trkpt lat="37.0886592" lon="-8.3169579">
        <ele>17.037</ele>
        <time>2018-09-21T08:58:52.196Z</time>
      </trkpt>
      <trkpt lat="37.0888103" lon="-8.3170022">
        <ele>15.819</ele>
        <time>2018-09-21T08:58:55.037Z</time>
      </trkpt>
      <trkpt lat="37.0889557" lon="-8.3170360">
        <ele>14.768</ele>
        <time>2018-09-21T08:58:57.824Z</time>
      </trkpt>
      <trkpt lat="37.0890865" lon="-8.3171096">
        <ele>14.085</ele>
        <time>2018-09-21T08:59:00.503Z</time>
      </trkpt>
      <trkpt lat="37.0892433" lon="-8.3171981">
        <ele>13.631</ele>
        <time>2018-09-21T08:59:03.545Z</time>
      </trkpt>
      <trkpt lat="37.0894421" lon="-8.3172448">
        <ele>13.240</ele>
        <time>2018-09-21T08:59:06.820Z</time>
      </trkpt>
      <trkpt lat="37.0896248" lon="-8.3173065">
        <ele>12.763</ele>
        <time>2018-09-21T08:59:09.662Z</time>
      </trkpt>
      <trkpt lat="37.0898207" lon="-8.3173904">
        <ele>12.133</ele>
        <time>2018-09-21T08:59:12.592Z</time>
      </trkpt>
      <trkpt lat="37.0900410" lon="-8.3174134">
        <ele>11.385</ele>
        <time>2018-09-21T08:59:15.578Z</time>
      </trkpt>
      <trkpt lat="37.0902724" lon="-8.3174045">
        <ele>10.523</ele>
        <time>2018-09-21T08:59:18.576Z</time>
      </trkpt>
      <trkpt lat="37.0905267" lon="-8.3174453">
        <ele>9.524</ele>
        <time>2018-09-21T08:59:21.837Z</time>
      </trkpt>
      <trkpt lat="37.0907322" lon="-8.3174299">
        <ele>8.492</ele>
        <time>2018-09-21T08:59:24.569Z</time>
      </trkpt>
      <trkpt lat="37.0909384" lon="-8.3174026">
        <ele>7.612</ele>
        <time>2018-09-21T08:59:27.497Z</time>
      </trkpt>
      <trkpt lat="37.0911484" lon="-8.3173978">
        <ele>7.003</ele>
        <time>2018-09-21T08:59:30.666Z</time>
      </trkpt>
      <trkpt lat="37.0913273" lon="-8.3173538">
        <ele>6.566</ele>
        <time>2018-09-21T08:59:33.605Z</time>
      </trkpt>
      <trkpt lat="37.0914926" lon="-8.3173650">
        <ele>6.036</ele>
        <time>2018-09-21T08:59:36.396Z</time>
      </trkpt>
      <trkpt lat="37.0916808" lon="-8.3173709">
        <ele>5.395</ele>
        <time>2018-09-21T08:59:39.630Z</time>
      </trkpt>
      <trkpt lat="37.0918020" lon="-8.3173807">
        <ele>4.993</ele>
        <time>2018-09-21T08:59:41.753Z</time>
      </trkpt>
      <trkpt lat="37.0919736" lon="-8.3173973">
        <ele>5.185</ele>
        <time>2018-09-21T08:59:44.857Z</time>
      </trkpt>
      <trkpt lat="37.0921353" lon="-8.3173743">
        <ele>5.915</ele>
        <time>2018-09-21T08:59:47.807Z</time>
      </trkpt>
      <trkpt lat="37.0922605" lon="-8.3173688">
        <ele>6.806</ele>
        <time>2018-09-21T08:59:50.101Z</time>
      </trkpt>
      <trkpt lat="37.0924023" lon="-8.3173633">
        <ele>7.496</ele>
        <time>2018-09-21T08:59:53.130Z</time>
      </trkpt>
      <trkpt lat="37.0925384" lon="-8.3173794">
        <ele>7.854</ele>
        <time>2018-09-21T08:59:56.234Z</time>
      </trkpt>
      <trkpt lat="37.0927143" lon="-8.3174077">
        <ele>7.942</ele>
        <time>2018-09-21T08:59:59.967Z</time>
      </trkpt>
      <trkpt lat="37.0928586" lon="-8.3174607">
        <ele>7.895</ele>
        <time>2018-09-21T09:00:03.062Z</time>
      </trkpt>
      <trkpt lat="37.0930011" lon="-8.3174919">
        <ele>7.845</ele>
        <time>2018-09-21T09:00:06.048Z</time>
      </trkpt>
      <trkpt lat="37.0931239" lon="-8.3175290">
        <ele>7.848</ele>
        <time>2018-09-21T09:00:08.739Z</time>
      </trkpt>
      <trkpt lat="37.0932499" lon="-8.3175631">
        <ele>8.010</ele>
        <time>2018-09-21T09:00:11.629Z</time>
      </trkpt>
      <trkpt lat="37.0933977" lon="-8.3175888">
        <ele>8.393</ele>
        <time>2018-09-21T09:00:15.063Z</time>
      </trkpt>
      <trkpt lat="37.0935590" lon="-8.3176212">
        <ele>8.814</ele>
        <time>2018-09-21T09:00:18.709Z</time>
      </trkpt>
      <trkpt lat="37.0936978" lon="-8.3176746">
        <ele>8.926</ele>
        <time>2018-09-21T09:00:21.637Z</time>
      </trkpt>
      <trkpt lat="37.0938720" lon="-8.3177186">
        <ele>8.368</ele>
        <time>2018-09-21T09:00:24.770Z</time>
      </trkpt>
      <trkpt lat="37.0940025" lon="-8.3178427">
        <ele>7.259</ele>
        <time>2018-09-21T09:00:27.464Z</time>
      </trkpt>
      <trkpt lat="37.0941551" lon="-8.3179385">
        <ele>6.284</ele>
        <time>2018-09-21T09:00:30.223Z</time>
      </trkpt>
      <trkpt lat="37.0942918" lon="-8.3180394">
        <ele>5.838</ele>
        <time>2018-09-21T09:00:32.822Z</time>
      </trkpt>
      <trkpt lat="37.0944855" lon="-8.3181984">
        <ele>5.667</ele>
        <time>2018-09-21T09:00:36.779Z</time>
      </trkpt>
      <trkpt lat="37.0946075" lon="-8.3183871">
        <ele>5.310</ele>
        <time>2018-09-21T09:00:40.173Z</time>
      </trkpt>
      <trkpt lat="37.0947115" lon="-8.3185396">
        <ele>4.652</ele>
        <time>2018-09-21T09:00:43.093Z</time>
      </trkpt>
      <trkpt lat="37.0948169" lon="-8.3186847">
        <ele>4.069</ele>
        <time>2018-09-21T09:00:46.037Z</time>
      </trkpt>
      <trkpt lat="37.0949161" lon="-8.3188247">
        <ele>3.836</ele>
        <time>2018-09-21T09:00:49.033Z</time>
      </trkpt>
      <trkpt lat="37.0950265" lon="-8.3189298">
        <ele>3.849</ele>
        <time>2018-09-21T09:00:52.023Z</time>
      </trkpt>
      <trkpt lat="37.0951081" lon="-8.3190376">
        <ele>3.901</ele>
        <time>2018-09-21T09:00:54.716Z</time>
      </trkpt>
      <trkpt lat="37.0952188" lon="-8.3191302">
        <ele>3.890</ele>
        <time>2018-09-21T09:00:57.909Z</time>
      </trkpt>
      <trkpt lat="37.0953332" lon="-8.3191002">
        <ele>3.770</ele>
        <time>2018-09-21T09:01:01.016Z</time>
      </trkpt>
      <trkpt lat="37.0954196" lon="-8.3190575">
        <ele>3.559</ele>
        <time>2018-09-21T09:01:03.667Z</time>
      </trkpt>
      <trkpt lat="37.0955223" lon="-8.3189940">
        <ele>3.370</ele>
        <time>2018-09-21T09:01:06.892Z</time>
      </trkpt>
      <trkpt lat="37.0956195" lon="-8.3189477">
        <ele>3.290</ele>
        <time>2018-09-21T09:01:09.648Z</time>
      </trkpt>
      <trkpt lat="37.0957535" lon="-8.3188978">
        <ele>3.387</ele>
        <time>2018-09-21T09:01:13.128Z</time>
      </trkpt>
      <trkpt lat="37.0958761" lon="-8.3188438">
        <ele>3.669</ele>
        <time>2018-09-21T09:01:16.216Z</time>
      </trkpt>
      <trkpt lat="37.0960138" lon="-8.3187889">
        <ele>3.948</ele>
        <time>2018-09-21T09:01:19.644Z</time>
      </trkpt>
      <trkpt lat="37.0961388" lon="-8.3187335">
        <ele>4.088</ele>
        <time>2018-09-21T09:01:23.156Z</time>
      </trkpt>
      <trkpt lat="37.0962476" lon="-8.3186894">
        <ele>4.130</ele>
        <time>2018-09-21T09:01:26.124Z</time>
      </trkpt>
      <trkpt lat="37.0963561" lon="-8.3186056">
        <ele>4.041</ele>
        <time>2018-09-21T09:01:29.233Z</time>
      </trkpt>
      <trkpt lat="37.0964529" lon="-8.3185439">
        <ele>3.796</ele>
        <time>2018-09-21T09:01:31.867Z</time>
      </trkpt>
      <trkpt lat="37.0965717" lon="-8.3184589">
        <ele>3.640</ele>
        <time>2018-09-21T09:01:35.066Z</time>
      </trkpt>
      <trkpt lat="37.0966890" lon="-8.3183735">
        <ele>3.800</ele>
        <time>2018-09-21T09:01:38.450Z</time>
      </trkpt>
      <trkpt lat="37.0967853" lon="-8.3182901">
        <ele>4.125</ele>
        <time>2018-09-21T09:01:41.206Z</time>
      </trkpt>
      <trkpt lat="37.0969165" lon="-8.3182167">
        <ele>4.361</ele>
        <time>2018-09-21T09:01:44.490Z</time>
      </trkpt>
      <trkpt lat="37.0970286" lon="-8.3181992">
        <ele>4.539</ele>
        <time>2018-09-21T09:01:47.035Z</time>
      </trkpt>
      <trkpt lat="37.0971377" lon="-8.3181001">
        <ele>4.866</ele>
        <time>2018-09-21T09:01:50.174Z</time>
      </trkpt>
      <trkpt lat="37.0972618" lon="-8.3180570">
        <ele>5.446</ele>
        <time>2018-09-21T09:01:53.201Z</time>
      </trkpt>
      <trkpt lat="37.0974054" lon="-8.3179591">
        <ele>6.162</ele>
        <time>2018-09-21T09:01:56.926Z</time>
      </trkpt>
      <trkpt lat="37.0975038" lon="-8.3179067">
        <ele>6.828</ele>
        <time>2018-09-21T09:01:59.670Z</time>
      </trkpt>
      <trkpt lat="37.0975891" lon="-8.3178380">
        <ele>7.348</ele>
        <time>2018-09-21T09:02:02.550Z</time>
      </trkpt>
      <trkpt lat="37.0977136" lon="-8.3177902">
        <ele>7.851</ele>
        <time>2018-09-21T09:02:06.284Z</time>
      </trkpt>
      <trkpt lat="37.0978433" lon="-8.3177558">
        <ele>8.546</ele>
        <time>2018-09-21T09:02:09.633Z</time>
      </trkpt>
      <trkpt lat="37.0979480" lon="-8.3177203">
        <ele>9.417</ele>
        <time>2018-09-21T09:02:12.495Z</time>
      </trkpt>
      <trkpt lat="37.0980540" lon="-8.3176843">
        <ele>10.224</ele>
        <time>2018-09-21T09:02:15.624Z</time>
      </trkpt>
      <trkpt lat="37.0981736" lon="-8.3176327">
        <ele>10.772</ele>
        <time>2018-09-21T09:02:18.926Z</time>
      </trkpt>
      <trkpt lat="37.0982743" lon="-8.3175840">
        <ele>10.921</ele>
        <time>2018-09-21T09:02:21.788Z</time>
      </trkpt>
      <trkpt lat="37.0983713" lon="-8.3175559">
        <ele>10.715</ele>
        <time>2018-09-21T09:02:24.823Z</time>
      </trkpt>
      <trkpt lat="37.0984770" lon="-8.3175001">
        <ele>10.372</ele>
        <time>2018-09-21T09:02:28.702Z</time>
      </trkpt>
      <trkpt lat="37.0985626" lon="-8.3174535">
        <ele>10.077</ele>
        <time>2018-09-21T09:02:31.953Z</time>
      </trkpt>
      <trkpt lat="37.0986641" lon="-8.3174031">
        <ele>9.903</ele>
        <time>2018-09-21T09:02:35.905Z</time>
      </trkpt>
      <trkpt lat="37.0987509" lon="-8.3173604">
        <ele>9.955</ele>
        <time>2018-09-21T09:02:39.666Z</time>
      </trkpt>
      <trkpt lat="37.0988349" lon="-8.3172929">
        <ele>10.378</ele>
        <time>2018-09-21T09:02:43.987Z</time>
      </trkpt>
      <trkpt lat="37.0988349" lon="-8.3172929">
        <ele>11.057</ele>
        <time>2018-09-21T09:02:49.987Z</time>
      </trkpt>
      <trkpt lat="37.0988349" lon="-8.3172929">
        <ele>11.503</ele>
        <time>2018-09-21T09:04:24.281Z</time>
      </trkpt>
      <trkpt lat="37.0989847" lon="-8.3174340">
        <ele>11.476</ele>
        <time>2018-09-21T09:04:38.127Z</time>
      </trkpt>
      <trkpt lat="37.0990274" lon="-8.3175530">
        <ele>11.529</ele>
        <time>2018-09-21T09:04:41.846Z</time>
      </trkpt>
      <trkpt lat="37.0990557" lon="-8.3176972">
        <ele>12.122</ele>
        <time>2018-09-21T09:04:45.873Z</time>
      </trkpt>
      <trkpt lat="37.0990854" lon="-8.3178265">
        <ele>12.850</ele>
        <time>2018-09-21T09:04:49.683Z</time>
      </trkpt>
      <trkpt lat="37.0991280" lon="-8.3179555">
        <ele>13.181</ele>
        <time>2018-09-21T09:04:53.528Z</time>
      </trkpt>
      <trkpt lat="37.0991537" lon="-8.3180706">
        <ele>13.141</ele>
        <time>2018-09-21T09:04:56.660Z</time>
      </trkpt>
      <trkpt lat="37.0991817" lon="-8.3181844">
        <ele>12.982</ele>
        <time>2018-09-21T09:04:59.633Z</time>
      </trkpt>
      <trkpt lat="37.0992169" lon="-8.3183077">
        <ele>12.886</ele>
        <time>2018-09-21T09:05:02.763Z</time>
      </trkpt>
      <trkpt lat="37.0992421" lon="-8.3184349">
        <ele>12.788</ele>
        <time>2018-09-21T09:05:05.872Z</time>
      </trkpt>
      <trkpt lat="37.0992752" lon="-8.3185560">
        <ele>12.577</ele>
        <time>2018-09-21T09:05:08.872Z</time>
      </trkpt>
      <trkpt lat="37.0992959" lon="-8.3186764">
        <ele>12.274</ele>
        <time>2018-09-21T09:05:11.612Z</time>
      </trkpt>
      <trkpt lat="37.0993231" lon="-8.3188179">
        <ele>11.894</ele>
        <time>2018-09-21T09:05:14.794Z</time>
      </trkpt>
      <trkpt lat="37.0993607" lon="-8.3189423">
        <ele>11.362</ele>
        <time>2018-09-21T09:05:17.923Z</time>
      </trkpt>
      <trkpt lat="37.0993932" lon="-8.3190500">
        <ele>10.788</ele>
        <time>2018-09-21T09:05:20.749Z</time>
      </trkpt>
      <trkpt lat="37.0994295" lon="-8.3191609">
        <ele>10.442</ele>
        <time>2018-09-21T09:05:23.694Z</time>
      </trkpt>
      <trkpt lat="37.0994650" lon="-8.3192735">
        <ele>10.624</ele>
        <time>2018-09-21T09:05:26.735Z</time>
      </trkpt>
      <trkpt lat="37.0994926" lon="-8.3193868">
        <ele>11.291</ele>
        <time>2018-09-21T09:05:29.766Z</time>
      </trkpt>
      <trkpt lat="37.0995259" lon="-8.3195364">
        <ele>11.955</ele>
        <time>2018-09-21T09:05:33.644Z</time>
      </trkpt>
      <trkpt lat="37.0995648" lon="-8.3196535">
        <ele>12.337</ele>
        <time>2018-09-21T09:05:36.682Z</time>
      </trkpt>
      <trkpt lat="37.0996031" lon="-8.3197773">
        <ele>12.567</ele>
        <time>2018-09-21T09:05:39.845Z</time>
      </trkpt>
      <trkpt lat="37.0996331" lon="-8.3198960">
        <ele>12.745</ele>
        <time>2018-09-21T09:05:42.926Z</time>
      </trkpt>
      <trkpt lat="37.0996695" lon="-8.3200027">
        <ele>12.886</ele>
        <time>2018-09-21T09:05:45.964Z</time>
      </trkpt>
      <trkpt lat="37.0997152" lon="-8.3201262">
        <ele>12.975</ele>
        <time>2018-09-21T09:05:49.866Z</time>
      </trkpt>
      <trkpt lat="37.0997558" lon="-8.3202510">
        <ele>12.974</ele>
        <time>2018-09-21T09:05:53.769Z</time>
      </trkpt>
      <trkpt lat="37.0997978" lon="-8.3203772">
        <ele>12.875</ele>
        <time>2018-09-21T09:05:57.450Z</time>
      </trkpt>
      <trkpt lat="37.0998383" lon="-8.3205013">
        <ele>12.719</ele>
        <time>2018-09-21T09:06:00.706Z</time>
      </trkpt>
      <trkpt lat="37.0998859" lon="-8.3206217">
        <ele>12.586</ele>
        <time>2018-09-21T09:06:03.850Z</time>
      </trkpt>
      <trkpt lat="37.0999517" lon="-8.3207259">
        <ele>12.501</ele>
        <time>2018-09-21T09:06:07.063Z</time>
      </trkpt>
      <trkpt lat="37.1000032" lon="-8.3208215">
        <ele>12.434</ele>
        <time>2018-09-21T09:06:09.967Z</time>
      </trkpt>
      <trkpt lat="37.1000700" lon="-8.3209431">
        <ele>12.387</ele>
        <time>2018-09-21T09:06:13.706Z</time>
      </trkpt>
      <trkpt lat="37.1001202" lon="-8.3210470">
        <ele>12.380</ele>
        <time>2018-09-21T09:06:16.694Z</time>
      </trkpt>
      <trkpt lat="37.1001773" lon="-8.3211499">
        <ele>12.408</ele>
        <time>2018-09-21T09:06:19.774Z</time>
      </trkpt>
      <trkpt lat="37.1002317" lon="-8.3212471">
        <ele>12.440</ele>
        <time>2018-09-21T09:06:22.780Z</time>
      </trkpt>
      <trkpt lat="37.1003010" lon="-8.3213706">
        <ele>12.448</ele>
        <time>2018-09-21T09:06:26.692Z</time>
      </trkpt>
      <trkpt lat="37.1003538" lon="-8.3214639">
        <ele>12.399</ele>
        <time>2018-09-21T09:06:29.579Z</time>
      </trkpt>
      <trkpt lat="37.1004104" lon="-8.3215637">
        <ele>12.225</ele>
        <time>2018-09-21T09:06:32.610Z</time>
      </trkpt>
      <trkpt lat="37.1004624" lon="-8.3216628">
        <ele>11.907</ele>
        <time>2018-09-21T09:06:35.627Z</time>
      </trkpt>
      <trkpt lat="37.1005282" lon="-8.3217894">
        <ele>11.557</ele>
        <time>2018-09-21T09:06:39.773Z</time>
      </trkpt>
      <trkpt lat="37.1005946" lon="-8.3218934">
        <ele>11.302</ele>
        <time>2018-09-21T09:06:43.489Z</time>
      </trkpt>
      <trkpt lat="37.1006551" lon="-8.3220184">
        <ele>11.166</ele>
        <time>2018-09-21T09:06:47.397Z</time>
      </trkpt>
      <trkpt lat="37.1007072" lon="-8.3221280">
        <ele>11.116</ele>
        <time>2018-09-21T09:06:50.674Z</time>
      </trkpt>
      <trkpt lat="37.1007530" lon="-8.3222425">
        <ele>11.114</ele>
        <time>2018-09-21T09:06:53.747Z</time>
      </trkpt>
      <trkpt lat="37.1008247" lon="-8.3223611">
        <ele>11.111</ele>
        <time>2018-09-21T09:06:57.264Z</time>
      </trkpt>
      <trkpt lat="37.1008847" lon="-8.3224527">
        <ele>11.041</ele>
        <time>2018-09-21T09:07:00.074Z</time>
      </trkpt>
      <trkpt lat="37.1009395" lon="-8.3225595">
        <ele>10.835</ele>
        <time>2018-09-21T09:07:02.890Z</time>
      </trkpt>
      <trkpt lat="37.1009984" lon="-8.3226611">
        <ele>10.539</ele>
        <time>2018-09-21T09:07:05.421Z</time>
      </trkpt>
      <trkpt lat="37.1010610" lon="-8.3227902">
        <ele>10.308</ele>
        <time>2018-09-21T09:07:08.122Z</time>
      </trkpt>
      <trkpt lat="37.1011533" lon="-8.3229641">
        <ele>10.059</ele>
        <time>2018-09-21T09:07:11.278Z</time>
      </trkpt>
      <trkpt lat="37.1012371" lon="-8.3231615">
        <ele>9.614</ele>
        <time>2018-09-21T09:07:14.464Z</time>
      </trkpt>
      <trkpt lat="37.1013232" lon="-8.3232977">
        <ele>9.138</ele>
        <time>2018-09-21T09:07:17.003Z</time>
      </trkpt>
      <trkpt lat="37.1014009" lon="-8.3234709">
        <ele>8.837</ele>
        <time>2018-09-21T09:07:19.726Z</time>
      </trkpt>
      <trkpt lat="37.1014988" lon="-8.3236867">
        <ele>8.632</ele>
        <time>2018-09-21T09:07:23.032Z</time>
      </trkpt>
      <trkpt lat="37.1015725" lon="-8.3238694">
        <ele>8.418</ele>
        <time>2018-09-21T09:07:25.933Z</time>
      </trkpt>
      <trkpt lat="37.1016472" lon="-8.3240369">
        <ele>8.199</ele>
        <time>2018-09-21T09:07:28.680Z</time>
      </trkpt>
      <trkpt lat="37.1017298" lon="-8.3241731">
        <ele>8.034</ele>
        <time>2018-09-21T09:07:31.291Z</time>
      </trkpt>
      <trkpt lat="37.1017941" lon="-8.3243273">
        <ele>7.822</ele>
        <time>2018-09-21T09:07:34.059Z</time>
      </trkpt>
      <trkpt lat="37.1018791" lon="-8.3244910">
        <ele>7.455</ele>
        <time>2018-09-21T09:07:37.306Z</time>
      </trkpt>
      <trkpt lat="37.1019513" lon="-8.3246061">
        <ele>7.074</ele>
        <time>2018-09-21T09:07:40.066Z</time>
      </trkpt>
      <trkpt lat="37.1019815" lon="-8.3247659">
        <ele>6.843</ele>
        <time>2018-09-21T09:07:43.202Z</time>
      </trkpt>
      <trkpt lat="37.1020572" lon="-8.3248780">
        <ele>6.823</ele>
        <time>2018-09-21T09:07:45.976Z</time>
      </trkpt>
      <trkpt lat="37.1021415" lon="-8.3249526">
        <ele>7.006</ele>
        <time>2018-09-21T09:07:48.632Z</time>
      </trkpt>
      <trkpt lat="37.1022283" lon="-8.3250432">
        <ele>7.220</ele>
        <time>2018-09-21T09:07:51.702Z</time>
      </trkpt>
      <trkpt lat="37.1022996" lon="-8.3251365">
        <ele>7.305</ele>
        <time>2018-09-21T09:07:54.567Z</time>
      </trkpt>
      <trkpt lat="37.1023755" lon="-8.3252176">
        <ele>7.263</ele>
        <time>2018-09-21T09:07:57.317Z</time>
      </trkpt>
      <trkpt lat="37.1024850" lon="-8.3253335">
        <ele>7.131</ele>
        <time>2018-09-21T09:08:00.801Z</time>
      </trkpt>
      <trkpt lat="37.1025768" lon="-8.3254450">
        <ele>6.941</ele>
        <time>2018-09-21T09:08:03.588Z</time>
      </trkpt>
      <trkpt lat="37.1026720" lon="-8.3255332">
        <ele>6.704</ele>
        <time>2018-09-21T09:08:06.124Z</time>
      </trkpt>
      <trkpt lat="37.1027742" lon="-8.3256417">
        <ele>6.334</ele>
        <time>2018-09-21T09:08:08.959Z</time>
      </trkpt>
      <trkpt lat="37.1028952" lon="-8.3257574">
        <ele>5.751</ele>
        <time>2018-09-21T09:08:12.036Z</time>
      </trkpt>
      <trkpt lat="37.1030203" lon="-8.3258644">
        <ele>5.127</ele>
        <time>2018-09-21T09:08:14.987Z</time>
      </trkpt>
      <trkpt lat="37.1031476" lon="-8.3259528">
        <ele>4.763</ele>
        <time>2018-09-21T09:08:17.869Z</time>
      </trkpt>
      <trkpt lat="37.1032511" lon="-8.3260547">
        <ele>4.749</ele>
        <time>2018-09-21T09:08:20.605Z</time>
      </trkpt>
      <trkpt lat="37.1033735" lon="-8.3261481">
        <ele>5.011</ele>
        <time>2018-09-21T09:08:23.710Z</time>
      </trkpt>
      <trkpt lat="37.1034910" lon="-8.3262219">
        <ele>5.410</ele>
        <time>2018-09-21T09:08:26.638Z</time>
      </trkpt>
      <trkpt lat="37.1035711" lon="-8.3263193">
        <ele>5.736</ele>
        <time>2018-09-21T09:08:29.290Z</time>
      </trkpt>
      <trkpt lat="37.1037078" lon="-8.3263882">
        <ele>5.830</ele>
        <time>2018-09-21T09:08:32.689Z</time>
      </trkpt>
      <trkpt lat="37.1038194" lon="-8.3264824">
        <ele>5.714</ele>
        <time>2018-09-21T09:08:35.648Z</time>
      </trkpt>
      <trkpt lat="37.1039414" lon="-8.3265635">
        <ele>5.502</ele>
        <time>2018-09-21T09:08:38.826Z</time>
      </trkpt>
      <trkpt lat="37.1040388" lon="-8.3266348">
        <ele>5.308</ele>
        <time>2018-09-21T09:08:41.707Z</time>
      </trkpt>
      <trkpt lat="37.1041289" lon="-8.3266692">
        <ele>5.167</ele>
        <time>2018-09-21T09:08:44.501Z</time>
      </trkpt>
      <trkpt lat="37.1042194" lon="-8.3267505">
        <ele>5.102</ele>
        <time>2018-09-21T09:08:47.913Z</time>
      </trkpt>
      <trkpt lat="37.1043141" lon="-8.3268276">
        <ele>5.117</ele>
        <time>2018-09-21T09:08:51.085Z</time>
      </trkpt>
      <trkpt lat="37.1044093" lon="-8.3268971">
        <ele>5.160</ele>
        <time>2018-09-21T09:08:53.944Z</time>
      </trkpt>
      <trkpt lat="37.1045116" lon="-8.3269673">
        <ele>5.072</ele>
        <time>2018-09-21T09:08:56.823Z</time>
      </trkpt>
      <trkpt lat="37.1046188" lon="-8.3270451">
        <ele>4.793</ele>
        <time>2018-09-21T09:08:59.809Z</time>
      </trkpt>
      <trkpt lat="37.1047197" lon="-8.3271541">
        <ele>4.519</ele>
        <time>2018-09-21T09:09:02.890Z</time>
      </trkpt>
      <trkpt lat="37.1048288" lon="-8.3272408">
        <ele>4.602</ele>
        <time>2018-09-21T09:09:05.796Z</time>
      </trkpt>
      <trkpt lat="37.1049458" lon="-8.3273187">
        <ele>5.089</ele>
        <time>2018-09-21T09:09:08.725Z</time>
      </trkpt>
      <trkpt lat="37.1050826" lon="-8.3274307">
        <ele>5.563</ele>
        <time>2018-09-21T09:09:11.942Z</time>
      </trkpt>
      <trkpt lat="37.1052209" lon="-8.3276176">
        <ele>5.691</ele>
        <time>2018-09-21T09:09:15.478Z</time>
      </trkpt>
      <trkpt lat="37.1053239" lon="-8.3278138">
        <ele>5.606</ele>
        <time>2018-09-21T09:09:18.533Z</time>
      </trkpt>
      <trkpt lat="37.1054063" lon="-8.3279757">
        <ele>5.454</ele>
        <time>2018-09-21T09:09:20.987Z</time>
      </trkpt>
      <trkpt lat="37.1054587" lon="-8.3281886">
        <ele>4.786</ele>
        <time>2018-09-21T09:09:23.873Z</time>
      </trkpt>
      <trkpt lat="37.1055270" lon="-8.3283985">
        <ele>3.235</ele>
        <time>2018-09-21T09:09:26.924Z</time>
      </trkpt>
      <trkpt lat="37.1056008" lon="-8.3285990">
        <ele>1.455</ele>
        <time>2018-09-21T09:09:30.087Z</time>
      </trkpt>
      <trkpt lat="37.1056461" lon="-8.3287823">
        <ele>0.321</ele>
        <time>2018-09-21T09:09:33.041Z</time>
      </trkpt>
      <trkpt lat="37.1056936" lon="-8.3289403">
        <ele>0.000</ele>
        <time>2018-09-21T09:09:35.838Z</time>
      </trkpt>
      <trkpt lat="37.1057267" lon="-8.3290987">
        <ele>0.000</ele>
        <time>2018-09-21T09:09:38.682Z</time>
      </trkpt>
      <trkpt lat="37.1057726" lon="-8.3292633">
        <ele>0.225</ele>
        <time>2018-09-21T09:09:41.704Z</time>
      </trkpt>
      <trkpt lat="37.1058237" lon="-8.3294326">
        <ele>0.987</ele>
        <time>2018-09-21T09:09:44.801Z</time>
      </trkpt>
      <trkpt lat="37.1058689" lon="-8.3295950">
        <ele>1.764</ele>
        <time>2018-09-21T09:09:47.811Z</time>
      </trkpt>
      <trkpt lat="37.1059237" lon="-8.3297396">
        <ele>2.153</ele>
        <time>2018-09-21T09:09:50.743Z</time>
      </trkpt>
      <trkpt lat="37.1059943" lon="-8.3298771">
        <ele>2.449</ele>
        <time>2018-09-21T09:09:53.824Z</time>
      </trkpt>
      <trkpt lat="37.1060801" lon="-8.3299992">
        <ele>3.164</ele>
        <time>2018-09-21T09:09:56.852Z</time>
      </trkpt>
      <trkpt lat="37.1061506" lon="-8.3301303">
        <ele>4.190</ele>
        <time>2018-09-21T09:09:59.785Z</time>
      </trkpt>
      <trkpt lat="37.1062308" lon="-8.3302510">
        <ele>4.949</ele>
        <time>2018-09-21T09:10:02.765Z</time>
      </trkpt>
      <trkpt lat="37.1062945" lon="-8.3303810">
        <ele>5.281</ele>
        <time>2018-09-21T09:10:05.633Z</time>
      </trkpt>
      <trkpt lat="37.1063666" lon="-8.3304965">
        <ele>5.513</ele>
        <time>2018-09-21T09:10:08.361Z</time>
      </trkpt>
      <trkpt lat="37.1064690" lon="-8.3306016">
        <ele>5.854</ele>
        <time>2018-09-21T09:10:11.464Z</time>
      </trkpt>
      <trkpt lat="37.1065780" lon="-8.3307027">
        <ele>6.247</ele>
        <time>2018-09-21T09:10:14.651Z</time>
      </trkpt>
      <trkpt lat="37.1066806" lon="-8.3307931">
        <ele>6.703</ele>
        <time>2018-09-21T09:10:17.658Z</time>
      </trkpt>
      <trkpt lat="37.1067824" lon="-8.3308641">
        <ele>7.215</ele>
        <time>2018-09-21T09:10:20.500Z</time>
      </trkpt>
      <trkpt lat="37.1068908" lon="-8.3309342">
        <ele>7.607</ele>
        <time>2018-09-21T09:10:23.518Z</time>
      </trkpt>
      <trkpt lat="37.1069958" lon="-8.3310123">
        <ele>7.702</ele>
        <time>2018-09-21T09:10:26.506Z</time>
      </trkpt>
      <trkpt lat="37.1071085" lon="-8.3310895">
        <ele>7.284</ele>
        <time>2018-09-21T09:10:29.593Z</time>
      </trkpt>
      <trkpt lat="37.1072199" lon="-8.3311740">
        <ele>6.258</ele>
        <time>2018-09-21T09:10:32.657Z</time>
      </trkpt>
      <trkpt lat="37.1073198" lon="-8.3312564">
        <ele>4.991</ele>
        <time>2018-09-21T09:10:35.418Z</time>
      </trkpt>
      <trkpt lat="37.1074119" lon="-8.3313317">
        <ele>3.979</ele>
        <time>2018-09-21T09:10:38.015Z</time>
      </trkpt>
      <trkpt lat="37.1075048" lon="-8.3314071">
        <ele>3.381</ele>
        <time>2018-09-21T09:10:40.803Z</time>
      </trkpt>
      <trkpt lat="37.1076109" lon="-8.3315071">
        <ele>2.949</ele>
        <time>2018-09-21T09:10:44.160Z</time>
      </trkpt>
      <trkpt lat="37.1077000" lon="-8.3316110">
        <ele>2.471</ele>
        <time>2018-09-21T09:10:47.237Z</time>
      </trkpt>
      <trkpt lat="37.1077899" lon="-8.3317214">
        <ele>2.232</ele>
        <time>2018-09-21T09:10:50.384Z</time>
      </trkpt>
      <trkpt lat="37.1078466" lon="-8.3318303">
        <ele>2.796</ele>
        <time>2018-09-21T09:10:53.089Z</time>
      </trkpt>
      <trkpt lat="37.1079147" lon="-8.3319964">
        <ele>4.072</ele>
        <time>2018-09-21T09:10:56.736Z</time>
      </trkpt>
      <trkpt lat="37.1079955" lon="-8.3321090">
        <ele>5.297</ele>
        <time>2018-09-21T09:10:59.526Z</time>
      </trkpt>
      <trkpt lat="37.1081012" lon="-8.3322226">
        <ele>6.020</ele>
        <time>2018-09-21T09:11:02.841Z</time>
      </trkpt>
      <trkpt lat="37.1081856" lon="-8.3323484">
        <ele>6.447</ele>
        <time>2018-09-21T09:11:05.891Z</time>
      </trkpt>
      <trkpt lat="37.1082642" lon="-8.3324622">
        <ele>6.820</ele>
        <time>2018-09-21T09:11:08.712Z</time>
      </trkpt>
      <trkpt lat="37.1083326" lon="-8.3325846">
        <ele>7.244</ele>
        <time>2018-09-21T09:11:11.646Z</time>
      </trkpt>
      <trkpt lat="37.1084191" lon="-8.3326982">
        <ele>7.784</ele>
        <time>2018-09-21T09:11:14.777Z</time>
      </trkpt>
      <trkpt lat="37.1084882" lon="-8.3328355">
        <ele>8.393</ele>
        <time>2018-09-21T09:11:17.955Z</time>
      </trkpt>
      <trkpt lat="37.1085678" lon="-8.3329601">
        <ele>8.953</ele>
        <time>2018-09-21T09:11:21.151Z</time>
      </trkpt>
      <trkpt lat="37.1086411" lon="-8.3330654">
        <ele>9.558</ele>
        <time>2018-09-21T09:11:24.115Z</time>
      </trkpt>
      <trkpt lat="37.1087083" lon="-8.3331611">
        <ele>10.230</ele>
        <time>2018-09-21T09:11:26.941Z</time>
      </trkpt>
      <trkpt lat="37.1087778" lon="-8.3332609">
        <ele>10.722</ele>
        <time>2018-09-21T09:11:29.879Z</time>
      </trkpt>
      <trkpt lat="37.1088495" lon="-8.3333678">
        <ele>10.972</ele>
        <time>2018-09-21T09:11:32.874Z</time>
      </trkpt>
      <trkpt lat="37.1089312" lon="-8.3334706">
        <ele>11.159</ele>
        <time>2018-09-21T09:11:35.928Z</time>
      </trkpt>
      <trkpt lat="37.1090180" lon="-8.3335595">
        <ele>11.346</ele>
        <time>2018-09-21T09:11:38.881Z</time>
      </trkpt>
      <trkpt lat="37.1090930" lon="-8.3336714">
        <ele>11.528</ele>
        <time>2018-09-21T09:11:41.964Z</time>
      </trkpt>
      <trkpt lat="37.1091513" lon="-8.3337766">
        <ele>11.720</ele>
        <time>2018-09-21T09:11:44.827Z</time>
      </trkpt>
      <trkpt lat="37.1092003" lon="-8.3338791">
        <ele>12.004</ele>
        <time>2018-09-21T09:11:47.696Z</time>
      </trkpt>
      <trkpt lat="37.1092637" lon="-8.3340008">
        <ele>12.421</ele>
        <time>2018-09-21T09:11:51.297Z</time>
      </trkpt>
      <trkpt lat="37.1093445" lon="-8.3341032">
        <ele>12.964</ele>
        <time>2018-09-21T09:11:55.058Z</time>
      </trkpt>
      <trkpt lat="37.1094450" lon="-8.3341752">
        <ele>13.607</ele>
        <time>2018-09-21T09:11:58.995Z</time>
      </trkpt>
      <trkpt lat="37.1094450" lon="-8.3341752">
        <ele>14.165</ele>
        <time>2018-09-21T09:12:12.997Z</time>
      </trkpt>
      <trkpt lat="37.1094450" lon="-8.3341752">
        <ele>14.412</ele>
        <time>2018-09-21T09:17:57.136Z</time>
      </trkpt>
      <trkpt lat="37.1096606" lon="-8.3343778">
        <ele>14.376</ele>
        <time>2018-09-21T09:18:18.402Z</time>
      </trkpt>
      <trkpt lat="37.1096856" lon="-8.3344923">
        <ele>14.445</ele>
        <time>2018-09-21T09:18:21.727Z</time>
      </trkpt>
      <trkpt lat="37.1096728" lon="-8.3346318">
        <ele>14.892</ele>
        <time>2018-09-21T09:18:25.431Z</time>
      </trkpt>
      <trkpt lat="37.1097313" lon="-8.3347667">
        <ele>15.433</ele>
        <time>2018-09-21T09:18:29.030Z</time>
      </trkpt>
      <trkpt lat="37.1098112" lon="-8.3348681">
        <ele>15.708</ele>
        <time>2018-09-21T09:18:32.069Z</time>
      </trkpt>
      <trkpt lat="37.1098944" lon="-8.3349669">
        <ele>15.663</ele>
        <time>2018-09-21T09:18:35.013Z</time>
      </trkpt>
      <trkpt lat="37.1099734" lon="-8.3350802">
        <ele>15.377</ele>
        <time>2018-09-21T09:18:38.041Z</time>
      </trkpt>
      <trkpt lat="37.1100467" lon="-8.3351897">
        <ele>14.953</ele>
        <time>2018-09-21T09:18:40.827Z</time>
      </trkpt>
      <trkpt lat="37.1101181" lon="-8.3353089">
        <ele>14.413</ele>
        <time>2018-09-21T09:18:43.588Z</time>
      </trkpt>
      <trkpt lat="37.1101992" lon="-8.3354298">
        <ele>13.788</ele>
        <time>2018-09-21T09:18:46.332Z</time>
      </trkpt>
      <trkpt lat="37.1102902" lon="-8.3355603">
        <ele>13.160</ele>
        <time>2018-09-21T09:18:49.105Z</time>
      </trkpt>
      <trkpt lat="37.1103881" lon="-8.3356989">
        <ele>12.449</ele>
        <time>2018-09-21T09:18:51.792Z</time>
      </trkpt>
      <trkpt lat="37.1104880" lon="-8.3358777">
        <ele>11.498</ele>
        <time>2018-09-21T09:18:54.683Z</time>
      </trkpt>
      <trkpt lat="37.1105981" lon="-8.3360640">
        <ele>10.445</ele>
        <time>2018-09-21T09:18:57.564Z</time>
      </trkpt>
      <trkpt lat="37.1107395" lon="-8.3362231">
        <ele>9.531</ele>
        <time>2018-09-21T09:19:00.482Z</time>
      </trkpt>
      <trkpt lat="37.1108621" lon="-8.3364065">
        <ele>8.829</ele>
        <time>2018-09-21T09:19:03.461Z</time>
      </trkpt>
      <trkpt lat="37.1109721" lon="-8.3366085">
        <ele>8.319</ele>
        <time>2018-09-21T09:19:06.543Z</time>
      </trkpt>
      <trkpt lat="37.1110835" lon="-8.3367990">
        <ele>7.981</ele>
        <time>2018-09-21T09:19:09.661Z</time>
      </trkpt>
      <trkpt lat="37.1111807" lon="-8.3370013">
        <ele>7.778</ele>
        <time>2018-09-21T09:19:13.118Z</time>
      </trkpt>
      <trkpt lat="37.1112823" lon="-8.3371381">
        <ele>7.763</ele>
        <time>2018-09-21T09:19:16.002Z</time>
      </trkpt>
      <trkpt lat="37.1113909" lon="-8.3372710">
        <ele>7.946</ele>
        <time>2018-09-21T09:19:18.930Z</time>
      </trkpt>
      <trkpt lat="37.1115148" lon="-8.3374021">
        <ele>8.189</ele>
        <time>2018-09-21T09:19:22.128Z</time>
      </trkpt>
      <trkpt lat="37.1116245" lon="-8.3375270">
        <ele>8.357</ele>
        <time>2018-09-21T09:19:25.238Z</time>
      </trkpt>
      <trkpt lat="37.1117405" lon="-8.3376439">
        <ele>8.452</ele>
        <time>2018-09-21T09:19:28.447Z</time>
      </trkpt>
      <trkpt lat="37.1118504" lon="-8.3377387">
        <ele>8.487</ele>
        <time>2018-09-21T09:19:31.332Z</time>
      </trkpt>
      <trkpt lat="37.1119644" lon="-8.3378604">
        <ele>8.480</ele>
        <time>2018-09-21T09:19:34.604Z</time>
      </trkpt>
      <trkpt lat="37.1120698" lon="-8.3378761">
        <ele>8.463</ele>
        <time>2018-09-21T09:19:36.872Z</time>
      </trkpt>
      <trkpt lat="37.1122008" lon="-8.3379762">
        <ele>8.139</ele>
        <time>2018-09-21T09:19:40.098Z</time>
      </trkpt>
      <trkpt lat="37.1123005" lon="-8.3380864">
        <ele>7.323</ele>
        <time>2018-09-21T09:19:43.014Z</time>
      </trkpt>
      <trkpt lat="37.1124148" lon="-8.3381912">
        <ele>6.447</ele>
        <time>2018-09-21T09:19:46.206Z</time>
      </trkpt>
      <trkpt lat="37.1125159" lon="-8.3382449">
        <ele>5.866</ele>
        <time>2018-09-21T09:19:48.607Z</time>
      </trkpt>
      <trkpt lat="37.1126137" lon="-8.3383190">
        <ele>5.170</ele>
        <time>2018-09-21T09:19:51.032Z</time>
      </trkpt>
      <trkpt lat="37.1126938" lon="-8.3383911">
        <ele>4.135</ele>
        <time>2018-09-21T09:19:53.092Z</time>
      </trkpt>
      <trkpt lat="37.1127601" lon="-8.3384757">
        <ele>3.268</ele>
        <time>2018-09-21T09:19:55.067Z</time>
      </trkpt>
      <trkpt lat="37.1128670" lon="-8.3385762">
        <ele>3.291</ele>
        <time>2018-09-21T09:19:57.862Z</time>
      </trkpt>
      <trkpt lat="37.1129473" lon="-8.3386374">
        <ele>4.195</ele>
        <time>2018-09-21T09:19:59.840Z</time>
      </trkpt>
      <trkpt lat="37.1130267" lon="-8.3387023">
        <ele>5.232</ele>
        <time>2018-09-21T09:20:01.844Z</time>
      </trkpt>
      <trkpt lat="37.1131076" lon="-8.3387608">
        <ele>5.636</ele>
        <time>2018-09-21T09:20:03.780Z</time>
      </trkpt>
      <trkpt lat="37.1131846" lon="-8.3388330">
        <ele>5.374</ele>
        <time>2018-09-21T09:20:05.772Z</time>
      </trkpt>
      <trkpt lat="37.1132609" lon="-8.3389047">
        <ele>4.921</ele>
        <time>2018-09-21T09:20:07.806Z</time>
      </trkpt>
      <trkpt lat="37.1133394" lon="-8.3389653">
        <ele>4.667</ele>
        <time>2018-09-21T09:20:09.794Z</time>
      </trkpt>
      <trkpt lat="37.1134632" lon="-8.3390368">
        <ele>4.573</ele>
        <time>2018-09-21T09:20:12.738Z</time>
      </trkpt>
      <trkpt lat="37.1135527" lon="-8.3390981">
        <ele>4.475</ele>
        <time>2018-09-21T09:20:14.906Z</time>
      </trkpt>
      <trkpt lat="37.1136288" lon="-8.3391701">
        <ele>4.334</ele>
        <time>2018-09-21T09:20:16.970Z</time>
      </trkpt>
      <trkpt lat="37.1136946" lon="-8.3392471">
        <ele>4.290</ele>
        <time>2018-09-21T09:20:18.912Z</time>
      </trkpt>
      <trkpt lat="37.1137867" lon="-8.3393679">
        <ele>4.432</ele>
        <time>2018-09-21T09:20:21.772Z</time>
      </trkpt>
      <trkpt lat="37.1138522" lon="-8.3394591">
        <ele>4.639</ele>
        <time>2018-09-21T09:20:23.880Z</time>
      </trkpt>
      <trkpt lat="37.1139444" lon="-8.3395736">
        <ele>5.080</ele>
        <time>2018-09-21T09:20:26.678Z</time>
      </trkpt>
      <trkpt lat="37.1140092" lon="-8.3396618">
        <ele>5.929</ele>
        <time>2018-09-21T09:20:28.719Z</time>
      </trkpt>
      <trkpt lat="37.1140628" lon="-8.3397557">
        <ele>6.576</ele>
        <time>2018-09-21T09:20:30.659Z</time>
      </trkpt>
      <trkpt lat="37.1141278" lon="-8.3398462">
        <ele>6.464</ele>
        <time>2018-09-21T09:20:32.689Z</time>
      </trkpt>
      <trkpt lat="37.1141990" lon="-8.3399266">
        <ele>5.974</ele>
        <time>2018-09-21T09:20:34.696Z</time>
      </trkpt>
      <trkpt lat="37.1143118" lon="-8.3400491">
        <ele>5.759</ele>
        <time>2018-09-21T09:20:37.850Z</time>
      </trkpt>
      <trkpt lat="37.1143718" lon="-8.3401332">
        <ele>6.124</ele>
        <time>2018-09-21T09:20:39.763Z</time>
      </trkpt>
      <trkpt lat="37.1144741" lon="-8.3402297">
        <ele>6.933</ele>
        <time>2018-09-21T09:20:42.502Z</time>
      </trkpt>
      <trkpt lat="37.1145467" lon="-8.3403019">
        <ele>7.754</ele>
        <time>2018-09-21T09:20:44.495Z</time>
      </trkpt>
      <trkpt lat="37.1146484" lon="-8.3404066">
        <ele>8.252</ele>
        <time>2018-09-21T09:20:47.343Z</time>
      </trkpt>
      <trkpt lat="37.1147588" lon="-8.3405240">
        <ele>8.395</ele>
        <time>2018-09-21T09:20:50.452Z</time>
      </trkpt>
      <trkpt lat="37.1148545" lon="-8.3406373">
        <ele>8.230</ele>
        <time>2018-09-21T09:20:53.317Z</time>
      </trkpt>
      <trkpt lat="37.1149480" lon="-8.3407609">
        <ele>7.600</ele>
        <time>2018-09-21T09:20:56.290Z</time>
      </trkpt>
      <trkpt lat="37.1150537" lon="-8.3408672">
        <ele>6.630</ele>
        <time>2018-09-21T09:20:59.174Z</time>
      </trkpt>
      <trkpt lat="37.1151374" lon="-8.3409904">
        <ele>5.954</ele>
        <time>2018-09-21T09:21:01.838Z</time>
      </trkpt>
      <trkpt lat="37.1152599" lon="-8.3411047">
        <ele>5.918</ele>
        <time>2018-09-21T09:21:04.879Z</time>
      </trkpt>
      <trkpt lat="37.1153925" lon="-8.3412308">
        <ele>6.238</ele>
        <time>2018-09-21T09:21:08.251Z</time>
      </trkpt>
      <trkpt lat="37.1154604" lon="-8.3413853">
        <ele>6.528</ele>
        <time>2018-09-21T09:21:11.163Z</time>
      </trkpt>
      <trkpt lat="37.1154715" lon="-8.3415821">
        <ele>6.658</ele>
        <time>2018-09-21T09:21:14.271Z</time>
      </trkpt>
      <trkpt lat="37.1154289" lon="-8.3417618">
        <ele>6.652</ele>
        <time>2018-09-21T09:21:17.123Z</time>
      </trkpt>
      <trkpt lat="37.1154510" lon="-8.3419612">
        <ele>6.489</ele>
        <time>2018-09-21T09:21:20.336Z</time>
      </trkpt>
      <trkpt lat="37.1154851" lon="-8.3421409">
        <ele>6.196</ele>
        <time>2018-09-21T09:21:23.441Z</time>
      </trkpt>
      <trkpt lat="37.1155328" lon="-8.3423203">
        <ele>5.967</ele>
        <time>2018-09-21T09:21:26.996Z</time>
      </trkpt>
      <trkpt lat="37.1155673" lon="-8.3424718">
        <ele>5.906</ele>
        <time>2018-09-21T09:21:30.547Z</time>
      </trkpt>
      <trkpt lat="37.1155995" lon="-8.3425913">
        <ele>5.942</ele>
        <time>2018-09-21T09:21:33.727Z</time>
      </trkpt>
      <trkpt lat="37.1156052" lon="-8.3427111">
        <ele>6.037</ele>
        <time>2018-09-21T09:21:36.791Z</time>
      </trkpt>
      <trkpt lat="37.1156206" lon="-8.3428326">
        <ele>6.201</ele>
        <time>2018-09-21T09:21:39.694Z</time>
      </trkpt>
      <trkpt lat="37.1156571" lon="-8.3429505">
        <ele>6.371</ele>
        <time>2018-09-21T09:21:42.622Z</time>
      </trkpt>
      <trkpt lat="37.1156813" lon="-8.3430696">
        <ele>6.486</ele>
        <time>2018-09-21T09:21:45.539Z</time>
      </trkpt>
      <trkpt lat="37.1157049" lon="-8.3431873">
        <ele>6.549</ele>
        <time>2018-09-21T09:21:48.404Z</time>
      </trkpt>
      <trkpt lat="37.1157242" lon="-8.3433148">
        <ele>6.572</ele>
        <time>2018-09-21T09:21:51.346Z</time>
      </trkpt>
      <trkpt lat="37.1157440" lon="-8.3434388">
        <ele>6.507</ele>
        <time>2018-09-21T09:21:54.157Z</time>
      </trkpt>
      <trkpt lat="37.1157708" lon="-8.3435712">
        <ele>6.199</ele>
        <time>2018-09-21T09:21:57.029Z</time>
      </trkpt>
      <trkpt lat="37.1158034" lon="-8.3437100">
        <ele>5.606</ele>
        <time>2018-09-21T09:21:59.825Z</time>
      </trkpt>
      <trkpt lat="37.1158385" lon="-8.3438575">
        <ele>4.982</ele>
        <time>2018-09-21T09:22:02.643Z</time>
      </trkpt>
      <trkpt lat="37.1158743" lon="-8.3440144">
        <ele>4.642</ele>
        <time>2018-09-21T09:22:05.506Z</time>
      </trkpt>
      <trkpt lat="37.1159110" lon="-8.3441818">
        <ele>4.769</ele>
        <time>2018-09-21T09:22:08.340Z</time>
      </trkpt>
      <trkpt lat="37.1159395" lon="-8.3443667">
        <ele>5.339</ele>
        <time>2018-09-21T09:22:11.198Z</time>
      </trkpt>
      <trkpt lat="37.1159822" lon="-8.3445497">
        <ele>6.022</ele>
        <time>2018-09-21T09:22:13.932Z</time>
      </trkpt>
      <trkpt lat="37.1160470" lon="-8.3447523">
        <ele>6.411</ele>
        <time>2018-09-21T09:22:16.906Z</time>
      </trkpt>
      <trkpt lat="37.1160851" lon="-8.3449542">
        <ele>6.203</ele>
        <time>2018-09-21T09:22:19.591Z</time>
      </trkpt>
      <trkpt lat="37.1161274" lon="-8.3451816">
        <ele>5.376</ele>
        <time>2018-09-21T09:22:22.560Z</time>
      </trkpt>
      <trkpt lat="37.1161690" lon="-8.3454160">
        <ele>4.411</ele>
        <time>2018-09-21T09:22:25.748Z</time>
      </trkpt>
      <trkpt lat="37.1162240" lon="-8.3456127">
        <ele>3.827</ele>
        <time>2018-09-21T09:22:28.659Z</time>
      </trkpt>
      <trkpt lat="37.1162653" lon="-8.3458135">
        <ele>3.620</ele>
        <time>2018-09-21T09:22:31.590Z</time>
      </trkpt>
      <trkpt lat="37.1162818" lon="-8.3460300">
        <ele>3.550</ele>
        <time>2018-09-21T09:22:34.703Z</time>
      </trkpt>
      <trkpt lat="37.1163121" lon="-8.3462273">
        <ele>3.540</ele>
        <time>2018-09-21T09:22:37.695Z</time>
      </trkpt>
      <trkpt lat="37.1163328" lon="-8.3464099">
        <ele>3.605</ele>
        <time>2018-09-21T09:22:40.546Z</time>
      </trkpt>
      <trkpt lat="37.1163599" lon="-8.3465923">
        <ele>3.657</ele>
        <time>2018-09-21T09:22:43.412Z</time>
      </trkpt>
      <trkpt lat="37.1163649" lon="-8.3467943">
        <ele>3.558</ele>
        <time>2018-09-21T09:22:46.523Z</time>
      </trkpt>
      <trkpt lat="37.1163894" lon="-8.3469725">
        <ele>3.313</ele>
        <time>2018-09-21T09:22:49.395Z</time>
      </trkpt>
      <trkpt lat="37.1164047" lon="-8.3471642">
        <ele>3.073</ele>
        <time>2018-09-21T09:22:52.494Z</time>
      </trkpt>
      <trkpt lat="37.1164719" lon="-8.3473541">
        <ele>2.762</ele>
        <time>2018-09-21T09:22:55.748Z</time>
      </trkpt>
      <trkpt lat="37.1165196" lon="-8.3475323">
        <ele>2.189</ele>
        <time>2018-09-21T09:22:58.636Z</time>
      </trkpt>
      <trkpt lat="37.1165847" lon="-8.3477061">
        <ele>1.538</ele>
        <time>2018-09-21T09:23:01.648Z</time>
      </trkpt>
      <trkpt lat="37.1166462" lon="-8.3478227">
        <ele>1.085</ele>
        <time>2018-09-21T09:23:03.953Z</time>
      </trkpt>
      <trkpt lat="37.1167005" lon="-8.3479892">
        <ele>0.844</ele>
        <time>2018-09-21T09:23:07.034Z</time>
      </trkpt>
      <trkpt lat="37.1167696" lon="-8.3481489">
        <ele>0.750</ele>
        <time>2018-09-21T09:23:10.126Z</time>
      </trkpt>
      <trkpt lat="37.1168237" lon="-8.3483217">
        <ele>0.657</ele>
        <time>2018-09-21T09:23:13.271Z</time>
      </trkpt>
      <trkpt lat="37.1168661" lon="-8.3484763">
        <ele>0.455</ele>
        <time>2018-09-21T09:23:16.065Z</time>
      </trkpt>
      <trkpt lat="37.1169221" lon="-8.3486266">
        <ele>0.354</ele>
        <time>2018-09-21T09:23:18.969Z</time>
      </trkpt>
      <trkpt lat="37.1169741" lon="-8.3487662">
        <ele>0.645</ele>
        <time>2018-09-21T09:23:21.746Z</time>
      </trkpt>
      <trkpt lat="37.1170401" lon="-8.3489208">
        <ele>1.226</ele>
        <time>2018-09-21T09:23:24.901Z</time>
      </trkpt>
      <trkpt lat="37.1171321" lon="-8.3490491">
        <ele>1.724</ele>
        <time>2018-09-21T09:23:27.986Z</time>
      </trkpt>
      <trkpt lat="37.1172120" lon="-8.3491667">
        <ele>1.959</ele>
        <time>2018-09-21T09:23:30.752Z</time>
      </trkpt>
      <trkpt lat="37.1172917" lon="-8.3493122">
        <ele>2.349</ele>
        <time>2018-09-21T09:23:33.849Z</time>
      </trkpt>
      <trkpt lat="37.1173757" lon="-8.3494564">
        <ele>3.288</ele>
        <time>2018-09-21T09:23:36.873Z</time>
      </trkpt>
      <trkpt lat="37.1174759" lon="-8.3495818">
        <ele>4.399</ele>
        <time>2018-09-21T09:23:39.800Z</time>
      </trkpt>
      <trkpt lat="37.1175657" lon="-8.3497173">
        <ele>5.117</ele>
        <time>2018-09-21T09:23:42.778Z</time>
      </trkpt>
      <trkpt lat="37.1176527" lon="-8.3498405">
        <ele>5.431</ele>
        <time>2018-09-21T09:23:45.698Z</time>
      </trkpt>
      <trkpt lat="37.1177654" lon="-8.3499442">
        <ele>5.576</ele>
        <time>2018-09-21T09:23:48.789Z</time>
      </trkpt>
      <trkpt lat="37.1178388" lon="-8.3500509">
        <ele>5.722</ele>
        <time>2018-09-21T09:23:51.379Z</time>
      </trkpt>
      <trkpt lat="37.1179127" lon="-8.3501708">
        <ele>5.947</ele>
        <time>2018-09-21T09:23:54.334Z</time>
      </trkpt>
      <trkpt lat="37.1180138" lon="-8.3502860">
        <ele>6.262</ele>
        <time>2018-09-21T09:23:57.404Z</time>
      </trkpt>
      <trkpt lat="37.1180670" lon="-8.3503818">
        <ele>6.603</ele>
        <time>2018-09-21T09:23:59.658Z</time>
      </trkpt>
      <trkpt lat="37.1181540" lon="-8.3504792">
        <ele>6.950</ele>
        <time>2018-09-21T09:24:02.994Z</time>
      </trkpt>
      <trkpt lat="37.1181540" lon="-8.3504792">
        <ele>7.286</ele>
        <time>2018-09-21T09:24:09.994Z</time>
      </trkpt>
      <trkpt lat="37.1181540" lon="-8.3504792">
        <ele>7.475</ele>
        <time>2018-09-21T09:25:02.477Z</time>
      </trkpt>
      <trkpt lat="37.1183999" lon="-8.3504974">
        <ele>7.458</ele>
        <time>2018-09-21T09:25:22.992Z</time>
      </trkpt>
      <trkpt lat="37.1183999" lon="-8.3504974">
        <ele>7.381</ele>
        <time>2018-09-21T09:25:31.992Z</time>
      </trkpt>
      <trkpt lat="37.1183999" lon="-8.3504974">
        <ele>7.372</ele>
        <time>2018-09-21T09:27:01.001Z</time>
      </trkpt>
      <trkpt lat="37.1185565" lon="-8.3506423">
        <ele>7.400</ele>
        <time>2018-09-21T09:27:17.240Z</time>
      </trkpt>
      <trkpt lat="37.1185684" lon="-8.3507852">
        <ele>7.380</ele>
        <time>2018-09-21T09:27:21.246Z</time>
      </trkpt>
      <trkpt lat="37.1185425" lon="-8.3509169">
        <ele>7.198</ele>
        <time>2018-09-21T09:27:24.549Z</time>
      </trkpt>
      <trkpt lat="37.1184402" lon="-8.3510143">
        <ele>6.850</ele>
        <time>2018-09-21T09:27:28.222Z</time>
      </trkpt>
      <trkpt lat="37.1183223" lon="-8.3510369">
        <ele>6.525</ele>
        <time>2018-09-21T09:27:31.470Z</time>
      </trkpt>
      <trkpt lat="37.1182174" lon="-8.3509797">
        <ele>6.351</ele>
        <time>2018-09-21T09:27:34.527Z</time>
      </trkpt>
      <trkpt lat="37.1181114" lon="-8.3509222">
        <ele>6.282</ele>
        <time>2018-09-21T09:27:37.734Z</time>
      </trkpt>
      <trkpt lat="37.1180061" lon="-8.3509320">
        <ele>6.263</ele>
        <time>2018-09-21T09:27:40.716Z</time>
      </trkpt>
      <trkpt lat="37.1179121" lon="-8.3509861">
        <ele>6.262</ele>
        <time>2018-09-21T09:27:43.661Z</time>
      </trkpt>
      <trkpt lat="37.1178206" lon="-8.3510308">
        <ele>6.389</ele>
        <time>2018-09-21T09:27:46.525Z</time>
      </trkpt>
      <trkpt lat="37.1177287" lon="-8.3510678">
        <ele>6.734</ele>
        <time>2018-09-21T09:27:49.401Z</time>
      </trkpt>
      <trkpt lat="37.1176384" lon="-8.3510964">
        <ele>7.129</ele>
        <time>2018-09-21T09:27:52.107Z</time>
      </trkpt>
      <trkpt lat="37.1175407" lon="-8.3511413">
        <ele>7.416</ele>
        <time>2018-09-21T09:27:55.085Z</time>
      </trkpt>
      <trkpt lat="37.1174427" lon="-8.3511869">
        <ele>7.676</ele>
        <time>2018-09-21T09:27:58.145Z</time>
      </trkpt>
      <trkpt lat="37.1173568" lon="-8.3512357">
        <ele>7.937</ele>
        <time>2018-09-21T09:28:00.988Z</time>
      </trkpt>
      <trkpt lat="37.1172698" lon="-8.3512746">
        <ele>8.401</ele>
        <time>2018-09-21T09:28:03.800Z</time>
      </trkpt>
      <trkpt lat="37.1171881" lon="-8.3513235">
        <ele>9.253</ele>
        <time>2018-09-21T09:28:06.560Z</time>
      </trkpt>
      <trkpt lat="37.1170978" lon="-8.3513725">
        <ele>10.154</ele>
        <time>2018-09-21T09:28:09.588Z</time>
      </trkpt>
      <trkpt lat="37.1170044" lon="-8.3514046">
        <ele>10.788</ele>
        <time>2018-09-21T09:28:12.595Z</time>
      </trkpt>
      <trkpt lat="37.1169161" lon="-8.3514379">
        <ele>11.360</ele>
        <time>2018-09-21T09:28:15.527Z</time>
      </trkpt>
      <trkpt lat="37.1168227" lon="-8.3514677">
        <ele>12.106</ele>
        <time>2018-09-21T09:28:18.678Z</time>
      </trkpt>
      <trkpt lat="37.1167154" lon="-8.3514938">
        <ele>13.123</ele>
        <time>2018-09-21T09:28:22.226Z</time>
      </trkpt>
      <trkpt lat="37.1166306" lon="-8.3515322">
        <ele>14.370</ele>
        <time>2018-09-21T09:28:24.977Z</time>
      </trkpt>
      <trkpt lat="37.1165376" lon="-8.3515529">
        <ele>15.600</ele>
        <time>2018-09-21T09:28:27.772Z</time>
      </trkpt>
      <trkpt lat="37.1164465" lon="-8.3515816">
        <ele>16.520</ele>
        <time>2018-09-21T09:28:30.519Z</time>
      </trkpt>
      <trkpt lat="37.1163490" lon="-8.3515981">
        <ele>17.152</ele>
        <time>2018-09-21T09:28:33.407Z</time>
      </trkpt>
      <trkpt lat="37.1162590" lon="-8.3516304">
        <ele>17.774</ele>
        <time>2018-09-21T09:28:36.199Z</time>
      </trkpt>
      <trkpt lat="37.1161612" lon="-8.3516667">
        <ele>18.565</ele>
        <time>2018-09-21T09:28:39.303Z</time>
      </trkpt>
      <trkpt lat="37.1160654" lon="-8.3517047">
        <ele>19.436</ele>
        <time>2018-09-21T09:28:42.355Z</time>
      </trkpt>
      <trkpt lat="37.1159722" lon="-8.3517467">
        <ele>20.213</ele>
        <time>2018-09-21T09:28:45.180Z</time>
      </trkpt>
      <trkpt lat="37.1158693" lon="-8.3517872">
        <ele>20.792</ele>
        <time>2018-09-21T09:28:48.128Z</time>
      </trkpt>
      <trkpt lat="37.1157657" lon="-8.3518189">
        <ele>21.155</ele>
        <time>2018-09-21T09:28:50.991Z</time>
      </trkpt>
      <trkpt lat="37.1156619" lon="-8.3518533">
        <ele>21.475</ele>
        <time>2018-09-21T09:28:53.874Z</time>
      </trkpt>
      <trkpt lat="37.1155644" lon="-8.3518940">
        <ele>21.935</ele>
        <time>2018-09-21T09:28:56.700Z</time>
      </trkpt>
      <trkpt lat="37.1154604" lon="-8.3519319">
        <ele>22.380</ele>
        <time>2018-09-21T09:28:59.556Z</time>
      </trkpt>
      <trkpt lat="37.1153476" lon="-8.3519793">
        <ele>22.747</ele>
        <time>2018-09-21T09:29:02.642Z</time>
      </trkpt>
      <trkpt lat="37.1152485" lon="-8.3520174">
        <ele>23.169</ele>
        <time>2018-09-21T09:29:05.212Z</time>
      </trkpt>
      <trkpt lat="37.1151228" lon="-8.3520502">
        <ele>23.569</ele>
        <time>2018-09-21T09:29:08.187Z</time>
      </trkpt>
      <trkpt lat="37.1149932" lon="-8.3520727">
        <ele>23.863</ele>
        <time>2018-09-21T09:29:11.162Z</time>
      </trkpt>
      <trkpt lat="37.1148727" lon="-8.3521101">
        <ele>24.117</ele>
        <time>2018-09-21T09:29:14.042Z</time>
      </trkpt>
      <trkpt lat="37.1147662" lon="-8.3521711">
        <ele>24.301</ele>
        <time>2018-09-21T09:29:16.812Z</time>
      </trkpt>
      <trkpt lat="37.1146503" lon="-8.3522177">
        <ele>24.349</ele>
        <time>2018-09-21T09:29:19.680Z</time>
      </trkpt>
      <trkpt lat="37.1145301" lon="-8.3522556">
        <ele>24.289</ele>
        <time>2018-09-21T09:29:22.524Z</time>
      </trkpt>
      <trkpt lat="37.1144000" lon="-8.3523158">
        <ele>24.181</ele>
        <time>2018-09-21T09:29:25.625Z</time>
      </trkpt>
      <trkpt lat="37.1142739" lon="-8.3523616">
        <ele>23.827</ele>
        <time>2018-09-21T09:29:28.590Z</time>
      </trkpt>
      <trkpt lat="37.1141558" lon="-8.3523998">
        <ele>23.071</ele>
        <time>2018-09-21T09:29:31.430Z</time>
      </trkpt>
      <trkpt lat="37.1140390" lon="-8.3524379">
        <ele>22.266</ele>
        <time>2018-09-21T09:29:34.288Z</time>
      </trkpt>
      <trkpt lat="37.1139226" lon="-8.3524695">
        <ele>21.827</ele>
        <time>2018-09-21T09:29:37.121Z</time>
      </trkpt>
      <trkpt lat="37.1138116" lon="-8.3525114">
        <ele>21.724</ele>
        <time>2018-09-21T09:29:39.879Z</time>
      </trkpt>
      <trkpt lat="37.1136934" lon="-8.3525509">
        <ele>21.721</ele>
        <time>2018-09-21T09:29:42.742Z</time>
      </trkpt>
      <trkpt lat="37.1135709" lon="-8.3525887">
        <ele>21.627</ele>
        <time>2018-09-21T09:29:45.656Z</time>
      </trkpt>
      <trkpt lat="37.1134832" lon="-8.3526385">
        <ele>21.135</ele>
        <time>2018-09-21T09:29:47.997Z</time>
      </trkpt>
      <trkpt lat="37.1134832" lon="-8.3526385">
        <ele>20.172</ele>
        <time>2018-09-21T09:29:52.997Z</time>
      </trkpt>
      <trkpt lat="37.1134832" lon="-8.3526385">
        <ele>19.432</ele>
        <time>2018-09-21T09:30:05.737Z</time>
      </trkpt>
      <trkpt lat="37.1133210" lon="-8.3526627">
        <ele>19.444</ele>
        <time>2018-09-21T09:30:13.100Z</time>
      </trkpt>
      <trkpt lat="37.1131627" lon="-8.3526741">
        <ele>19.500</ele>
        <time>2018-09-21T09:30:16.666Z</time>
      </trkpt>
      <trkpt lat="37.1130037" lon="-8.3526958">
        <ele>18.802</ele>
        <time>2018-09-21T09:30:19.935Z</time>
      </trkpt>
      <trkpt lat="37.1128271" lon="-8.3527083">
        <ele>17.671</ele>
        <time>2018-09-21T09:30:23.385Z</time>
      </trkpt>
      <trkpt lat="37.1126164" lon="-8.3527258">
        <ele>16.790</ele>
        <time>2018-09-21T09:30:27.104Z</time>
      </trkpt>
      <trkpt lat="37.1123713" lon="-8.3527480">
        <ele>16.286</ele>
        <time>2018-09-21T09:30:30.702Z</time>
      </trkpt>
      <trkpt lat="37.1121117" lon="-8.3527786">
        <ele>16.045</ele>
        <time>2018-09-21T09:30:33.919Z</time>
      </trkpt>
      <trkpt lat="37.1118431" lon="-8.3528229">
        <ele>15.924</ele>
        <time>2018-09-21T09:30:37.046Z</time>
      </trkpt>
      <trkpt lat="37.1115760" lon="-8.3528320">
        <ele>15.573</ele>
        <time>2018-09-21T09:30:40.154Z</time>
      </trkpt>
      <trkpt lat="37.1113145" lon="-8.3528509">
        <ele>14.828</ele>
        <time>2018-09-21T09:30:43.297Z</time>
      </trkpt>
      <trkpt lat="37.1110798" lon="-8.3528889">
        <ele>13.931</ele>
        <time>2018-09-21T09:30:46.331Z</time>
      </trkpt>
      <trkpt lat="37.1108551" lon="-8.3529091">
        <ele>13.110</ele>
        <time>2018-09-21T09:30:49.561Z</time>
      </trkpt>
      <trkpt lat="37.1106318" lon="-8.3529291">
        <ele>11.642</ele>
        <time>2018-09-21T09:30:53.145Z</time>
      </trkpt>
      <trkpt lat="37.1104471" lon="-8.3529770">
        <ele>8.920</ele>
        <time>2018-09-21T09:30:56.271Z</time>
      </trkpt>
      <trkpt lat="37.1102767" lon="-8.3530363">
        <ele>5.516</ele>
        <time>2018-09-21T09:30:59.161Z</time>
      </trkpt>
      <trkpt lat="37.1100975" lon="-8.3530882">
        <ele>2.420</ele>
        <time>2018-09-21T09:31:02.108Z</time>
      </trkpt>
      <trkpt lat="37.1099170" lon="-8.3531778">
        <ele>0.318</ele>
        <time>2018-09-21T09:31:05.341Z</time>
      </trkpt>
      <trkpt lat="37.1097499" lon="-8.3532883">
        <ele>0.000</ele>
        <time>2018-09-21T09:31:08.658Z</time>
      </trkpt>
      <trkpt lat="37.1095996" lon="-8.3533831">
        <ele>0.957</ele>
        <time>2018-09-21T09:31:11.699Z</time>
      </trkpt>
      <trkpt lat="37.1094528" lon="-8.3534738">
        <ele>4.618</ele>
        <time>2018-09-21T09:31:14.686Z</time>
      </trkpt>
      <trkpt lat="37.1093348" lon="-8.3535713">
        <ele>8.276</ele>
        <time>2018-09-21T09:31:17.262Z</time>
      </trkpt>
      <trkpt lat="37.1092161" lon="-8.3536943">
        <ele>10.071</ele>
        <time>2018-09-21T09:31:20.148Z</time>
      </trkpt>
      <trkpt lat="37.1091101" lon="-8.3538495">
        <ele>10.461</ele>
        <time>2018-09-21T09:31:23.077Z</time>
      </trkpt>
      <trkpt lat="37.1089907" lon="-8.3539056">
        <ele>10.372</ele>
        <time>2018-09-21T09:31:25.141Z</time>
      </trkpt>
      <trkpt lat="37.1088241" lon="-8.3540423">
        <ele>10.376</ele>
        <time>2018-09-21T09:31:28.263Z</time>
      </trkpt>
      <trkpt lat="37.1086681" lon="-8.3541703">
        <ele>10.585</ele>
        <time>2018-09-21T09:31:31.120Z</time>
      </trkpt>
      <trkpt lat="37.1085038" lon="-8.3542804">
        <ele>10.996</ele>
        <time>2018-09-21T09:31:33.964Z</time>
      </trkpt>
      <trkpt lat="37.1083257" lon="-8.3544165">
        <ele>11.710</ele>
        <time>2018-09-21T09:31:37.123Z</time>
      </trkpt>
      <trkpt lat="37.1081578" lon="-8.3545421">
        <ele>12.609</ele>
        <time>2018-09-21T09:31:40.021Z</time>
      </trkpt>
      <trkpt lat="37.1079832" lon="-8.3546895">
        <ele>13.317</ele>
        <time>2018-09-21T09:31:43.107Z</time>
      </trkpt>
      <trkpt lat="37.1078151" lon="-8.3548523">
        <ele>13.629</ele>
        <time>2018-09-21T09:31:46.262Z</time>
      </trkpt>
      <trkpt lat="37.1076594" lon="-8.3550084">
        <ele>13.514</ele>
        <time>2018-09-21T09:31:49.312Z</time>
      </trkpt>
      <trkpt lat="37.1075181" lon="-8.3551379">
        <ele>13.037</ele>
        <time>2018-09-21T09:31:52.158Z</time>
      </trkpt>
      <trkpt lat="37.1073711" lon="-8.3552918">
        <ele>12.305</ele>
        <time>2018-09-21T09:31:55.568Z</time>
      </trkpt>
      <trkpt lat="37.1072611" lon="-8.3554563">
        <ele>11.428</ele>
        <time>2018-09-21T09:31:58.961Z</time>
      </trkpt>
      <trkpt lat="37.1071600" lon="-8.3556021">
        <ele>10.625</ele>
        <time>2018-09-21T09:32:02.139Z</time>
      </trkpt>
      <trkpt lat="37.1069948" lon="-8.3556210">
        <ele>10.034</ele>
        <time>2018-09-21T09:32:05.408Z</time>
      </trkpt>
      <trkpt lat="37.1068645" lon="-8.3557063">
        <ele>9.565</ele>
        <time>2018-09-21T09:32:08.218Z</time>
      </trkpt>
      <trkpt lat="37.1067561" lon="-8.3558226">
        <ele>9.230</ele>
        <time>2018-09-21T09:32:11.032Z</time>
      </trkpt>
      <trkpt lat="37.1066461" lon="-8.3559655">
        <ele>9.120</ele>
        <time>2018-09-21T09:32:14.393Z</time>
      </trkpt>
      <trkpt lat="37.1065399" lon="-8.3560713">
        <ele>9.335</ele>
        <time>2018-09-21T09:32:17.336Z</time>
      </trkpt>
      <trkpt lat="37.1064220" lon="-8.3561694">
        <ele>9.824</ele>
        <time>2018-09-21T09:32:20.363Z</time>
      </trkpt>
      <trkpt lat="37.1063320" lon="-8.3563146">
        <ele>10.414</ele>
        <time>2018-09-21T09:32:23.473Z</time>
      </trkpt>
      <trkpt lat="37.1062315" lon="-8.3564198">
        <ele>10.953</ele>
        <time>2018-09-21T09:32:26.143Z</time>
      </trkpt>
      <trkpt lat="37.1061262" lon="-8.3565519">
        <ele>11.328</ele>
        <time>2018-09-21T09:32:29.128Z</time>
      </trkpt>
      <trkpt lat="37.1060104" lon="-8.3566950">
        <ele>11.498</ele>
        <time>2018-09-21T09:32:32.409Z</time>
      </trkpt>
      <trkpt lat="37.1059110" lon="-8.3568101">
        <ele>11.645</ele>
        <time>2018-09-21T09:32:35.004Z</time>
      </trkpt>
      <trkpt lat="37.1057831" lon="-8.3569269">
        <ele>11.931</ele>
        <time>2018-09-21T09:32:37.801Z</time>
      </trkpt>
      <trkpt lat="37.1056516" lon="-8.3570305">
        <ele>12.262</ele>
        <time>2018-09-21T09:32:40.393Z</time>
      </trkpt>
      <trkpt lat="37.1055283" lon="-8.3571818">
        <ele>12.403</ele>
        <time>2018-09-21T09:32:43.212Z</time>
      </trkpt>
      <trkpt lat="37.1054354" lon="-8.3573608">
        <ele>12.288</ele>
        <time>2018-09-21T09:32:45.971Z</time>
      </trkpt>
      <trkpt lat="37.1053194" lon="-8.3575413">
        <ele>12.058</ele>
        <time>2018-09-21T09:32:49.039Z</time>
      </trkpt>
      <trkpt lat="37.1052452" lon="-8.3577025">
        <ele>11.876</ele>
        <time>2018-09-21T09:32:51.626Z</time>
      </trkpt>
      <trkpt lat="37.1051572" lon="-8.3578760">
        <ele>11.769</ele>
        <time>2018-09-21T09:32:54.562Z</time>
      </trkpt>
      <trkpt lat="37.1050705" lon="-8.3580535">
        <ele>11.664</ele>
        <time>2018-09-21T09:32:57.603Z</time>
      </trkpt>
      <trkpt lat="37.1050415" lon="-8.3582341">
        <ele>11.514</ele>
        <time>2018-09-21T09:33:00.357Z</time>
      </trkpt>
      <trkpt lat="37.1049909" lon="-8.3584119">
        <ele>11.151</ele>
        <time>2018-09-21T09:33:03.127Z</time>
      </trkpt>
      <trkpt lat="37.1049034" lon="-8.3586121">
        <ele>10.372</ele>
        <time>2018-09-21T09:33:06.290Z</time>
      </trkpt>
      <trkpt lat="37.1048619" lon="-8.3588206">
        <ele>9.426</ele>
        <time>2018-09-21T09:33:09.228Z</time>
      </trkpt>
      <trkpt lat="37.1048207" lon="-8.3590306">
        <ele>9.209</ele>
        <time>2018-09-21T09:33:12.419Z</time>
      </trkpt>
      <trkpt lat="37.1047890" lon="-8.3592085">
        <ele>10.066</ele>
        <time>2018-09-21T09:33:15.326Z</time>
      </trkpt>
      <trkpt lat="37.1047876" lon="-8.3593751">
        <ele>10.826</ele>
        <time>2018-09-21T09:33:18.023Z</time>
      </trkpt>
      <trkpt lat="37.1047494" lon="-8.3595588">
        <ele>10.424</ele>
        <time>2018-09-21T09:33:21.119Z</time>
      </trkpt>
      <trkpt lat="37.1047325" lon="-8.3597358">
        <ele>8.905</ele>
        <time>2018-09-21T09:33:24.096Z</time>
      </trkpt>
      <trkpt lat="37.1047292" lon="-8.3599281">
        <ele>6.789</ele>
        <time>2018-09-21T09:33:27.377Z</time>
      </trkpt>
      <trkpt lat="37.1047130" lon="-8.3601002">
        <ele>4.897</ele>
        <time>2018-09-21T09:33:30.324Z</time>
      </trkpt>
      <trkpt lat="37.1046873" lon="-8.3602808">
        <ele>3.811</ele>
        <time>2018-09-21T09:33:33.268Z</time>
      </trkpt>
      <trkpt lat="37.1046456" lon="-8.3604519">
        <ele>3.391</ele>
        <time>2018-09-21T09:33:35.932Z</time>
      </trkpt>
      <trkpt lat="37.1046068" lon="-8.3606585">
        <ele>3.355</ele>
        <time>2018-09-21T09:33:38.904Z</time>
      </trkpt>
      <trkpt lat="37.1045752" lon="-8.3608632">
        <ele>3.656</ele>
        <time>2018-09-21T09:33:41.725Z</time>
      </trkpt>
      <trkpt lat="37.1045552" lon="-8.3610790">
        <ele>4.292</ele>
        <time>2018-09-21T09:33:44.652Z</time>
      </trkpt>
      <trkpt lat="37.1045009" lon="-8.3612852">
        <ele>5.439</ele>
        <time>2018-09-21T09:33:47.595Z</time>
      </trkpt>
      <trkpt lat="37.1044618" lon="-8.3614844">
        <ele>7.099</ele>
        <time>2018-09-21T09:33:50.404Z</time>
      </trkpt>
      <trkpt lat="37.1044292" lon="-8.3616983">
        <ele>8.541</ele>
        <time>2018-09-21T09:33:53.324Z</time>
      </trkpt>
      <trkpt lat="37.1044174" lon="-8.3619380">
        <ele>9.164</ele>
        <time>2018-09-21T09:33:56.456Z</time>
      </trkpt>
      <trkpt lat="37.1043848" lon="-8.3621780">
        <ele>9.324</ele>
        <time>2018-09-21T09:33:59.723Z</time>
      </trkpt>
      <trkpt lat="37.1043582" lon="-8.3623820">
        <ele>9.429</ele>
        <time>2018-09-21T09:34:02.702Z</time>
      </trkpt>
      <trkpt lat="37.1043258" lon="-8.3625737">
        <ele>9.670</ele>
        <time>2018-09-21T09:34:05.881Z</time>
      </trkpt>
      <trkpt lat="37.1043746" lon="-8.3627260">
        <ele>10.057</ele>
        <time>2018-09-21T09:34:08.824Z</time>
      </trkpt>
      <trkpt lat="37.1043582" lon="-8.3628824">
        <ele>10.226</ele>
        <time>2018-09-21T09:34:11.763Z</time>
      </trkpt>
      <trkpt lat="37.1043197" lon="-8.3630323">
        <ele>9.909</ele>
        <time>2018-09-21T09:34:14.730Z</time>
      </trkpt>
      <trkpt lat="37.1043361" lon="-8.3631939">
        <ele>9.460</ele>
        <time>2018-09-21T09:34:17.829Z</time>
      </trkpt>
      <trkpt lat="37.1043487" lon="-8.3633417">
        <ele>9.469</ele>
        <time>2018-09-21T09:34:20.691Z</time>
      </trkpt>
      <trkpt lat="37.1043799" lon="-8.3634870">
        <ele>10.038</ele>
        <time>2018-09-21T09:34:23.668Z</time>
      </trkpt>
      <trkpt lat="37.1043757" lon="-8.3636437">
        <ele>10.525</ele>
        <time>2018-09-21T09:34:26.917Z</time>
      </trkpt>
      <trkpt lat="37.1043662" lon="-8.3637882">
        <ele>10.424</ele>
        <time>2018-09-21T09:34:30.058Z</time>
      </trkpt>
      <trkpt lat="37.1043943" lon="-8.3639149">
        <ele>10.048</ele>
        <time>2018-09-21T09:34:32.897Z</time>
      </trkpt>
      <trkpt lat="37.1044189" lon="-8.3640483">
        <ele>9.798</ele>
        <time>2018-09-21T09:34:35.736Z</time>
      </trkpt>
      <trkpt lat="37.1044372" lon="-8.3641797">
        <ele>9.784</ele>
        <time>2018-09-21T09:34:38.425Z</time>
      </trkpt>
      <trkpt lat="37.1044484" lon="-8.3643236">
        <ele>9.965</ele>
        <time>2018-09-21T09:34:41.296Z</time>
      </trkpt>
      <trkpt lat="37.1044687" lon="-8.3644674">
        <ele>10.171</ele>
        <time>2018-09-21T09:34:44.186Z</time>
      </trkpt>
      <trkpt lat="37.1044958" lon="-8.3646137">
        <ele>10.330</ele>
        <time>2018-09-21T09:34:47.141Z</time>
      </trkpt>
      <trkpt lat="37.1045268" lon="-8.3647652">
        <ele>10.490</ele>
        <time>2018-09-21T09:34:50.185Z</time>
      </trkpt>
      <trkpt lat="37.1045576" lon="-8.3649172">
        <ele>10.634</ele>
        <time>2018-09-21T09:34:53.251Z</time>
      </trkpt>
      <trkpt lat="37.1045924" lon="-8.3650580">
        <ele>10.905</ele>
        <time>2018-09-21T09:34:56.284Z</time>
      </trkpt>
      <trkpt lat="37.1046201" lon="-8.3651909">
        <ele>11.457</ele>
        <time>2018-09-21T09:34:59.181Z</time>
      </trkpt>
      <trkpt lat="37.1046508" lon="-8.3653321">
        <ele>12.487</ele>
        <time>2018-09-21T09:35:02.175Z</time>
      </trkpt>
      <trkpt lat="37.1046825" lon="-8.3654758">
        <ele>14.023</ele>
        <time>2018-09-21T09:35:05.262Z</time>
      </trkpt>
      <trkpt lat="37.1047020" lon="-8.3656071">
        <ele>15.474</ele>
        <time>2018-09-21T09:35:08.161Z</time>
      </trkpt>
      <trkpt lat="37.1047212" lon="-8.3657322">
        <ele>16.273</ele>
        <time>2018-09-21T09:35:10.813Z</time>
      </trkpt>
      <trkpt lat="37.1047592" lon="-8.3658761">
        <ele>16.514</ele>
        <time>2018-09-21T09:35:13.687Z</time>
      </trkpt>
      <trkpt lat="37.1048038" lon="-8.3660309">
        <ele>16.428</ele>
        <time>2018-09-21T09:35:16.585Z</time>
      </trkpt>
      <trkpt lat="37.1048637" lon="-8.3661309">
        <ele>16.250</ele>
        <time>2018-09-21T09:35:18.723Z</time>
      </trkpt>
      <trkpt lat="37.1049186" lon="-8.3662263">
        <ele>16.085</ele>
        <time>2018-09-21T09:35:20.802Z</time>
      </trkpt>
      <trkpt lat="37.1049386" lon="-8.3663881">
        <ele>15.914</ele>
        <time>2018-09-21T09:35:23.817Z</time>
      </trkpt>
      <trkpt lat="37.1049567" lon="-8.3665204">
        <ele>15.930</ele>
        <time>2018-09-21T09:35:26.447Z</time>
      </trkpt>
      <trkpt lat="37.1049800" lon="-8.3666560">
        <ele>16.308</ele>
        <time>2018-09-21T09:35:29.451Z</time>
      </trkpt>
      <trkpt lat="37.1049951" lon="-8.3667767">
        <ele>16.812</ele>
        <time>2018-09-21T09:35:32.102Z</time>
      </trkpt>
      <trkpt lat="37.1049974" lon="-8.3669182">
        <ele>17.026</ele>
        <time>2018-09-21T09:35:34.989Z</time>
      </trkpt>
      <trkpt lat="37.1049890" lon="-8.3670699">
        <ele>16.835</ele>
        <time>2018-09-21T09:35:37.925Z</time>
      </trkpt>
      <trkpt lat="37.1049738" lon="-8.3672265">
        <ele>16.475</ele>
        <time>2018-09-21T09:35:40.849Z</time>
      </trkpt>
      <trkpt lat="37.1049383" lon="-8.3673948">
        <ele>16.252</ele>
        <time>2018-09-21T09:35:43.920Z</time>
      </trkpt>
      <trkpt lat="37.1048862" lon="-8.3675670">
        <ele>16.352</ele>
        <time>2018-09-21T09:35:47.022Z</time>
      </trkpt>
      <trkpt lat="37.1048363" lon="-8.3677337">
        <ele>16.749</ele>
        <time>2018-09-21T09:35:49.922Z</time>
      </trkpt>
      <trkpt lat="37.1047625" lon="-8.3678938">
        <ele>17.183</ele>
        <time>2018-09-21T09:35:52.799Z</time>
      </trkpt>
      <trkpt lat="37.1046656" lon="-8.3680946">
        <ele>17.462</ele>
        <time>2018-09-21T09:35:56.276Z</time>
      </trkpt>
      <trkpt lat="37.1045669" lon="-8.3682713">
        <ele>17.673</ele>
        <time>2018-09-21T09:35:59.397Z</time>
      </trkpt>
      <trkpt lat="37.1044972" lon="-8.3684333">
        <ele>17.910</ele>
        <time>2018-09-21T09:36:01.950Z</time>
      </trkpt>
      <trkpt lat="37.1043714" lon="-8.3686223">
        <ele>17.964</ele>
        <time>2018-09-21T09:36:05.070Z</time>
      </trkpt>
      <trkpt lat="37.1042426" lon="-8.3688551">
        <ele>17.627</ele>
        <time>2018-09-21T09:36:08.261Z</time>
      </trkpt>
      <trkpt lat="37.1041301" lon="-8.3691004">
        <ele>16.973</ele>
        <time>2018-09-21T09:36:11.299Z</time>
      </trkpt>
      <trkpt lat="37.1041263" lon="-8.3693662">
        <ele>15.996</ele>
        <time>2018-09-21T09:36:14.282Z</time>
      </trkpt>
      <trkpt lat="37.1040281" lon="-8.3695746">
        <ele>14.666</ele>
        <time>2018-09-21T09:36:17.213Z</time>
      </trkpt>
      <trkpt lat="37.1039603" lon="-8.3697733">
        <ele>13.295</ele>
        <time>2018-09-21T09:36:19.957Z</time>
      </trkpt>
      <trkpt lat="37.1039388" lon="-8.3700037">
        <ele>12.306</ele>
        <time>2018-09-21T09:36:22.961Z</time>
      </trkpt>
      <trkpt lat="37.1038516" lon="-8.3701892">
        <ele>11.626</ele>
        <time>2018-09-21T09:36:25.724Z</time>
      </trkpt>
      <trkpt lat="37.1036946" lon="-8.3703478">
        <ele>10.734</ele>
        <time>2018-09-21T09:36:28.840Z</time>
      </trkpt>
      <trkpt lat="37.1036226" lon="-8.3705937">
        <ele>9.506</ele>
        <time>2018-09-21T09:36:32.055Z</time>
      </trkpt>
      <trkpt lat="37.1035827" lon="-8.3708177">
        <ele>8.417</ele>
        <time>2018-09-21T09:36:35.219Z</time>
      </trkpt>
      <trkpt lat="37.1035766" lon="-8.3709887">
        <ele>7.844</ele>
        <time>2018-09-21T09:36:38.195Z</time>
      </trkpt>
      <trkpt lat="37.1035845" lon="-8.3711203">
        <ele>7.755</ele>
        <time>2018-09-21T09:36:40.958Z</time>
      </trkpt>
      <trkpt lat="37.1035766" lon="-8.3712627">
        <ele>7.973</ele>
        <time>2018-09-21T09:36:44.045Z</time>
      </trkpt>
      <trkpt lat="37.1036101" lon="-8.3714093">
        <ele>8.428</ele>
        <time>2018-09-21T09:36:47.263Z</time>
      </trkpt>
      <trkpt lat="37.1036329" lon="-8.3715340">
        <ele>9.166</ele>
        <time>2018-09-21T09:36:50.092Z</time>
      </trkpt>
      <trkpt lat="37.1036692" lon="-8.3716520">
        <ele>10.072</ele>
        <time>2018-09-21T09:36:53.033Z</time>
      </trkpt>
      <trkpt lat="37.1036886" lon="-8.3717734">
        <ele>10.802</ele>
        <time>2018-09-21T09:36:55.916Z</time>
      </trkpt>
      <trkpt lat="37.1037067" lon="-8.3718927">
        <ele>11.405</ele>
        <time>2018-09-21T09:36:58.670Z</time>
      </trkpt>
      <trkpt lat="37.1037370" lon="-8.3720192">
        <ele>12.227</ele>
        <time>2018-09-21T09:37:01.692Z</time>
      </trkpt>
      <trkpt lat="37.1037617" lon="-8.3721312">
        <ele>13.301</ele>
        <time>2018-09-21T09:37:04.460Z</time>
      </trkpt>
      <trkpt lat="37.1037695" lon="-8.3722541">
        <ele>14.396</ele>
        <time>2018-09-21T09:37:07.375Z</time>
      </trkpt>
      <trkpt lat="37.1037904" lon="-8.3723837">
        <ele>15.383</ele>
        <time>2018-09-21T09:37:10.411Z</time>
      </trkpt>
      <trkpt lat="37.1038141" lon="-8.3725050">
        <ele>16.376</ele>
        <time>2018-09-21T09:37:13.379Z</time>
      </trkpt>
      <trkpt lat="37.1038269" lon="-8.3726276">
        <ele>17.559</ele>
        <time>2018-09-21T09:37:16.370Z</time>
      </trkpt>
      <trkpt lat="37.1038485" lon="-8.3727572">
        <ele>18.786</ele>
        <time>2018-09-21T09:37:19.457Z</time>
      </trkpt>
      <trkpt lat="37.1038689" lon="-8.3728848">
        <ele>19.929</ele>
        <time>2018-09-21T09:37:22.495Z</time>
      </trkpt>
      <trkpt lat="37.1038778" lon="-8.3730038">
        <ele>20.983</ele>
        <time>2018-09-21T09:37:25.318Z</time>
      </trkpt>
      <trkpt lat="37.1038991" lon="-8.3731261">
        <ele>21.919</ele>
        <time>2018-09-21T09:37:28.244Z</time>
      </trkpt>
      <trkpt lat="37.1039233" lon="-8.3732462">
        <ele>22.768</ele>
        <time>2018-09-21T09:37:31.166Z</time>
      </trkpt>
      <trkpt lat="37.1039311" lon="-8.3733592">
        <ele>23.567</ele>
        <time>2018-09-21T09:37:33.991Z</time>
      </trkpt>
      <trkpt lat="37.1039458" lon="-8.3734909">
        <ele>24.332</ele>
        <time>2018-09-21T09:37:37.509Z</time>
      </trkpt>
      <trkpt lat="37.1039616" lon="-8.3736395">
        <ele>25.117</ele>
        <time>2018-09-21T09:37:41.523Z</time>
      </trkpt>
      <trkpt lat="37.1039790" lon="-8.3737583">
        <ele>25.949</ele>
        <time>2018-09-21T09:37:44.612Z</time>
      </trkpt>
      <trkpt lat="37.1040000" lon="-8.3738926">
        <ele>26.862</ele>
        <time>2018-09-21T09:37:48.186Z</time>
      </trkpt>
      <trkpt lat="37.1040329" lon="-8.3740326">
        <ele>27.833</ele>
        <time>2018-09-21T09:37:52.280Z</time>
      </trkpt>
      <trkpt lat="37.1040654" lon="-8.3741405">
        <ele>28.687</ele>
        <time>2018-09-21T09:37:55.558Z</time>
      </trkpt>
      <trkpt lat="37.1040981" lon="-8.3742467">
        <ele>29.261</ele>
        <time>2018-09-21T09:37:58.784Z</time>
      </trkpt>
      <trkpt lat="37.1041211" lon="-8.3743601">
        <ele>29.755</ele>
        <time>2018-09-21T09:38:02.022Z</time>
      </trkpt>
      <trkpt lat="37.1041500" lon="-8.3744745">
        <ele>30.536</ele>
        <time>2018-09-21T09:38:05.215Z</time>
      </trkpt>
      <trkpt lat="37.1041849" lon="-8.3745884">
        <ele>31.573</ele>
        <time>2018-09-21T09:38:08.383Z</time>
      </trkpt>
      <trkpt lat="37.1042236" lon="-8.3746952">
        <ele>32.528</ele>
        <time>2018-09-21T09:38:11.431Z</time>
      </trkpt>
      <trkpt lat="37.1042719" lon="-8.3747906">
        <ele>33.142</ele>
        <time>2018-09-21T09:38:14.364Z</time>
      </trkpt>
      <trkpt lat="37.1043098" lon="-8.3749018">
        <ele>33.366</ele>
        <time>2018-09-21T09:38:17.477Z</time>
      </trkpt>
      <trkpt lat="37.1043495" lon="-8.3750080">
        <ele>33.413</ele>
        <time>2018-09-21T09:38:20.510Z</time>
      </trkpt>
      <trkpt lat="37.1043990" lon="-8.3751413">
        <ele>33.481</ele>
        <time>2018-09-21T09:38:24.423Z</time>
      </trkpt>
      <trkpt lat="37.1044589" lon="-8.3752541">
        <ele>33.559</ele>
        <time>2018-09-21T09:38:28.214Z</time>
      </trkpt>
      <trkpt lat="37.1045135" lon="-8.3753653">
        <ele>33.576</ele>
        <time>2018-09-21T09:38:31.996Z</time>
      </trkpt>
      <trkpt lat="37.1045646" lon="-8.3754883">
        <ele>33.657</ele>
        <time>2018-09-21T09:38:35.976Z</time>
      </trkpt>
      <trkpt lat="37.1046347" lon="-8.3756059">
        <ele>33.964</ele>
        <time>2018-09-21T09:38:40.060Z</time>
      </trkpt>
      <trkpt lat="37.1046934" lon="-8.3757347">
        <ele>34.450</ele>
        <time>2018-09-21T09:38:44.094Z</time>
      </trkpt>
      <trkpt lat="37.1047518" lon="-8.3758585">
        <ele>35.000</ele>
        <time>2018-09-21T09:38:47.998Z</time>
      </trkpt>
      <trkpt lat="37.1047964" lon="-8.3759570">
        <ele>35.675</ele>
        <time>2018-09-21T09:38:51.177Z</time>
      </trkpt>
      <trkpt lat="37.1048549" lon="-8.3760596">
        <ele>36.495</ele>
        <time>2018-09-21T09:38:54.994Z</time>
      </trkpt>
      <trkpt lat="37.1048549" lon="-8.3760596">
        <ele>37.221</ele>
        <time>2018-09-21T09:39:04.994Z</time>
      </trkpt>
      <trkpt lat="37.1048549" lon="-8.3760596">
        <ele>37.554</ele>
        <time>2018-09-21T09:44:16.192Z</time>
      </trkpt>
      <trkpt lat="37.1047615" lon="-8.3758591">
        <ele>37.501</ele>
        <time>2018-09-21T09:44:28.996Z</time>
      </trkpt>
      <trkpt lat="37.1047615" lon="-8.3758591">
        <ele>37.352</ele>
        <time>2018-09-21T09:44:46.996Z</time>
      </trkpt>
      <trkpt lat="37.1047615" lon="-8.3758591">
        <ele>37.327</ele>
        <time>2018-09-21T09:45:18.790Z</time>
      </trkpt>
      <trkpt lat="37.1048635" lon="-8.3759409">
        <ele>37.390</ele>
        <time>2018-09-21T09:45:25.426Z</time>
      </trkpt>
      <trkpt lat="37.1049160" lon="-8.3760596">
        <ele>38.082</ele>
        <time>2018-09-21T09:45:28.593Z</time>
      </trkpt>
      <trkpt lat="37.1049659" lon="-8.3761745">
        <ele>39.933</ele>
        <time>2018-09-21T09:45:31.337Z</time>
      </trkpt>
      <trkpt lat="37.1049968" lon="-8.3763332">
        <ele>42.162</ele>
        <time>2018-09-21T09:45:34.384Z</time>
      </trkpt>
      <trkpt lat="37.1050290" lon="-8.3764954">
        <ele>43.660</ele>
        <time>2018-09-21T09:45:37.123Z</time>
      </trkpt>
      <trkpt lat="37.1050667" lon="-8.3766701">
        <ele>44.322</ele>
        <time>2018-09-21T09:45:39.918Z</time>
      </trkpt>
      <trkpt lat="37.1050957" lon="-8.3767968">
        <ele>44.475</ele>
        <time>2018-09-21T09:45:41.995Z</time>
      </trkpt>
      <trkpt lat="37.1050957" lon="-8.3767968">
        <ele>44.429</ele>
        <time>2018-09-21T09:45:48.995Z</time>
      </trkpt>
      <trkpt lat="37.1050957" lon="-8.3767968">
        <ele>44.370</ele>
        <time>2018-09-21T09:46:02.653Z</time>
      </trkpt>
      <trkpt lat="37.1051318" lon="-8.3770950">
        <ele>44.366</ele>
        <time>2018-09-21T09:46:14.628Z</time>
      </trkpt>
      <trkpt lat="37.1051620" lon="-8.3772189">
        <ele>44.383</ele>
        <time>2018-09-21T09:46:17.664Z</time>
      </trkpt>
      <trkpt lat="37.1052017" lon="-8.3773363">
        <ele>44.431</ele>
        <time>2018-09-21T09:46:20.681Z</time>
      </trkpt>
      <trkpt lat="37.1052330" lon="-8.3774567">
        <ele>44.498</ele>
        <time>2018-09-21T09:46:23.640Z</time>
      </trkpt>
      <trkpt lat="37.1052545" lon="-8.3775741">
        <ele>44.516</ele>
        <time>2018-09-21T09:46:26.398Z</time>
      </trkpt>
      <trkpt lat="37.1052822" lon="-8.3776971">
        <ele>44.290</ele>
        <time>2018-09-21T09:46:29.372Z</time>
      </trkpt>
      <trkpt lat="37.1053141" lon="-8.3778396">
        <ele>43.551</ele>
        <time>2018-09-21T09:46:32.918Z</time>
      </trkpt>
      <trkpt lat="37.1053411" lon="-8.3779586">
        <ele>42.689</ele>
        <time>2018-09-21T09:46:35.884Z</time>
      </trkpt>
      <trkpt lat="37.1053778" lon="-8.3780740">
        <ele>42.563</ele>
        <time>2018-09-21T09:46:38.855Z</time>
      </trkpt>
      <trkpt lat="37.1054071" lon="-8.3781866">
        <ele>43.197</ele>
        <time>2018-09-21T09:46:41.692Z</time>
      </trkpt>
      <trkpt lat="37.1054382" lon="-8.3783026">
        <ele>43.937</ele>
        <time>2018-09-21T09:46:44.603Z</time>
      </trkpt>
      <trkpt lat="37.1054716" lon="-8.3784217">
        <ele>44.420</ele>
        <time>2018-09-21T09:46:47.536Z</time>
      </trkpt>
      <trkpt lat="37.1055130" lon="-8.3785500">
        <ele>44.634</ele>
        <time>2018-09-21T09:46:50.615Z</time>
      </trkpt>
      <trkpt lat="37.1055465" lon="-8.3786826">
        <ele>44.717</ele>
        <time>2018-09-21T09:46:53.679Z</time>
      </trkpt>
      <trkpt lat="37.1055811" lon="-8.3787978">
        <ele>44.797</ele>
        <time>2018-09-21T09:46:56.460Z</time>
      </trkpt>
      <trkpt lat="37.1056159" lon="-8.3789180">
        <ele>45.049</ele>
        <time>2018-09-21T09:46:59.450Z</time>
      </trkpt>
      <trkpt lat="37.1056452" lon="-8.3790362">
        <ele>45.675</ele>
        <time>2018-09-21T09:47:02.385Z</time>
      </trkpt>
      <trkpt lat="37.1056809" lon="-8.3791535">
        <ele>46.568</ele>
        <time>2018-09-21T09:47:05.327Z</time>
      </trkpt>
      <trkpt lat="37.1057121" lon="-8.3792748">
        <ele>47.371</ele>
        <time>2018-09-21T09:47:08.334Z</time>
      </trkpt>
      <trkpt lat="37.1057267" lon="-8.3793914">
        <ele>47.896</ele>
        <time>2018-09-21T09:47:11.180Z</time>
      </trkpt>
      <trkpt lat="37.1057440" lon="-8.3795120">
        <ele>48.250</ele>
        <time>2018-09-21T09:47:14.068Z</time>
      </trkpt>
      <trkpt lat="37.1057591" lon="-8.3796481">
        <ele>48.559</ele>
        <time>2018-09-21T09:47:17.211Z</time>
      </trkpt>
      <trkpt lat="37.1057533" lon="-8.3797767">
        <ele>48.708</ele>
        <time>2018-09-21T09:47:20.195Z</time>
      </trkpt>
      <trkpt lat="37.1057619" lon="-8.3798984">
        <ele>48.457</ele>
        <time>2018-09-21T09:47:23.125Z</time>
      </trkpt>
      <trkpt lat="37.1057733" lon="-8.3800159">
        <ele>47.643</ele>
        <time>2018-09-21T09:47:26.037Z</time>
      </trkpt>
      <trkpt lat="37.1057970" lon="-8.3801410">
        <ele>46.512</ele>
        <time>2018-09-21T09:47:29.184Z</time>
      </trkpt>
      <trkpt lat="37.1058163" lon="-8.3802674">
        <ele>45.683</ele>
        <time>2018-09-21T09:47:32.329Z</time>
      </trkpt>
      <trkpt lat="37.1058335" lon="-8.3803815">
        <ele>45.432</ele>
        <time>2018-09-21T09:47:35.099Z</time>
      </trkpt>
      <trkpt lat="37.1058503" lon="-8.3804995">
        <ele>45.325</ele>
        <time>2018-09-21T09:47:37.907Z</time>
      </trkpt>
      <trkpt lat="37.1058751" lon="-8.3806088">
        <ele>44.840</ele>
        <time>2018-09-21T09:47:40.594Z</time>
      </trkpt>
      <trkpt lat="37.1059003" lon="-8.3807324">
        <ele>44.066</ele>
        <time>2018-09-21T09:47:43.614Z</time>
      </trkpt>
      <trkpt lat="37.1059129" lon="-8.3808533">
        <ele>43.790</ele>
        <time>2018-09-21T09:47:46.484Z</time>
      </trkpt>
      <trkpt lat="37.1059267" lon="-8.3809708">
        <ele>44.530</ele>
        <time>2018-09-21T09:47:49.351Z</time>
      </trkpt>
      <trkpt lat="37.1059479" lon="-8.3811110">
        <ele>45.801</ele>
        <time>2018-09-21T09:47:52.972Z</time>
      </trkpt>
      <trkpt lat="37.1059667" lon="-8.3812471">
        <ele>46.762</ele>
        <time>2018-09-21T09:47:56.681Z</time>
      </trkpt>
      <trkpt lat="37.1059784" lon="-8.3813692">
        <ele>47.364</ele>
        <time>2018-09-21T09:47:59.994Z</time>
      </trkpt>
      <trkpt lat="37.1059979" lon="-8.3815008">
        <ele>48.151</ele>
        <time>2018-09-21T09:48:03.648Z</time>
      </trkpt>
      <trkpt lat="37.1060123" lon="-8.3816505">
        <ele>49.239</ele>
        <time>2018-09-21T09:48:07.775Z</time>
      </trkpt>
      <trkpt lat="37.1060318" lon="-8.3817715">
        <ele>50.377</ele>
        <time>2018-09-21T09:48:10.876Z</time>
      </trkpt>
      <trkpt lat="37.1060496" lon="-8.3819010">
        <ele>51.416</ele>
        <time>2018-09-21T09:48:13.963Z</time>
      </trkpt>
      <trkpt lat="37.1060636" lon="-8.3820279">
        <ele>52.146</ele>
        <time>2018-09-21T09:48:16.930Z</time>
      </trkpt>
      <trkpt lat="37.1060759" lon="-8.3821405">
        <ele>52.428</ele>
        <time>2018-09-21T09:48:19.732Z</time>
      </trkpt>
      <trkpt lat="37.1060905" lon="-8.3822560">
        <ele>52.528</ele>
        <time>2018-09-21T09:48:22.991Z</time>
      </trkpt>
      <trkpt lat="37.1060905" lon="-8.3822560">
        <ele>52.631</ele>
        <time>2018-09-21T09:48:34.991Z</time>
      </trkpt>
      <trkpt lat="37.1060905" lon="-8.3822560">
        <ele>52.659</ele>
        <time>2018-09-21T10:13:39.048Z</time>
      </trkpt>
      <trkpt lat="37.1061298" lon="-8.3825581">
        <ele>52.606</ele>
        <time>2018-09-21T10:13:58.593Z</time>
      </trkpt>
      <trkpt lat="37.1061555" lon="-8.3826680">
        <ele>53.382</ele>
        <time>2018-09-21T10:14:03.998Z</time>
      </trkpt>
      <trkpt lat="37.1061555" lon="-8.3826680">
        <ele>55.483</ele>
        <time>2018-09-21T10:14:14.999Z</time>
      </trkpt>
      <trkpt lat="37.1061555" lon="-8.3826680">
        <ele>57.235</ele>
        <time>2018-09-21T10:15:31.931Z</time>
      </trkpt>
      <trkpt lat="37.1061074" lon="-8.3828997">
        <ele>57.182</ele>
        <time>2018-09-21T10:15:51.845Z</time>
      </trkpt>
      <trkpt lat="37.1061353" lon="-8.3830091">
        <ele>56.346</ele>
        <time>2018-09-21T10:15:55.463Z</time>
      </trkpt>
      <trkpt lat="37.1061453" lon="-8.3831332">
        <ele>56.033</ele>
        <time>2018-09-21T10:15:58.790Z</time>
      </trkpt>
      <trkpt lat="37.1061759" lon="-8.3832539">
        <ele>56.403</ele>
        <time>2018-09-21T10:16:01.879Z</time>
      </trkpt>
      <trkpt lat="37.1062072" lon="-8.3833695">
        <ele>57.064</ele>
        <time>2018-09-21T10:16:04.799Z</time>
      </trkpt>
      <trkpt lat="37.1062324" lon="-8.3834867">
        <ele>57.607</ele>
        <time>2018-09-21T10:16:07.640Z</time>
      </trkpt>
      <trkpt lat="37.1062716" lon="-8.3836109">
        <ele>57.901</ele>
        <time>2018-09-21T10:16:10.654Z</time>
      </trkpt>
      <trkpt lat="37.1063213" lon="-8.3837344">
        <ele>58.082</ele>
        <time>2018-09-21T10:16:13.682Z</time>
      </trkpt>
      <trkpt lat="37.1063716" lon="-8.3838480">
        <ele>58.311</ele>
        <time>2018-09-21T10:16:16.506Z</time>
      </trkpt>
      <trkpt lat="37.1064297" lon="-8.3839544">
        <ele>58.617</ele>
        <time>2018-09-21T10:16:19.293Z</time>
      </trkpt>
      <trkpt lat="37.1064988" lon="-8.3840600">
        <ele>58.924</ele>
        <time>2018-09-21T10:16:22.180Z</time>
      </trkpt>
      <trkpt lat="37.1065797" lon="-8.3841623">
        <ele>59.186</ele>
        <time>2018-09-21T10:16:25.161Z</time>
      </trkpt>
      <trkpt lat="37.1066630" lon="-8.3842643">
        <ele>59.397</ele>
        <time>2018-09-21T10:16:28.189Z</time>
      </trkpt>
      <trkpt lat="37.1067436" lon="-8.3843663">
        <ele>59.628</ele>
        <time>2018-09-21T10:16:31.189Z</time>
      </trkpt>
      <trkpt lat="37.1068208" lon="-8.3844717">
        <ele>59.965</ele>
        <time>2018-09-21T10:16:34.151Z</time>
      </trkpt>
      <trkpt lat="37.1068985" lon="-8.3845838">
        <ele>60.370</ele>
        <time>2018-09-21T10:16:37.232Z</time>
      </trkpt>
      <trkpt lat="37.1069772" lon="-8.3846919">
        <ele>60.738</ele>
        <time>2018-09-21T10:16:40.285Z</time>
      </trkpt>
      <trkpt lat="37.1070556" lon="-8.3848077">
        <ele>60.985</ele>
        <time>2018-09-21T10:16:43.469Z</time>
      </trkpt>
      <trkpt lat="37.1071246" lon="-8.3849123">
        <ele>61.074</ele>
        <time>2018-09-21T10:16:46.297Z</time>
      </trkpt>
      <trkpt lat="37.1072090" lon="-8.3850095">
        <ele>60.989</ele>
        <time>2018-09-21T10:16:49.186Z</time>
      </trkpt>
      <trkpt lat="37.1072966" lon="-8.3851086">
        <ele>60.749</ele>
        <time>2018-09-21T10:16:52.163Z</time>
      </trkpt>
      <trkpt lat="37.1073757" lon="-8.3852171">
        <ele>60.500</ele>
        <time>2018-09-21T10:16:55.327Z</time>
      </trkpt>
      <trkpt lat="37.1074469" lon="-8.3853112">
        <ele>60.362</ele>
        <time>2018-09-21T10:16:58.368Z</time>
      </trkpt>
      <trkpt lat="37.1075164" lon="-8.3853874">
        <ele>60.362</ele>
        <time>2018-09-21T10:17:01.199Z</time>
      </trkpt>
      <trkpt lat="37.1075872" lon="-8.3854676">
        <ele>60.480</ele>
        <time>2018-09-21T10:17:04.086Z</time>
      </trkpt>
      <trkpt lat="37.1076542" lon="-8.3855648">
        <ele>60.612</ele>
        <time>2018-09-21T10:17:07.098Z</time>
      </trkpt>
      <trkpt lat="37.1077235" lon="-8.3856599">
        <ele>60.712</ele>
        <time>2018-09-21T10:17:10.069Z</time>
      </trkpt>
      <trkpt lat="37.1077897" lon="-8.3857578">
        <ele>60.814</ele>
        <time>2018-09-21T10:17:13.083Z</time>
      </trkpt>
      <trkpt lat="37.1078537" lon="-8.3858486">
        <ele>60.863</ele>
        <time>2018-09-21T10:17:15.983Z</time>
      </trkpt>
      <trkpt lat="37.1079137" lon="-8.3859455">
        <ele>60.808</ele>
        <time>2018-09-21T10:17:18.919Z</time>
      </trkpt>
      <trkpt lat="37.1079697" lon="-8.3860414">
        <ele>60.716</ele>
        <time>2018-09-21T10:17:21.852Z</time>
      </trkpt>
      <trkpt lat="37.1080409" lon="-8.3861600">
        <ele>60.664</ele>
        <time>2018-09-21T10:17:25.561Z</time>
      </trkpt>
      <trkpt lat="37.1080990" lon="-8.3862546">
        <ele>60.731</ele>
        <time>2018-09-21T10:17:28.507Z</time>
      </trkpt>
      <trkpt lat="37.1081647" lon="-8.3863420">
        <ele>60.961</ele>
        <time>2018-09-21T10:17:31.490Z</time>
      </trkpt>
      <trkpt lat="37.1082306" lon="-8.3864198">
        <ele>61.254</ele>
        <time>2018-09-21T10:17:34.422Z</time>
      </trkpt>
      <trkpt lat="37.1083237" lon="-8.3864984">
        <ele>61.477</ele>
        <time>2018-09-21T10:17:38.243Z</time>
      </trkpt>
      <trkpt lat="37.1084003" lon="-8.3865858">
        <ele>61.619</ele>
        <time>2018-09-21T10:17:41.869Z</time>
      </trkpt>
      <trkpt lat="37.1084673" lon="-8.3866632">
        <ele>61.854</ele>
        <time>2018-09-21T10:17:44.948Z</time>
      </trkpt>
      <trkpt lat="37.1085341" lon="-8.3867429">
        <ele>62.346</ele>
        <time>2018-09-21T10:17:47.985Z</time>
      </trkpt>
      <trkpt lat="37.1086273" lon="-8.3868363">
        <ele>62.955</ele>
        <time>2018-09-21T10:17:51.895Z</time>
      </trkpt>
      <trkpt lat="37.1086995" lon="-8.3869050">
        <ele>63.504</ele>
        <time>2018-09-21T10:17:54.832Z</time>
      </trkpt>
      <trkpt lat="37.1087777" lon="-8.3869739">
        <ele>64.010</ele>
        <time>2018-09-21T10:17:57.857Z</time>
      </trkpt>
      <trkpt lat="37.1088503" lon="-8.3870528">
        <ele>64.481</ele>
        <time>2018-09-21T10:18:00.840Z</time>
      </trkpt>
      <trkpt lat="37.1089236" lon="-8.3871190">
        <ele>64.946</ele>
        <time>2018-09-21T10:18:03.608Z</time>
      </trkpt>
      <trkpt lat="37.1090091" lon="-8.3871854">
        <ele>65.400</ele>
        <time>2018-09-21T10:18:06.755Z</time>
      </trkpt>
      <trkpt lat="37.1091036" lon="-8.3872559">
        <ele>65.702</ele>
        <time>2018-09-21T10:18:10.419Z</time>
      </trkpt>
      <trkpt lat="37.1091925" lon="-8.3873300">
        <ele>65.923</ele>
        <time>2018-09-21T10:18:14.218Z</time>
      </trkpt>
      <trkpt lat="37.1092921" lon="-8.3874160">
        <ele>66.302</ele>
        <time>2018-09-21T10:18:18.429Z</time>
      </trkpt>
      <trkpt lat="37.1093730" lon="-8.3874867">
        <ele>66.808</ele>
        <time>2018-09-21T10:18:21.630Z</time>
      </trkpt>
      <trkpt lat="37.1094530" lon="-8.3875507">
        <ele>67.252</ele>
        <time>2018-09-21T10:18:24.625Z</time>
      </trkpt>
      <trkpt lat="37.1095325" lon="-8.3876199">
        <ele>67.707</ele>
        <time>2018-09-21T10:18:27.649Z</time>
      </trkpt>
      <trkpt lat="37.1096115" lon="-8.3876860">
        <ele>68.266</ele>
        <time>2018-09-21T10:18:30.637Z</time>
      </trkpt>
      <trkpt lat="37.1096829" lon="-8.3877552">
        <ele>68.805</ele>
        <time>2018-09-21T10:18:33.555Z</time>
      </trkpt>
      <trkpt lat="37.1097689" lon="-8.3878547">
        <ele>69.176</ele>
        <time>2018-09-21T10:18:37.389Z</time>
      </trkpt>
      <trkpt lat="37.1098384" lon="-8.3879263">
        <ele>69.218</ele>
        <time>2018-09-21T10:18:40.298Z</time>
      </trkpt>
      <trkpt lat="37.1099077" lon="-8.3880044">
        <ele>68.882</ele>
        <time>2018-09-21T10:18:43.289Z</time>
      </trkpt>
      <trkpt lat="37.1099924" lon="-8.3881016">
        <ele>68.472</ele>
        <time>2018-09-21T10:18:47.016Z</time>
      </trkpt>
      <trkpt lat="37.1100551" lon="-8.3881883">
        <ele>68.343</ele>
        <time>2018-09-21T10:18:50.040Z</time>
      </trkpt>
      <trkpt lat="37.1101126" lon="-8.3882809">
        <ele>68.528</ele>
        <time>2018-09-21T10:18:53.007Z</time>
      </trkpt>
      <trkpt lat="37.1101712" lon="-8.3883704">
        <ele>68.856</ele>
        <time>2018-09-21T10:18:55.885Z</time>
      </trkpt>
      <trkpt lat="37.1102287" lon="-8.3884610">
        <ele>69.227</ele>
        <time>2018-09-21T10:18:58.737Z</time>
      </trkpt>
      <trkpt lat="37.1102862" lon="-8.3885510">
        <ele>69.595</ele>
        <time>2018-09-21T10:19:01.622Z</time>
      </trkpt>
      <trkpt lat="37.1103603" lon="-8.3886665">
        <ele>69.741</ele>
        <time>2018-09-21T10:19:05.440Z</time>
      </trkpt>
      <trkpt lat="37.1104171" lon="-8.3887584">
        <ele>69.555</ele>
        <time>2018-09-21T10:19:08.442Z</time>
      </trkpt>
      <trkpt lat="37.1104745" lon="-8.3888466">
        <ele>69.260</ele>
        <time>2018-09-21T10:19:11.390Z</time>
      </trkpt>
      <trkpt lat="37.1105411" lon="-8.3889482">
        <ele>69.075</ele>
        <time>2018-09-21T10:19:14.994Z</time>
      </trkpt>
      <trkpt lat="37.1105411" lon="-8.3889482">
        <ele>69.003</ele>
        <time>2018-09-21T10:19:26.994Z</time>
      </trkpt>
      <trkpt lat="37.1105411" lon="-8.3889482">
        <ele>68.974</ele>
        <time>2018-09-21T10:19:29.251Z</time>
      </trkpt>
      <trkpt lat="37.1106293" lon="-8.3891213">
        <ele>68.949</ele>
        <time>2018-09-21T10:19:38.845Z</time>
      </trkpt>
      <trkpt lat="37.1106875" lon="-8.3892430">
        <ele>68.700</ele>
        <time>2018-09-21T10:19:41.950Z</time>
      </trkpt>
      <trkpt lat="37.1107623" lon="-8.3893811">
        <ele>68.097</ele>
        <time>2018-09-21T10:19:45.121Z</time>
      </trkpt>
      <trkpt lat="37.1108518" lon="-8.3895365">
        <ele>67.532</ele>
        <time>2018-09-21T10:19:48.543Z</time>
      </trkpt>
      <trkpt lat="37.1109348" lon="-8.3896938">
        <ele>67.436</ele>
        <time>2018-09-21T10:19:51.749Z</time>
      </trkpt>
      <trkpt lat="37.1110140" lon="-8.3898472">
        <ele>67.777</ele>
        <time>2018-09-21T10:19:54.854Z</time>
      </trkpt>
      <trkpt lat="37.1111056" lon="-8.3899874">
        <ele>68.294</ele>
        <time>2018-09-21T10:19:58.091Z</time>
      </trkpt>
      <trkpt lat="37.1111871" lon="-8.3901322">
        <ele>68.701</ele>
        <time>2018-09-21T10:20:01.452Z</time>
      </trkpt>
      <trkpt lat="37.1112548" lon="-8.3902470">
        <ele>68.892</ele>
        <time>2018-09-21T10:20:04.152Z</time>
      </trkpt>
      <trkpt lat="37.1113191" lon="-8.3903695">
        <ele>69.152</ele>
        <time>2018-09-21T10:20:06.849Z</time>
      </trkpt>
      <trkpt lat="37.1113928" lon="-8.3905208">
        <ele>70.079</ele>
        <time>2018-09-21T10:20:10.203Z</time>
      </trkpt>
      <trkpt lat="37.1114642" lon="-8.3906487">
        <ele>71.843</ele>
        <time>2018-09-21T10:20:13.465Z</time>
      </trkpt>
      <trkpt lat="37.1115241" lon="-8.3907594">
        <ele>73.819</ele>
        <time>2018-09-21T10:20:16.390Z</time>
      </trkpt>
      <trkpt lat="37.1115856" lon="-8.3908640">
        <ele>75.320</ele>
        <time>2018-09-21T10:20:19.212Z</time>
      </trkpt>
      <trkpt lat="37.1116486" lon="-8.3909770">
        <ele>76.207</ele>
        <time>2018-09-21T10:20:22.200Z</time>
      </trkpt>
      <trkpt lat="37.1117180" lon="-8.3910827">
        <ele>76.647</ele>
        <time>2018-09-21T10:20:25.144Z</time>
      </trkpt>
      <trkpt lat="37.1118026" lon="-8.3911856">
        <ele>76.692</ele>
        <time>2018-09-21T10:20:28.280Z</time>
      </trkpt>
      <trkpt lat="37.1118656" lon="-8.3912948">
        <ele>76.401</ele>
        <time>2018-09-21T10:20:31.165Z</time>
      </trkpt>
      <trkpt lat="37.1119353" lon="-8.3914128">
        <ele>76.220</ele>
        <time>2018-09-21T10:20:34.409Z</time>
      </trkpt>
      <trkpt lat="37.1119928" lon="-8.3915210">
        <ele>76.525</ele>
        <time>2018-09-21T10:20:37.301Z</time>
      </trkpt>
      <trkpt lat="37.1120553" lon="-8.3916294">
        <ele>77.136</ele>
        <time>2018-09-21T10:20:40.259Z</time>
      </trkpt>
      <trkpt lat="37.1121144" lon="-8.3917363">
        <ele>77.702</ele>
        <time>2018-09-21T10:20:43.134Z</time>
      </trkpt>
      <trkpt lat="37.1121573" lon="-8.3918375">
        <ele>78.061</ele>
        <time>2018-09-21T10:20:45.587Z</time>
      </trkpt>
      <trkpt lat="37.1122385" lon="-8.3919391">
        <ele>78.192</ele>
        <time>2018-09-21T10:20:48.534Z</time>
      </trkpt>
      <trkpt lat="37.1123085" lon="-8.3920543">
        <ele>78.176</ele>
        <time>2018-09-21T10:20:51.519Z</time>
      </trkpt>
      <trkpt lat="37.1123804" lon="-8.3921611">
        <ele>78.308</ele>
        <time>2018-09-21T10:20:54.463Z</time>
      </trkpt>
      <trkpt lat="37.1124478" lon="-8.3922712">
        <ele>78.758</ele>
        <time>2018-09-21T10:20:57.468Z</time>
      </trkpt>
      <trkpt lat="37.1125025" lon="-8.3923792">
        <ele>79.066</ele>
        <time>2018-09-21T10:21:00.306Z</time>
      </trkpt>
      <trkpt lat="37.1125574" lon="-8.3924903">
        <ele>78.839</ele>
        <time>2018-09-21T10:21:03.199Z</time>
      </trkpt>
      <trkpt lat="37.1126156" lon="-8.3925996">
        <ele>78.497</ele>
        <time>2018-09-21T10:21:06.031Z</time>
      </trkpt>
      <trkpt lat="37.1126856" lon="-8.3927090">
        <ele>78.537</ele>
        <time>2018-09-21T10:21:08.940Z</time>
      </trkpt>
      <trkpt lat="37.1127574" lon="-8.3928220">
        <ele>78.870</ele>
        <time>2018-09-21T10:21:11.877Z</time>
      </trkpt>
      <trkpt lat="37.1128265" lon="-8.3929423">
        <ele>79.129</ele>
        <time>2018-09-21T10:21:14.843Z</time>
      </trkpt>
      <trkpt lat="37.1128968" lon="-8.3930676">
        <ele>79.061</ele>
        <time>2018-09-21T10:21:17.949Z</time>
      </trkpt>
      <trkpt lat="37.1129611" lon="-8.3931850">
        <ele>78.668</ele>
        <time>2018-09-21T10:21:20.996Z</time>
      </trkpt>
      <trkpt lat="37.1130229" lon="-8.3932907">
        <ele>78.172</ele>
        <time>2018-09-21T10:21:23.847Z</time>
      </trkpt>
      <trkpt lat="37.1130914" lon="-8.3933997">
        <ele>77.803</ele>
        <time>2018-09-21T10:21:26.786Z</time>
      </trkpt>
      <trkpt lat="37.1131583" lon="-8.3935098">
        <ele>77.636</ele>
        <time>2018-09-21T10:21:29.694Z</time>
      </trkpt>
      <trkpt lat="37.1132246" lon="-8.3936186">
        <ele>77.645</ele>
        <time>2018-09-21T10:21:32.677Z</time>
      </trkpt>
      <trkpt lat="37.1132840" lon="-8.3937269">
        <ele>77.875</ele>
        <time>2018-09-21T10:21:35.592Z</time>
      </trkpt>
      <trkpt lat="37.1133468" lon="-8.3938380">
        <ele>78.325</ele>
        <time>2018-09-21T10:21:38.534Z</time>
      </trkpt>
      <trkpt lat="37.1134155" lon="-8.3939523">
        <ele>78.742</ele>
        <time>2018-09-21T10:21:41.544Z</time>
      </trkpt>
      <trkpt lat="37.1134823" lon="-8.3940662">
        <ele>78.933</ele>
        <time>2018-09-21T10:21:44.479Z</time>
      </trkpt>
      <trkpt lat="37.1135438" lon="-8.3941775">
        <ele>78.944</ele>
        <time>2018-09-21T10:21:47.328Z</time>
      </trkpt>
      <trkpt lat="37.1136015" lon="-8.3942958">
        <ele>78.898</ele>
        <time>2018-09-21T10:21:50.275Z</time>
      </trkpt>
      <trkpt lat="37.1136629" lon="-8.3944113">
        <ele>78.844</ele>
        <time>2018-09-21T10:21:53.220Z</time>
      </trkpt>
      <trkpt lat="37.1137248" lon="-8.3945279">
        <ele>78.645</ele>
        <time>2018-09-21T10:21:56.161Z</time>
      </trkpt>
      <trkpt lat="37.1137893" lon="-8.3946468">
        <ele>78.247</ele>
        <time>2018-09-21T10:21:59.083Z</time>
      </trkpt>
      <trkpt lat="37.1138498" lon="-8.3947732">
        <ele>77.920</ele>
        <time>2018-09-21T10:22:02.021Z</time>
      </trkpt>
      <trkpt lat="37.1139183" lon="-8.3948878">
        <ele>77.844</ele>
        <time>2018-09-21T10:22:04.900Z</time>
      </trkpt>
      <trkpt lat="37.1139852" lon="-8.3950022">
        <ele>77.964</ele>
        <time>2018-09-21T10:22:07.803Z</time>
      </trkpt>
      <trkpt lat="37.1140457" lon="-8.3951241">
        <ele>78.216</ele>
        <time>2018-09-21T10:22:10.796Z</time>
      </trkpt>
      <trkpt lat="37.1141068" lon="-8.3952412">
        <ele>78.513</ele>
        <time>2018-09-21T10:22:13.722Z</time>
      </trkpt>
      <trkpt lat="37.1141744" lon="-8.3953599">
        <ele>78.893</ele>
        <time>2018-09-21T10:22:16.729Z</time>
      </trkpt>
      <trkpt lat="37.1142491" lon="-8.3954740">
        <ele>79.534</ele>
        <time>2018-09-21T10:22:19.799Z</time>
      </trkpt>
      <trkpt lat="37.1143153" lon="-8.3955848">
        <ele>80.564</ele>
        <time>2018-09-21T10:22:22.811Z</time>
      </trkpt>
      <trkpt lat="37.1143751" lon="-8.3956921">
        <ele>81.791</ele>
        <time>2018-09-21T10:22:25.794Z</time>
      </trkpt>
      <trkpt lat="37.1144340" lon="-8.3958010">
        <ele>82.734</ele>
        <time>2018-09-21T10:22:28.876Z</time>
      </trkpt>
      <trkpt lat="37.1144944" lon="-8.3958996">
        <ele>83.102</ele>
        <time>2018-09-21T10:22:31.803Z</time>
      </trkpt>
      <trkpt lat="37.1145578" lon="-8.3960033">
        <ele>83.070</ele>
        <time>2018-09-21T10:22:34.822Z</time>
      </trkpt>
      <trkpt lat="37.1146179" lon="-8.3961118">
        <ele>82.938</ele>
        <time>2018-09-21T10:22:37.796Z</time>
      </trkpt>
      <trkpt lat="37.1146840" lon="-8.3962208">
        <ele>82.940</ele>
        <time>2018-09-21T10:22:40.809Z</time>
      </trkpt>
      <trkpt lat="37.1147525" lon="-8.3963305">
        <ele>83.184</ele>
        <time>2018-09-21T10:22:43.822Z</time>
      </trkpt>
      <trkpt lat="37.1148176" lon="-8.3964428">
        <ele>83.588</ele>
        <time>2018-09-21T10:22:46.777Z</time>
      </trkpt>
      <trkpt lat="37.1148896" lon="-8.3965599">
        <ele>83.949</ele>
        <time>2018-09-21T10:22:49.881Z</time>
      </trkpt>
      <trkpt lat="37.1149646" lon="-8.3966730">
        <ele>84.158</ele>
        <time>2018-09-21T10:22:52.945Z</time>
      </trkpt>
      <trkpt lat="37.1150353" lon="-8.3967877">
        <ele>84.264</ele>
        <time>2018-09-21T10:22:55.971Z</time>
      </trkpt>
      <trkpt lat="37.1151027" lon="-8.3969005">
        <ele>84.417</ele>
        <time>2018-09-21T10:22:58.922Z</time>
      </trkpt>
      <trkpt lat="37.1151732" lon="-8.3970162">
        <ele>84.596</ele>
        <time>2018-09-21T10:23:01.964Z</time>
      </trkpt>
      <trkpt lat="37.1152409" lon="-8.3971312">
        <ele>84.589</ele>
        <time>2018-09-21T10:23:04.927Z</time>
      </trkpt>
      <trkpt lat="37.1153121" lon="-8.3972513">
        <ele>84.399</ele>
        <time>2018-09-21T10:23:08.052Z</time>
      </trkpt>
      <trkpt lat="37.1153740" lon="-8.3973669">
        <ele>84.300</ele>
        <time>2018-09-21T10:23:11.056Z</time>
      </trkpt>
      <trkpt lat="37.1154366" lon="-8.3974769">
        <ele>84.457</ele>
        <time>2018-09-21T10:23:14.021Z</time>
      </trkpt>
      <trkpt lat="37.1154979" lon="-8.3975867">
        <ele>84.796</ele>
        <time>2018-09-21T10:23:16.989Z</time>
      </trkpt>
      <trkpt lat="37.1155632" lon="-8.3976901">
        <ele>85.134</ele>
        <time>2018-09-21T10:23:19.916Z</time>
      </trkpt>
      <trkpt lat="37.1156295" lon="-8.3978000">
        <ele>85.398</ele>
        <time>2018-09-21T10:23:22.955Z</time>
      </trkpt>
      <trkpt lat="37.1156987" lon="-8.3979098">
        <ele>85.632</ele>
        <time>2018-09-21T10:23:26.006Z</time>
      </trkpt>
      <trkpt lat="37.1157710" lon="-8.3980175">
        <ele>85.904</ele>
        <time>2018-09-21T10:23:28.944Z</time>
      </trkpt>
      <trkpt lat="37.1158500" lon="-8.3981285">
        <ele>86.279</ele>
        <time>2018-09-21T10:23:31.851Z</time>
      </trkpt>
      <trkpt lat="37.1159321" lon="-8.3982538">
        <ele>86.706</ele>
        <time>2018-09-21T10:23:34.923Z</time>
      </trkpt>
      <trkpt lat="37.1160133" lon="-8.3983719">
        <ele>86.941</ele>
        <time>2018-09-21T10:23:37.967Z</time>
      </trkpt>
      <trkpt lat="37.1160927" lon="-8.3984776">
        <ele>86.838</ele>
        <time>2018-09-21T10:23:40.946Z</time>
      </trkpt>
      <trkpt lat="37.1161703" lon="-8.3985863">
        <ele>86.558</ele>
        <time>2018-09-21T10:23:43.851Z</time>
      </trkpt>
      <trkpt lat="37.1162605" lon="-8.3986650">
        <ele>86.323</ele>
        <time>2018-09-21T10:23:46.566Z</time>
      </trkpt>
      <trkpt lat="37.1163304" lon="-8.3987614">
        <ele>86.246</ele>
        <time>2018-09-21T10:23:49.245Z</time>
      </trkpt>
      <trkpt lat="37.1164144" lon="-8.3988492">
        <ele>86.314</ele>
        <time>2018-09-21T10:23:52.160Z</time>
      </trkpt>
      <trkpt lat="37.1164999" lon="-8.3989085">
        <ele>86.313</ele>
        <time>2018-09-21T10:23:54.761Z</time>
      </trkpt>
      <trkpt lat="37.1165885" lon="-8.3989950">
        <ele>86.084</ele>
        <time>2018-09-21T10:23:57.822Z</time>
      </trkpt>
      <trkpt lat="37.1166731" lon="-8.3990700">
        <ele>85.782</ele>
        <time>2018-09-21T10:24:00.812Z</time>
      </trkpt>
      <trkpt lat="37.1167695" lon="-8.3991499">
        <ele>85.642</ele>
        <time>2018-09-21T10:24:04.634Z</time>
      </trkpt>
      <trkpt lat="37.1168518" lon="-8.3992243">
        <ele>85.724</ele>
        <time>2018-09-21T10:24:08.996Z</time>
      </trkpt>
      <trkpt lat="37.1168518" lon="-8.3992243">
        <ele>85.927</ele>
        <time>2018-09-21T10:24:12.996Z</time>
      </trkpt>
      <trkpt lat="37.1168518" lon="-8.3992243">
        <ele>86.050</ele>
        <time>2018-09-21T10:31:54.143Z</time>
      </trkpt>
      <trkpt lat="37.1167382" lon="-8.3994063">
        <ele>85.980</ele>
        <time>2018-09-21T10:32:30.360Z</time>
      </trkpt>
      <trkpt lat="37.1166683" lon="-8.3994992">
        <ele>85.827</ele>
        <time>2018-09-21T10:32:36.261Z</time>
      </trkpt>
      <trkpt lat="37.1166070" lon="-8.3996030">
        <ele>85.893</ele>
        <time>2018-09-21T10:32:40.068Z</time>
      </trkpt>
      <trkpt lat="37.1165597" lon="-8.3997120">
        <ele>86.438</ele>
        <time>2018-09-21T10:32:43.090Z</time>
      </trkpt>
      <trkpt lat="37.1165005" lon="-8.3998172">
        <ele>87.277</ele>
        <time>2018-09-21T10:32:45.962Z</time>
      </trkpt>
      <trkpt lat="37.1164258" lon="-8.3999295">
        <ele>87.805</ele>
        <time>2018-09-21T10:32:49.088Z</time>
      </trkpt>
      <trkpt lat="37.1163624" lon="-8.4000359">
        <ele>87.741</ele>
        <time>2018-09-21T10:32:51.967Z</time>
      </trkpt>
      <trkpt lat="37.1162932" lon="-8.4001532">
        <ele>87.417</ele>
        <time>2018-09-21T10:32:55.370Z</time>
      </trkpt>
      <trkpt lat="37.1162346" lon="-8.4002594">
        <ele>87.185</ele>
        <time>2018-09-21T10:32:58.432Z</time>
      </trkpt>
      <trkpt lat="37.1162007" lon="-8.4003712">
        <ele>87.174</ele>
        <time>2018-09-21T10:33:01.355Z</time>
      </trkpt>
      <trkpt lat="37.1162096" lon="-8.4005267">
        <ele>87.435</ele>
        <time>2018-09-21T10:33:05.170Z</time>
      </trkpt>
      <trkpt lat="37.1162604" lon="-8.4006490">
        <ele>87.829</ele>
        <time>2018-09-21T10:33:08.361Z</time>
      </trkpt>
      <trkpt lat="37.1163068" lon="-8.4007785">
        <ele>87.996</ele>
        <time>2018-09-21T10:33:11.446Z</time>
      </trkpt>
      <trkpt lat="37.1163537" lon="-8.4009062">
        <ele>87.691</ele>
        <time>2018-09-21T10:33:14.342Z</time>
      </trkpt>
      <trkpt lat="37.1164071" lon="-8.4010396">
        <ele>87.018</ele>
        <time>2018-09-21T10:33:17.035Z</time>
      </trkpt>
      <trkpt lat="37.1164894" lon="-8.4011701">
        <ele>86.318</ele>
        <time>2018-09-21T10:33:19.903Z</time>
      </trkpt>
      <trkpt lat="37.1165733" lon="-8.4012746">
        <ele>85.891</ele>
        <time>2018-09-21T10:33:22.834Z</time>
      </trkpt>
      <trkpt lat="37.1166526" lon="-8.4013755">
        <ele>85.831</ele>
        <time>2018-09-21T10:33:25.797Z</time>
      </trkpt>
      <trkpt lat="37.1166998" lon="-8.4014929">
        <ele>86.003</ele>
        <time>2018-09-21T10:33:28.610Z</time>
      </trkpt>
      <trkpt lat="37.1167612" lon="-8.4015836">
        <ele>86.085</ele>
        <time>2018-09-21T10:33:31.148Z</time>
      </trkpt>
      <trkpt lat="37.1168098" lon="-8.4017038">
        <ele>85.895</ele>
        <time>2018-09-21T10:33:33.916Z</time>
      </trkpt>
      <trkpt lat="37.1168508" lon="-8.4018508">
        <ele>85.478</ele>
        <time>2018-09-21T10:33:36.979Z</time>
      </trkpt>
      <trkpt lat="37.1169169" lon="-8.4019764">
        <ele>84.949</ele>
        <time>2018-09-21T10:33:39.993Z</time>
      </trkpt>
      <trkpt lat="37.1170117" lon="-8.4020345">
        <ele>84.473</ele>
        <time>2018-09-21T10:33:42.779Z</time>
      </trkpt>
      <trkpt lat="37.1171325" lon="-8.4020482">
        <ele>84.151</ele>
        <time>2018-09-21T10:33:46.020Z</time>
      </trkpt>
      <trkpt lat="37.1172426" lon="-8.4020668">
        <ele>83.943</ele>
        <time>2018-09-21T10:33:49.006Z</time>
      </trkpt>
      <trkpt lat="37.1173591" lon="-8.4020952">
        <ele>83.926</ele>
        <time>2018-09-21T10:33:52.175Z</time>
      </trkpt>
      <trkpt lat="37.1174711" lon="-8.4021445">
        <ele>84.181</ele>
        <time>2018-09-21T10:33:55.468Z</time>
      </trkpt>
      <trkpt lat="37.1175552" lon="-8.4022217">
        <ele>84.561</ele>
        <time>2018-09-21T10:33:58.650Z</time>
      </trkpt>
      <trkpt lat="37.1175231" lon="-8.4023458">
        <ele>84.661</ele>
        <time>2018-09-21T10:34:01.569Z</time>
      </trkpt>
      <trkpt lat="37.1174169" lon="-8.4024542">
        <ele>84.199</ele>
        <time>2018-09-21T10:34:04.993Z</time>
      </trkpt>
      <trkpt lat="37.1173226" lon="-8.4025604">
        <ele>83.408</ele>
        <time>2018-09-21T10:34:07.915Z</time>
      </trkpt>
      <trkpt lat="37.1172200" lon="-8.4026818">
        <ele>82.529</ele>
        <time>2018-09-21T10:34:10.896Z</time>
      </trkpt>
      <trkpt lat="37.1171148" lon="-8.4028079">
        <ele>81.406</ele>
        <time>2018-09-21T10:34:13.803Z</time>
      </trkpt>
      <trkpt lat="37.1170073" lon="-8.4029328">
        <ele>80.183</ele>
        <time>2018-09-21T10:34:16.563Z</time>
      </trkpt>
      <trkpt lat="37.1168654" lon="-8.4030578">
        <ele>79.334</ele>
        <time>2018-09-21T10:34:19.732Z</time>
      </trkpt>
      <trkpt lat="37.1167577" lon="-8.4031864">
        <ele>78.969</ele>
        <time>2018-09-21T10:34:22.453Z</time>
      </trkpt>
      <trkpt lat="37.1166221" lon="-8.4032913">
        <ele>78.785</ele>
        <time>2018-09-21T10:34:25.281Z</time>
      </trkpt>
      <trkpt lat="37.1164919" lon="-8.4034186">
        <ele>78.505</ele>
        <time>2018-09-21T10:34:28.106Z</time>
      </trkpt>
      <trkpt lat="37.1163457" lon="-8.4035320">
        <ele>78.158</ele>
        <time>2018-09-21T10:34:31.067Z</time>
      </trkpt>
      <trkpt lat="37.1162264" lon="-8.4036538">
        <ele>77.904</ele>
        <time>2018-09-21T10:34:33.790Z</time>
      </trkpt>
      <trkpt lat="37.1161564" lon="-8.4038415">
        <ele>77.778</ele>
        <time>2018-09-21T10:34:36.827Z</time>
      </trkpt>
      <trkpt lat="37.1161001" lon="-8.4040217">
        <ele>77.745</ele>
        <time>2018-09-21T10:34:39.861Z</time>
      </trkpt>
      <trkpt lat="37.1160476" lon="-8.4041574">
        <ele>77.575</ele>
        <time>2018-09-21T10:34:42.309Z</time>
      </trkpt>
      <trkpt lat="37.1159711" lon="-8.4043171">
        <ele>76.273</ele>
        <time>2018-09-21T10:34:45.278Z</time>
      </trkpt>
      <trkpt lat="37.1158937" lon="-8.4044857">
        <ele>73.586</ele>
        <time>2018-09-21T10:34:48.278Z</time>
      </trkpt>
      <trkpt lat="37.1158833" lon="-8.4046551">
        <ele>71.257</ele>
        <time>2018-09-21T10:34:50.952Z</time>
      </trkpt>
      <trkpt lat="37.1159509" lon="-8.4047815">
        <ele>70.759</ele>
        <time>2018-09-21T10:34:53.598Z</time>
      </trkpt>
      <trkpt lat="37.1159944" lon="-8.4048817">
        <ele>71.615</ele>
        <time>2018-09-21T10:34:55.992Z</time>
      </trkpt>
      <trkpt lat="37.1159944" lon="-8.4048817">
        <ele>72.640</ele>
        <time>2018-09-21T10:35:00.992Z</time>
      </trkpt>
      <trkpt lat="37.1159944" lon="-8.4048817">
        <ele>73.058</ele>
        <time>2018-09-21T10:35:19.773Z</time>
      </trkpt>
      <trkpt lat="37.1160671" lon="-8.4051849">
        <ele>72.934</ele>
        <time>2018-09-21T10:35:35.911Z</time>
      </trkpt>
      <trkpt lat="37.1161053" lon="-8.4052927">
        <ele>73.915</ele>
        <time>2018-09-21T10:35:38.738Z</time>
      </trkpt>
      <trkpt lat="37.1161665" lon="-8.4053806">
        <ele>76.943</ele>
        <time>2018-09-21T10:35:41.618Z</time>
      </trkpt>
      <trkpt lat="37.1162545" lon="-8.4054546">
        <ele>79.984</ele>
        <time>2018-09-21T10:35:44.991Z</time>
      </trkpt>
      <trkpt lat="37.1162545" lon="-8.4054546">
        <ele>81.057</ele>
        <time>2018-09-21T10:36:02.990Z</time>
      </trkpt>
      <trkpt lat="37.1162545" lon="-8.4054546">
        <ele>80.770</ele>
        <time>2018-09-21T10:37:05.275Z</time>
      </trkpt>
      <trkpt lat="37.1162591" lon="-8.4057365">
        <ele>80.220</ele>
        <time>2018-09-21T10:37:17.088Z</time>
      </trkpt>
      <trkpt lat="37.1162832" lon="-8.4058618">
        <ele>78.720</ele>
        <time>2018-09-21T10:37:19.890Z</time>
      </trkpt>
      <trkpt lat="37.1163011" lon="-8.4059971">
        <ele>75.438</ele>
        <time>2018-09-21T10:37:22.491Z</time>
      </trkpt>
      <trkpt lat="37.1163177" lon="-8.4061325">
        <ele>71.854</ele>
        <time>2018-09-21T10:37:24.855Z</time>
      </trkpt>
      <trkpt lat="37.1163469" lon="-8.4062891">
        <ele>69.724</ele>
        <time>2018-09-21T10:37:27.768Z</time>
      </trkpt>
      <trkpt lat="37.1163549" lon="-8.4064204">
        <ele>68.706</ele>
        <time>2018-09-21T10:37:30.639Z</time>
      </trkpt>
      <trkpt lat="37.1163482" lon="-8.4065573">
        <ele>67.956</ele>
        <time>2018-09-21T10:37:34.003Z</time>
      </trkpt>
      <trkpt lat="37.1163319" lon="-8.4066874">
        <ele>66.950</ele>
        <time>2018-09-21T10:37:37.535Z</time>
      </trkpt>
      <trkpt lat="37.1163241" lon="-8.4068249">
        <ele>65.372</ele>
        <time>2018-09-21T10:37:41.504Z</time>
      </trkpt>
      <trkpt lat="37.1163016" lon="-8.4069432">
        <ele>63.331</ele>
        <time>2018-09-21T10:37:45.390Z</time>
      </trkpt>
      <trkpt lat="37.1162855" lon="-8.4070601">
        <ele>61.460</ele>
        <time>2018-09-21T10:37:49.998Z</time>
      </trkpt>
      <trkpt lat="37.1162855" lon="-8.4070601">
        <ele>60.231</ele>
        <time>2018-09-21T10:37:57.998Z</time>
      </trkpt>
      <trkpt lat="37.1162855" lon="-8.4070601">
        <ele>59.756</ele>
        <time>2018-09-21T10:39:08.905Z</time>
      </trkpt>
      <trkpt lat="37.1162267" lon="-8.4073129">
        <ele>59.976</ele>
        <time>2018-09-21T10:39:22.342Z</time>
      </trkpt>
      <trkpt lat="37.1162351" lon="-8.4074394">
        <ele>60.654</ele>
        <time>2018-09-21T10:39:25.967Z</time>
      </trkpt>
      <trkpt lat="37.1162610" lon="-8.4075596">
        <ele>61.329</ele>
        <time>2018-09-21T10:39:29.628Z</time>
      </trkpt>
      <trkpt lat="37.1162893" lon="-8.4076821">
        <ele>61.196</ele>
        <time>2018-09-21T10:39:33.513Z</time>
      </trkpt>
      <trkpt lat="37.1163087" lon="-8.4078152">
        <ele>59.562</ele>
        <time>2018-09-21T10:39:37.782Z</time>
      </trkpt>
      <trkpt lat="37.1163209" lon="-8.4079462">
        <ele>57.001</ele>
        <time>2018-09-21T10:39:41.996Z</time>
      </trkpt>
      <trkpt lat="37.1163209" lon="-8.4079462">
        <ele>54.991</ele>
        <time>2018-09-21T10:39:57.996Z</time>
      </trkpt>
      <trkpt lat="37.1163209" lon="-8.4079462">
        <ele>54.215</ele>
        <time>2018-09-21T10:43:14.628Z</time>
      </trkpt>
      <trkpt lat="37.1162044" lon="-8.4082391">
        <ele>54.315</ele>
        <time>2018-09-21T10:43:33.643Z</time>
      </trkpt>
      <trkpt lat="37.1161393" lon="-8.4083402">
        <ele>54.187</ele>
        <time>2018-09-21T10:43:37.991Z</time>
      </trkpt>
      <trkpt lat="37.1160752" lon="-8.4084326">
        <ele>53.032</ele>
        <time>2018-09-21T10:43:41.784Z</time>
      </trkpt>
      <trkpt lat="37.1160161" lon="-8.4085359">
        <ele>51.267</ele>
        <time>2018-09-21T10:43:45.315Z</time>
      </trkpt>
      <trkpt lat="37.1159450" lon="-8.4086550">
        <ele>49.670</ele>
        <time>2018-09-21T10:43:49.239Z</time>
      </trkpt>
      <trkpt lat="37.1158794" lon="-8.4087707">
        <ele>48.478</ele>
        <time>2018-09-21T10:43:53.071Z</time>
      </trkpt>
      <trkpt lat="37.1158137" lon="-8.4088815">
        <ele>47.490</ele>
        <time>2018-09-21T10:43:57.212Z</time>
      </trkpt>
      <trkpt lat="37.1157598" lon="-8.4089870">
        <ele>46.439</ele>
        <time>2018-09-21T10:44:01.162Z</time>
      </trkpt>
      <trkpt lat="37.1157295" lon="-8.4091138">
        <ele>45.291</ele>
        <time>2018-09-21T10:44:04.979Z</time>
      </trkpt>
      <trkpt lat="37.1157165" lon="-8.4092297">
        <ele>44.135</ele>
        <time>2018-09-21T10:44:07.758Z</time>
      </trkpt>
      <trkpt lat="37.1157251" lon="-8.4093692">
        <ele>43.212</ele>
        <time>2018-09-21T10:44:10.705Z</time>
      </trkpt>
      <trkpt lat="37.1157823" lon="-8.4095034">
        <ele>42.424</ele>
        <time>2018-09-21T10:44:13.626Z</time>
      </trkpt>
      <trkpt lat="37.1158524" lon="-8.4096383">
        <ele>41.478</ele>
        <time>2018-09-21T10:44:16.652Z</time>
      </trkpt>
      <trkpt lat="37.1159443" lon="-8.4097408">
        <ele>40.606</ele>
        <time>2018-09-21T10:44:19.821Z</time>
      </trkpt>
      <trkpt lat="37.1160242" lon="-8.4098177">
        <ele>40.122</ele>
        <time>2018-09-21T10:44:22.841Z</time>
      </trkpt>
      <trkpt lat="37.1161092" lon="-8.4099070">
        <ele>40.098</ele>
        <time>2018-09-21T10:44:26.354Z</time>
      </trkpt>
      <trkpt lat="37.1162038" lon="-8.4099839">
        <ele>40.582</ele>
        <time>2018-09-21T10:44:29.887Z</time>
      </trkpt>
      <trkpt lat="37.1162890" lon="-8.4100341">
        <ele>41.307</ele>
        <time>2018-09-21T10:44:32.721Z</time>
      </trkpt>
      <trkpt lat="37.1163734" lon="-8.4100939">
        <ele>42.009</ele>
        <time>2018-09-21T10:44:35.757Z</time>
      </trkpt>
      <trkpt lat="37.1164733" lon="-8.4101463">
        <ele>42.623</ele>
        <time>2018-09-21T10:44:39.375Z</time>
      </trkpt>
      <trkpt lat="37.1165711" lon="-8.4102085">
        <ele>42.604</ele>
        <time>2018-09-21T10:44:43.161Z</time>
      </trkpt>
      <trkpt lat="37.1166573" lon="-8.4103026">
        <ele>41.631</ele>
        <time>2018-09-21T10:44:46.950Z</time>
      </trkpt>
      <trkpt lat="37.1166865" lon="-8.4104119">
        <ele>40.493</ele>
        <time>2018-09-21T10:44:49.850Z</time>
      </trkpt>
      <trkpt lat="37.1166804" lon="-8.4105575">
        <ele>39.952</ele>
        <time>2018-09-21T10:44:53.453Z</time>
      </trkpt>
      <trkpt lat="37.1166800" lon="-8.4106754">
        <ele>40.120</ele>
        <time>2018-09-21T10:44:56.379Z</time>
      </trkpt>
      <trkpt lat="37.1167013" lon="-8.4107938">
        <ele>40.811</ele>
        <time>2018-09-21T10:44:59.383Z</time>
      </trkpt>
      <trkpt lat="37.1167554" lon="-8.4108911">
        <ele>41.331</ele>
        <time>2018-09-21T10:45:02.344Z</time>
      </trkpt>
      <trkpt lat="37.1168291" lon="-8.4109781">
        <ele>41.220</ele>
        <time>2018-09-21T10:45:05.515Z</time>
      </trkpt>
      <trkpt lat="37.1168820" lon="-8.4110856">
        <ele>40.849</ele>
        <time>2018-09-21T10:45:08.537Z</time>
      </trkpt>
      <trkpt lat="37.1169168" lon="-8.4111904">
        <ele>40.801</ele>
        <time>2018-09-21T10:45:11.219Z</time>
      </trkpt>
      <trkpt lat="37.1169407" lon="-8.4113388">
        <ele>41.387</ele>
        <time>2018-09-21T10:45:14.826Z</time>
      </trkpt>
      <trkpt lat="37.1169533" lon="-8.4114669">
        <ele>42.385</ele>
        <time>2018-09-21T10:45:17.847Z</time>
      </trkpt>
      <trkpt lat="37.1169401" lon="-8.4116042">
        <ele>43.146</ele>
        <time>2018-09-21T10:45:21.005Z</time>
      </trkpt>
      <trkpt lat="37.1168922" lon="-8.4117422">
        <ele>43.336</ele>
        <time>2018-09-21T10:45:24.184Z</time>
      </trkpt>
      <trkpt lat="37.1168665" lon="-8.4118608">
        <ele>43.192</ele>
        <time>2018-09-21T10:45:26.990Z</time>
      </trkpt>
      <trkpt lat="37.1168665" lon="-8.4118608">
        <ele>43.046</ele>
        <time>2018-09-21T10:45:31.990Z</time>
      </trkpt>
      <trkpt lat="37.1168665" lon="-8.4118608">
        <ele>43.005</ele>
        <time>2018-09-21T10:45:49.159Z</time>
      </trkpt>
      <trkpt lat="37.1167987" lon="-8.4121142">
        <ele>43.029</ele>
        <time>2018-09-21T10:45:56.992Z</time>
      </trkpt>
      <trkpt lat="37.1167963" lon="-8.4122454">
        <ele>43.413</ele>
        <time>2018-09-21T10:45:59.021Z</time>
      </trkpt>
      <trkpt lat="37.1168263" lon="-8.4123820">
        <ele>44.320</ele>
        <time>2018-09-21T10:46:01.110Z</time>
      </trkpt>
      <trkpt lat="37.1168701" lon="-8.4124959">
        <ele>45.006</ele>
        <time>2018-09-21T10:46:02.897Z</time>
      </trkpt>
      <trkpt lat="37.1169402" lon="-8.4125939">
        <ele>44.863</ele>
        <time>2018-09-21T10:46:04.668Z</time>
      </trkpt>
      <trkpt lat="37.1170281" lon="-8.4126718">
        <ele>44.538</ele>
        <time>2018-09-21T10:46:06.417Z</time>
      </trkpt>
      <trkpt lat="37.1171264" lon="-8.4127386">
        <ele>44.809</ele>
        <time>2018-09-21T10:46:08.209Z</time>
      </trkpt>
      <trkpt lat="37.1172123" lon="-8.4128076">
        <ele>45.511</ele>
        <time>2018-09-21T10:46:09.985Z</time>
      </trkpt>
      <trkpt lat="37.1173026" lon="-8.4128802">
        <ele>46.241</ele>
        <time>2018-09-21T10:46:11.998Z</time>
      </trkpt>
      <trkpt lat="37.1173026" lon="-8.4128802">
        <ele>46.890</ele>
        <time>2018-09-21T10:46:15.998Z</time>
      </trkpt>
      <trkpt lat="37.1173026" lon="-8.4128802">
        <ele>47.257</ele>
        <time>2018-09-21T10:47:34.384Z</time>
      </trkpt>
      <trkpt lat="37.1173036" lon="-8.4130686">
        <ele>47.211</ele>
        <time>2018-09-21T10:47:43.333Z</time>
      </trkpt>
      <trkpt lat="37.1172514" lon="-8.4132045">
        <ele>47.031</ele>
        <time>2018-09-21T10:47:46.475Z</time>
      </trkpt>
      <trkpt lat="37.1172177" lon="-8.4133533">
        <ele>47.059</ele>
        <time>2018-09-21T10:47:49.527Z</time>
      </trkpt>
      <trkpt lat="37.1172428" lon="-8.4135032">
        <ele>47.334</ele>
        <time>2018-09-21T10:47:52.484Z</time>
      </trkpt>
      <trkpt lat="37.1172997" lon="-8.4136536">
        <ele>47.389</ele>
        <time>2018-09-21T10:47:55.564Z</time>
      </trkpt>
      <trkpt lat="37.1173602" lon="-8.4138013">
        <ele>46.921</ele>
        <time>2018-09-21T10:47:58.584Z</time>
      </trkpt>
      <trkpt lat="37.1174278" lon="-8.4139434">
        <ele>46.307</ele>
        <time>2018-09-21T10:48:01.639Z</time>
      </trkpt>
      <trkpt lat="37.1174931" lon="-8.4140724">
        <ele>45.761</ele>
        <time>2018-09-21T10:48:04.437Z</time>
      </trkpt>
      <trkpt lat="37.1175510" lon="-8.4142288">
        <ele>45.154</ele>
        <time>2018-09-21T10:48:07.606Z</time>
      </trkpt>
      <trkpt lat="37.1175759" lon="-8.4143716">
        <ele>44.717</ele>
        <time>2018-09-21T10:48:10.369Z</time>
      </trkpt>
      <trkpt lat="37.1175890" lon="-8.4145342">
        <ele>44.668</ele>
        <time>2018-09-21T10:48:13.377Z</time>
      </trkpt>
      <trkpt lat="37.1176217" lon="-8.4146878">
        <ele>44.814</ele>
        <time>2018-09-21T10:48:16.262Z</time>
      </trkpt>
      <trkpt lat="37.1176580" lon="-8.4148432">
        <ele>44.993</ele>
        <time>2018-09-21T10:48:19.269Z</time>
      </trkpt>
      <trkpt lat="37.1177098" lon="-8.4149864">
        <ele>45.187</ele>
        <time>2018-09-21T10:48:22.236Z</time>
      </trkpt>
      <trkpt lat="37.1177639" lon="-8.4151027">
        <ele>45.359</ele>
        <time>2018-09-21T10:48:24.857Z</time>
      </trkpt>
      <trkpt lat="37.1178319" lon="-8.4152249">
        <ele>45.735</ele>
        <time>2018-09-21T10:48:27.849Z</time>
      </trkpt>
      <trkpt lat="37.1178837" lon="-8.4153525">
        <ele>46.593</ele>
        <time>2018-09-21T10:48:30.759Z</time>
      </trkpt>
      <trkpt lat="37.1179326" lon="-8.4154894">
        <ele>47.787</ele>
        <time>2018-09-21T10:48:33.812Z</time>
      </trkpt>
      <trkpt lat="37.1179828" lon="-8.4156198">
        <ele>48.906</ele>
        <time>2018-09-21T10:48:36.819Z</time>
      </trkpt>
      <trkpt lat="37.1180137" lon="-8.4157473">
        <ele>49.826</ele>
        <time>2018-09-21T10:48:39.761Z</time>
      </trkpt>
      <trkpt lat="37.1180482" lon="-8.4158653">
        <ele>50.617</ele>
        <time>2018-09-21T10:48:42.704Z</time>
      </trkpt>
      <trkpt lat="37.1180673" lon="-8.4159863">
        <ele>51.199</ele>
        <time>2018-09-21T10:48:45.619Z</time>
      </trkpt>
      <trkpt lat="37.1180499" lon="-8.4161136">
        <ele>51.443</ele>
        <time>2018-09-21T10:48:48.495Z</time>
      </trkpt>
      <trkpt lat="37.1180467" lon="-8.4162602">
        <ele>51.465</ele>
        <time>2018-09-21T10:48:51.518Z</time>
      </trkpt>
      <trkpt lat="37.1180186" lon="-8.4164018">
        <ele>51.452</ele>
        <time>2018-09-21T10:48:54.416Z</time>
      </trkpt>
      <trkpt lat="37.1180021" lon="-8.4165492">
        <ele>51.674</ele>
        <time>2018-09-21T10:48:57.423Z</time>
      </trkpt>
      <trkpt lat="37.1179955" lon="-8.4166681">
        <ele>52.374</ele>
        <time>2018-09-21T10:48:59.978Z</time>
      </trkpt>
      <trkpt lat="37.1179950" lon="-8.4168005">
        <ele>53.584</ele>
        <time>2018-09-21T10:49:02.949Z</time>
      </trkpt>
      <trkpt lat="37.1180054" lon="-8.4169325">
        <ele>54.947</ele>
        <time>2018-09-21T10:49:05.879Z</time>
      </trkpt>
      <trkpt lat="37.1180173" lon="-8.4170607">
        <ele>56.075</ele>
        <time>2018-09-21T10:49:08.748Z</time>
      </trkpt>
      <trkpt lat="37.1180255" lon="-8.4171790">
        <ele>57.003</ele>
        <time>2018-09-21T10:49:11.568Z</time>
      </trkpt>
      <trkpt lat="37.1180426" lon="-8.4173054">
        <ele>57.796</ele>
        <time>2018-09-21T10:49:14.995Z</time>
      </trkpt>
      <trkpt lat="37.1180426" lon="-8.4173054">
        <ele>58.193</ele>
        <time>2018-09-21T10:49:17.995Z</time>
      </trkpt>
      <trkpt lat="37.1180426" lon="-8.4173054">
        <ele>58.131</ele>
        <time>2018-09-21T10:51:39.709Z</time>
      </trkpt>
      <trkpt lat="37.1179212" lon="-8.4173737">
        <ele>57.900</ele>
        <time>2018-09-21T10:51:48.014Z</time>
      </trkpt>
      <trkpt lat="37.1177832" lon="-8.4173787">
        <ele>57.507</ele>
        <time>2018-09-21T10:51:51.490Z</time>
      </trkpt>
      <trkpt lat="37.1176365" lon="-8.4174217">
        <ele>56.841</ele>
        <time>2018-09-21T10:51:54.904Z</time>
      </trkpt>
      <trkpt lat="37.1175034" lon="-8.4174849">
        <ele>56.284</ele>
        <time>2018-09-21T10:51:57.992Z</time>
      </trkpt>
      <trkpt lat="37.1173758" lon="-8.4175652">
        <ele>56.241</ele>
        <time>2018-09-21T10:52:00.968Z</time>
      </trkpt>
      <trkpt lat="37.1172169" lon="-8.4176284">
        <ele>56.545</ele>
        <time>2018-09-21T10:52:04.556Z</time>
      </trkpt>
      <trkpt lat="37.1171012" lon="-8.4176537">
        <ele>56.967</ele>
        <time>2018-09-21T10:52:07.260Z</time>
      </trkpt>
      <trkpt lat="37.1169664" lon="-8.4176455">
        <ele>57.511</ele>
        <time>2018-09-21T10:52:10.498Z</time>
      </trkpt>
      <trkpt lat="37.1168406" lon="-8.4176370">
        <ele>58.141</ele>
        <time>2018-09-21T10:52:13.702Z</time>
      </trkpt>
      <trkpt lat="37.1167448" lon="-8.4176502">
        <ele>58.971</ele>
        <time>2018-09-21T10:52:16.282Z</time>
      </trkpt>
      <trkpt lat="37.1166359" lon="-8.4176504">
        <ele>60.139</ele>
        <time>2018-09-21T10:52:19.270Z</time>
      </trkpt>
      <trkpt lat="37.1165384" lon="-8.4176294">
        <ele>61.237</ele>
        <time>2018-09-21T10:52:22.041Z</time>
      </trkpt>
      <trkpt lat="37.1164360" lon="-8.4175911">
        <ele>61.789</ele>
        <time>2018-09-21T10:52:25.150Z</time>
      </trkpt>
      <trkpt lat="37.1163461" lon="-8.4175523">
        <ele>61.869</ele>
        <time>2018-09-21T10:52:28.100Z</time>
      </trkpt>
      <trkpt lat="37.1162546" lon="-8.4175290">
        <ele>61.983</ele>
        <time>2018-09-21T10:52:31.272Z</time>
      </trkpt>
      <trkpt lat="37.1161529" lon="-8.4174807">
        <ele>62.564</ele>
        <time>2018-09-21T10:52:34.871Z</time>
      </trkpt>
      <trkpt lat="37.1160559" lon="-8.4174621">
        <ele>63.383</ele>
        <time>2018-09-21T10:52:37.884Z</time>
      </trkpt>
      <trkpt lat="37.1159649" lon="-8.4174331">
        <ele>63.809</ele>
        <time>2018-09-21T10:52:40.885Z</time>
      </trkpt>
      <trkpt lat="37.1158564" lon="-8.4173660">
        <ele>63.477</ele>
        <time>2018-09-21T10:52:44.701Z</time>
      </trkpt>
      <trkpt lat="37.1157579" lon="-8.4173302">
        <ele>62.519</ele>
        <time>2018-09-21T10:52:47.814Z</time>
      </trkpt>
      <trkpt lat="37.1156658" lon="-8.4172834">
        <ele>61.488</ele>
        <time>2018-09-21T10:52:50.930Z</time>
      </trkpt>
      <trkpt lat="37.1155733" lon="-8.4172494">
        <ele>61.040</ele>
        <time>2018-09-21T10:52:54.107Z</time>
      </trkpt>
      <trkpt lat="37.1154707" lon="-8.4171952">
        <ele>61.545</ele>
        <time>2018-09-21T10:52:57.832Z</time>
      </trkpt>
      <trkpt lat="37.1153669" lon="-8.4171369">
        <ele>62.945</ele>
        <time>2018-09-21T10:53:01.684Z</time>
      </trkpt>
      <trkpt lat="37.1152627" lon="-8.4170824">
        <ele>65.020</ele>
        <time>2018-09-21T10:53:05.596Z</time>
      </trkpt>
      <trkpt lat="37.1151624" lon="-8.4170340">
        <ele>67.398</ele>
        <time>2018-09-21T10:53:09.498Z</time>
      </trkpt>
      <trkpt lat="37.1150678" lon="-8.4169923">
        <ele>69.375</ele>
        <time>2018-09-21T10:53:13.339Z</time>
      </trkpt>
      <trkpt lat="37.1149771" lon="-8.4169606">
        <ele>70.661</ele>
        <time>2018-09-21T10:53:17.066Z</time>
      </trkpt>
      <trkpt lat="37.1148899" lon="-8.4169332">
        <ele>71.612</ele>
        <time>2018-09-21T10:53:20.616Z</time>
      </trkpt>
      <trkpt lat="37.1147958" lon="-8.4168816">
        <ele>72.410</ele>
        <time>2018-09-21T10:53:24.555Z</time>
      </trkpt>
      <trkpt lat="37.1146934" lon="-8.4168392">
        <ele>73.145</ele>
        <time>2018-09-21T10:53:28.520Z</time>
      </trkpt>
      <trkpt lat="37.1145826" lon="-8.4168031">
        <ele>74.110</ele>
        <time>2018-09-21T10:53:32.560Z</time>
      </trkpt>
      <trkpt lat="37.1144695" lon="-8.4167845">
        <ele>75.312</ele>
        <time>2018-09-21T10:53:36.448Z</time>
      </trkpt>
      <trkpt lat="37.1143791" lon="-8.4167633">
        <ele>76.451</ele>
        <time>2018-09-21T10:53:39.505Z</time>
      </trkpt>
      <trkpt lat="37.1142634" lon="-8.4167345">
        <ele>77.284</ele>
        <time>2018-09-21T10:53:43.414Z</time>
      </trkpt>
      <trkpt lat="37.1141520" lon="-8.4167027">
        <ele>77.884</ele>
        <time>2018-09-21T10:53:47.238Z</time>
      </trkpt>
      <trkpt lat="37.1140469" lon="-8.4166611">
        <ele>78.533</ele>
        <time>2018-09-21T10:53:51.050Z</time>
      </trkpt>
      <trkpt lat="37.1139590" lon="-8.4166278">
        <ele>79.352</ele>
        <time>2018-09-21T10:53:54.570Z</time>
      </trkpt>
      <trkpt lat="37.1138737" lon="-8.4165678">
        <ele>80.254</ele>
        <time>2018-09-21T10:53:58.998Z</time>
      </trkpt>
      <trkpt lat="37.1138737" lon="-8.4165678">
        <ele>81.010</ele>
        <time>2018-09-21T10:54:09.998Z</time>
      </trkpt>
      <trkpt lat="37.1138737" lon="-8.4165678">
        <ele>81.350</ele>
        <time>2018-09-21T10:56:31.495Z</time>
      </trkpt>
      <trkpt lat="37.1137273" lon="-8.4164625">
        <ele>81.277</ele>
        <time>2018-09-21T10:56:41.964Z</time>
      </trkpt>
      <trkpt lat="37.1136152" lon="-8.4164029">
        <ele>81.568</ele>
        <time>2018-09-21T10:56:45.342Z</time>
      </trkpt>
      <trkpt lat="37.1135015" lon="-8.4163251">
        <ele>82.744</ele>
        <time>2018-09-21T10:56:48.562Z</time>
      </trkpt>
      <trkpt lat="37.1133667" lon="-8.4162038">
        <ele>84.190</ele>
        <time>2018-09-21T10:56:52.346Z</time>
      </trkpt>
      <trkpt lat="37.1132408" lon="-8.4161347">
        <ele>85.198</ele>
        <time>2018-09-21T10:56:55.255Z</time>
      </trkpt>
      <trkpt lat="37.1130930" lon="-8.4160827">
        <ele>85.682</ele>
        <time>2018-09-21T10:56:58.356Z</time>
      </trkpt>
      <trkpt lat="37.1129660" lon="-8.4160511">
        <ele>85.838</ele>
        <time>2018-09-21T10:57:00.845Z</time>
      </trkpt>
      <trkpt lat="37.1127899" lon="-8.4160211">
        <ele>86.020</ele>
        <time>2018-09-21T10:57:04.144Z</time>
      </trkpt>
      <trkpt lat="37.1126359" lon="-8.4160230">
        <ele>86.293</ele>
        <time>2018-09-21T10:57:06.978Z</time>
      </trkpt>
      <trkpt lat="37.1124896" lon="-8.4160037">
        <ele>86.323</ele>
        <time>2018-09-21T10:57:09.597Z</time>
      </trkpt>
      <trkpt lat="37.1123143" lon="-8.4159799">
        <ele>85.913</ele>
        <time>2018-09-21T10:57:12.625Z</time>
      </trkpt>
      <trkpt lat="37.1121400" lon="-8.4159760">
        <ele>85.262</ele>
        <time>2018-09-21T10:57:15.601Z</time>
      </trkpt>
      <trkpt lat="37.1119749" lon="-8.4159557">
        <ele>84.570</ele>
        <time>2018-09-21T10:57:18.473Z</time>
      </trkpt>
      <trkpt lat="37.1118091" lon="-8.4159229">
        <ele>83.928</ele>
        <time>2018-09-21T10:57:21.512Z</time>
      </trkpt>
      <trkpt lat="37.1116527" lon="-8.4158930">
        <ele>83.367</ele>
        <time>2018-09-21T10:57:24.462Z</time>
      </trkpt>
      <trkpt lat="37.1115098" lon="-8.4158638">
        <ele>82.829</ele>
        <time>2018-09-21T10:57:27.098Z</time>
      </trkpt>
      <trkpt lat="37.1113222" lon="-8.4158236">
        <ele>82.429</ele>
        <time>2018-09-21T10:57:30.354Z</time>
      </trkpt>
      <trkpt lat="37.1111433" lon="-8.4158105">
        <ele>82.179</ele>
        <time>2018-09-21T10:57:33.294Z</time>
      </trkpt>
      <trkpt lat="37.1109330" lon="-8.4158580">
        <ele>81.799</ele>
        <time>2018-09-21T10:57:36.728Z</time>
      </trkpt>
      <trkpt lat="37.1107614" lon="-8.4158567">
        <ele>81.110</ele>
        <time>2018-09-21T10:57:39.465Z</time>
      </trkpt>
      <trkpt lat="37.1105773" lon="-8.4158417">
        <ele>80.185</ele>
        <time>2018-09-21T10:57:42.378Z</time>
      </trkpt>
      <trkpt lat="37.1103861" lon="-8.4158025">
        <ele>79.430</ele>
        <time>2018-09-21T10:57:45.370Z</time>
      </trkpt>
      <trkpt lat="37.1101891" lon="-8.4157889">
        <ele>79.481</ele>
        <time>2018-09-21T10:57:48.335Z</time>
      </trkpt>
      <trkpt lat="37.1100050" lon="-8.4157570">
        <ele>80.334</ele>
        <time>2018-09-21T10:57:51.059Z</time>
      </trkpt>
      <trkpt lat="37.1097988" lon="-8.4157572">
        <ele>81.302</ele>
        <time>2018-09-21T10:57:54.008Z</time>
      </trkpt>
      <trkpt lat="37.1095887" lon="-8.4157361">
        <ele>81.942</ele>
        <time>2018-09-21T10:57:56.960Z</time>
      </trkpt>
      <trkpt lat="37.1093826" lon="-8.4157373">
        <ele>82.254</ele>
        <time>2018-09-21T10:57:59.778Z</time>
      </trkpt>
      <trkpt lat="37.1091639" lon="-8.4157218">
        <ele>82.247</ele>
        <time>2018-09-21T10:58:02.720Z</time>
      </trkpt>
      <trkpt lat="37.1089311" lon="-8.4157115">
        <ele>81.959</ele>
        <time>2018-09-21T10:58:05.826Z</time>
      </trkpt>
      <trkpt lat="37.1087150" lon="-8.4156753">
        <ele>81.518</ele>
        <time>2018-09-21T10:58:08.766Z</time>
      </trkpt>
      <trkpt lat="37.1085113" lon="-8.4155858">
        <ele>80.867</ele>
        <time>2018-09-21T10:58:11.711Z</time>
      </trkpt>
      <trkpt lat="37.1083238" lon="-8.4154663">
        <ele>79.991</ele>
        <time>2018-09-21T10:58:14.581Z</time>
      </trkpt>
      <trkpt lat="37.1081316" lon="-8.4153598">
        <ele>79.233</ele>
        <time>2018-09-21T10:58:17.427Z</time>
      </trkpt>
      <trkpt lat="37.1079288" lon="-8.4152421">
        <ele>78.840</ele>
        <time>2018-09-21T10:58:20.462Z</time>
      </trkpt>
      <trkpt lat="37.1077143" lon="-8.4151651">
        <ele>78.637</ele>
        <time>2018-09-21T10:58:23.544Z</time>
      </trkpt>
      <trkpt lat="37.1074938" lon="-8.4151071">
        <ele>78.289</ele>
        <time>2018-09-21T10:58:26.723Z</time>
      </trkpt>
      <trkpt lat="37.1073033" lon="-8.4150679">
        <ele>77.419</ele>
        <time>2018-09-21T10:58:29.535Z</time>
      </trkpt>
      <trkpt lat="37.1071071" lon="-8.4150088">
        <ele>76.127</ele>
        <time>2018-09-21T10:58:32.511Z</time>
      </trkpt>
      <trkpt lat="37.1069135" lon="-8.4149468">
        <ele>75.056</ele>
        <time>2018-09-21T10:58:35.411Z</time>
      </trkpt>
      <trkpt lat="37.1067169" lon="-8.4149100">
        <ele>74.576</ele>
        <time>2018-09-21T10:58:38.218Z</time>
      </trkpt>
      <trkpt lat="37.1065055" lon="-8.4148447">
        <ele>74.461</ele>
        <time>2018-09-21T10:58:41.295Z</time>
      </trkpt>
      <trkpt lat="37.1063060" lon="-8.4148064">
        <ele>74.376</ele>
        <time>2018-09-21T10:58:44.277Z</time>
      </trkpt>
      <trkpt lat="37.1061081" lon="-8.4147673">
        <ele>74.177</ele>
        <time>2018-09-21T10:58:47.432Z</time>
      </trkpt>
      <trkpt lat="37.1059268" lon="-8.4147729">
        <ele>74.420</ele>
        <time>2018-09-21T10:58:50.452Z</time>
      </trkpt>
      <trkpt lat="37.1057544" lon="-8.4147858">
        <ele>75.523</ele>
        <time>2018-09-21T10:58:53.317Z</time>
      </trkpt>
      <trkpt lat="37.1055866" lon="-8.4148138">
        <ele>76.796</ele>
        <time>2018-09-21T10:58:56.090Z</time>
      </trkpt>
      <trkpt lat="37.1054139" lon="-8.4148342">
        <ele>77.468</ele>
        <time>2018-09-21T10:58:58.937Z</time>
      </trkpt>
      <trkpt lat="37.1052349" lon="-8.4148283">
        <ele>77.557</ele>
        <time>2018-09-21T10:59:01.887Z</time>
      </trkpt>
      <trkpt lat="37.1050568" lon="-8.4148033">
        <ele>77.296</ele>
        <time>2018-09-21T10:59:04.835Z</time>
      </trkpt>
      <trkpt lat="37.1048794" lon="-8.4147661">
        <ele>76.799</ele>
        <time>2018-09-21T10:59:07.793Z</time>
      </trkpt>
      <trkpt lat="37.1047033" lon="-8.4147621">
        <ele>76.146</ele>
        <time>2018-09-21T10:59:10.744Z</time>
      </trkpt>
      <trkpt lat="37.1045415" lon="-8.4148073">
        <ele>75.574</ele>
        <time>2018-09-21T10:59:13.638Z</time>
      </trkpt>
      <trkpt lat="37.1044069" lon="-8.4149048">
        <ele>75.365</ele>
        <time>2018-09-21T10:59:16.496Z</time>
      </trkpt>
      <trkpt lat="37.1042903" lon="-8.4150225">
        <ele>75.729</ele>
        <time>2018-09-21T10:59:19.355Z</time>
      </trkpt>
      <trkpt lat="37.1041856" lon="-8.4151638">
        <ele>76.525</ele>
        <time>2018-09-21T10:59:22.320Z</time>
      </trkpt>
      <trkpt lat="37.1040766" lon="-8.4153025">
        <ele>77.153</ele>
        <time>2018-09-21T10:59:25.251Z</time>
      </trkpt>
      <trkpt lat="37.1039573" lon="-8.4154491">
        <ele>77.240</ele>
        <time>2018-09-21T10:59:28.269Z</time>
      </trkpt>
      <trkpt lat="37.1038067" lon="-8.4155459">
        <ele>77.005</ele>
        <time>2018-09-21T10:59:31.188Z</time>
      </trkpt>
      <trkpt lat="37.1036271" lon="-8.4156131">
        <ele>76.805</ele>
        <time>2018-09-21T10:59:34.318Z</time>
      </trkpt>
      <trkpt lat="37.1034565" lon="-8.4156513">
        <ele>77.130</ele>
        <time>2018-09-21T10:59:37.184Z</time>
      </trkpt>
      <trkpt lat="37.1032798" lon="-8.4156718">
        <ele>78.125</ele>
        <time>2018-09-21T10:59:40.126Z</time>
      </trkpt>
      <trkpt lat="37.1031011" lon="-8.4156953">
        <ele>79.265</ele>
        <time>2018-09-21T10:59:43.163Z</time>
      </trkpt>
      <trkpt lat="37.1029395" lon="-8.4157195">
        <ele>79.917</ele>
        <time>2018-09-21T10:59:46.034Z</time>
      </trkpt>
      <trkpt lat="37.1028034" lon="-8.4157673">
        <ele>79.647</ele>
        <time>2018-09-21T10:59:48.691Z</time>
      </trkpt>
      <trkpt lat="37.1026671" lon="-8.4158201">
        <ele>78.452</ele>
        <time>2018-09-21T10:59:51.528Z</time>
      </trkpt>
      <trkpt lat="37.1025136" lon="-8.4158737">
        <ele>77.091</ele>
        <time>2018-09-21T10:59:54.708Z</time>
      </trkpt>
      <trkpt lat="37.1023557" lon="-8.4159578">
        <ele>76.263</ele>
        <time>2018-09-21T10:59:58.108Z</time>
      </trkpt>
      <trkpt lat="37.1022685" lon="-8.4159956">
        <ele>76.030</ele>
        <time>2018-09-21T10:59:59.947Z</time>
      </trkpt>
      <trkpt lat="37.1021286" lon="-8.4160267">
        <ele>76.094</ele>
        <time>2018-09-21T11:00:02.796Z</time>
      </trkpt>
      <trkpt lat="37.1020409" lon="-8.4160744">
        <ele>76.283</ele>
        <time>2018-09-21T11:00:04.720Z</time>
      </trkpt>
      <trkpt lat="37.1019319" lon="-8.4161024">
        <ele>76.541</ele>
        <time>2018-09-21T11:00:06.929Z</time>
      </trkpt>
      <trkpt lat="37.1018304" lon="-8.4161275">
        <ele>76.584</ele>
        <time>2018-09-21T11:00:08.930Z</time>
      </trkpt>
      <trkpt lat="37.1017390" lon="-8.4161903">
        <ele>76.068</ele>
        <time>2018-09-21T11:00:10.926Z</time>
      </trkpt>
      <trkpt lat="37.1016463" lon="-8.4162318">
        <ele>75.031</ele>
        <time>2018-09-21T11:00:12.874Z</time>
      </trkpt>
      <trkpt lat="37.1015565" lon="-8.4162256">
        <ele>73.713</ele>
        <time>2018-09-21T11:00:14.833Z</time>
      </trkpt>
      <trkpt lat="37.1014572" lon="-8.4161957">
        <ele>72.451</ele>
        <time>2018-09-21T11:00:17.268Z</time>
      </trkpt>
      <trkpt lat="37.1013514" lon="-8.4161544">
        <ele>71.845</ele>
        <time>2018-09-21T11:00:20.116Z</time>
      </trkpt>
      <trkpt lat="37.1012353" lon="-8.4161066">
        <ele>72.107</ele>
        <time>2018-09-21T11:00:23.122Z</time>
      </trkpt>
      <trkpt lat="37.1010889" lon="-8.4160824">
        <ele>72.696</ele>
        <time>2018-09-21T11:00:26.434Z</time>
      </trkpt>
      <trkpt lat="37.1009934" lon="-8.4160839">
        <ele>72.723</ele>
        <time>2018-09-21T11:00:28.353Z</time>
      </trkpt>
      <trkpt lat="37.1009013" lon="-8.4161140">
        <ele>71.835</ele>
        <time>2018-09-21T11:00:30.107Z</time>
      </trkpt>
      <trkpt lat="37.1007985" lon="-8.4161777">
        <ele>70.432</ele>
        <time>2018-09-21T11:00:32.081Z</time>
      </trkpt>
      <trkpt lat="37.1006680" lon="-8.4162852">
        <ele>68.656</ele>
        <time>2018-09-21T11:00:34.470Z</time>
      </trkpt>
      <trkpt lat="37.1005233" lon="-8.4163960">
        <ele>66.330</ele>
        <time>2018-09-21T11:00:36.814Z</time>
      </trkpt>
      <trkpt lat="37.1003907" lon="-8.4165411">
        <ele>63.934</ele>
        <time>2018-09-21T11:00:39.044Z</time>
      </trkpt>
      <trkpt lat="37.1002419" lon="-8.4166749">
        <ele>62.013</ele>
        <time>2018-09-21T11:00:41.173Z</time>
      </trkpt>
      <trkpt lat="37.1000715" lon="-8.4168185">
        <ele>60.530</ele>
        <time>2018-09-21T11:00:43.379Z</time>
      </trkpt>
      <trkpt lat="37.0998934" lon="-8.4169683">
        <ele>59.373</ele>
        <time>2018-09-21T11:00:45.513Z</time>
      </trkpt>
      <trkpt lat="37.0997121" lon="-8.4171030">
        <ele>58.352</ele>
        <time>2018-09-21T11:00:47.518Z</time>
      </trkpt>
      <trkpt lat="37.0995312" lon="-8.4172335">
        <ele>57.186</ele>
        <time>2018-09-21T11:00:49.489Z</time>
      </trkpt>
      <trkpt lat="37.0993461" lon="-8.4173746">
        <ele>56.011</ele>
        <time>2018-09-21T11:00:51.530Z</time>
      </trkpt>
      <trkpt lat="37.0991041" lon="-8.4175885">
        <ele>55.165</ele>
        <time>2018-09-21T11:00:54.347Z</time>
      </trkpt>
      <trkpt lat="37.0988478" lon="-8.4178065">
        <ele>54.454</ele>
        <time>2018-09-21T11:00:57.453Z</time>
      </trkpt>
      <trkpt lat="37.0986179" lon="-8.4179678">
        <ele>53.638</ele>
        <time>2018-09-21T11:01:00.501Z</time>
      </trkpt>
      <trkpt lat="37.0984303" lon="-8.4180604">
        <ele>53.237</ele>
        <time>2018-09-21T11:01:03.392Z</time>
      </trkpt>
      <trkpt lat="37.0982799" lon="-8.4181034">
        <ele>53.799</ele>
        <time>2018-09-21T11:01:06.146Z</time>
      </trkpt>
      <trkpt lat="37.0981788" lon="-8.4182145">
        <ele>54.839</ele>
        <time>2018-09-21T11:01:09.063Z</time>
      </trkpt>
      <trkpt lat="37.0980898" lon="-8.4183029">
        <ele>55.375</ele>
        <time>2018-09-21T11:01:11.913Z</time>
      </trkpt>
      <trkpt lat="37.0980353" lon="-8.4184119">
        <ele>55.091</ele>
        <time>2018-09-21T11:01:14.705Z</time>
      </trkpt>
      <trkpt lat="37.0979812" lon="-8.4185209">
        <ele>54.779</ele>
        <time>2018-09-21T11:01:17.598Z</time>
      </trkpt>
      <trkpt lat="37.0979325" lon="-8.4186282">
        <ele>55.121</ele>
        <time>2018-09-21T11:01:20.478Z</time>
      </trkpt>
      <trkpt lat="37.0978922" lon="-8.4187397">
        <ele>55.736</ele>
        <time>2018-09-21T11:01:23.522Z</time>
      </trkpt>
      <trkpt lat="37.0978256" lon="-8.4188298">
        <ele>56.264</ele>
        <time>2018-09-21T11:01:26.998Z</time>
      </trkpt>
      <trkpt lat="37.0978256" lon="-8.4188298">
        <ele>56.638</ele>
        <time>2018-09-21T11:01:34.998Z</time>
      </trkpt>
      <trkpt lat="37.0978256" lon="-8.4188298">
        <ele>56.710</ele>
        <time>2018-09-21T11:03:48.580Z</time>
      </trkpt>
      <trkpt lat="37.0977346" lon="-8.4189847">
        <ele>56.606</ele>
        <time>2018-09-21T11:03:57.536Z</time>
      </trkpt>
      <trkpt lat="37.0976505" lon="-8.4190888">
        <ele>57.356</ele>
        <time>2018-09-21T11:04:00.797Z</time>
      </trkpt>
      <trkpt lat="37.0975830" lon="-8.4192112">
        <ele>59.450</ele>
        <time>2018-09-21T11:04:03.922Z</time>
      </trkpt>
      <trkpt lat="37.0975311" lon="-8.4193229">
        <ele>61.653</ele>
        <time>2018-09-21T11:04:06.817Z</time>
      </trkpt>
      <trkpt lat="37.0974899" lon="-8.4194316">
        <ele>62.567</ele>
        <time>2018-09-21T11:04:09.722Z</time>
      </trkpt>
      <trkpt lat="37.0974165" lon="-8.4195053">
        <ele>62.313</ele>
        <time>2018-09-21T11:04:12.632Z</time>
      </trkpt>
      <trkpt lat="37.0973122" lon="-8.4195187">
        <ele>61.617</ele>
        <time>2018-09-21T11:04:15.716Z</time>
      </trkpt>
      <trkpt lat="37.0972028" lon="-8.4194834">
        <ele>61.007</ele>
        <time>2018-09-21T11:04:19.078Z</time>
      </trkpt>
      <trkpt lat="37.0971086" lon="-8.4194388">
        <ele>60.587</ele>
        <time>2018-09-21T11:04:22.370Z</time>
      </trkpt>
      <trkpt lat="37.0969982" lon="-8.4193867">
        <ele>60.338</ele>
        <time>2018-09-21T11:04:26.338Z</time>
      </trkpt>
      <trkpt lat="37.0968835" lon="-8.4193684">
        <ele>60.175</ele>
        <time>2018-09-21T11:04:29.809Z</time>
      </trkpt>
      <trkpt lat="37.0967605" lon="-8.4193668">
        <ele>59.770</ele>
        <time>2018-09-21T11:04:33.108Z</time>
      </trkpt>
      <trkpt lat="37.0966501" lon="-8.4193731">
        <ele>58.965</ele>
        <time>2018-09-21T11:04:36.074Z</time>
      </trkpt>
      <trkpt lat="37.0965386" lon="-8.4193685">
        <ele>58.104</ele>
        <time>2018-09-21T11:04:38.897Z</time>
      </trkpt>
      <trkpt lat="37.0964148" lon="-8.4193641">
        <ele>57.378</ele>
        <time>2018-09-21T11:04:41.663Z</time>
      </trkpt>
      <trkpt lat="37.0962690" lon="-8.4193642">
        <ele>56.664</ele>
        <time>2018-09-21T11:04:44.570Z</time>
      </trkpt>
      <trkpt lat="37.0961105" lon="-8.4193544">
        <ele>56.038</ele>
        <time>2018-09-21T11:04:47.562Z</time>
      </trkpt>
      <trkpt lat="37.0959479" lon="-8.4193581">
        <ele>55.550</ele>
        <time>2018-09-21T11:04:50.660Z</time>
      </trkpt>
      <trkpt lat="37.0958094" lon="-8.4193971">
        <ele>55.152</ele>
        <time>2018-09-21T11:04:53.437Z</time>
      </trkpt>
      <trkpt lat="37.0956722" lon="-8.4194761">
        <ele>54.999</ele>
        <time>2018-09-21T11:04:56.406Z</time>
      </trkpt>
      <trkpt lat="37.0955481" lon="-8.4196052">
        <ele>55.335</ele>
        <time>2018-09-21T11:04:59.613Z</time>
      </trkpt>
      <trkpt lat="37.0953858" lon="-8.4196603">
        <ele>55.996</ele>
        <time>2018-09-21T11:05:02.853Z</time>
      </trkpt>
      <trkpt lat="37.0952422" lon="-8.4196849">
        <ele>56.481</ele>
        <time>2018-09-21T11:05:05.379Z</time>
      </trkpt>
      <trkpt lat="37.0950664" lon="-8.4196672">
        <ele>56.091</ele>
        <time>2018-09-21T11:05:08.174Z</time>
      </trkpt>
      <trkpt lat="37.0948681" lon="-8.4196250">
        <ele>54.649</ele>
        <time>2018-09-21T11:05:11.110Z</time>
      </trkpt>
      <trkpt lat="37.0946507" lon="-8.4195587">
        <ele>53.033</ele>
        <time>2018-09-21T11:05:14.139Z</time>
      </trkpt>
      <trkpt lat="37.0944014" lon="-8.4195230">
        <ele>52.190</ele>
        <time>2018-09-21T11:05:17.327Z</time>
      </trkpt>
      <trkpt lat="37.0941593" lon="-8.4194807">
        <ele>52.292</ele>
        <time>2018-09-21T11:05:20.329Z</time>
      </trkpt>
      <trkpt lat="37.0939301" lon="-8.4194225">
        <ele>52.975</ele>
        <time>2018-09-21T11:05:23.160Z</time>
      </trkpt>
      <trkpt lat="37.0936768" lon="-8.4193465">
        <ele>53.623</ele>
        <time>2018-09-21T11:05:26.316Z</time>
      </trkpt>
      <trkpt lat="37.0934342" lon="-8.4192996">
        <ele>53.896</ele>
        <time>2018-09-21T11:05:29.364Z</time>
      </trkpt>
      <trkpt lat="37.0932069" lon="-8.4192875">
        <ele>53.716</ele>
        <time>2018-09-21T11:05:32.433Z</time>
      </trkpt>
      <trkpt lat="37.0930299" lon="-8.4192191">
        <ele>53.075</ele>
        <time>2018-09-21T11:05:35.351Z</time>
      </trkpt>
      <trkpt lat="37.0928775" lon="-8.4191879">
        <ele>52.246</ele>
        <time>2018-09-21T11:05:38.130Z</time>
      </trkpt>
      <trkpt lat="37.0927237" lon="-8.4191744">
        <ele>51.497</ele>
        <time>2018-09-21T11:05:41.025Z</time>
      </trkpt>
      <trkpt lat="37.0925628" lon="-8.4191477">
        <ele>50.821</ele>
        <time>2018-09-21T11:05:43.937Z</time>
      </trkpt>
      <trkpt lat="37.0923753" lon="-8.4191991">
        <ele>50.140</ele>
        <time>2018-09-21T11:05:47.187Z</time>
      </trkpt>
      <trkpt lat="37.0922379" lon="-8.4193337">
        <ele>49.364</ele>
        <time>2018-09-21T11:05:50.065Z</time>
      </trkpt>
      <trkpt lat="37.0921517" lon="-8.4195534">
        <ele>48.414</ele>
        <time>2018-09-21T11:05:53.246Z</time>
      </trkpt>
      <trkpt lat="37.0921172" lon="-8.4197418">
        <ele>47.637</ele>
        <time>2018-09-21T11:05:55.693Z</time>
      </trkpt>
      <trkpt lat="37.0920568" lon="-8.4199934">
        <ele>47.463</ele>
        <time>2018-09-21T11:05:58.932Z</time>
      </trkpt>
      <trkpt lat="37.0919792" lon="-8.4202178">
        <ele>47.724</ele>
        <time>2018-09-21T11:06:01.868Z</time>
      </trkpt>
      <trkpt lat="37.0917974" lon="-8.4203534">
        <ele>47.773</ele>
        <time>2018-09-21T11:06:04.913Z</time>
      </trkpt>
      <trkpt lat="37.0916345" lon="-8.4204799">
        <ele>47.170</ele>
        <time>2018-09-21T11:06:07.543Z</time>
      </trkpt>
      <trkpt lat="37.0914451" lon="-8.4206421">
        <ele>46.093</ele>
        <time>2018-09-21T11:06:10.680Z</time>
      </trkpt>
      <trkpt lat="37.0912348" lon="-8.4207709">
        <ele>45.040</ele>
        <time>2018-09-21T11:06:14.051Z</time>
      </trkpt>
      <trkpt lat="37.0910790" lon="-8.4209007">
        <ele>44.194</ele>
        <time>2018-09-21T11:06:16.771Z</time>
      </trkpt>
      <trkpt lat="37.0909360" lon="-8.4210796">
        <ele>43.013</ele>
        <time>2018-09-21T11:06:19.469Z</time>
      </trkpt>
      <trkpt lat="37.0907997" lon="-8.4213556">
        <ele>41.128</ele>
        <time>2018-09-21T11:06:22.562Z</time>
      </trkpt>
      <trkpt lat="37.0906727" lon="-8.4216722">
        <ele>39.149</ele>
        <time>2018-09-21T11:06:25.813Z</time>
      </trkpt>
      <trkpt lat="37.0905259" lon="-8.4219109">
        <ele>37.747</ele>
        <time>2018-09-21T11:06:28.813Z</time>
      </trkpt>
      <trkpt lat="37.0904008" lon="-8.4221462">
        <ele>36.693</ele>
        <time>2018-09-21T11:06:32.049Z</time>
      </trkpt>
      <trkpt lat="37.0902974" lon="-8.4223343">
        <ele>35.676</ele>
        <time>2018-09-21T11:06:35.016Z</time>
      </trkpt>
      <trkpt lat="37.0902215" lon="-8.4225181">
        <ele>34.848</ele>
        <time>2018-09-21T11:06:37.843Z</time>
      </trkpt>
      <trkpt lat="37.0901152" lon="-8.4226905">
        <ele>34.465</ele>
        <time>2018-09-21T11:06:40.776Z</time>
      </trkpt>
      <trkpt lat="37.0899892" lon="-8.4228515">
        <ele>34.420</ele>
        <time>2018-09-21T11:06:43.677Z</time>
      </trkpt>
      <trkpt lat="37.0898865" lon="-8.4230516">
        <ele>34.497</ele>
        <time>2018-09-21T11:06:46.671Z</time>
      </trkpt>
      <trkpt lat="37.0897300" lon="-8.4232089">
        <ele>34.569</ele>
        <time>2018-09-21T11:06:49.982Z</time>
      </trkpt>
      <trkpt lat="37.0895874" lon="-8.4233039">
        <ele>34.686</ele>
        <time>2018-09-21T11:06:53.049Z</time>
      </trkpt>
      <trkpt lat="37.0895225" lon="-8.4234248">
        <ele>34.918</ele>
        <time>2018-09-21T11:06:55.596Z</time>
      </trkpt>
      <trkpt lat="37.0895050" lon="-8.4235778">
        <ele>35.156</ele>
        <time>2018-09-21T11:06:58.474Z</time>
      </trkpt>
      <trkpt lat="37.0894892" lon="-8.4237300">
        <ele>35.232</ele>
        <time>2018-09-21T11:07:01.380Z</time>
      </trkpt>
      <trkpt lat="37.0894717" lon="-8.4238792">
        <ele>35.114</ele>
        <time>2018-09-21T11:07:04.311Z</time>
      </trkpt>
      <trkpt lat="37.0894574" lon="-8.4240188">
        <ele>34.887</ele>
        <time>2018-09-21T11:07:07.143Z</time>
      </trkpt>
      <trkpt lat="37.0894370" lon="-8.4241575">
        <ele>34.605</ele>
        <time>2018-09-21T11:07:10.037Z</time>
      </trkpt>
      <trkpt lat="37.0894102" lon="-8.4242944">
        <ele>34.298</ele>
        <time>2018-09-21T11:07:12.970Z</time>
      </trkpt>
      <trkpt lat="37.0893809" lon="-8.4244195">
        <ele>34.189</ele>
        <time>2018-09-21T11:07:15.883Z</time>
      </trkpt>
      <trkpt lat="37.0893579" lon="-8.4245466">
        <ele>34.409</ele>
        <time>2018-09-21T11:07:19.210Z</time>
      </trkpt>
      <trkpt lat="37.0893350" lon="-8.4246673">
        <ele>34.611</ele>
        <time>2018-09-21T11:07:22.996Z</time>
      </trkpt>
      <trkpt lat="37.0893350" lon="-8.4246673">
        <ele>34.497</ele>
        <time>2018-09-21T11:07:27.997Z</time>
      </trkpt>
      <trkpt lat="37.0893350" lon="-8.4246673">
        <ele>34.296</ele>
        <time>2018-09-21T11:08:26.461Z</time>
      </trkpt>
      <trkpt lat="37.0893108" lon="-8.4248891">
        <ele>34.289</ele>
        <time>2018-09-21T11:08:37.027Z</time>
      </trkpt>
      <trkpt lat="37.0893336" lon="-8.4250375">
        <ele>34.547</ele>
        <time>2018-09-21T11:08:40.692Z</time>
      </trkpt>
      <trkpt lat="37.0893563" lon="-8.4251484">
        <ele>34.990</ele>
        <time>2018-09-21T11:08:43.298Z</time>
      </trkpt>
      <trkpt lat="37.0893837" lon="-8.4252604">
        <ele>35.271</ele>
        <time>2018-09-21T11:08:45.998Z</time>
      </trkpt>
      <trkpt lat="37.0893837" lon="-8.4252604">
        <ele>35.163</ele>
        <time>2018-09-21T11:09:00.998Z</time>
      </trkpt>
      <trkpt lat="37.0893837" lon="-8.4252604">
        <ele>34.953</ele>
        <time>2018-09-21T11:14:47.590Z</time>
      </trkpt>
      <trkpt lat="37.0892473" lon="-8.4254981">
        <ele>34.928</ele>
        <time>2018-09-21T11:15:24.381Z</time>
      </trkpt>
      <trkpt lat="37.0891899" lon="-8.4255866">
        <ele>34.681</ele>
        <time>2018-09-21T11:15:32.329Z</time>
      </trkpt>
      <trkpt lat="37.0891263" lon="-8.4256746">
        <ele>33.848</ele>
        <time>2018-09-21T11:15:40.626Z</time>
      </trkpt>
      <trkpt lat="37.0890695" lon="-8.4257635">
        <ele>32.899</ele>
        <time>2018-09-21T11:15:48.726Z</time>
      </trkpt>
      <trkpt lat="37.0890146" lon="-8.4258592">
        <ele>32.132</ele>
        <time>2018-09-21T11:15:57.448Z</time>
      </trkpt>
      <trkpt lat="37.0889699" lon="-8.4259652">
        <ele>31.331</ele>
        <time>2018-09-21T11:16:06.445Z</time>
      </trkpt>
      <trkpt lat="37.0889325" lon="-8.4260692">
        <ele>30.369</ele>
        <time>2018-09-21T11:16:14.419Z</time>
      </trkpt>
      <trkpt lat="37.0889002" lon="-8.4261762">
        <ele>29.109</ele>
        <time>2018-09-21T11:16:22.488Z</time>
      </trkpt>
      <trkpt lat="37.0888668" lon="-8.4262873">
        <ele>27.746</ele>
        <time>2018-09-21T11:16:30.601Z</time>
      </trkpt>
      <trkpt lat="37.0888481" lon="-8.4263986">
        <ele>26.542</ele>
        <time>2018-09-21T11:16:38.099Z</time>
      </trkpt>
      <trkpt lat="37.0888238" lon="-8.4265192">
        <ele>25.074</ele>
        <time>2018-09-21T11:16:46.264Z</time>
      </trkpt>
      <trkpt lat="37.0887532" lon="-8.4266051">
        <ele>22.973</ele>
        <time>2018-09-21T11:16:54.611Z</time>
      </trkpt>
      <trkpt lat="37.0886585" lon="-8.4265856">
        <ele>20.692</ele>
        <time>2018-09-21T11:17:03.004Z</time>
      </trkpt>
      <trkpt lat="37.0885633" lon="-8.4265551">
        <ele>18.950</ele>
        <time>2018-09-21T11:17:11.546Z</time>
      </trkpt>
      <trkpt lat="37.0884744" lon="-8.4265249">
        <ele>18.009</ele>
        <time>2018-09-21T11:17:19.385Z</time>
      </trkpt>
      <trkpt lat="37.0883820" lon="-8.4265081">
        <ele>17.584</ele>
        <time>2018-09-21T11:17:27.368Z</time>
      </trkpt>
      <trkpt lat="37.0882872" lon="-8.4264733">
        <ele>17.188</ele>
        <time>2018-09-21T11:17:35.723Z</time>
      </trkpt>
      <trkpt lat="37.0881950" lon="-8.4264747">
        <ele>16.233</ele>
        <time>2018-09-21T11:17:43.429Z</time>
      </trkpt>
      <trkpt lat="37.0880988" lon="-8.4264681">
        <ele>14.276</ele>
        <time>2018-09-21T11:17:51.818Z</time>
      </trkpt>
      <trkpt lat="37.0880078" lon="-8.4264703">
        <ele>11.448</ele>
        <time>2018-09-21T11:18:00.181Z</time>
      </trkpt>
      <trkpt lat="37.0879150" lon="-8.4264766">
        <ele>8.514</ele>
        <time>2018-09-21T11:18:08.943Z</time>
      </trkpt>
      <trkpt lat="37.0878263" lon="-8.4265164">
        <ele>6.334</ele>
        <time>2018-09-21T11:18:17.671Z</time>
      </trkpt>
      <trkpt lat="37.0877291" lon="-8.4265516">
        <ele>5.095</ele>
        <time>2018-09-21T11:18:26.886Z</time>
      </trkpt>
      <trkpt lat="37.0876422" lon="-8.4265173">
        <ele>4.440</ele>
        <time>2018-09-21T11:18:34.939Z</time>
      </trkpt>
      <trkpt lat="37.0875622" lon="-8.4264589">
        <ele>4.224</ele>
        <time>2018-09-21T11:18:42.995Z</time>
      </trkpt>
      <trkpt lat="37.0875622" lon="-8.4264589">
        <ele>4.396</ele>
        <time>2018-09-21T11:18:58.995Z</time>
      </trkpt>
      <trkpt lat="37.0875622" lon="-8.4264589">
        <ele>4.609</ele>
        <time>2018-09-21T11:19:02.292Z</time>
      </trkpt>
      <trkpt lat="37.0873853" lon="-8.4263200">
        <ele>4.588</ele>
        <time>2018-09-21T11:19:24.994Z</time>
      </trkpt>
      <trkpt lat="37.0873853" lon="-8.4263200">
        <ele>4.433</ele>
        <time>2018-09-21T11:19:38.994Z</time>
      </trkpt>
      <trkpt lat="37.0873853" lon="-8.4263200">
        <ele>4.348</ele>
        <time>2018-09-21T11:19:39.094Z</time>
      </trkpt>
      <trkpt lat="37.0875427" lon="-8.4263682">
        <ele>4.361</ele>
        <time>2018-09-21T11:24:37.997Z</time>
      </trkpt>
      <trkpt lat="37.0875427" lon="-8.4263682">
        <ele>4.391</ele>
        <time>2018-09-21T11:24:41.997Z</time>
      </trkpt>
      <trkpt lat="37.0875001" lon="-8.4265842">
        <ele>9.257</ele>
        <time>2018-09-21T13:20:56.003Z</time>
      </trkpt>
      <trkpt lat="37.0875001" lon="-8.4265842">
        <ele>9.255</ele>
        <time>2018-09-21T13:20:57.002Z</time>
      </trkpt>
      <trkpt lat="37.0875001" lon="-8.4265842">
        <ele>9.254</ele>
        <time>2018-09-21T13:21:15.814Z</time>
      </trkpt>
      <trkpt lat="37.0876847" lon="-8.4265938">
        <ele>9.251</ele>
        <time>2018-09-21T13:21:42.863Z</time>
      </trkpt>
      <trkpt lat="37.0876957" lon="-8.4266034">
        <ele>8.882</ele>
        <time>2018-09-21T13:21:44.232Z</time>
      </trkpt>
      <trkpt lat="37.0877670" lon="-8.4266849">
        <ele>7.932</ele>
        <time>2018-09-21T13:21:54.905Z</time>
      </trkpt>
      <trkpt lat="37.0878562" lon="-8.4267291">
        <ele>7.062</ele>
        <time>2018-09-21T13:22:06.291Z</time>
      </trkpt>
      <trkpt lat="37.0879389" lon="-8.4267807">
        <ele>6.997</ele>
        <time>2018-09-21T13:22:17.997Z</time>
      </trkpt>
      <trkpt lat="37.0880234" lon="-8.4268282">
        <ele>7.557</ele>
        <time>2018-09-21T13:22:30.702Z</time>
      </trkpt>
      <trkpt lat="37.0881059" lon="-8.4268769">
        <ele>8.270</ele>
        <time>2018-09-21T13:22:44.818Z</time>
      </trkpt>
      <trkpt lat="37.0881917" lon="-8.4269284">
        <ele>9.038</ele>
        <time>2018-09-21T13:22:57.317Z</time>
      </trkpt>
      <trkpt lat="37.0882683" lon="-8.4269921">
        <ele>9.992</ele>
        <time>2018-09-21T13:23:08.379Z</time>
      </trkpt>
      <trkpt lat="37.0883458" lon="-8.4270515">
        <ele>11.104</ele>
        <time>2018-09-21T13:23:19.855Z</time>
      </trkpt>
      <trkpt lat="37.0884321" lon="-8.4270911">
        <ele>12.269</ele>
        <time>2018-09-21T13:23:31.184Z</time>
      </trkpt>
      <trkpt lat="37.0885223" lon="-8.4271162">
        <ele>13.388</ele>
        <time>2018-09-21T13:23:40.693Z</time>
      </trkpt>
      <trkpt lat="37.0886006" lon="-8.4271755">
        <ele>14.463</ele>
        <time>2018-09-21T13:23:48.912Z</time>
      </trkpt>
      <trkpt lat="37.0886696" lon="-8.4272491">
        <ele>15.645</ele>
        <time>2018-09-21T13:23:57.193Z</time>
      </trkpt>
      <trkpt lat="37.0887576" lon="-8.4272919">
        <ele>17.114</ele>
        <time>2018-09-21T13:24:06.254Z</time>
      </trkpt>
      <trkpt lat="37.0888450" lon="-8.4273544">
        <ele>18.866</ele>
        <time>2018-09-21T13:24:16.154Z</time>
      </trkpt>
      <trkpt lat="37.0889197" lon="-8.4274296">
        <ele>20.775</ele>
        <time>2018-09-21T13:24:26.381Z</time>
      </trkpt>
      <trkpt lat="37.0889894" lon="-8.4275102">
        <ele>22.737</ele>
        <time>2018-09-21T13:24:37.100Z</time>
      </trkpt>
      <trkpt lat="37.0890520" lon="-8.4275948">
        <ele>24.769</ele>
        <time>2018-09-21T13:24:46.887Z</time>
      </trkpt>
      <trkpt lat="37.0890964" lon="-8.4276960">
        <ele>26.837</ele>
        <time>2018-09-21T13:24:56.009Z</time>
      </trkpt>
      <trkpt lat="37.0891320" lon="-8.4278088">
        <ele>28.686</ele>
        <time>2018-09-21T13:25:05.432Z</time>
      </trkpt>
      <trkpt lat="37.0891659" lon="-8.4279237">
        <ele>30.138</ele>
        <time>2018-09-21T13:25:14.753Z</time>
      </trkpt>
      <trkpt lat="37.0891773" lon="-8.4280409">
        <ele>31.336</ele>
        <time>2018-09-21T13:25:23.207Z</time>
      </trkpt>
      <trkpt lat="37.0891615" lon="-8.4281644">
        <ele>32.383</ele>
        <time>2018-09-21T13:25:31.781Z</time>
      </trkpt>
      <trkpt lat="37.0891526" lon="-8.4282874">
        <ele>33.338</ele>
        <time>2018-09-21T13:25:40.552Z</time>
      </trkpt>
      <trkpt lat="37.0891939" lon="-8.4283916">
        <ele>34.383</ele>
        <time>2018-09-21T13:25:50.489Z</time>
      </trkpt>
      <trkpt lat="37.0891459" lon="-8.4284895">
        <ele>35.547</ele>
        <time>2018-09-21T13:26:01.994Z</time>
      </trkpt>
      <trkpt lat="37.0891459" lon="-8.4284895">
        <ele>36.527</ele>
        <time>2018-09-21T13:26:10.994Z</time>
      </trkpt>
      <trkpt lat="37.0891459" lon="-8.4284895">
        <ele>36.970</ele>
        <time>2018-09-21T13:26:20.515Z</time>
      </trkpt>
      <trkpt lat="37.0889614" lon="-8.4283587">
        <ele>36.903</ele>
        <time>2018-09-21T13:26:40.842Z</time>
      </trkpt>
      <trkpt lat="37.0889243" lon="-8.4282533">
        <ele>37.174</ele>
        <time>2018-09-21T13:26:45.993Z</time>
      </trkpt>
      <trkpt lat="37.0889243" lon="-8.4282533">
        <ele>38.345</ele>
        <time>2018-09-21T13:27:02.993Z</time>
      </trkpt>
      <trkpt lat="37.0889243" lon="-8.4282533">
        <ele>39.400</ele>
        <time>2018-09-21T13:38:02.414Z</time>
      </trkpt>
      <trkpt lat="37.0890528" lon="-8.4283696">
        <ele>39.376</ele>
        <time>2018-09-21T13:38:22.461Z</time>
      </trkpt>
      <trkpt lat="37.0891125" lon="-8.4284541">
        <ele>39.479</ele>
        <time>2018-09-21T13:38:30.964Z</time>
      </trkpt>
      <trkpt lat="37.0892085" lon="-8.4284563">
        <ele>40.887</ele>
        <time>2018-09-21T13:38:38.833Z</time>
      </trkpt>
      <trkpt lat="37.0892924" lon="-8.4285061">
        <ele>42.710</ele>
        <time>2018-09-21T13:38:43.882Z</time>
      </trkpt>
      <trkpt lat="37.0893882" lon="-8.4285788">
        <ele>43.722</ele>
        <time>2018-09-21T13:38:48.430Z</time>
      </trkpt>
      <trkpt lat="37.0894767" lon="-8.4286227">
        <ele>43.870</ele>
        <time>2018-09-21T13:38:51.812Z</time>
      </trkpt>
      <trkpt lat="37.0895772" lon="-8.4286853">
        <ele>43.470</ele>
        <time>2018-09-21T13:38:55.716Z</time>
      </trkpt>
      <trkpt lat="37.0896836" lon="-8.4287522">
        <ele>42.896</ele>
        <time>2018-09-21T13:38:59.369Z</time>
      </trkpt>
      <trkpt lat="37.0898317" lon="-8.4288255">
        <ele>42.550</ele>
        <time>2018-09-21T13:39:03.480Z</time>
      </trkpt>
      <trkpt lat="37.0899400" lon="-8.4288710">
        <ele>42.634</ele>
        <time>2018-09-21T13:39:06.364Z</time>
      </trkpt>
      <trkpt lat="37.0900269" lon="-8.4289490">
        <ele>42.974</ele>
        <time>2018-09-21T13:39:09.226Z</time>
      </trkpt>
      <trkpt lat="37.0901156" lon="-8.4290098">
        <ele>43.365</ele>
        <time>2018-09-21T13:39:12.108Z</time>
      </trkpt>
      <trkpt lat="37.0902081" lon="-8.4290546">
        <ele>43.901</ele>
        <time>2018-09-21T13:39:14.953Z</time>
      </trkpt>
      <trkpt lat="37.0903068" lon="-8.4291209">
        <ele>44.608</ele>
        <time>2018-09-21T13:39:17.951Z</time>
      </trkpt>
      <trkpt lat="37.0904218" lon="-8.4291937">
        <ele>45.249</ele>
        <time>2018-09-21T13:39:21.054Z</time>
      </trkpt>
      <trkpt lat="37.0905391" lon="-8.4292905">
        <ele>45.714</ele>
        <time>2018-09-21T13:39:24.232Z</time>
      </trkpt>
      <trkpt lat="37.0906542" lon="-8.4293798">
        <ele>46.040</ele>
        <time>2018-09-21T13:39:27.193Z</time>
      </trkpt>
      <trkpt lat="37.0907724" lon="-8.4294752">
        <ele>46.111</ele>
        <time>2018-09-21T13:39:30.110Z</time>
      </trkpt>
      <trkpt lat="37.0909230" lon="-8.4295758">
        <ele>45.771</ele>
        <time>2018-09-21T13:39:33.346Z</time>
      </trkpt>
      <trkpt lat="37.0910812" lon="-8.4296695">
        <ele>45.181</ele>
        <time>2018-09-21T13:39:36.556Z</time>
      </trkpt>
      <trkpt lat="37.0912220" lon="-8.4297308">
        <ele>44.751</ele>
        <time>2018-09-21T13:39:39.458Z</time>
      </trkpt>
      <trkpt lat="37.0913567" lon="-8.4298256">
        <ele>44.785</ele>
        <time>2018-09-21T13:39:42.855Z</time>
      </trkpt>
      <trkpt lat="37.0914715" lon="-8.4298492">
        <ele>45.332</ele>
        <time>2018-09-21T13:39:45.884Z</time>
      </trkpt>
      <trkpt lat="37.0915768" lon="-8.4298707">
        <ele>46.187</ele>
        <time>2018-09-21T13:39:48.827Z</time>
      </trkpt>
      <trkpt lat="37.0916742" lon="-8.4299349">
        <ele>47.057</ele>
        <time>2018-09-21T13:39:51.988Z</time>
      </trkpt>
      <trkpt lat="37.0917817" lon="-8.4299743">
        <ele>47.953</ele>
        <time>2018-09-21T13:39:55.142Z</time>
      </trkpt>
      <trkpt lat="37.0918870" lon="-8.4300054">
        <ele>49.009</ele>
        <time>2018-09-21T13:39:58.185Z</time>
      </trkpt>
      <trkpt lat="37.0919823" lon="-8.4300381">
        <ele>50.177</ele>
        <time>2018-09-21T13:40:00.769Z</time>
      </trkpt>
      <trkpt lat="37.0920875" lon="-8.4301145">
        <ele>51.430</ele>
        <time>2018-09-21T13:40:03.850Z</time>
      </trkpt>
      <trkpt lat="37.0921826" lon="-8.4301682">
        <ele>52.660</ele>
        <time>2018-09-21T13:40:06.693Z</time>
      </trkpt>
      <trkpt lat="37.0923100" lon="-8.4302024">
        <ele>53.538</ele>
        <time>2018-09-21T13:40:10.215Z</time>
      </trkpt>
      <trkpt lat="37.0924057" lon="-8.4302690">
        <ele>53.928</ele>
        <time>2018-09-21T13:40:12.991Z</time>
      </trkpt>
      <trkpt lat="37.0924897" lon="-8.4303773">
        <ele>54.034</ele>
        <time>2018-09-21T13:40:16.125Z</time>
      </trkpt>
      <trkpt lat="37.0925889" lon="-8.4304408">
        <ele>54.027</ele>
        <time>2018-09-21T13:40:19.080Z</time>
      </trkpt>
      <trkpt lat="37.0926673" lon="-8.4305565">
        <ele>53.964</ele>
        <time>2018-09-21T13:40:22.138Z</time>
      </trkpt>
      <trkpt lat="37.0927486" lon="-8.4306828">
        <ele>53.897</ele>
        <time>2018-09-21T13:40:25.485Z</time>
      </trkpt>
      <trkpt lat="37.0928195" lon="-8.4308226">
        <ele>53.951</ele>
        <time>2018-09-21T13:40:28.813Z</time>
      </trkpt>
      <trkpt lat="37.0928891" lon="-8.4309480">
        <ele>54.358</ele>
        <time>2018-09-21T13:40:31.731Z</time>
      </trkpt>
      <trkpt lat="37.0929558" lon="-8.4310775">
        <ele>55.100</ele>
        <time>2018-09-21T13:40:34.563Z</time>
      </trkpt>
      <trkpt lat="37.0929958" lon="-8.4312270">
        <ele>55.754</ele>
        <time>2018-09-21T13:40:37.538Z</time>
      </trkpt>
      <trkpt lat="37.0930496" lon="-8.4313522">
        <ele>56.111</ele>
        <time>2018-09-21T13:40:40.368Z</time>
      </trkpt>
      <trkpt lat="37.0931099" lon="-8.4314862">
        <ele>56.368</ele>
        <time>2018-09-21T13:40:43.476Z</time>
      </trkpt>
      <trkpt lat="37.0931646" lon="-8.4316328">
        <ele>56.566</ele>
        <time>2018-09-21T13:40:46.775Z</time>
      </trkpt>
      <trkpt lat="37.0932240" lon="-8.4317623">
        <ele>56.429</ele>
        <time>2018-09-21T13:40:49.743Z</time>
      </trkpt>
      <trkpt lat="37.0932791" lon="-8.4319012">
        <ele>55.912</ele>
        <time>2018-09-21T13:40:52.701Z</time>
      </trkpt>
      <trkpt lat="37.0933397" lon="-8.4320510">
        <ele>55.599</ele>
        <time>2018-09-21T13:40:55.823Z</time>
      </trkpt>
      <trkpt lat="37.0934165" lon="-8.4322181">
        <ele>55.877</ele>
        <time>2018-09-21T13:40:59.542Z</time>
      </trkpt>
      <trkpt lat="37.0934751" lon="-8.4323352">
        <ele>56.281</ele>
        <time>2018-09-21T13:41:02.360Z</time>
      </trkpt>
      <trkpt lat="37.0935128" lon="-8.4324509">
        <ele>56.204</ele>
        <time>2018-09-21T13:41:05.071Z</time>
      </trkpt>
      <trkpt lat="37.0935606" lon="-8.4325639">
        <ele>55.674</ele>
        <time>2018-09-21T13:41:08.007Z</time>
      </trkpt>
      <trkpt lat="37.0936035" lon="-8.4326719">
        <ele>55.147</ele>
        <time>2018-09-21T13:41:10.770Z</time>
      </trkpt>
      <trkpt lat="37.0936541" lon="-8.4327825">
        <ele>54.935</ele>
        <time>2018-09-21T13:41:13.553Z</time>
      </trkpt>
      <trkpt lat="37.0937057" lon="-8.4329022">
        <ele>55.038</ele>
        <time>2018-09-21T13:41:16.431Z</time>
      </trkpt>
      <trkpt lat="37.0937554" lon="-8.4330246">
        <ele>55.352</ele>
        <time>2018-09-21T13:41:19.286Z</time>
      </trkpt>
      <trkpt lat="37.0938026" lon="-8.4331525">
        <ele>55.905</ele>
        <time>2018-09-21T13:41:21.986Z</time>
      </trkpt>
      <trkpt lat="37.0938776" lon="-8.4332842">
        <ele>56.875</ele>
        <time>2018-09-21T13:41:24.761Z</time>
      </trkpt>
      <trkpt lat="37.0939475" lon="-8.4334321">
        <ele>58.072</ele>
        <time>2018-09-21T13:41:27.568Z</time>
      </trkpt>
      <trkpt lat="37.0940212" lon="-8.4335918">
        <ele>58.421</ele>
        <time>2018-09-21T13:41:30.558Z</time>
      </trkpt>
      <trkpt lat="37.0940888" lon="-8.4337664">
        <ele>57.408</ele>
        <time>2018-09-21T13:41:33.665Z</time>
      </trkpt>
      <trkpt lat="37.0941645" lon="-8.4339441">
        <ele>56.120</ele>
        <time>2018-09-21T13:41:36.699Z</time>
      </trkpt>
      <trkpt lat="37.0942492" lon="-8.4341147">
        <ele>55.903</ele>
        <time>2018-09-21T13:41:39.528Z</time>
      </trkpt>
      <trkpt lat="37.0943468" lon="-8.4342958">
        <ele>56.843</ele>
        <time>2018-09-21T13:41:42.465Z</time>
      </trkpt>
      <trkpt lat="37.0944627" lon="-8.4344569">
        <ele>58.175</ele>
        <time>2018-09-21T13:41:45.349Z</time>
      </trkpt>
      <trkpt lat="37.0945752" lon="-8.4346247">
        <ele>59.216</ele>
        <time>2018-09-21T13:41:48.298Z</time>
      </trkpt>
      <trkpt lat="37.0946886" lon="-8.4347980">
        <ele>59.752</ele>
        <time>2018-09-21T13:41:51.449Z</time>
      </trkpt>
      <trkpt lat="37.0947874" lon="-8.4349540">
        <ele>59.740</ele>
        <time>2018-09-21T13:41:54.476Z</time>
      </trkpt>
      <trkpt lat="37.0948750" lon="-8.4350958">
        <ele>59.364</ele>
        <time>2018-09-21T13:41:57.461Z</time>
      </trkpt>
      <trkpt lat="37.0949368" lon="-8.4352464">
        <ele>59.096</ele>
        <time>2018-09-21T13:42:00.517Z</time>
      </trkpt>
      <trkpt lat="37.0949907" lon="-8.4354115">
        <ele>59.220</ele>
        <time>2018-09-21T13:42:03.841Z</time>
      </trkpt>
      <trkpt lat="37.0950254" lon="-8.4355693">
        <ele>59.398</ele>
        <time>2018-09-21T13:42:07.030Z</time>
      </trkpt>
      <trkpt lat="37.0950524" lon="-8.4356867">
        <ele>59.226</ele>
        <time>2018-09-21T13:42:09.503Z</time>
      </trkpt>
      <trkpt lat="37.0951193" lon="-8.4358177">
        <ele>58.815</ele>
        <time>2018-09-21T13:42:12.698Z</time>
      </trkpt>
      <trkpt lat="37.0951910" lon="-8.4359293">
        <ele>58.584</ele>
        <time>2018-09-21T13:42:15.716Z</time>
      </trkpt>
      <trkpt lat="37.0952748" lon="-8.4360346">
        <ele>58.899</ele>
        <time>2018-09-21T13:42:18.796Z</time>
      </trkpt>
      <trkpt lat="37.0953617" lon="-8.4361408">
        <ele>59.661</ele>
        <time>2018-09-21T13:42:21.962Z</time>
      </trkpt>
      <trkpt lat="37.0954375" lon="-8.4362434">
        <ele>60.207</ele>
        <time>2018-09-21T13:42:25.067Z</time>
      </trkpt>
      <trkpt lat="37.0955121" lon="-8.4363253">
        <ele>60.152</ele>
        <time>2018-09-21T13:42:27.799Z</time>
      </trkpt>
      <trkpt lat="37.0955832" lon="-8.4364224">
        <ele>60.062</ele>
        <time>2018-09-21T13:42:30.635Z</time>
      </trkpt>
      <trkpt lat="37.0956558" lon="-8.4365249">
        <ele>60.489</ele>
        <time>2018-09-21T13:42:33.720Z</time>
      </trkpt>
      <trkpt lat="37.0957147" lon="-8.4366381">
        <ele>61.214</ele>
        <time>2018-09-21T13:42:36.715Z</time>
      </trkpt>
      <trkpt lat="37.0957795" lon="-8.4367628">
        <ele>61.810</ele>
        <time>2018-09-21T13:42:39.867Z</time>
      </trkpt>
      <trkpt lat="37.0958264" lon="-8.4368983">
        <ele>62.059</ele>
        <time>2018-09-21T13:42:43.109Z</time>
      </trkpt>
      <trkpt lat="37.0958640" lon="-8.4370195">
        <ele>61.954</ele>
        <time>2018-09-21T13:42:46.135Z</time>
      </trkpt>
      <trkpt lat="37.0959019" lon="-8.4371270">
        <ele>61.890</ele>
        <time>2018-09-21T13:42:48.971Z</time>
      </trkpt>
      <trkpt lat="37.0959327" lon="-8.4372376">
        <ele>62.200</ele>
        <time>2018-09-21T13:42:51.851Z</time>
      </trkpt>
      <trkpt lat="37.0959555" lon="-8.4373558">
        <ele>62.898</ele>
        <time>2018-09-21T13:42:54.864Z</time>
      </trkpt>
      <trkpt lat="37.0959804" lon="-8.4374712">
        <ele>63.903</ele>
        <time>2018-09-21T13:42:57.663Z</time>
      </trkpt>
      <trkpt lat="37.0960049" lon="-8.4375847">
        <ele>65.145</ele>
        <time>2018-09-21T13:43:00.500Z</time>
      </trkpt>
      <trkpt lat="37.0960518" lon="-8.4377185">
        <ele>66.464</ele>
        <time>2018-09-21T13:43:04.211Z</time>
      </trkpt>
      <trkpt lat="37.0960867" lon="-8.4378264">
        <ele>67.682</ele>
        <time>2018-09-21T13:43:07.199Z</time>
      </trkpt>
      <trkpt lat="37.0961364" lon="-8.4379292">
        <ele>68.455</ele>
        <time>2018-09-21T13:43:10.334Z</time>
      </trkpt>
      <trkpt lat="37.0961999" lon="-8.4380547">
        <ele>68.514</ele>
        <time>2018-09-21T13:43:14.226Z</time>
      </trkpt>
      <trkpt lat="37.0962500" lon="-8.4381603">
        <ele>68.090</ele>
        <time>2018-09-21T13:43:17.430Z</time>
      </trkpt>
      <trkpt lat="37.0963124" lon="-8.4382879">
        <ele>67.796</ele>
        <time>2018-09-21T13:43:21.253Z</time>
      </trkpt>
      <trkpt lat="37.0963727" lon="-8.4384058">
        <ele>68.058</ele>
        <time>2018-09-21T13:43:24.692Z</time>
      </trkpt>
      <trkpt lat="37.0964419" lon="-8.4385150">
        <ele>68.867</ele>
        <time>2018-09-21T13:43:28.218Z</time>
      </trkpt>
      <trkpt lat="37.0964844" lon="-8.4386194">
        <ele>69.666</ele>
        <time>2018-09-21T13:43:31.307Z</time>
      </trkpt>
      <trkpt lat="37.0965357" lon="-8.4387357">
        <ele>69.901</ele>
        <time>2018-09-21T13:43:34.760Z</time>
      </trkpt>
      <trkpt lat="37.0966005" lon="-8.4388624">
        <ele>69.661</ele>
        <time>2018-09-21T13:43:38.583Z</time>
      </trkpt>
      <trkpt lat="37.0966513" lon="-8.4389808">
        <ele>69.611</ele>
        <time>2018-09-21T13:43:42.006Z</time>
      </trkpt>
      <trkpt lat="37.0967192" lon="-8.4390977">
        <ele>70.087</ele>
        <time>2018-09-21T13:43:45.766Z</time>
      </trkpt>
      <trkpt lat="37.0967888" lon="-8.4391878">
        <ele>70.637</ele>
        <time>2018-09-21T13:43:49.010Z</time>
      </trkpt>
      <trkpt lat="37.0968472" lon="-8.4392770">
        <ele>70.798</ele>
        <time>2018-09-21T13:43:52.077Z</time>
      </trkpt>
      <trkpt lat="37.0969114" lon="-8.4393848">
        <ele>70.664</ele>
        <time>2018-09-21T13:43:55.806Z</time>
      </trkpt>
      <trkpt lat="37.0969760" lon="-8.4395003">
        <ele>70.548</ele>
        <time>2018-09-21T13:43:59.790Z</time>
      </trkpt>
      <trkpt lat="37.0970552" lon="-8.4396061">
        <ele>70.833</ele>
        <time>2018-09-21T13:44:03.867Z</time>
      </trkpt>
      <trkpt lat="37.0971012" lon="-8.4397075">
        <ele>71.864</ele>
        <time>2018-09-21T13:44:07.556Z</time>
      </trkpt>
      <trkpt lat="37.0971022" lon="-8.4398240">
        <ele>73.385</ele>
        <time>2018-09-21T13:44:12.549Z</time>
      </trkpt>
      <trkpt lat="37.0971452" lon="-8.4399260">
        <ele>74.767</ele>
        <time>2018-09-21T13:44:18.989Z</time>
      </trkpt>
      <trkpt lat="37.0971452" lon="-8.4399260">
        <ele>75.703</ele>
        <time>2018-09-21T13:44:31.995Z</time>
      </trkpt>
      <trkpt lat="37.0971452" lon="-8.4399260">
        <ele>76.114</ele>
        <time>2018-09-21T13:46:37.946Z</time>
      </trkpt>
      <trkpt lat="37.0971338" lon="-8.4401665">
        <ele>76.032</ele>
        <time>2018-09-21T13:46:50.349Z</time>
      </trkpt>
      <trkpt lat="37.0971038" lon="-8.4402965">
        <ele>76.222</ele>
        <time>2018-09-21T13:46:53.480Z</time>
      </trkpt>
      <trkpt lat="37.0970391" lon="-8.4404210">
        <ele>77.192</ele>
        <time>2018-09-21T13:46:56.612Z</time>
      </trkpt>
      <trkpt lat="37.0969052" lon="-8.4404494">
        <ele>78.288</ele>
        <time>2018-09-21T13:46:59.829Z</time>
      </trkpt>
      <trkpt lat="37.0967211" lon="-8.4403661">
        <ele>78.787</ele>
        <time>2018-09-21T13:47:03.674Z</time>
      </trkpt>
      <trkpt lat="37.0965174" lon="-8.4403311">
        <ele>78.645</ele>
        <time>2018-09-21T13:47:06.968Z</time>
      </trkpt>
      <trkpt lat="37.0962942" lon="-8.4403173">
        <ele>77.909</ele>
        <time>2018-09-21T13:47:10.005Z</time>
      </trkpt>
      <trkpt lat="37.0960474" lon="-8.4403137">
        <ele>76.669</ele>
        <time>2018-09-21T13:47:13.016Z</time>
      </trkpt>
      <trkpt lat="37.0957866" lon="-8.4403304">
        <ele>74.976</ele>
        <time>2018-09-21T13:47:16.113Z</time>
      </trkpt>
      <trkpt lat="37.0955261" lon="-8.4403585">
        <ele>72.992</ele>
        <time>2018-09-21T13:47:19.401Z</time>
      </trkpt>
      <trkpt lat="37.0952735" lon="-8.4403556">
        <ele>71.191</ele>
        <time>2018-09-21T13:47:22.811Z</time>
      </trkpt>
      <trkpt lat="37.0950631" lon="-8.4403356">
        <ele>69.917</ele>
        <time>2018-09-21T13:47:25.803Z</time>
      </trkpt>
      <trkpt lat="37.0948462" lon="-8.4403457">
        <ele>68.962</ele>
        <time>2018-09-21T13:47:29.071Z</time>
      </trkpt>
      <trkpt lat="37.0946727" lon="-8.4404723">
        <ele>68.118</ele>
        <time>2018-09-21T13:47:32.181Z</time>
      </trkpt>
      <trkpt lat="37.0946186" lon="-8.4406865">
        <ele>67.548</ele>
        <time>2018-09-21T13:47:34.938Z</time>
      </trkpt>
      <trkpt lat="37.0945804" lon="-8.4409265">
        <ele>67.345</ele>
        <time>2018-09-21T13:47:38.030Z</time>
      </trkpt>
      <trkpt lat="37.0945304" lon="-8.4411692">
        <ele>67.272</ele>
        <time>2018-09-21T13:47:41.404Z</time>
      </trkpt>
      <trkpt lat="37.0944538" lon="-8.4413884">
        <ele>67.160</ele>
        <time>2018-09-21T13:47:44.883Z</time>
      </trkpt>
      <trkpt lat="37.0943670" lon="-8.4415767">
        <ele>67.044</ele>
        <time>2018-09-21T13:47:49.601Z</time>
      </trkpt>
      <trkpt lat="37.0942582" lon="-8.4417353">
        <ele>66.981</ele>
        <time>2018-09-21T13:47:55.726Z</time>
      </trkpt>
      <trkpt lat="37.0941879" lon="-8.4418397">
        <ele>66.954</ele>
        <time>2018-09-21T13:47:59.328Z</time>
      </trkpt>
      <trkpt lat="37.0941117" lon="-8.4419214">
        <ele>66.857</ele>
        <time>2018-09-21T13:48:01.826Z</time>
      </trkpt>
      <trkpt lat="37.0940308" lon="-8.4419952">
        <ele>66.518</ele>
        <time>2018-09-21T13:48:04.107Z</time>
      </trkpt>
      <trkpt lat="37.0939402" lon="-8.4420883">
        <ele>65.786</ele>
        <time>2018-09-21T13:48:06.486Z</time>
      </trkpt>
      <trkpt lat="37.0938788" lon="-8.4422578">
        <ele>64.839</ele>
        <time>2018-09-21T13:48:09.323Z</time>
      </trkpt>
      <trkpt lat="37.0938256" lon="-8.4424336">
        <ele>64.155</ele>
        <time>2018-09-21T13:48:12.107Z</time>
      </trkpt>
      <trkpt lat="37.0937667" lon="-8.4426193">
        <ele>63.954</ele>
        <time>2018-09-21T13:48:15.011Z</time>
      </trkpt>
      <trkpt lat="37.0936974" lon="-8.4427962">
        <ele>63.995</ele>
        <time>2018-09-21T13:48:17.829Z</time>
      </trkpt>
      <trkpt lat="37.0936290" lon="-8.4429966">
        <ele>63.990</ele>
        <time>2018-09-21T13:48:20.913Z</time>
      </trkpt>
      <trkpt lat="37.0935589" lon="-8.4431883">
        <ele>63.796</ele>
        <time>2018-09-21T13:48:23.689Z</time>
      </trkpt>
      <trkpt lat="37.0934805" lon="-8.4434039">
        <ele>63.366</ele>
        <time>2018-09-21T13:48:26.497Z</time>
      </trkpt>
      <trkpt lat="37.0933795" lon="-8.4436097">
        <ele>62.701</ele>
        <time>2018-09-21T13:48:29.179Z</time>
      </trkpt>
      <trkpt lat="37.0932665" lon="-8.4438364">
        <ele>61.934</ele>
        <time>2018-09-21T13:48:32.104Z</time>
      </trkpt>
      <trkpt lat="37.0931357" lon="-8.4440561">
        <ele>61.191</ele>
        <time>2018-09-21T13:48:35.148Z</time>
      </trkpt>
      <trkpt lat="37.0930057" lon="-8.4442494">
        <ele>60.412</ele>
        <time>2018-09-21T13:48:38.019Z</time>
      </trkpt>
      <trkpt lat="37.0928721" lon="-8.4444390">
        <ele>59.577</ele>
        <time>2018-09-21T13:48:40.965Z</time>
      </trkpt>
      <trkpt lat="37.0927146" lon="-8.4446022">
        <ele>58.892</ele>
        <time>2018-09-21T13:48:44.102Z</time>
      </trkpt>
      <trkpt lat="37.0925697" lon="-8.4447506">
        <ele>58.480</ele>
        <time>2018-09-21T13:48:47.373Z</time>
      </trkpt>
      <trkpt lat="37.0924311" lon="-8.4448830">
        <ele>58.083</ele>
        <time>2018-09-21T13:48:51.089Z</time>
      </trkpt>
      <trkpt lat="37.0924278" lon="-8.4450560">
        <ele>57.408</ele>
        <time>2018-09-21T13:48:54.219Z</time>
      </trkpt>
      <trkpt lat="37.0925008" lon="-8.4451852">
        <ele>56.640</ele>
        <time>2018-09-21T13:48:57.132Z</time>
      </trkpt>
      <trkpt lat="37.0925879" lon="-8.4453004">
        <ele>56.200</ele>
        <time>2018-09-21T13:49:00.080Z</time>
      </trkpt>
      <trkpt lat="37.0926551" lon="-8.4453992">
        <ele>56.187</ele>
        <time>2018-09-21T13:49:02.330Z</time>
      </trkpt>
      <trkpt lat="37.0926771" lon="-8.4455320">
        <ele>56.364</ele>
        <time>2018-09-21T13:49:04.517Z</time>
      </trkpt>
      <trkpt lat="37.0927805" lon="-8.4456957">
        <ele>56.470</ele>
        <time>2018-09-21T13:49:07.596Z</time>
      </trkpt>
      <trkpt lat="37.0928220" lon="-8.4458998">
        <ele>56.121</ele>
        <time>2018-09-21T13:49:10.534Z</time>
      </trkpt>
      <trkpt lat="37.0928666" lon="-8.4461098">
        <ele>55.033</ele>
        <time>2018-09-21T13:49:13.341Z</time>
      </trkpt>
      <trkpt lat="37.0928945" lon="-8.4463432">
        <ele>53.628</ele>
        <time>2018-09-21T13:49:16.104Z</time>
      </trkpt>
      <trkpt lat="37.0929435" lon="-8.4466077">
        <ele>52.444</ele>
        <time>2018-09-21T13:49:19.020Z</time>
      </trkpt>
      <trkpt lat="37.0929883" lon="-8.4468948">
        <ele>51.398</ele>
        <time>2018-09-21T13:49:21.975Z</time>
      </trkpt>
      <trkpt lat="37.0930678" lon="-8.4472205">
        <ele>50.265</ele>
        <time>2018-09-21T13:49:25.165Z</time>
      </trkpt>
      <trkpt lat="37.0931446" lon="-8.4475914">
        <ele>49.060</ele>
        <time>2018-09-21T13:49:28.713Z</time>
      </trkpt>
      <trkpt lat="37.0931676" lon="-8.4478816">
        <ele>47.883</ele>
        <time>2018-09-21T13:49:31.582Z</time>
      </trkpt>
      <trkpt lat="37.0932373" lon="-8.4481451">
        <ele>46.465</ele>
        <time>2018-09-21T13:49:34.467Z</time>
      </trkpt>
      <trkpt lat="37.0933371" lon="-8.4483709">
        <ele>44.630</ele>
        <time>2018-09-21T13:49:37.179Z</time>
      </trkpt>
      <trkpt lat="37.0934455" lon="-8.4486104">
        <ele>42.867</ele>
        <time>2018-09-21T13:49:39.976Z</time>
      </trkpt>
      <trkpt lat="37.0935284" lon="-8.4488940">
        <ele>41.434</ele>
        <time>2018-09-21T13:49:42.915Z</time>
      </trkpt>
      <trkpt lat="37.0935778" lon="-8.4491945">
        <ele>40.086</ele>
        <time>2018-09-21T13:49:45.856Z</time>
      </trkpt>
      <trkpt lat="37.0935549" lon="-8.4495060">
        <ele>38.711</ele>
        <time>2018-09-21T13:49:48.835Z</time>
      </trkpt>
      <trkpt lat="37.0934713" lon="-8.4497932">
        <ele>37.407</ele>
        <time>2018-09-21T13:49:51.725Z</time>
      </trkpt>
      <trkpt lat="37.0933688" lon="-8.4500766">
        <ele>36.349</ele>
        <time>2018-09-21T13:49:54.675Z</time>
      </trkpt>
      <trkpt lat="37.0932980" lon="-8.4503684">
        <ele>35.417</ele>
        <time>2018-09-21T13:49:57.604Z</time>
      </trkpt>
      <trkpt lat="37.0932081" lon="-8.4506439">
        <ele>34.390</ele>
        <time>2018-09-21T13:50:00.522Z</time>
      </trkpt>
      <trkpt lat="37.0930925" lon="-8.4508891">
        <ele>33.326</ele>
        <time>2018-09-21T13:50:03.337Z</time>
      </trkpt>
      <trkpt lat="37.0929511" lon="-8.4511346">
        <ele>32.271</ele>
        <time>2018-09-21T13:50:06.394Z</time>
      </trkpt>
      <trkpt lat="37.0928446" lon="-8.4513586">
        <ele>31.208</ele>
        <time>2018-09-21T13:50:09.180Z</time>
      </trkpt>
      <trkpt lat="37.0927405" lon="-8.4515955">
        <ele>30.226</ele>
        <time>2018-09-21T13:50:12.371Z</time>
      </trkpt>
      <trkpt lat="37.0926765" lon="-8.4518181">
        <ele>29.253</ele>
        <time>2018-09-21T13:50:15.575Z</time>
      </trkpt>
      <trkpt lat="37.0925999" lon="-8.4519618">
        <ele>28.246</ele>
        <time>2018-09-21T13:50:18.004Z</time>
      </trkpt>
      <trkpt lat="37.0924996" lon="-8.4521206">
        <ele>27.493</ele>
        <time>2018-09-21T13:50:21.086Z</time>
      </trkpt>
      <trkpt lat="37.0924475" lon="-8.4522723">
        <ele>27.149</ele>
        <time>2018-09-21T13:50:24.085Z</time>
      </trkpt>
      <trkpt lat="37.0924260" lon="-8.4524071">
        <ele>26.987</ele>
        <time>2018-09-21T13:50:26.993Z</time>
      </trkpt>
      <trkpt lat="37.0923734" lon="-8.4525190">
        <ele>27.017</ele>
        <time>2018-09-21T13:50:30.078Z</time>
      </trkpt>
      <trkpt lat="37.0923227" lon="-8.4526287">
        <ele>27.397</ele>
        <time>2018-09-21T13:50:32.767Z</time>
      </trkpt>
      <trkpt lat="37.0923139" lon="-8.4528017">
        <ele>27.967</ele>
        <time>2018-09-21T13:50:35.842Z</time>
      </trkpt>
      <trkpt lat="37.0922717" lon="-8.4529517">
        <ele>28.250</ele>
        <time>2018-09-21T13:50:38.537Z</time>
      </trkpt>
      <trkpt lat="37.0922285" lon="-8.4531060">
        <ele>28.052</ele>
        <time>2018-09-21T13:50:41.555Z</time>
      </trkpt>
      <trkpt lat="37.0921969" lon="-8.4532260">
        <ele>27.879</ele>
        <time>2018-09-21T13:50:44.233Z</time>
      </trkpt>
      <trkpt lat="37.0921638" lon="-8.4533418">
        <ele>28.174</ele>
        <time>2018-09-21T13:50:47.088Z</time>
      </trkpt>
      <trkpt lat="37.0921244" lon="-8.4534607">
        <ele>28.842</ele>
        <time>2018-09-21T13:50:50.154Z</time>
      </trkpt>
      <trkpt lat="37.0920901" lon="-8.4535648">
        <ele>29.780</ele>
        <time>2018-09-21T13:50:53.481Z</time>
      </trkpt>
      <trkpt lat="37.0920692" lon="-8.4536745">
        <ele>30.818</ele>
        <time>2018-09-21T13:50:57.991Z</time>
      </trkpt>
      <trkpt lat="37.0920692" lon="-8.4536745">
        <ele>31.524</ele>
        <time>2018-09-21T13:50:58.991Z</time>
      </trkpt>
      <trkpt lat="37.0920692" lon="-8.4536745">
        <ele>31.739</ele>
        <time>2018-09-21T13:54:00.378Z</time>
      </trkpt>
      <trkpt lat="37.0921202" lon="-8.4539108">
        <ele>31.575</ele>
        <time>2018-09-21T13:54:18.257Z</time>
      </trkpt>
      <trkpt lat="37.0921817" lon="-8.4540224">
        <ele>30.932</ele>
        <time>2018-09-21T13:54:23.212Z</time>
      </trkpt>
      <trkpt lat="37.0922574" lon="-8.4541023">
        <ele>29.895</ele>
        <time>2018-09-21T13:54:27.846Z</time>
      </trkpt>
      <trkpt lat="37.0923520" lon="-8.4541582">
        <ele>29.034</ele>
        <time>2018-09-21T13:54:31.804Z</time>
      </trkpt>
      <trkpt lat="37.0924502" lon="-8.4541630">
        <ele>28.712</ele>
        <time>2018-09-21T13:54:35.069Z</time>
      </trkpt>
      <trkpt lat="37.0925387" lon="-8.4541885">
        <ele>28.900</ele>
        <time>2018-09-21T13:54:38.001Z</time>
      </trkpt>
      <trkpt lat="37.0926436" lon="-8.4542027">
        <ele>29.531</ele>
        <time>2018-09-21T13:54:41.351Z</time>
      </trkpt>
      <trkpt lat="37.0927616" lon="-8.4542396">
        <ele>30.482</ele>
        <time>2018-09-21T13:54:45.186Z</time>
      </trkpt>
      <trkpt lat="37.0928619" lon="-8.4542553">
        <ele>31.568</ele>
        <time>2018-09-21T13:54:48.470Z</time>
      </trkpt>
      <trkpt lat="37.0929572" lon="-8.4542856">
        <ele>32.578</ele>
        <time>2018-09-21T13:54:51.744Z</time>
      </trkpt>
      <trkpt lat="37.0930529" lon="-8.4543216">
        <ele>33.374</ele>
        <time>2018-09-21T13:54:54.939Z</time>
      </trkpt>
      <trkpt lat="37.0931491" lon="-8.4544071">
        <ele>34.002</ele>
        <time>2018-09-21T13:54:58.349Z</time>
      </trkpt>
      <trkpt lat="37.0932390" lon="-8.4544894">
        <ele>34.691</ele>
        <time>2018-09-21T13:55:01.529Z</time>
      </trkpt>
      <trkpt lat="37.0933357" lon="-8.4545766">
        <ele>35.654</ele>
        <time>2018-09-21T13:55:05.283Z</time>
      </trkpt>
      <trkpt lat="37.0933838" lon="-8.4546718">
        <ele>36.728</ele>
        <time>2018-09-21T13:55:08.809Z</time>
      </trkpt>
      <trkpt lat="37.0934351" lon="-8.4547853">
        <ele>37.553</ele>
        <time>2018-09-21T13:55:13.172Z</time>
      </trkpt>
      <trkpt lat="37.0934680" lon="-8.4549119">
        <ele>38.031</ele>
        <time>2018-09-21T13:55:17.407Z</time>
      </trkpt>
      <trkpt lat="37.0935089" lon="-8.4550437">
        <ele>38.277</ele>
        <time>2018-09-21T13:55:21.349Z</time>
      </trkpt>
      <trkpt lat="37.0935584" lon="-8.4551774">
        <ele>38.519</ele>
        <time>2018-09-21T13:55:25.433Z</time>
      </trkpt>
      <trkpt lat="37.0936089" lon="-8.4553049">
        <ele>39.018</ele>
        <time>2018-09-21T13:55:29.491Z</time>
      </trkpt>
      <trkpt lat="37.0936538" lon="-8.4554250">
        <ele>39.878</ele>
        <time>2018-09-21T13:55:33.459Z</time>
      </trkpt>
      <trkpt lat="37.0937015" lon="-8.4555373">
        <ele>40.869</ele>
        <time>2018-09-21T13:55:37.642Z</time>
      </trkpt>
      <trkpt lat="37.0937465" lon="-8.4556358">
        <ele>41.685</ele>
        <time>2018-09-21T13:55:41.663Z</time>
      </trkpt>
      <trkpt lat="37.0937931" lon="-8.4557606">
        <ele>42.249</ele>
        <time>2018-09-21T13:55:46.501Z</time>
      </trkpt>
      <trkpt lat="37.0938361" lon="-8.4558679">
        <ele>42.658</ele>
        <time>2018-09-21T13:55:50.517Z</time>
      </trkpt>
      <trkpt lat="37.0938893" lon="-8.4559759">
        <ele>43.054</ele>
        <time>2018-09-21T13:55:54.656Z</time>
      </trkpt>
      <trkpt lat="37.0939328" lon="-8.4560968">
        <ele>43.482</ele>
        <time>2018-09-21T13:55:59.095Z</time>
      </trkpt>
      <trkpt lat="37.0939742" lon="-8.4562062">
        <ele>43.859</ele>
        <time>2018-09-21T13:56:03.220Z</time>
      </trkpt>
      <trkpt lat="37.0940101" lon="-8.4563118">
        <ele>44.140</ele>
        <time>2018-09-21T13:56:06.788Z</time>
      </trkpt>
      <trkpt lat="37.0940529" lon="-8.4564137">
        <ele>44.308</ele>
        <time>2018-09-21T13:56:09.886Z</time>
      </trkpt>
      <trkpt lat="37.0941254" lon="-8.4565451">
        <ele>44.326</ele>
        <time>2018-09-21T13:56:13.428Z</time>
      </trkpt>
      <trkpt lat="37.0941877" lon="-8.4566828">
        <ele>44.227</ele>
        <time>2018-09-21T13:56:16.771Z</time>
      </trkpt>
      <trkpt lat="37.0942462" lon="-8.4568166">
        <ele>44.052</ele>
        <time>2018-09-21T13:56:20.347Z</time>
      </trkpt>
      <trkpt lat="37.0942952" lon="-8.4569215">
        <ele>43.840</ele>
        <time>2018-09-21T13:56:23.685Z</time>
      </trkpt>
      <trkpt lat="37.0943657" lon="-8.4570228">
        <ele>43.567</ele>
        <time>2018-09-21T13:56:27.966Z</time>
      </trkpt>
      <trkpt lat="37.0944579" lon="-8.4571023">
        <ele>43.151</ele>
        <time>2018-09-21T13:56:32.801Z</time>
      </trkpt>
      <trkpt lat="37.0945435" lon="-8.4571478">
        <ele>42.630</ele>
        <time>2018-09-21T13:56:36.366Z</time>
      </trkpt>
      <trkpt lat="37.0946406" lon="-8.4571771">
        <ele>42.111</ele>
        <time>2018-09-21T13:56:39.566Z</time>
      </trkpt>
      <trkpt lat="37.0947428" lon="-8.4571920">
        <ele>41.629</ele>
        <time>2018-09-21T13:56:42.426Z</time>
      </trkpt>
      <trkpt lat="37.0948581" lon="-8.4572049">
        <ele>41.124</ele>
        <time>2018-09-21T13:56:45.365Z</time>
      </trkpt>
      <trkpt lat="37.0949963" lon="-8.4571571">
        <ele>40.437</ele>
        <time>2018-09-21T13:56:48.766Z</time>
      </trkpt>
      <trkpt lat="37.0951182" lon="-8.4572215">
        <ele>39.526</ele>
        <time>2018-09-21T13:56:51.718Z</time>
      </trkpt>
      <trkpt lat="37.0951967" lon="-8.4573340">
        <ele>38.473</ele>
        <time>2018-09-21T13:56:54.313Z</time>
      </trkpt>
      <trkpt lat="37.0951910" lon="-8.4575144">
        <ele>37.331</ele>
        <time>2018-09-21T13:56:57.379Z</time>
      </trkpt>
      <trkpt lat="37.0951267" lon="-8.4576741">
        <ele>36.309</ele>
        <time>2018-09-21T13:57:00.329Z</time>
      </trkpt>
      <trkpt lat="37.0950552" lon="-8.4578380">
        <ele>35.555</ele>
        <time>2018-09-21T13:57:03.392Z</time>
      </trkpt>
      <trkpt lat="37.0949831" lon="-8.4579902">
        <ele>34.983</ele>
        <time>2018-09-21T13:57:06.377Z</time>
      </trkpt>
      <trkpt lat="37.0949000" lon="-8.4581371">
        <ele>34.557</ele>
        <time>2018-09-21T13:57:09.636Z</time>
      </trkpt>
      <trkpt lat="37.0948372" lon="-8.4582550">
        <ele>34.310</ele>
        <time>2018-09-21T13:57:12.233Z</time>
      </trkpt>
      <trkpt lat="37.0947720" lon="-8.4583836">
        <ele>34.028</ele>
        <time>2018-09-21T13:57:14.900Z</time>
      </trkpt>
      <trkpt lat="37.0947200" lon="-8.4585293">
        <ele>33.549</ele>
        <time>2018-09-21T13:57:17.653Z</time>
      </trkpt>
      <trkpt lat="37.0946474" lon="-8.4586573">
        <ele>33.266</ele>
        <time>2018-09-21T13:57:20.359Z</time>
      </trkpt>
      <trkpt lat="37.0946092" lon="-8.4588151">
        <ele>33.509</ele>
        <time>2018-09-21T13:57:23.144Z</time>
      </trkpt>
      <trkpt lat="37.0945470" lon="-8.4589642">
        <ele>33.944</ele>
        <time>2018-09-21T13:57:26.101Z</time>
      </trkpt>
      <trkpt lat="37.0944834" lon="-8.4591258">
        <ele>34.330</ele>
        <time>2018-09-21T13:57:29.088Z</time>
      </trkpt>
      <trkpt lat="37.0944346" lon="-8.4593078">
        <ele>34.827</ele>
        <time>2018-09-21T13:57:32.003Z</time>
      </trkpt>
      <trkpt lat="37.0943826" lon="-8.4594956">
        <ele>35.472</ele>
        <time>2018-09-21T13:57:35.108Z</time>
      </trkpt>
      <trkpt lat="37.0943819" lon="-8.4596782">
        <ele>36.058</ele>
        <time>2018-09-21T13:57:38.084Z</time>
      </trkpt>
      <trkpt lat="37.0944473" lon="-8.4598502">
        <ele>36.491</ele>
        <time>2018-09-21T13:57:41.367Z</time>
      </trkpt>
      <trkpt lat="37.0945227" lon="-8.4599911">
        <ele>37.006</ele>
        <time>2018-09-21T13:57:44.562Z</time>
      </trkpt>
      <trkpt lat="37.0945894" lon="-8.4601332">
        <ele>37.775</ele>
        <time>2018-09-21T13:57:47.682Z</time>
      </trkpt>
      <trkpt lat="37.0946664" lon="-8.4602614">
        <ele>38.673</ele>
        <time>2018-09-21T13:57:50.844Z</time>
      </trkpt>
      <trkpt lat="37.0947024" lon="-8.4603841">
        <ele>39.478</ele>
        <time>2018-09-21T13:57:53.331Z</time>
      </trkpt>
      <trkpt lat="37.0947963" lon="-8.4605238">
        <ele>39.781</ele>
        <time>2018-09-21T13:57:56.802Z</time>
      </trkpt>
      <trkpt lat="37.0948399" lon="-8.4606517">
        <ele>39.399</ele>
        <time>2018-09-21T13:57:59.602Z</time>
      </trkpt>
      <trkpt lat="37.0949063" lon="-8.4607705">
        <ele>38.815</ele>
        <time>2018-09-21T13:58:02.550Z</time>
      </trkpt>
      <trkpt lat="37.0949358" lon="-8.4608948">
        <ele>38.516</ele>
        <time>2018-09-21T13:58:04.927Z</time>
      </trkpt>
      <trkpt lat="37.0949953" lon="-8.4610670">
        <ele>38.579</ele>
        <time>2018-09-21T13:58:07.934Z</time>
      </trkpt>
      <trkpt lat="37.0950197" lon="-8.4612304">
        <ele>39.035</ele>
        <time>2018-09-21T13:58:11.140Z</time>
      </trkpt>
      <trkpt lat="37.0950280" lon="-8.4613924">
        <ele>39.915</ele>
        <time>2018-09-21T13:58:14.781Z</time>
      </trkpt>
      <trkpt lat="37.0950170" lon="-8.4615189">
        <ele>40.966</ele>
        <time>2018-09-21T13:58:17.713Z</time>
      </trkpt>
      <trkpt lat="37.0950058" lon="-8.4616672">
        <ele>41.775</ele>
        <time>2018-09-21T13:58:20.853Z</time>
      </trkpt>
      <trkpt lat="37.0949676" lon="-8.4618019">
        <ele>42.305</ele>
        <time>2018-09-21T13:58:23.766Z</time>
      </trkpt>
      <trkpt lat="37.0949723" lon="-8.4619486">
        <ele>42.819</ele>
        <time>2018-09-21T13:58:26.816Z</time>
      </trkpt>
      <trkpt lat="37.0949895" lon="-8.4620617">
        <ele>43.475</ele>
        <time>2018-09-21T13:58:29.173Z</time>
      </trkpt>
      <trkpt lat="37.0949952" lon="-8.4622071">
        <ele>44.259</ele>
        <time>2018-09-21T13:58:31.995Z</time>
      </trkpt>
      <trkpt lat="37.0950078" lon="-8.4623646">
        <ele>44.976</ele>
        <time>2018-09-21T13:58:35.176Z</time>
      </trkpt>
      <trkpt lat="37.0950190" lon="-8.4624834">
        <ele>45.304</ele>
        <time>2018-09-21T13:58:37.657Z</time>
      </trkpt>
      <trkpt lat="37.0950486" lon="-8.4626479">
        <ele>45.199</ele>
        <time>2018-09-21T13:58:40.948Z</time>
      </trkpt>
      <trkpt lat="37.0950763" lon="-8.4627775">
        <ele>44.914</ele>
        <time>2018-09-21T13:58:43.491Z</time>
      </trkpt>
      <trkpt lat="37.0951096" lon="-8.4629130">
        <ele>44.691</ele>
        <time>2018-09-21T13:58:46.327Z</time>
      </trkpt>
      <trkpt lat="37.0951247" lon="-8.4630479">
        <ele>44.616</ele>
        <time>2018-09-21T13:58:49.394Z</time>
      </trkpt>
      <trkpt lat="37.0951569" lon="-8.4631769">
        <ele>44.648</ele>
        <time>2018-09-21T13:58:52.700Z</time>
      </trkpt>
      <trkpt lat="37.0951914" lon="-8.4632935">
        <ele>44.433</ele>
        <time>2018-09-21T13:58:55.699Z</time>
      </trkpt>
      <trkpt lat="37.0952197" lon="-8.4634193">
        <ele>43.694</ele>
        <time>2018-09-21T13:58:58.682Z</time>
      </trkpt>
      <trkpt lat="37.0952556" lon="-8.4635425">
        <ele>42.773</ele>
        <time>2018-09-21T13:59:01.765Z</time>
      </trkpt>
      <trkpt lat="37.0952936" lon="-8.4636777">
        <ele>42.178</ele>
        <time>2018-09-21T13:59:05.496Z</time>
      </trkpt>
      <trkpt lat="37.0953184" lon="-8.4637945">
        <ele>41.930</ele>
        <time>2018-09-21T13:59:09.094Z</time>
      </trkpt>
      <trkpt lat="37.0953390" lon="-8.4639172">
        <ele>41.868</ele>
        <time>2018-09-21T13:59:13.172Z</time>
      </trkpt>
      <trkpt lat="37.0953502" lon="-8.4640493">
        <ele>41.883</ele>
        <time>2018-09-21T13:59:17.991Z</time>
      </trkpt>
      <trkpt lat="37.0953502" lon="-8.4640493">
        <ele>41.891</ele>
        <time>2018-09-21T13:59:21.990Z</time>
      </trkpt>
      <trkpt lat="37.0955129" lon="-8.4640613">
        <ele>43.817</ele>
        <time>2018-09-21T16:15:27.002Z</time>
      </trkpt>
      <trkpt lat="37.0954612" lon="-8.4640496">
        <ele>43.806</ele>
        <time>2018-09-21T16:15:27.480Z</time>
      </trkpt>
      <trkpt lat="37.0954612" lon="-8.4640496">
        <ele>43.792</ele>
        <time>2018-09-21T16:15:43.822Z</time>
      </trkpt>
      <trkpt lat="37.0953344" lon="-8.4640991">
        <ele>43.751</ele>
        <time>2018-09-21T16:16:00.854Z</time>
      </trkpt>
      <trkpt lat="37.0953233" lon="-8.4641035">
        <ele>43.467</ele>
        <time>2018-09-21T16:16:01.711Z</time>
      </trkpt>
      <trkpt lat="37.0952484" lon="-8.4641959">
        <ele>42.852</ele>
        <time>2018-09-21T16:16:07.411Z</time>
      </trkpt>
      <trkpt lat="37.0952003" lon="-8.4642948">
        <ele>42.282</ele>
        <time>2018-09-21T16:16:11.220Z</time>
      </trkpt>
      <trkpt lat="37.0951368" lon="-8.4644098">
        <ele>42.133</ele>
        <time>2018-09-21T16:16:15.128Z</time>
      </trkpt>
      <trkpt lat="37.0950810" lon="-8.4645006">
        <ele>42.389</ele>
        <time>2018-09-21T16:16:18.185Z</time>
      </trkpt>
      <trkpt lat="37.0950092" lon="-8.4646184">
        <ele>42.810</ele>
        <time>2018-09-21T16:16:21.782Z</time>
      </trkpt>
      <trkpt lat="37.0949483" lon="-8.4647305">
        <ele>43.120</ele>
        <time>2018-09-21T16:16:24.771Z</time>
      </trkpt>
      <trkpt lat="37.0948792" lon="-8.4648446">
        <ele>43.257</ele>
        <time>2018-09-21T16:16:27.788Z</time>
      </trkpt>
      <trkpt lat="37.0948148" lon="-8.4649610">
        <ele>43.333</ele>
        <time>2018-09-21T16:16:30.783Z</time>
      </trkpt>
      <trkpt lat="37.0947511" lon="-8.4650637">
        <ele>43.409</ele>
        <time>2018-09-21T16:16:33.618Z</time>
      </trkpt>
      <trkpt lat="37.0946882" lon="-8.4651652">
        <ele>43.465</ele>
        <time>2018-09-21T16:16:36.503Z</time>
      </trkpt>
      <trkpt lat="37.0946255" lon="-8.4652609">
        <ele>43.577</ele>
        <time>2018-09-21T16:16:39.416Z</time>
      </trkpt>
      <trkpt lat="37.0945662" lon="-8.4653536">
        <ele>43.886</ele>
        <time>2018-09-21T16:16:42.379Z</time>
      </trkpt>
      <trkpt lat="37.0944950" lon="-8.4654692">
        <ele>44.316</ele>
        <time>2018-09-21T16:16:46.114Z</time>
      </trkpt>
      <trkpt lat="37.0944633" lon="-8.4655783">
        <ele>44.629</ele>
        <time>2018-09-21T16:16:49.005Z</time>
      </trkpt>
      <trkpt lat="37.0944457" lon="-8.4657033">
        <ele>44.507</ele>
        <time>2018-09-21T16:16:51.980Z</time>
      </trkpt>
      <trkpt lat="37.0944299" lon="-8.4658400">
        <ele>43.636</ele>
        <time>2018-09-21T16:16:54.830Z</time>
      </trkpt>
      <trkpt lat="37.0944253" lon="-8.4659882">
        <ele>42.235</ele>
        <time>2018-09-21T16:16:58.183Z</time>
      </trkpt>
      <trkpt lat="37.0944256" lon="-8.4661113">
        <ele>40.969</ele>
        <time>2018-09-21T16:17:01.895Z</time>
      </trkpt>
      <trkpt lat="37.0944171" lon="-8.4662269">
        <ele>40.162</ele>
        <time>2018-09-21T16:17:05.943Z</time>
      </trkpt>
      <trkpt lat="37.0943797" lon="-8.4663486">
        <ele>39.753</ele>
        <time>2018-09-21T16:17:10.586Z</time>
      </trkpt>
      <trkpt lat="37.0943282" lon="-8.4664411">
        <ele>39.680</ele>
        <time>2018-09-21T16:17:14.191Z</time>
      </trkpt>
      <trkpt lat="37.0942329" lon="-8.4665175">
        <ele>39.843</ele>
        <time>2018-09-21T16:17:18.244Z</time>
      </trkpt>
      <trkpt lat="37.0941539" lon="-8.4666067">
        <ele>39.978</ele>
        <time>2018-09-21T16:17:22.048Z</time>
      </trkpt>
      <trkpt lat="37.0940674" lon="-8.4666517">
        <ele>39.711</ele>
        <time>2018-09-21T16:17:25.997Z</time>
      </trkpt>
      <trkpt lat="37.0940674" lon="-8.4666517">
        <ele>39.027</ele>
        <time>2018-09-21T16:17:33.997Z</time>
      </trkpt>
      <trkpt lat="37.0940674" lon="-8.4666517">
        <ele>38.493</ele>
        <time>2018-09-21T16:17:41.317Z</time>
      </trkpt>
      <trkpt lat="37.0939145" lon="-8.4664223">
        <ele>38.491</ele>
        <time>2018-09-21T16:18:03.631Z</time>
      </trkpt>
      <trkpt lat="37.0938443" lon="-8.4663112">
        <ele>38.478</ele>
        <time>2018-09-21T16:18:07.766Z</time>
      </trkpt>
      <trkpt lat="37.0937879" lon="-8.4662007">
        <ele>37.859</ele>
        <time>2018-09-21T16:18:11.455Z</time>
      </trkpt>
      <trkpt lat="37.0937364" lon="-8.4661006">
        <ele>36.897</ele>
        <time>2018-09-21T16:18:15.011Z</time>
      </trkpt>
      <trkpt lat="37.0936947" lon="-8.4659918">
        <ele>36.079</ele>
        <time>2018-09-21T16:18:18.996Z</time>
      </trkpt>
      <trkpt lat="37.0936947" lon="-8.4659918">
        <ele>35.510</ele>
        <time>2018-09-21T16:18:29.995Z</time>
      </trkpt>
      <trkpt lat="37.0936947" lon="-8.4659918">
        <ele>35.243</ele>
        <time>2018-09-21T16:18:30.095Z</time>
      </trkpt>
      <trkpt lat="37.0935483" lon="-8.4660821">
        <ele>35.258</ele>
        <time>2018-09-21T16:21:05.155Z</time>
      </trkpt>
      <trkpt lat="37.0935369" lon="-8.4662074">
        <ele>34.759</ele>
        <time>2018-09-21T16:21:08.980Z</time>
      </trkpt>
      <trkpt lat="37.0935023" lon="-8.4663135">
        <ele>33.167</ele>
        <time>2018-09-21T16:21:12.460Z</time>
      </trkpt>
      <trkpt lat="37.0934704" lon="-8.4664228">
        <ele>31.257</ele>
        <time>2018-09-21T16:21:15.992Z</time>
      </trkpt>
      <trkpt lat="37.0934704" lon="-8.4664228">
        <ele>30.002</ele>
        <time>2018-09-21T16:21:33.991Z</time>
      </trkpt>
      <trkpt lat="37.0934704" lon="-8.4664228">
        <ele>29.528</ele>
        <time>2018-09-21T16:23:21.026Z</time>
      </trkpt>
      <trkpt lat="37.0933947" lon="-8.4666735">
        <ele>29.669</ele>
        <time>2018-09-21T16:23:47.349Z</time>
      </trkpt>
      <trkpt lat="37.0933714" lon="-8.4667876">
        <ele>30.009</ele>
        <time>2018-09-21T16:23:56.010Z</time>
      </trkpt>
      <trkpt lat="37.0934064" lon="-8.4668945">
        <ele>29.774</ele>
        <time>2018-09-21T16:24:03.947Z</time>
      </trkpt>
      <trkpt lat="37.0933964" lon="-8.4670097">
        <ele>28.611</ele>
        <time>2018-09-21T16:24:09.855Z</time>
      </trkpt>
      <trkpt lat="37.0934214" lon="-8.4671291">
        <ele>27.003</ele>
        <time>2018-09-21T16:24:14.163Z</time>
      </trkpt>
      <trkpt lat="37.0934724" lon="-8.4672227">
        <ele>25.474</ele>
        <time>2018-09-21T16:24:17.097Z</time>
      </trkpt>
      <trkpt lat="37.0935558" lon="-8.4672951">
        <ele>24.324</ele>
        <time>2018-09-21T16:24:19.990Z</time>
      </trkpt>
      <trkpt lat="37.0936421" lon="-8.4673671">
        <ele>23.836</ele>
        <time>2018-09-21T16:24:22.828Z</time>
      </trkpt>
      <trkpt lat="37.0937303" lon="-8.4674379">
        <ele>24.066</ele>
        <time>2018-09-21T16:24:25.669Z</time>
      </trkpt>
      <trkpt lat="37.0938119" lon="-8.4675092">
        <ele>24.819</ele>
        <time>2018-09-21T16:24:28.300Z</time>
      </trkpt>
      <trkpt lat="37.0939009" lon="-8.4675956">
        <ele>25.773</ele>
        <time>2018-09-21T16:24:31.265Z</time>
      </trkpt>
      <trkpt lat="37.0939586" lon="-8.4676949">
        <ele>26.601</ele>
        <time>2018-09-21T16:24:34.041Z</time>
      </trkpt>
      <trkpt lat="37.0940392" lon="-8.4677870">
        <ele>26.940</ele>
        <time>2018-09-21T16:24:37.497Z</time>
      </trkpt>
      <trkpt lat="37.0940153" lon="-8.4679053">
        <ele>26.707</ele>
        <time>2018-09-21T16:24:41.012Z</time>
      </trkpt>
      <trkpt lat="37.0939676" lon="-8.4680155">
        <ele>26.239</ele>
        <time>2018-09-21T16:24:44.434Z</time>
      </trkpt>
      <trkpt lat="37.0939253" lon="-8.4681397">
        <ele>25.842</ele>
        <time>2018-09-21T16:24:47.855Z</time>
      </trkpt>
      <trkpt lat="37.0939338" lon="-8.4682667">
        <ele>25.611</ele>
        <time>2018-09-21T16:24:51.389Z</time>
      </trkpt>
      <trkpt lat="37.0940135" lon="-8.4683312">
        <ele>25.397</ele>
        <time>2018-09-21T16:24:55.108Z</time>
      </trkpt>
      <trkpt lat="37.0940811" lon="-8.4684304">
        <ele>24.950</ele>
        <time>2018-09-21T16:24:59.095Z</time>
      </trkpt>
      <trkpt lat="37.0941369" lon="-8.4685440">
        <ele>24.465</ele>
        <time>2018-09-21T16:25:02.798Z</time>
      </trkpt>
      <trkpt lat="37.0942017" lon="-8.4686403">
        <ele>24.312</ele>
        <time>2018-09-21T16:25:05.907Z</time>
      </trkpt>
      <trkpt lat="37.0942600" lon="-8.4687713">
        <ele>24.560</ele>
        <time>2018-09-21T16:25:09.115Z</time>
      </trkpt>
      <trkpt lat="37.0943419" lon="-8.4689294">
        <ele>25.055</ele>
        <time>2018-09-21T16:25:12.851Z</time>
      </trkpt>
      <trkpt lat="37.0943770" lon="-8.4690409">
        <ele>25.548</ele>
        <time>2018-09-21T16:25:15.825Z</time>
      </trkpt>
      <trkpt lat="37.0943496" lon="-8.4691651">
        <ele>25.823</ele>
        <time>2018-09-21T16:25:19.896Z</time>
      </trkpt>
      <trkpt lat="37.0943271" lon="-8.4692815">
        <ele>25.866</ele>
        <time>2018-09-21T16:25:24.340Z</time>
      </trkpt>
      <trkpt lat="37.0943256" lon="-8.4693970">
        <ele>25.709</ele>
        <time>2018-09-21T16:25:29.032Z</time>
      </trkpt>
      <trkpt lat="37.0943881" lon="-8.4694886">
        <ele>25.377</ele>
        <time>2018-09-21T16:25:33.945Z</time>
      </trkpt>
      <trkpt lat="37.0944574" lon="-8.4695838">
        <ele>25.011</ele>
        <time>2018-09-21T16:25:38.976Z</time>
      </trkpt>
      <trkpt lat="37.0945270" lon="-8.4696667">
        <ele>25.116</ele>
        <time>2018-09-21T16:25:43.820Z</time>
      </trkpt>
      <trkpt lat="37.0946093" lon="-8.4697456">
        <ele>26.070</ele>
        <time>2018-09-21T16:25:48.996Z</time>
      </trkpt>
      <trkpt lat="37.0946093" lon="-8.4697456">
        <ele>27.378</ele>
        <time>2018-09-21T16:26:00.996Z</time>
      </trkpt>
      <trkpt lat="37.0946093" lon="-8.4697456">
        <ele>28.112</ele>
        <time>2018-09-21T16:26:01.474Z</time>
      </trkpt>
      <trkpt lat="37.0947936" lon="-8.4697518">
        <ele>28.046</ele>
        <time>2018-09-21T16:26:16.996Z</time>
      </trkpt>
      <trkpt lat="37.0947936" lon="-8.4697518">
        <ele>27.747</ele>
        <time>2018-09-21T16:26:28.995Z</time>
      </trkpt>
      <trkpt lat="37.0947936" lon="-8.4697518">
        <ele>27.711</ele>
        <time>2018-09-21T16:26:58.655Z</time>
      </trkpt>
      <trkpt lat="37.0949116" lon="-8.4699013">
        <ele>27.862</ele>
        <time>2018-09-21T16:27:09.539Z</time>
      </trkpt>
      <trkpt lat="37.0949491" lon="-8.4700236">
        <ele>28.222</ele>
        <time>2018-09-21T16:27:12.812Z</time>
      </trkpt>
      <trkpt lat="37.0949894" lon="-8.4701608">
        <ele>28.885</ele>
        <time>2018-09-21T16:27:16.042Z</time>
      </trkpt>
      <trkpt lat="37.0950185" lon="-8.4703023">
        <ele>29.264</ele>
        <time>2018-09-21T16:27:18.914Z</time>
      </trkpt>
      <trkpt lat="37.0950519" lon="-8.4704289">
        <ele>28.784</ele>
        <time>2018-09-21T16:27:21.489Z</time>
      </trkpt>
      <trkpt lat="37.0950725" lon="-8.4705569">
        <ele>27.866</ele>
        <time>2018-09-21T16:27:24.103Z</time>
      </trkpt>
      <trkpt lat="37.0950826" lon="-8.4707100">
        <ele>27.257</ele>
        <time>2018-09-21T16:27:27.136Z</time>
      </trkpt>
      <trkpt lat="37.0950767" lon="-8.4708668">
        <ele>27.157</ele>
        <time>2018-09-21T16:27:29.972Z</time>
      </trkpt>
      <trkpt lat="37.0951145" lon="-8.4710333">
        <ele>27.307</ele>
        <time>2018-09-21T16:27:32.920Z</time>
      </trkpt>
      <trkpt lat="37.0951877" lon="-8.4711005">
        <ele>27.429</ele>
        <time>2018-09-21T16:27:34.994Z</time>
      </trkpt>
      <trkpt lat="37.0951877" lon="-8.4711005">
        <ele>27.448</ele>
        <time>2018-09-21T16:27:38.994Z</time>
      </trkpt>
      <trkpt lat="37.0951877" lon="-8.4711005">
        <ele>27.421</ele>
        <time>2018-09-21T16:27:49.915Z</time>
      </trkpt>
      <trkpt lat="37.0953748" lon="-8.4711954">
        <ele>27.400</ele>
        <time>2018-09-21T16:28:14.635Z</time>
      </trkpt>
      <trkpt lat="37.0954587" lon="-8.4712429">
        <ele>26.884</ele>
        <time>2018-09-21T16:28:21.600Z</time>
      </trkpt>
      <trkpt lat="37.0955465" lon="-8.4712856">
        <ele>25.279</ele>
        <time>2018-09-21T16:28:28.889Z</time>
      </trkpt>
      <trkpt lat="37.0956375" lon="-8.4713232">
        <ele>22.642</ele>
        <time>2018-09-21T16:28:35.993Z</time>
      </trkpt>
      <trkpt lat="37.0956375" lon="-8.4713232">
        <ele>19.821</ele>
        <time>2018-09-21T16:28:54.993Z</time>
      </trkpt>
      <trkpt lat="37.0956375" lon="-8.4713232">
        <ele>18.189</ele>
        <time>2018-09-21T16:30:12.174Z</time>
      </trkpt>
      <trkpt lat="37.0958779" lon="-8.4713061">
        <ele>18.295</ele>
        <time>2018-09-21T16:30:39.288Z</time>
      </trkpt>
      <trkpt lat="37.0959538" lon="-8.4712391">
        <ele>18.733</ele>
        <time>2018-09-21T16:30:46.921Z</time>
      </trkpt>
      <trkpt lat="37.0960428" lon="-8.4711937">
        <ele>18.167</ele>
        <time>2018-09-21T16:30:54.999Z</time>
      </trkpt>
      <trkpt lat="37.0960428" lon="-8.4711937">
        <ele>17.108</ele>
        <time>2018-09-21T16:31:07.998Z</time>
      </trkpt>
      <trkpt lat="37.0960428" lon="-8.4711937">
        <ele>16.607</ele>
        <time>2018-09-21T16:31:46.888Z</time>
      </trkpt>
      <trkpt lat="37.0962468" lon="-8.4711337">
        <ele>16.702</ele>
        <time>2018-09-21T16:32:13.478Z</time>
      </trkpt>
      <trkpt lat="37.0963283" lon="-8.4710714">
        <ele>15.847</ele>
        <time>2018-09-21T16:32:21.340Z</time>
      </trkpt>
      <trkpt lat="37.0964308" lon="-8.4710551">
        <ele>12.966</ele>
        <time>2018-09-21T16:32:29.997Z</time>
      </trkpt>
      <trkpt lat="37.0964308" lon="-8.4710551">
        <ele>9.787</ele>
        <time>2018-09-21T16:32:46.996Z</time>
      </trkpt>
      <trkpt lat="37.0964308" lon="-8.4710551">
        <ele>8.462</ele>
        <time>2018-09-21T16:33:12.675Z</time>
      </trkpt>
      <trkpt lat="37.0966778" lon="-8.4710465">
        <ele>8.708</ele>
        <time>2018-09-21T16:33:33.469Z</time>
      </trkpt>
      <trkpt lat="37.0967890" lon="-8.4710246">
        <ele>8.746</ele>
        <time>2018-09-21T16:33:37.613Z</time>
      </trkpt>
      <trkpt lat="37.0968791" lon="-8.4710769">
        <ele>7.575</ele>
        <time>2018-09-21T16:33:40.995Z</time>
      </trkpt>
      <trkpt lat="37.0968791" lon="-8.4710769">
        <ele>6.069</ele>
        <time>2018-09-21T16:34:00.995Z</time>
      </trkpt>
      <trkpt lat="37.0970849" lon="-8.4711483">
        <ele>5.704</ele>
        <time>2018-09-21T18:06:14.012Z</time>
      </trkpt>
      <trkpt lat="37.0970849" lon="-8.4711483">
        <ele>5.702</ele>
        <time>2018-09-21T18:06:14.112Z</time>
      </trkpt>
      <trkpt lat="37.0969467" lon="-8.4713010">
        <ele>5.701</ele>
        <time>2018-09-21T18:06:40.327Z</time>
      </trkpt>
      <trkpt lat="37.0969295" lon="-8.4714130">
        <ele>5.501</ele>
        <time>2018-09-21T18:06:49.893Z</time>
      </trkpt>
      <trkpt lat="37.0968556" lon="-8.4714981">
        <ele>4.826</ele>
        <time>2018-09-21T18:07:00.643Z</time>
      </trkpt>
      <trkpt lat="37.0967750" lon="-8.4715686">
        <ele>3.673</ele>
        <time>2018-09-21T18:07:10.702Z</time>
      </trkpt>
      <trkpt lat="37.0966966" lon="-8.4716291">
        <ele>2.447</ele>
        <time>2018-09-21T18:07:20.043Z</time>
      </trkpt>
      <trkpt lat="37.0966419" lon="-8.4717227">
        <ele>1.741</ele>
        <time>2018-09-21T18:07:29.356Z</time>
      </trkpt>
      <trkpt lat="37.0966162" lon="-8.4718467">
        <ele>1.999</ele>
        <time>2018-09-21T18:07:39.235Z</time>
      </trkpt>
      <trkpt lat="37.0965483" lon="-8.4719441">
        <ele>3.089</ele>
        <time>2018-09-21T18:07:48.606Z</time>
      </trkpt>
      <trkpt lat="37.0965259" lon="-8.4720577">
        <ele>4.359</ele>
        <time>2018-09-21T18:07:56.401Z</time>
      </trkpt>
      <trkpt lat="37.0965188" lon="-8.4721794">
        <ele>5.203</ele>
        <time>2018-09-21T18:08:04.684Z</time>
      </trkpt>
      <trkpt lat="37.0965067" lon="-8.4723026">
        <ele>5.612</ele>
        <time>2018-09-21T18:08:13.279Z</time>
      </trkpt>
      <trkpt lat="37.0965048" lon="-8.4724173">
        <ele>5.912</ele>
        <time>2018-09-21T18:08:21.357Z</time>
      </trkpt>
      <trkpt lat="37.0964685" lon="-8.4725249">
        <ele>6.248</ele>
        <time>2018-09-21T18:08:30.108Z</time>
      </trkpt>
      <trkpt lat="37.0964535" lon="-8.4726507">
        <ele>6.582</ele>
        <time>2018-09-21T18:08:38.947Z</time>
      </trkpt>
      <trkpt lat="37.0964104" lon="-8.4727573">
        <ele>6.930</ele>
        <time>2018-09-21T18:08:46.323Z</time>
      </trkpt>
      <trkpt lat="37.0963772" lon="-8.4728649">
        <ele>7.327</ele>
        <time>2018-09-21T18:08:53.992Z</time>
      </trkpt>
      <trkpt lat="37.0963470" lon="-8.4729760">
        <ele>7.859</ele>
        <time>2018-09-21T18:09:01.543Z</time>
      </trkpt>
      <trkpt lat="37.0963113" lon="-8.4730836">
        <ele>8.578</ele>
        <time>2018-09-21T18:09:08.631Z</time>
      </trkpt>
      <trkpt lat="37.0962500" lon="-8.4731874">
        <ele>9.472</ele>
        <time>2018-09-21T18:09:16.639Z</time>
      </trkpt>
      <trkpt lat="37.0961997" lon="-8.4732836">
        <ele>10.423</ele>
        <time>2018-09-21T18:09:23.952Z</time>
      </trkpt>
      <trkpt lat="37.0961457" lon="-8.4733872">
        <ele>11.253</ele>
        <time>2018-09-21T18:09:32.521Z</time>
      </trkpt>
      <trkpt lat="37.0961005" lon="-8.4734854">
        <ele>12.022</ele>
        <time>2018-09-21T18:09:41.035Z</time>
      </trkpt>
      <trkpt lat="37.0960534" lon="-8.4735850">
        <ele>12.962</ele>
        <time>2018-09-21T18:09:49.872Z</time>
      </trkpt>
      <trkpt lat="37.0960054" lon="-8.4736812">
        <ele>14.043</ele>
        <time>2018-09-21T18:09:58.354Z</time>
      </trkpt>
      <trkpt lat="37.0960671" lon="-8.4737803">
        <ele>15.428</ele>
        <time>2018-09-21T18:10:07.993Z</time>
      </trkpt>
      <trkpt lat="37.0960671" lon="-8.4737803">
        <ele>17.135</ele>
        <time>2018-09-21T18:10:25.993Z</time>
      </trkpt>
      <trkpt lat="37.0960671" lon="-8.4737803">
        <ele>18.257</ele>
        <time>2018-09-21T18:15:59.905Z</time>
      </trkpt>
      <trkpt lat="37.0961731" lon="-8.4740215">
        <ele>18.195</ele>
        <time>2018-09-21T18:16:15.765Z</time>
      </trkpt>
      <trkpt lat="37.0962463" lon="-8.4740993">
        <ele>19.163</ele>
        <time>2018-09-21T18:16:20.864Z</time>
      </trkpt>
      <trkpt lat="37.0962935" lon="-8.4741969">
        <ele>22.801</ele>
        <time>2018-09-21T18:16:25.996Z</time>
      </trkpt>
      <trkpt lat="37.0962935" lon="-8.4741969">
        <ele>26.822</ele>
        <time>2018-09-21T18:16:36.996Z</time>
      </trkpt>
      <trkpt lat="37.0962935" lon="-8.4741969">
        <ele>28.586</ele>
        <time>2018-09-21T18:17:38.908Z</time>
      </trkpt>
      <trkpt lat="37.0964516" lon="-8.4743282">
        <ele>28.355</ele>
        <time>2018-09-21T18:17:57.991Z</time>
      </trkpt>
      <trkpt lat="37.0965505" lon="-8.4744144">
        <ele>28.124</ele>
        <time>2018-09-21T18:18:02.209Z</time>
      </trkpt>
      <trkpt lat="37.0966356" lon="-8.4744982">
        <ele>29.359</ele>
        <time>2018-09-21T18:18:05.079Z</time>
      </trkpt>
      <trkpt lat="37.0967255" lon="-8.4745543">
        <ele>31.219</ele>
        <time>2018-09-21T18:18:07.602Z</time>
      </trkpt>
      <trkpt lat="37.0968207" lon="-8.4745845">
        <ele>32.420</ele>
        <time>2018-09-21T18:18:10.302Z</time>
      </trkpt>
      <trkpt lat="37.0969226" lon="-8.4745919">
        <ele>32.943</ele>
        <time>2018-09-21T18:18:13.354Z</time>
      </trkpt>
      <trkpt lat="37.0970188" lon="-8.4746177">
        <ele>33.296</ele>
        <time>2018-09-21T18:18:16.635Z</time>
      </trkpt>
      <trkpt lat="37.0971099" lon="-8.4746488">
        <ele>33.735</ele>
        <time>2018-09-21T18:18:19.993Z</time>
      </trkpt>
      <trkpt lat="37.0971099" lon="-8.4746488">
        <ele>34.053</ele>
        <time>2018-09-21T18:18:33.993Z</time>
      </trkpt>
      <trkpt lat="37.0971099" lon="-8.4746488">
        <ele>34.067</ele>
        <time>2018-09-21T18:18:34.093Z</time>
      </trkpt>
      <trkpt lat="37.0973089" lon="-8.4747701">
        <ele>33.962</ele>
        <time>2018-09-21T18:18:47.068Z</time>
      </trkpt>
      <trkpt lat="37.0974000" lon="-8.4747911">
        <ele>34.269</ele>
        <time>2018-09-21T18:18:49.999Z</time>
      </trkpt>
      <trkpt lat="37.0975054" lon="-8.4748037">
        <ele>35.296</ele>
        <time>2018-09-21T18:18:53.091Z</time>
      </trkpt>
      <trkpt lat="37.0976131" lon="-8.4748191">
        <ele>36.613</ele>
        <time>2018-09-21T18:18:56.069Z</time>
      </trkpt>
      <trkpt lat="37.0977218" lon="-8.4748369">
        <ele>37.579</ele>
        <time>2018-09-21T18:18:58.949Z</time>
      </trkpt>
      <trkpt lat="37.0978373" lon="-8.4748448">
        <ele>38.064</ele>
        <time>2018-09-21T18:19:01.909Z</time>
      </trkpt>
      <trkpt lat="37.0979499" lon="-8.4748540">
        <ele>38.325</ele>
        <time>2018-09-21T18:19:04.757Z</time>
      </trkpt>
      <trkpt lat="37.0980585" lon="-8.4748990">
        <ele>38.649</ele>
        <time>2018-09-21T18:19:07.679Z</time>
      </trkpt>
      <trkpt lat="37.0981638" lon="-8.4749372">
        <ele>39.039</ele>
        <time>2018-09-21T18:19:10.576Z</time>
      </trkpt>
      <trkpt lat="37.0982785" lon="-8.4749721">
        <ele>39.355</ele>
        <time>2018-09-21T18:19:13.923Z</time>
      </trkpt>
      <trkpt lat="37.0983806" lon="-8.4749898">
        <ele>39.563</ele>
        <time>2018-09-21T18:19:17.195Z</time>
      </trkpt>
      <trkpt lat="37.0984894" lon="-8.4749678">
        <ele>39.690</ele>
        <time>2018-09-21T18:19:21.245Z</time>
      </trkpt>
      <trkpt lat="37.0985669" lon="-8.4748840">
        <ele>39.755</ele>
        <time>2018-09-21T18:19:25.611Z</time>
      </trkpt>
      <trkpt lat="37.0986339" lon="-8.4747794">
        <ele>39.874</ele>
        <time>2018-09-21T18:19:30.121Z</time>
      </trkpt>
      <trkpt lat="37.0986960" lon="-8.4746903">
        <ele>40.111</ele>
        <time>2018-09-21T18:19:34.040Z</time>
      </trkpt>
      <trkpt lat="37.0987794" lon="-8.4746405">
        <ele>40.339</ele>
        <time>2018-09-21T18:19:37.624Z</time>
      </trkpt>
      <trkpt lat="37.0988837" lon="-8.4746114">
        <ele>40.419</ele>
        <time>2018-09-21T18:19:41.346Z</time>
      </trkpt>
      <trkpt lat="37.0989718" lon="-8.4746372">
        <ele>40.355</ele>
        <time>2018-09-21T18:19:44.238Z</time>
      </trkpt>
      <trkpt lat="37.0990618" lon="-8.4746916">
        <ele>40.392</ele>
        <time>2018-09-21T18:19:47.239Z</time>
      </trkpt>
      <trkpt lat="37.0991559" lon="-8.4747494">
        <ele>40.870</ele>
        <time>2018-09-21T18:19:50.334Z</time>
      </trkpt>
      <trkpt lat="37.0992459" lon="-8.4747984">
        <ele>41.793</ele>
        <time>2018-09-21T18:19:53.246Z</time>
      </trkpt>
      <trkpt lat="37.0993332" lon="-8.4748492">
        <ele>42.744</ele>
        <time>2018-09-21T18:19:56.336Z</time>
      </trkpt>
      <trkpt lat="37.0994183" lon="-8.4749120">
        <ele>43.337</ele>
        <time>2018-09-21T18:19:59.776Z</time>
      </trkpt>
      <trkpt lat="37.0994979" lon="-8.4750164">
        <ele>43.692</ele>
        <time>2018-09-21T18:20:03.736Z</time>
      </trkpt>
      <trkpt lat="37.0995397" lon="-8.4751237">
        <ele>44.092</ele>
        <time>2018-09-21T18:20:06.782Z</time>
      </trkpt>
      <trkpt lat="37.0995618" lon="-8.4752376">
        <ele>44.457</ele>
        <time>2018-09-21T18:20:09.767Z</time>
      </trkpt>
      <trkpt lat="37.0995719" lon="-8.4753832">
        <ele>44.589</ele>
        <time>2018-09-21T18:20:13.646Z</time>
      </trkpt>
      <trkpt lat="37.0995721" lon="-8.4755142">
        <ele>44.520</ele>
        <time>2018-09-21T18:20:17.336Z</time>
      </trkpt>
      <trkpt lat="37.0995637" lon="-8.4756305">
        <ele>44.395</ele>
        <time>2018-09-21T18:20:20.818Z</time>
      </trkpt>
      <trkpt lat="37.0995485" lon="-8.4757655">
        <ele>44.200</ele>
        <time>2018-09-21T18:20:24.952Z</time>
      </trkpt>
      <trkpt lat="37.0995488" lon="-8.4759132">
        <ele>43.748</ele>
        <time>2018-09-21T18:20:29.040Z</time>
      </trkpt>
      <trkpt lat="37.0995475" lon="-8.4760433">
        <ele>42.883</ele>
        <time>2018-09-21T18:20:32.182Z</time>
      </trkpt>
      <trkpt lat="37.0995586" lon="-8.4761776">
        <ele>41.599</ele>
        <time>2018-09-21T18:20:35.254Z</time>
      </trkpt>
      <trkpt lat="37.0995988" lon="-8.4763059">
        <ele>40.046</ele>
        <time>2018-09-21T18:20:38.229Z</time>
      </trkpt>
      <trkpt lat="37.0996554" lon="-8.4764257">
        <ele>38.615</ele>
        <time>2018-09-21T18:20:41.038Z</time>
      </trkpt>
      <trkpt lat="37.0997219" lon="-8.4765603">
        <ele>37.674</ele>
        <time>2018-09-21T18:20:44.102Z</time>
      </trkpt>
      <trkpt lat="37.0997688" lon="-8.4766825">
        <ele>37.228</ele>
        <time>2018-09-21T18:20:46.931Z</time>
      </trkpt>
      <trkpt lat="37.0997929" lon="-8.4768233">
        <ele>36.916</ele>
        <time>2018-09-21T18:20:50.430Z</time>
      </trkpt>
      <trkpt lat="37.0998411" lon="-8.4769307">
        <ele>36.356</ele>
        <time>2018-09-21T18:20:53.990Z</time>
      </trkpt>
      <trkpt lat="37.0998411" lon="-8.4769307">
        <ele>35.574</ele>
        <time>2018-09-21T18:20:59.990Z</time>
      </trkpt>
      <trkpt lat="37.0998411" lon="-8.4769307">
        <ele>35.073</ele>
        <time>2018-09-21T18:31:22.996Z</time>
      </trkpt>
      <trkpt lat="37.1000151" lon="-8.4769871">
        <ele>33.543</ele>
        <time>2018-09-21T18:32:37.698Z</time>
      </trkpt>
      <trkpt lat="37.1000511" lon="-8.4776118">
        <ele>33.527</ele>
        <time>2018-09-21T18:35:44.781Z</time>
      </trkpt>
      <trkpt lat="37.1001492" lon="-8.4776924">
        <ele>33.259</ele>
        <time>2018-09-21T18:36:28.684Z</time>
      </trkpt>
      <trkpt lat="37.1002843" lon="-8.4777612">
        <ele>32.416</ele>
        <time>2018-09-21T18:37:23.285Z</time>
      </trkpt>
      <trkpt lat="37.1004871" lon="-8.4778119">
        <ele>31.302</ele>
        <time>2018-09-21T18:38:40.728Z</time>
      </trkpt>
      <trkpt lat="37.1007130" lon="-8.4779322">
        <ele>30.522</ele>
        <time>2018-09-21T18:40:12.605Z</time>
      </trkpt>
      <trkpt lat="37.1009310" lon="-8.4780511">
        <ele>29.864</ele>
        <time>2018-09-21T18:41:41.621Z</time>
      </trkpt>
      <trkpt lat="37.1010425" lon="-8.4781315">
        <ele>28.777</ele>
        <time>2018-09-21T18:42:29.433Z</time>
      </trkpt>
      <trkpt lat="37.1011515" lon="-8.4781987">
        <ele>27.492</ele>
        <time>2018-09-21T18:42:48.993Z</time>
      </trkpt>
      <trkpt lat="37.1011515" lon="-8.4781987">
        <ele>26.624</ele>
        <time>2018-09-21T18:42:53.995Z</time>
      </trkpt>
      <trkpt lat="37.1011515" lon="-8.4781987">
        <ele>26.318</ele>
        <time>2018-09-21T18:43:08.371Z</time>
      </trkpt>
      <trkpt lat="37.1013220" lon="-8.4783238">
        <ele>26.363</ele>
        <time>2018-09-21T18:43:20.655Z</time>
      </trkpt>
      <trkpt lat="37.1014124" lon="-8.4783771">
        <ele>25.990</ele>
        <time>2018-09-21T18:43:24.758Z</time>
      </trkpt>
      <trkpt lat="37.1015177" lon="-8.4784203">
        <ele>24.755</ele>
        <time>2018-09-21T18:43:29.409Z</time>
      </trkpt>
      <trkpt lat="37.1016019" lon="-8.4784619">
        <ele>23.564</ele>
        <time>2018-09-21T18:43:33.114Z</time>
      </trkpt>
      <trkpt lat="37.1016867" lon="-8.4785110">
        <ele>23.558</ele>
        <time>2018-09-21T18:43:36.742Z</time>
      </trkpt>
      <trkpt lat="37.1017744" lon="-8.4785898">
        <ele>24.546</ele>
        <time>2018-09-21T18:43:40.693Z</time>
      </trkpt>
      <trkpt lat="37.1018594" lon="-8.4786733">
        <ele>25.671</ele>
        <time>2018-09-21T18:43:44.520Z</time>
      </trkpt>
      <trkpt lat="37.1019492" lon="-8.4787465">
        <ele>26.440</ele>
        <time>2018-09-21T18:43:48.205Z</time>
      </trkpt>
      <trkpt lat="37.1020426" lon="-8.4788375">
        <ele>26.904</ele>
        <time>2018-09-21T18:43:52.208Z</time>
      </trkpt>
      <trkpt lat="37.1021164" lon="-8.4789331">
        <ele>27.270</ele>
        <time>2018-09-21T18:43:56.071Z</time>
      </trkpt>
      <trkpt lat="37.1022021" lon="-8.4789987">
        <ele>27.682</ele>
        <time>2018-09-21T18:44:00.102Z</time>
      </trkpt>
      <trkpt lat="37.1022942" lon="-8.4790786">
        <ele>28.058</ele>
        <time>2018-09-21T18:44:04.967Z</time>
      </trkpt>
      <trkpt lat="37.1023614" lon="-8.4791672">
        <ele>28.617</ele>
        <time>2018-09-21T18:44:09.326Z</time>
      </trkpt>
      <trkpt lat="37.1024302" lon="-8.4792487">
        <ele>29.639</ele>
        <time>2018-09-21T18:44:13.903Z</time>
      </trkpt>
      <trkpt lat="37.1025071" lon="-8.4793351">
        <ele>30.791</ele>
        <time>2018-09-21T18:44:18.783Z</time>
      </trkpt>
      <trkpt lat="37.1025899" lon="-8.4794234">
        <ele>31.585</ele>
        <time>2018-09-21T18:44:23.548Z</time>
      </trkpt>
      <trkpt lat="37.1026747" lon="-8.4794839">
        <ele>32.091</ele>
        <time>2018-09-21T18:44:27.927Z</time>
      </trkpt>
      <trkpt lat="37.1027648" lon="-8.4795015">
        <ele>32.598</ele>
        <time>2018-09-21T18:44:31.998Z</time>
      </trkpt>
      <trkpt lat="37.1027648" lon="-8.4795015">
        <ele>33.134</ele>
        <time>2018-09-21T18:44:36.998Z</time>
      </trkpt>
      <trkpt lat="37.1027648" lon="-8.4795015">
        <ele>33.432</ele>
        <time>2018-09-21T18:44:41.949Z</time>
      </trkpt>
      <trkpt lat="37.1029927" lon="-8.4795513">
        <ele>33.395</ele>
        <time>2018-09-21T18:45:02.324Z</time>
      </trkpt>
      <trkpt lat="37.1030927" lon="-8.4795554">
        <ele>33.651</ele>
        <time>2018-09-21T18:45:08.518Z</time>
      </trkpt>
      <trkpt lat="37.1031963" lon="-8.4795468">
        <ele>34.757</ele>
        <time>2018-09-21T18:45:15.104Z</time>
      </trkpt>
      <trkpt lat="37.1032980" lon="-8.4795341">
        <ele>36.366</ele>
        <time>2018-09-21T18:45:21.813Z</time>
      </trkpt>
      <trkpt lat="37.1034028" lon="-8.4795372">
        <ele>38.216</ele>
        <time>2018-09-21T18:45:28.247Z</time>
      </trkpt>
      <trkpt lat="37.1035081" lon="-8.4795379">
        <ele>40.255</ele>
        <time>2018-09-21T18:45:33.845Z</time>
      </trkpt>
      <trkpt lat="37.1036163" lon="-8.4795392">
        <ele>42.012</ele>
        <time>2018-09-21T18:45:39.999Z</time>
      </trkpt>
      <trkpt lat="37.1037124" lon="-8.4795305">
        <ele>43.267</ele>
        <time>2018-09-21T18:45:46.089Z</time>
      </trkpt>
      <trkpt lat="37.1038166" lon="-8.4795318">
        <ele>44.243</ele>
        <time>2018-09-21T18:45:54.592Z</time>
      </trkpt>
      <trkpt lat="37.1039099" lon="-8.4795306">
        <ele>45.155</ele>
        <time>2018-09-21T18:46:02.116Z</time>
      </trkpt>
      <trkpt lat="37.1039713" lon="-8.4794371">
        <ele>46.045</ele>
        <time>2018-09-21T18:46:09.607Z</time>
      </trkpt>
      <trkpt lat="37.1040797" lon="-8.4793947">
        <ele>46.986</ele>
        <time>2018-09-21T18:46:17.723Z</time>
      </trkpt>
      <trkpt lat="37.1041683" lon="-8.4793590">
        <ele>48.036</ele>
        <time>2018-09-21T18:46:22.476Z</time>
      </trkpt>
      <trkpt lat="37.1042566" lon="-8.4793219">
        <ele>48.916</ele>
        <time>2018-09-21T18:46:26.204Z</time>
      </trkpt>
      <trkpt lat="37.1043731" lon="-8.4792852">
        <ele>49.434</ele>
        <time>2018-09-21T18:46:30.534Z</time>
      </trkpt>
      <trkpt lat="37.1044703" lon="-8.4792820">
        <ele>49.745</ele>
        <time>2018-09-21T18:46:33.969Z</time>
      </trkpt>
      <trkpt lat="37.1045851" lon="-8.4792866">
        <ele>49.924</ele>
        <time>2018-09-21T18:46:38.065Z</time>
      </trkpt>
      <trkpt lat="37.1046918" lon="-8.4793101">
        <ele>50.029</ele>
        <time>2018-09-21T18:46:42.027Z</time>
      </trkpt>
      <trkpt lat="37.1047986" lon="-8.4793348">
        <ele>50.161</ele>
        <time>2018-09-21T18:46:46.138Z</time>
      </trkpt>
      <trkpt lat="37.1048945" lon="-8.4793354">
        <ele>50.371</ele>
        <time>2018-09-21T18:46:50.091Z</time>
      </trkpt>
      <trkpt lat="37.1049937" lon="-8.4793578">
        <ele>50.645</ele>
        <time>2018-09-21T18:46:54.815Z</time>
      </trkpt>
      <trkpt lat="37.1050991" lon="-8.4793394">
        <ele>50.924</ele>
        <time>2018-09-21T18:46:59.659Z</time>
      </trkpt>
      <trkpt lat="37.1052095" lon="-8.4793520">
        <ele>51.149</ele>
        <time>2018-09-21T18:47:04.180Z</time>
      </trkpt>
      <trkpt lat="37.1053258" lon="-8.4793669">
        <ele>51.349</ele>
        <time>2018-09-21T18:47:08.510Z</time>
      </trkpt>
      <trkpt lat="37.1054191" lon="-8.4793752">
        <ele>51.569</ele>
        <time>2018-09-21T18:47:11.748Z</time>
      </trkpt>
      <trkpt lat="37.1055341" lon="-8.4793878">
        <ele>51.830</ele>
        <time>2018-09-21T18:47:15.753Z</time>
      </trkpt>
      <trkpt lat="37.1056418" lon="-8.4794044">
        <ele>52.176</ele>
        <time>2018-09-21T18:47:19.830Z</time>
      </trkpt>
      <trkpt lat="37.1057516" lon="-8.4794084">
        <ele>52.670</ele>
        <time>2018-09-21T18:47:24.507Z</time>
      </trkpt>
      <trkpt lat="37.1058455" lon="-8.4794108">
        <ele>53.654</ele>
        <time>2018-09-21T18:47:28.947Z</time>
      </trkpt>
      <trkpt lat="37.1059536" lon="-8.4794259">
        <ele>55.179</ele>
        <time>2018-09-21T18:47:34.286Z</time>
      </trkpt>
      <trkpt lat="37.1060443" lon="-8.4794466">
        <ele>56.642</ele>
        <time>2018-09-21T18:47:39.615Z</time>
      </trkpt>
      <trkpt lat="37.1061378" lon="-8.4794722">
        <ele>57.703</ele>
        <time>2018-09-21T18:47:45.994Z</time>
      </trkpt>
      <trkpt lat="37.1061378" lon="-8.4794722">
        <ele>58.439</ele>
        <time>2018-09-21T18:47:53.994Z</time>
      </trkpt>
      <trkpt lat="37.1061378" lon="-8.4794722">
        <ele>58.752</ele>
        <time>2018-09-21T18:48:00.196Z</time>
      </trkpt>
      <trkpt lat="37.1063134" lon="-8.4793727">
        <ele>58.688</ele>
        <time>2018-09-21T18:48:16.163Z</time>
      </trkpt>
      <trkpt lat="37.1063841" lon="-8.4793026">
        <ele>58.717</ele>
        <time>2018-09-21T18:48:20.889Z</time>
      </trkpt>
      <trkpt lat="37.1064587" lon="-8.4792365">
        <ele>59.276</ele>
        <time>2018-09-21T18:48:25.177Z</time>
      </trkpt>
      <trkpt lat="37.1065557" lon="-8.4791627">
        <ele>60.121</ele>
        <time>2018-09-21T18:48:29.866Z</time>
      </trkpt>
      <trkpt lat="37.1066475" lon="-8.4790892">
        <ele>60.803</ele>
        <time>2018-09-21T18:48:33.978Z</time>
      </trkpt>
      <trkpt lat="37.1067499" lon="-8.4790317">
        <ele>61.386</ele>
        <time>2018-09-21T18:48:38.112Z</time>
      </trkpt>
      <trkpt lat="37.1068517" lon="-8.4789551">
        <ele>62.023</ele>
        <time>2018-09-21T18:48:42.338Z</time>
      </trkpt>
      <trkpt lat="37.1069466" lon="-8.4788923">
        <ele>62.546</ele>
        <time>2018-09-21T18:48:46.162Z</time>
      </trkpt>
      <trkpt lat="37.1070419" lon="-8.4788147">
        <ele>62.725</ele>
        <time>2018-09-21T18:48:50.350Z</time>
      </trkpt>
      <trkpt lat="37.1071333" lon="-8.4787552">
        <ele>62.589</ele>
        <time>2018-09-21T18:48:54.237Z</time>
      </trkpt>
      <trkpt lat="37.1072165" lon="-8.4787041">
        <ele>62.611</ele>
        <time>2018-09-21T18:48:57.814Z</time>
      </trkpt>
      <trkpt lat="37.1073003" lon="-8.4786542">
        <ele>63.191</ele>
        <time>2018-09-21T18:49:01.333Z</time>
      </trkpt>
      <trkpt lat="37.1073889" lon="-8.4785961">
        <ele>64.172</ele>
        <time>2018-09-21T18:49:05.222Z</time>
      </trkpt>
      <trkpt lat="37.1074956" lon="-8.4785621">
        <ele>65.172</ele>
        <time>2018-09-21T18:49:09.629Z</time>
      </trkpt>
      <trkpt lat="37.1076025" lon="-8.4785826">
        <ele>65.844</ele>
        <time>2018-09-21T18:49:13.888Z</time>
      </trkpt>
      <trkpt lat="37.1076981" lon="-8.4786411">
        <ele>66.037</ele>
        <time>2018-09-21T18:49:17.981Z</time>
      </trkpt>
      <trkpt lat="37.1077954" lon="-8.4786849">
        <ele>65.957</ele>
        <time>2018-09-21T18:49:21.938Z</time>
      </trkpt>
      <trkpt lat="37.1078940" lon="-8.4787416">
        <ele>65.859</ele>
        <time>2018-09-21T18:49:26.011Z</time>
      </trkpt>
      <trkpt lat="37.1079992" lon="-8.4787884">
        <ele>65.913</ele>
        <time>2018-09-21T18:49:30.105Z</time>
      </trkpt>
      <trkpt lat="37.1081017" lon="-8.4788303">
        <ele>66.241</ele>
        <time>2018-09-21T18:49:34.040Z</time>
      </trkpt>
      <trkpt lat="37.1082058" lon="-8.4788781">
        <ele>66.767</ele>
        <time>2018-09-21T18:49:38.064Z</time>
      </trkpt>
      <trkpt lat="37.1083071" lon="-8.4789252">
        <ele>67.225</ele>
        <time>2018-09-21T18:49:41.883Z</time>
      </trkpt>
      <trkpt lat="37.1084160" lon="-8.4789689">
        <ele>67.464</ele>
        <time>2018-09-21T18:49:45.847Z</time>
      </trkpt>
      <trkpt lat="37.1085179" lon="-8.4790136">
        <ele>67.589</ele>
        <time>2018-09-21T18:49:49.720Z</time>
      </trkpt>
      <trkpt lat="37.1086195" lon="-8.4790265">
        <ele>67.748</ele>
        <time>2018-09-21T18:49:53.602Z</time>
      </trkpt>
      <trkpt lat="37.1087191" lon="-8.4789986">
        <ele>67.996</ele>
        <time>2018-09-21T18:49:57.435Z</time>
      </trkpt>
      <trkpt lat="37.1088037" lon="-8.4789480">
        <ele>68.320</ele>
        <time>2018-09-21T18:50:00.518Z</time>
      </trkpt>
      <trkpt lat="37.1088936" lon="-8.4788795">
        <ele>68.631</ele>
        <time>2018-09-21T18:50:03.633Z</time>
      </trkpt>
      <trkpt lat="37.1089922" lon="-8.4788171">
        <ele>68.820</ele>
        <time>2018-09-21T18:50:06.720Z</time>
      </trkpt>
      <trkpt lat="37.1090974" lon="-8.4787639">
        <ele>68.907</ele>
        <time>2018-09-21T18:50:09.875Z</time>
      </trkpt>
      <trkpt lat="37.1092020" lon="-8.4787388">
        <ele>69.008</ele>
        <time>2018-09-21T18:50:13.049Z</time>
      </trkpt>
      <trkpt lat="37.1092926" lon="-8.4787836">
        <ele>69.155</ele>
        <time>2018-09-21T18:50:16.082Z</time>
      </trkpt>
      <trkpt lat="37.1093742" lon="-8.4788751">
        <ele>69.301</ele>
        <time>2018-09-21T18:50:19.480Z</time>
      </trkpt>
      <trkpt lat="37.1094483" lon="-8.4789539">
        <ele>69.427</ele>
        <time>2018-09-21T18:50:22.491Z</time>
      </trkpt>
      <trkpt lat="37.1095321" lon="-8.4790210">
        <ele>69.577</ele>
        <time>2018-09-21T18:50:25.672Z</time>
      </trkpt>
      <trkpt lat="37.1096109" lon="-8.4790783">
        <ele>69.855</ele>
        <time>2018-09-21T18:50:28.839Z</time>
      </trkpt>
      <trkpt lat="37.1096909" lon="-8.4791400">
        <ele>70.273</ele>
        <time>2018-09-21T18:50:33.165Z</time>
      </trkpt>
      <trkpt lat="37.1096877" lon="-8.4792596">
        <ele>70.754</ele>
        <time>2018-09-21T18:50:37.662Z</time>
      </trkpt>
      <trkpt lat="37.1096367" lon="-8.4793572">
        <ele>71.256</ele>
        <time>2018-09-21T18:50:42.019Z</time>
      </trkpt>
      <trkpt lat="37.1095856" lon="-8.4794774">
        <ele>71.771</ele>
        <time>2018-09-21T18:50:46.160Z</time>
      </trkpt>
      <trkpt lat="37.1096095" lon="-8.4796195">
        <ele>72.276</ele>
        <time>2018-09-21T18:50:50.234Z</time>
      </trkpt>
      <trkpt lat="37.1096622" lon="-8.4797332">
        <ele>72.705</ele>
        <time>2018-09-21T18:50:54.036Z</time>
      </trkpt>
      <trkpt lat="37.1097482" lon="-8.4798150">
        <ele>73.060</ele>
        <time>2018-09-21T18:50:58.184Z</time>
      </trkpt>
      <trkpt lat="37.1098439" lon="-8.4798886">
        <ele>73.475</ele>
        <time>2018-09-21T18:51:02.390Z</time>
      </trkpt>
      <trkpt lat="37.1099377" lon="-8.4799578">
        <ele>73.980</ele>
        <time>2018-09-21T18:51:06.318Z</time>
      </trkpt>
      <trkpt lat="37.1100359" lon="-8.4800355">
        <ele>74.560</ele>
        <time>2018-09-21T18:51:10.403Z</time>
      </trkpt>
      <trkpt lat="37.1101302" lon="-8.4801193">
        <ele>75.218</ele>
        <time>2018-09-21T18:51:14.411Z</time>
      </trkpt>
      <trkpt lat="37.1102169" lon="-8.4802144">
        <ele>75.872</ele>
        <time>2018-09-21T18:51:18.392Z</time>
      </trkpt>
      <trkpt lat="37.1102982" lon="-8.4803234">
        <ele>76.660</ele>
        <time>2018-09-21T18:51:22.430Z</time>
      </trkpt>
      <trkpt lat="37.1103630" lon="-8.4804068">
        <ele>77.673</ele>
        <time>2018-09-21T18:51:25.451Z</time>
      </trkpt>
      <trkpt lat="37.1104361" lon="-8.4804823">
        <ele>78.524</ele>
        <time>2018-09-21T18:51:28.515Z</time>
      </trkpt>
      <trkpt lat="37.1105225" lon="-8.4805794">
        <ele>78.873</ele>
        <time>2018-09-21T18:51:32.378Z</time>
      </trkpt>
      <trkpt lat="37.1106017" lon="-8.4806782">
        <ele>78.851</ele>
        <time>2018-09-21T18:51:36.236Z</time>
      </trkpt>
      <trkpt lat="37.1106627" lon="-8.4807628">
        <ele>78.724</ele>
        <time>2018-09-21T18:51:39.361Z</time>
      </trkpt>
      <trkpt lat="37.1107280" lon="-8.4808467">
        <ele>78.663</ele>
        <time>2018-09-21T18:51:42.406Z</time>
      </trkpt>
      <trkpt lat="37.1107968" lon="-8.4809359">
        <ele>78.684</ele>
        <time>2018-09-21T18:51:45.463Z</time>
      </trkpt>
      <trkpt lat="37.1108598" lon="-8.4810249">
        <ele>78.760</ele>
        <time>2018-09-21T18:51:48.336Z</time>
      </trkpt>
      <trkpt lat="37.1109285" lon="-8.4811066">
        <ele>78.978</ele>
        <time>2018-09-21T18:51:51.213Z</time>
      </trkpt>
      <trkpt lat="37.1109956" lon="-8.4811827">
        <ele>79.380</ele>
        <time>2018-09-21T18:51:53.995Z</time>
      </trkpt>
      <trkpt lat="37.1110634" lon="-8.4812680">
        <ele>79.779</ele>
        <time>2018-09-21T18:51:56.991Z</time>
      </trkpt>
      <trkpt lat="37.1111319" lon="-8.4813560">
        <ele>79.905</ele>
        <time>2018-09-21T18:52:00.002Z</time>
      </trkpt>
      <trkpt lat="37.1112111" lon="-8.4814560">
        <ele>79.668</ele>
        <time>2018-09-21T18:52:03.243Z</time>
      </trkpt>
      <trkpt lat="37.1112952" lon="-8.4815645">
        <ele>79.249</ele>
        <time>2018-09-21T18:52:06.357Z</time>
      </trkpt>
      <trkpt lat="37.1113902" lon="-8.4816924">
        <ele>78.897</ele>
        <time>2018-09-21T18:52:09.494Z</time>
      </trkpt>
      <trkpt lat="37.1114879" lon="-8.4818208">
        <ele>78.649</ele>
        <time>2018-09-21T18:52:12.407Z</time>
      </trkpt>
      <trkpt lat="37.1115940" lon="-8.4819575">
        <ele>78.363</ele>
        <time>2018-09-21T18:52:15.580Z</time>
      </trkpt>
      <trkpt lat="37.1116733" lon="-8.4820588">
        <ele>77.919</ele>
        <time>2018-09-21T18:52:18.655Z</time>
      </trkpt>
      <trkpt lat="37.1117480" lon="-8.4821365">
        <ele>77.381</ele>
        <time>2018-09-21T18:52:21.997Z</time>
      </trkpt>
      <trkpt lat="37.1117480" lon="-8.4821365">
        <ele>76.956</ele>
        <time>2018-09-21T18:52:23.997Z</time>
      </trkpt>
      <trkpt lat="37.1117480" lon="-8.4821365">
        <ele>76.768</ele>
        <time>2018-09-21T18:52:32.050Z</time>
      </trkpt>
      <trkpt lat="37.1118470" lon="-8.4822579">
        <ele>76.812</ele>
        <time>2018-09-21T18:52:39.011Z</time>
      </trkpt>
      <trkpt lat="37.1119408" lon="-8.4823688">
        <ele>76.951</ele>
        <time>2018-09-21T18:52:42.445Z</time>
      </trkpt>
      <trkpt lat="37.1120220" lon="-8.4824795">
        <ele>77.050</ele>
        <time>2018-09-21T18:52:45.789Z</time>
      </trkpt>
      <trkpt lat="37.1120903" lon="-8.4825614">
        <ele>77.292</ele>
        <time>2018-09-21T18:52:48.665Z</time>
      </trkpt>
      <trkpt lat="37.1121556" lon="-8.4826541">
        <ele>77.923</ele>
        <time>2018-09-21T18:52:51.634Z</time>
      </trkpt>
      <trkpt lat="37.1122304" lon="-8.4827449">
        <ele>78.743</ele>
        <time>2018-09-21T18:52:54.615Z</time>
      </trkpt>
      <trkpt lat="37.1123171" lon="-8.4828361">
        <ele>79.323</ele>
        <time>2018-09-21T18:52:57.790Z</time>
      </trkpt>
      <trkpt lat="37.1124083" lon="-8.4829127">
        <ele>79.389</ele>
        <time>2018-09-21T18:53:00.938Z</time>
      </trkpt>
      <trkpt lat="37.1124999" lon="-8.4829724">
        <ele>79.001</ele>
        <time>2018-09-21T18:53:03.916Z</time>
      </trkpt>
      <trkpt lat="37.1125916" lon="-8.4830318">
        <ele>78.471</ele>
        <time>2018-09-21T18:53:07.023Z</time>
      </trkpt>
      <trkpt lat="37.1126746" lon="-8.4830887">
        <ele>78.116</ele>
        <time>2018-09-21T18:53:10.164Z</time>
      </trkpt>
      <trkpt lat="37.1127841" lon="-8.4831411">
        <ele>78.099</ele>
        <time>2018-09-21T18:53:14.185Z</time>
      </trkpt>
      <trkpt lat="37.1128856" lon="-8.4832064">
        <ele>78.455</ele>
        <time>2018-09-21T18:53:18.075Z</time>
      </trkpt>
      <trkpt lat="37.1129707" lon="-8.4832986">
        <ele>79.077</ele>
        <time>2018-09-21T18:53:21.898Z</time>
      </trkpt>
      <trkpt lat="37.1130610" lon="-8.4833845">
        <ele>79.707</ele>
        <time>2018-09-21T18:53:26.376Z</time>
      </trkpt>
      <trkpt lat="37.1131617" lon="-8.4834275">
        <ele>80.068</ele>
        <time>2018-09-21T18:53:31.163Z</time>
      </trkpt>
      <trkpt lat="37.1132318" lon="-8.4835233">
        <ele>80.117</ele>
        <time>2018-09-21T18:53:36.130Z</time>
      </trkpt>
      <trkpt lat="37.1132537" lon="-8.4836677">
        <ele>80.053</ele>
        <time>2018-09-21T18:53:40.887Z</time>
      </trkpt>
      <trkpt lat="37.1132809" lon="-8.4838067">
        <ele>80.037</ele>
        <time>2018-09-21T18:53:45.143Z</time>
      </trkpt>
      <trkpt lat="37.1133234" lon="-8.4839406">
        <ele>80.060</ele>
        <time>2018-09-21T18:53:49.550Z</time>
      </trkpt>
      <trkpt lat="37.1133556" lon="-8.4840462">
        <ele>80.069</ele>
        <time>2018-09-21T18:53:53.233Z</time>
      </trkpt>
      <trkpt lat="37.1133893" lon="-8.4841618">
        <ele>80.088</ele>
        <time>2018-09-21T18:53:57.208Z</time>
      </trkpt>
      <trkpt lat="37.1134414" lon="-8.4842684">
        <ele>80.279</ele>
        <time>2018-09-21T18:54:01.165Z</time>
      </trkpt>
      <trkpt lat="37.1134729" lon="-8.4844018">
        <ele>80.731</ele>
        <time>2018-09-21T18:54:05.475Z</time>
      </trkpt>
      <trkpt lat="37.1134452" lon="-8.4845362">
        <ele>81.237</ele>
        <time>2018-09-21T18:54:09.414Z</time>
      </trkpt>
      <trkpt lat="37.1134067" lon="-8.4846567">
        <ele>81.591</ele>
        <time>2018-09-21T18:54:12.654Z</time>
      </trkpt>
      <trkpt lat="37.1133743" lon="-8.4847847">
        <ele>81.784</ele>
        <time>2018-09-21T18:54:15.791Z</time>
      </trkpt>
      <trkpt lat="37.1133562" lon="-8.4849134">
        <ele>81.833</ele>
        <time>2018-09-21T18:54:18.658Z</time>
      </trkpt>
      <trkpt lat="37.1133791" lon="-8.4850627">
        <ele>81.755</ele>
        <time>2018-09-21T18:54:21.757Z</time>
      </trkpt>
      <trkpt lat="37.1134332" lon="-8.4851919">
        <ele>81.516</ele>
        <time>2018-09-21T18:54:24.646Z</time>
      </trkpt>
      <trkpt lat="37.1135137" lon="-8.4853083">
        <ele>80.939</ele>
        <time>2018-09-21T18:54:27.648Z</time>
      </trkpt>
      <trkpt lat="37.1136325" lon="-8.4853727">
        <ele>79.992</ele>
        <time>2018-09-21T18:54:30.878Z</time>
      </trkpt>
      <trkpt lat="37.1137338" lon="-8.4854149">
        <ele>79.036</ele>
        <time>2018-09-21T18:54:34.229Z</time>
      </trkpt>
      <trkpt lat="37.1138059" lon="-8.4855131">
        <ele>78.457</ele>
        <time>2018-09-21T18:54:37.991Z</time>
      </trkpt>
      <trkpt lat="37.1137641" lon="-8.4856743">
        <ele>78.181</ele>
        <time>2018-09-21T18:54:42.446Z</time>
      </trkpt>
      <trkpt lat="37.1136803" lon="-8.4858451">
        <ele>77.962</ele>
        <time>2018-09-21T18:54:46.048Z</time>
      </trkpt>
      <trkpt lat="37.1136116" lon="-8.4860291">
        <ele>77.794</ele>
        <time>2018-09-21T18:54:49.160Z</time>
      </trkpt>
      <trkpt lat="37.1135184" lon="-8.4862155">
        <ele>77.749</ele>
        <time>2018-09-21T18:54:52.195Z</time>
      </trkpt>
      <trkpt lat="37.1134316" lon="-8.4864081">
        <ele>77.660</ele>
        <time>2018-09-21T18:54:55.083Z</time>
      </trkpt>
      <trkpt lat="37.1133482" lon="-8.4866003">
        <ele>77.389</ele>
        <time>2018-09-21T18:54:57.904Z</time>
      </trkpt>
      <trkpt lat="37.1132643" lon="-8.4868062">
        <ele>76.983</ele>
        <time>2018-09-21T18:55:00.868Z</time>
      </trkpt>
      <trkpt lat="37.1131993" lon="-8.4870428">
        <ele>76.454</ele>
        <time>2018-09-21T18:55:04.012Z</time>
      </trkpt>
      <trkpt lat="37.1131098" lon="-8.4872595">
        <ele>75.754</ele>
        <time>2018-09-21T18:55:07.068Z</time>
      </trkpt>
      <trkpt lat="37.1130113" lon="-8.4874529">
        <ele>75.024</ele>
        <time>2018-09-21T18:55:10.017Z</time>
      </trkpt>
      <trkpt lat="37.1129220" lon="-8.4876557">
        <ele>74.431</ele>
        <time>2018-09-21T18:55:13.118Z</time>
      </trkpt>
      <trkpt lat="37.1128467" lon="-8.4878360">
        <ele>73.836</ele>
        <time>2018-09-21T18:55:15.996Z</time>
      </trkpt>
      <trkpt lat="37.1127631" lon="-8.4880141">
        <ele>73.067</ele>
        <time>2018-09-21T18:55:19.174Z</time>
      </trkpt>
      <trkpt lat="37.1126881" lon="-8.4881625">
        <ele>72.319</ele>
        <time>2018-09-21T18:55:22.130Z</time>
      </trkpt>
      <trkpt lat="37.1126102" lon="-8.4883037">
        <ele>71.832</ele>
        <time>2018-09-21T18:55:25.183Z</time>
      </trkpt>
      <trkpt lat="37.1125337" lon="-8.4884421">
        <ele>71.602</ele>
        <time>2018-09-21T18:55:28.215Z</time>
      </trkpt>
      <trkpt lat="37.1124570" lon="-8.4885863">
        <ele>71.530</ele>
        <time>2018-09-21T18:55:31.319Z</time>
      </trkpt>
      <trkpt lat="37.1123989" lon="-8.4886803">
        <ele>71.590</ele>
        <time>2018-09-21T18:55:33.421Z</time>
      </trkpt>
      <trkpt lat="37.1123276" lon="-8.4888259">
        <ele>71.811</ele>
        <time>2018-09-21T18:55:36.393Z</time>
      </trkpt>
      <trkpt lat="37.1122402" lon="-8.4890205">
        <ele>72.163</ele>
        <time>2018-09-21T18:55:40.098Z</time>
      </trkpt>
      <trkpt lat="37.1121930" lon="-8.4891763">
        <ele>72.525</ele>
        <time>2018-09-21T18:55:42.664Z</time>
      </trkpt>
      <trkpt lat="37.1121272" lon="-8.4893676">
        <ele>72.648</ele>
        <time>2018-09-21T18:55:45.628Z</time>
      </trkpt>
      <trkpt lat="37.1120429" lon="-8.4895744">
        <ele>72.371</ele>
        <time>2018-09-21T18:55:48.672Z</time>
      </trkpt>
      <trkpt lat="37.1119472" lon="-8.4897801">
        <ele>71.899</ele>
        <time>2018-09-21T18:55:51.648Z</time>
      </trkpt>
      <trkpt lat="37.1118146" lon="-8.4899604">
        <ele>71.512</ele>
        <time>2018-09-21T18:55:54.655Z</time>
      </trkpt>
      <trkpt lat="37.1116753" lon="-8.4901226">
        <ele>71.280</ele>
        <time>2018-09-21T18:55:57.645Z</time>
      </trkpt>
      <trkpt lat="37.1115465" lon="-8.4902699">
        <ele>71.213</ele>
        <time>2018-09-21T18:56:00.515Z</time>
      </trkpt>
      <trkpt lat="37.1114134" lon="-8.4904251">
        <ele>71.283</ele>
        <time>2018-09-21T18:56:03.561Z</time>
      </trkpt>
      <trkpt lat="37.1113350" lon="-8.4906386">
        <ele>71.366</ele>
        <time>2018-09-21T18:56:06.775Z</time>
      </trkpt>
      <trkpt lat="37.1113147" lon="-8.4908256">
        <ele>71.371</ele>
        <time>2018-09-21T18:56:09.505Z</time>
      </trkpt>
      <trkpt lat="37.1112944" lon="-8.4909958">
        <ele>71.421</ele>
        <time>2018-09-21T18:56:12.071Z</time>
      </trkpt>
      <trkpt lat="37.1112616" lon="-8.4911951">
        <ele>71.686</ele>
        <time>2018-09-21T18:56:15.117Z</time>
      </trkpt>
      <trkpt lat="37.1112077" lon="-8.4913578">
        <ele>72.106</ele>
        <time>2018-09-21T18:56:17.837Z</time>
      </trkpt>
      <trkpt lat="37.1111933" lon="-8.4915240">
        <ele>72.461</ele>
        <time>2018-09-21T18:56:20.634Z</time>
      </trkpt>
      <trkpt lat="37.1111686" lon="-8.4916568">
        <ele>72.781</ele>
        <time>2018-09-21T18:56:23.149Z</time>
      </trkpt>
      <trkpt lat="37.1111473" lon="-8.4917881">
        <ele>73.238</ele>
        <time>2018-09-21T18:56:25.870Z</time>
      </trkpt>
      <trkpt lat="37.1111192" lon="-8.4919164">
        <ele>73.751</ele>
        <time>2018-09-21T18:56:28.703Z</time>
      </trkpt>
      <trkpt lat="37.1111380" lon="-8.4920731">
        <ele>74.181</ele>
        <time>2018-09-21T18:56:32.061Z</time>
      </trkpt>
      <trkpt lat="37.1111630" lon="-8.4922062">
        <ele>74.544</ele>
        <time>2018-09-21T18:56:34.915Z</time>
      </trkpt>
      <trkpt lat="37.1112207" lon="-8.4923043">
        <ele>74.785</ele>
        <time>2018-09-21T18:56:37.709Z</time>
      </trkpt>
      <trkpt lat="37.1113075" lon="-8.4924064">
        <ele>74.806</ele>
        <time>2018-09-21T18:56:41.516Z</time>
      </trkpt>
      <trkpt lat="37.1113833" lon="-8.4924936">
        <ele>74.652</ele>
        <time>2018-09-21T18:56:44.724Z</time>
      </trkpt>
      <trkpt lat="37.1114552" lon="-8.4926005">
        <ele>74.575</ele>
        <time>2018-09-21T18:56:47.948Z</time>
      </trkpt>
      <trkpt lat="37.1115349" lon="-8.4926947">
        <ele>74.741</ele>
        <time>2018-09-21T18:56:51.021Z</time>
      </trkpt>
      <trkpt lat="37.1116214" lon="-8.4927696">
        <ele>74.984</ele>
        <time>2018-09-21T18:56:53.951Z</time>
      </trkpt>
      <trkpt lat="37.1116995" lon="-8.4928645">
        <ele>75.115</ele>
        <time>2018-09-21T18:56:56.923Z</time>
      </trkpt>
      <trkpt lat="37.1117835" lon="-8.4929774">
        <ele>75.062</ele>
        <time>2018-09-21T18:57:00.061Z</time>
      </trkpt>
      <trkpt lat="37.1118640" lon="-8.4931096">
        <ele>74.820</ele>
        <time>2018-09-21T18:57:03.192Z</time>
      </trkpt>
      <trkpt lat="37.1119304" lon="-8.4932566">
        <ele>74.519</ele>
        <time>2018-09-21T18:57:06.256Z</time>
      </trkpt>
      <trkpt lat="37.1119660" lon="-8.4934185">
        <ele>74.298</ele>
        <time>2018-09-21T18:57:09.268Z</time>
      </trkpt>
      <trkpt lat="37.1120016" lon="-8.4935893">
        <ele>74.268</ele>
        <time>2018-09-21T18:57:12.451Z</time>
      </trkpt>
      <trkpt lat="37.1119977" lon="-8.4937662">
        <ele>74.458</ele>
        <time>2018-09-21T18:57:15.650Z</time>
      </trkpt>
      <trkpt lat="37.1119788" lon="-8.4939562">
        <ele>74.708</ele>
        <time>2018-09-21T18:57:19.015Z</time>
      </trkpt>
      <trkpt lat="37.1119516" lon="-8.4941228">
        <ele>74.838</ele>
        <time>2018-09-21T18:57:21.971Z</time>
      </trkpt>
      <trkpt lat="37.1119256" lon="-8.4942822">
        <ele>74.722</ele>
        <time>2018-09-21T18:57:24.831Z</time>
      </trkpt>
      <trkpt lat="37.1119131" lon="-8.4944536">
        <ele>74.377</ele>
        <time>2018-09-21T18:57:27.926Z</time>
      </trkpt>
      <trkpt lat="37.1119110" lon="-8.4946243">
        <ele>74.049</ele>
        <time>2018-09-21T18:57:30.949Z</time>
      </trkpt>
      <trkpt lat="37.1119241" lon="-8.4947997">
        <ele>73.916</ele>
        <time>2018-09-21T18:57:34.040Z</time>
      </trkpt>
      <trkpt lat="37.1119437" lon="-8.4949393">
        <ele>73.922</ele>
        <time>2018-09-21T18:57:36.677Z</time>
      </trkpt>
      <trkpt lat="37.1120008" lon="-8.4950730">
        <ele>73.966</ele>
        <time>2018-09-21T18:57:39.758Z</time>
      </trkpt>
      <trkpt lat="37.1120507" lon="-8.4951943">
        <ele>74.094</ele>
        <time>2018-09-21T18:57:42.756Z</time>
      </trkpt>
      <trkpt lat="37.1120994" lon="-8.4952937">
        <ele>74.354</ele>
        <time>2018-09-21T18:57:45.583Z</time>
      </trkpt>
      <trkpt lat="37.1121499" lon="-8.4953964">
        <ele>74.609</ele>
        <time>2018-09-21T18:57:48.990Z</time>
      </trkpt>
      <trkpt lat="37.1121499" lon="-8.4953964">
        <ele>74.703</ele>
        <time>2018-09-21T18:57:54.990Z</time>
      </trkpt>
      <trkpt lat="37.1121499" lon="-8.4953964">
        <ele>74.658</ele>
        <time>2018-09-21T18:59:56.005Z</time>
      </trkpt>
      <trkpt lat="37.1122819" lon="-8.4955972">
        <ele>74.586</ele>
        <time>2018-09-21T19:00:07.720Z</time>
      </trkpt>
      <trkpt lat="37.1122875" lon="-8.4957109">
        <ele>74.569</ele>
        <time>2018-09-21T19:00:10.821Z</time>
      </trkpt>
      <trkpt lat="37.1121933" lon="-8.4957906">
        <ele>74.590</ele>
        <time>2018-09-21T19:00:14.109Z</time>
      </trkpt>
      <trkpt lat="37.1120809" lon="-8.4958551">
        <ele>74.610</ele>
        <time>2018-09-21T19:00:17.267Z</time>
      </trkpt>
      <trkpt lat="37.1119923" lon="-8.4959587">
        <ele>74.657</ele>
        <time>2018-09-21T19:00:20.281Z</time>
      </trkpt>
      <trkpt lat="37.1118971" lon="-8.4960446">
        <ele>74.887</ele>
        <time>2018-09-21T19:00:23.172Z</time>
      </trkpt>
      <trkpt lat="37.1117986" lon="-8.4961333">
        <ele>75.327</ele>
        <time>2018-09-21T19:00:26.067Z</time>
      </trkpt>
      <trkpt lat="37.1116977" lon="-8.4962244">
        <ele>75.593</ele>
        <time>2018-09-21T19:00:28.882Z</time>
      </trkpt>
      <trkpt lat="37.1115883" lon="-8.4963329">
        <ele>75.408</ele>
        <time>2018-09-21T19:00:31.917Z</time>
      </trkpt>
      <trkpt lat="37.1114688" lon="-8.4964185">
        <ele>74.848</ele>
        <time>2018-09-21T19:00:34.859Z</time>
      </trkpt>
      <trkpt lat="37.1113456" lon="-8.4965021">
        <ele>74.095</ele>
        <time>2018-09-21T19:00:37.764Z</time>
      </trkpt>
      <trkpt lat="37.1112083" lon="-8.4965907">
        <ele>73.443</ele>
        <time>2018-09-21T19:00:40.773Z</time>
      </trkpt>
      <trkpt lat="37.1110887" lon="-8.4967093">
        <ele>73.129</ele>
        <time>2018-09-21T19:00:43.599Z</time>
      </trkpt>
      <trkpt lat="37.1109550" lon="-8.4968036">
        <ele>72.978</ele>
        <time>2018-09-21T19:00:46.399Z</time>
      </trkpt>
      <trkpt lat="37.1108291" lon="-8.4969227">
        <ele>72.730</ele>
        <time>2018-09-21T19:00:49.248Z</time>
      </trkpt>
      <trkpt lat="37.1106930" lon="-8.4970421">
        <ele>72.405</ele>
        <time>2018-09-21T19:00:52.205Z</time>
      </trkpt>
      <trkpt lat="37.1105496" lon="-8.4971465">
        <ele>72.177</ele>
        <time>2018-09-21T19:00:55.101Z</time>
      </trkpt>
      <trkpt lat="37.1104073" lon="-8.4972621">
        <ele>72.091</ele>
        <time>2018-09-21T19:00:57.984Z</time>
      </trkpt>
      <trkpt lat="37.1102660" lon="-8.4973892">
        <ele>72.092</ele>
        <time>2018-09-21T19:01:00.926Z</time>
      </trkpt>
      <trkpt lat="37.1101257" lon="-8.4974925">
        <ele>72.101</ele>
        <time>2018-09-21T19:01:03.718Z</time>
      </trkpt>
      <trkpt lat="37.1099781" lon="-8.4976246">
        <ele>72.018</ele>
        <time>2018-09-21T19:01:06.901Z</time>
      </trkpt>
      <trkpt lat="37.1098489" lon="-8.4977460">
        <ele>71.874</ele>
        <time>2018-09-21T19:01:09.818Z</time>
      </trkpt>
      <trkpt lat="37.1097167" lon="-8.4978659">
        <ele>71.815</ele>
        <time>2018-09-21T19:01:12.814Z</time>
      </trkpt>
      <trkpt lat="37.1095983" lon="-8.4980091">
        <ele>71.902</ele>
        <time>2018-09-21T19:01:15.941Z</time>
      </trkpt>
      <trkpt lat="37.1094897" lon="-8.4981318">
        <ele>72.120</ele>
        <time>2018-09-21T19:01:18.776Z</time>
      </trkpt>
      <trkpt lat="37.1093846" lon="-8.4982716">
        <ele>72.416</ele>
        <time>2018-09-21T19:01:21.815Z</time>
      </trkpt>
      <trkpt lat="37.1092854" lon="-8.4984104">
        <ele>72.653</ele>
        <time>2018-09-21T19:01:24.912Z</time>
      </trkpt>
      <trkpt lat="37.1091845" lon="-8.4985221">
        <ele>72.703</ele>
        <time>2018-09-21T19:01:27.834Z</time>
      </trkpt>
      <trkpt lat="37.1090944" lon="-8.4986427">
        <ele>72.570</ele>
        <time>2018-09-21T19:01:30.749Z</time>
      </trkpt>
      <trkpt lat="37.1090354" lon="-8.4988019">
        <ele>72.401</ele>
        <time>2018-09-21T19:01:33.858Z</time>
      </trkpt>
      <trkpt lat="37.1089783" lon="-8.4989483">
        <ele>72.244</ele>
        <time>2018-09-21T19:01:36.789Z</time>
      </trkpt>
      <trkpt lat="37.1088889" lon="-8.4990643">
        <ele>72.050</ele>
        <time>2018-09-21T19:01:39.665Z</time>
      </trkpt>
      <trkpt lat="37.1088156" lon="-8.4992169">
        <ele>71.881</ele>
        <time>2018-09-21T19:01:42.769Z</time>
      </trkpt>
      <trkpt lat="37.1087366" lon="-8.4993375">
        <ele>71.697</ele>
        <time>2018-09-21T19:01:45.451Z</time>
      </trkpt>
      <trkpt lat="37.1086330" lon="-8.4994491">
        <ele>71.398</ele>
        <time>2018-09-21T19:01:48.287Z</time>
      </trkpt>
      <trkpt lat="37.1085123" lon="-8.4995571">
        <ele>71.156</ele>
        <time>2018-09-21T19:01:51.232Z</time>
      </trkpt>
      <trkpt lat="37.1083809" lon="-8.4996708">
        <ele>71.139</ele>
        <time>2018-09-21T19:01:54.426Z</time>
      </trkpt>
      <trkpt lat="37.1082574" lon="-8.4997539">
        <ele>71.205</ele>
        <time>2018-09-21T19:01:57.406Z</time>
      </trkpt>
      <trkpt lat="37.1081427" lon="-8.4998486">
        <ele>71.180</ele>
        <time>2018-09-21T19:02:00.365Z</time>
      </trkpt>
      <trkpt lat="37.1080142" lon="-8.4999280">
        <ele>70.900</ele>
        <time>2018-09-21T19:02:03.296Z</time>
      </trkpt>
      <trkpt lat="37.1078749" lon="-8.5000148">
        <ele>70.346</ele>
        <time>2018-09-21T19:02:06.267Z</time>
      </trkpt>
      <trkpt lat="37.1077370" lon="-8.5001043">
        <ele>69.806</ele>
        <time>2018-09-21T19:02:09.037Z</time>
      </trkpt>
      <trkpt lat="37.1075848" lon="-8.5002043">
        <ele>69.390</ele>
        <time>2018-09-21T19:02:11.911Z</time>
      </trkpt>
      <trkpt lat="37.1074230" lon="-8.5003331">
        <ele>68.872</ele>
        <time>2018-09-21T19:02:14.962Z</time>
      </trkpt>
      <trkpt lat="37.1072675" lon="-8.5004465">
        <ele>68.098</ele>
        <time>2018-09-21T19:02:17.777Z</time>
      </trkpt>
      <trkpt lat="37.1071132" lon="-8.5005757">
        <ele>67.101</ele>
        <time>2018-09-21T19:02:20.630Z</time>
      </trkpt>
      <trkpt lat="37.1069440" lon="-8.5007073">
        <ele>65.980</ele>
        <time>2018-09-21T19:02:23.625Z</time>
      </trkpt>
      <trkpt lat="37.1067780" lon="-8.5008350">
        <ele>64.881</ele>
        <time>2018-09-21T19:02:26.540Z</time>
      </trkpt>
      <trkpt lat="37.1066240" lon="-8.5009887">
        <ele>63.942</ele>
        <time>2018-09-21T19:02:29.551Z</time>
      </trkpt>
      <trkpt lat="37.1065054" lon="-8.5011675">
        <ele>63.249</ele>
        <time>2018-09-21T19:02:32.545Z</time>
      </trkpt>
      <trkpt lat="37.1064405" lon="-8.5013559">
        <ele>62.712</ele>
        <time>2018-09-21T19:02:35.420Z</time>
      </trkpt>
      <trkpt lat="37.1064139" lon="-8.5015534">
        <ele>62.120</ele>
        <time>2018-09-21T19:02:38.535Z</time>
      </trkpt>
      <trkpt lat="37.1064172" lon="-8.5017200">
        <ele>61.435</ele>
        <time>2018-09-21T19:02:41.400Z</time>
      </trkpt>
      <trkpt lat="37.1064371" lon="-8.5018816">
        <ele>60.886</ele>
        <time>2018-09-21T19:02:44.381Z</time>
      </trkpt>
      <trkpt lat="37.1064597" lon="-8.5020459">
        <ele>60.593</ele>
        <time>2018-09-21T19:02:47.479Z</time>
      </trkpt>
      <trkpt lat="37.1064874" lon="-8.5021899">
        <ele>60.484</ele>
        <time>2018-09-21T19:02:50.392Z</time>
      </trkpt>
      <trkpt lat="37.1065119" lon="-8.5023241">
        <ele>60.467</ele>
        <time>2018-09-21T19:02:53.297Z</time>
      </trkpt>
      <trkpt lat="37.1065531" lon="-8.5024479">
        <ele>60.440</ele>
        <time>2018-09-21T19:02:56.159Z</time>
      </trkpt>
      <trkpt lat="37.1065623" lon="-8.5025862">
        <ele>60.341</ele>
        <time>2018-09-21T19:02:59.109Z</time>
      </trkpt>
      <trkpt lat="37.1065923" lon="-8.5027442">
        <ele>60.312</ele>
        <time>2018-09-21T19:03:02.484Z</time>
      </trkpt>
      <trkpt lat="37.1066099" lon="-8.5028803">
        <ele>60.484</ele>
        <time>2018-09-21T19:03:05.327Z</time>
      </trkpt>
      <trkpt lat="37.1066571" lon="-8.5030154">
        <ele>60.783</ele>
        <time>2018-09-21T19:03:08.598Z</time>
      </trkpt>
      <trkpt lat="37.1066835" lon="-8.5031474">
        <ele>61.212</ele>
        <time>2018-09-21T19:03:12.388Z</time>
      </trkpt>
      <trkpt lat="37.1066950" lon="-8.5032756">
        <ele>61.811</ele>
        <time>2018-09-21T19:03:16.983Z</time>
      </trkpt>
      <trkpt lat="37.1066950" lon="-8.5032756">
        <ele>62.377</ele>
        <time>2018-09-21T19:03:19.983Z</time>
      </trkpt>
      <trkpt lat="37.1066950" lon="-8.5032756">
        <ele>62.639</ele>
        <time>2018-09-21T19:03:46.563Z</time>
      </trkpt>
      <trkpt lat="37.1066199" lon="-8.5034870">
        <ele>62.585</ele>
        <time>2018-09-21T19:03:58.282Z</time>
      </trkpt>
      <trkpt lat="37.1065897" lon="-8.5036155">
        <ele>62.620</ele>
        <time>2018-09-21T19:04:01.300Z</time>
      </trkpt>
      <trkpt lat="37.1065482" lon="-8.5037574">
        <ele>63.033</ele>
        <time>2018-09-21T19:04:04.309Z</time>
      </trkpt>
      <trkpt lat="37.1065058" lon="-8.5039176">
        <ele>63.472</ele>
        <time>2018-09-21T19:04:07.402Z</time>
      </trkpt>
      <trkpt lat="37.1064797" lon="-8.5040394">
        <ele>63.496</ele>
        <time>2018-09-21T19:04:09.452Z</time>
      </trkpt>
      <trkpt lat="37.1064533" lon="-8.5041723">
        <ele>63.075</ele>
        <time>2018-09-21T19:04:11.511Z</time>
      </trkpt>
      <trkpt lat="37.1064385" lon="-8.5043106">
        <ele>62.417</ele>
        <time>2018-09-21T19:04:13.534Z</time>
      </trkpt>
      <trkpt lat="37.1064195" lon="-8.5044375">
        <ele>61.677</ele>
        <time>2018-09-21T19:04:15.315Z</time>
      </trkpt>
      <trkpt lat="37.1064082" lon="-8.5045744">
        <ele>60.966</ele>
        <time>2018-09-21T19:04:17.123Z</time>
      </trkpt>
      <trkpt lat="37.1063970" lon="-8.5047183">
        <ele>60.349</ele>
        <time>2018-09-21T19:04:18.947Z</time>
      </trkpt>
      <trkpt lat="37.1063827" lon="-8.5048691">
        <ele>59.849</ele>
        <time>2018-09-21T19:04:20.815Z</time>
      </trkpt>
      <trkpt lat="37.1063808" lon="-8.5050209">
        <ele>59.376</ele>
        <time>2018-09-21T19:04:22.668Z</time>
      </trkpt>
      <trkpt lat="37.1063829" lon="-8.5051722">
        <ele>58.891</ele>
        <time>2018-09-21T19:04:24.518Z</time>
      </trkpt>
      <trkpt lat="37.1063770" lon="-8.5053351">
        <ele>58.515</ele>
        <time>2018-09-21T19:04:26.498Z</time>
      </trkpt>
      <trkpt lat="37.1063638" lon="-8.5054994">
        <ele>58.304</ele>
        <time>2018-09-21T19:04:28.517Z</time>
      </trkpt>
      <trkpt lat="37.1063488" lon="-8.5056621">
        <ele>58.098</ele>
        <time>2018-09-21T19:04:30.540Z</time>
      </trkpt>
      <trkpt lat="37.1063405" lon="-8.5058378">
        <ele>57.814</ele>
        <time>2018-09-21T19:04:32.733Z</time>
      </trkpt>
      <trkpt lat="37.1063338" lon="-8.5060003">
        <ele>57.479</ele>
        <time>2018-09-21T19:04:34.779Z</time>
      </trkpt>
      <trkpt lat="37.1063351" lon="-8.5062210">
        <ele>57.189</ele>
        <time>2018-09-21T19:04:37.677Z</time>
      </trkpt>
      <trkpt lat="37.1063426" lon="-8.5064432">
        <ele>56.978</ele>
        <time>2018-09-21T19:04:40.799Z</time>
      </trkpt>
      <trkpt lat="37.1063652" lon="-8.5066432">
        <ele>56.776</ele>
        <time>2018-09-21T19:04:43.747Z</time>
      </trkpt>
      <trkpt lat="37.1063820" lon="-8.5068380">
        <ele>56.469</ele>
        <time>2018-09-21T19:04:46.650Z</time>
      </trkpt>
      <trkpt lat="37.1063968" lon="-8.5070219">
        <ele>55.952</ele>
        <time>2018-09-21T19:04:49.443Z</time>
      </trkpt>
      <trkpt lat="37.1064123" lon="-8.5072063">
        <ele>55.330</ele>
        <time>2018-09-21T19:04:52.300Z</time>
      </trkpt>
      <trkpt lat="37.1064323" lon="-8.5073822">
        <ele>54.850</ele>
        <time>2018-09-21T19:04:55.119Z</time>
      </trkpt>
      <trkpt lat="37.1064503" lon="-8.5075654">
        <ele>54.402</ele>
        <time>2018-09-21T19:04:58.131Z</time>
      </trkpt>
      <trkpt lat="37.1064708" lon="-8.5077378">
        <ele>53.790</ele>
        <time>2018-09-21T19:05:01.093Z</time>
      </trkpt>
      <trkpt lat="37.1064817" lon="-8.5078989">
        <ele>53.216</ele>
        <time>2018-09-21T19:05:03.979Z</time>
      </trkpt>
      <trkpt lat="37.1064946" lon="-8.5080558">
        <ele>53.068</ele>
        <time>2018-09-21T19:05:06.871Z</time>
      </trkpt>
      <trkpt lat="37.1065156" lon="-8.5082141">
        <ele>53.372</ele>
        <time>2018-09-21T19:05:09.836Z</time>
      </trkpt>
      <trkpt lat="37.1065416" lon="-8.5083656">
        <ele>53.692</ele>
        <time>2018-09-21T19:05:12.684Z</time>
      </trkpt>
      <trkpt lat="37.1065599" lon="-8.5085270">
        <ele>53.682</ele>
        <time>2018-09-21T19:05:15.686Z</time>
      </trkpt>
      <trkpt lat="37.1065658" lon="-8.5086804">
        <ele>53.496</ele>
        <time>2018-09-21T19:05:18.538Z</time>
      </trkpt>
      <trkpt lat="37.1065628" lon="-8.5088316">
        <ele>53.420</ele>
        <time>2018-09-21T19:05:21.314Z</time>
      </trkpt>
      <trkpt lat="37.1065443" lon="-8.5089927">
        <ele>53.460</ele>
        <time>2018-09-21T19:05:24.296Z</time>
      </trkpt>
      <trkpt lat="37.1065038" lon="-8.5091254">
        <ele>53.446</ele>
        <time>2018-09-21T19:05:26.943Z</time>
      </trkpt>
      <trkpt lat="37.1064639" lon="-8.5093046">
        <ele>53.298</ele>
        <time>2018-09-21T19:05:30.277Z</time>
      </trkpt>
      <trkpt lat="37.1064665" lon="-8.5094502">
        <ele>52.901</ele>
        <time>2018-09-21T19:05:32.777Z</time>
      </trkpt>
      <trkpt lat="37.1064511" lon="-8.5096159">
        <ele>52.165</ele>
        <time>2018-09-21T19:05:35.689Z</time>
      </trkpt>
      <trkpt lat="37.1064806" lon="-8.5097925">
        <ele>51.185</ele>
        <time>2018-09-21T19:05:38.947Z</time>
      </trkpt>
      <trkpt lat="37.1065187" lon="-8.5099242">
        <ele>50.140</ele>
        <time>2018-09-21T19:05:41.741Z</time>
      </trkpt>
      <trkpt lat="37.1065567" lon="-8.5100275">
        <ele>49.044</ele>
        <time>2018-09-21T19:05:44.386Z</time>
      </trkpt>
      <trkpt lat="37.1066238" lon="-8.5101054">
        <ele>47.655</ele>
        <time>2018-09-21T19:05:47.268Z</time>
      </trkpt>
      <trkpt lat="37.1066910" lon="-8.5102001">
        <ele>45.819</ele>
        <time>2018-09-21T19:05:50.566Z</time>
      </trkpt>
      <trkpt lat="37.1067644" lon="-8.5102764">
        <ele>44.003</ele>
        <time>2018-09-21T19:05:53.997Z</time>
      </trkpt>
      <trkpt lat="37.1067644" lon="-8.5102764">
        <ele>42.859</ele>
        <time>2018-09-21T19:05:59.997Z</time>
      </trkpt>
      <trkpt lat="37.1067644" lon="-8.5102764">
        <ele>42.512</ele>
        <time>2018-09-21T19:06:24.957Z</time>
      </trkpt>
      <trkpt lat="37.1069147" lon="-8.5104483">
        <ele>42.574</ele>
        <time>2018-09-21T19:06:38.812Z</time>
      </trkpt>
      <trkpt lat="37.1069916" lon="-8.5105212">
        <ele>42.210</ele>
        <time>2018-09-21T19:06:42.468Z</time>
      </trkpt>
      <trkpt lat="37.1070703" lon="-8.5105785">
        <ele>40.731</ele>
        <time>2018-09-21T19:06:45.714Z</time>
      </trkpt>
      <trkpt lat="37.1071600" lon="-8.5106174">
        <ele>38.540</ele>
        <time>2018-09-21T19:06:48.996Z</time>
      </trkpt>
      <trkpt lat="37.1071600" lon="-8.5106174">
        <ele>36.669</ele>
        <time>2018-09-21T19:07:00.996Z</time>
      </trkpt>
      <trkpt lat="37.1071600" lon="-8.5106174">
        <ele>35.788</ele>
        <time>2018-09-21T19:12:37.515Z</time>
      </trkpt>
      <trkpt lat="37.1073423" lon="-8.5107422">
        <ele>35.870</ele>
        <time>2018-09-21T19:12:51.375Z</time>
      </trkpt>
      <trkpt lat="37.1074327" lon="-8.5107997">
        <ele>35.691</ele>
        <time>2018-09-21T19:12:54.292Z</time>
      </trkpt>
      <trkpt lat="37.1075550" lon="-8.5108722">
        <ele>34.110</ele>
        <time>2018-09-21T19:12:57.563Z</time>
      </trkpt>
      <trkpt lat="37.1077328" lon="-8.5109536">
        <ele>31.650</ele>
        <time>2018-09-21T19:13:01.521Z</time>
      </trkpt>
      <trkpt lat="37.1079233" lon="-8.5110397">
        <ele>29.537</ele>
        <time>2018-09-21T19:13:05.362Z</time>
      </trkpt>
      <trkpt lat="37.1080686" lon="-8.5110691">
        <ele>28.258</ele>
        <time>2018-09-21T19:13:08.519Z</time>
      </trkpt>
      <trkpt lat="37.1081883" lon="-8.5111001">
        <ele>27.749</ele>
        <time>2018-09-21T19:13:11.891Z</time>
      </trkpt>
      <trkpt lat="37.1083155" lon="-8.5111043">
        <ele>27.712</ele>
        <time>2018-09-21T19:13:15.691Z</time>
      </trkpt>
      <trkpt lat="37.1084087" lon="-8.5111352">
        <ele>27.860</ele>
        <time>2018-09-21T19:13:18.686Z</time>
      </trkpt>
      <trkpt lat="37.1084963" lon="-8.5111634">
        <ele>28.115</ele>
        <time>2018-09-21T19:13:21.216Z</time>
      </trkpt>
      <trkpt lat="37.1085913" lon="-8.5111938">
        <ele>28.561</ele>
        <time>2018-09-21T19:13:23.726Z</time>
      </trkpt>
      <trkpt lat="37.1087021" lon="-8.5112236">
        <ele>29.180</ele>
        <time>2018-09-21T19:13:26.762Z</time>
      </trkpt>
      <trkpt lat="37.1087947" lon="-8.5113011">
        <ele>29.837</ele>
        <time>2018-09-21T19:13:30.220Z</time>
      </trkpt>
      <trkpt lat="37.1089005" lon="-8.5113258">
        <ele>30.404</ele>
        <time>2018-09-21T19:13:33.258Z</time>
      </trkpt>
      <trkpt lat="37.1090177" lon="-8.5113412">
        <ele>31.004</ele>
        <time>2018-09-21T19:13:36.295Z</time>
      </trkpt>
      <trkpt lat="37.1091279" lon="-8.5113977">
        <ele>31.849</ele>
        <time>2018-09-21T19:13:39.606Z</time>
      </trkpt>
      <trkpt lat="37.1092239" lon="-8.5114483">
        <ele>32.741</ele>
        <time>2018-09-21T19:13:43.022Z</time>
      </trkpt>
      <trkpt lat="37.1093269" lon="-8.5114593">
        <ele>33.272</ele>
        <time>2018-09-21T19:13:46.996Z</time>
      </trkpt>
      <trkpt lat="37.1093269" lon="-8.5114593">
        <ele>33.413</ele>
        <time>2018-09-21T19:13:51.996Z</time>
      </trkpt>
      <trkpt lat="37.1093269" lon="-8.5114593">
        <ele>33.381</ele>
        <time>2018-09-21T19:14:04.194Z</time>
      </trkpt>
      <trkpt lat="37.1094886" lon="-8.5114113">
        <ele>33.349</ele>
        <time>2018-09-21T19:14:12.036Z</time>
      </trkpt>
      <trkpt lat="37.1095731" lon="-8.5113494">
        <ele>34.113</ele>
        <time>2018-09-21T19:14:14.811Z</time>
      </trkpt>
      <trkpt lat="37.1096477" lon="-8.5112780">
        <ele>36.168</ele>
        <time>2018-09-21T19:14:17.386Z</time>
      </trkpt>
      <trkpt lat="37.1097458" lon="-8.5111991">
        <ele>38.445</ele>
        <time>2018-09-21T19:14:20.452Z</time>
      </trkpt>
      <trkpt lat="37.1098368" lon="-8.5111447">
        <ele>39.799</ele>
        <time>2018-09-21T19:14:23.157Z</time>
      </trkpt>
      <trkpt lat="37.1099246" lon="-8.5110846">
        <ele>40.313</ele>
        <time>2018-09-21T19:14:25.995Z</time>
      </trkpt>
      <trkpt lat="37.1099246" lon="-8.5110846">
        <ele>40.388</ele>
        <time>2018-09-21T19:14:29.995Z</time>
      </trkpt>
      <trkpt lat="37.1099246" lon="-8.5110846">
        <ele>40.346</ele>
        <time>2018-09-21T19:14:41.781Z</time>
      </trkpt>
      <trkpt lat="37.1100225" lon="-8.5110081">
        <ele>40.311</ele>
        <time>2018-09-21T19:14:47.954Z</time>
      </trkpt>
      <trkpt lat="37.1101121" lon="-8.5109513">
        <ele>40.297</ele>
        <time>2018-09-21T19:14:51.153Z</time>
      </trkpt>
      <trkpt lat="37.1102030" lon="-8.5108941">
        <ele>40.284</ele>
        <time>2018-09-21T19:14:54.279Z</time>
      </trkpt>
      <trkpt lat="37.1102847" lon="-8.5108460">
        <ele>40.259</ele>
        <time>2018-09-21T19:14:57.146Z</time>
      </trkpt>
      <trkpt lat="37.1103800" lon="-8.5107777">
        <ele>40.240</ele>
        <time>2018-09-21T19:15:00.706Z</time>
      </trkpt>
      <trkpt lat="37.1104763" lon="-8.5107107">
        <ele>40.253</ele>
        <time>2018-09-21T19:15:04.298Z</time>
      </trkpt>
      <trkpt lat="37.1105583" lon="-8.5106583">
        <ele>40.342</ele>
        <time>2018-09-21T19:15:07.317Z</time>
      </trkpt>
      <trkpt lat="37.1106411" lon="-8.5106127">
        <ele>40.672</ele>
        <time>2018-09-21T19:15:10.336Z</time>
      </trkpt>
      <trkpt lat="37.1107389" lon="-8.5105915">
        <ele>41.245</ele>
        <time>2018-09-21T19:15:13.616Z</time>
      </trkpt>
      <trkpt lat="37.1108380" lon="-8.5105814">
        <ele>41.579</ele>
        <time>2018-09-21T19:15:16.797Z</time>
      </trkpt>
      <trkpt lat="37.1109352" lon="-8.5105764">
        <ele>41.305</ele>
        <time>2018-09-21T19:15:19.865Z</time>
      </trkpt>
      <trkpt lat="37.1110365" lon="-8.5105899">
        <ele>40.652</ele>
        <time>2018-09-21T19:15:23.019Z</time>
      </trkpt>
      <trkpt lat="37.1111453" lon="-8.5106051">
        <ele>39.942</ele>
        <time>2018-09-21T19:15:26.309Z</time>
      </trkpt>
      <trkpt lat="37.1112512" lon="-8.5106150">
        <ele>39.337</ele>
        <time>2018-09-21T19:15:29.468Z</time>
      </trkpt>
      <trkpt lat="37.1113484" lon="-8.5106307">
        <ele>38.978</ele>
        <time>2018-09-21T19:15:32.354Z</time>
      </trkpt>
      <trkpt lat="37.1114445" lon="-8.5106603">
        <ele>38.874</ele>
        <time>2018-09-21T19:15:35.179Z</time>
      </trkpt>
      <trkpt lat="37.1115383" lon="-8.5107303">
        <ele>38.939</ele>
        <time>2018-09-21T19:15:38.193Z</time>
      </trkpt>
      <trkpt lat="37.1116276" lon="-8.5108204">
        <ele>39.094</ele>
        <time>2018-09-21T19:15:41.252Z</time>
      </trkpt>
      <trkpt lat="37.1117203" lon="-8.5109110">
        <ele>39.259</ele>
        <time>2018-09-21T19:15:44.316Z</time>
      </trkpt>
      <trkpt lat="37.1118174" lon="-8.5109977">
        <ele>39.384</ele>
        <time>2018-09-21T19:15:47.371Z</time>
      </trkpt>
      <trkpt lat="37.1119076" lon="-8.5110929">
        <ele>39.455</ele>
        <time>2018-09-21T19:15:50.347Z</time>
      </trkpt>
      <trkpt lat="37.1120041" lon="-8.5111830">
        <ele>39.476</ele>
        <time>2018-09-21T19:15:53.371Z</time>
      </trkpt>
      <trkpt lat="37.1120975" lon="-8.5112743">
        <ele>39.474</ele>
        <time>2018-09-21T19:15:56.458Z</time>
      </trkpt>
      <trkpt lat="37.1121750" lon="-8.5113608">
        <ele>39.373</ele>
        <time>2018-09-21T19:15:59.307Z</time>
      </trkpt>
      <trkpt lat="37.1122549" lon="-8.5114478">
        <ele>39.108</ele>
        <time>2018-09-21T19:16:02.117Z</time>
      </trkpt>
      <trkpt lat="37.1123468" lon="-8.5115390">
        <ele>38.808</ele>
        <time>2018-09-21T19:16:05.011Z</time>
      </trkpt>
      <trkpt lat="37.1124453" lon="-8.5116312">
        <ele>38.621</ele>
        <time>2018-09-21T19:16:08.082Z</time>
      </trkpt>
      <trkpt lat="37.1125337" lon="-8.5117031">
        <ele>38.598</ele>
        <time>2018-09-21T19:16:11.014Z</time>
      </trkpt>
      <trkpt lat="37.1126352" lon="-8.5117789">
        <ele>38.775</ele>
        <time>2018-09-21T19:16:14.585Z</time>
      </trkpt>
      <trkpt lat="37.1126987" lon="-8.5118616">
        <ele>39.005</ele>
        <time>2018-09-21T19:16:17.458Z</time>
      </trkpt>
      <trkpt lat="37.1127786" lon="-8.5119476">
        <ele>39.056</ele>
        <time>2018-09-21T19:16:20.542Z</time>
      </trkpt>
      <trkpt lat="37.1128636" lon="-8.5120406">
        <ele>38.922</ele>
        <time>2018-09-21T19:16:23.594Z</time>
      </trkpt>
      <trkpt lat="37.1129503" lon="-8.5121369">
        <ele>38.913</ele>
        <time>2018-09-21T19:16:26.722Z</time>
      </trkpt>
      <trkpt lat="37.1130304" lon="-8.5122213">
        <ele>39.197</ele>
        <time>2018-09-21T19:16:29.663Z</time>
      </trkpt>
      <trkpt lat="37.1131109" lon="-8.5123121">
        <ele>39.531</ele>
        <time>2018-09-21T19:16:32.685Z</time>
      </trkpt>
      <trkpt lat="37.1131909" lon="-8.5124085">
        <ele>39.641</ele>
        <time>2018-09-21T19:16:35.620Z</time>
      </trkpt>
      <trkpt lat="37.1132788" lon="-8.5125061">
        <ele>39.587</ele>
        <time>2018-09-21T19:16:38.562Z</time>
      </trkpt>
      <trkpt lat="37.1133768" lon="-8.5126101">
        <ele>39.565</ele>
        <time>2018-09-21T19:16:41.647Z</time>
      </trkpt>
      <trkpt lat="37.1134755" lon="-8.5127138">
        <ele>39.640</ele>
        <time>2018-09-21T19:16:44.668Z</time>
      </trkpt>
      <trkpt lat="37.1135735" lon="-8.5128147">
        <ele>39.703</ele>
        <time>2018-09-21T19:16:47.585Z</time>
      </trkpt>
      <trkpt lat="37.1136690" lon="-8.5129199">
        <ele>39.613</ele>
        <time>2018-09-21T19:16:50.531Z</time>
      </trkpt>
      <trkpt lat="37.1137589" lon="-8.5130197">
        <ele>39.382</ele>
        <time>2018-09-21T19:16:53.398Z</time>
      </trkpt>
      <trkpt lat="37.1138471" lon="-8.5131214">
        <ele>39.155</ele>
        <time>2018-09-21T19:16:56.292Z</time>
      </trkpt>
      <trkpt lat="37.1139460" lon="-8.5132232">
        <ele>39.016</ele>
        <time>2018-09-21T19:16:59.349Z</time>
      </trkpt>
      <trkpt lat="37.1140552" lon="-8.5133235">
        <ele>38.836</ele>
        <time>2018-09-21T19:17:02.525Z</time>
      </trkpt>
      <trkpt lat="37.1141662" lon="-8.5134210">
        <ele>38.486</ele>
        <time>2018-09-21T19:17:05.674Z</time>
      </trkpt>
      <trkpt lat="37.1142770" lon="-8.5135024">
        <ele>38.053</ele>
        <time>2018-09-21T19:17:08.668Z</time>
      </trkpt>
      <trkpt lat="37.1143906" lon="-8.5135759">
        <ele>37.716</ele>
        <time>2018-09-21T19:17:11.636Z</time>
      </trkpt>
      <trkpt lat="37.1145049" lon="-8.5136554">
        <ele>37.481</ele>
        <time>2018-09-21T19:17:14.626Z</time>
      </trkpt>
      <trkpt lat="37.1146062" lon="-8.5137225">
        <ele>37.259</ele>
        <time>2018-09-21T19:17:17.220Z</time>
      </trkpt>
      <trkpt lat="37.1147292" lon="-8.5138117">
        <ele>36.920</ele>
        <time>2018-09-21T19:17:20.404Z</time>
      </trkpt>
      <trkpt lat="37.1148429" lon="-8.5138904">
        <ele>36.393</ele>
        <time>2018-09-21T19:17:23.263Z</time>
      </trkpt>
      <trkpt lat="37.1149711" lon="-8.5139784">
        <ele>35.844</ele>
        <time>2018-09-21T19:17:26.336Z</time>
      </trkpt>
      <trkpt lat="37.1150960" lon="-8.5141008">
        <ele>35.510</ele>
        <time>2018-09-21T19:17:29.532Z</time>
      </trkpt>
      <trkpt lat="37.1152182" lon="-8.5142149">
        <ele>35.326</ele>
        <time>2018-09-21T19:17:32.525Z</time>
      </trkpt>
      <trkpt lat="37.1153204" lon="-8.5143698">
        <ele>34.990</ele>
        <time>2018-09-21T19:17:35.602Z</time>
      </trkpt>
      <trkpt lat="37.1154127" lon="-8.5145507">
        <ele>34.446</ele>
        <time>2018-09-21T19:17:38.882Z</time>
      </trkpt>
      <trkpt lat="37.1155014" lon="-8.5147028">
        <ele>34.079</ele>
        <time>2018-09-21T19:17:41.760Z</time>
      </trkpt>
      <trkpt lat="37.1155873" lon="-8.5148549">
        <ele>34.128</ele>
        <time>2018-09-21T19:17:44.578Z</time>
      </trkpt>
      <trkpt lat="37.1156769" lon="-8.5150208">
        <ele>34.340</ele>
        <time>2018-09-21T19:17:47.634Z</time>
      </trkpt>
      <trkpt lat="37.1157484" lon="-8.5151584">
        <ele>34.239</ele>
        <time>2018-09-21T19:17:50.187Z</time>
      </trkpt>
      <trkpt lat="37.1158368" lon="-8.5153259">
        <ele>33.565</ele>
        <time>2018-09-21T19:17:53.278Z</time>
      </trkpt>
      <trkpt lat="37.1159236" lon="-8.5155070">
        <ele>32.598</ele>
        <time>2018-09-21T19:17:56.448Z</time>
      </trkpt>
      <trkpt lat="37.1159727" lon="-8.5156120">
        <ele>31.809</ele>
        <time>2018-09-21T19:17:58.361Z</time>
      </trkpt>
      <trkpt lat="37.1160239" lon="-8.5157049">
        <ele>31.357</ele>
        <time>2018-09-21T19:18:00.310Z</time>
      </trkpt>
      <trkpt lat="37.1160905" lon="-8.5158398">
        <ele>31.149</ele>
        <time>2018-09-21T19:18:03.197Z</time>
      </trkpt>
      <trkpt lat="37.1161578" lon="-8.5159815">
        <ele>30.927</ele>
        <time>2018-09-21T19:18:06.210Z</time>
      </trkpt>
      <trkpt lat="37.1162109" lon="-8.5160857">
        <ele>30.557</ele>
        <time>2018-09-21T19:18:08.328Z</time>
      </trkpt>
      <trkpt lat="37.1162665" lon="-8.5161859">
        <ele>30.219</ele>
        <time>2018-09-21T19:18:10.322Z</time>
      </trkpt>
      <trkpt lat="37.1163321" lon="-8.5162870">
        <ele>30.038</ele>
        <time>2018-09-21T19:18:12.392Z</time>
      </trkpt>
      <trkpt lat="37.1164118" lon="-8.5163668">
        <ele>29.939</ele>
        <time>2018-09-21T19:18:14.399Z</time>
      </trkpt>
      <trkpt lat="37.1164993" lon="-8.5164373">
        <ele>29.826</ele>
        <time>2018-09-21T19:18:16.472Z</time>
      </trkpt>
      <trkpt lat="37.1165857" lon="-8.5165030">
        <ele>29.571</ele>
        <time>2018-09-21T19:18:18.508Z</time>
      </trkpt>
      <trkpt lat="37.1166821" lon="-8.5165522">
        <ele>29.188</ele>
        <time>2018-09-21T19:18:20.580Z</time>
      </trkpt>
      <trkpt lat="37.1167593" lon="-8.5166164">
        <ele>28.913</ele>
        <time>2018-09-21T19:18:22.402Z</time>
      </trkpt>
      <trkpt lat="37.1168511" lon="-8.5166933">
        <ele>28.868</ele>
        <time>2018-09-21T19:18:24.613Z</time>
      </trkpt>
      <trkpt lat="37.1169318" lon="-8.5167730">
        <ele>28.926</ele>
        <time>2018-09-21T19:18:26.728Z</time>
      </trkpt>
      <trkpt lat="37.1170106" lon="-8.5168343">
        <ele>28.791</ele>
        <time>2018-09-21T19:18:28.572Z</time>
      </trkpt>
      <trkpt lat="37.1170963" lon="-8.5169239">
        <ele>28.358</ele>
        <time>2018-09-21T19:18:30.695Z</time>
      </trkpt>
      <trkpt lat="37.1171619" lon="-8.5170120">
        <ele>27.909</ele>
        <time>2018-09-21T19:18:32.459Z</time>
      </trkpt>
      <trkpt lat="37.1172286" lon="-8.5171249">
        <ele>27.688</ele>
        <time>2018-09-21T19:18:34.445Z</time>
      </trkpt>
      <trkpt lat="37.1172871" lon="-8.5172556">
        <ele>27.636</ele>
        <time>2018-09-21T19:18:36.479Z</time>
      </trkpt>
      <trkpt lat="37.1173205" lon="-8.5174059">
        <ele>27.656</ele>
        <time>2018-09-21T19:18:38.682Z</time>
      </trkpt>
      <trkpt lat="37.1173417" lon="-8.5175904">
        <ele>27.691</ele>
        <time>2018-09-21T19:18:41.585Z</time>
      </trkpt>
      <trkpt lat="37.1173375" lon="-8.5177545">
        <ele>27.665</ele>
        <time>2018-09-21T19:18:44.387Z</time>
      </trkpt>
      <trkpt lat="37.1173368" lon="-8.5178782">
        <ele>27.507</ele>
        <time>2018-09-21T19:18:46.480Z</time>
      </trkpt>
      <trkpt lat="37.1173600" lon="-8.5180578">
        <ele>27.189</ele>
        <time>2018-09-21T19:18:49.485Z</time>
      </trkpt>
      <trkpt lat="37.1174087" lon="-8.5182272">
        <ele>26.636</ele>
        <time>2018-09-21T19:18:52.382Z</time>
      </trkpt>
      <trkpt lat="37.1174851" lon="-8.5184075">
        <ele>25.933</ele>
        <time>2018-09-21T19:18:55.546Z</time>
      </trkpt>
      <trkpt lat="37.1175964" lon="-8.5185591">
        <ele>25.389</ele>
        <time>2018-09-21T19:18:58.634Z</time>
      </trkpt>
      <trkpt lat="37.1177026" lon="-8.5187102">
        <ele>25.150</ele>
        <time>2018-09-21T19:19:01.680Z</time>
      </trkpt>
      <trkpt lat="37.1178136" lon="-8.5188378">
        <ele>25.020</ele>
        <time>2018-09-21T19:19:04.693Z</time>
      </trkpt>
      <trkpt lat="37.1179152" lon="-8.5189318">
        <ele>24.628</ele>
        <time>2018-09-21T19:19:07.284Z</time>
      </trkpt>
      <trkpt lat="37.1180132" lon="-8.5190754">
        <ele>23.917</ele>
        <time>2018-09-21T19:19:10.306Z</time>
      </trkpt>
      <trkpt lat="37.1180991" lon="-8.5192252">
        <ele>23.227</ele>
        <time>2018-09-21T19:19:13.208Z</time>
      </trkpt>
      <trkpt lat="37.1181943" lon="-8.5193353">
        <ele>22.763</ele>
        <time>2018-09-21T19:19:15.889Z</time>
      </trkpt>
      <trkpt lat="37.1182694" lon="-8.5194629">
        <ele>22.309</ele>
        <time>2018-09-21T19:19:18.899Z</time>
      </trkpt>
      <trkpt lat="37.1183276" lon="-8.5195721">
        <ele>21.546</ele>
        <time>2018-09-21T19:19:21.986Z</time>
      </trkpt>
      <trkpt lat="37.1183921" lon="-8.5196649">
        <ele>20.553</ele>
        <time>2018-09-21T19:19:25.423Z</time>
      </trkpt>
      <trkpt lat="37.1184793" lon="-8.5197450">
        <ele>19.733</ele>
        <time>2018-09-21T19:19:29.998Z</time>
      </trkpt>
      <trkpt lat="37.1184793" lon="-8.5197450">
        <ele>19.258</ele>
        <time>2018-09-21T19:19:34.998Z</time>
      </trkpt>
      <trkpt lat="37.1184793" lon="-8.5197450">
        <ele>19.082</ele>
        <time>2018-09-21T19:21:50.751Z</time>
      </trkpt>
      <trkpt lat="37.1186273" lon="-8.5198685">
        <ele>19.104</ele>
        <time>2018-09-21T19:22:02.303Z</time>
      </trkpt>
      <trkpt lat="37.1187306" lon="-8.5199017">
        <ele>19.154</ele>
        <time>2018-09-21T19:22:07.168Z</time>
      </trkpt>
      <trkpt lat="37.1188199" lon="-8.5199171">
        <ele>18.969</ele>
        <time>2018-09-21T19:22:11.612Z</time>
      </trkpt>
      <trkpt lat="37.1189194" lon="-8.5199592">
        <ele>18.310</ele>
        <time>2018-09-21T19:22:16.892Z</time>
      </trkpt>
      <trkpt lat="37.1190224" lon="-8.5199741">
        <ele>17.222</ele>
        <time>2018-09-21T19:22:21.948Z</time>
      </trkpt>
      <trkpt lat="37.1191159" lon="-8.5199782">
        <ele>15.765</ele>
        <time>2018-09-21T19:22:26.709Z</time>
      </trkpt>
      <trkpt lat="37.1192063" lon="-8.5199934">
        <ele>14.043</ele>
        <time>2018-09-21T19:22:30.940Z</time>
      </trkpt>
      <trkpt lat="37.1193049" lon="-8.5200149">
        <ele>12.554</ele>
        <time>2018-09-21T19:22:34.890Z</time>
      </trkpt>
      <trkpt lat="37.1194136" lon="-8.5200348">
        <ele>11.691</ele>
        <time>2018-09-21T19:22:38.226Z</time>
      </trkpt>
      <trkpt lat="37.1195721" lon="-8.5200745">
        <ele>11.289</ele>
        <time>2018-09-21T19:22:41.959Z</time>
      </trkpt>
      <trkpt lat="37.1197568" lon="-8.5201287">
        <ele>11.035</ele>
        <time>2018-09-21T19:22:45.684Z</time>
      </trkpt>
      <trkpt lat="37.1199126" lon="-8.5201203">
        <ele>10.606</ele>
        <time>2018-09-21T19:22:49.114Z</time>
      </trkpt>
      <trkpt lat="37.1200056" lon="-8.5200471">
        <ele>9.909</ele>
        <time>2018-09-21T19:22:52.682Z</time>
      </trkpt>
      <trkpt lat="37.1200978" lon="-8.5199834">
        <ele>9.078</ele>
        <time>2018-09-21T19:22:56.699Z</time>
      </trkpt>
      <trkpt lat="37.1201673" lon="-8.5198902">
        <ele>8.274</ele>
        <time>2018-09-21T19:23:01.994Z</time>
      </trkpt>
      <trkpt lat="37.1201673" lon="-8.5198902">
        <ele>7.760</ele>
        <time>2018-09-21T19:23:12.993Z</time>
      </trkpt>
      <trkpt lat="37.1101290" lon="-8.6732649">
        <ele>5.074</ele>
        <time>2018-09-22T08:41:05.997Z</time>
      </trkpt>
      <trkpt lat="37.1101290" lon="-8.6732649">
        <ele>5.073</ele>
        <time>2018-09-22T08:41:06.097Z</time>
      </trkpt>
      <trkpt lat="37.1099770" lon="-8.6734287">
        <ele>5.072</ele>
        <time>2018-09-22T08:41:19.994Z</time>
      </trkpt>
      <trkpt lat="37.1098866" lon="-8.6734881">
        <ele>4.990</ele>
        <time>2018-09-22T08:41:23.673Z</time>
      </trkpt>
      <trkpt lat="37.1097937" lon="-8.6734953">
        <ele>4.780</ele>
        <time>2018-09-22T08:41:26.764Z</time>
      </trkpt>
      <trkpt lat="37.1097026" lon="-8.6734650">
        <ele>4.565</ele>
        <time>2018-09-22T08:41:30.052Z</time>
      </trkpt>
      <trkpt lat="37.1096176" lon="-8.6733895">
        <ele>4.446</ele>
        <time>2018-09-22T08:41:34.498Z</time>
      </trkpt>
      <trkpt lat="37.1095278" lon="-8.6733399">
        <ele>4.312</ele>
        <time>2018-09-22T08:41:38.815Z</time>
      </trkpt>
      <trkpt lat="37.1094498" lon="-8.6732793">
        <ele>4.012</ele>
        <time>2018-09-22T08:41:42.100Z</time>
      </trkpt>
      <trkpt lat="37.1093670" lon="-8.6732085">
        <ele>3.567</ele>
        <time>2018-09-22T08:41:44.994Z</time>
      </trkpt>
      <trkpt lat="37.1092721" lon="-8.6731345">
        <ele>3.092</ele>
        <time>2018-09-22T08:41:47.980Z</time>
      </trkpt>
      <trkpt lat="37.1091776" lon="-8.6730612">
        <ele>2.658</ele>
        <time>2018-09-22T08:41:50.888Z</time>
      </trkpt>
      <trkpt lat="37.1090801" lon="-8.6729913">
        <ele>2.335</ele>
        <time>2018-09-22T08:41:53.883Z</time>
      </trkpt>
      <trkpt lat="37.1089972" lon="-8.6729373">
        <ele>2.110</ele>
        <time>2018-09-22T08:41:56.653Z</time>
      </trkpt>
      <trkpt lat="37.1089030" lon="-8.6728907">
        <ele>1.908</ele>
        <time>2018-09-22T08:41:59.896Z</time>
      </trkpt>
      <trkpt lat="37.1088150" lon="-8.6728479">
        <ele>1.755</ele>
        <time>2018-09-22T08:42:03.131Z</time>
      </trkpt>
      <trkpt lat="37.1087182" lon="-8.6728533">
        <ele>1.761</ele>
        <time>2018-09-22T08:42:06.570Z</time>
      </trkpt>
      <trkpt lat="37.1086276" lon="-8.6728811">
        <ele>1.946</ele>
        <time>2018-09-22T08:42:09.996Z</time>
      </trkpt>
      <trkpt lat="37.1086276" lon="-8.6728811">
        <ele>2.159</ele>
        <time>2018-09-22T08:42:21.996Z</time>
      </trkpt>
      <trkpt lat="37.1086276" lon="-8.6728811">
        <ele>2.255</ele>
        <time>2018-09-22T08:43:34.349Z</time>
      </trkpt>
      <trkpt lat="37.1084314" lon="-8.6730090">
        <ele>2.243</ele>
        <time>2018-09-22T08:43:50.340Z</time>
      </trkpt>
      <trkpt lat="37.1083776" lon="-8.6731157">
        <ele>2.298</ele>
        <time>2018-09-22T08:43:54.241Z</time>
      </trkpt>
      <trkpt lat="37.1083334" lon="-8.6732473">
        <ele>2.585</ele>
        <time>2018-09-22T08:43:58.142Z</time>
      </trkpt>
      <trkpt lat="37.1082859" lon="-8.6733461">
        <ele>2.968</ele>
        <time>2018-09-22T08:44:01.146Z</time>
      </trkpt>
      <trkpt lat="37.1082110" lon="-8.6734595">
        <ele>3.237</ele>
        <time>2018-09-22T08:44:04.745Z</time>
      </trkpt>
      <trkpt lat="37.1081451" lon="-8.6735833">
        <ele>3.349</ele>
        <time>2018-09-22T08:44:08.126Z</time>
      </trkpt>
      <trkpt lat="37.1080939" lon="-8.6737016">
        <ele>3.338</ele>
        <time>2018-09-22T08:44:11.190Z</time>
      </trkpt>
      <trkpt lat="37.1080487" lon="-8.6737994">
        <ele>3.231</ele>
        <time>2018-09-22T08:44:13.882Z</time>
      </trkpt>
      <trkpt lat="37.1079965" lon="-8.6739293">
        <ele>3.075</ele>
        <time>2018-09-22T08:44:17.559Z</time>
      </trkpt>
      <trkpt lat="37.1079486" lon="-8.6740577">
        <ele>2.945</ele>
        <time>2018-09-22T08:44:21.402Z</time>
      </trkpt>
      <trkpt lat="37.1079077" lon="-8.6741606">
        <ele>2.858</ele>
        <time>2018-09-22T08:44:24.934Z</time>
      </trkpt>
      <trkpt lat="37.1078427" lon="-8.6742411">
        <ele>2.745</ele>
        <time>2018-09-22T08:44:28.993Z</time>
      </trkpt>
      <trkpt lat="37.1078427" lon="-8.6742411">
        <ele>2.615</ele>
        <time>2018-09-22T08:44:40.992Z</time>
      </trkpt>
      <trkpt lat="37.1078427" lon="-8.6742411">
        <ele>2.541</ele>
        <time>2018-09-22T08:49:13.425Z</time>
      </trkpt>
      <trkpt lat="37.1077212" lon="-8.6744949">
        <ele>2.564</ele>
        <time>2018-09-22T08:49:47.052Z</time>
      </trkpt>
      <trkpt lat="37.1076611" lon="-8.6746019">
        <ele>2.751</ele>
        <time>2018-09-22T08:49:55.592Z</time>
      </trkpt>
      <trkpt lat="37.1076145" lon="-8.6747004">
        <ele>3.120</ele>
        <time>2018-09-22T08:50:01.750Z</time>
      </trkpt>
      <trkpt lat="37.1075743" lon="-8.6748096">
        <ele>3.499</ele>
        <time>2018-09-22T08:50:07.556Z</time>
      </trkpt>
      <trkpt lat="37.1076208" lon="-8.6749146">
        <ele>3.761</ele>
        <time>2018-09-22T08:50:13.021Z</time>
      </trkpt>
      <trkpt lat="37.1076172" lon="-8.6750296">
        <ele>3.933</ele>
        <time>2018-09-22T08:50:17.893Z</time>
      </trkpt>
      <trkpt lat="37.1075233" lon="-8.6750587">
        <ele>4.032</ele>
        <time>2018-09-22T08:50:23.533Z</time>
      </trkpt>
      <trkpt lat="37.1074392" lon="-8.6750145">
        <ele>4.034</ele>
        <time>2018-09-22T08:50:28.999Z</time>
      </trkpt>
      <trkpt lat="37.1074392" lon="-8.6750145">
        <ele>3.982</ele>
        <time>2018-09-22T08:50:42.999Z</time>
      </trkpt>
      <trkpt lat="37.1074392" lon="-8.6750145">
        <ele>3.957</ele>
        <time>2018-09-22T08:51:01.803Z</time>
      </trkpt>
      <trkpt lat="37.1072359" lon="-8.6750027">
        <ele>3.975</ele>
        <time>2018-09-22T08:51:14.423Z</time>
      </trkpt>
      <trkpt lat="37.1071371" lon="-8.6749441">
        <ele>4.132</ele>
        <time>2018-09-22T08:51:17.935Z</time>
      </trkpt>
      <trkpt lat="37.1070594" lon="-8.6748768">
        <ele>4.580</ele>
        <time>2018-09-22T08:51:20.982Z</time>
      </trkpt>
      <trkpt lat="37.1069578" lon="-8.6748017">
        <ele>5.231</ele>
        <time>2018-09-22T08:51:24.693Z</time>
      </trkpt>
      <trkpt lat="37.1068474" lon="-8.6747411">
        <ele>5.798</ele>
        <time>2018-09-22T08:51:28.310Z</time>
      </trkpt>
      <trkpt lat="37.1067695" lon="-8.6746825">
        <ele>5.877</ele>
        <time>2018-09-22T08:51:30.972Z</time>
      </trkpt>
      <trkpt lat="37.1066792" lon="-8.6746264">
        <ele>5.242</ele>
        <time>2018-09-22T08:51:33.876Z</time>
      </trkpt>
      <trkpt lat="37.1065841" lon="-8.6745630">
        <ele>4.198</ele>
        <time>2018-09-22T08:51:36.927Z</time>
      </trkpt>
      <trkpt lat="37.1065022" lon="-8.6744911">
        <ele>3.235</ele>
        <time>2018-09-22T08:51:39.839Z</time>
      </trkpt>
      <trkpt lat="37.1063953" lon="-8.6744143">
        <ele>2.611</ele>
        <time>2018-09-22T08:51:43.520Z</time>
      </trkpt>
      <trkpt lat="37.1063071" lon="-8.6743638">
        <ele>2.249</ele>
        <time>2018-09-22T08:51:46.474Z</time>
      </trkpt>
      <trkpt lat="37.1062276" lon="-8.6743060">
        <ele>1.946</ele>
        <time>2018-09-22T08:51:49.342Z</time>
      </trkpt>
      <trkpt lat="37.1061248" lon="-8.6742340">
        <ele>1.743</ele>
        <time>2018-09-22T08:51:53.009Z</time>
      </trkpt>
      <trkpt lat="37.1060216" lon="-8.6741795">
        <ele>1.738</ele>
        <time>2018-09-22T08:51:56.480Z</time>
      </trkpt>
      <trkpt lat="37.1059212" lon="-8.6741172">
        <ele>1.825</ele>
        <time>2018-09-22T08:51:59.986Z</time>
      </trkpt>
      <trkpt lat="37.1058370" lon="-8.6740689">
        <ele>2.061</ele>
        <time>2018-09-22T08:52:02.979Z</time>
      </trkpt>
      <trkpt lat="37.1057280" lon="-8.6740184">
        <ele>2.527</ele>
        <time>2018-09-22T08:52:06.826Z</time>
      </trkpt>
      <trkpt lat="37.1056392" lon="-8.6739559">
        <ele>2.948</ele>
        <time>2018-09-22T08:52:10.385Z</time>
      </trkpt>
      <trkpt lat="37.1055529" lon="-8.6738941">
        <ele>3.056</ele>
        <time>2018-09-22T08:52:13.997Z</time>
      </trkpt>
      <trkpt lat="37.1055529" lon="-8.6738941">
        <ele>2.968</ele>
        <time>2018-09-22T08:52:20.997Z</time>
      </trkpt>
      <trkpt lat="37.1055529" lon="-8.6738941">
        <ele>2.897</ele>
        <time>2018-09-22T08:52:39.997Z</time>
      </trkpt>
      <trkpt lat="37.1055888" lon="-8.6738963">
        <ele>2.586</ele>
        <time>2018-09-22T09:01:48.994Z</time>
      </trkpt>
      <trkpt lat="37.1055888" lon="-8.6738963">
        <ele>2.585</ele>
        <time>2018-09-22T09:01:58.994Z</time>
      </trkpt>
      <trkpt lat="37.1055888" lon="-8.6738963">
        <ele>2.585</ele>
        <time>2018-09-22T09:04:36.331Z</time>
      </trkpt>
      <trkpt lat="37.1054167" lon="-8.6738172">
        <ele>2.584</ele>
        <time>2018-09-22T09:04:52.478Z</time>
      </trkpt>
      <trkpt lat="37.1053266" lon="-8.6737719">
        <ele>2.543</ele>
        <time>2018-09-22T09:04:58.460Z</time>
      </trkpt>
      <trkpt lat="37.1052431" lon="-8.6737134">
        <ele>2.438</ele>
        <time>2018-09-22T09:05:04.088Z</time>
      </trkpt>
      <trkpt lat="37.1051805" lon="-8.6736288">
        <ele>2.330</ele>
        <time>2018-09-22T09:05:09.249Z</time>
      </trkpt>
      <trkpt lat="37.1051071" lon="-8.6735619">
        <ele>2.222</ele>
        <time>2018-09-22T09:05:14.708Z</time>
      </trkpt>
      <trkpt lat="37.1050210" lon="-8.6735108">
        <ele>2.066</ele>
        <time>2018-09-22T09:05:20.427Z</time>
      </trkpt>
      <trkpt lat="37.1049360" lon="-8.6734685">
        <ele>1.956</ele>
        <time>2018-09-22T09:05:25.702Z</time>
      </trkpt>
      <trkpt lat="37.1048616" lon="-8.6733963">
        <ele>2.068</ele>
        <time>2018-09-22T09:05:31.677Z</time>
      </trkpt>
      <trkpt lat="37.1047696" lon="-8.6733628">
        <ele>2.442</ele>
        <time>2018-09-22T09:05:38.448Z</time>
      </trkpt>
      <trkpt lat="37.1047096" lon="-8.6732675">
        <ele>3.098</ele>
        <time>2018-09-22T09:05:43.562Z</time>
      </trkpt>
      <trkpt lat="37.1046328" lon="-8.6731934">
        <ele>3.970</ele>
        <time>2018-09-22T09:05:47.322Z</time>
      </trkpt>
      <trkpt lat="37.1045572" lon="-8.6731315">
        <ele>4.761</ele>
        <time>2018-09-22T09:05:50.217Z</time>
      </trkpt>
      <trkpt lat="37.1044725" lon="-8.6730660">
        <ele>5.216</ele>
        <time>2018-09-22T09:05:53.072Z</time>
      </trkpt>
      <trkpt lat="37.1043760" lon="-8.6730026">
        <ele>5.381</ele>
        <time>2018-09-22T09:05:56.074Z</time>
      </trkpt>
      <trkpt lat="37.1042733" lon="-8.6729482">
        <ele>5.408</ele>
        <time>2018-09-22T09:05:59.145Z</time>
      </trkpt>
      <trkpt lat="37.1041676" lon="-8.6729040">
        <ele>5.467</ele>
        <time>2018-09-22T09:06:02.180Z</time>
      </trkpt>
      <trkpt lat="37.1040655" lon="-8.6728583">
        <ele>5.670</ele>
        <time>2018-09-22T09:06:05.021Z</time>
      </trkpt>
      <trkpt lat="37.1039526" lon="-8.6728079">
        <ele>5.983</ele>
        <time>2018-09-22T09:06:08.072Z</time>
      </trkpt>
      <trkpt lat="37.1038357" lon="-8.6727771">
        <ele>6.301</ele>
        <time>2018-09-22T09:06:10.987Z</time>
      </trkpt>
      <trkpt lat="37.1037241" lon="-8.6727164">
        <ele>6.586</ele>
        <time>2018-09-22T09:06:13.895Z</time>
      </trkpt>
      <trkpt lat="37.1036172" lon="-8.6726152">
        <ele>6.819</ele>
        <time>2018-09-22T09:06:17.321Z</time>
      </trkpt>
      <trkpt lat="37.1035316" lon="-8.6724972">
        <ele>6.966</ele>
        <time>2018-09-22T09:06:20.734Z</time>
      </trkpt>
      <trkpt lat="37.1034500" lon="-8.6724064">
        <ele>6.956</ele>
        <time>2018-09-22T09:06:23.504Z</time>
      </trkpt>
      <trkpt lat="37.1033581" lon="-8.6723125">
        <ele>6.793</ele>
        <time>2018-09-22T09:06:26.440Z</time>
      </trkpt>
      <trkpt lat="37.1032599" lon="-8.6722316">
        <ele>6.670</ele>
        <time>2018-09-22T09:06:29.345Z</time>
      </trkpt>
      <trkpt lat="37.1031595" lon="-8.6721440">
        <ele>6.764</ele>
        <time>2018-09-22T09:06:32.376Z</time>
      </trkpt>
      <trkpt lat="37.1030660" lon="-8.6720473">
        <ele>7.015</ele>
        <time>2018-09-22T09:06:35.324Z</time>
      </trkpt>
      <trkpt lat="37.1029585" lon="-8.6719715">
        <ele>7.258</ele>
        <time>2018-09-22T09:06:38.183Z</time>
      </trkpt>
      <trkpt lat="37.1028416" lon="-8.6718902">
        <ele>7.293</ele>
        <time>2018-09-22T09:06:41.194Z</time>
      </trkpt>
      <trkpt lat="37.1027257" lon="-8.6717961">
        <ele>7.031</ele>
        <time>2018-09-22T09:06:44.298Z</time>
      </trkpt>
      <trkpt lat="37.1026151" lon="-8.6717027">
        <ele>6.697</ele>
        <time>2018-09-22T09:06:47.214Z</time>
      </trkpt>
      <trkpt lat="37.1024947" lon="-8.6716128">
        <ele>6.583</ele>
        <time>2018-09-22T09:06:50.165Z</time>
      </trkpt>
      <trkpt lat="37.1023656" lon="-8.6715009">
        <ele>6.717</ele>
        <time>2018-09-22T09:06:53.405Z</time>
      </trkpt>
      <trkpt lat="37.1022381" lon="-8.6714185">
        <ele>7.051</ele>
        <time>2018-09-22T09:06:56.372Z</time>
      </trkpt>
      <trkpt lat="37.1021051" lon="-8.6713205">
        <ele>7.494</ele>
        <time>2018-09-22T09:06:59.597Z</time>
      </trkpt>
      <trkpt lat="37.1019886" lon="-8.6712196">
        <ele>7.756</ele>
        <time>2018-09-22T09:07:02.557Z</time>
      </trkpt>
      <trkpt lat="37.1018694" lon="-8.6711259">
        <ele>7.654</ele>
        <time>2018-09-22T09:07:05.456Z</time>
      </trkpt>
      <trkpt lat="37.1017546" lon="-8.6710269">
        <ele>7.379</ele>
        <time>2018-09-22T09:07:08.321Z</time>
      </trkpt>
      <trkpt lat="37.1016381" lon="-8.6709150">
        <ele>7.138</ele>
        <time>2018-09-22T09:07:11.415Z</time>
      </trkpt>
      <trkpt lat="37.1015283" lon="-8.6707962">
        <ele>6.949</ele>
        <time>2018-09-22T09:07:14.501Z</time>
      </trkpt>
      <trkpt lat="37.1014166" lon="-8.6706870">
        <ele>6.832</ele>
        <time>2018-09-22T09:07:17.576Z</time>
      </trkpt>
      <trkpt lat="37.1012910" lon="-8.6705763">
        <ele>6.786</ele>
        <time>2018-09-22T09:07:21.042Z</time>
      </trkpt>
      <trkpt lat="37.1011792" lon="-8.6704686">
        <ele>6.799</ele>
        <time>2018-09-22T09:07:24.221Z</time>
      </trkpt>
      <trkpt lat="37.1010796" lon="-8.6703574">
        <ele>6.829</ele>
        <time>2018-09-22T09:07:27.100Z</time>
      </trkpt>
      <trkpt lat="37.1009598" lon="-8.6702569">
        <ele>6.795</ele>
        <time>2018-09-22T09:07:30.075Z</time>
      </trkpt>
      <trkpt lat="37.1008556" lon="-8.6701399">
        <ele>6.689</ele>
        <time>2018-09-22T09:07:32.916Z</time>
      </trkpt>
      <trkpt lat="37.1007457" lon="-8.6700221">
        <ele>6.604</ele>
        <time>2018-09-22T09:07:35.710Z</time>
      </trkpt>
      <trkpt lat="37.1006442" lon="-8.6698890">
        <ele>6.569</ele>
        <time>2018-09-22T09:07:38.586Z</time>
      </trkpt>
      <trkpt lat="37.1005227" lon="-8.6697860">
        <ele>6.414</ele>
        <time>2018-09-22T09:07:41.656Z</time>
      </trkpt>
      <trkpt lat="37.1004115" lon="-8.6696871">
        <ele>6.024</ele>
        <time>2018-09-22T09:07:44.592Z</time>
      </trkpt>
      <trkpt lat="37.1002901" lon="-8.6695923">
        <ele>5.634</ele>
        <time>2018-09-22T09:07:47.764Z</time>
      </trkpt>
      <trkpt lat="37.1001779" lon="-8.6695109">
        <ele>5.499</ele>
        <time>2018-09-22T09:07:50.717Z</time>
      </trkpt>
      <trkpt lat="37.1000633" lon="-8.6694173">
        <ele>5.569</ele>
        <time>2018-09-22T09:07:54.156Z</time>
      </trkpt>
      <trkpt lat="37.0999548" lon="-8.6693295">
        <ele>5.679</ele>
        <time>2018-09-22T09:07:57.085Z</time>
      </trkpt>
      <trkpt lat="37.0998328" lon="-8.6692646">
        <ele>5.663</ele>
        <time>2018-09-22T09:07:59.884Z</time>
      </trkpt>
      <trkpt lat="37.0996828" lon="-8.6691676">
        <ele>5.397</ele>
        <time>2018-09-22T09:08:03.734Z</time>
      </trkpt>
      <trkpt lat="37.0995754" lon="-8.6691175">
        <ele>4.824</ele>
        <time>2018-09-22T09:08:06.408Z</time>
      </trkpt>
      <trkpt lat="37.0994477" lon="-8.6690684">
        <ele>4.060</ele>
        <time>2018-09-22T09:08:09.652Z</time>
      </trkpt>
      <trkpt lat="37.0993645" lon="-8.6690148">
        <ele>3.338</ele>
        <time>2018-09-22T09:08:11.972Z</time>
      </trkpt>
      <trkpt lat="37.0992385" lon="-8.6689580">
        <ele>2.690</ele>
        <time>2018-09-22T09:08:15.797Z</time>
      </trkpt>
      <trkpt lat="37.0991261" lon="-8.6689088">
        <ele>2.079</ele>
        <time>2018-09-22T09:08:19.412Z</time>
      </trkpt>
      <trkpt lat="37.0990231" lon="-8.6688616">
        <ele>1.763</ele>
        <time>2018-09-22T09:08:22.887Z</time>
      </trkpt>
      <trkpt lat="37.0988942" lon="-8.6688585">
        <ele>2.040</ele>
        <time>2018-09-22T09:08:27.225Z</time>
      </trkpt>
      <trkpt lat="37.0988105" lon="-8.6688109">
        <ele>2.851</ele>
        <time>2018-09-22T09:08:30.053Z</time>
      </trkpt>
      <trkpt lat="37.0987212" lon="-8.6687829">
        <ele>3.770</ele>
        <time>2018-09-22T09:08:32.851Z</time>
      </trkpt>
      <trkpt lat="37.0985840" lon="-8.6688161">
        <ele>4.359</ele>
        <time>2018-09-22T09:08:37.290Z</time>
      </trkpt>
      <trkpt lat="37.0984834" lon="-8.6687772">
        <ele>4.577</ele>
        <time>2018-09-22T09:08:40.323Z</time>
      </trkpt>
      <trkpt lat="37.0983881" lon="-8.6687820">
        <ele>4.829</ele>
        <time>2018-09-22T09:08:43.468Z</time>
      </trkpt>
      <trkpt lat="37.0982583" lon="-8.6688021">
        <ele>5.353</ele>
        <time>2018-09-22T09:08:48.564Z</time>
      </trkpt>
      <trkpt lat="37.0981684" lon="-8.6687661">
        <ele>5.763</ele>
        <time>2018-09-22T09:08:51.664Z</time>
      </trkpt>
      <trkpt lat="37.0980529" lon="-8.6687969">
        <ele>5.721</ele>
        <time>2018-09-22T09:08:55.978Z</time>
      </trkpt>
      <trkpt lat="37.0979471" lon="-8.6687968">
        <ele>5.764</ele>
        <time>2018-09-22T09:08:59.570Z</time>
      </trkpt>
      <trkpt lat="37.0978596" lon="-8.6687637">
        <ele>6.456</ele>
        <time>2018-09-22T09:09:02.268Z</time>
      </trkpt>
      <trkpt lat="37.0977465" lon="-8.6687507">
        <ele>7.537</ele>
        <time>2018-09-22T09:09:05.809Z</time>
      </trkpt>
      <trkpt lat="37.0976038" lon="-8.6687631">
        <ele>8.474</ele>
        <time>2018-09-22T09:09:11.210Z</time>
      </trkpt>
      <trkpt lat="37.0975057" lon="-8.6687080">
        <ele>9.179</ele>
        <time>2018-09-22T09:09:14.955Z</time>
      </trkpt>
      <trkpt lat="37.0973842" lon="-8.6687264">
        <ele>9.918</ele>
        <time>2018-09-22T09:09:18.618Z</time>
      </trkpt>
      <trkpt lat="37.0972593" lon="-8.6687350">
        <ele>10.768</ele>
        <time>2018-09-22T09:09:22.764Z</time>
      </trkpt>
      <trkpt lat="37.0971306" lon="-8.6687546">
        <ele>11.496</ele>
        <time>2018-09-22T09:09:27.048Z</time>
      </trkpt>
      <trkpt lat="37.0970244" lon="-8.6687164">
        <ele>12.042</ele>
        <time>2018-09-22T09:09:30.583Z</time>
      </trkpt>
      <trkpt lat="37.0968997" lon="-8.6687573">
        <ele>12.646</ele>
        <time>2018-09-22T09:09:35.242Z</time>
      </trkpt>
      <trkpt lat="37.0967986" lon="-8.6687712">
        <ele>13.576</ele>
        <time>2018-09-22T09:09:38.690Z</time>
      </trkpt>
      <trkpt lat="37.0966870" lon="-8.6687882">
        <ele>14.962</ele>
        <time>2018-09-22T09:09:42.383Z</time>
      </trkpt>
      <trkpt lat="37.0965839" lon="-8.6688149">
        <ele>16.762</ele>
        <time>2018-09-22T09:09:45.968Z</time>
      </trkpt>
      <trkpt lat="37.0964914" lon="-8.6688774">
        <ele>18.720</ele>
        <time>2018-09-22T09:09:49.972Z</time>
      </trkpt>
      <trkpt lat="37.0964069" lon="-8.6689249">
        <ele>20.347</ele>
        <time>2018-09-22T09:09:52.983Z</time>
      </trkpt>
      <trkpt lat="37.0963175" lon="-8.6689746">
        <ele>21.378</ele>
        <time>2018-09-22T09:09:55.728Z</time>
      </trkpt>
      <trkpt lat="37.0962359" lon="-8.6690460">
        <ele>21.996</ele>
        <time>2018-09-22T09:09:58.640Z</time>
      </trkpt>
      <trkpt lat="37.0961629" lon="-8.6691480">
        <ele>22.546</ele>
        <time>2018-09-22T09:10:01.995Z</time>
      </trkpt>
      <trkpt lat="37.0960836" lon="-8.6692340">
        <ele>23.272</ele>
        <time>2018-09-22T09:10:05.707Z</time>
      </trkpt>
      <trkpt lat="37.0959886" lon="-8.6693206">
        <ele>24.087</ele>
        <time>2018-09-22T09:10:09.996Z</time>
      </trkpt>
      <trkpt lat="37.0959102" lon="-8.6693966">
        <ele>24.668</ele>
        <time>2018-09-22T09:10:13.319Z</time>
      </trkpt>
      <trkpt lat="37.0958384" lon="-8.6694798">
        <ele>24.893</ele>
        <time>2018-09-22T09:10:16.599Z</time>
      </trkpt>
      <trkpt lat="37.0957788" lon="-8.6695651">
        <ele>25.005</ele>
        <time>2018-09-22T09:10:19.366Z</time>
      </trkpt>
      <trkpt lat="37.0957542" lon="-8.6696784">
        <ele>25.343</ele>
        <time>2018-09-22T09:10:22.001Z</time>
      </trkpt>
      <trkpt lat="37.0957066" lon="-8.6697982">
        <ele>25.898</ele>
        <time>2018-09-22T09:10:25.371Z</time>
      </trkpt>
      <trkpt lat="37.0956789" lon="-8.6699283">
        <ele>26.494</ele>
        <time>2018-09-22T09:10:28.941Z</time>
      </trkpt>
      <trkpt lat="37.0956450" lon="-8.6700336">
        <ele>27.266</ele>
        <time>2018-09-22T09:10:32.085Z</time>
      </trkpt>
      <trkpt lat="37.0955981" lon="-8.6701457">
        <ele>28.236</ele>
        <time>2018-09-22T09:10:35.600Z</time>
      </trkpt>
      <trkpt lat="37.0955622" lon="-8.6702858">
        <ele>29.199</ele>
        <time>2018-09-22T09:10:39.958Z</time>
      </trkpt>
      <trkpt lat="37.0955486" lon="-8.6704067">
        <ele>30.115</ele>
        <time>2018-09-22T09:10:44.138Z</time>
      </trkpt>
      <trkpt lat="37.0954635" lon="-8.6704686">
        <ele>30.913</ele>
        <time>2018-09-22T09:10:48.991Z</time>
      </trkpt>
      <trkpt lat="37.0954635" lon="-8.6704686">
        <ele>31.368</ele>
        <time>2018-09-22T09:10:52.990Z</time>
      </trkpt>
      <trkpt lat="37.0954635" lon="-8.6704686">
        <ele>31.471</ele>
        <time>2018-09-22T09:13:38.850Z</time>
      </trkpt>
      <trkpt lat="37.0955413" lon="-8.6706548">
        <ele>31.414</ele>
        <time>2018-09-22T09:13:50.503Z</time>
      </trkpt>
      <trkpt lat="37.0955478" lon="-8.6707954">
        <ele>31.664</ele>
        <time>2018-09-22T09:13:54.696Z</time>
      </trkpt>
      <trkpt lat="37.0955298" lon="-8.6709394">
        <ele>32.545</ele>
        <time>2018-09-22T09:13:58.592Z</time>
      </trkpt>
      <trkpt lat="37.0955336" lon="-8.6710567">
        <ele>33.664</ele>
        <time>2018-09-22T09:14:01.652Z</time>
      </trkpt>
      <trkpt lat="37.0955211" lon="-8.6712054">
        <ele>34.504</ele>
        <time>2018-09-22T09:14:05.587Z</time>
      </trkpt>
      <trkpt lat="37.0955108" lon="-8.6713182">
        <ele>35.020</ele>
        <time>2018-09-22T09:14:08.575Z</time>
      </trkpt>
      <trkpt lat="37.0955048" lon="-8.6714331">
        <ele>35.247</ele>
        <time>2018-09-22T09:14:11.570Z</time>
      </trkpt>
      <trkpt lat="37.0955061" lon="-8.6715578">
        <ele>35.241</ele>
        <time>2018-09-22T09:14:14.671Z</time>
      </trkpt>
      <trkpt lat="37.0955079" lon="-8.6716870">
        <ele>35.171</ele>
        <time>2018-09-22T09:14:17.670Z</time>
      </trkpt>
      <trkpt lat="37.0955052" lon="-8.6718260">
        <ele>35.207</ele>
        <time>2018-09-22T09:14:20.696Z</time>
      </trkpt>
      <trkpt lat="37.0955054" lon="-8.6719645">
        <ele>35.375</ele>
        <time>2018-09-22T09:14:23.562Z</time>
      </trkpt>
      <trkpt lat="37.0955152" lon="-8.6721058">
        <ele>35.471</ele>
        <time>2018-09-22T09:14:26.327Z</time>
      </trkpt>
      <trkpt lat="37.0955079" lon="-8.6722665">
        <ele>35.349</ele>
        <time>2018-09-22T09:14:29.358Z</time>
      </trkpt>
      <trkpt lat="37.0954994" lon="-8.6724184">
        <ele>35.152</ele>
        <time>2018-09-22T09:14:32.304Z</time>
      </trkpt>
      <trkpt lat="37.0954950" lon="-8.6725654">
        <ele>35.045</ele>
        <time>2018-09-22T09:14:35.232Z</time>
      </trkpt>
      <trkpt lat="37.0954948" lon="-8.6727106">
        <ele>35.035</ele>
        <time>2018-09-22T09:14:38.093Z</time>
      </trkpt>
      <trkpt lat="37.0954892" lon="-8.6728637">
        <ele>35.146</ele>
        <time>2018-09-22T09:14:41.071Z</time>
      </trkpt>
      <trkpt lat="37.0954821" lon="-8.6730145">
        <ele>35.479</ele>
        <time>2018-09-22T09:14:43.998Z</time>
      </trkpt>
      <trkpt lat="37.0954836" lon="-8.6731642">
        <ele>35.958</ele>
        <time>2018-09-22T09:14:46.915Z</time>
      </trkpt>
      <trkpt lat="37.0954855" lon="-8.6733134">
        <ele>36.381</ele>
        <time>2018-09-22T09:14:49.876Z</time>
      </trkpt>
      <trkpt lat="37.0954835" lon="-8.6734582">
        <ele>36.765</ele>
        <time>2018-09-22T09:14:52.761Z</time>
      </trkpt>
      <trkpt lat="37.0954818" lon="-8.6736024">
        <ele>37.295</ele>
        <time>2018-09-22T09:14:55.698Z</time>
      </trkpt>
      <trkpt lat="37.0954865" lon="-8.6737428">
        <ele>38.073</ele>
        <time>2018-09-22T09:14:58.570Z</time>
      </trkpt>
      <trkpt lat="37.0954927" lon="-8.6738862">
        <ele>38.929</ele>
        <time>2018-09-22T09:15:01.455Z</time>
      </trkpt>
      <trkpt lat="37.0954922" lon="-8.6740234">
        <ele>39.574</ele>
        <time>2018-09-22T09:15:04.255Z</time>
      </trkpt>
      <trkpt lat="37.0954975" lon="-8.6741609">
        <ele>39.929</ele>
        <time>2018-09-22T09:15:07.250Z</time>
      </trkpt>
      <trkpt lat="37.0954923" lon="-8.6742869">
        <ele>40.149</ele>
        <time>2018-09-22T09:15:10.244Z</time>
      </trkpt>
      <trkpt lat="37.0954935" lon="-8.6744142">
        <ele>40.388</ele>
        <time>2018-09-22T09:15:13.466Z</time>
      </trkpt>
      <trkpt lat="37.0954969" lon="-8.6745598">
        <ele>40.721</ele>
        <time>2018-09-22T09:15:17.746Z</time>
      </trkpt>
      <trkpt lat="37.0955341" lon="-8.6746778">
        <ele>41.082</ele>
        <time>2018-09-22T09:15:21.750Z</time>
      </trkpt>
      <trkpt lat="37.0955952" lon="-8.6748061">
        <ele>41.365</ele>
        <time>2018-09-22T09:15:25.842Z</time>
      </trkpt>
      <trkpt lat="37.0956028" lon="-8.6749448">
        <ele>41.536</ele>
        <time>2018-09-22T09:15:28.992Z</time>
      </trkpt>
      <trkpt lat="37.0955531" lon="-8.6750849">
        <ele>41.692</ele>
        <time>2018-09-22T09:15:32.339Z</time>
      </trkpt>
      <trkpt lat="37.0954552" lon="-8.6751607">
        <ele>41.890</ele>
        <time>2018-09-22T09:15:35.560Z</time>
      </trkpt>
      <trkpt lat="37.0953395" lon="-8.6751192">
        <ele>42.089</ele>
        <time>2018-09-22T09:15:39.065Z</time>
      </trkpt>
      <trkpt lat="37.0952621" lon="-8.6750163">
        <ele>42.244</ele>
        <time>2018-09-22T09:15:43.137Z</time>
      </trkpt>
      <trkpt lat="37.0951946" lon="-8.6749283">
        <ele>42.351</ele>
        <time>2018-09-22T09:15:47.048Z</time>
      </trkpt>
      <trkpt lat="37.0950883" lon="-8.6748835">
        <ele>42.440</ele>
        <time>2018-09-22T09:15:51.186Z</time>
      </trkpt>
      <trkpt lat="37.0949970" lon="-8.6748550">
        <ele>42.585</ele>
        <time>2018-09-22T09:15:54.523Z</time>
      </trkpt>
      <trkpt lat="37.0949065" lon="-8.6748382">
        <ele>42.912</ele>
        <time>2018-09-22T09:15:57.605Z</time>
      </trkpt>
      <trkpt lat="37.0947908" lon="-8.6748120">
        <ele>43.433</ele>
        <time>2018-09-22T09:16:02.015Z</time>
      </trkpt>
      <trkpt lat="37.0946949" lon="-8.6748136">
        <ele>44.110</ele>
        <time>2018-09-22T09:16:06.066Z</time>
      </trkpt>
      <trkpt lat="37.0945918" lon="-8.6748221">
        <ele>44.858</ele>
        <time>2018-09-22T09:16:09.837Z</time>
      </trkpt>
      <trkpt lat="37.0944999" lon="-8.6748234">
        <ele>45.424</ele>
        <time>2018-09-22T09:16:12.894Z</time>
      </trkpt>
      <trkpt lat="37.0943846" lon="-8.6748361">
        <ele>45.731</ele>
        <time>2018-09-22T09:16:17.306Z</time>
      </trkpt>
      <trkpt lat="37.0942836" lon="-8.6748400">
        <ele>45.977</ele>
        <time>2018-09-22T09:16:21.401Z</time>
      </trkpt>
      <trkpt lat="37.0941688" lon="-8.6748314">
        <ele>46.152</ele>
        <time>2018-09-22T09:16:25.573Z</time>
      </trkpt>
      <trkpt lat="37.0940580" lon="-8.6748125">
        <ele>46.182</ele>
        <time>2018-09-22T09:16:29.529Z</time>
      </trkpt>
      <trkpt lat="37.0939520" lon="-8.6748429">
        <ele>46.138</ele>
        <time>2018-09-22T09:16:33.523Z</time>
      </trkpt>
      <trkpt lat="37.0938558" lon="-8.6748312">
        <ele>46.131</ele>
        <time>2018-09-22T09:16:37.484Z</time>
      </trkpt>
      <trkpt lat="37.0937790" lon="-8.6748901">
        <ele>46.151</ele>
        <time>2018-09-22T09:16:41.919Z</time>
      </trkpt>
      <trkpt lat="37.0937134" lon="-8.6749733">
        <ele>46.109</ele>
        <time>2018-09-22T09:16:46.994Z</time>
      </trkpt>
      <trkpt lat="37.0937134" lon="-8.6749733">
        <ele>46.020</ele>
        <time>2018-09-22T09:16:53.994Z</time>
      </trkpt>
      <trkpt lat="37.0937134" lon="-8.6749733">
        <ele>45.965</ele>
        <time>2018-09-22T09:18:29.016Z</time>
      </trkpt>
      <trkpt lat="37.0936527" lon="-8.6751703">
        <ele>45.962</ele>
        <time>2018-09-22T09:18:40.097Z</time>
      </trkpt>
      <trkpt lat="37.0936208" lon="-8.6752954">
        <ele>46.074</ele>
        <time>2018-09-22T09:18:43.392Z</time>
      </trkpt>
      <trkpt lat="37.0935853" lon="-8.6754185">
        <ele>46.318</ele>
        <time>2018-09-22T09:18:46.457Z</time>
      </trkpt>
      <trkpt lat="37.0935452" lon="-8.6755318">
        <ele>46.553</ele>
        <time>2018-09-22T09:18:49.306Z</time>
      </trkpt>
      <trkpt lat="37.0935069" lon="-8.6756435">
        <ele>46.660</ele>
        <time>2018-09-22T09:18:52.066Z</time>
      </trkpt>
      <trkpt lat="37.0934663" lon="-8.6757602">
        <ele>46.681</ele>
        <time>2018-09-22T09:18:54.917Z</time>
      </trkpt>
      <trkpt lat="37.0934292" lon="-8.6758811">
        <ele>46.678</ele>
        <time>2018-09-22T09:18:57.712Z</time>
      </trkpt>
      <trkpt lat="37.0933966" lon="-8.6760136">
        <ele>46.684</ele>
        <time>2018-09-22T09:19:00.626Z</time>
      </trkpt>
      <trkpt lat="37.0933668" lon="-8.6761468">
        <ele>46.706</ele>
        <time>2018-09-22T09:19:03.545Z</time>
      </trkpt>
      <trkpt lat="37.0933293" lon="-8.6762773">
        <ele>46.749</ele>
        <time>2018-09-22T09:19:06.508Z</time>
      </trkpt>
      <trkpt lat="37.0932771" lon="-8.6763948">
        <ele>46.811</ele>
        <time>2018-09-22T09:19:09.406Z</time>
      </trkpt>
      <trkpt lat="37.0932225" lon="-8.6765223">
        <ele>46.864</ele>
        <time>2018-09-22T09:19:12.510Z</time>
      </trkpt>
      <trkpt lat="37.0931741" lon="-8.6766363">
        <ele>46.995</ele>
        <time>2018-09-22T09:19:15.306Z</time>
      </trkpt>
      <trkpt lat="37.0931456" lon="-8.6767594">
        <ele>47.378</ele>
        <time>2018-09-22T09:19:18.135Z</time>
      </trkpt>
      <trkpt lat="37.0931147" lon="-8.6768851">
        <ele>47.992</ele>
        <time>2018-09-22T09:19:21.023Z</time>
      </trkpt>
      <trkpt lat="37.0930797" lon="-8.6770176">
        <ele>48.572</ele>
        <time>2018-09-22T09:19:24.068Z</time>
      </trkpt>
      <trkpt lat="37.0930422" lon="-8.6771423">
        <ele>48.902</ele>
        <time>2018-09-22T09:19:27.039Z</time>
      </trkpt>
      <trkpt lat="37.0930018" lon="-8.6772686">
        <ele>49.004</ele>
        <time>2018-09-22T09:19:30.051Z</time>
      </trkpt>
      <trkpt lat="37.0929631" lon="-8.6774062">
        <ele>49.152</ele>
        <time>2018-09-22T09:19:33.184Z</time>
      </trkpt>
      <trkpt lat="37.0929258" lon="-8.6775379">
        <ele>49.533</ele>
        <time>2018-09-22T09:19:36.164Z</time>
      </trkpt>
      <trkpt lat="37.0928959" lon="-8.6776708">
        <ele>50.112</ele>
        <time>2018-09-22T09:19:39.097Z</time>
      </trkpt>
      <trkpt lat="37.0928611" lon="-8.6778052">
        <ele>50.775</ele>
        <time>2018-09-22T09:19:42.090Z</time>
      </trkpt>
      <trkpt lat="37.0928295" lon="-8.6779379">
        <ele>51.426</ele>
        <time>2018-09-22T09:19:45.041Z</time>
      </trkpt>
      <trkpt lat="37.0928175" lon="-8.6780664">
        <ele>52.101</ele>
        <time>2018-09-22T09:19:47.965Z</time>
      </trkpt>
      <trkpt lat="37.0928825" lon="-8.6781591">
        <ele>52.873</ele>
        <time>2018-09-22T09:19:51.008Z</time>
      </trkpt>
      <trkpt lat="37.0929784" lon="-8.6782041">
        <ele>53.641</ele>
        <time>2018-09-22T09:19:54.103Z</time>
      </trkpt>
      <trkpt lat="37.0930871" lon="-8.6782663">
        <ele>54.250</ele>
        <time>2018-09-22T09:19:57.313Z</time>
      </trkpt>
      <trkpt lat="37.0931905" lon="-8.6783443">
        <ele>54.444</ele>
        <time>2018-09-22T09:20:00.278Z</time>
      </trkpt>
      <trkpt lat="37.0932908" lon="-8.6784205">
        <ele>54.100</ele>
        <time>2018-09-22T09:20:03.146Z</time>
      </trkpt>
      <trkpt lat="37.0933903" lon="-8.6785054">
        <ele>53.560</ele>
        <time>2018-09-22T09:20:06.525Z</time>
      </trkpt>
      <trkpt lat="37.0934921" lon="-8.6785580">
        <ele>53.340</ele>
        <time>2018-09-22T09:20:09.960Z</time>
      </trkpt>
      <trkpt lat="37.0935802" lon="-8.6786039">
        <ele>53.567</ele>
        <time>2018-09-22T09:20:12.908Z</time>
      </trkpt>
      <trkpt lat="37.0936775" lon="-8.6786835">
        <ele>53.846</ele>
        <time>2018-09-22T09:20:16.255Z</time>
      </trkpt>
      <trkpt lat="37.0937852" lon="-8.6787676">
        <ele>53.784</ele>
        <time>2018-09-22T09:20:19.562Z</time>
      </trkpt>
      <trkpt lat="37.0938904" lon="-8.6788680">
        <ele>53.479</ele>
        <time>2018-09-22T09:20:22.694Z</time>
      </trkpt>
      <trkpt lat="37.0939994" lon="-8.6789575">
        <ele>53.141</ele>
        <time>2018-09-22T09:20:25.801Z</time>
      </trkpt>
      <trkpt lat="37.0941102" lon="-8.6790245">
        <ele>52.831</ele>
        <time>2018-09-22T09:20:28.830Z</time>
      </trkpt>
      <trkpt lat="37.0942187" lon="-8.6791166">
        <ele>52.678</ele>
        <time>2018-09-22T09:20:32.000Z</time>
      </trkpt>
      <trkpt lat="37.0943344" lon="-8.6792073">
        <ele>52.777</ele>
        <time>2018-09-22T09:20:35.351Z</time>
      </trkpt>
      <trkpt lat="37.0944416" lon="-8.6792826">
        <ele>52.990</ele>
        <time>2018-09-22T09:20:38.366Z</time>
      </trkpt>
      <trkpt lat="37.0945502" lon="-8.6793583">
        <ele>53.214</ele>
        <time>2018-09-22T09:20:41.335Z</time>
      </trkpt>
      <trkpt lat="37.0946574" lon="-8.6794332">
        <ele>53.439</ele>
        <time>2018-09-22T09:20:44.233Z</time>
      </trkpt>
      <trkpt lat="37.0947575" lon="-8.6795187">
        <ele>53.578</ele>
        <time>2018-09-22T09:20:47.135Z</time>
      </trkpt>
      <trkpt lat="37.0948519" lon="-8.6795933">
        <ele>53.576</ele>
        <time>2018-09-22T09:20:49.879Z</time>
      </trkpt>
      <trkpt lat="37.0949465" lon="-8.6796689">
        <ele>53.560</ele>
        <time>2018-09-22T09:20:52.740Z</time>
      </trkpt>
      <trkpt lat="37.0950377" lon="-8.6797407">
        <ele>53.732</ele>
        <time>2018-09-22T09:20:55.664Z</time>
      </trkpt>
      <trkpt lat="37.0951277" lon="-8.6798089">
        <ele>54.137</ele>
        <time>2018-09-22T09:20:58.647Z</time>
      </trkpt>
      <trkpt lat="37.0952212" lon="-8.6798730">
        <ele>54.658</ele>
        <time>2018-09-22T09:21:01.687Z</time>
      </trkpt>
      <trkpt lat="37.0953181" lon="-8.6799366">
        <ele>55.173</ele>
        <time>2018-09-22T09:21:04.769Z</time>
      </trkpt>
      <trkpt lat="37.0954028" lon="-8.6800025">
        <ele>55.584</ele>
        <time>2018-09-22T09:21:07.547Z</time>
      </trkpt>
      <trkpt lat="37.0954892" lon="-8.6800720">
        <ele>55.825</ele>
        <time>2018-09-22T09:21:10.443Z</time>
      </trkpt>
      <trkpt lat="37.0955768" lon="-8.6801391">
        <ele>55.945</ele>
        <time>2018-09-22T09:21:13.457Z</time>
      </trkpt>
      <trkpt lat="37.0956630" lon="-8.6801926">
        <ele>56.142</ele>
        <time>2018-09-22T09:21:16.207Z</time>
      </trkpt>
      <trkpt lat="37.0957669" lon="-8.6802573">
        <ele>56.604</ele>
        <time>2018-09-22T09:21:19.286Z</time>
      </trkpt>
      <trkpt lat="37.0958729" lon="-8.6803008">
        <ele>57.192</ele>
        <time>2018-09-22T09:21:22.221Z</time>
      </trkpt>
      <trkpt lat="37.0959814" lon="-8.6803050">
        <ele>57.572</ele>
        <time>2018-09-22T09:21:25.173Z</time>
      </trkpt>
      <trkpt lat="37.0960856" lon="-8.6802651">
        <ele>57.595</ele>
        <time>2018-09-22T09:21:28.089Z</time>
      </trkpt>
      <trkpt lat="37.0962076" lon="-8.6802642">
        <ele>57.345</ele>
        <time>2018-09-22T09:21:31.293Z</time>
      </trkpt>
      <trkpt lat="37.0962816" lon="-8.6803848">
        <ele>57.005</ele>
        <time>2018-09-22T09:21:34.559Z</time>
      </trkpt>
      <trkpt lat="37.0963144" lon="-8.6804941">
        <ele>56.607</ele>
        <time>2018-09-22T09:21:37.163Z</time>
      </trkpt>
      <trkpt lat="37.0963246" lon="-8.6806208">
        <ele>56.102</ele>
        <time>2018-09-22T09:21:39.912Z</time>
      </trkpt>
      <trkpt lat="37.0963820" lon="-8.6807559">
        <ele>55.643</ele>
        <time>2018-09-22T09:21:42.930Z</time>
      </trkpt>
      <trkpt lat="37.0964670" lon="-8.6808705">
        <ele>55.377</ele>
        <time>2018-09-22T09:21:45.795Z</time>
      </trkpt>
      <trkpt lat="37.0965662" lon="-8.6809701">
        <ele>55.169</ele>
        <time>2018-09-22T09:21:48.661Z</time>
      </trkpt>
      <trkpt lat="37.0966763" lon="-8.6810899">
        <ele>54.870</ele>
        <time>2018-09-22T09:21:52.005Z</time>
      </trkpt>
      <trkpt lat="37.0967543" lon="-8.6811935">
        <ele>54.518</ele>
        <time>2018-09-22T09:21:54.678Z</time>
      </trkpt>
      <trkpt lat="37.0968549" lon="-8.6812708">
        <ele>54.114</ele>
        <time>2018-09-22T09:21:57.480Z</time>
      </trkpt>
      <trkpt lat="37.0969637" lon="-8.6813591">
        <ele>53.532</ele>
        <time>2018-09-22T09:22:00.433Z</time>
      </trkpt>
      <trkpt lat="37.0971103" lon="-8.6814189">
        <ele>52.828</ele>
        <time>2018-09-22T09:22:03.769Z</time>
      </trkpt>
      <trkpt lat="37.0972187" lon="-8.6814855">
        <ele>52.109</ele>
        <time>2018-09-22T09:22:06.281Z</time>
      </trkpt>
      <trkpt lat="37.0973860" lon="-8.6814831">
        <ele>51.299</ele>
        <time>2018-09-22T09:22:09.445Z</time>
      </trkpt>
      <trkpt lat="37.0975629" lon="-8.6814907">
        <ele>50.386</ele>
        <time>2018-09-22T09:22:12.588Z</time>
      </trkpt>
      <trkpt lat="37.0976950" lon="-8.6815379">
        <ele>49.476</ele>
        <time>2018-09-22T09:22:15.113Z</time>
      </trkpt>
      <trkpt lat="37.0978745" lon="-8.6815884">
        <ele>48.688</ele>
        <time>2018-09-22T09:22:18.410Z</time>
      </trkpt>
      <trkpt lat="37.0980327" lon="-8.6816560">
        <ele>48.039</ele>
        <time>2018-09-22T09:22:21.143Z</time>
      </trkpt>
      <trkpt lat="37.0982053" lon="-8.6817040">
        <ele>47.229</ele>
        <time>2018-09-22T09:22:23.901Z</time>
      </trkpt>
      <trkpt lat="37.0983864" lon="-8.6817863">
        <ele>45.866</ele>
        <time>2018-09-22T09:22:26.910Z</time>
      </trkpt>
      <trkpt lat="37.0985213" lon="-8.6819230">
        <ele>44.153</ele>
        <time>2018-09-22T09:22:29.912Z</time>
      </trkpt>
      <trkpt lat="37.0986059" lon="-8.6820149">
        <ele>42.743</ele>
        <time>2018-09-22T09:22:32.178Z</time>
      </trkpt>
      <trkpt lat="37.0986551" lon="-8.6821327">
        <ele>41.982</ele>
        <time>2018-09-22T09:22:34.996Z</time>
      </trkpt>
      <trkpt lat="37.0986551" lon="-8.6821327">
        <ele>41.742</ele>
        <time>2018-09-22T09:22:38.995Z</time>
      </trkpt>
      <trkpt lat="37.0986551" lon="-8.6821327">
        <ele>41.777</ele>
        <time>2018-09-22T09:24:31.728Z</time>
      </trkpt>
      <trkpt lat="37.0987515" lon="-8.6823694">
        <ele>41.868</ele>
        <time>2018-09-22T09:24:46.819Z</time>
      </trkpt>
      <trkpt lat="37.0987468" lon="-8.6825173">
        <ele>41.920</ele>
        <time>2018-09-22T09:24:50.122Z</time>
      </trkpt>
      <trkpt lat="37.0987589" lon="-8.6826568">
        <ele>41.990</ele>
        <time>2018-09-22T09:24:53.152Z</time>
      </trkpt>
      <trkpt lat="37.0987829" lon="-8.6827911">
        <ele>42.178</ele>
        <time>2018-09-22T09:24:56.233Z</time>
      </trkpt>
      <trkpt lat="37.0988154" lon="-8.6829205">
        <ele>42.499</ele>
        <time>2018-09-22T09:24:59.315Z</time>
      </trkpt>
      <trkpt lat="37.0988411" lon="-8.6830448">
        <ele>42.850</ele>
        <time>2018-09-22T09:25:02.151Z</time>
      </trkpt>
      <trkpt lat="37.0988672" lon="-8.6831693">
        <ele>43.090</ele>
        <time>2018-09-22T09:25:04.995Z</time>
      </trkpt>
      <trkpt lat="37.0988915" lon="-8.6832958">
        <ele>43.186</ele>
        <time>2018-09-22T09:25:07.988Z</time>
      </trkpt>
      <trkpt lat="37.0989162" lon="-8.6834232">
        <ele>43.302</ele>
        <time>2018-09-22T09:25:11.095Z</time>
      </trkpt>
      <trkpt lat="37.0989384" lon="-8.6835493">
        <ele>43.620</ele>
        <time>2018-09-22T09:25:14.145Z</time>
      </trkpt>
      <trkpt lat="37.0989628" lon="-8.6836734">
        <ele>44.103</ele>
        <time>2018-09-22T09:25:17.088Z</time>
      </trkpt>
      <trkpt lat="37.0989848" lon="-8.6837948">
        <ele>44.572</ele>
        <time>2018-09-22T09:25:19.888Z</time>
      </trkpt>
      <trkpt lat="37.0990096" lon="-8.6839192">
        <ele>44.927</ele>
        <time>2018-09-22T09:25:22.706Z</time>
      </trkpt>
      <trkpt lat="37.0990323" lon="-8.6840509">
        <ele>45.221</ele>
        <time>2018-09-22T09:25:25.668Z</time>
      </trkpt>
      <trkpt lat="37.0990510" lon="-8.6841688">
        <ele>45.641</ele>
        <time>2018-09-22T09:25:28.347Z</time>
      </trkpt>
      <trkpt lat="37.0990750" lon="-8.6842945">
        <ele>46.265</ele>
        <time>2018-09-22T09:25:31.132Z</time>
      </trkpt>
      <trkpt lat="37.0990939" lon="-8.6844266">
        <ele>46.919</ele>
        <time>2018-09-22T09:25:34.105Z</time>
      </trkpt>
      <trkpt lat="37.0991089" lon="-8.6845806">
        <ele>47.458</ele>
        <time>2018-09-22T09:25:37.815Z</time>
      </trkpt>
      <trkpt lat="37.0991037" lon="-8.6846945">
        <ele>47.936</ele>
        <time>2018-09-22T09:25:40.743Z</time>
      </trkpt>
      <trkpt lat="37.0991048" lon="-8.6848433">
        <ele>48.497</ele>
        <time>2018-09-22T09:25:44.633Z</time>
      </trkpt>
      <trkpt lat="37.0990996" lon="-8.6849564">
        <ele>49.140</ele>
        <time>2018-09-22T09:25:47.518Z</time>
      </trkpt>
      <trkpt lat="37.0991167" lon="-8.6850778">
        <ele>49.644</ele>
        <time>2018-09-22T09:25:50.387Z</time>
      </trkpt>
      <trkpt lat="37.0991221" lon="-8.6852169">
        <ele>49.807</ele>
        <time>2018-09-22T09:25:53.343Z</time>
      </trkpt>
      <trkpt lat="37.0991216" lon="-8.6853689">
        <ele>49.650</ele>
        <time>2018-09-22T09:25:56.251Z</time>
      </trkpt>
      <trkpt lat="37.0991102" lon="-8.6855487">
        <ele>49.335</ele>
        <time>2018-09-22T09:25:59.261Z</time>
      </trkpt>
      <trkpt lat="37.0991089" lon="-8.6857510">
        <ele>48.928</ele>
        <time>2018-09-22T09:26:02.313Z</time>
      </trkpt>
      <trkpt lat="37.0991202" lon="-8.6859521">
        <ele>48.410</ele>
        <time>2018-09-22T09:26:05.297Z</time>
      </trkpt>
      <trkpt lat="37.0991167" lon="-8.6861494">
        <ele>47.909</ele>
        <time>2018-09-22T09:26:08.191Z</time>
      </trkpt>
      <trkpt lat="37.0990965" lon="-8.6863646">
        <ele>47.571</ele>
        <time>2018-09-22T09:26:11.256Z</time>
      </trkpt>
      <trkpt lat="37.0990632" lon="-8.6865751">
        <ele>47.332</ele>
        <time>2018-09-22T09:26:14.346Z</time>
      </trkpt>
      <trkpt lat="37.0990304" lon="-8.6867640">
        <ele>47.063</ele>
        <time>2018-09-22T09:26:17.431Z</time>
      </trkpt>
      <trkpt lat="37.0990049" lon="-8.6869112">
        <ele>46.725</ele>
        <time>2018-09-22T09:26:20.167Z</time>
      </trkpt>
      <trkpt lat="37.0990079" lon="-8.6870593">
        <ele>46.341</ele>
        <time>2018-09-22T09:26:23.036Z</time>
      </trkpt>
      <trkpt lat="37.0989587" lon="-8.6872226">
        <ele>45.990</ele>
        <time>2018-09-22T09:26:26.320Z</time>
      </trkpt>
      <trkpt lat="37.0989509" lon="-8.6873879">
        <ele>45.807</ele>
        <time>2018-09-22T09:26:29.241Z</time>
      </trkpt>
      <trkpt lat="37.0989592" lon="-8.6875571">
        <ele>45.848</ele>
        <time>2018-09-22T09:26:32.082Z</time>
      </trkpt>
      <trkpt lat="37.0989948" lon="-8.6877348">
        <ele>45.984</ele>
        <time>2018-09-22T09:26:35.129Z</time>
      </trkpt>
      <trkpt lat="37.0990502" lon="-8.6878909">
        <ele>45.927</ele>
        <time>2018-09-22T09:26:38.166Z</time>
      </trkpt>
      <trkpt lat="37.0990980" lon="-8.6880378">
        <ele>45.580</ele>
        <time>2018-09-22T09:26:41.378Z</time>
      </trkpt>
      <trkpt lat="37.0991524" lon="-8.6881462">
        <ele>45.195</ele>
        <time>2018-09-22T09:26:44.172Z</time>
      </trkpt>
      <trkpt lat="37.0992140" lon="-8.6882599">
        <ele>44.814</ele>
        <time>2018-09-22T09:26:47.071Z</time>
      </trkpt>
      <trkpt lat="37.0992411" lon="-8.6884116">
        <ele>44.251</ele>
        <time>2018-09-22T09:26:49.965Z</time>
      </trkpt>
      <trkpt lat="37.0992811" lon="-8.6885849">
        <ele>43.508</ele>
        <time>2018-09-22T09:26:52.820Z</time>
      </trkpt>
      <trkpt lat="37.0993376" lon="-8.6887763">
        <ele>42.710</ele>
        <time>2018-09-22T09:26:55.668Z</time>
      </trkpt>
      <trkpt lat="37.0993813" lon="-8.6890000">
        <ele>41.814</ele>
        <time>2018-09-22T09:26:58.615Z</time>
      </trkpt>
      <trkpt lat="37.0993941" lon="-8.6892422">
        <ele>40.704</ele>
        <time>2018-09-22T09:27:01.529Z</time>
      </trkpt>
      <trkpt lat="37.0993882" lon="-8.6895137">
        <ele>39.385</ele>
        <time>2018-09-22T09:27:04.642Z</time>
      </trkpt>
      <trkpt lat="37.0993808" lon="-8.6897855">
        <ele>38.062</ele>
        <time>2018-09-22T09:27:07.732Z</time>
      </trkpt>
      <trkpt lat="37.0993734" lon="-8.6900474">
        <ele>36.931</ele>
        <time>2018-09-22T09:27:10.893Z</time>
      </trkpt>
      <trkpt lat="37.0993607" lon="-8.6902680">
        <ele>36.132</ele>
        <time>2018-09-22T09:27:13.843Z</time>
      </trkpt>
      <trkpt lat="37.0993454" lon="-8.6904776">
        <ele>35.716</ele>
        <time>2018-09-22T09:27:16.874Z</time>
      </trkpt>
      <trkpt lat="37.0993359" lon="-8.6906903">
        <ele>35.508</ele>
        <time>2018-09-22T09:27:20.073Z</time>
      </trkpt>
      <trkpt lat="37.0993524" lon="-8.6908780">
        <ele>35.262</ele>
        <time>2018-09-22T09:27:22.973Z</time>
      </trkpt>
      <trkpt lat="37.0993542" lon="-8.6910689">
        <ele>34.935</ele>
        <time>2018-09-22T09:27:25.961Z</time>
      </trkpt>
      <trkpt lat="37.0993308" lon="-8.6912598">
        <ele>34.605</ele>
        <time>2018-09-22T09:27:29.084Z</time>
      </trkpt>
      <trkpt lat="37.0993056" lon="-8.6914263">
        <ele>34.415</ele>
        <time>2018-09-22T09:27:32.012Z</time>
      </trkpt>
      <trkpt lat="37.0993060" lon="-8.6915415">
        <ele>34.446</ele>
        <time>2018-09-22T09:27:34.147Z</time>
      </trkpt>
      <trkpt lat="37.0992798" lon="-8.6916992">
        <ele>34.395</ele>
        <time>2018-09-22T09:27:37.360Z</time>
      </trkpt>
      <trkpt lat="37.0992524" lon="-8.6918230">
        <ele>34.031</ele>
        <time>2018-09-22T09:27:40.278Z</time>
      </trkpt>
      <trkpt lat="37.0992639" lon="-8.6919408">
        <ele>33.706</ele>
        <time>2018-09-22T09:27:43.408Z</time>
      </trkpt>
      <trkpt lat="37.0992421" lon="-8.6920612">
        <ele>33.763</ele>
        <time>2018-09-22T09:27:47.409Z</time>
      </trkpt>
      <trkpt lat="37.0992272" lon="-8.6922281">
        <ele>33.969</ele>
        <time>2018-09-22T09:27:51.265Z</time>
      </trkpt>
      <trkpt lat="37.0992122" lon="-8.6923912">
        <ele>34.036</ele>
        <time>2018-09-22T09:27:54.343Z</time>
      </trkpt>
      <trkpt lat="37.0991419" lon="-8.6925459">
        <ele>33.976</ele>
        <time>2018-09-22T09:27:57.471Z</time>
      </trkpt>
      <trkpt lat="37.0990694" lon="-8.6927263">
        <ele>33.902</ele>
        <time>2018-09-22T09:28:00.801Z</time>
      </trkpt>
      <trkpt lat="37.0990159" lon="-8.6928947">
        <ele>33.872</ele>
        <time>2018-09-22T09:28:03.893Z</time>
      </trkpt>
      <trkpt lat="37.0989965" lon="-8.6930508">
        <ele>33.889</ele>
        <time>2018-09-22T09:28:06.665Z</time>
      </trkpt>
      <trkpt lat="37.0989662" lon="-8.6932299">
        <ele>33.905</ele>
        <time>2018-09-22T09:28:09.804Z</time>
      </trkpt>
      <trkpt lat="37.0989472" lon="-8.6933820">
        <ele>33.884</ele>
        <time>2018-09-22T09:28:12.429Z</time>
      </trkpt>
      <trkpt lat="37.0989269" lon="-8.6935522">
        <ele>33.889</ele>
        <time>2018-09-22T09:28:15.427Z</time>
      </trkpt>
      <trkpt lat="37.0988844" lon="-8.6936709">
        <ele>34.011</ele>
        <time>2018-09-22T09:28:17.787Z</time>
      </trkpt>
      <trkpt lat="37.0988313" lon="-8.6938229">
        <ele>34.280</ele>
        <time>2018-09-22T09:28:21.035Z</time>
      </trkpt>
      <trkpt lat="37.0987772" lon="-8.6939572">
        <ele>34.637</ele>
        <time>2018-09-22T09:28:24.111Z</time>
      </trkpt>
      <trkpt lat="37.0987649" lon="-8.6941209">
        <ele>35.055</ele>
        <time>2018-09-22T09:28:27.450Z</time>
      </trkpt>
      <trkpt lat="37.0987707" lon="-8.6942672">
        <ele>35.489</ele>
        <time>2018-09-22T09:28:30.482Z</time>
      </trkpt>
      <trkpt lat="37.0987445" lon="-8.6944009">
        <ele>35.657</ele>
        <time>2018-09-22T09:28:33.412Z</time>
      </trkpt>
      <trkpt lat="37.0987007" lon="-8.6945391">
        <ele>35.392</ele>
        <time>2018-09-22T09:28:36.613Z</time>
      </trkpt>
      <trkpt lat="37.0986735" lon="-8.6946759">
        <ele>35.118</ele>
        <time>2018-09-22T09:28:39.748Z</time>
      </trkpt>
      <trkpt lat="37.0986568" lon="-8.6948001">
        <ele>35.259</ele>
        <time>2018-09-22T09:28:42.669Z</time>
      </trkpt>
      <trkpt lat="37.0986568" lon="-8.6949179">
        <ele>35.713</ele>
        <time>2018-09-22T09:28:45.442Z</time>
      </trkpt>
      <trkpt lat="37.0986507" lon="-8.6950490">
        <ele>36.166</ele>
        <time>2018-09-22T09:28:48.514Z</time>
      </trkpt>
      <trkpt lat="37.0986492" lon="-8.6951755">
        <ele>36.444</ele>
        <time>2018-09-22T09:28:51.417Z</time>
      </trkpt>
      <trkpt lat="37.0986424" lon="-8.6953119">
        <ele>36.549</ele>
        <time>2018-09-22T09:28:54.446Z</time>
      </trkpt>
      <trkpt lat="37.0986262" lon="-8.6954522">
        <ele>36.630</ele>
        <time>2018-09-22T09:28:57.454Z</time>
      </trkpt>
      <trkpt lat="37.0986228" lon="-8.6955981">
        <ele>36.790</ele>
        <time>2018-09-22T09:29:00.426Z</time>
      </trkpt>
      <trkpt lat="37.0986062" lon="-8.6957509">
        <ele>36.968</ele>
        <time>2018-09-22T09:29:03.457Z</time>
      </trkpt>
      <trkpt lat="37.0985925" lon="-8.6959055">
        <ele>37.149</ele>
        <time>2018-09-22T09:29:06.494Z</time>
      </trkpt>
      <trkpt lat="37.0985857" lon="-8.6960517">
        <ele>37.405</ele>
        <time>2018-09-22T09:29:09.475Z</time>
      </trkpt>
      <trkpt lat="37.0985642" lon="-8.6961921">
        <ele>37.760</ele>
        <time>2018-09-22T09:29:12.523Z</time>
      </trkpt>
      <trkpt lat="37.0985139" lon="-8.6963167">
        <ele>38.203</ele>
        <time>2018-09-22T09:29:15.556Z</time>
      </trkpt>
      <trkpt lat="37.0984729" lon="-8.6964382">
        <ele>38.667</ele>
        <time>2018-09-22T09:29:18.422Z</time>
      </trkpt>
      <trkpt lat="37.0984278" lon="-8.6965725">
        <ele>39.042</ele>
        <time>2018-09-22T09:29:21.529Z</time>
      </trkpt>
      <trkpt lat="37.0983840" lon="-8.6967063">
        <ele>39.455</ele>
        <time>2018-09-22T09:29:24.560Z</time>
      </trkpt>
      <trkpt lat="37.0983427" lon="-8.6968406">
        <ele>40.027</ele>
        <time>2018-09-22T09:29:27.608Z</time>
      </trkpt>
      <trkpt lat="37.0983075" lon="-8.6969678">
        <ele>40.544</ele>
        <time>2018-09-22T09:29:30.527Z</time>
      </trkpt>
      <trkpt lat="37.0982612" lon="-8.6970989">
        <ele>40.831</ele>
        <time>2018-09-22T09:29:33.641Z</time>
      </trkpt>
      <trkpt lat="37.0982203" lon="-8.6972274">
        <ele>41.077</ele>
        <time>2018-09-22T09:29:36.588Z</time>
      </trkpt>
      <trkpt lat="37.0981760" lon="-8.6973615">
        <ele>41.516</ele>
        <time>2018-09-22T09:29:39.610Z</time>
      </trkpt>
      <trkpt lat="37.0981322" lon="-8.6974905">
        <ele>42.102</ele>
        <time>2018-09-22T09:29:42.438Z</time>
      </trkpt>
      <trkpt lat="37.0981045" lon="-8.6976423">
        <ele>42.572</ele>
        <time>2018-09-22T09:29:45.554Z</time>
      </trkpt>
      <trkpt lat="37.0980769" lon="-8.6977549">
        <ele>42.864</ele>
        <time>2018-09-22T09:29:48.061Z</time>
      </trkpt>
      <trkpt lat="37.0980448" lon="-8.6978615">
        <ele>43.164</ele>
        <time>2018-09-22T09:29:50.676Z</time>
      </trkpt>
      <trkpt lat="37.0980213" lon="-8.6979969">
        <ele>43.516</ele>
        <time>2018-09-22T09:29:53.826Z</time>
      </trkpt>
      <trkpt lat="37.0980016" lon="-8.6981503">
        <ele>43.800</ele>
        <time>2018-09-22T09:29:57.095Z</time>
      </trkpt>
      <trkpt lat="37.0979704" lon="-8.6982929">
        <ele>44.016</ele>
        <time>2018-09-22T09:30:00.172Z</time>
      </trkpt>
      <trkpt lat="37.0979529" lon="-8.6984303">
        <ele>44.345</ele>
        <time>2018-09-22T09:30:03.125Z</time>
      </trkpt>
      <trkpt lat="37.0979438" lon="-8.6985750">
        <ele>44.810</ele>
        <time>2018-09-22T09:30:06.140Z</time>
      </trkpt>
      <trkpt lat="37.0979450" lon="-8.6987193">
        <ele>45.269</ele>
        <time>2018-09-22T09:30:09.069Z</time>
      </trkpt>
      <trkpt lat="37.0979435" lon="-8.6988707">
        <ele>45.631</ele>
        <time>2018-09-22T09:30:12.097Z</time>
      </trkpt>
      <trkpt lat="37.0979392" lon="-8.6990124">
        <ele>45.851</ele>
        <time>2018-09-22T09:30:14.944Z</time>
      </trkpt>
      <trkpt lat="37.0979454" lon="-8.6991595">
        <ele>46.082</ele>
        <time>2018-09-22T09:30:17.901Z</time>
      </trkpt>
      <trkpt lat="37.0979339" lon="-8.6993135">
        <ele>46.527</ele>
        <time>2018-09-22T09:30:20.921Z</time>
      </trkpt>
      <trkpt lat="37.0979137" lon="-8.6994634">
        <ele>47.113</ele>
        <time>2018-09-22T09:30:23.898Z</time>
      </trkpt>
      <trkpt lat="37.0979149" lon="-8.6996122">
        <ele>47.674</ele>
        <time>2018-09-22T09:30:26.872Z</time>
      </trkpt>
      <trkpt lat="37.0979273" lon="-8.6997610">
        <ele>48.055</ele>
        <time>2018-09-22T09:30:29.860Z</time>
      </trkpt>
      <trkpt lat="37.0979578" lon="-8.6999255">
        <ele>48.075</ele>
        <time>2018-09-22T09:30:33.131Z</time>
      </trkpt>
      <trkpt lat="37.0979772" lon="-8.7000744">
        <ele>47.794</ele>
        <time>2018-09-22T09:30:36.057Z</time>
      </trkpt>
      <trkpt lat="37.0980141" lon="-8.7002199">
        <ele>47.580</ele>
        <time>2018-09-22T09:30:39.020Z</time>
      </trkpt>
      <trkpt lat="37.0980831" lon="-8.7003600">
        <ele>47.844</ele>
        <time>2018-09-22T09:30:42.163Z</time>
      </trkpt>
      <trkpt lat="37.0981184" lon="-8.7004990">
        <ele>48.531</ele>
        <time>2018-09-22T09:30:45.026Z</time>
      </trkpt>
      <trkpt lat="37.0981531" lon="-8.7006314">
        <ele>49.279</ele>
        <time>2018-09-22T09:30:47.882Z</time>
      </trkpt>
      <trkpt lat="37.0981876" lon="-8.7007798">
        <ele>49.966</ele>
        <time>2018-09-22T09:30:51.073Z</time>
      </trkpt>
      <trkpt lat="37.0982303" lon="-8.7009171">
        <ele>50.615</ele>
        <time>2018-09-22T09:30:54.147Z</time>
      </trkpt>
      <trkpt lat="37.0982704" lon="-8.7010546">
        <ele>51.093</ele>
        <time>2018-09-22T09:30:57.195Z</time>
      </trkpt>
      <trkpt lat="37.0983023" lon="-8.7011938">
        <ele>51.269</ele>
        <time>2018-09-22T09:31:00.130Z</time>
      </trkpt>
      <trkpt lat="37.0983225" lon="-8.7013486">
        <ele>51.182</ele>
        <time>2018-09-22T09:31:03.179Z</time>
      </trkpt>
      <trkpt lat="37.0983334" lon="-8.7015128">
        <ele>50.928</ele>
        <time>2018-09-22T09:31:06.233Z</time>
      </trkpt>
      <trkpt lat="37.0983386" lon="-8.7016780">
        <ele>50.494</ele>
        <time>2018-09-22T09:31:09.240Z</time>
      </trkpt>
      <trkpt lat="37.0983441" lon="-8.7018456">
        <ele>49.818</ele>
        <time>2018-09-22T09:31:12.281Z</time>
      </trkpt>
      <trkpt lat="37.0983853" lon="-8.7020023">
        <ele>49.064</ele>
        <time>2018-09-22T09:31:15.266Z</time>
      </trkpt>
      <trkpt lat="37.0984181" lon="-8.7021794">
        <ele>48.736</ele>
        <time>2018-09-22T09:31:18.476Z</time>
      </trkpt>
      <trkpt lat="37.0984551" lon="-8.7023460">
        <ele>49.164</ele>
        <time>2018-09-22T09:31:21.448Z</time>
      </trkpt>
      <trkpt lat="37.0984887" lon="-8.7025399">
        <ele>50.009</ele>
        <time>2018-09-22T09:31:24.719Z</time>
      </trkpt>
      <trkpt lat="37.0985475" lon="-8.7027331">
        <ele>50.838</ele>
        <time>2018-09-22T09:31:27.966Z</time>
      </trkpt>
      <trkpt lat="37.0985913" lon="-8.7028913">
        <ele>51.712</ele>
        <time>2018-09-22T09:31:30.661Z</time>
      </trkpt>
      <trkpt lat="37.0986253" lon="-8.7030385">
        <ele>52.698</ele>
        <time>2018-09-22T09:31:33.270Z</time>
      </trkpt>
      <trkpt lat="37.0986548" lon="-8.7031865">
        <ele>53.553</ele>
        <time>2018-09-22T09:31:36.074Z</time>
      </trkpt>
      <trkpt lat="37.0986781" lon="-8.7033378">
        <ele>54.087</ele>
        <time>2018-09-22T09:31:39.113Z</time>
      </trkpt>
      <trkpt lat="37.0987156" lon="-8.7034852">
        <ele>54.893</ele>
        <time>2018-09-22T09:31:42.217Z</time>
      </trkpt>
      <trkpt lat="37.0987288" lon="-8.7036159">
        <ele>56.444</ele>
        <time>2018-09-22T09:31:45.016Z</time>
      </trkpt>
      <trkpt lat="37.0987296" lon="-8.7037457">
        <ele>57.994</ele>
        <time>2018-09-22T09:31:48.014Z</time>
      </trkpt>
      <trkpt lat="37.0987279" lon="-8.7038772">
        <ele>58.713</ele>
        <time>2018-09-22T09:31:51.066Z</time>
      </trkpt>
      <trkpt lat="37.0987192" lon="-8.7040121">
        <ele>58.595</ele>
        <time>2018-09-22T09:31:54.151Z</time>
      </trkpt>
      <trkpt lat="37.0987186" lon="-8.7041417">
        <ele>57.958</ele>
        <time>2018-09-22T09:31:57.134Z</time>
      </trkpt>
      <trkpt lat="37.0987250" lon="-8.7042707">
        <ele>57.417</ele>
        <time>2018-09-22T09:32:00.208Z</time>
      </trkpt>
      <trkpt lat="37.0987384" lon="-8.7043935">
        <ele>57.391</ele>
        <time>2018-09-22T09:32:03.217Z</time>
      </trkpt>
      <trkpt lat="37.0987335" lon="-8.7045232">
        <ele>57.728</ele>
        <time>2018-09-22T09:32:06.396Z</time>
      </trkpt>
      <trkpt lat="37.0987344" lon="-8.7046440">
        <ele>58.129</ele>
        <time>2018-09-22T09:32:09.467Z</time>
      </trkpt>
      <trkpt lat="37.0987307" lon="-8.7047579">
        <ele>58.460</ele>
        <time>2018-09-22T09:32:12.437Z</time>
      </trkpt>
      <trkpt lat="37.0987306" lon="-8.7048849">
        <ele>58.845</ele>
        <time>2018-09-22T09:32:15.649Z</time>
      </trkpt>
      <trkpt lat="37.0987312" lon="-8.7050055">
        <ele>59.552</ele>
        <time>2018-09-22T09:32:18.683Z</time>
      </trkpt>
      <trkpt lat="37.0987334" lon="-8.7051229">
        <ele>60.610</ele>
        <time>2018-09-22T09:32:21.707Z</time>
      </trkpt>
      <trkpt lat="37.0987311" lon="-8.7052397">
        <ele>61.630</ele>
        <time>2018-09-22T09:32:24.942Z</time>
      </trkpt>
      <trkpt lat="37.0987106" lon="-8.7053746">
        <ele>62.199</ele>
        <time>2018-09-22T09:32:29.250Z</time>
      </trkpt>
      <trkpt lat="37.0986703" lon="-8.7054845">
        <ele>62.292</ele>
        <time>2018-09-22T09:32:33.995Z</time>
      </trkpt>
      <trkpt lat="37.0986703" lon="-8.7054845">
        <ele>62.203</ele>
        <time>2018-09-22T09:32:42.995Z</time>
      </trkpt>
      <trkpt lat="37.0986703" lon="-8.7054845">
        <ele>62.160</ele>
        <time>2018-09-22T09:33:14.565Z</time>
      </trkpt>
      <trkpt lat="37.0986267" lon="-8.7056840">
        <ele>62.180</ele>
        <time>2018-09-22T09:33:23.916Z</time>
      </trkpt>
      <trkpt lat="37.0986919" lon="-8.7057903">
        <ele>62.477</ele>
        <time>2018-09-22T09:33:27.597Z</time>
      </trkpt>
      <trkpt lat="37.0987571" lon="-8.7058708">
        <ele>63.193</ele>
        <time>2018-09-22T09:33:30.994Z</time>
      </trkpt>
      <trkpt lat="37.0987571" lon="-8.7058708">
        <ele>63.870</ele>
        <time>2018-09-22T09:33:33.994Z</time>
      </trkpt>
      <trkpt lat="37.0987571" lon="-8.7058708">
        <ele>64.081</ele>
        <time>2018-09-22T09:33:34.094Z</time>
      </trkpt>
      <trkpt lat="37.0986479" lon="-8.7056725">
        <ele>63.900</ele>
        <time>2018-09-22T09:33:43.423Z</time>
      </trkpt>
      <trkpt lat="37.0986316" lon="-8.7055557">
        <ele>63.463</ele>
        <time>2018-09-22T09:33:45.994Z</time>
      </trkpt>
      <trkpt lat="37.0986316" lon="-8.7055557">
        <ele>62.975</ele>
        <time>2018-09-22T09:34:00.994Z</time>
      </trkpt>
      <trkpt lat="37.0986316" lon="-8.7055557">
        <ele>62.702</ele>
        <time>2018-09-22T09:39:34.994Z</time>
      </trkpt>
      <trkpt lat="37.0988266" lon="-8.7055573">
        <ele>62.765</ele>
        <time>2018-09-22T09:39:46.998Z</time>
      </trkpt>
      <trkpt lat="37.0988758" lon="-8.7056573">
        <ele>63.210</ele>
        <time>2018-09-22T09:39:50.998Z</time>
      </trkpt>
      <trkpt lat="37.0988758" lon="-8.7056573">
        <ele>63.893</ele>
        <time>2018-09-22T09:40:03.998Z</time>
      </trkpt>
      <trkpt lat="37.0988758" lon="-8.7056573">
        <ele>64.339</ele>
        <time>2018-09-22T09:40:23.224Z</time>
      </trkpt>
      <trkpt lat="37.0988105" lon="-8.7058399">
        <ele>64.291</ele>
        <time>2018-09-22T09:40:34.743Z</time>
      </trkpt>
      <trkpt lat="37.0987825" lon="-8.7059520">
        <ele>64.026</ele>
        <time>2018-09-22T09:40:38.687Z</time>
      </trkpt>
      <trkpt lat="37.0986618" lon="-8.7059841">
        <ele>63.836</ele>
        <time>2018-09-22T09:40:42.639Z</time>
      </trkpt>
      <trkpt lat="37.0984915" lon="-8.7059178">
        <ele>63.592</ele>
        <time>2018-09-22T09:40:47.047Z</time>
      </trkpt>
      <trkpt lat="37.0983317" lon="-8.7058526">
        <ele>63.033</ele>
        <time>2018-09-22T09:40:50.622Z</time>
      </trkpt>
      <trkpt lat="37.0981777" lon="-8.7059189">
        <ele>62.022</ele>
        <time>2018-09-22T09:40:53.903Z</time>
      </trkpt>
      <trkpt lat="37.0981766" lon="-8.7061097">
        <ele>60.783</ele>
        <time>2018-09-22T09:40:56.808Z</time>
      </trkpt>
      <trkpt lat="37.0981834" lon="-8.7062874">
        <ele>59.892</ele>
        <time>2018-09-22T09:40:59.342Z</time>
      </trkpt>
      <trkpt lat="37.0981962" lon="-8.7064879">
        <ele>59.770</ele>
        <time>2018-09-22T09:41:02.041Z</time>
      </trkpt>
      <trkpt lat="37.0982158" lon="-8.7066932">
        <ele>60.277</ele>
        <time>2018-09-22T09:41:04.693Z</time>
      </trkpt>
      <trkpt lat="37.0982052" lon="-8.7069400">
        <ele>60.982</ele>
        <time>2018-09-22T09:41:07.794Z</time>
      </trkpt>
      <trkpt lat="37.0982189" lon="-8.7071686">
        <ele>61.485</ele>
        <time>2018-09-22T09:41:10.704Z</time>
      </trkpt>
      <trkpt lat="37.0981919" lon="-8.7073929">
        <ele>61.698</ele>
        <time>2018-09-22T09:41:13.671Z</time>
      </trkpt>
      <trkpt lat="37.0981789" lon="-8.7076060">
        <ele>61.758</ele>
        <time>2018-09-22T09:41:16.559Z</time>
      </trkpt>
      <trkpt lat="37.0981295" lon="-8.7077934">
        <ele>61.832</ele>
        <time>2018-09-22T09:41:19.315Z</time>
      </trkpt>
      <trkpt lat="37.0980669" lon="-8.7079889">
        <ele>62.205</ele>
        <time>2018-09-22T09:41:22.229Z</time>
      </trkpt>
      <trkpt lat="37.0980259" lon="-8.7082063">
        <ele>63.133</ele>
        <time>2018-09-22T09:41:25.422Z</time>
      </trkpt>
      <trkpt lat="37.0979563" lon="-8.7083718">
        <ele>64.435</ele>
        <time>2018-09-22T09:41:28.406Z</time>
      </trkpt>
      <trkpt lat="37.0978835" lon="-8.7085084">
        <ele>65.662</ele>
        <time>2018-09-22T09:41:31.298Z</time>
      </trkpt>
      <trkpt lat="37.0978154" lon="-8.7086594">
        <ele>66.590</ele>
        <time>2018-09-22T09:41:34.599Z</time>
      </trkpt>
      <trkpt lat="37.0977444" lon="-8.7087931">
        <ele>67.288</ele>
        <time>2018-09-22T09:41:37.829Z</time>
      </trkpt>
      <trkpt lat="37.0976880" lon="-8.7088915">
        <ele>67.930</ele>
        <time>2018-09-22T09:41:40.327Z</time>
      </trkpt>
      <trkpt lat="37.0976370" lon="-8.7090154">
        <ele>68.669</ele>
        <time>2018-09-22T09:41:43.163Z</time>
      </trkpt>
      <trkpt lat="37.0975645" lon="-8.7091246">
        <ele>69.452</ele>
        <time>2018-09-22T09:41:45.944Z</time>
      </trkpt>
      <trkpt lat="37.0974593" lon="-8.7092118">
        <ele>69.959</ele>
        <time>2018-09-22T09:41:49.061Z</time>
      </trkpt>
      <trkpt lat="37.0973740" lon="-8.7092993">
        <ele>70.046</ele>
        <time>2018-09-22T09:41:51.920Z</time>
      </trkpt>
      <trkpt lat="37.0973140" lon="-8.7094118">
        <ele>69.951</ele>
        <time>2018-09-22T09:41:54.740Z</time>
      </trkpt>
      <trkpt lat="37.0972765" lon="-8.7095465">
        <ele>69.903</ele>
        <time>2018-09-22T09:41:57.632Z</time>
      </trkpt>
      <trkpt lat="37.0972372" lon="-8.7096806">
        <ele>70.020</ele>
        <time>2018-09-22T09:42:00.528Z</time>
      </trkpt>
      <trkpt lat="37.0972002" lon="-8.7098040">
        <ele>70.353</ele>
        <time>2018-09-22T09:42:03.129Z</time>
      </trkpt>
      <trkpt lat="37.0971693" lon="-8.7099587">
        <ele>70.806</ele>
        <time>2018-09-22T09:42:06.155Z</time>
      </trkpt>
      <trkpt lat="37.0971282" lon="-8.7101144">
        <ele>71.229</ele>
        <time>2018-09-22T09:42:09.354Z</time>
      </trkpt>
      <trkpt lat="37.0971080" lon="-8.7102496">
        <ele>71.724</ele>
        <time>2018-09-22T09:42:12.128Z</time>
      </trkpt>
      <trkpt lat="37.0970938" lon="-8.7103755">
        <ele>72.358</ele>
        <time>2018-09-22T09:42:14.727Z</time>
      </trkpt>
      <trkpt lat="37.0970754" lon="-8.7105066">
        <ele>72.848</ele>
        <time>2018-09-22T09:42:17.572Z</time>
      </trkpt>
      <trkpt lat="37.0970634" lon="-8.7106265">
        <ele>72.970</ele>
        <time>2018-09-22T09:42:20.230Z</time>
      </trkpt>
      <trkpt lat="37.0970534" lon="-8.7107562">
        <ele>72.631</ele>
        <time>2018-09-22T09:42:23.069Z</time>
      </trkpt>
      <trkpt lat="37.0970325" lon="-8.7108858">
        <ele>71.558</ele>
        <time>2018-09-22T09:42:25.910Z</time>
      </trkpt>
      <trkpt lat="37.0970080" lon="-8.7110139">
        <ele>69.836</ele>
        <time>2018-09-22T09:42:28.743Z</time>
      </trkpt>
      <trkpt lat="37.0969779" lon="-8.7111352">
        <ele>68.058</ele>
        <time>2018-09-22T09:42:31.491Z</time>
      </trkpt>
      <trkpt lat="37.0969444" lon="-8.7112631">
        <ele>66.742</ele>
        <time>2018-09-22T09:42:34.425Z</time>
      </trkpt>
      <trkpt lat="37.0969162" lon="-8.7113800">
        <ele>66.086</ele>
        <time>2018-09-22T09:42:37.131Z</time>
      </trkpt>
      <trkpt lat="37.0968788" lon="-8.7114893">
        <ele>66.036</ele>
        <time>2018-09-22T09:42:40.092Z</time>
      </trkpt>
      <trkpt lat="37.0968273" lon="-8.7116055">
        <ele>66.433</ele>
        <time>2018-09-22T09:42:43.995Z</time>
      </trkpt>
      <trkpt lat="37.0968273" lon="-8.7116055">
        <ele>67.038</ele>
        <time>2018-09-22T09:42:49.995Z</time>
      </trkpt>
      <trkpt lat="37.0968273" lon="-8.7116055">
        <ele>67.413</ele>
        <time>2018-09-22T09:43:54.494Z</time>
      </trkpt>
      <trkpt lat="37.0967350" lon="-8.7118215">
        <ele>67.365</ele>
        <time>2018-09-22T09:44:08.107Z</time>
      </trkpt>
      <trkpt lat="37.0967008" lon="-8.7119529">
        <ele>67.776</ele>
        <time>2018-09-22T09:44:12.490Z</time>
      </trkpt>
      <trkpt lat="37.0966918" lon="-8.7120794">
        <ele>69.285</ele>
        <time>2018-09-22T09:44:16.073Z</time>
      </trkpt>
      <trkpt lat="37.0967018" lon="-8.7121923">
        <ele>70.816</ele>
        <time>2018-09-22T09:44:19.017Z</time>
      </trkpt>
      <trkpt lat="37.0967399" lon="-8.7123026">
        <ele>71.045</ele>
        <time>2018-09-22T09:44:22.277Z</time>
      </trkpt>
      <trkpt lat="37.0967612" lon="-8.7124244">
        <ele>69.920</ele>
        <time>2018-09-22T09:44:26.001Z</time>
      </trkpt>
      <trkpt lat="37.0967899" lon="-8.7125380">
        <ele>68.229</ele>
        <time>2018-09-22T09:44:29.815Z</time>
      </trkpt>
      <trkpt lat="37.0968232" lon="-8.7126713">
        <ele>66.859</ele>
        <time>2018-09-22T09:44:34.355Z</time>
      </trkpt>
      <trkpt lat="37.0968441" lon="-8.7127927">
        <ele>66.032</ele>
        <time>2018-09-22T09:44:38.419Z</time>
      </trkpt>
      <trkpt lat="37.0968783" lon="-8.7129176">
        <ele>65.452</ele>
        <time>2018-09-22T09:44:42.692Z</time>
      </trkpt>
      <trkpt lat="37.0969195" lon="-8.7130377">
        <ele>64.936</ele>
        <time>2018-09-22T09:44:46.566Z</time>
      </trkpt>
      <trkpt lat="37.0969671" lon="-8.7131362">
        <ele>64.369</ele>
        <time>2018-09-22T09:44:49.507Z</time>
      </trkpt>
      <trkpt lat="37.0970398" lon="-8.7132260">
        <ele>63.607</ele>
        <time>2018-09-22T09:44:52.308Z</time>
      </trkpt>
      <trkpt lat="37.0971410" lon="-8.7133499">
        <ele>62.755</ele>
        <time>2018-09-22T09:44:55.519Z</time>
      </trkpt>
      <trkpt lat="37.0972544" lon="-8.7134934">
        <ele>62.012</ele>
        <time>2018-09-22T09:44:58.690Z</time>
      </trkpt>
      <trkpt lat="37.0973543" lon="-8.7136436">
        <ele>61.038</ele>
        <time>2018-09-22T09:45:01.615Z</time>
      </trkpt>
      <trkpt lat="37.0974333" lon="-8.7137887">
        <ele>59.450</ele>
        <time>2018-09-22T09:45:04.242Z</time>
      </trkpt>
      <trkpt lat="37.0975234" lon="-8.7139489">
        <ele>57.444</ele>
        <time>2018-09-22T09:45:07.131Z</time>
      </trkpt>
      <trkpt lat="37.0976269" lon="-8.7141066">
        <ele>55.442</ele>
        <time>2018-09-22T09:45:10.027Z</time>
      </trkpt>
      <trkpt lat="37.0977351" lon="-8.7142773">
        <ele>53.659</ele>
        <time>2018-09-22T09:45:13.056Z</time>
      </trkpt>
      <trkpt lat="37.0978284" lon="-8.7144329">
        <ele>51.988</ele>
        <time>2018-09-22T09:45:15.772Z</time>
      </trkpt>
      <trkpt lat="37.0978898" lon="-8.7145843">
        <ele>50.219</ele>
        <time>2018-09-22T09:45:18.186Z</time>
      </trkpt>
      <trkpt lat="37.0979498" lon="-8.7147343">
        <ele>48.664</ele>
        <time>2018-09-22T09:45:20.992Z</time>
      </trkpt>
      <trkpt lat="37.0979498" lon="-8.7147343">
        <ele>47.842</ele>
        <time>2018-09-22T09:45:28.991Z</time>
      </trkpt>
      <trkpt lat="37.0979498" lon="-8.7147343">
        <ele>47.743</ele>
        <time>2018-09-22T09:47:06.579Z</time>
      </trkpt>
      <trkpt lat="37.0980144" lon="-8.7149537">
        <ele>47.889</ele>
        <time>2018-09-22T09:47:15.538Z</time>
      </trkpt>
      <trkpt lat="37.0980543" lon="-8.7150931">
        <ele>47.804</ele>
        <time>2018-09-22T09:47:18.524Z</time>
      </trkpt>
      <trkpt lat="37.0980776" lon="-8.7152367">
        <ele>47.371</ele>
        <time>2018-09-22T09:47:21.248Z</time>
      </trkpt>
      <trkpt lat="37.0980964" lon="-8.7153816">
        <ele>46.655</ele>
        <time>2018-09-22T09:47:23.861Z</time>
      </trkpt>
      <trkpt lat="37.0981252" lon="-8.7155364">
        <ele>45.690</ele>
        <time>2018-09-22T09:47:26.631Z</time>
      </trkpt>
      <trkpt lat="37.0981588" lon="-8.7156932">
        <ele>44.681</ele>
        <time>2018-09-22T09:47:29.470Z</time>
      </trkpt>
      <trkpt lat="37.0982011" lon="-8.7158414">
        <ele>43.924</ele>
        <time>2018-09-22T09:47:32.267Z</time>
      </trkpt>
      <trkpt lat="37.0982512" lon="-8.7159804">
        <ele>43.498</ele>
        <time>2018-09-22T09:47:35.022Z</time>
      </trkpt>
      <trkpt lat="37.0983109" lon="-8.7161124">
        <ele>43.263</ele>
        <time>2018-09-22T09:47:37.881Z</time>
      </trkpt>
      <trkpt lat="37.0983618" lon="-8.7162237">
        <ele>43.049</ele>
        <time>2018-09-22T09:47:40.586Z</time>
      </trkpt>
      <trkpt lat="37.0984157" lon="-8.7163426">
        <ele>43.003</ele>
        <time>2018-09-22T09:47:43.998Z</time>
      </trkpt>
      <trkpt lat="37.0984157" lon="-8.7163426">
        <ele>43.269</ele>
        <time>2018-09-22T09:47:49.997Z</time>
      </trkpt>
      <trkpt lat="37.0984157" lon="-8.7163426">
        <ele>43.535</ele>
        <time>2018-09-22T09:48:02.952Z</time>
      </trkpt>
      <trkpt lat="37.0983630" lon="-8.7162162">
        <ele>43.519</ele>
        <time>2018-09-22T09:48:09.312Z</time>
      </trkpt>
      <trkpt lat="37.0983227" lon="-8.7161105">
        <ele>43.354</ele>
        <time>2018-09-22T09:48:12.185Z</time>
      </trkpt>
      <trkpt lat="37.0982861" lon="-8.7160047">
        <ele>43.183</ele>
        <time>2018-09-22T09:48:14.997Z</time>
      </trkpt>
      <trkpt lat="37.0982861" lon="-8.7160047">
        <ele>43.005</ele>
        <time>2018-09-22T09:48:28.997Z</time>
      </trkpt>
      <trkpt lat="37.0982861" lon="-8.7160047">
        <ele>42.884</ele>
        <time>2018-09-22T09:52:45.656Z</time>
      </trkpt>
      <trkpt lat="37.0983831" lon="-8.7162973">
        <ele>42.872</ele>
        <time>2018-09-22T09:53:02.435Z</time>
      </trkpt>
      <trkpt lat="37.0984291" lon="-8.7163949">
        <ele>42.889</ele>
        <time>2018-09-22T09:53:05.955Z</time>
      </trkpt>
      <trkpt lat="37.0984960" lon="-8.7165038">
        <ele>42.787</ele>
        <time>2018-09-22T09:53:09.620Z</time>
      </trkpt>
      <trkpt lat="37.0985665" lon="-8.7166325">
        <ele>42.521</ele>
        <time>2018-09-22T09:53:13.035Z</time>
      </trkpt>
      <trkpt lat="37.0986284" lon="-8.7168069">
        <ele>42.186</ele>
        <time>2018-09-22T09:53:16.479Z</time>
      </trkpt>
      <trkpt lat="37.0986819" lon="-8.7169317">
        <ele>41.853</ele>
        <time>2018-09-22T09:53:18.582Z</time>
      </trkpt>
      <trkpt lat="37.0987403" lon="-8.7170651">
        <ele>41.437</ele>
        <time>2018-09-22T09:53:20.556Z</time>
      </trkpt>
      <trkpt lat="37.0987812" lon="-8.7171903">
        <ele>40.834</ele>
        <time>2018-09-22T09:53:22.249Z</time>
      </trkpt>
      <trkpt lat="37.0988054" lon="-8.7173242">
        <ele>40.031</ele>
        <time>2018-09-22T09:53:24.042Z</time>
      </trkpt>
      <trkpt lat="37.0988442" lon="-8.7174433">
        <ele>39.137</ele>
        <time>2018-09-22T09:53:25.854Z</time>
      </trkpt>
      <trkpt lat="37.0989410" lon="-8.7175552">
        <ele>38.323</ele>
        <time>2018-09-22T09:53:28.515Z</time>
      </trkpt>
      <trkpt lat="37.0990104" lon="-8.7176613">
        <ele>37.649</ele>
        <time>2018-09-22T09:53:30.997Z</time>
      </trkpt>
      <trkpt lat="37.0990104" lon="-8.7176613">
        <ele>37.111</ele>
        <time>2018-09-22T09:53:35.998Z</time>
      </trkpt>
      <trkpt lat="37.0990104" lon="-8.7176613">
        <ele>36.834</ele>
        <time>2018-09-22T09:56:42.158Z</time>
      </trkpt>
      <trkpt lat="37.0989984" lon="-8.7179058">
        <ele>36.844</ele>
        <time>2018-09-22T09:56:54.329Z</time>
      </trkpt>
      <trkpt lat="37.0989002" lon="-8.7180065">
        <ele>36.622</ele>
        <time>2018-09-22T09:56:57.755Z</time>
      </trkpt>
      <trkpt lat="37.0988064" lon="-8.7181067">
        <ele>35.727</ele>
        <time>2018-09-22T09:57:00.751Z</time>
      </trkpt>
      <trkpt lat="37.0987103" lon="-8.7182171">
        <ele>34.574</ele>
        <time>2018-09-22T09:57:03.763Z</time>
      </trkpt>
      <trkpt lat="37.0986156" lon="-8.7183268">
        <ele>33.742</ele>
        <time>2018-09-22T09:57:06.642Z</time>
      </trkpt>
      <trkpt lat="37.0985144" lon="-8.7184353">
        <ele>33.201</ele>
        <time>2018-09-22T09:57:09.451Z</time>
      </trkpt>
      <trkpt lat="37.0983997" lon="-8.7185616">
        <ele>32.660</ele>
        <time>2018-09-22T09:57:12.668Z</time>
      </trkpt>
      <trkpt lat="37.0982951" lon="-8.7186683">
        <ele>31.960</ele>
        <time>2018-09-22T09:57:15.660Z</time>
      </trkpt>
      <trkpt lat="37.0982042" lon="-8.7187667">
        <ele>31.202</ele>
        <time>2018-09-22T09:57:18.323Z</time>
      </trkpt>
      <trkpt lat="37.0980969" lon="-8.7188789">
        <ele>30.476</ele>
        <time>2018-09-22T09:57:21.347Z</time>
      </trkpt>
      <trkpt lat="37.0979869" lon="-8.7189797">
        <ele>29.819</ele>
        <time>2018-09-22T09:57:24.299Z</time>
      </trkpt>
      <trkpt lat="37.0978788" lon="-8.7190774">
        <ele>29.341</ele>
        <time>2018-09-22T09:57:27.247Z</time>
      </trkpt>
      <trkpt lat="37.0977641" lon="-8.7191697">
        <ele>29.097</ele>
        <time>2018-09-22T09:57:30.395Z</time>
      </trkpt>
      <trkpt lat="37.0976679" lon="-8.7192652">
        <ele>28.985</ele>
        <time>2018-09-22T09:57:33.168Z</time>
      </trkpt>
      <trkpt lat="37.0975550" lon="-8.7193562">
        <ele>28.673</ele>
        <time>2018-09-22T09:57:36.100Z</time>
      </trkpt>
      <trkpt lat="37.0974458" lon="-8.7194448">
        <ele>27.966</ele>
        <time>2018-09-22T09:57:39.033Z</time>
      </trkpt>
      <trkpt lat="37.0973559" lon="-8.7195384">
        <ele>27.115</ele>
        <time>2018-09-22T09:57:41.694Z</time>
      </trkpt>
      <trkpt lat="37.0972398" lon="-8.7196122">
        <ele>26.363</ele>
        <time>2018-09-22T09:57:44.654Z</time>
      </trkpt>
      <trkpt lat="37.0971229" lon="-8.7196810">
        <ele>25.766</ele>
        <time>2018-09-22T09:57:47.634Z</time>
      </trkpt>
      <trkpt lat="37.0970265" lon="-8.7197669">
        <ele>25.408</ele>
        <time>2018-09-22T09:57:50.374Z</time>
      </trkpt>
      <trkpt lat="37.0969159" lon="-8.7198443">
        <ele>25.104</ele>
        <time>2018-09-22T09:57:53.257Z</time>
      </trkpt>
      <trkpt lat="37.0968045" lon="-8.7199345">
        <ele>24.584</ele>
        <time>2018-09-22T09:57:56.257Z</time>
      </trkpt>
      <trkpt lat="37.0967034" lon="-8.7200347">
        <ele>23.922</ele>
        <time>2018-09-22T09:57:59.224Z</time>
      </trkpt>
      <trkpt lat="37.0966023" lon="-8.7201340">
        <ele>23.399</ele>
        <time>2018-09-22T09:58:02.174Z</time>
      </trkpt>
      <trkpt lat="37.0965026" lon="-8.7202249">
        <ele>23.097</ele>
        <time>2018-09-22T09:58:04.871Z</time>
      </trkpt>
      <trkpt lat="37.0963771" lon="-8.7203546">
        <ele>22.842</ele>
        <time>2018-09-22T09:58:08.133Z</time>
      </trkpt>
      <trkpt lat="37.0962431" lon="-8.7204817">
        <ele>22.511</ele>
        <time>2018-09-22T09:58:11.260Z</time>
      </trkpt>
      <trkpt lat="37.0961424" lon="-8.7206341">
        <ele>22.238</ele>
        <time>2018-09-22T09:58:14.177Z</time>
      </trkpt>
      <trkpt lat="37.0959924" lon="-8.7207324">
        <ele>22.136</ele>
        <time>2018-09-22T09:58:17.202Z</time>
      </trkpt>
      <trkpt lat="37.0958503" lon="-8.7208651">
        <ele>22.062</ele>
        <time>2018-09-22T09:58:20.225Z</time>
      </trkpt>
      <trkpt lat="37.0957433" lon="-8.7210248">
        <ele>21.785</ele>
        <time>2018-09-22T09:58:23.098Z</time>
      </trkpt>
      <trkpt lat="37.0956453" lon="-8.7212027">
        <ele>21.323</ele>
        <time>2018-09-22T09:58:26.271Z</time>
      </trkpt>
      <trkpt lat="37.0955527" lon="-8.7213607">
        <ele>20.833</ele>
        <time>2018-09-22T09:58:29.410Z</time>
      </trkpt>
      <trkpt lat="37.0954878" lon="-8.7215117">
        <ele>20.383</ele>
        <time>2018-09-22T09:58:32.353Z</time>
      </trkpt>
      <trkpt lat="37.0954190" lon="-8.7216251">
        <ele>20.045</ele>
        <time>2018-09-22T09:58:34.992Z</time>
      </trkpt>
      <trkpt lat="37.0953683" lon="-8.7217489">
        <ele>19.793</ele>
        <time>2018-09-22T09:58:37.721Z</time>
      </trkpt>
      <trkpt lat="37.0952998" lon="-8.7218892">
        <ele>19.531</ele>
        <time>2018-09-22T09:58:40.944Z</time>
      </trkpt>
      <trkpt lat="37.0952264" lon="-8.7220157">
        <ele>19.323</ele>
        <time>2018-09-22T09:58:43.992Z</time>
      </trkpt>
      <trkpt lat="37.0951554" lon="-8.7221227">
        <ele>19.220</ele>
        <time>2018-09-22T09:58:46.744Z</time>
      </trkpt>
      <trkpt lat="37.0950915" lon="-8.7222306">
        <ele>19.159</ele>
        <time>2018-09-22T09:58:49.419Z</time>
      </trkpt>
      <trkpt lat="37.0950209" lon="-8.7223472">
        <ele>19.115</ele>
        <time>2018-09-22T09:58:52.419Z</time>
      </trkpt>
      <trkpt lat="37.0949517" lon="-8.7224534">
        <ele>19.113</ele>
        <time>2018-09-22T09:58:55.321Z</time>
      </trkpt>
      <trkpt lat="37.0948756" lon="-8.7225749">
        <ele>19.135</ele>
        <time>2018-09-22T09:58:58.542Z</time>
      </trkpt>
      <trkpt lat="37.0948032" lon="-8.7226833">
        <ele>19.048</ele>
        <time>2018-09-22T09:59:01.494Z</time>
      </trkpt>
      <trkpt lat="37.0947426" lon="-8.7227838">
        <ele>18.783</ele>
        <time>2018-09-22T09:59:04.226Z</time>
      </trkpt>
      <trkpt lat="37.0946811" lon="-8.7228870">
        <ele>18.501</ele>
        <time>2018-09-22T09:59:07.028Z</time>
      </trkpt>
      <trkpt lat="37.0946260" lon="-8.7230256">
        <ele>18.314</ele>
        <time>2018-09-22T09:59:10.254Z</time>
      </trkpt>
      <trkpt lat="37.0945694" lon="-8.7231423">
        <ele>18.166</ele>
        <time>2018-09-22T09:59:13.133Z</time>
      </trkpt>
      <trkpt lat="37.0945173" lon="-8.7232540">
        <ele>18.102</ele>
        <time>2018-09-22T09:59:15.914Z</time>
      </trkpt>
      <trkpt lat="37.0944443" lon="-8.7233830">
        <ele>18.171</ele>
        <time>2018-09-22T09:59:19.185Z</time>
      </trkpt>
      <trkpt lat="37.0943585" lon="-8.7234846">
        <ele>18.282</ele>
        <time>2018-09-22T09:59:22.184Z</time>
      </trkpt>
      <trkpt lat="37.0942757" lon="-8.7235963">
        <ele>18.491</ele>
        <time>2018-09-22T09:59:25.244Z</time>
      </trkpt>
      <trkpt lat="37.0941952" lon="-8.7237015">
        <ele>18.883</ele>
        <time>2018-09-22T09:59:28.178Z</time>
      </trkpt>
      <trkpt lat="37.0941281" lon="-8.7238105">
        <ele>19.041</ele>
        <time>2018-09-22T09:59:31.085Z</time>
      </trkpt>
      <trkpt lat="37.0940609" lon="-8.7239114">
        <ele>18.609</ele>
        <time>2018-09-22T09:59:33.984Z</time>
      </trkpt>
      <trkpt lat="37.0939764" lon="-8.7240167">
        <ele>17.995</ele>
        <time>2018-09-22T09:59:37.149Z</time>
      </trkpt>
      <trkpt lat="37.0938934" lon="-8.7241209">
        <ele>17.760</ele>
        <time>2018-09-22T09:59:40.161Z</time>
      </trkpt>
      <trkpt lat="37.0938157" lon="-8.7242066">
        <ele>17.961</ele>
        <time>2018-09-22T09:59:42.938Z</time>
      </trkpt>
      <trkpt lat="37.0937384" lon="-8.7242909">
        <ele>18.560</ele>
        <time>2018-09-22T09:59:45.829Z</time>
      </trkpt>
      <trkpt lat="37.0936479" lon="-8.7243822">
        <ele>19.465</ele>
        <time>2018-09-22T09:59:49.020Z</time>
      </trkpt>
      <trkpt lat="37.0935646" lon="-8.7244775">
        <ele>20.284</ele>
        <time>2018-09-22T09:59:52.078Z</time>
      </trkpt>
      <trkpt lat="37.0934854" lon="-8.7245599">
        <ele>20.700</ele>
        <time>2018-09-22T09:59:54.972Z</time>
      </trkpt>
      <trkpt lat="37.0933989" lon="-8.7246295">
        <ele>20.935</ele>
        <time>2018-09-22T09:59:57.964Z</time>
      </trkpt>
      <trkpt lat="37.0933234" lon="-8.7247083">
        <ele>21.318</ele>
        <time>2018-09-22T10:00:00.849Z</time>
      </trkpt>
      <trkpt lat="37.0932469" lon="-8.7248101">
        <ele>22.123</ele>
        <time>2018-09-22T10:00:04.031Z</time>
      </trkpt>
      <trkpt lat="37.0931785" lon="-8.7248948">
        <ele>23.303</ele>
        <time>2018-09-22T10:00:06.813Z</time>
      </trkpt>
      <trkpt lat="37.0931056" lon="-8.7249775">
        <ele>24.301</ele>
        <time>2018-09-22T10:00:09.818Z</time>
      </trkpt>
      <trkpt lat="37.0930309" lon="-8.7250703">
        <ele>24.606</ele>
        <time>2018-09-22T10:00:13.031Z</time>
      </trkpt>
      <trkpt lat="37.0929567" lon="-8.7251524">
        <ele>24.167</ele>
        <time>2018-09-22T10:00:16.009Z</time>
      </trkpt>
      <trkpt lat="37.0928765" lon="-8.7252378">
        <ele>23.295</ele>
        <time>2018-09-22T10:00:19.150Z</time>
      </trkpt>
      <trkpt lat="37.0927986" lon="-8.7253284">
        <ele>22.698</ele>
        <time>2018-09-22T10:00:22.241Z</time>
      </trkpt>
      <trkpt lat="37.0927186" lon="-8.7254146">
        <ele>22.926</ele>
        <time>2018-09-22T10:00:25.306Z</time>
      </trkpt>
      <trkpt lat="37.0926437" lon="-8.7254846">
        <ele>23.732</ele>
        <time>2018-09-22T10:00:28.245Z</time>
      </trkpt>
      <trkpt lat="37.0925588" lon="-8.7255564">
        <ele>24.516</ele>
        <time>2018-09-22T10:00:31.836Z</time>
      </trkpt>
      <trkpt lat="37.0924841" lon="-8.7256427">
        <ele>25.035</ele>
        <time>2018-09-22T10:00:35.575Z</time>
      </trkpt>
      <trkpt lat="37.0924170" lon="-8.7257429">
        <ele>25.334</ele>
        <time>2018-09-22T10:00:39.151Z</time>
      </trkpt>
      <trkpt lat="37.0923431" lon="-8.7258331">
        <ele>25.361</ele>
        <time>2018-09-22T10:00:42.937Z</time>
      </trkpt>
      <trkpt lat="37.0922686" lon="-8.7259097">
        <ele>25.139</ele>
        <time>2018-09-22T10:00:47.146Z</time>
      </trkpt>
      <trkpt lat="37.0921745" lon="-8.7260061">
        <ele>24.902</ele>
        <time>2018-09-22T10:00:52.120Z</time>
      </trkpt>
      <trkpt lat="37.0920909" lon="-8.7260851">
        <ele>24.838</ele>
        <time>2018-09-22T10:00:55.469Z</time>
      </trkpt>
      <trkpt lat="37.0920007" lon="-8.7261786">
        <ele>24.955</ele>
        <time>2018-09-22T10:00:58.619Z</time>
      </trkpt>
      <trkpt lat="37.0919158" lon="-8.7262976">
        <ele>25.225</ele>
        <time>2018-09-22T10:01:01.667Z</time>
      </trkpt>
      <trkpt lat="37.0918436" lon="-8.7264100">
        <ele>25.529</ele>
        <time>2018-09-22T10:01:04.277Z</time>
      </trkpt>
      <trkpt lat="37.0917565" lon="-8.7265352">
        <ele>25.689</ele>
        <time>2018-09-22T10:01:07.235Z</time>
      </trkpt>
      <trkpt lat="37.0916669" lon="-8.7266494">
        <ele>25.665</ele>
        <time>2018-09-22T10:01:10.214Z</time>
      </trkpt>
      <trkpt lat="37.0915903" lon="-8.7267460">
        <ele>25.593</ele>
        <time>2018-09-22T10:01:13.052Z</time>
      </trkpt>
      <trkpt lat="37.0915140" lon="-8.7268276">
        <ele>25.680</ele>
        <time>2018-09-22T10:01:16.117Z</time>
      </trkpt>
      <trkpt lat="37.0914333" lon="-8.7269160">
        <ele>26.015</ele>
        <time>2018-09-22T10:01:20.077Z</time>
      </trkpt>
      <trkpt lat="37.0913697" lon="-8.7270177">
        <ele>26.431</ele>
        <time>2018-09-22T10:01:24.994Z</time>
      </trkpt>
      <trkpt lat="37.0913697" lon="-8.7270177">
        <ele>26.690</ele>
        <time>2018-09-22T10:01:33.996Z</time>
      </trkpt>
      <trkpt lat="37.0913697" lon="-8.7270177">
        <ele>26.749</ele>
        <time>2018-09-22T10:01:43.671Z</time>
      </trkpt>
      <trkpt lat="37.0911481" lon="-8.7271873">
        <ele>26.712</ele>
        <time>2018-09-22T10:02:06.319Z</time>
      </trkpt>
      <trkpt lat="37.0910559" lon="-8.7272164">
        <ele>26.701</ele>
        <time>2018-09-22T10:02:10.628Z</time>
      </trkpt>
      <trkpt lat="37.0909669" lon="-8.7272629">
        <ele>26.762</ele>
        <time>2018-09-22T10:02:15.048Z</time>
      </trkpt>
      <trkpt lat="37.0908680" lon="-8.7273063">
        <ele>26.838</ele>
        <time>2018-09-22T10:02:21.048Z</time>
      </trkpt>
      <trkpt lat="37.0907884" lon="-8.7273636">
        <ele>26.819</ele>
        <time>2018-09-22T10:02:27.846Z</time>
      </trkpt>
      <trkpt lat="37.0907014" lon="-8.7273988">
        <ele>26.628</ele>
        <time>2018-09-22T10:02:34.470Z</time>
      </trkpt>
      <trkpt lat="37.0906205" lon="-8.7274594">
        <ele>26.246</ele>
        <time>2018-09-22T10:02:40.169Z</time>
      </trkpt>
      <trkpt lat="37.0905454" lon="-8.7275311">
        <ele>25.683</ele>
        <time>2018-09-22T10:02:44.523Z</time>
      </trkpt>
      <trkpt lat="37.0904837" lon="-8.7276208">
        <ele>25.056</ele>
        <time>2018-09-22T10:02:48.741Z</time>
      </trkpt>
      <trkpt lat="37.0903948" lon="-8.7276762">
        <ele>24.576</ele>
        <time>2018-09-22T10:02:53.121Z</time>
      </trkpt>
      <trkpt lat="37.0903066" lon="-8.7277328">
        <ele>24.283</ele>
        <time>2018-09-22T10:02:57.381Z</time>
      </trkpt>
      <trkpt lat="37.0902178" lon="-8.7278165">
        <ele>24.079</ele>
        <time>2018-09-22T10:03:02.219Z</time>
      </trkpt>
      <trkpt lat="37.0901310" lon="-8.7278899">
        <ele>24.009</ele>
        <time>2018-09-22T10:03:06.721Z</time>
      </trkpt>
      <trkpt lat="37.0900489" lon="-8.7279550">
        <ele>24.122</ele>
        <time>2018-09-22T10:03:10.696Z</time>
      </trkpt>
      <trkpt lat="37.0899600" lon="-8.7280264">
        <ele>24.188</ele>
        <time>2018-09-22T10:03:14.884Z</time>
      </trkpt>
      <trkpt lat="37.0898710" lon="-8.7280948">
        <ele>24.013</ele>
        <time>2018-09-22T10:03:19.109Z</time>
      </trkpt>
      <trkpt lat="37.0897821" lon="-8.7281738">
        <ele>23.721</ele>
        <time>2018-09-22T10:03:23.753Z</time>
      </trkpt>
      <trkpt lat="37.0896995" lon="-8.7282230">
        <ele>23.482</ele>
        <time>2018-09-22T10:03:27.750Z</time>
      </trkpt>
      <trkpt lat="37.0896100" lon="-8.7282717">
        <ele>23.292</ele>
        <time>2018-09-22T10:03:31.920Z</time>
      </trkpt>
      <trkpt lat="37.0895198" lon="-8.7283090">
        <ele>23.030</ele>
        <time>2018-09-22T10:03:35.880Z</time>
      </trkpt>
      <trkpt lat="37.0894464" lon="-8.7283747">
        <ele>22.676</ele>
        <time>2018-09-22T10:03:40.000Z</time>
      </trkpt>
      <trkpt lat="37.0893545" lon="-8.7284157">
        <ele>22.410</ele>
        <time>2018-09-22T10:03:45.014Z</time>
      </trkpt>
      <trkpt lat="37.0892685" lon="-8.7284608">
        <ele>22.336</ele>
        <time>2018-09-22T10:03:50.996Z</time>
      </trkpt>
      <trkpt lat="37.0892685" lon="-8.7284608">
        <ele>22.374</ele>
        <time>2018-09-22T10:04:05.995Z</time>
      </trkpt>
      <trkpt lat="37.0892685" lon="-8.7284608">
        <ele>22.411</ele>
        <time>2018-09-22T10:04:06.095Z</time>
      </trkpt>
      <trkpt lat="37.0890236" lon="-8.7285993">
        <ele>22.397</ele>
        <time>2018-09-22T10:04:30.341Z</time>
      </trkpt>
      <trkpt lat="37.0889494" lon="-8.7286738">
        <ele>22.273</ele>
        <time>2018-09-22T10:04:37.255Z</time>
      </trkpt>
      <trkpt lat="37.0888598" lon="-8.7287322">
        <ele>22.031</ele>
        <time>2018-09-22T10:04:44.769Z</time>
      </trkpt>
      <trkpt lat="37.0887640" lon="-8.7287647">
        <ele>21.802</ele>
        <time>2018-09-22T10:04:51.613Z</time>
      </trkpt>
      <trkpt lat="37.0886782" lon="-8.7288173">
        <ele>21.689</ele>
        <time>2018-09-22T10:04:59.067Z</time>
      </trkpt>
      <trkpt lat="37.0886048" lon="-8.7288832">
        <ele>21.646</ele>
        <time>2018-09-22T10:05:07.099Z</time>
      </trkpt>
      <trkpt lat="37.0885234" lon="-8.7289390">
        <ele>21.620</ele>
        <time>2018-09-22T10:05:15.311Z</time>
      </trkpt>
      <trkpt lat="37.0884388" lon="-8.7290093">
        <ele>21.604</ele>
        <time>2018-09-22T10:05:23.651Z</time>
      </trkpt>
      <trkpt lat="37.0883514" lon="-8.7290664">
        <ele>21.673</ele>
        <time>2018-09-22T10:05:31.822Z</time>
      </trkpt>
      <trkpt lat="37.0882529" lon="-8.7290721">
        <ele>21.994</ele>
        <time>2018-09-22T10:05:39.994Z</time>
      </trkpt>
      <trkpt lat="37.0882529" lon="-8.7290721">
        <ele>22.522</ele>
        <time>2018-09-22T10:05:54.993Z</time>
      </trkpt>
      <trkpt lat="37.0882529" lon="-8.7290721">
        <ele>22.878</ele>
        <time>2018-09-22T10:17:53.296Z</time>
      </trkpt>
      <trkpt lat="37.0880578" lon="-8.7291788">
        <ele>22.853</ele>
        <time>2018-09-22T10:18:11.517Z</time>
      </trkpt>
      <trkpt lat="37.0879786" lon="-8.7292360">
        <ele>22.887</ele>
        <time>2018-09-22T10:18:15.820Z</time>
      </trkpt>
      <trkpt lat="37.0878993" lon="-8.7292948">
        <ele>23.349</ele>
        <time>2018-09-22T10:18:20.015Z</time>
      </trkpt>
      <trkpt lat="37.0878227" lon="-8.7293668">
        <ele>23.868</ele>
        <time>2018-09-22T10:18:24.574Z</time>
      </trkpt>
      <trkpt lat="37.0877410" lon="-8.7294479">
        <ele>23.991</ele>
        <time>2018-09-22T10:18:30.595Z</time>
      </trkpt>
      <trkpt lat="37.0876463" lon="-8.7295139">
        <ele>23.799</ele>
        <time>2018-09-22T10:18:37.345Z</time>
      </trkpt>
      <trkpt lat="37.0875637" lon="-8.7295621">
        <ele>23.487</ele>
        <time>2018-09-22T10:18:42.679Z</time>
      </trkpt>
      <trkpt lat="37.0874722" lon="-8.7296184">
        <ele>23.156</ele>
        <time>2018-09-22T10:18:48.605Z</time>
      </trkpt>
      <trkpt lat="37.0873816" lon="-8.7296724">
        <ele>22.981</ele>
        <time>2018-09-22T10:18:53.838Z</time>
      </trkpt>
      <trkpt lat="37.0872796" lon="-8.7297429">
        <ele>23.097</ele>
        <time>2018-09-22T10:18:58.504Z</time>
      </trkpt>
      <trkpt lat="37.0871691" lon="-8.7298082">
        <ele>23.368</ele>
        <time>2018-09-22T10:19:02.568Z</time>
      </trkpt>
      <trkpt lat="37.0870742" lon="-8.7298463">
        <ele>23.585</ele>
        <time>2018-09-22T10:19:05.759Z</time>
      </trkpt>
      <trkpt lat="37.0869861" lon="-8.7298767">
        <ele>23.646</ele>
        <time>2018-09-22T10:19:08.659Z</time>
      </trkpt>
      <trkpt lat="37.0868766" lon="-8.7299335">
        <ele>23.533</ele>
        <time>2018-09-22T10:19:12.231Z</time>
      </trkpt>
      <trkpt lat="37.0867814" lon="-8.7299820">
        <ele>23.328</ele>
        <time>2018-09-22T10:19:15.153Z</time>
      </trkpt>
      <trkpt lat="37.0866752" lon="-8.7300309">
        <ele>23.115</ele>
        <time>2018-09-22T10:19:18.413Z</time>
      </trkpt>
      <trkpt lat="37.0865842" lon="-8.7300707">
        <ele>22.920</ele>
        <time>2018-09-22T10:19:21.352Z</time>
      </trkpt>
      <trkpt lat="37.0864773" lon="-8.7301211">
        <ele>22.756</ele>
        <time>2018-09-22T10:19:25.371Z</time>
      </trkpt>
      <trkpt lat="37.0863822" lon="-8.7301692">
        <ele>22.369</ele>
        <time>2018-09-22T10:19:29.716Z</time>
      </trkpt>
      <trkpt lat="37.0862873" lon="-8.7301759">
        <ele>21.536</ele>
        <time>2018-09-22T10:19:35.685Z</time>
      </trkpt>
      <trkpt lat="37.0861992" lon="-8.7302160">
        <ele>20.517</ele>
        <time>2018-09-22T10:19:43.098Z</time>
      </trkpt>
      <trkpt lat="37.0861863" lon="-8.7303334">
        <ele>19.634</ele>
        <time>2018-09-22T10:19:49.604Z</time>
      </trkpt>
      <trkpt lat="37.0860953" lon="-8.7303929">
        <ele>18.971</ele>
        <time>2018-09-22T10:19:55.085Z</time>
      </trkpt>
      <trkpt lat="37.0860267" lon="-8.7304736">
        <ele>18.540</ele>
        <time>2018-09-22T10:19:59.987Z</time>
      </trkpt>
      <trkpt lat="37.0859979" lon="-8.7305829">
        <ele>18.133</ele>
        <time>2018-09-22T10:20:04.680Z</time>
      </trkpt>
      <trkpt lat="37.0859911" lon="-8.7307032">
        <ele>17.484</ele>
        <time>2018-09-22T10:20:08.965Z</time>
      </trkpt>
      <trkpt lat="37.0860244" lon="-8.7308108">
        <ele>16.717</ele>
        <time>2018-09-22T10:20:13.780Z</time>
      </trkpt>
      <trkpt lat="37.0860767" lon="-8.7309171">
        <ele>16.296</ele>
        <time>2018-09-22T10:20:18.996Z</time>
      </trkpt>
      <trkpt lat="37.0860767" lon="-8.7309171">
        <ele>16.384</ele>
        <time>2018-09-22T10:20:31.996Z</time>
      </trkpt>
      <trkpt lat="37.0860767" lon="-8.7309171">
        <ele>16.600</ele>
        <time>2018-09-22T10:20:32.770Z</time>
      </trkpt>
      <trkpt lat="37.0861025" lon="-8.7311717">
        <ele>16.607</ele>
        <time>2018-09-22T10:20:45.404Z</time>
      </trkpt>
      <trkpt lat="37.0861071" lon="-8.7312948">
        <ele>16.822</ele>
        <time>2018-09-22T10:20:48.503Z</time>
      </trkpt>
      <trkpt lat="37.0861043" lon="-8.7314367">
        <ele>17.789</ele>
        <time>2018-09-22T10:20:52.458Z</time>
      </trkpt>
      <trkpt lat="37.0860942" lon="-8.7315771">
        <ele>19.272</ele>
        <time>2018-09-22T10:20:56.551Z</time>
      </trkpt>
      <trkpt lat="37.0861231" lon="-8.7317134">
        <ele>20.604</ele>
        <time>2018-09-22T10:21:00.447Z</time>
      </trkpt>
      <trkpt lat="37.0861533" lon="-8.7318227">
        <ele>21.438</ele>
        <time>2018-09-22T10:21:03.882Z</time>
      </trkpt>
      <trkpt lat="37.0861676" lon="-8.7319396">
        <ele>21.871</ele>
        <time>2018-09-22T10:21:07.326Z</time>
      </trkpt>
      <trkpt lat="37.0862131" lon="-8.7320583">
        <ele>22.144</ele>
        <time>2018-09-22T10:21:11.227Z</time>
      </trkpt>
      <trkpt lat="37.0862391" lon="-8.7321781">
        <ele>22.320</ele>
        <time>2018-09-22T10:21:15.354Z</time>
      </trkpt>
      <trkpt lat="37.0862859" lon="-8.7323102">
        <ele>22.405</ele>
        <time>2018-09-22T10:21:19.902Z</time>
      </trkpt>
      <trkpt lat="37.0863213" lon="-8.7324370">
        <ele>22.559</ele>
        <time>2018-09-22T10:21:24.184Z</time>
      </trkpt>
      <trkpt lat="37.0863365" lon="-8.7325618">
        <ele>22.899</ele>
        <time>2018-09-22T10:21:28.273Z</time>
      </trkpt>
      <trkpt lat="37.0863591" lon="-8.7326914">
        <ele>23.277</ele>
        <time>2018-09-22T10:21:32.355Z</time>
      </trkpt>
      <trkpt lat="37.0863784" lon="-8.7328255">
        <ele>23.742</ele>
        <time>2018-09-22T10:21:36.238Z</time>
      </trkpt>
      <trkpt lat="37.0864235" lon="-8.7329582">
        <ele>24.578</ele>
        <time>2018-09-22T10:21:40.735Z</time>
      </trkpt>
      <trkpt lat="37.0864639" lon="-8.7330667">
        <ele>25.615</ele>
        <time>2018-09-22T10:21:44.756Z</time>
      </trkpt>
      <trkpt lat="37.0864808" lon="-8.7331895">
        <ele>26.377</ele>
        <time>2018-09-22T10:21:48.325Z</time>
      </trkpt>
      <trkpt lat="37.0864826" lon="-8.7333059">
        <ele>26.879</ele>
        <time>2018-09-22T10:21:51.610Z</time>
      </trkpt>
      <trkpt lat="37.0864832" lon="-8.7334424">
        <ele>27.368</ele>
        <time>2018-09-22T10:21:55.930Z</time>
      </trkpt>
      <trkpt lat="37.0865073" lon="-8.7335687">
        <ele>27.760</ele>
        <time>2018-09-22T10:22:00.157Z</time>
      </trkpt>
      <trkpt lat="37.0865494" lon="-8.7336766">
        <ele>27.897</ele>
        <time>2018-09-22T10:22:04.283Z</time>
      </trkpt>
      <trkpt lat="37.0865706" lon="-8.7338000">
        <ele>27.930</ele>
        <time>2018-09-22T10:22:08.434Z</time>
      </trkpt>
      <trkpt lat="37.0865922" lon="-8.7339177">
        <ele>28.036</ele>
        <time>2018-09-22T10:22:12.386Z</time>
      </trkpt>
      <trkpt lat="37.0866141" lon="-8.7340345">
        <ele>28.234</ele>
        <time>2018-09-22T10:22:16.241Z</time>
      </trkpt>
      <trkpt lat="37.0866295" lon="-8.7341589">
        <ele>28.551</ele>
        <time>2018-09-22T10:22:20.285Z</time>
      </trkpt>
      <trkpt lat="37.0866726" lon="-8.7342655">
        <ele>29.047</ele>
        <time>2018-09-22T10:22:24.351Z</time>
      </trkpt>
      <trkpt lat="37.0867018" lon="-8.7343777">
        <ele>29.579</ele>
        <time>2018-09-22T10:22:28.190Z</time>
      </trkpt>
      <trkpt lat="37.0867287" lon="-8.7345097">
        <ele>29.971</ele>
        <time>2018-09-22T10:22:32.420Z</time>
      </trkpt>
      <trkpt lat="37.0867357" lon="-8.7346346">
        <ele>30.393</ele>
        <time>2018-09-22T10:22:36.321Z</time>
      </trkpt>
      <trkpt lat="37.0867631" lon="-8.7347501">
        <ele>31.011</ele>
        <time>2018-09-22T10:22:39.916Z</time>
      </trkpt>
      <trkpt lat="37.0867864" lon="-8.7348786">
        <ele>31.614</ele>
        <time>2018-09-22T10:22:43.751Z</time>
      </trkpt>
      <trkpt lat="37.0867981" lon="-8.7350069">
        <ele>32.154</ele>
        <time>2018-09-22T10:22:47.580Z</time>
      </trkpt>
      <trkpt lat="37.0868066" lon="-8.7351364">
        <ele>32.845</ele>
        <time>2018-09-22T10:22:51.398Z</time>
      </trkpt>
      <trkpt lat="37.0868061" lon="-8.7352777">
        <ele>33.651</ele>
        <time>2018-09-22T10:22:55.351Z</time>
      </trkpt>
      <trkpt lat="37.0868141" lon="-8.7354213">
        <ele>34.417</ele>
        <time>2018-09-22T10:22:59.087Z</time>
      </trkpt>
      <trkpt lat="37.0868226" lon="-8.7355360">
        <ele>35.179</ele>
        <time>2018-09-22T10:23:01.922Z</time>
      </trkpt>
      <trkpt lat="37.0868288" lon="-8.7356894">
        <ele>36.071</ele>
        <time>2018-09-22T10:23:05.704Z</time>
      </trkpt>
      <trkpt lat="37.0868352" lon="-8.7358299">
        <ele>37.140</ele>
        <time>2018-09-22T10:23:09.215Z</time>
      </trkpt>
      <trkpt lat="37.0868377" lon="-8.7359706">
        <ele>38.396</ele>
        <time>2018-09-22T10:23:12.748Z</time>
      </trkpt>
      <trkpt lat="37.0868455" lon="-8.7361212">
        <ele>39.775</ele>
        <time>2018-09-22T10:23:16.461Z</time>
      </trkpt>
      <trkpt lat="37.0868509" lon="-8.7362418">
        <ele>40.987</ele>
        <time>2018-09-22T10:23:19.336Z</time>
      </trkpt>
      <trkpt lat="37.0868570" lon="-8.7363616">
        <ele>41.954</ele>
        <time>2018-09-22T10:23:22.177Z</time>
      </trkpt>
      <trkpt lat="37.0868595" lon="-8.7364765">
        <ele>42.943</ele>
        <time>2018-09-22T10:23:24.907Z</time>
      </trkpt>
      <trkpt lat="37.0868604" lon="-8.7365923">
        <ele>44.128</ele>
        <time>2018-09-22T10:23:27.763Z</time>
      </trkpt>
      <trkpt lat="37.0868689" lon="-8.7367109">
        <ele>45.445</ele>
        <time>2018-09-22T10:23:30.999Z</time>
      </trkpt>
      <trkpt lat="37.0868689" lon="-8.7367109">
        <ele>46.584</ele>
        <time>2018-09-22T10:23:41.999Z</time>
      </trkpt>
      <trkpt lat="37.0868689" lon="-8.7367109">
        <ele>47.126</ele>
        <time>2018-09-22T10:24:37.513Z</time>
      </trkpt>
      <trkpt lat="37.0868277" lon="-8.7369272">
        <ele>47.049</ele>
        <time>2018-09-22T10:24:50.058Z</time>
      </trkpt>
      <trkpt lat="37.0867803" lon="-8.7370297">
        <ele>46.751</ele>
        <time>2018-09-22T10:24:54.083Z</time>
      </trkpt>
      <trkpt lat="37.0867156" lon="-8.7371111">
        <ele>46.576</ele>
        <time>2018-09-22T10:24:57.460Z</time>
      </trkpt>
      <trkpt lat="37.0866399" lon="-8.7371758">
        <ele>46.564</ele>
        <time>2018-09-22T10:25:00.435Z</time>
      </trkpt>
      <trkpt lat="37.0865466" lon="-8.7372242">
        <ele>46.604</ele>
        <time>2018-09-22T10:25:03.413Z</time>
      </trkpt>
      <trkpt lat="37.0864405" lon="-8.7372447">
        <ele>46.577</ele>
        <time>2018-09-22T10:25:06.331Z</time>
      </trkpt>
      <trkpt lat="37.0863252" lon="-8.7372597">
        <ele>46.350</ele>
        <time>2018-09-22T10:25:09.149Z</time>
      </trkpt>
      <trkpt lat="37.0861983" lon="-8.7372769">
        <ele>45.850</ele>
        <time>2018-09-22T10:25:11.934Z</time>
      </trkpt>
      <trkpt lat="37.0860570" lon="-8.7373165">
        <ele>45.231</ele>
        <time>2018-09-22T10:25:14.828Z</time>
      </trkpt>
      <trkpt lat="37.0859183" lon="-8.7373742">
        <ele>44.596</ele>
        <time>2018-09-22T10:25:17.565Z</time>
      </trkpt>
      <trkpt lat="37.0857781" lon="-8.7374276">
        <ele>43.855</ele>
        <time>2018-09-22T10:25:20.259Z</time>
      </trkpt>
      <trkpt lat="37.0856228" lon="-8.7374736">
        <ele>43.088</ele>
        <time>2018-09-22T10:25:23.098Z</time>
      </trkpt>
      <trkpt lat="37.0854488" lon="-8.7375300">
        <ele>42.557</ele>
        <time>2018-09-22T10:25:26.155Z</time>
      </trkpt>
      <trkpt lat="37.0852892" lon="-8.7376160">
        <ele>42.340</ele>
        <time>2018-09-22T10:25:29.171Z</time>
      </trkpt>
      <trkpt lat="37.0851514" lon="-8.7376617">
        <ele>42.141</ele>
        <time>2018-09-22T10:25:32.012Z</time>
      </trkpt>
      <trkpt lat="37.0850324" lon="-8.7376865">
        <ele>41.620</ele>
        <time>2018-09-22T10:25:34.869Z</time>
      </trkpt>
      <trkpt lat="37.0849292" lon="-8.7376467">
        <ele>40.843</ele>
        <time>2018-09-22T10:25:37.571Z</time>
      </trkpt>
      <trkpt lat="37.0848463" lon="-8.7375206">
        <ele>40.063</ele>
        <time>2018-09-22T10:25:40.518Z</time>
      </trkpt>
      <trkpt lat="37.0847281" lon="-8.7373659">
        <ele>39.171</ele>
        <time>2018-09-22T10:25:43.790Z</time>
      </trkpt>
      <trkpt lat="37.0846010" lon="-8.7372027">
        <ele>37.965</ele>
        <time>2018-09-22T10:25:46.816Z</time>
      </trkpt>
      <trkpt lat="37.0844553" lon="-8.7370449">
        <ele>36.446</ele>
        <time>2018-09-22T10:25:49.771Z</time>
      </trkpt>
      <trkpt lat="37.0842973" lon="-8.7368829">
        <ele>34.551</ele>
        <time>2018-09-22T10:25:53.046Z</time>
      </trkpt>
      <trkpt lat="37.0841371" lon="-8.7367737">
        <ele>32.333</ele>
        <time>2018-09-22T10:25:56.591Z</time>
      </trkpt>
      <trkpt lat="37.0840096" lon="-8.7367848">
        <ele>30.175</ele>
        <time>2018-09-22T10:25:59.267Z</time>
      </trkpt>
      <trkpt lat="37.0838973" lon="-8.7369467">
        <ele>28.271</ele>
        <time>2018-09-22T10:26:02.592Z</time>
      </trkpt>
      <trkpt lat="37.0837926" lon="-8.7370581">
        <ele>26.679</ele>
        <time>2018-09-22T10:26:05.173Z</time>
      </trkpt>
      <trkpt lat="37.0836845" lon="-8.7371982">
        <ele>25.634</ele>
        <time>2018-09-22T10:26:08.112Z</time>
      </trkpt>
      <trkpt lat="37.0835915" lon="-8.7373405">
        <ele>25.077</ele>
        <time>2018-09-22T10:26:10.949Z</time>
      </trkpt>
      <trkpt lat="37.0834933" lon="-8.7374582">
        <ele>24.636</ele>
        <time>2018-09-22T10:26:13.652Z</time>
      </trkpt>
      <trkpt lat="37.0834013" lon="-8.7376072">
        <ele>24.222</ele>
        <time>2018-09-22T10:26:16.792Z</time>
      </trkpt>
      <trkpt lat="37.0833202" lon="-8.7377431">
        <ele>23.982</ele>
        <time>2018-09-22T10:26:19.797Z</time>
      </trkpt>
      <trkpt lat="37.0832622" lon="-8.7378939">
        <ele>23.962</ele>
        <time>2018-09-22T10:26:22.846Z</time>
      </trkpt>
      <trkpt lat="37.0832047" lon="-8.7380438">
        <ele>24.115</ele>
        <time>2018-09-22T10:26:25.975Z</time>
      </trkpt>
      <trkpt lat="37.0831579" lon="-8.7381781">
        <ele>24.327</ele>
        <time>2018-09-22T10:26:28.922Z</time>
      </trkpt>
      <trkpt lat="37.0831185" lon="-8.7382975">
        <ele>24.383</ele>
        <time>2018-09-22T10:26:31.672Z</time>
      </trkpt>
      <trkpt lat="37.0830766" lon="-8.7384248">
        <ele>24.149</ele>
        <time>2018-09-22T10:26:34.698Z</time>
      </trkpt>
      <trkpt lat="37.0830204" lon="-8.7385390">
        <ele>23.749</ele>
        <time>2018-09-22T10:26:37.675Z</time>
      </trkpt>
      <trkpt lat="37.0829652" lon="-8.7386573">
        <ele>23.356</ele>
        <time>2018-09-22T10:26:40.766Z</time>
      </trkpt>
      <trkpt lat="37.0829275" lon="-8.7387649">
        <ele>22.991</ele>
        <time>2018-09-22T10:26:43.509Z</time>
      </trkpt>
      <trkpt lat="37.0828730" lon="-8.7388609">
        <ele>22.728</ele>
        <time>2018-09-22T10:26:46.268Z</time>
      </trkpt>
      <trkpt lat="37.0828456" lon="-8.7389784">
        <ele>22.673</ele>
        <time>2018-09-22T10:26:49.069Z</time>
      </trkpt>
      <trkpt lat="37.0828464" lon="-8.7391027">
        <ele>22.786</ele>
        <time>2018-09-22T10:26:51.897Z</time>
      </trkpt>
      <trkpt lat="37.0828851" lon="-8.7392297">
        <ele>22.950</ele>
        <time>2018-09-22T10:26:54.952Z</time>
      </trkpt>
      <trkpt lat="37.0829412" lon="-8.7393567">
        <ele>23.063</ele>
        <time>2018-09-22T10:26:58.034Z</time>
      </trkpt>
      <trkpt lat="37.0829637" lon="-8.7394954">
        <ele>23.087</ele>
        <time>2018-09-22T10:27:00.982Z</time>
      </trkpt>
      <trkpt lat="37.0829212" lon="-8.7396314">
        <ele>23.112</ele>
        <time>2018-09-22T10:27:04.139Z</time>
      </trkpt>
      <trkpt lat="37.0828622" lon="-8.7397396">
        <ele>23.318</ele>
        <time>2018-09-22T10:27:07.104Z</time>
      </trkpt>
      <trkpt lat="37.0827999" lon="-8.7398549">
        <ele>23.729</ele>
        <time>2018-09-22T10:27:10.216Z</time>
      </trkpt>
      <trkpt lat="37.0827357" lon="-8.7399777">
        <ele>24.291</ele>
        <time>2018-09-22T10:27:13.331Z</time>
      </trkpt>
      <trkpt lat="37.0826725" lon="-8.7401056">
        <ele>24.993</ele>
        <time>2018-09-22T10:27:16.365Z</time>
      </trkpt>
      <trkpt lat="37.0826004" lon="-8.7402367">
        <ele>25.683</ele>
        <time>2018-09-22T10:27:19.413Z</time>
      </trkpt>
      <trkpt lat="37.0825385" lon="-8.7403714">
        <ele>26.192</ele>
        <time>2018-09-22T10:27:22.422Z</time>
      </trkpt>
      <trkpt lat="37.0824761" lon="-8.7404726">
        <ele>26.520</ele>
        <time>2018-09-22T10:27:25.039Z</time>
      </trkpt>
      <trkpt lat="37.0823799" lon="-8.7405663">
        <ele>26.678</ele>
        <time>2018-09-22T10:27:28.352Z</time>
      </trkpt>
      <trkpt lat="37.0823235" lon="-8.7406576">
        <ele>26.822</ele>
        <time>2018-09-22T10:27:31.068Z</time>
      </trkpt>
      <trkpt lat="37.0822484" lon="-8.7407463">
        <ele>27.351</ele>
        <time>2018-09-22T10:27:34.172Z</time>
      </trkpt>
      <trkpt lat="37.0821459" lon="-8.7407735">
        <ele>28.281</ele>
        <time>2018-09-22T10:27:37.009Z</time>
      </trkpt>
      <trkpt lat="37.0820150" lon="-8.7406356">
        <ele>28.748</ele>
        <time>2018-09-22T10:27:40.896Z</time>
      </trkpt>
      <trkpt lat="37.0819045" lon="-8.7405400">
        <ele>27.939</ele>
        <time>2018-09-22T10:27:43.628Z</time>
      </trkpt>
      <trkpt lat="37.0817368" lon="-8.7405208">
        <ele>26.198</ele>
        <time>2018-09-22T10:27:46.739Z</time>
      </trkpt>
      <trkpt lat="37.0816424" lon="-8.7407381">
        <ele>24.289</ele>
        <time>2018-09-22T10:27:50.221Z</time>
      </trkpt>
      <trkpt lat="37.0815667" lon="-8.7409072">
        <ele>22.688</ele>
        <time>2018-09-22T10:27:53.282Z</time>
      </trkpt>
      <trkpt lat="37.0815073" lon="-8.7410450">
        <ele>21.749</ele>
        <time>2018-09-22T10:27:56.055Z</time>
      </trkpt>
      <trkpt lat="37.0814501" lon="-8.7411828">
        <ele>21.521</ele>
        <time>2018-09-22T10:27:59.033Z</time>
      </trkpt>
      <trkpt lat="37.0814042" lon="-8.7413011">
        <ele>21.632</ele>
        <time>2018-09-22T10:28:01.752Z</time>
      </trkpt>
      <trkpt lat="37.0813527" lon="-8.7414192">
        <ele>21.763</ele>
        <time>2018-09-22T10:28:04.613Z</time>
      </trkpt>
      <trkpt lat="37.0812960" lon="-8.7415418">
        <ele>21.685</ele>
        <time>2018-09-22T10:28:07.558Z</time>
      </trkpt>
      <trkpt lat="37.0812628" lon="-8.7416825">
        <ele>21.359</ele>
        <time>2018-09-22T10:28:10.555Z</time>
      </trkpt>
      <trkpt lat="37.0812402" lon="-8.7418129">
        <ele>21.078</ele>
        <time>2018-09-22T10:28:13.297Z</time>
      </trkpt>
      <trkpt lat="37.0811943" lon="-8.7419469">
        <ele>21.111</ele>
        <time>2018-09-22T10:28:16.240Z</time>
      </trkpt>
      <trkpt lat="37.0811427" lon="-8.7420927">
        <ele>21.379</ele>
        <time>2018-09-22T10:28:19.297Z</time>
      </trkpt>
      <trkpt lat="37.0810902" lon="-8.7422393">
        <ele>21.702</ele>
        <time>2018-09-22T10:28:22.310Z</time>
      </trkpt>
      <trkpt lat="37.0810457" lon="-8.7423827">
        <ele>22.022</ele>
        <time>2018-09-22T10:28:25.293Z</time>
      </trkpt>
      <trkpt lat="37.0810000" lon="-8.7425015">
        <ele>22.386</ele>
        <time>2018-09-22T10:28:27.994Z</time>
      </trkpt>
      <trkpt lat="37.0809641" lon="-8.7426387">
        <ele>22.787</ele>
        <time>2018-09-22T10:28:31.051Z</time>
      </trkpt>
      <trkpt lat="37.0809235" lon="-8.7427625">
        <ele>23.251</ele>
        <time>2018-09-22T10:28:34.008Z</time>
      </trkpt>
      <trkpt lat="37.0808704" lon="-8.7428604">
        <ele>23.791</ele>
        <time>2018-09-22T10:28:36.838Z</time>
      </trkpt>
      <trkpt lat="37.0808047" lon="-8.7429465">
        <ele>24.137</ele>
        <time>2018-09-22T10:28:39.799Z</time>
      </trkpt>
      <trkpt lat="37.0807469" lon="-8.7430485">
        <ele>23.988</ele>
        <time>2018-09-22T10:28:42.787Z</time>
      </trkpt>
      <trkpt lat="37.0806880" lon="-8.7431515">
        <ele>23.452</ele>
        <time>2018-09-22T10:28:45.715Z</time>
      </trkpt>
      <trkpt lat="37.0806268" lon="-8.7432577">
        <ele>22.753</ele>
        <time>2018-09-22T10:28:48.631Z</time>
      </trkpt>
      <trkpt lat="37.0805299" lon="-8.7433888">
        <ele>22.041</ele>
        <time>2018-09-22T10:28:52.035Z</time>
      </trkpt>
      <trkpt lat="37.0804392" lon="-8.7435485">
        <ele>21.504</ele>
        <time>2018-09-22T10:28:55.270Z</time>
      </trkpt>
      <trkpt lat="37.0803399" lon="-8.7436905">
        <ele>21.206</ele>
        <time>2018-09-22T10:28:58.223Z</time>
      </trkpt>
      <trkpt lat="37.0802173" lon="-8.7438067">
        <ele>20.974</ele>
        <time>2018-09-22T10:29:01.135Z</time>
      </trkpt>
      <trkpt lat="37.0800917" lon="-8.7439492">
        <ele>20.666</ele>
        <time>2018-09-22T10:29:04.138Z</time>
      </trkpt>
      <trkpt lat="37.0799558" lon="-8.7440943">
        <ele>20.326</ele>
        <time>2018-09-22T10:29:07.157Z</time>
      </trkpt>
      <trkpt lat="37.0798260" lon="-8.7442266">
        <ele>20.085</ele>
        <time>2018-09-22T10:29:10.121Z</time>
      </trkpt>
      <trkpt lat="37.0797342" lon="-8.7443385">
        <ele>20.182</ele>
        <time>2018-09-22T10:29:12.686Z</time>
      </trkpt>
      <trkpt lat="37.0796673" lon="-8.7444563">
        <ele>20.669</ele>
        <time>2018-09-22T10:29:15.370Z</time>
      </trkpt>
      <trkpt lat="37.0795837" lon="-8.7445685">
        <ele>21.042</ele>
        <time>2018-09-22T10:29:18.379Z</time>
      </trkpt>
      <trkpt lat="37.0794821" lon="-8.7446734">
        <ele>20.902</ele>
        <time>2018-09-22T10:29:21.452Z</time>
      </trkpt>
      <trkpt lat="37.0794033" lon="-8.7447825">
        <ele>20.647</ele>
        <time>2018-09-22T10:29:24.195Z</time>
      </trkpt>
      <trkpt lat="37.0793557" lon="-8.7448978">
        <ele>20.695</ele>
        <time>2018-09-22T10:29:26.993Z</time>
      </trkpt>
      <trkpt lat="37.0793557" lon="-8.7448978">
        <ele>20.856</ele>
        <time>2018-09-22T10:29:34.993Z</time>
      </trkpt>
      <trkpt lat="37.0793557" lon="-8.7448978">
        <ele>20.859</ele>
        <time>2018-09-22T10:29:35.093Z</time>
      </trkpt>
      <trkpt lat="37.0791310" lon="-8.7450499">
        <ele>20.776</ele>
        <time>2018-09-22T10:30:11.287Z</time>
      </trkpt>
      <trkpt lat="37.0790614" lon="-8.7451223">
        <ele>20.741</ele>
        <time>2018-09-22T10:30:18.835Z</time>
      </trkpt>
      <trkpt lat="37.0790016" lon="-8.7452188">
        <ele>20.708</ele>
        <time>2018-09-22T10:30:26.060Z</time>
      </trkpt>
      <trkpt lat="37.0789534" lon="-8.7453168">
        <ele>20.526</ele>
        <time>2018-09-22T10:30:31.062Z</time>
      </trkpt>
      <trkpt lat="37.0788966" lon="-8.7454048">
        <ele>20.200</ele>
        <time>2018-09-22T10:30:35.331Z</time>
      </trkpt>
      <trkpt lat="37.0788480" lon="-8.7455049">
        <ele>20.057</ele>
        <time>2018-09-22T10:30:40.346Z</time>
      </trkpt>
      <trkpt lat="37.0788035" lon="-8.7456137">
        <ele>20.294</ele>
        <time>2018-09-22T10:30:46.305Z</time>
      </trkpt>
      <trkpt lat="37.0787405" lon="-8.7457008">
        <ele>20.705</ele>
        <time>2018-09-22T10:30:52.249Z</time>
      </trkpt>
      <trkpt lat="37.0786736" lon="-8.7457877">
        <ele>21.084</ele>
        <time>2018-09-22T10:30:57.999Z</time>
      </trkpt>
      <trkpt lat="37.0786736" lon="-8.7457877">
        <ele>21.389</ele>
        <time>2018-09-22T10:31:13.999Z</time>
      </trkpt>
      <trkpt lat="37.0786736" lon="-8.7457877">
        <ele>21.535</ele>
        <time>2018-09-22T10:31:24.052Z</time>
      </trkpt>
      <trkpt lat="37.0785460" lon="-8.7460077">
        <ele>21.510</ele>
        <time>2018-09-22T10:32:02.824Z</time>
      </trkpt>
      <trkpt lat="37.0784714" lon="-8.7460953">
        <ele>21.727</ele>
        <time>2018-09-22T10:32:10.614Z</time>
      </trkpt>
      <trkpt lat="37.0784027" lon="-8.7462002">
        <ele>22.460</ele>
        <time>2018-09-22T10:32:17.710Z</time>
      </trkpt>
      <trkpt lat="37.0783353" lon="-8.7462824">
        <ele>23.313</ele>
        <time>2018-09-22T10:32:24.300Z</time>
      </trkpt>
      <trkpt lat="37.0783128" lon="-8.7463955">
        <ele>23.866</ele>
        <time>2018-09-22T10:32:32.816Z</time>
      </trkpt>
      <trkpt lat="37.0783458" lon="-8.7465012">
        <ele>24.305</ele>
        <time>2018-09-22T10:32:42.287Z</time>
      </trkpt>
      <trkpt lat="37.0783702" lon="-8.7466210">
        <ele>24.974</ele>
        <time>2018-09-22T10:32:53.207Z</time>
      </trkpt>
      <trkpt lat="37.0783889" lon="-8.7467369">
        <ele>25.961</ele>
        <time>2018-09-22T10:33:03.959Z</time>
      </trkpt>
      <trkpt lat="37.0784297" lon="-8.7468412">
        <ele>27.166</ele>
        <time>2018-09-22T10:33:14.911Z</time>
      </trkpt>
      <trkpt lat="37.0784672" lon="-8.7469517">
        <ele>28.461</ele>
        <time>2018-09-22T10:33:26.528Z</time>
      </trkpt>
      <trkpt lat="37.0785179" lon="-8.7470449">
        <ele>29.630</ele>
        <time>2018-09-22T10:33:37.996Z</time>
      </trkpt>
      <trkpt lat="37.0785179" lon="-8.7470449">
        <ele>30.450</ele>
        <time>2018-09-22T10:33:47.996Z</time>
      </trkpt>
      <trkpt lat="37.0785179" lon="-8.7470449">
        <ele>30.790</ele>
        <time>2018-09-22T10:33:48.096Z</time>
      </trkpt>
      <trkpt lat="37.0785710" lon="-8.7473346">
        <ele>30.730</ele>
        <time>2018-09-22T10:34:17.893Z</time>
      </trkpt>
      <trkpt lat="37.0785115" lon="-8.7474349">
        <ele>31.190</ele>
        <time>2018-09-22T10:34:24.773Z</time>
      </trkpt>
      <trkpt lat="37.0784629" lon="-8.7475438">
        <ele>32.899</ele>
        <time>2018-09-22T10:34:31.314Z</time>
      </trkpt>
      <trkpt lat="37.0784168" lon="-8.7476553">
        <ele>34.978</ele>
        <time>2018-09-22T10:34:37.700Z</time>
      </trkpt>
      <trkpt lat="37.0783717" lon="-8.7477613">
        <ele>36.168</ele>
        <time>2018-09-22T10:34:44.172Z</time>
      </trkpt>
      <trkpt lat="37.0783292" lon="-8.7478616">
        <ele>36.401</ele>
        <time>2018-09-22T10:34:50.616Z</time>
      </trkpt>
      <trkpt lat="37.0782982" lon="-8.7479803">
        <ele>36.289</ele>
        <time>2018-09-22T10:34:58.165Z</time>
      </trkpt>
      <trkpt lat="37.0782504" lon="-8.7480790">
        <ele>36.329</ele>
        <time>2018-09-22T10:35:05.277Z</time>
      </trkpt>
      <trkpt lat="37.0782232" lon="-8.7481865">
        <ele>36.567</ele>
        <time>2018-09-22T10:35:12.262Z</time>
      </trkpt>
      <trkpt lat="37.0782050" lon="-8.7483072">
        <ele>36.872</ele>
        <time>2018-09-22T10:35:20.250Z</time>
      </trkpt>
      <trkpt lat="37.0782537" lon="-8.7484156">
        <ele>37.173</ele>
        <time>2018-09-22T10:35:28.226Z</time>
      </trkpt>
      <trkpt lat="37.0783424" lon="-8.7484674">
        <ele>37.475</ele>
        <time>2018-09-22T10:35:35.993Z</time>
      </trkpt>
      <trkpt lat="37.0783424" lon="-8.7484674">
        <ele>37.767</ele>
        <time>2018-09-22T10:35:49.993Z</time>
      </trkpt>
      <trkpt lat="37.0783424" lon="-8.7484674">
        <ele>37.927</ele>
        <time>2018-09-22T10:44:38.536Z</time>
      </trkpt>
      <trkpt lat="37.0785081" lon="-8.7484978">
        <ele>37.900</ele>
        <time>2018-09-22T10:44:50.410Z</time>
      </trkpt>
      <trkpt lat="37.0785867" lon="-8.7485642">
        <ele>38.646</ele>
        <time>2018-09-22T10:44:54.158Z</time>
      </trkpt>
      <trkpt lat="37.0786676" lon="-8.7486206">
        <ele>40.875</ele>
        <time>2018-09-22T10:44:57.781Z</time>
      </trkpt>
      <trkpt lat="37.0787415" lon="-8.7486875">
        <ele>43.442</ele>
        <time>2018-09-22T10:45:01.524Z</time>
      </trkpt>
      <trkpt lat="37.0788170" lon="-8.7487753">
        <ele>45.124</ele>
        <time>2018-09-22T10:45:05.997Z</time>
      </trkpt>
      <trkpt lat="37.0788170" lon="-8.7487753">
        <ele>45.989</ele>
        <time>2018-09-22T10:45:24.997Z</time>
      </trkpt>
      <trkpt lat="37.0788170" lon="-8.7487753">
        <ele>46.269</ele>
        <time>2018-09-22T10:45:47.398Z</time>
      </trkpt>
      <trkpt lat="37.0787936" lon="-8.7490410">
        <ele>46.193</ele>
        <time>2018-09-22T10:46:02.624Z</time>
      </trkpt>
      <trkpt lat="37.0787819" lon="-8.7491670">
        <ele>46.281</ele>
        <time>2018-09-22T10:46:06.874Z</time>
      </trkpt>
      <trkpt lat="37.0787745" lon="-8.7492861">
        <ele>46.832</ele>
        <time>2018-09-22T10:46:10.974Z</time>
      </trkpt>
      <trkpt lat="37.0787915" lon="-8.7494141">
        <ele>47.549</ele>
        <time>2018-09-22T10:46:15.542Z</time>
      </trkpt>
      <trkpt lat="37.0788069" lon="-8.7495536">
        <ele>48.159</ele>
        <time>2018-09-22T10:46:20.046Z</time>
      </trkpt>
      <trkpt lat="37.0788161" lon="-8.7496872">
        <ele>48.767</ele>
        <time>2018-09-22T10:46:24.002Z</time>
      </trkpt>
      <trkpt lat="37.0788449" lon="-8.7498058">
        <ele>49.436</ele>
        <time>2018-09-22T10:46:27.966Z</time>
      </trkpt>
      <trkpt lat="37.0788345" lon="-8.7499221">
        <ele>50.104</ele>
        <time>2018-09-22T10:46:32.077Z</time>
      </trkpt>
      <trkpt lat="37.0788136" lon="-8.7500324">
        <ele>50.633</ele>
        <time>2018-09-22T10:46:36.140Z</time>
      </trkpt>
      <trkpt lat="37.0787780" lon="-8.7501384">
        <ele>50.781</ele>
        <time>2018-09-22T10:46:40.235Z</time>
      </trkpt>
      <trkpt lat="37.0787273" lon="-8.7502487">
        <ele>50.492</ele>
        <time>2018-09-22T10:46:44.757Z</time>
      </trkpt>
      <trkpt lat="37.0786857" lon="-8.7503524">
        <ele>50.328</ele>
        <time>2018-09-22T10:46:48.778Z</time>
      </trkpt>
      <trkpt lat="37.0786418" lon="-8.7504536">
        <ele>50.880</ele>
        <time>2018-09-22T10:46:52.611Z</time>
      </trkpt>
      <trkpt lat="37.0786121" lon="-8.7505646">
        <ele>51.897</ele>
        <time>2018-09-22T10:46:56.102Z</time>
      </trkpt>
      <trkpt lat="37.0785564" lon="-8.7507022">
        <ele>52.764</ele>
        <time>2018-09-22T10:46:59.886Z</time>
      </trkpt>
      <trkpt lat="37.0784992" lon="-8.7508317">
        <ele>53.325</ele>
        <time>2018-09-22T10:47:02.682Z</time>
      </trkpt>
      <trkpt lat="37.0784388" lon="-8.7509867">
        <ele>53.790</ele>
        <time>2018-09-22T10:47:05.570Z</time>
      </trkpt>
      <trkpt lat="37.0783650" lon="-8.7511569">
        <ele>54.309</ele>
        <time>2018-09-22T10:47:08.622Z</time>
      </trkpt>
      <trkpt lat="37.0782930" lon="-8.7513287">
        <ele>54.850</ele>
        <time>2018-09-22T10:47:11.740Z</time>
      </trkpt>
      <trkpt lat="37.0782307" lon="-8.7514854">
        <ele>55.333</ele>
        <time>2018-09-22T10:47:14.913Z</time>
      </trkpt>
      <trkpt lat="37.0781774" lon="-8.7516108">
        <ele>55.870</ele>
        <time>2018-09-22T10:47:18.038Z</time>
      </trkpt>
      <trkpt lat="37.0781411" lon="-8.7517142">
        <ele>56.701</ele>
        <time>2018-09-22T10:47:20.982Z</time>
      </trkpt>
      <trkpt lat="37.0781500" lon="-8.7518562">
        <ele>57.828</ele>
        <time>2018-09-22T10:47:25.056Z</time>
      </trkpt>
      <trkpt lat="37.0782093" lon="-8.7519741">
        <ele>59.076</ele>
        <time>2018-09-22T10:47:29.466Z</time>
      </trkpt>
      <trkpt lat="37.0783045" lon="-8.7520389">
        <ele>60.377</ele>
        <time>2018-09-22T10:47:34.108Z</time>
      </trkpt>
      <trkpt lat="37.0783976" lon="-8.7521070">
        <ele>61.579</ele>
        <time>2018-09-22T10:47:38.762Z</time>
      </trkpt>
      <trkpt lat="37.0784834" lon="-8.7521711">
        <ele>62.385</ele>
        <time>2018-09-22T10:47:42.785Z</time>
      </trkpt>
      <trkpt lat="37.0785809" lon="-8.7522405">
        <ele>62.761</ele>
        <time>2018-09-22T10:47:46.890Z</time>
      </trkpt>
      <trkpt lat="37.0786704" lon="-8.7522979">
        <ele>63.060</ele>
        <time>2018-09-22T10:47:50.284Z</time>
      </trkpt>
      <trkpt lat="37.0787708" lon="-8.7523716">
        <ele>63.595</ele>
        <time>2018-09-22T10:47:54.127Z</time>
      </trkpt>
      <trkpt lat="37.0788512" lon="-8.7524274">
        <ele>64.245</ele>
        <time>2018-09-22T10:47:57.101Z</time>
      </trkpt>
      <trkpt lat="37.0789591" lon="-8.7524903">
        <ele>64.774</ele>
        <time>2018-09-22T10:48:00.909Z</time>
      </trkpt>
      <trkpt lat="37.0790427" lon="-8.7525435">
        <ele>65.234</ele>
        <time>2018-09-22T10:48:03.825Z</time>
      </trkpt>
      <trkpt lat="37.0791307" lon="-8.7525960">
        <ele>65.772</ele>
        <time>2018-09-22T10:48:06.825Z</time>
      </trkpt>
      <trkpt lat="37.0792104" lon="-8.7526498">
        <ele>66.330</ele>
        <time>2018-09-22T10:48:09.682Z</time>
      </trkpt>
      <trkpt lat="37.0792919" lon="-8.7527048">
        <ele>66.886</ele>
        <time>2018-09-22T10:48:12.611Z</time>
      </trkpt>
      <trkpt lat="37.0793745" lon="-8.7527566">
        <ele>67.484</ele>
        <time>2018-09-22T10:48:15.490Z</time>
      </trkpt>
      <trkpt lat="37.0794538" lon="-8.7528121">
        <ele>67.976</ele>
        <time>2018-09-22T10:48:18.402Z</time>
      </trkpt>
      <trkpt lat="37.0795548" lon="-8.7528690">
        <ele>68.227</ele>
        <time>2018-09-22T10:48:22.196Z</time>
      </trkpt>
      <trkpt lat="37.0796451" lon="-8.7529290">
        <ele>68.342</ele>
        <time>2018-09-22T10:48:26.045Z</time>
      </trkpt>
      <trkpt lat="37.0797378" lon="-8.7529864">
        <ele>68.452</ele>
        <time>2018-09-22T10:48:30.380Z</time>
      </trkpt>
      <trkpt lat="37.0798307" lon="-8.7530179">
        <ele>68.758</ele>
        <time>2018-09-22T10:48:34.993Z</time>
      </trkpt>
      <trkpt lat="37.0798307" lon="-8.7530179">
        <ele>69.298</ele>
        <time>2018-09-22T10:48:46.993Z</time>
      </trkpt>
      <trkpt lat="37.0798307" lon="-8.7530179">
        <ele>69.681</ele>
        <time>2018-09-22T10:49:06.775Z</time>
      </trkpt>
      <trkpt lat="37.0799781" lon="-8.7530779">
        <ele>69.639</ele>
        <time>2018-09-22T10:49:13.641Z</time>
      </trkpt>
      <trkpt lat="37.0801275" lon="-8.7531950">
        <ele>69.403</ele>
        <time>2018-09-22T10:49:17.667Z</time>
      </trkpt>
      <trkpt lat="37.0802917" lon="-8.7533208">
        <ele>69.141</ele>
        <time>2018-09-22T10:49:21.397Z</time>
      </trkpt>
      <trkpt lat="37.0804759" lon="-8.7534386">
        <ele>68.740</ele>
        <time>2018-09-22T10:49:24.801Z</time>
      </trkpt>
      <trkpt lat="37.0806904" lon="-8.7535298">
        <ele>68.013</ele>
        <time>2018-09-22T10:49:27.971Z</time>
      </trkpt>
      <trkpt lat="37.0809211" lon="-8.7536596">
        <ele>66.913</ele>
        <time>2018-09-22T10:49:30.958Z</time>
      </trkpt>
      <trkpt lat="37.0811676" lon="-8.7538448">
        <ele>65.559</ele>
        <time>2018-09-22T10:49:33.870Z</time>
      </trkpt>
      <trkpt lat="37.0814119" lon="-8.7540269">
        <ele>64.127</ele>
        <time>2018-09-22T10:49:36.460Z</time>
      </trkpt>
      <trkpt lat="37.0816893" lon="-8.7541618">
        <ele>62.466</ele>
        <time>2018-09-22T10:49:38.987Z</time>
      </trkpt>
      <trkpt lat="37.0819753" lon="-8.7543504">
        <ele>60.485</ele>
        <time>2018-09-22T10:49:41.617Z</time>
      </trkpt>
      <trkpt lat="37.0822646" lon="-8.7545400">
        <ele>58.540</ele>
        <time>2018-09-22T10:49:44.360Z</time>
      </trkpt>
      <trkpt lat="37.0825297" lon="-8.7546971">
        <ele>56.984</ele>
        <time>2018-09-22T10:49:46.997Z</time>
      </trkpt>
      <trkpt lat="37.0827785" lon="-8.7548396">
        <ele>55.796</ele>
        <time>2018-09-22T10:49:49.708Z</time>
      </trkpt>
      <trkpt lat="37.0829765" lon="-8.7549926">
        <ele>54.856</ele>
        <time>2018-09-22T10:49:52.381Z</time>
      </trkpt>
      <trkpt lat="37.0830665" lon="-8.7550579">
        <ele>53.787</ele>
        <time>2018-09-22T10:49:54.101Z</time>
      </trkpt>
      <trkpt lat="37.0831393" lon="-8.7551355">
        <ele>52.441</ele>
        <time>2018-09-22T10:49:55.994Z</time>
      </trkpt>
      <trkpt lat="37.0831393" lon="-8.7551355">
        <ele>51.295</ele>
        <time>2018-09-22T10:50:06.997Z</time>
      </trkpt>
      <trkpt lat="37.0831393" lon="-8.7551355">
        <ele>50.806</ele>
        <time>2018-09-22T10:51:11.524Z</time>
      </trkpt>
      <trkpt lat="37.0831456" lon="-8.7553683">
        <ele>51.008</ele>
        <time>2018-09-22T10:51:19.257Z</time>
      </trkpt>
      <trkpt lat="37.0830669" lon="-8.7555184">
        <ele>51.725</ele>
        <time>2018-09-22T10:51:22.327Z</time>
      </trkpt>
      <trkpt lat="37.0829781" lon="-8.7556671">
        <ele>52.523</ele>
        <time>2018-09-22T10:51:25.268Z</time>
      </trkpt>
      <trkpt lat="37.0829037" lon="-8.7558526">
        <ele>52.882</ele>
        <time>2018-09-22T10:51:28.509Z</time>
      </trkpt>
      <trkpt lat="37.0828125" lon="-8.7560354">
        <ele>52.687</ele>
        <time>2018-09-22T10:51:31.780Z</time>
      </trkpt>
      <trkpt lat="37.0827109" lon="-8.7562382">
        <ele>52.163</ele>
        <time>2018-09-22T10:51:35.040Z</time>
      </trkpt>
      <trkpt lat="37.0826126" lon="-8.7564382">
        <ele>51.455</ele>
        <time>2018-09-22T10:51:37.949Z</time>
      </trkpt>
      <trkpt lat="37.0825067" lon="-8.7566465">
        <ele>50.669</ele>
        <time>2018-09-22T10:51:40.845Z</time>
      </trkpt>
      <trkpt lat="37.0823963" lon="-8.7568619">
        <ele>50.017</ele>
        <time>2018-09-22T10:51:43.690Z</time>
      </trkpt>
      <trkpt lat="37.0822956" lon="-8.7570974">
        <ele>49.536</ele>
        <time>2018-09-22T10:51:46.610Z</time>
      </trkpt>
      <trkpt lat="37.0821708" lon="-8.7573255">
        <ele>48.878</ele>
        <time>2018-09-22T10:51:49.627Z</time>
      </trkpt>
      <trkpt lat="37.0820545" lon="-8.7575528">
        <ele>47.538</ele>
        <time>2018-09-22T10:51:52.534Z</time>
      </trkpt>
      <trkpt lat="37.0819300" lon="-8.7577921">
        <ele>45.554</ele>
        <time>2018-09-22T10:51:55.545Z</time>
      </trkpt>
      <trkpt lat="37.0817979" lon="-8.7580295">
        <ele>43.531</ele>
        <time>2018-09-22T10:51:58.596Z</time>
      </trkpt>
      <trkpt lat="37.0816685" lon="-8.7582537">
        <ele>41.918</ele>
        <time>2018-09-22T10:52:01.663Z</time>
      </trkpt>
      <trkpt lat="37.0815518" lon="-8.7584644">
        <ele>40.832</ele>
        <time>2018-09-22T10:52:04.631Z</time>
      </trkpt>
      <trkpt lat="37.0813989" lon="-8.7586297">
        <ele>40.287</ele>
        <time>2018-09-22T10:52:07.606Z</time>
      </trkpt>
      <trkpt lat="37.0812275" lon="-8.7587698">
        <ele>40.123</ele>
        <time>2018-09-22T10:52:10.707Z</time>
      </trkpt>
      <trkpt lat="37.0810532" lon="-8.7588928">
        <ele>39.969</ele>
        <time>2018-09-22T10:52:13.952Z</time>
      </trkpt>
      <trkpt lat="37.0809021" lon="-8.7589867">
        <ele>39.597</ele>
        <time>2018-09-22T10:52:16.822Z</time>
      </trkpt>
      <trkpt lat="37.0807290" lon="-8.7590790">
        <ele>39.065</ele>
        <time>2018-09-22T10:52:20.094Z</time>
      </trkpt>
      <trkpt lat="37.0805982" lon="-8.7591821">
        <ele>38.527</ele>
        <time>2018-09-22T10:52:22.874Z</time>
      </trkpt>
      <trkpt lat="37.0804528" lon="-8.7592829">
        <ele>38.133</ele>
        <time>2018-09-22T10:52:25.869Z</time>
      </trkpt>
      <trkpt lat="37.0802959" lon="-8.7593779">
        <ele>37.963</ele>
        <time>2018-09-22T10:52:29.114Z</time>
      </trkpt>
      <trkpt lat="37.0801819" lon="-8.7594839">
        <ele>37.865</ele>
        <time>2018-09-22T10:52:31.849Z</time>
      </trkpt>
      <trkpt lat="37.0800676" lon="-8.7596132">
        <ele>37.674</ele>
        <time>2018-09-22T10:52:34.915Z</time>
      </trkpt>
      <trkpt lat="37.0799777" lon="-8.7597386">
        <ele>37.261</ele>
        <time>2018-09-22T10:52:37.610Z</time>
      </trkpt>
      <trkpt lat="37.0798636" lon="-8.7598929">
        <ele>36.506</ele>
        <time>2018-09-22T10:52:40.792Z</time>
      </trkpt>
      <trkpt lat="37.0797812" lon="-8.7600486">
        <ele>35.597</ele>
        <time>2018-09-22T10:52:43.460Z</time>
      </trkpt>
      <trkpt lat="37.0796648" lon="-8.7602112">
        <ele>35.109</ele>
        <time>2018-09-22T10:52:46.521Z</time>
      </trkpt>
      <trkpt lat="37.0795895" lon="-8.7603951">
        <ele>35.256</ele>
        <time>2018-09-22T10:52:49.327Z</time>
      </trkpt>
      <trkpt lat="37.0794791" lon="-8.7605685">
        <ele>35.478</ele>
        <time>2018-09-22T10:52:52.236Z</time>
      </trkpt>
      <trkpt lat="37.0793667" lon="-8.7607510">
        <ele>35.300</ele>
        <time>2018-09-22T10:52:55.254Z</time>
      </trkpt>
      <trkpt lat="37.0792263" lon="-8.7609239">
        <ele>34.986</ele>
        <time>2018-09-22T10:52:58.457Z</time>
      </trkpt>
      <trkpt lat="37.0791041" lon="-8.7610892">
        <ele>34.922</ele>
        <time>2018-09-22T10:53:01.323Z</time>
      </trkpt>
      <trkpt lat="37.0789959" lon="-8.7612611">
        <ele>35.077</ele>
        <time>2018-09-22T10:53:04.099Z</time>
      </trkpt>
      <trkpt lat="37.0789225" lon="-8.7614873">
        <ele>35.093</ele>
        <time>2018-09-22T10:53:07.202Z</time>
      </trkpt>
      <trkpt lat="37.0788318" lon="-8.7616953">
        <ele>34.413</ele>
        <time>2018-09-22T10:53:10.213Z</time>
      </trkpt>
      <trkpt lat="37.0787505" lon="-8.7618040">
        <ele>33.069</ele>
        <time>2018-09-22T10:53:12.077Z</time>
      </trkpt>
      <trkpt lat="37.0786555" lon="-8.7620126">
        <ele>31.804</ele>
        <time>2018-09-22T10:53:15.068Z</time>
      </trkpt>
      <trkpt lat="37.0785328" lon="-8.7622046">
        <ele>31.082</ele>
        <time>2018-09-22T10:53:18.129Z</time>
      </trkpt>
      <trkpt lat="37.0784304" lon="-8.7623987">
        <ele>30.691</ele>
        <time>2018-09-22T10:53:21.017Z</time>
      </trkpt>
      <trkpt lat="37.0783247" lon="-8.7625730">
        <ele>30.496</ele>
        <time>2018-09-22T10:53:23.779Z</time>
      </trkpt>
      <trkpt lat="37.0782016" lon="-8.7627630">
        <ele>30.669</ele>
        <time>2018-09-22T10:53:26.875Z</time>
      </trkpt>
      <trkpt lat="37.0781435" lon="-8.7630088">
        <ele>31.192</ele>
        <time>2018-09-22T10:53:30.051Z</time>
      </trkpt>
      <trkpt lat="37.0780769" lon="-8.7632214">
        <ele>31.847</ele>
        <time>2018-09-22T10:53:32.878Z</time>
      </trkpt>
      <trkpt lat="37.0780222" lon="-8.7634502">
        <ele>32.520</ele>
        <time>2018-09-22T10:53:35.805Z</time>
      </trkpt>
      <trkpt lat="37.0779411" lon="-8.7636757">
        <ele>32.541</ele>
        <time>2018-09-22T10:53:38.731Z</time>
      </trkpt>
      <trkpt lat="37.0778687" lon="-8.7639454">
        <ele>31.310</ele>
        <time>2018-09-22T10:53:41.925Z</time>
      </trkpt>
      <trkpt lat="37.0778095" lon="-8.7642130">
        <ele>29.368</ele>
        <time>2018-09-22T10:53:44.915Z</time>
      </trkpt>
      <trkpt lat="37.0777599" lon="-8.7644853">
        <ele>27.463</ele>
        <time>2018-09-22T10:53:47.827Z</time>
      </trkpt>
      <trkpt lat="37.0776941" lon="-8.7647613">
        <ele>25.797</ele>
        <time>2018-09-22T10:53:50.756Z</time>
      </trkpt>
      <trkpt lat="37.0776084" lon="-8.7650325">
        <ele>24.616</ele>
        <time>2018-09-22T10:53:53.744Z</time>
      </trkpt>
      <trkpt lat="37.0775330" lon="-8.7653087">
        <ele>24.098</ele>
        <time>2018-09-22T10:53:56.833Z</time>
      </trkpt>
      <trkpt lat="37.0774458" lon="-8.7655576">
        <ele>24.032</ele>
        <time>2018-09-22T10:53:59.807Z</time>
      </trkpt>
      <trkpt lat="37.0773396" lon="-8.7657895">
        <ele>24.058</ele>
        <time>2018-09-22T10:54:02.837Z</time>
      </trkpt>
      <trkpt lat="37.0771897" lon="-8.7659869">
        <ele>23.980</ele>
        <time>2018-09-22T10:54:06.095Z</time>
      </trkpt>
      <trkpt lat="37.0771143" lon="-8.7662030">
        <ele>23.842</ele>
        <time>2018-09-22T10:54:09.097Z</time>
      </trkpt>
      <trkpt lat="37.0770246" lon="-8.7663876">
        <ele>23.872</ele>
        <time>2018-09-22T10:54:11.945Z</time>
      </trkpt>
      <trkpt lat="37.0769187" lon="-8.7665901">
        <ele>24.430</ele>
        <time>2018-09-22T10:54:15.136Z</time>
      </trkpt>
      <trkpt lat="37.0768206" lon="-8.7667825">
        <ele>25.524</ele>
        <time>2018-09-22T10:54:18.129Z</time>
      </trkpt>
      <trkpt lat="37.0767213" lon="-8.7669586">
        <ele>26.602</ele>
        <time>2018-09-22T10:54:21.008Z</time>
      </trkpt>
      <trkpt lat="37.0766221" lon="-8.7671489">
        <ele>27.332</ele>
        <time>2018-09-22T10:54:24.148Z</time>
      </trkpt>
      <trkpt lat="37.0765588" lon="-8.7673432">
        <ele>27.822</ele>
        <time>2018-09-22T10:54:27.019Z</time>
      </trkpt>
      <trkpt lat="37.0765149" lon="-8.7675674">
        <ele>28.107</ele>
        <time>2018-09-22T10:54:30.163Z</time>
      </trkpt>
      <trkpt lat="37.0764555" lon="-8.7677541">
        <ele>27.795</ele>
        <time>2018-09-22T10:54:32.971Z</time>
      </trkpt>
      <trkpt lat="37.0764185" lon="-8.7679720">
        <ele>26.767</ele>
        <time>2018-09-22T10:54:36.125Z</time>
      </trkpt>
      <trkpt lat="37.0763688" lon="-8.7681792">
        <ele>25.867</ele>
        <time>2018-09-22T10:54:39.287Z</time>
      </trkpt>
      <trkpt lat="37.0763417" lon="-8.7683546">
        <ele>25.853</ele>
        <time>2018-09-22T10:54:42.020Z</time>
      </trkpt>
      <trkpt lat="37.0762936" lon="-8.7685162">
        <ele>26.441</ele>
        <time>2018-09-22T10:54:44.731Z</time>
      </trkpt>
      <trkpt lat="37.0762705" lon="-8.7686958">
        <ele>27.065</ele>
        <time>2018-09-22T10:54:47.616Z</time>
      </trkpt>
      <trkpt lat="37.0762337" lon="-8.7688759">
        <ele>27.408</ele>
        <time>2018-09-22T10:54:50.613Z</time>
      </trkpt>
      <trkpt lat="37.0761768" lon="-8.7690418">
        <ele>27.436</ele>
        <time>2018-09-22T10:54:53.563Z</time>
      </trkpt>
      <trkpt lat="37.0761349" lon="-8.7692462">
        <ele>27.178</ele>
        <time>2018-09-22T10:54:56.973Z</time>
      </trkpt>
      <trkpt lat="37.0760809" lon="-8.7694195">
        <ele>26.583</ele>
        <time>2018-09-22T10:54:59.971Z</time>
      </trkpt>
      <trkpt lat="37.0760330" lon="-8.7695828">
        <ele>25.836</ele>
        <time>2018-09-22T10:55:02.810Z</time>
      </trkpt>
      <trkpt lat="37.0759719" lon="-8.7697312">
        <ele>25.239</ele>
        <time>2018-09-22T10:55:05.596Z</time>
      </trkpt>
      <trkpt lat="37.0758738" lon="-8.7698824">
        <ele>24.789</ele>
        <time>2018-09-22T10:55:08.800Z</time>
      </trkpt>
      <trkpt lat="37.0758054" lon="-8.7700338">
        <ele>24.183</ele>
        <time>2018-09-22T10:55:11.710Z</time>
      </trkpt>
      <trkpt lat="37.0757339" lon="-8.7701480">
        <ele>23.345</ele>
        <time>2018-09-22T10:55:14.369Z</time>
      </trkpt>
      <trkpt lat="37.0756457" lon="-8.7702627">
        <ele>22.650</ele>
        <time>2018-09-22T10:55:17.467Z</time>
      </trkpt>
      <trkpt lat="37.0755762" lon="-8.7704047">
        <ele>22.526</ele>
        <time>2018-09-22T10:55:20.695Z</time>
      </trkpt>
      <trkpt lat="37.0754941" lon="-8.7705095">
        <ele>23.020</ele>
        <time>2018-09-22T10:55:23.556Z</time>
      </trkpt>
      <trkpt lat="37.0754331" lon="-8.7706416">
        <ele>23.784</ele>
        <time>2018-09-22T10:55:26.586Z</time>
      </trkpt>
      <trkpt lat="37.0753808" lon="-8.7707589">
        <ele>24.503</ele>
        <time>2018-09-22T10:55:29.327Z</time>
      </trkpt>
      <trkpt lat="37.0752954" lon="-8.7708673">
        <ele>25.201</ele>
        <time>2018-09-22T10:55:32.369Z</time>
      </trkpt>
      <trkpt lat="37.0752181" lon="-8.7709980">
        <ele>26.074</ele>
        <time>2018-09-22T10:55:35.462Z</time>
      </trkpt>
      <trkpt lat="37.0751545" lon="-8.7711348">
        <ele>27.203</ele>
        <time>2018-09-22T10:55:38.532Z</time>
      </trkpt>
      <trkpt lat="37.0750693" lon="-8.7712405">
        <ele>28.292</ele>
        <time>2018-09-22T10:55:41.442Z</time>
      </trkpt>
      <trkpt lat="37.0749929" lon="-8.7713865">
        <ele>29.060</ele>
        <time>2018-09-22T10:55:44.687Z</time>
      </trkpt>
      <trkpt lat="37.0749191" lon="-8.7715038">
        <ele>29.584</ele>
        <time>2018-09-22T10:55:47.502Z</time>
      </trkpt>
      <trkpt lat="37.0748489" lon="-8.7716262">
        <ele>29.734</ele>
        <time>2018-09-22T10:55:50.350Z</time>
      </trkpt>
      <trkpt lat="37.0747746" lon="-8.7717712">
        <ele>29.380</ele>
        <time>2018-09-22T10:55:53.576Z</time>
      </trkpt>
      <trkpt lat="37.0747089" lon="-8.7718902">
        <ele>28.894</ele>
        <time>2018-09-22T10:55:56.329Z</time>
      </trkpt>
      <trkpt lat="37.0746489" lon="-8.7720303">
        <ele>28.851</ele>
        <time>2018-09-22T10:55:59.416Z</time>
      </trkpt>
      <trkpt lat="37.0745997" lon="-8.7721537">
        <ele>29.416</ele>
        <time>2018-09-22T10:56:02.286Z</time>
      </trkpt>
      <trkpt lat="37.0745682" lon="-8.7722711">
        <ele>30.367</ele>
        <time>2018-09-22T10:56:05.143Z</time>
      </trkpt>
      <trkpt lat="37.0745310" lon="-8.7723800">
        <ele>31.349</ele>
        <time>2018-09-22T10:56:08.020Z</time>
      </trkpt>
      <trkpt lat="37.0744999" lon="-8.7725052">
        <ele>32.023</ele>
        <time>2018-09-22T10:56:11.108Z</time>
      </trkpt>
      <trkpt lat="37.0744666" lon="-8.7726341">
        <ele>32.265</ele>
        <time>2018-09-22T10:56:14.109Z</time>
      </trkpt>
      <trkpt lat="37.0744249" lon="-8.7727767">
        <ele>32.341</ele>
        <time>2018-09-22T10:56:17.314Z</time>
      </trkpt>
      <trkpt lat="37.0743732" lon="-8.7729063">
        <ele>32.498</ele>
        <time>2018-09-22T10:56:20.415Z</time>
      </trkpt>
      <trkpt lat="37.0743364" lon="-8.7730371">
        <ele>32.694</ele>
        <time>2018-09-22T10:56:23.476Z</time>
      </trkpt>
      <trkpt lat="37.0742980" lon="-8.7731835">
        <ele>32.764</ele>
        <time>2018-09-22T10:56:26.807Z</time>
      </trkpt>
      <trkpt lat="37.0742553" lon="-8.7733164">
        <ele>32.671</ele>
        <time>2018-09-22T10:56:29.796Z</time>
      </trkpt>
      <trkpt lat="37.0741958" lon="-8.7734619">
        <ele>32.491</ele>
        <time>2018-09-22T10:56:33.094Z</time>
      </trkpt>
      <trkpt lat="37.0741264" lon="-8.7736033">
        <ele>32.226</ele>
        <time>2018-09-22T10:56:36.255Z</time>
      </trkpt>
      <trkpt lat="37.0740654" lon="-8.7737421">
        <ele>31.798</ele>
        <time>2018-09-22T10:56:39.274Z</time>
      </trkpt>
      <trkpt lat="37.0740121" lon="-8.7738588">
        <ele>31.299</ele>
        <time>2018-09-22T10:56:42.010Z</time>
      </trkpt>
      <trkpt lat="37.0739556" lon="-8.7739654">
        <ele>30.938</ele>
        <time>2018-09-22T10:56:44.974Z</time>
      </trkpt>
      <trkpt lat="37.0739118" lon="-8.7740741">
        <ele>30.691</ele>
        <time>2018-09-22T10:56:48.234Z</time>
      </trkpt>
      <trkpt lat="37.0738620" lon="-8.7742013">
        <ele>30.463</ele>
        <time>2018-09-22T10:56:52.359Z</time>
      </trkpt>
      <trkpt lat="37.0738128" lon="-8.7742977">
        <ele>30.296</ele>
        <time>2018-09-22T10:56:55.398Z</time>
      </trkpt>
      <trkpt lat="37.0737672" lon="-8.7743994">
        <ele>30.241</ele>
        <time>2018-09-22T10:56:58.394Z</time>
      </trkpt>
      <trkpt lat="37.0737210" lon="-8.7745039">
        <ele>30.241</ele>
        <time>2018-09-22T10:57:01.429Z</time>
      </trkpt>
      <trkpt lat="37.0736659" lon="-8.7746255">
        <ele>30.269</ele>
        <time>2018-09-22T10:57:05.196Z</time>
      </trkpt>
      <trkpt lat="37.0736160" lon="-8.7747350">
        <ele>30.280</ele>
        <time>2018-09-22T10:57:08.967Z</time>
      </trkpt>
      <trkpt lat="37.0735451" lon="-8.7748370">
        <ele>30.201</ele>
        <time>2018-09-22T10:57:12.994Z</time>
      </trkpt>
      <trkpt lat="37.0734764" lon="-8.7749487">
        <ele>30.075</ele>
        <time>2018-09-22T10:57:16.995Z</time>
      </trkpt>
      <trkpt lat="37.0734764" lon="-8.7749487">
        <ele>30.003</ele>
        <time>2018-09-22T10:57:29.997Z</time>
      </trkpt>
      <trkpt lat="37.0734764" lon="-8.7749487">
        <ele>29.980</ele>
        <time>2018-09-22T10:59:12.425Z</time>
      </trkpt>
      <trkpt lat="37.0735197" lon="-8.7752378">
        <ele>29.983</ele>
        <time>2018-09-22T10:59:37.997Z</time>
      </trkpt>
      <trkpt lat="37.0735197" lon="-8.7752378">
        <ele>29.995</ele>
        <time>2018-09-22T10:59:53.997Z</time>
      </trkpt>
      <trkpt lat="37.0735197" lon="-8.7752378">
        <ele>29.993</ele>
        <time>2018-09-22T11:15:03.273Z</time>
      </trkpt>
      <trkpt lat="37.0734447" lon="-8.7755518">
        <ele>29.976</ele>
        <time>2018-09-22T11:15:21.927Z</time>
      </trkpt>
      <trkpt lat="37.0734055" lon="-8.7756650">
        <ele>30.041</ele>
        <time>2018-09-22T11:15:25.846Z</time>
      </trkpt>
      <trkpt lat="37.0733708" lon="-8.7757724">
        <ele>30.239</ele>
        <time>2018-09-22T11:15:29.418Z</time>
      </trkpt>
      <trkpt lat="37.0733374" lon="-8.7758841">
        <ele>30.418</ele>
        <time>2018-09-22T11:15:32.894Z</time>
      </trkpt>
      <trkpt lat="37.0732974" lon="-8.7759913">
        <ele>30.433</ele>
        <time>2018-09-22T11:15:35.940Z</time>
      </trkpt>
      <trkpt lat="37.0732636" lon="-8.7761082">
        <ele>30.308</ele>
        <time>2018-09-22T11:15:38.995Z</time>
      </trkpt>
      <trkpt lat="37.0732636" lon="-8.7761082">
        <ele>30.129</ele>
        <time>2018-09-22T11:15:50.995Z</time>
      </trkpt>
      <trkpt lat="37.0732636" lon="-8.7761082">
        <ele>30.010</ele>
        <time>2018-09-22T11:15:51.095Z</time>
      </trkpt>
      <trkpt lat="37.0732216" lon="-8.7762920">
        <ele>30.012</ele>
        <time>2018-09-22T11:15:59.765Z</time>
      </trkpt>
      <trkpt lat="37.0731911" lon="-8.7764154">
        <ele>30.073</ele>
        <time>2018-09-22T11:16:02.915Z</time>
      </trkpt>
      <trkpt lat="37.0731573" lon="-8.7765310">
        <ele>30.088</ele>
        <time>2018-09-22T11:16:05.749Z</time>
      </trkpt>
      <trkpt lat="37.0731366" lon="-8.7766615">
        <ele>30.013</ele>
        <time>2018-09-22T11:16:08.690Z</time>
      </trkpt>
      <trkpt lat="37.0731148" lon="-8.7767960">
        <ele>29.893</ele>
        <time>2018-09-22T11:16:11.656Z</time>
      </trkpt>
      <trkpt lat="37.0730660" lon="-8.7769125">
        <ele>29.869</ele>
        <time>2018-09-22T11:16:14.530Z</time>
      </trkpt>
      <trkpt lat="37.0730095" lon="-8.7770150">
        <ele>30.123</ele>
        <time>2018-09-22T11:16:17.269Z</time>
      </trkpt>
      <trkpt lat="37.0729575" lon="-8.7771198">
        <ele>30.793</ele>
        <time>2018-09-22T11:16:19.937Z</time>
      </trkpt>
      <trkpt lat="37.0729041" lon="-8.7772183">
        <ele>31.707</ele>
        <time>2018-09-22T11:16:22.538Z</time>
      </trkpt>
      <trkpt lat="37.0728530" lon="-8.7773226">
        <ele>32.628</ele>
        <time>2018-09-22T11:16:25.309Z</time>
      </trkpt>
      <trkpt lat="37.0727972" lon="-8.7774261">
        <ele>33.485</ele>
        <time>2018-09-22T11:16:28.194Z</time>
      </trkpt>
      <trkpt lat="37.0727526" lon="-8.7775470">
        <ele>34.163</ele>
        <time>2018-09-22T11:16:31.222Z</time>
      </trkpt>
      <trkpt lat="37.0727109" lon="-8.7776689">
        <ele>34.520</ele>
        <time>2018-09-22T11:16:34.557Z</time>
      </trkpt>
      <trkpt lat="37.0726559" lon="-8.7777650">
        <ele>34.658</ele>
        <time>2018-09-22T11:16:37.994Z</time>
      </trkpt>
      <trkpt lat="37.0726559" lon="-8.7777650">
        <ele>34.696</ele>
        <time>2018-09-22T11:16:50.994Z</time>
      </trkpt>
      <trkpt lat="37.0726559" lon="-8.7777650">
        <ele>34.688</ele>
        <time>2018-09-22T11:19:34.029Z</time>
      </trkpt>
      <trkpt lat="37.0725370" lon="-8.7779794">
        <ele>34.664</ele>
        <time>2018-09-22T11:19:46.777Z</time>
      </trkpt>
      <trkpt lat="37.0724955" lon="-8.7781210">
        <ele>35.012</ele>
        <time>2018-09-22T11:19:50.893Z</time>
      </trkpt>
      <trkpt lat="37.0724827" lon="-8.7782648">
        <ele>35.947</ele>
        <time>2018-09-22T11:19:54.540Z</time>
      </trkpt>
      <trkpt lat="37.0724728" lon="-8.7783934">
        <ele>36.753</ele>
        <time>2018-09-22T11:19:57.577Z</time>
      </trkpt>
      <trkpt lat="37.0724653" lon="-8.7785238">
        <ele>36.775</ele>
        <time>2018-09-22T11:20:00.590Z</time>
      </trkpt>
      <trkpt lat="37.0724495" lon="-8.7786515">
        <ele>36.340</ele>
        <time>2018-09-22T11:20:03.554Z</time>
      </trkpt>
      <trkpt lat="37.0724376" lon="-8.7787779">
        <ele>35.900</ele>
        <time>2018-09-22T11:20:06.497Z</time>
      </trkpt>
      <trkpt lat="37.0724350" lon="-8.7789034">
        <ele>35.551</ele>
        <time>2018-09-22T11:20:09.435Z</time>
      </trkpt>
      <trkpt lat="37.0724391" lon="-8.7790332">
        <ele>35.158</ele>
        <time>2018-09-22T11:20:12.540Z</time>
      </trkpt>
      <trkpt lat="37.0724226" lon="-8.7791544">
        <ele>34.633</ele>
        <time>2018-09-22T11:20:15.501Z</time>
      </trkpt>
      <trkpt lat="37.0724248" lon="-8.7792809">
        <ele>34.148</ele>
        <time>2018-09-22T11:20:18.490Z</time>
      </trkpt>
      <trkpt lat="37.0724646" lon="-8.7794030">
        <ele>34.050</ele>
        <time>2018-09-22T11:20:21.475Z</time>
      </trkpt>
      <trkpt lat="37.0724599" lon="-8.7795434">
        <ele>34.386</ele>
        <time>2018-09-22T11:20:24.522Z</time>
      </trkpt>
      <trkpt lat="37.0724627" lon="-8.7796873">
        <ele>34.813</ele>
        <time>2018-09-22T11:20:27.548Z</time>
      </trkpt>
      <trkpt lat="37.0724665" lon="-8.7798318">
        <ele>35.201</ele>
        <time>2018-09-22T11:20:30.504Z</time>
      </trkpt>
      <trkpt lat="37.0724672" lon="-8.7799800">
        <ele>35.700</ele>
        <time>2018-09-22T11:20:33.449Z</time>
      </trkpt>
      <trkpt lat="37.0724683" lon="-8.7801379">
        <ele>36.180</ele>
        <time>2018-09-22T11:20:36.505Z</time>
      </trkpt>
      <trkpt lat="37.0724585" lon="-8.7802939">
        <ele>36.319</ele>
        <time>2018-09-22T11:20:39.476Z</time>
      </trkpt>
      <trkpt lat="37.0724420" lon="-8.7804512">
        <ele>36.057</ele>
        <time>2018-09-22T11:20:42.265Z</time>
      </trkpt>
      <trkpt lat="37.0724518" lon="-8.7805734">
        <ele>35.597</ele>
        <time>2018-09-22T11:20:44.348Z</time>
      </trkpt>
      <trkpt lat="37.0724279" lon="-8.7807376">
        <ele>35.188</ele>
        <time>2018-09-22T11:20:47.208Z</time>
      </trkpt>
      <trkpt lat="37.0723943" lon="-8.7808902">
        <ele>34.950</ele>
        <time>2018-09-22T11:20:50.152Z</time>
      </trkpt>
      <trkpt lat="37.0723617" lon="-8.7809991">
        <ele>34.905</ele>
        <time>2018-09-22T11:20:52.404Z</time>
      </trkpt>
      <trkpt lat="37.0723156" lon="-8.7811429">
        <ele>35.049</ele>
        <time>2018-09-22T11:20:55.434Z</time>
      </trkpt>
      <trkpt lat="37.0722670" lon="-8.7812900">
        <ele>35.325</ele>
        <time>2018-09-22T11:20:58.415Z</time>
      </trkpt>
      <trkpt lat="37.0722263" lon="-8.7814446">
        <ele>35.483</ele>
        <time>2018-09-22T11:21:01.430Z</time>
      </trkpt>
      <trkpt lat="37.0721808" lon="-8.7815822">
        <ele>35.373</ele>
        <time>2018-09-22T11:21:04.245Z</time>
      </trkpt>
      <trkpt lat="37.0721389" lon="-8.7817223">
        <ele>35.197</ele>
        <time>2018-09-22T11:21:07.176Z</time>
      </trkpt>
      <trkpt lat="37.0720874" lon="-8.7818485">
        <ele>35.234</ele>
        <time>2018-09-22T11:21:10.089Z</time>
      </trkpt>
      <trkpt lat="37.0720366" lon="-8.7819694">
        <ele>35.805</ele>
        <time>2018-09-22T11:21:12.993Z</time>
      </trkpt>
      <trkpt lat="37.0719879" lon="-8.7820854">
        <ele>37.090</ele>
        <time>2018-09-22T11:21:15.916Z</time>
      </trkpt>
      <trkpt lat="37.0719429" lon="-8.7822012">
        <ele>38.636</ele>
        <time>2018-09-22T11:21:18.720Z</time>
      </trkpt>
      <trkpt lat="37.0718991" lon="-8.7823321">
        <ele>39.746</ele>
        <time>2018-09-22T11:21:21.626Z</time>
      </trkpt>
      <trkpt lat="37.0718542" lon="-8.7824650">
        <ele>40.339</ele>
        <time>2018-09-22T11:21:24.441Z</time>
      </trkpt>
      <trkpt lat="37.0718022" lon="-8.7826000">
        <ele>40.725</ele>
        <time>2018-09-22T11:21:27.279Z</time>
      </trkpt>
      <trkpt lat="37.0717468" lon="-8.7827362">
        <ele>41.177</ele>
        <time>2018-09-22T11:21:30.084Z</time>
      </trkpt>
      <trkpt lat="37.0716787" lon="-8.7828836">
        <ele>41.740</ele>
        <time>2018-09-22T11:21:33.049Z</time>
      </trkpt>
      <trkpt lat="37.0716414" lon="-8.7830670">
        <ele>42.214</ele>
        <time>2018-09-22T11:21:36.172Z</time>
      </trkpt>
      <trkpt lat="37.0715732" lon="-8.7832395">
        <ele>42.614</ele>
        <time>2018-09-22T11:21:39.061Z</time>
      </trkpt>
      <trkpt lat="37.0715053" lon="-8.7834337">
        <ele>43.258</ele>
        <time>2018-09-22T11:21:41.960Z</time>
      </trkpt>
      <trkpt lat="37.0714262" lon="-8.7836475">
        <ele>44.061</ele>
        <time>2018-09-22T11:21:45.050Z</time>
      </trkpt>
      <trkpt lat="37.0713432" lon="-8.7838630">
        <ele>44.620</ele>
        <time>2018-09-22T11:21:48.055Z</time>
      </trkpt>
      <trkpt lat="37.0712543" lon="-8.7840934">
        <ele>44.711</ele>
        <time>2018-09-22T11:21:51.083Z</time>
      </trkpt>
      <trkpt lat="37.0711766" lon="-8.7843484">
        <ele>44.222</ele>
        <time>2018-09-22T11:21:54.171Z</time>
      </trkpt>
      <trkpt lat="37.0710858" lon="-8.7845696">
        <ele>43.131</ele>
        <time>2018-09-22T11:21:56.939Z</time>
      </trkpt>
      <trkpt lat="37.0709985" lon="-8.7847909">
        <ele>41.784</ele>
        <time>2018-09-22T11:21:59.702Z</time>
      </trkpt>
      <trkpt lat="37.0709151" lon="-8.7850365">
        <ele>40.654</ele>
        <time>2018-09-22T11:22:02.712Z</time>
      </trkpt>
      <trkpt lat="37.0708281" lon="-8.7852769">
        <ele>39.811</ele>
        <time>2018-09-22T11:22:05.709Z</time>
      </trkpt>
      <trkpt lat="37.0707467" lon="-8.7854986">
        <ele>39.102</ele>
        <time>2018-09-22T11:22:08.506Z</time>
      </trkpt>
      <trkpt lat="37.0706831" lon="-8.7857729">
        <ele>38.379</ele>
        <time>2018-09-22T11:22:11.846Z</time>
      </trkpt>
      <trkpt lat="37.0705896" lon="-8.7860050">
        <ele>37.542</ele>
        <time>2018-09-22T11:22:15.247Z</time>
      </trkpt>
      <trkpt lat="37.0705355" lon="-8.7861822">
        <ele>36.689</ele>
        <time>2018-09-22T11:22:18.375Z</time>
      </trkpt>
      <trkpt lat="37.0704866" lon="-8.7863142">
        <ele>35.880</ele>
        <time>2018-09-22T11:22:21.375Z</time>
      </trkpt>
      <trkpt lat="37.0704539" lon="-8.7864271">
        <ele>35.118</ele>
        <time>2018-09-22T11:22:24.234Z</time>
      </trkpt>
      <trkpt lat="37.0704063" lon="-8.7865276">
        <ele>34.604</ele>
        <time>2018-09-22T11:22:28.220Z</time>
      </trkpt>
      <trkpt lat="37.0703524" lon="-8.7866237">
        <ele>34.437</ele>
        <time>2018-09-22T11:22:33.290Z</time>
      </trkpt>
      <trkpt lat="37.0703539" lon="-8.7867393">
        <ele>34.524</ele>
        <time>2018-09-22T11:22:38.462Z</time>
      </trkpt>
      <trkpt lat="37.0703815" lon="-8.7868920">
        <ele>35.475</ele>
        <time>2018-09-22T11:22:43.337Z</time>
      </trkpt>
      <trkpt lat="37.0704161" lon="-8.7870679">
        <ele>37.574</ele>
        <time>2018-09-22T11:22:46.803Z</time>
      </trkpt>
      <trkpt lat="37.0705000" lon="-8.7872837">
        <ele>39.627</ele>
        <time>2018-09-22T11:22:50.538Z</time>
      </trkpt>
      <trkpt lat="37.0706183" lon="-8.7875445">
        <ele>40.420</ele>
        <time>2018-09-22T11:22:54.755Z</time>
      </trkpt>
      <trkpt lat="37.0707947" lon="-8.7878383">
        <ele>39.989</ele>
        <time>2018-09-22T11:22:59.015Z</time>
      </trkpt>
      <trkpt lat="37.0709426" lon="-8.7881321">
        <ele>38.647</ele>
        <time>2018-09-22T11:23:02.371Z</time>
      </trkpt>
      <trkpt lat="37.0711037" lon="-8.7884423">
        <ele>36.681</ele>
        <time>2018-09-22T11:23:05.573Z</time>
      </trkpt>
      <trkpt lat="37.0712630" lon="-8.7887329">
        <ele>34.537</ele>
        <time>2018-09-22T11:23:08.587Z</time>
      </trkpt>
      <trkpt lat="37.0714131" lon="-8.7890325">
        <ele>32.826</ele>
        <time>2018-09-22T11:23:11.747Z</time>
      </trkpt>
      <trkpt lat="37.0715471" lon="-8.7893299">
        <ele>31.923</ele>
        <time>2018-09-22T11:23:14.949Z</time>
      </trkpt>
      <trkpt lat="37.0716102" lon="-8.7896255">
        <ele>31.836</ele>
        <time>2018-09-22T11:23:17.997Z</time>
      </trkpt>
      <trkpt lat="37.0717262" lon="-8.7899185">
        <ele>32.223</ele>
        <time>2018-09-22T11:23:21.441Z</time>
      </trkpt>
      <trkpt lat="37.0717564" lon="-8.7901672">
        <ele>32.648</ele>
        <time>2018-09-22T11:23:24.054Z</time>
      </trkpt>
      <trkpt lat="37.0718159" lon="-8.7904352">
        <ele>32.838</ele>
        <time>2018-09-22T11:23:26.833Z</time>
      </trkpt>
      <trkpt lat="37.0718503" lon="-8.7907188">
        <ele>32.688</ele>
        <time>2018-09-22T11:23:29.562Z</time>
      </trkpt>
      <trkpt lat="37.0718354" lon="-8.7910293">
        <ele>32.255</ele>
        <time>2018-09-22T11:23:32.393Z</time>
      </trkpt>
      <trkpt lat="37.0717827" lon="-8.7913482">
        <ele>31.617</ele>
        <time>2018-09-22T11:23:35.239Z</time>
      </trkpt>
      <trkpt lat="37.0717031" lon="-8.7916651">
        <ele>30.759</ele>
        <time>2018-09-22T11:23:38.038Z</time>
      </trkpt>
      <trkpt lat="37.0715933" lon="-8.7919961">
        <ele>29.685</ele>
        <time>2018-09-22T11:23:40.987Z</time>
      </trkpt>
      <trkpt lat="37.0714793" lon="-8.7923313">
        <ele>28.322</ele>
        <time>2018-09-22T11:23:43.970Z</time>
      </trkpt>
      <trkpt lat="37.0713664" lon="-8.7926641">
        <ele>26.585</ele>
        <time>2018-09-22T11:23:46.952Z</time>
      </trkpt>
      <trkpt lat="37.0712477" lon="-8.7930045">
        <ele>24.563</ele>
        <time>2018-09-22T11:23:50.108Z</time>
      </trkpt>
      <trkpt lat="37.0711313" lon="-8.7932985">
        <ele>22.126</ele>
        <time>2018-09-22T11:23:52.934Z</time>
      </trkpt>
      <trkpt lat="37.0710095" lon="-8.7935981">
        <ele>19.350</ele>
        <time>2018-09-22T11:23:55.797Z</time>
      </trkpt>
      <trkpt lat="37.0708791" lon="-8.7938972">
        <ele>16.785</ele>
        <time>2018-09-22T11:23:58.684Z</time>
      </trkpt>
      <trkpt lat="37.0707463" lon="-8.7941890">
        <ele>14.902</ele>
        <time>2018-09-22T11:24:01.501Z</time>
      </trkpt>
      <trkpt lat="37.0706231" lon="-8.7945122">
        <ele>13.855</ele>
        <time>2018-09-22T11:24:04.461Z</time>
      </trkpt>
      <trkpt lat="37.0704876" lon="-8.7948294">
        <ele>13.444</ele>
        <time>2018-09-22T11:24:07.484Z</time>
      </trkpt>
      <trkpt lat="37.0703581" lon="-8.7951341">
        <ele>13.015</ele>
        <time>2018-09-22T11:24:10.592Z</time>
      </trkpt>
      <trkpt lat="37.0702344" lon="-8.7954182">
        <ele>12.275</ele>
        <time>2018-09-22T11:24:13.805Z</time>
      </trkpt>
      <trkpt lat="37.0701313" lon="-8.7956643">
        <ele>11.656</ele>
        <time>2018-09-22T11:24:16.832Z</time>
      </trkpt>
      <trkpt lat="37.0700553" lon="-8.7959077">
        <ele>11.511</ele>
        <time>2018-09-22T11:24:20.048Z</time>
      </trkpt>
      <trkpt lat="37.0699788" lon="-8.7961123">
        <ele>11.578</ele>
        <time>2018-09-22T11:24:23.261Z</time>
      </trkpt>
      <trkpt lat="37.0699071" lon="-8.7962877">
        <ele>11.557</ele>
        <time>2018-09-22T11:24:26.337Z</time>
      </trkpt>
      <trkpt lat="37.0698289" lon="-8.7964351">
        <ele>11.496</ele>
        <time>2018-09-22T11:24:29.209Z</time>
      </trkpt>
      <trkpt lat="37.0697692" lon="-8.7965963">
        <ele>11.634</ele>
        <time>2018-09-22T11:24:32.133Z</time>
      </trkpt>
      <trkpt lat="37.0697087" lon="-8.7967480">
        <ele>12.015</ele>
        <time>2018-09-22T11:24:34.894Z</time>
      </trkpt>
      <trkpt lat="37.0696445" lon="-8.7969171">
        <ele>12.516</ele>
        <time>2018-09-22T11:24:37.918Z</time>
      </trkpt>
      <trkpt lat="37.0695728" lon="-8.7970612">
        <ele>13.176</ele>
        <time>2018-09-22T11:24:40.729Z</time>
      </trkpt>
      <trkpt lat="37.0695086" lon="-8.7972153">
        <ele>14.052</ele>
        <time>2018-09-22T11:24:43.693Z</time>
      </trkpt>
      <trkpt lat="37.0694383" lon="-8.7973672">
        <ele>14.901</ele>
        <time>2018-09-22T11:24:46.684Z</time>
      </trkpt>
      <trkpt lat="37.0693790" lon="-8.7975227">
        <ele>15.415</ele>
        <time>2018-09-22T11:24:49.678Z</time>
      </trkpt>
      <trkpt lat="37.0693305" lon="-8.7976772">
        <ele>15.537</ele>
        <time>2018-09-22T11:24:52.714Z</time>
      </trkpt>
      <trkpt lat="37.0692610" lon="-8.7978093">
        <ele>15.456</ele>
        <time>2018-09-22T11:24:55.731Z</time>
      </trkpt>
      <trkpt lat="37.0692165" lon="-8.7979621">
        <ele>15.419</ele>
        <time>2018-09-22T11:24:58.881Z</time>
      </trkpt>
      <trkpt lat="37.0691503" lon="-8.7980892">
        <ele>15.681</ele>
        <time>2018-09-22T11:25:01.758Z</time>
      </trkpt>
      <trkpt lat="37.0690897" lon="-8.7982208">
        <ele>16.367</ele>
        <time>2018-09-22T11:25:04.618Z</time>
      </trkpt>
      <trkpt lat="37.0690311" lon="-8.7983419">
        <ele>17.244</ele>
        <time>2018-09-22T11:25:07.254Z</time>
      </trkpt>
      <trkpt lat="37.0689453" lon="-8.7984737">
        <ele>18.524</ele>
        <time>2018-09-22T11:25:10.198Z</time>
      </trkpt>
      <trkpt lat="37.0688836" lon="-8.7986270">
        <ele>20.409</ele>
        <time>2018-09-22T11:25:13.019Z</time>
      </trkpt>
      <trkpt lat="37.0688261" lon="-8.7987797">
        <ele>22.120</ele>
        <time>2018-09-22T11:25:15.852Z</time>
      </trkpt>
      <trkpt lat="37.0688040" lon="-8.7989324">
        <ele>22.958</ele>
        <time>2018-09-22T11:25:18.517Z</time>
      </trkpt>
      <trkpt lat="37.0687744" lon="-8.7991133">
        <ele>23.278</ele>
        <time>2018-09-22T11:25:21.803Z</time>
      </trkpt>
      <trkpt lat="37.0687596" lon="-8.7992745">
        <ele>23.548</ele>
        <time>2018-09-22T11:25:24.911Z</time>
      </trkpt>
      <trkpt lat="37.0687677" lon="-8.7994158">
        <ele>23.963</ele>
        <time>2018-09-22T11:25:27.992Z</time>
      </trkpt>
      <trkpt lat="37.0687830" lon="-8.7995534">
        <ele>24.529</ele>
        <time>2018-09-22T11:25:31.275Z</time>
      </trkpt>
      <trkpt lat="37.0688096" lon="-8.7996622">
        <ele>25.261</ele>
        <time>2018-09-22T11:25:34.091Z</time>
      </trkpt>
      <trkpt lat="37.0688378" lon="-8.7997765">
        <ele>26.277</ele>
        <time>2018-09-22T11:25:37.085Z</time>
      </trkpt>
      <trkpt lat="37.0688565" lon="-8.7998963">
        <ele>27.538</ele>
        <time>2018-09-22T11:25:40.177Z</time>
      </trkpt>
      <trkpt lat="37.0688721" lon="-8.8000114">
        <ele>28.694</ele>
        <time>2018-09-22T11:25:43.115Z</time>
      </trkpt>
      <trkpt lat="37.0689065" lon="-8.8001319">
        <ele>29.491</ele>
        <time>2018-09-22T11:25:46.354Z</time>
      </trkpt>
      <trkpt lat="37.0689292" lon="-8.8002772">
        <ele>29.972</ele>
        <time>2018-09-22T11:25:50.152Z</time>
      </trkpt>
      <trkpt lat="37.0689491" lon="-8.8003884">
        <ele>30.295</ele>
        <time>2018-09-22T11:25:53.059Z</time>
      </trkpt>
      <trkpt lat="37.0689576" lon="-8.8005030">
        <ele>30.568</ele>
        <time>2018-09-22T11:25:55.944Z</time>
      </trkpt>
      <trkpt lat="37.0689805" lon="-8.8006189">
        <ele>30.973</ele>
        <time>2018-09-22T11:25:58.820Z</time>
      </trkpt>
      <trkpt lat="37.0690160" lon="-8.8007380">
        <ele>31.745</ele>
        <time>2018-09-22T11:26:01.751Z</time>
      </trkpt>
      <trkpt lat="37.0690380" lon="-8.8008615">
        <ele>32.724</ele>
        <time>2018-09-22T11:26:04.613Z</time>
      </trkpt>
      <trkpt lat="37.0690615" lon="-8.8009890">
        <ele>33.562</ele>
        <time>2018-09-22T11:26:07.595Z</time>
      </trkpt>
      <trkpt lat="37.0690825" lon="-8.8011100">
        <ele>34.238</ele>
        <time>2018-09-22T11:26:10.457Z</time>
      </trkpt>
      <trkpt lat="37.0691127" lon="-8.8012310">
        <ele>34.872</ele>
        <time>2018-09-22T11:26:13.408Z</time>
      </trkpt>
      <trkpt lat="37.0691487" lon="-8.8013557">
        <ele>35.432</ele>
        <time>2018-09-22T11:26:16.485Z</time>
      </trkpt>
      <trkpt lat="37.0691673" lon="-8.8014862">
        <ele>35.897</ele>
        <time>2018-09-22T11:26:19.537Z</time>
      </trkpt>
      <trkpt lat="37.0691889" lon="-8.8016107">
        <ele>36.423</ele>
        <time>2018-09-22T11:26:22.509Z</time>
      </trkpt>
      <trkpt lat="37.0692213" lon="-8.8017198">
        <ele>37.078</ele>
        <time>2018-09-22T11:26:25.342Z</time>
      </trkpt>
      <trkpt lat="37.0692666" lon="-8.8018213">
        <ele>37.735</ele>
        <time>2018-09-22T11:26:28.264Z</time>
      </trkpt>
      <trkpt lat="37.0693201" lon="-8.8019194">
        <ele>38.287</ele>
        <time>2018-09-22T11:26:31.212Z</time>
      </trkpt>
      <trkpt lat="37.0693814" lon="-8.8020223">
        <ele>38.733</ele>
        <time>2018-09-22T11:26:34.385Z</time>
      </trkpt>
      <trkpt lat="37.0694331" lon="-8.8021383">
        <ele>39.130</ele>
        <time>2018-09-22T11:26:37.764Z</time>
      </trkpt>
      <trkpt lat="37.0695090" lon="-8.8022235">
        <ele>39.413</ele>
        <time>2018-09-22T11:26:41.026Z</time>
      </trkpt>
      <trkpt lat="37.0695835" lon="-8.8023363">
        <ele>39.191</ele>
        <time>2018-09-22T11:26:44.722Z</time>
      </trkpt>
      <trkpt lat="37.0696378" lon="-8.8024524">
        <ele>38.379</ele>
        <time>2018-09-22T11:26:48.303Z</time>
      </trkpt>
      <trkpt lat="37.0696732" lon="-8.8025592">
        <ele>37.797</ele>
        <time>2018-09-22T11:26:51.402Z</time>
      </trkpt>
      <trkpt lat="37.0697023" lon="-8.8026938">
        <ele>38.032</ele>
        <time>2018-09-22T11:26:55.156Z</time>
      </trkpt>
      <trkpt lat="37.0697086" lon="-8.8028216">
        <ele>38.421</ele>
        <time>2018-09-22T11:26:59.035Z</time>
      </trkpt>
      <trkpt lat="37.0697429" lon="-8.8029465">
        <ele>38.296</ele>
        <time>2018-09-22T11:27:03.418Z</time>
      </trkpt>
      <trkpt lat="37.0697747" lon="-8.8030558">
        <ele>38.013</ele>
        <time>2018-09-22T11:27:07.136Z</time>
      </trkpt>
      <trkpt lat="37.0697928" lon="-8.8031933">
        <ele>38.653</ele>
        <time>2018-09-22T11:27:11.376Z</time>
      </trkpt>
      <trkpt lat="37.0698158" lon="-8.8033179">
        <ele>40.526</ele>
        <time>2018-09-22T11:27:15.175Z</time>
      </trkpt>
      <trkpt lat="37.0698182" lon="-8.8034417">
        <ele>42.669</ele>
        <time>2018-09-22T11:27:18.819Z</time>
      </trkpt>
      <trkpt lat="37.0698293" lon="-8.8035724">
        <ele>44.142</ele>
        <time>2018-09-22T11:27:22.712Z</time>
      </trkpt>
      <trkpt lat="37.0698382" lon="-8.8036965">
        <ele>44.841</ele>
        <time>2018-09-22T11:27:26.576Z</time>
      </trkpt>
      <trkpt lat="37.0698563" lon="-8.8038255">
        <ele>45.028</ele>
        <time>2018-09-22T11:27:30.734Z</time>
      </trkpt>
      <trkpt lat="37.0698661" lon="-8.8039391">
        <ele>45.048</ele>
        <time>2018-09-22T11:27:34.425Z</time>
      </trkpt>
      <trkpt lat="37.0698600" lon="-8.8040754">
        <ele>45.097</ele>
        <time>2018-09-22T11:27:38.987Z</time>
      </trkpt>
      <trkpt lat="37.0698531" lon="-8.8041879">
        <ele>45.257</ele>
        <time>2018-09-22T11:27:42.918Z</time>
      </trkpt>
      <trkpt lat="37.0698207" lon="-8.8043083">
        <ele>45.581</ele>
        <time>2018-09-22T11:27:47.281Z</time>
      </trkpt>
      <trkpt lat="37.0697926" lon="-8.8044230">
        <ele>46.304</ele>
        <time>2018-09-22T11:27:51.252Z</time>
      </trkpt>
      <trkpt lat="37.0697700" lon="-8.8045329">
        <ele>47.586</ele>
        <time>2018-09-22T11:27:54.999Z</time>
      </trkpt>
      <trkpt lat="37.0697700" lon="-8.8045329">
        <ele>48.994</ele>
        <time>2018-09-22T11:28:09.999Z</time>
      </trkpt>
      <trkpt lat="37.0697700" lon="-8.8045329">
        <ele>49.756</ele>
        <time>2018-09-22T11:30:30.597Z</time>
      </trkpt>
      <trkpt lat="37.0696875" lon="-8.8048631">
        <ele>49.674</ele>
        <time>2018-09-22T11:30:47.227Z</time>
      </trkpt>
      <trkpt lat="37.0696673" lon="-8.8049755">
        <ele>50.181</ele>
        <time>2018-09-22T11:30:50.295Z</time>
      </trkpt>
      <trkpt lat="37.0696541" lon="-8.8050949">
        <ele>52.515</ele>
        <time>2018-09-22T11:30:53.574Z</time>
      </trkpt>
      <trkpt lat="37.0696261" lon="-8.8052104">
        <ele>55.574</ele>
        <time>2018-09-22T11:30:56.996Z</time>
      </trkpt>
      <trkpt lat="37.0696261" lon="-8.8052104">
        <ele>57.644</ele>
        <time>2018-09-22T11:31:08.996Z</time>
      </trkpt>
      <trkpt lat="37.0696261" lon="-8.8052104">
        <ele>58.380</ele>
        <time>2018-09-22T11:39:28.916Z</time>
      </trkpt>
      <trkpt lat="37.0695248" lon="-8.8054059">
        <ele>58.226</ele>
        <time>2018-09-22T11:39:42.233Z</time>
      </trkpt>
      <trkpt lat="37.0695142" lon="-8.8055256">
        <ele>58.385</ele>
        <time>2018-09-22T11:39:46.418Z</time>
      </trkpt>
      <trkpt lat="37.0694887" lon="-8.8056414">
        <ele>59.597</ele>
        <time>2018-09-22T11:39:50.549Z</time>
      </trkpt>
      <trkpt lat="37.0694769" lon="-8.8057694">
        <ele>61.101</ele>
        <time>2018-09-22T11:39:55.594Z</time>
      </trkpt>
      <trkpt lat="37.0694826" lon="-8.8058919">
        <ele>61.972</ele>
        <time>2018-09-22T11:40:00.496Z</time>
      </trkpt>
      <trkpt lat="37.0694321" lon="-8.8060189">
        <ele>62.230</ele>
        <time>2018-09-22T11:40:04.966Z</time>
      </trkpt>
      <trkpt lat="37.0693971" lon="-8.8061571">
        <ele>62.205</ele>
        <time>2018-09-22T11:40:08.751Z</time>
      </trkpt>
      <trkpt lat="37.0693622" lon="-8.8062712">
        <ele>62.122</ele>
        <time>2018-09-22T11:40:11.851Z</time>
      </trkpt>
      <trkpt lat="37.0693170" lon="-8.8063747">
        <ele>62.006</ele>
        <time>2018-09-22T11:40:14.927Z</time>
      </trkpt>
      <trkpt lat="37.0692584" lon="-8.8064841">
        <ele>61.821</ele>
        <time>2018-09-22T11:40:18.397Z</time>
      </trkpt>
      <trkpt lat="37.0691937" lon="-8.8065651">
        <ele>61.596</ele>
        <time>2018-09-22T11:40:21.247Z</time>
      </trkpt>
      <trkpt lat="37.0691211" lon="-8.8066487">
        <ele>61.460</ele>
        <time>2018-09-22T11:40:24.195Z</time>
      </trkpt>
      <trkpt lat="37.0690501" lon="-8.8067315">
        <ele>61.501</ele>
        <time>2018-09-22T11:40:26.955Z</time>
      </trkpt>
      <trkpt lat="37.0689709" lon="-8.8068356">
        <ele>61.619</ele>
        <time>2018-09-22T11:40:30.155Z</time>
      </trkpt>
      <trkpt lat="37.0689052" lon="-8.8069279">
        <ele>61.635</ele>
        <time>2018-09-22T11:40:33.439Z</time>
      </trkpt>
      <trkpt lat="37.0688409" lon="-8.8070310">
        <ele>61.351</ele>
        <time>2018-09-22T11:40:37.447Z</time>
      </trkpt>
      <trkpt lat="37.0687776" lon="-8.8071313">
        <ele>60.552</ele>
        <time>2018-09-22T11:40:41.867Z</time>
      </trkpt>
      <trkpt lat="37.0687216" lon="-8.8072197">
        <ele>59.085</ele>
        <time>2018-09-22T11:40:45.879Z</time>
      </trkpt>
      <trkpt lat="37.0686517" lon="-8.8073127">
        <ele>57.240</ele>
        <time>2018-09-22T11:40:50.331Z</time>
      </trkpt>
      <trkpt lat="37.0685756" lon="-8.8073974">
        <ele>55.637</ele>
        <time>2018-09-22T11:40:54.441Z</time>
      </trkpt>
      <trkpt lat="37.0684817" lon="-8.8074817">
        <ele>54.605</ele>
        <time>2018-09-22T11:40:58.564Z</time>
      </trkpt>
      <trkpt lat="37.0683880" lon="-8.8075461">
        <ele>54.004</ele>
        <time>2018-09-22T11:41:01.639Z</time>
      </trkpt>
      <trkpt lat="37.0682662" lon="-8.8076153">
        <ele>53.371</ele>
        <time>2018-09-22T11:41:04.802Z</time>
      </trkpt>
      <trkpt lat="37.0681428" lon="-8.8076940">
        <ele>52.288</ele>
        <time>2018-09-22T11:41:07.819Z</time>
      </trkpt>
      <trkpt lat="37.0680329" lon="-8.8077862">
        <ele>50.736</ele>
        <time>2018-09-22T11:41:10.818Z</time>
      </trkpt>
      <trkpt lat="37.0679532" lon="-8.8078877">
        <ele>48.941</ele>
        <time>2018-09-22T11:41:13.722Z</time>
      </trkpt>
      <trkpt lat="37.0678981" lon="-8.8079923">
        <ele>47.185</ele>
        <time>2018-09-22T11:41:16.705Z</time>
      </trkpt>
      <trkpt lat="37.0678262" lon="-8.8080871">
        <ele>45.761</ele>
        <time>2018-09-22T11:41:20.496Z</time>
      </trkpt>
      <trkpt lat="37.0678102" lon="-8.8082100">
        <ele>44.885</ele>
        <time>2018-09-22T11:41:24.992Z</time>
      </trkpt>
      <trkpt lat="37.0678102" lon="-8.8082100">
        <ele>44.568</ele>
        <time>2018-09-22T11:41:28.992Z</time>
      </trkpt>
      <trkpt lat="37.0678102" lon="-8.8082100">
        <ele>44.545</ele>
        <time>2018-09-22T11:44:35.565Z</time>
      </trkpt>
      <trkpt lat="37.0678726" lon="-8.8084602">
        <ele>44.556</ele>
        <time>2018-09-22T11:44:52.762Z</time>
      </trkpt>
      <trkpt lat="37.0679526" lon="-8.8085373">
        <ele>43.722</ele>
        <time>2018-09-22T11:45:01.189Z</time>
      </trkpt>
      <trkpt lat="37.0680103" lon="-8.8086370">
        <ele>41.476</ele>
        <time>2018-09-22T11:45:09.996Z</time>
      </trkpt>
      <trkpt lat="37.0680103" lon="-8.8086370">
        <ele>39.016</ele>
        <time>2018-09-22T11:45:15.996Z</time>
      </trkpt>
      <trkpt lat="37.0680103" lon="-8.8086370">
        <ele>37.855</ele>
        <time>2018-09-22T11:45:56.125Z</time>
      </trkpt>
      <trkpt lat="37.0681803" lon="-8.8088373">
        <ele>37.966</ele>
        <time>2018-09-22T11:46:31.189Z</time>
      </trkpt>
      <trkpt lat="37.0682653" lon="-8.8089005">
        <ele>37.534</ele>
        <time>2018-09-22T11:46:40.724Z</time>
      </trkpt>
      <trkpt lat="37.0683579" lon="-8.8089421">
        <ele>35.047</ele>
        <time>2018-09-22T11:46:49.819Z</time>
      </trkpt>
      <trkpt lat="37.0684483" lon="-8.8089880">
        <ele>31.633</ele>
        <time>2018-09-22T11:46:58.621Z</time>
      </trkpt>
      <trkpt lat="37.0685445" lon="-8.8090241">
        <ele>29.120</ele>
        <time>2018-09-22T11:47:07.569Z</time>
      </trkpt>
      <trkpt lat="37.0686392" lon="-8.8090539">
        <ele>27.602</ele>
        <time>2018-09-22T11:47:15.552Z</time>
      </trkpt>
      <trkpt lat="37.0687290" lon="-8.8090745">
        <ele>26.471</ele>
        <time>2018-09-22T11:47:22.646Z</time>
      </trkpt>
      <trkpt lat="37.0688268" lon="-8.8090790">
        <ele>25.460</ele>
        <time>2018-09-22T11:47:30.141Z</time>
      </trkpt>
      <trkpt lat="37.0689224" lon="-8.8090726">
        <ele>24.635</ele>
        <time>2018-09-22T11:47:37.345Z</time>
      </trkpt>
      <trkpt lat="37.0690136" lon="-8.8090693">
        <ele>23.966</ele>
        <time>2018-09-22T11:47:44.393Z</time>
      </trkpt>
      <trkpt lat="37.0691104" lon="-8.8090762">
        <ele>23.216</ele>
        <time>2018-09-22T11:47:51.690Z</time>
      </trkpt>
      <trkpt lat="37.0692012" lon="-8.8090781">
        <ele>22.224</ele>
        <time>2018-09-22T11:47:58.350Z</time>
      </trkpt>
      <trkpt lat="37.0692953" lon="-8.8090762">
        <ele>21.177</ele>
        <time>2018-09-22T11:48:05.077Z</time>
      </trkpt>
      <trkpt lat="37.0693947" lon="-8.8090695">
        <ele>20.058</ele>
        <time>2018-09-22T11:48:11.808Z</time>
      </trkpt>
      <trkpt lat="37.0694955" lon="-8.8090912">
        <ele>18.759</ele>
        <time>2018-09-22T11:48:19.211Z</time>
      </trkpt>
      <trkpt lat="37.0695952" lon="-8.8090677">
        <ele>17.583</ele>
        <time>2018-09-22T11:48:27.406Z</time>
      </trkpt>
      <trkpt lat="37.0696885" lon="-8.8090490">
        <ele>16.643</ele>
        <time>2018-09-22T11:48:34.814Z</time>
      </trkpt>
      <trkpt lat="37.0697761" lon="-8.8090052">
        <ele>15.604</ele>
        <time>2018-09-22T11:48:41.834Z</time>
      </trkpt>
      <trkpt lat="37.0698753" lon="-8.8089944">
        <ele>14.426</ele>
        <time>2018-09-22T11:48:48.911Z</time>
      </trkpt>
      <trkpt lat="37.0699653" lon="-8.8089690">
        <ele>13.429</ele>
        <time>2018-09-22T11:48:55.319Z</time>
      </trkpt>
      <trkpt lat="37.0700557" lon="-8.8089326">
        <ele>12.843</ele>
        <time>2018-09-22T11:49:01.998Z</time>
      </trkpt>
      <trkpt lat="37.0700557" lon="-8.8089326">
        <ele>12.651</ele>
        <time>2018-09-22T11:49:18.999Z</time>
      </trkpt>
      <trkpt lat="37.0700557" lon="-8.8089326">
        <ele>12.677</ele>
        <time>2018-09-22T11:57:19.114Z</time>
      </trkpt>
      <trkpt lat="37.0702335" lon="-8.8088205">
        <ele>12.729</ele>
        <time>2018-09-22T11:57:31.373Z</time>
      </trkpt>
      <trkpt lat="37.0703170" lon="-8.8086903">
        <ele>12.635</ele>
        <time>2018-09-22T11:57:35.011Z</time>
      </trkpt>
      <trkpt lat="37.0704124" lon="-8.8085827">
        <ele>12.275</ele>
        <time>2018-09-22T11:57:38.040Z</time>
      </trkpt>
      <trkpt lat="37.0704957" lon="-8.8084396">
        <ele>11.743</ele>
        <time>2018-09-22T11:57:40.735Z</time>
      </trkpt>
      <trkpt lat="37.0705712" lon="-8.8083168">
        <ele>11.304</ele>
        <time>2018-09-22T11:57:42.745Z</time>
      </trkpt>
      <trkpt lat="37.0706403" lon="-8.8081860">
        <ele>11.168</ele>
        <time>2018-09-22T11:57:44.569Z</time>
      </trkpt>
      <trkpt lat="37.0707356" lon="-8.8080481">
        <ele>11.323</ele>
        <time>2018-09-22T11:57:46.572Z</time>
      </trkpt>
      <trkpt lat="37.0708250" lon="-8.8079179">
        <ele>11.628</ele>
        <time>2018-09-22T11:57:48.438Z</time>
      </trkpt>
      <trkpt lat="37.0709126" lon="-8.8077765">
        <ele>11.944</ele>
        <time>2018-09-22T11:57:50.365Z</time>
      </trkpt>
      <trkpt lat="37.0709744" lon="-8.8076573">
        <ele>12.114</ele>
        <time>2018-09-22T11:57:51.871Z</time>
      </trkpt>
      <trkpt lat="37.0710868" lon="-8.8075169">
        <ele>11.918</ele>
        <time>2018-09-22T11:57:53.987Z</time>
      </trkpt>
      <trkpt lat="37.0711692" lon="-8.8073568">
        <ele>11.387</ele>
        <time>2018-09-22T11:57:56.017Z</time>
      </trkpt>
      <trkpt lat="37.0712514" lon="-8.8072113">
        <ele>10.802</ele>
        <time>2018-09-22T11:57:57.832Z</time>
      </trkpt>
      <trkpt lat="37.0713378" lon="-8.8070476">
        <ele>10.356</ele>
        <time>2018-09-22T11:57:59.749Z</time>
      </trkpt>
      <trkpt lat="37.0714044" lon="-8.8068696">
        <ele>10.090</ele>
        <time>2018-09-22T11:58:01.629Z</time>
      </trkpt>
      <trkpt lat="37.0715151" lon="-8.8067163">
        <ele>9.989</ele>
        <time>2018-09-22T11:58:03.529Z</time>
      </trkpt>
      <trkpt lat="37.0716074" lon="-8.8065834">
        <ele>9.800</ele>
        <time>2018-09-22T11:58:05.129Z</time>
      </trkpt>
      <trkpt lat="37.0718162" lon="-8.8063410">
        <ele>9.432</ele>
        <time>2018-09-22T11:58:08.266Z</time>
      </trkpt>
      <trkpt lat="37.0720037" lon="-8.8061054">
        <ele>9.099</ele>
        <time>2018-09-22T11:58:11.130Z</time>
      </trkpt>
      <trkpt lat="37.0722460" lon="-8.8059202">
        <ele>8.757</ele>
        <time>2018-09-22T11:58:14.225Z</time>
      </trkpt>
      <trkpt lat="37.0724832" lon="-8.8058646">
        <ele>7.986</ele>
        <time>2018-09-22T11:58:17.245Z</time>
      </trkpt>
      <trkpt lat="37.0726852" lon="-8.8059959">
        <ele>6.598</ele>
        <time>2018-09-22T11:58:20.841Z</time>
      </trkpt>
      <trkpt lat="37.0728341" lon="-8.8061294">
        <ele>4.860</ele>
        <time>2018-09-22T11:58:24.602Z</time>
      </trkpt>
      <trkpt lat="37.0729403" lon="-8.8062400">
        <ele>3.334</ele>
        <time>2018-09-22T11:58:28.657Z</time>
      </trkpt>
      <trkpt lat="37.0730211" lon="-8.8063359">
        <ele>2.424</ele>
        <time>2018-09-22T11:58:32.834Z</time>
      </trkpt>
      <trkpt lat="37.0731042" lon="-8.8063985">
        <ele>2.079</ele>
        <time>2018-09-22T11:58:36.686Z</time>
      </trkpt>
      <trkpt lat="37.0731789" lon="-8.8064937">
        <ele>1.900</ele>
        <time>2018-09-22T11:58:40.792Z</time>
      </trkpt>
      <trkpt lat="37.0732426" lon="-8.8065887">
        <ele>1.597</ele>
        <time>2018-09-22T11:58:44.597Z</time>
      </trkpt>
      <trkpt lat="37.0733102" lon="-8.8066982">
        <ele>1.226</ele>
        <time>2018-09-22T11:58:49.035Z</time>
      </trkpt>
      <trkpt lat="37.0733604" lon="-8.8068088">
        <ele>0.869</ele>
        <time>2018-09-22T11:58:53.071Z</time>
      </trkpt>
      <trkpt lat="37.0734032" lon="-8.8069162">
        <ele>0.501</ele>
        <time>2018-09-22T11:58:56.860Z</time>
      </trkpt>
      <trkpt lat="37.0734453" lon="-8.8070348">
        <ele>0.264</ele>
        <time>2018-09-22T11:59:01.151Z</time>
      </trkpt>
      <trkpt lat="37.0734645" lon="-8.8071549">
        <ele>0.302</ele>
        <time>2018-09-22T11:59:05.279Z</time>
      </trkpt>
      <trkpt lat="37.0734871" lon="-8.8072725">
        <ele>0.616</ele>
        <time>2018-09-22T11:59:09.304Z</time>
      </trkpt>
      <trkpt lat="37.0735052" lon="-8.8073926">
        <ele>1.091</ele>
        <time>2018-09-22T11:59:13.412Z</time>
      </trkpt>
      <trkpt lat="37.0734926" lon="-8.8075093">
        <ele>1.476</ele>
        <time>2018-09-22T11:59:17.294Z</time>
      </trkpt>
      <trkpt lat="37.0735045" lon="-8.8076446">
        <ele>1.629</ele>
        <time>2018-09-22T11:59:21.518Z</time>
      </trkpt>
      <trkpt lat="37.0734910" lon="-8.8077659">
        <ele>1.639</ele>
        <time>2018-09-22T11:59:25.217Z</time>
      </trkpt>
      <trkpt lat="37.0734977" lon="-8.8079103">
        <ele>1.611</ele>
        <time>2018-09-22T11:59:29.658Z</time>
      </trkpt>
      <trkpt lat="37.0734982" lon="-8.8080348">
        <ele>1.688</ele>
        <time>2018-09-22T11:59:33.505Z</time>
      </trkpt>
      <trkpt lat="37.0734752" lon="-8.8081494">
        <ele>1.957</ele>
        <time>2018-09-22T11:59:37.135Z</time>
      </trkpt>
      <trkpt lat="37.0734433" lon="-8.8082761">
        <ele>2.493</ele>
        <time>2018-09-22T11:59:41.080Z</time>
      </trkpt>
      <trkpt lat="37.0734307" lon="-8.8083999">
        <ele>3.309</ele>
        <time>2018-09-22T11:59:44.621Z</time>
      </trkpt>
      <trkpt lat="37.0734133" lon="-8.8085368">
        <ele>4.199</ele>
        <time>2018-09-22T11:59:48.504Z</time>
      </trkpt>
      <trkpt lat="37.0733996" lon="-8.8086752">
        <ele>4.865</ele>
        <time>2018-09-22T11:59:52.511Z</time>
      </trkpt>
      <trkpt lat="37.0734162" lon="-8.8088080">
        <ele>5.087</ele>
        <time>2018-09-22T11:59:56.355Z</time>
      </trkpt>
      <trkpt lat="37.0734151" lon="-8.8089342">
        <ele>4.737</ele>
        <time>2018-09-22T11:59:59.867Z</time>
      </trkpt>
      <trkpt lat="37.0734039" lon="-8.8090620">
        <ele>4.061</ele>
        <time>2018-09-22T12:00:03.477Z</time>
      </trkpt>
      <trkpt lat="37.0733763" lon="-8.8091849">
        <ele>3.508</ele>
        <time>2018-09-22T12:00:07.241Z</time>
      </trkpt>
      <trkpt lat="37.0733459" lon="-8.8093071">
        <ele>3.302</ele>
        <time>2018-09-22T12:00:11.006Z</time>
      </trkpt>
      <trkpt lat="37.0733223" lon="-8.8094451">
        <ele>3.422</ele>
        <time>2018-09-22T12:00:15.258Z</time>
      </trkpt>
      <trkpt lat="37.0733268" lon="-8.8095701">
        <ele>3.765</ele>
        <time>2018-09-22T12:00:19.101Z</time>
      </trkpt>
      <trkpt lat="37.0733202" lon="-8.8096918">
        <ele>4.148</ele>
        <time>2018-09-22T12:00:22.721Z</time>
      </trkpt>
      <trkpt lat="37.0733058" lon="-8.8098214">
        <ele>4.477</ele>
        <time>2018-09-22T12:00:26.540Z</time>
      </trkpt>
      <trkpt lat="37.0732938" lon="-8.8099544">
        <ele>4.777</ele>
        <time>2018-09-22T12:00:30.412Z</time>
      </trkpt>
      <trkpt lat="37.0732949" lon="-8.8100800">
        <ele>5.028</ele>
        <time>2018-09-22T12:00:33.986Z</time>
      </trkpt>
      <trkpt lat="37.0732818" lon="-8.8102188">
        <ele>5.191</ele>
        <time>2018-09-22T12:00:37.954Z</time>
      </trkpt>
      <trkpt lat="37.0732755" lon="-8.8103525">
        <ele>5.277</ele>
        <time>2018-09-22T12:00:41.841Z</time>
      </trkpt>
      <trkpt lat="37.0732785" lon="-8.8104736">
        <ele>5.304</ele>
        <time>2018-09-22T12:00:45.410Z</time>
      </trkpt>
      <trkpt lat="37.0732654" lon="-8.8106128">
        <ele>5.279</ele>
        <time>2018-09-22T12:00:49.584Z</time>
      </trkpt>
      <trkpt lat="37.0732521" lon="-8.8107284">
        <ele>5.246</ele>
        <time>2018-09-22T12:00:53.108Z</time>
      </trkpt>
      <trkpt lat="37.0732323" lon="-8.8108601">
        <ele>5.216</ele>
        <time>2018-09-22T12:00:57.236Z</time>
      </trkpt>
      <trkpt lat="37.0732221" lon="-8.8109831">
        <ele>5.072</ele>
        <time>2018-09-22T12:01:01.031Z</time>
      </trkpt>
      <trkpt lat="37.0732033" lon="-8.8111293">
        <ele>4.651</ele>
        <time>2018-09-22T12:01:05.349Z</time>
      </trkpt>
      <trkpt lat="37.0731936" lon="-8.8112693">
        <ele>3.821</ele>
        <time>2018-09-22T12:01:09.236Z</time>
      </trkpt>
      <trkpt lat="37.0731765" lon="-8.8114125">
        <ele>2.591</ele>
        <time>2018-09-22T12:01:13.092Z</time>
      </trkpt>
      <trkpt lat="37.0731612" lon="-8.8115576">
        <ele>1.383</ele>
        <time>2018-09-22T12:01:16.971Z</time>
      </trkpt>
      <trkpt lat="37.0731434" lon="-8.8116895">
        <ele>0.602</ele>
        <time>2018-09-22T12:01:20.638Z</time>
      </trkpt>
      <trkpt lat="37.0731284" lon="-8.8118267">
        <ele>0.249</ele>
        <time>2018-09-22T12:01:24.498Z</time>
      </trkpt>
      <trkpt lat="37.0731101" lon="-8.8119576">
        <ele>0.237</ele>
        <time>2018-09-22T12:01:28.216Z</time>
      </trkpt>
      <trkpt lat="37.0731027" lon="-8.8120796">
        <ele>0.575</ele>
        <time>2018-09-22T12:01:31.731Z</time>
      </trkpt>
      <trkpt lat="37.0731040" lon="-8.8122163">
        <ele>1.077</ele>
        <time>2018-09-22T12:01:35.675Z</time>
      </trkpt>
      <trkpt lat="37.0730913" lon="-8.8123555">
        <ele>1.469</ele>
        <time>2018-09-22T12:01:39.612Z</time>
      </trkpt>
      <trkpt lat="37.0730781" lon="-8.8124965">
        <ele>1.671</ele>
        <time>2018-09-22T12:01:43.576Z</time>
      </trkpt>
      <trkpt lat="37.0730667" lon="-8.8126098">
        <ele>1.753</ele>
        <time>2018-09-22T12:01:46.680Z</time>
      </trkpt>
      <trkpt lat="37.0730390" lon="-8.8127576">
        <ele>1.783</ele>
        <time>2018-09-22T12:01:50.682Z</time>
      </trkpt>
      <trkpt lat="37.0730205" lon="-8.8128767">
        <ele>1.795</ele>
        <time>2018-09-22T12:01:53.838Z</time>
      </trkpt>
      <trkpt lat="37.0730068" lon="-8.8130203">
        <ele>1.791</ele>
        <time>2018-09-22T12:01:57.821Z</time>
      </trkpt>
      <trkpt lat="37.0730007" lon="-8.8131449">
        <ele>1.807</ele>
        <time>2018-09-22T12:02:01.995Z</time>
      </trkpt>
      <trkpt lat="37.0730007" lon="-8.8131449">
        <ele>1.865</ele>
        <time>2018-09-22T12:02:12.994Z</time>
      </trkpt>
      <trkpt lat="37.0730007" lon="-8.8131449">
        <ele>1.916</ele>
        <time>2018-09-22T12:07:36.489Z</time>
      </trkpt>
      <trkpt lat="37.0728564" lon="-8.8132015">
        <ele>1.915</ele>
        <time>2018-09-22T12:07:45.891Z</time>
      </trkpt>
      <trkpt lat="37.0727521" lon="-8.8131623">
        <ele>2.412</ele>
        <time>2018-09-22T12:07:50.022Z</time>
      </trkpt>
      <trkpt lat="37.0726528" lon="-8.8131472">
        <ele>3.803</ele>
        <time>2018-09-22T12:07:53.851Z</time>
      </trkpt>
      <trkpt lat="37.0725590" lon="-8.8131277">
        <ele>5.314</ele>
        <time>2018-09-22T12:07:57.369Z</time>
      </trkpt>
      <trkpt lat="37.0724432" lon="-8.8131129">
        <ele>6.110</ele>
        <time>2018-09-22T12:08:01.473Z</time>
      </trkpt>
      <trkpt lat="37.0723267" lon="-8.8130839">
        <ele>6.327</ele>
        <time>2018-09-22T12:08:05.488Z</time>
      </trkpt>
      <trkpt lat="37.0722310" lon="-8.8130629">
        <ele>6.297</ele>
        <time>2018-09-22T12:08:08.634Z</time>
      </trkpt>
      <trkpt lat="37.0721389" lon="-8.8130472">
        <ele>6.168</ele>
        <time>2018-09-22T12:08:11.624Z</time>
      </trkpt>
      <trkpt lat="37.0720467" lon="-8.8130255">
        <ele>6.005</ele>
        <time>2018-09-22T12:08:14.660Z</time>
      </trkpt>
      <trkpt lat="37.0719569" lon="-8.8130174">
        <ele>5.868</ele>
        <time>2018-09-22T12:08:17.684Z</time>
      </trkpt>
      <trkpt lat="37.0718474" lon="-8.8130301">
        <ele>5.682</ele>
        <time>2018-09-22T12:08:22.175Z</time>
      </trkpt>
      <trkpt lat="37.0717675" lon="-8.8131062">
        <ele>5.394</ele>
        <time>2018-09-22T12:08:27.623Z</time>
      </trkpt>
      <trkpt lat="37.0716859" lon="-8.8131712">
        <ele>5.115</ele>
        <time>2018-09-22T12:08:34.377Z</time>
      </trkpt>
      <trkpt lat="37.0716121" lon="-8.8132399">
        <ele>4.927</ele>
        <time>2018-09-22T12:08:39.414Z</time>
      </trkpt>
      <trkpt lat="37.0715377" lon="-8.8133196">
        <ele>4.810</ele>
        <time>2018-09-22T12:08:43.828Z</time>
      </trkpt>
      <trkpt lat="37.0714594" lon="-8.8134136">
        <ele>4.811</ele>
        <time>2018-09-22T12:08:49.285Z</time>
      </trkpt>
      <trkpt lat="37.0713836" lon="-8.8134854">
        <ele>5.035</ele>
        <time>2018-09-22T12:08:54.995Z</time>
      </trkpt>
      <trkpt lat="37.0713836" lon="-8.8134854">
        <ele>5.430</ele>
        <time>2018-09-22T12:09:02.995Z</time>
      </trkpt>
      <trkpt lat="37.0713836" lon="-8.8134854">
        <ele>5.701</ele>
        <time>2018-09-22T12:11:02.961Z</time>
      </trkpt>
      <trkpt lat="37.0712409" lon="-8.8136301">
        <ele>5.687</ele>
        <time>2018-09-22T12:11:16.478Z</time>
      </trkpt>
      <trkpt lat="37.0711693" lon="-8.8137198">
        <ele>6.134</ele>
        <time>2018-09-22T12:11:20.866Z</time>
      </trkpt>
      <trkpt lat="37.0710918" lon="-8.8137957">
        <ele>7.677</ele>
        <time>2018-09-22T12:11:25.260Z</time>
      </trkpt>
      <trkpt lat="37.0710329" lon="-8.8138867">
        <ele>9.618</ele>
        <time>2018-09-22T12:11:29.666Z</time>
      </trkpt>
      <trkpt lat="37.0709926" lon="-8.8139895">
        <ele>11.166</ele>
        <time>2018-09-22T12:11:34.267Z</time>
      </trkpt>
      <trkpt lat="37.0709471" lon="-8.8140940">
        <ele>12.373</ele>
        <time>2018-09-22T12:11:39.468Z</time>
      </trkpt>
      <trkpt lat="37.0709027" lon="-8.8141978">
        <ele>13.294</ele>
        <time>2018-09-22T12:11:44.932Z</time>
      </trkpt>
      <trkpt lat="37.0708724" lon="-8.8143158">
        <ele>13.976</ele>
        <time>2018-09-22T12:11:50.978Z</time>
      </trkpt>
      <trkpt lat="37.0708385" lon="-8.8144300">
        <ele>14.718</ele>
        <time>2018-09-22T12:11:57.191Z</time>
      </trkpt>
      <trkpt lat="37.0708050" lon="-8.8145443">
        <ele>15.826</ele>
        <time>2018-09-22T12:12:04.106Z</time>
      </trkpt>
      <trkpt lat="37.0707732" lon="-8.8146582">
        <ele>17.220</ele>
        <time>2018-09-22T12:12:11.739Z</time>
      </trkpt>
      <trkpt lat="37.0707426" lon="-8.8147696">
        <ele>18.615</ele>
        <time>2018-09-22T12:12:19.398Z</time>
      </trkpt>
      <trkpt lat="37.0707070" lon="-8.8148833">
        <ele>19.977</ele>
        <time>2018-09-22T12:12:27.216Z</time>
      </trkpt>
      <trkpt lat="37.0706706" lon="-8.8149945">
        <ele>21.336</ele>
        <time>2018-09-22T12:12:34.919Z</time>
      </trkpt>
      <trkpt lat="37.0706389" lon="-8.8151177">
        <ele>22.821</ele>
        <time>2018-09-22T12:12:42.778Z</time>
      </trkpt>
      <trkpt lat="37.0705993" lon="-8.8152228">
        <ele>24.585</ele>
        <time>2018-09-22T12:12:50.361Z</time>
      </trkpt>
      <trkpt lat="37.0705706" lon="-8.8153304">
        <ele>26.458</ele>
        <time>2018-09-22T12:12:58.486Z</time>
      </trkpt>
      <trkpt lat="37.0705454" lon="-8.8154387">
        <ele>28.146</ele>
        <time>2018-09-22T12:13:06.780Z</time>
      </trkpt>
      <trkpt lat="37.0705201" lon="-8.8155543">
        <ele>29.595</ele>
        <time>2018-09-22T12:13:15.998Z</time>
      </trkpt>
      <trkpt lat="37.0705201" lon="-8.8155543">
        <ele>30.703</ele>
        <time>2018-09-22T12:13:28.998Z</time>
      </trkpt>
      <trkpt lat="37.0705201" lon="-8.8155543">
        <ele>31.233</ele>
        <time>2018-09-22T12:13:29.183Z</time>
      </trkpt>
      <trkpt lat="37.0704403" lon="-8.8157828">
        <ele>31.165</ele>
        <time>2018-09-22T12:13:52.956Z</time>
      </trkpt>
      <trkpt lat="37.0704022" lon="-8.8158889">
        <ele>31.786</ele>
        <time>2018-09-22T12:14:01.524Z</time>
      </trkpt>
      <trkpt lat="37.0703679" lon="-8.8160002">
        <ele>34.274</ele>
        <time>2018-09-22T12:14:09.993Z</time>
      </trkpt>
      <trkpt lat="37.0703389" lon="-8.8161075">
        <ele>37.614</ele>
        <time>2018-09-22T12:14:17.608Z</time>
      </trkpt>
      <trkpt lat="37.0702979" lon="-8.8162179">
        <ele>40.143</ele>
        <time>2018-09-22T12:14:26.684Z</time>
      </trkpt>
      <trkpt lat="37.0702587" lon="-8.8163223">
        <ele>41.945</ele>
        <time>2018-09-22T12:14:36.064Z</time>
      </trkpt>
      <trkpt lat="37.0702182" lon="-8.8164326">
        <ele>43.703</ele>
        <time>2018-09-22T12:14:45.261Z</time>
      </trkpt>
      <trkpt lat="37.0702018" lon="-8.8165561">
        <ele>45.576</ele>
        <time>2018-09-22T12:14:54.190Z</time>
      </trkpt>
      <trkpt lat="37.0701769" lon="-8.8166740">
        <ele>47.472</ele>
        <time>2018-09-22T12:15:02.496Z</time>
      </trkpt>
      <trkpt lat="37.0701401" lon="-8.8167778">
        <ele>49.346</ele>
        <time>2018-09-22T12:15:10.227Z</time>
      </trkpt>
      <trkpt lat="37.0700603" lon="-8.8167227">
        <ele>51.021</ele>
        <time>2018-09-22T12:15:17.996Z</time>
      </trkpt>
      <trkpt lat="37.0700603" lon="-8.8167227">
        <ele>52.243</ele>
        <time>2018-09-22T12:15:35.995Z</time>
      </trkpt>
      <trkpt lat="37.0700603" lon="-8.8167227">
        <ele>52.751</ele>
        <time>2018-09-22T12:15:37.599Z</time>
      </trkpt>
      <trkpt lat="37.0700476" lon="-8.8169390">
        <ele>52.660</ele>
        <time>2018-09-22T12:15:56.242Z</time>
      </trkpt>
      <trkpt lat="37.0700435" lon="-8.8170531">
        <ele>53.181</ele>
        <time>2018-09-22T12:16:01.281Z</time>
      </trkpt>
      <trkpt lat="37.0700265" lon="-8.8171751">
        <ele>55.096</ele>
        <time>2018-09-22T12:16:05.995Z</time>
      </trkpt>
      <trkpt lat="37.0700265" lon="-8.8171751">
        <ele>57.201</ele>
        <time>2018-09-22T12:16:22.995Z</time>
      </trkpt>
      <trkpt lat="37.0700265" lon="-8.8171751">
        <ele>58.110</ele>
        <time>2018-09-22T12:16:56.650Z</time>
      </trkpt>
      <trkpt lat="37.0700100" lon="-8.8169647">
        <ele>57.965</ele>
        <time>2018-09-22T12:17:08.920Z</time>
      </trkpt>
      <trkpt lat="37.0700161" lon="-8.8168455">
        <ele>57.740</ele>
        <time>2018-09-22T12:17:12.994Z</time>
      </trkpt>
      <trkpt lat="37.0700161" lon="-8.8168455">
        <ele>58.090</ele>
        <time>2018-09-22T12:17:29.993Z</time>
      </trkpt>
      <trkpt lat="37.0700161" lon="-8.8168455">
        <ele>58.541</ele>
        <time>2018-09-22T12:18:31.932Z</time>
      </trkpt>
      <trkpt lat="37.0700599" lon="-8.8170313">
        <ele>58.529</ele>
        <time>2018-09-22T12:18:46.017Z</time>
      </trkpt>
      <trkpt lat="37.0700646" lon="-8.8171446">
        <ele>58.479</ele>
        <time>2018-09-22T12:18:50.996Z</time>
      </trkpt>
      <trkpt lat="37.0700646" lon="-8.8171446">
        <ele>58.857</ele>
        <time>2018-09-22T12:19:04.998Z</time>
      </trkpt>
      <trkpt lat="37.0700646" lon="-8.8171446">
        <ele>59.262</ele>
        <time>2018-09-22T12:20:32.641Z</time>
      </trkpt>
      <trkpt lat="37.0700941" lon="-8.8173629">
        <ele>59.242</ele>
        <time>2018-09-22T12:20:43.010Z</time>
      </trkpt>
      <trkpt lat="37.0701021" lon="-8.8175178">
        <ele>59.018</ele>
        <time>2018-09-22T12:20:46.724Z</time>
      </trkpt>
      <trkpt lat="37.0701117" lon="-8.8177400">
        <ele>58.896</ele>
        <time>2018-09-22T12:20:50.809Z</time>
      </trkpt>
      <trkpt lat="37.0701293" lon="-8.8180278">
        <ele>58.694</ele>
        <time>2018-09-22T12:20:54.913Z</time>
      </trkpt>
      <trkpt lat="37.0701663" lon="-8.8183357">
        <ele>57.934</ele>
        <time>2018-09-22T12:20:58.323Z</time>
      </trkpt>
      <trkpt lat="37.0701816" lon="-8.8186852">
        <ele>56.440</ele>
        <time>2018-09-22T12:21:01.532Z</time>
      </trkpt>
      <trkpt lat="37.0701402" lon="-8.8190485">
        <ele>54.607</ele>
        <time>2018-09-22T12:21:04.640Z</time>
      </trkpt>
      <trkpt lat="37.0700936" lon="-8.8193845">
        <ele>53.100</ele>
        <time>2018-09-22T12:21:07.503Z</time>
      </trkpt>
      <trkpt lat="37.0700019" lon="-8.8197158">
        <ele>52.258</ele>
        <time>2018-09-22T12:21:10.427Z</time>
      </trkpt>
      <trkpt lat="37.0699301" lon="-8.8200223">
        <ele>51.731</ele>
        <time>2018-09-22T12:21:13.046Z</time>
      </trkpt>
      <trkpt lat="37.0697953" lon="-8.8203123">
        <ele>51.020</ele>
        <time>2018-09-22T12:21:15.761Z</time>
      </trkpt>
      <trkpt lat="37.0696366" lon="-8.8205658">
        <ele>49.998</ele>
        <time>2018-09-22T12:21:18.370Z</time>
      </trkpt>
      <trkpt lat="37.0694265" lon="-8.8208038">
        <ele>48.877</ele>
        <time>2018-09-22T12:21:21.263Z</time>
      </trkpt>
      <trkpt lat="37.0692721" lon="-8.8210856">
        <ele>47.942</ele>
        <time>2018-09-22T12:21:24.080Z</time>
      </trkpt>
      <trkpt lat="37.0690791" lon="-8.8213534">
        <ele>46.902</ele>
        <time>2018-09-22T12:21:27.085Z</time>
      </trkpt>
      <trkpt lat="37.0689109" lon="-8.8216214">
        <ele>45.431</ele>
        <time>2018-09-22T12:21:29.978Z</time>
      </trkpt>
      <trkpt lat="37.0687532" lon="-8.8219103">
        <ele>43.848</ele>
        <time>2018-09-22T12:21:32.975Z</time>
      </trkpt>
      <trkpt lat="37.0686751" lon="-8.8221838">
        <ele>42.412</ele>
        <time>2018-09-22T12:21:35.492Z</time>
      </trkpt>
      <trkpt lat="37.0687315" lon="-8.8224894">
        <ele>41.065</ele>
        <time>2018-09-22T12:21:38.337Z</time>
      </trkpt>
      <trkpt lat="37.0687902" lon="-8.8228064">
        <ele>39.806</ele>
        <time>2018-09-22T12:21:41.628Z</time>
      </trkpt>
      <trkpt lat="37.0687496" lon="-8.8231032">
        <ele>38.653</ele>
        <time>2018-09-22T12:21:45.095Z</time>
      </trkpt>
      <trkpt lat="37.0686236" lon="-8.8232432">
        <ele>37.797</ele>
        <time>2018-09-22T12:21:47.647Z</time>
      </trkpt>
      <trkpt lat="37.0684455" lon="-8.8233233">
        <ele>37.507</ele>
        <time>2018-09-22T12:21:50.549Z</time>
      </trkpt>
      <trkpt lat="37.0682584" lon="-8.8233363">
        <ele>37.875</ele>
        <time>2018-09-22T12:21:53.389Z</time>
      </trkpt>
      <trkpt lat="37.0680803" lon="-8.8232621">
        <ele>38.590</ele>
        <time>2018-09-22T12:21:56.152Z</time>
      </trkpt>
      <trkpt lat="37.0679150" lon="-8.8231521">
        <ele>38.954</ele>
        <time>2018-09-22T12:21:58.934Z</time>
      </trkpt>
      <trkpt lat="37.0677475" lon="-8.8230696">
        <ele>38.576</ele>
        <time>2018-09-22T12:22:01.728Z</time>
      </trkpt>
      <trkpt lat="37.0675781" lon="-8.8230333">
        <ele>37.638</ele>
        <time>2018-09-22T12:22:04.319Z</time>
      </trkpt>
      <trkpt lat="37.0673973" lon="-8.8230544">
        <ele>36.478</ele>
        <time>2018-09-22T12:22:06.665Z</time>
      </trkpt>
      <trkpt lat="37.0671737" lon="-8.8231286">
        <ele>35.341</ele>
        <time>2018-09-22T12:22:09.314Z</time>
      </trkpt>
      <trkpt lat="37.0669496" lon="-8.8232835">
        <ele>34.158</ele>
        <time>2018-09-22T12:22:12.142Z</time>
      </trkpt>
      <trkpt lat="37.0667664" lon="-8.8235020">
        <ele>32.524</ele>
        <time>2018-09-22T12:22:14.943Z</time>
      </trkpt>
      <trkpt lat="37.0665983" lon="-8.8237571">
        <ele>30.293</ele>
        <time>2018-09-22T12:22:18.125Z</time>
      </trkpt>
      <trkpt lat="37.0664736" lon="-8.8239715">
        <ele>27.698</ele>
        <time>2018-09-22T12:22:21.276Z</time>
      </trkpt>
      <trkpt lat="37.0664009" lon="-8.8241353">
        <ele>25.098</ele>
        <time>2018-09-22T12:22:24.083Z</time>
      </trkpt>
      <trkpt lat="37.0663590" lon="-8.8242921">
        <ele>22.761</ele>
        <time>2018-09-22T12:22:27.030Z</time>
      </trkpt>
      <trkpt lat="37.0663208" lon="-8.8244136">
        <ele>20.791</ele>
        <time>2018-09-22T12:22:30.048Z</time>
      </trkpt>
      <trkpt lat="37.0662996" lon="-8.8245246">
        <ele>19.208</ele>
        <time>2018-09-22T12:22:32.996Z</time>
      </trkpt>
      <trkpt lat="37.0662996" lon="-8.8245246">
        <ele>18.113</ele>
        <time>2018-09-22T12:22:35.996Z</time>
      </trkpt>
      <trkpt lat="37.0815450" lon="-8.9104462">
        <ele>77.155</ele>
        <time>2018-09-22T15:50:59.000Z</time>
      </trkpt>
      <trkpt lat="37.0815450" lon="-8.9104462">
        <ele>77.135</ele>
        <time>2018-09-22T15:51:19.987Z</time>
      </trkpt>
      <trkpt lat="37.0814877" lon="-8.9106628">
        <ele>77.113</ele>
        <time>2018-09-22T15:51:40.165Z</time>
      </trkpt>
      <trkpt lat="37.0814816" lon="-8.9107767">
        <ele>76.282</ele>
        <time>2018-09-22T15:51:44.059Z</time>
      </trkpt>
      <trkpt lat="37.0814996" lon="-8.9109122">
        <ele>74.062</ele>
        <time>2018-09-22T15:51:47.809Z</time>
      </trkpt>
      <trkpt lat="37.0814225" lon="-8.9110224">
        <ele>71.633</ele>
        <time>2018-09-22T15:51:51.184Z</time>
      </trkpt>
      <trkpt lat="37.0813523" lon="-8.9111477">
        <ele>70.334</ele>
        <time>2018-09-22T15:51:54.349Z</time>
      </trkpt>
      <trkpt lat="37.0812801" lon="-8.9112588">
        <ele>70.084</ele>
        <time>2018-09-22T15:51:56.978Z</time>
      </trkpt>
      <trkpt lat="37.0812507" lon="-8.9114116">
        <ele>70.614</ele>
        <time>2018-09-22T15:51:59.566Z</time>
      </trkpt>
      <trkpt lat="37.0812264" lon="-8.9116045">
        <ele>71.645</ele>
        <time>2018-09-22T15:52:02.542Z</time>
      </trkpt>
      <trkpt lat="37.0811162" lon="-8.9117410">
        <ele>72.554</ele>
        <time>2018-09-22T15:52:05.419Z</time>
      </trkpt>
      <trkpt lat="37.0809483" lon="-8.9117835">
        <ele>72.846</ele>
        <time>2018-09-22T15:52:08.781Z</time>
      </trkpt>
      <trkpt lat="37.0808104" lon="-8.9118246">
        <ele>72.569</ele>
        <time>2018-09-22T15:52:12.094Z</time>
      </trkpt>
      <trkpt lat="37.0807058" lon="-8.9119016">
        <ele>71.925</ele>
        <time>2018-09-22T15:52:15.423Z</time>
      </trkpt>
      <trkpt lat="37.0806145" lon="-8.9119629">
        <ele>71.157</ele>
        <time>2018-09-22T15:52:18.455Z</time>
      </trkpt>
      <trkpt lat="37.0805382" lon="-8.9120488">
        <ele>70.442</ele>
        <time>2018-09-22T15:52:21.487Z</time>
      </trkpt>
      <trkpt lat="37.0804540" lon="-8.9121118">
        <ele>69.869</ele>
        <time>2018-09-22T15:52:24.170Z</time>
      </trkpt>
      <trkpt lat="37.0803745" lon="-8.9121865">
        <ele>69.502</ele>
        <time>2018-09-22T15:52:26.718Z</time>
      </trkpt>
      <trkpt lat="37.0802766" lon="-8.9122709">
        <ele>69.299</ele>
        <time>2018-09-22T15:52:29.664Z</time>
      </trkpt>
      <trkpt lat="37.0801770" lon="-8.9123525">
        <ele>69.083</ele>
        <time>2018-09-22T15:52:32.552Z</time>
      </trkpt>
      <trkpt lat="37.0800725" lon="-8.9124434">
        <ele>68.848</ele>
        <time>2018-09-22T15:52:35.534Z</time>
      </trkpt>
      <trkpt lat="37.0799648" lon="-8.9125264">
        <ele>68.697</ele>
        <time>2018-09-22T15:52:38.377Z</time>
      </trkpt>
      <trkpt lat="37.0798530" lon="-8.9126166">
        <ele>68.684</ele>
        <time>2018-09-22T15:52:41.299Z</time>
      </trkpt>
      <trkpt lat="37.0797386" lon="-8.9127055">
        <ele>68.781</ele>
        <time>2018-09-22T15:52:44.248Z</time>
      </trkpt>
      <trkpt lat="37.0796169" lon="-8.9127895">
        <ele>68.894</ele>
        <time>2018-09-22T15:52:47.305Z</time>
      </trkpt>
      <trkpt lat="37.0795269" lon="-8.9128961">
        <ele>68.735</ele>
        <time>2018-09-22T15:52:50.009Z</time>
      </trkpt>
      <trkpt lat="37.0793980" lon="-8.9129752">
        <ele>68.183</ele>
        <time>2018-09-22T15:52:52.990Z</time>
      </trkpt>
      <trkpt lat="37.0793175" lon="-8.9131096">
        <ele>67.561</ele>
        <time>2018-09-22T15:52:55.613Z</time>
      </trkpt>
      <trkpt lat="37.0791743" lon="-8.9132228">
        <ele>67.243</ele>
        <time>2018-09-22T15:52:58.927Z</time>
      </trkpt>
      <trkpt lat="37.0790485" lon="-8.9133142">
        <ele>67.248</ele>
        <time>2018-09-22T15:53:01.987Z</time>
      </trkpt>
      <trkpt lat="37.0789509" lon="-8.9134111">
        <ele>67.552</ele>
        <time>2018-09-22T15:53:04.757Z</time>
      </trkpt>
      <trkpt lat="37.0788518" lon="-8.9134836">
        <ele>68.134</ele>
        <time>2018-09-22T15:53:07.327Z</time>
      </trkpt>
      <trkpt lat="37.0787261" lon="-8.9135437">
        <ele>68.766</ele>
        <time>2018-09-22T15:53:10.255Z</time>
      </trkpt>
      <trkpt lat="37.0785993" lon="-8.9136342">
        <ele>69.415</ele>
        <time>2018-09-22T15:53:13.282Z</time>
      </trkpt>
      <trkpt lat="37.0784687" lon="-8.9137233">
        <ele>70.443</ele>
        <time>2018-09-22T15:53:16.279Z</time>
      </trkpt>
      <trkpt lat="37.0783493" lon="-8.9138323">
        <ele>71.698</ele>
        <time>2018-09-22T15:53:19.173Z</time>
      </trkpt>
      <trkpt lat="37.0782067" lon="-8.9139370">
        <ele>72.774</ele>
        <time>2018-09-22T15:53:22.412Z</time>
      </trkpt>
      <trkpt lat="37.0780854" lon="-8.9140358">
        <ele>73.619</ele>
        <time>2018-09-22T15:53:25.385Z</time>
      </trkpt>
      <trkpt lat="37.0779738" lon="-8.9141452">
        <ele>74.160</ele>
        <time>2018-09-22T15:53:28.490Z</time>
      </trkpt>
      <trkpt lat="37.0778596" lon="-8.9142245">
        <ele>74.242</ele>
        <time>2018-09-22T15:53:31.501Z</time>
      </trkpt>
      <trkpt lat="37.0777727" lon="-8.9143230">
        <ele>73.978</ele>
        <time>2018-09-22T15:53:34.336Z</time>
      </trkpt>
      <trkpt lat="37.0776661" lon="-8.9144079">
        <ele>73.585</ele>
        <time>2018-09-22T15:53:37.625Z</time>
      </trkpt>
      <trkpt lat="37.0775827" lon="-8.9144980">
        <ele>73.244</ele>
        <time>2018-09-22T15:53:40.709Z</time>
      </trkpt>
      <trkpt lat="37.0775258" lon="-8.9145868">
        <ele>73.043</ele>
        <time>2018-09-22T15:53:43.266Z</time>
      </trkpt>
      <trkpt lat="37.0774364" lon="-8.9146690">
        <ele>72.563</ele>
        <time>2018-09-22T15:53:46.277Z</time>
      </trkpt>
      <trkpt lat="37.0773372" lon="-8.9147334">
        <ele>71.471</ele>
        <time>2018-09-22T15:53:49.332Z</time>
      </trkpt>
      <trkpt lat="37.0772442" lon="-8.9148017">
        <ele>71.003</ele>
        <time>2018-09-22T15:53:52.306Z</time>
      </trkpt>
      <trkpt lat="37.0771590" lon="-8.9148796">
        <ele>72.205</ele>
        <time>2018-09-22T15:53:55.434Z</time>
      </trkpt>
      <trkpt lat="37.0770801" lon="-8.9149454">
        <ele>74.167</ele>
        <time>2018-09-22T15:53:58.591Z</time>
      </trkpt>
      <trkpt lat="37.0769911" lon="-8.9150252">
        <ele>75.697</ele>
        <time>2018-09-22T15:54:02.222Z</time>
      </trkpt>
      <trkpt lat="37.0769254" lon="-8.9151074">
        <ele>76.380</ele>
        <time>2018-09-22T15:54:05.144Z</time>
      </trkpt>
      <trkpt lat="37.0768504" lon="-8.9151804">
        <ele>76.170</ele>
        <time>2018-09-22T15:54:08.130Z</time>
      </trkpt>
      <trkpt lat="37.0767716" lon="-8.9152587">
        <ele>75.627</ele>
        <time>2018-09-22T15:54:11.261Z</time>
      </trkpt>
      <trkpt lat="37.0766891" lon="-8.9153253">
        <ele>75.633</ele>
        <time>2018-09-22T15:54:14.332Z</time>
      </trkpt>
      <trkpt lat="37.0766100" lon="-8.9153921">
        <ele>76.703</ele>
        <time>2018-09-22T15:54:17.310Z</time>
      </trkpt>
      <trkpt lat="37.0765277" lon="-8.9154546">
        <ele>78.404</ele>
        <time>2018-09-22T15:54:20.255Z</time>
      </trkpt>
      <trkpt lat="37.0764425" lon="-8.9155149">
        <ele>79.794</ele>
        <time>2018-09-22T15:54:23.114Z</time>
      </trkpt>
      <trkpt lat="37.0763671" lon="-8.9155965">
        <ele>80.504</ele>
        <time>2018-09-22T15:54:25.914Z</time>
      </trkpt>
      <trkpt lat="37.0762872" lon="-8.9156635">
        <ele>80.979</ele>
        <time>2018-09-22T15:54:28.773Z</time>
      </trkpt>
      <trkpt lat="37.0761904" lon="-8.9157477">
        <ele>81.529</ele>
        <time>2018-09-22T15:54:32.466Z</time>
      </trkpt>
      <trkpt lat="37.0761079" lon="-8.9158066">
        <ele>82.175</ele>
        <time>2018-09-22T15:54:35.551Z</time>
      </trkpt>
      <trkpt lat="37.0760212" lon="-8.9158671">
        <ele>83.202</ele>
        <time>2018-09-22T15:54:38.665Z</time>
      </trkpt>
      <trkpt lat="37.0759261" lon="-8.9159258">
        <ele>84.669</ele>
        <time>2018-09-22T15:54:41.946Z</time>
      </trkpt>
      <trkpt lat="37.0758443" lon="-8.9159851">
        <ele>86.501</ele>
        <time>2018-09-22T15:54:44.872Z</time>
      </trkpt>
      <trkpt lat="37.0757349" lon="-8.9160566">
        <ele>88.570</ele>
        <time>2018-09-22T15:54:48.566Z</time>
      </trkpt>
      <trkpt lat="37.0756444" lon="-8.9161197">
        <ele>90.469</ele>
        <time>2018-09-22T15:54:51.646Z</time>
      </trkpt>
      <trkpt lat="37.0755529" lon="-8.9162131">
        <ele>91.854</ele>
        <time>2018-09-22T15:54:55.284Z</time>
      </trkpt>
      <trkpt lat="37.0754742" lon="-8.9163156">
        <ele>92.821</ele>
        <time>2018-09-22T15:54:58.880Z</time>
      </trkpt>
      <trkpt lat="37.0753970" lon="-8.9164330">
        <ele>93.253</ele>
        <time>2018-09-22T15:55:02.646Z</time>
      </trkpt>
      <trkpt lat="37.0753312" lon="-8.9165367">
        <ele>92.898</ele>
        <time>2018-09-22T15:55:05.658Z</time>
      </trkpt>
      <trkpt lat="37.0752583" lon="-8.9166374">
        <ele>92.006</ele>
        <time>2018-09-22T15:55:08.569Z</time>
      </trkpt>
      <trkpt lat="37.0751750" lon="-8.9167349">
        <ele>91.495</ele>
        <time>2018-09-22T15:55:11.511Z</time>
      </trkpt>
      <trkpt lat="37.0750799" lon="-8.9168369">
        <ele>91.814</ele>
        <time>2018-09-22T15:55:14.618Z</time>
      </trkpt>
      <trkpt lat="37.0749802" lon="-8.9169333">
        <ele>92.602</ele>
        <time>2018-09-22T15:55:17.755Z</time>
      </trkpt>
      <trkpt lat="37.0748939" lon="-8.9170281">
        <ele>93.287</ele>
        <time>2018-09-22T15:55:20.686Z</time>
      </trkpt>
      <trkpt lat="37.0748120" lon="-8.9171107">
        <ele>93.636</ele>
        <time>2018-09-22T15:55:23.512Z</time>
      </trkpt>
      <trkpt lat="37.0747438" lon="-8.9171858">
        <ele>93.837</ele>
        <time>2018-09-22T15:55:26.190Z</time>
      </trkpt>
      <trkpt lat="37.0746526" lon="-8.9172800">
        <ele>94.260</ele>
        <time>2018-09-22T15:55:29.988Z</time>
      </trkpt>
      <trkpt lat="37.0745581" lon="-8.9173684">
        <ele>95.077</ele>
        <time>2018-09-22T15:55:33.947Z</time>
      </trkpt>
      <trkpt lat="37.0744552" lon="-8.9174374">
        <ele>96.079</ele>
        <time>2018-09-22T15:55:37.924Z</time>
      </trkpt>
      <trkpt lat="37.0743813" lon="-8.9175040">
        <ele>97.193</ele>
        <time>2018-09-22T15:55:40.968Z</time>
      </trkpt>
      <trkpt lat="37.0742717" lon="-8.9175598">
        <ele>98.427</ele>
        <time>2018-09-22T15:55:44.880Z</time>
      </trkpt>
      <trkpt lat="37.0741833" lon="-8.9175971">
        <ele>99.272</ele>
        <time>2018-09-22T15:55:47.853Z</time>
      </trkpt>
      <trkpt lat="37.0740920" lon="-8.9176353">
        <ele>99.248</ele>
        <time>2018-09-22T15:55:50.718Z</time>
      </trkpt>
      <trkpt lat="37.0740015" lon="-8.9176718">
        <ele>98.715</ele>
        <time>2018-09-22T15:55:53.410Z</time>
      </trkpt>
      <trkpt lat="37.0738922" lon="-8.9176951">
        <ele>98.330</ele>
        <time>2018-09-22T15:55:56.417Z</time>
      </trkpt>
      <trkpt lat="37.0737839" lon="-8.9177236">
        <ele>98.460</ele>
        <time>2018-09-22T15:55:59.354Z</time>
      </trkpt>
      <trkpt lat="37.0736772" lon="-8.9177552">
        <ele>99.035</ele>
        <time>2018-09-22T15:56:02.244Z</time>
      </trkpt>
      <trkpt lat="37.0735559" lon="-8.9177825">
        <ele>99.705</ele>
        <time>2018-09-22T15:56:05.353Z</time>
      </trkpt>
      <trkpt lat="37.0733985" lon="-8.9178147">
        <ele>100.048</ele>
        <time>2018-09-22T15:56:08.744Z</time>
      </trkpt>
      <trkpt lat="37.0732198" lon="-8.9178561">
        <ele>99.937</ele>
        <time>2018-09-22T15:56:11.945Z</time>
      </trkpt>
      <trkpt lat="37.0730065" lon="-8.9179159">
        <ele>99.529</ele>
        <time>2018-09-22T15:56:15.390Z</time>
      </trkpt>
      <trkpt lat="37.0727695" lon="-8.9179815">
        <ele>98.927</ele>
        <time>2018-09-22T15:56:18.897Z</time>
      </trkpt>
      <trkpt lat="37.0725287" lon="-8.9180593">
        <ele>98.245</ele>
        <time>2018-09-22T15:56:22.205Z</time>
      </trkpt>
      <trkpt lat="37.0723003" lon="-8.9181551">
        <ele>97.564</ele>
        <time>2018-09-22T15:56:25.332Z</time>
      </trkpt>
      <trkpt lat="37.0721027" lon="-8.9182633">
        <ele>96.792</ele>
        <time>2018-09-22T15:56:28.266Z</time>
      </trkpt>
      <trkpt lat="37.0719244" lon="-8.9183909">
        <ele>95.896</ele>
        <time>2018-09-22T15:56:31.288Z</time>
      </trkpt>
      <trkpt lat="37.0717626" lon="-8.9185240">
        <ele>94.866</ele>
        <time>2018-09-22T15:56:34.287Z</time>
      </trkpt>
      <trkpt lat="37.0716045" lon="-8.9186283">
        <ele>93.810</ele>
        <time>2018-09-22T15:56:37.137Z</time>
      </trkpt>
      <trkpt lat="37.0714625" lon="-8.9187590">
        <ele>92.993</ele>
        <time>2018-09-22T15:56:40.012Z</time>
      </trkpt>
      <trkpt lat="37.0712990" lon="-8.9188488">
        <ele>92.056</ele>
        <time>2018-09-22T15:56:42.940Z</time>
      </trkpt>
      <trkpt lat="37.0711442" lon="-8.9189584">
        <ele>90.652</ele>
        <time>2018-09-22T15:56:45.838Z</time>
      </trkpt>
      <trkpt lat="37.0709997" lon="-8.9190941">
        <ele>89.402</ele>
        <time>2018-09-22T15:56:48.664Z</time>
      </trkpt>
      <trkpt lat="37.0708176" lon="-8.9192153">
        <ele>88.551</ele>
        <time>2018-09-22T15:56:51.618Z</time>
      </trkpt>
      <trkpt lat="37.0706189" lon="-8.9193480">
        <ele>87.695</ele>
        <time>2018-09-22T15:56:54.508Z</time>
      </trkpt>
      <trkpt lat="37.0704106" lon="-8.9195013">
        <ele>86.984</ele>
        <time>2018-09-22T15:56:57.362Z</time>
      </trkpt>
      <trkpt lat="37.0701771" lon="-8.9196660">
        <ele>86.659</ele>
        <time>2018-09-22T15:57:00.366Z</time>
      </trkpt>
      <trkpt lat="37.0699283" lon="-8.9198219">
        <ele>86.178</ele>
        <time>2018-09-22T15:57:03.445Z</time>
      </trkpt>
      <trkpt lat="37.0697065" lon="-8.9199724">
        <ele>84.998</ele>
        <time>2018-09-22T15:57:06.469Z</time>
      </trkpt>
      <trkpt lat="37.0695325" lon="-8.9201189">
        <ele>83.682</ele>
        <time>2018-09-22T15:57:09.427Z</time>
      </trkpt>
      <trkpt lat="37.0694270" lon="-8.9202800">
        <ele>82.973</ele>
        <time>2018-09-22T15:57:12.212Z</time>
      </trkpt>
      <trkpt lat="37.0693041" lon="-8.9203809">
        <ele>82.652</ele>
        <time>2018-09-22T15:57:15.191Z</time>
      </trkpt>
      <trkpt lat="37.0692239" lon="-8.9204441">
        <ele>82.181</ele>
        <time>2018-09-22T15:57:17.755Z</time>
      </trkpt>
      <trkpt lat="37.0691381" lon="-8.9205128">
        <ele>81.293</ele>
        <time>2018-09-22T15:57:21.992Z</time>
      </trkpt>
      <trkpt lat="37.0691381" lon="-8.9205128">
        <ele>80.198</ele>
        <time>2018-09-22T15:57:27.992Z</time>
      </trkpt>
      <trkpt lat="37.0691381" lon="-8.9205128">
        <ele>79.544</ele>
        <time>2018-09-22T15:57:44.470Z</time>
      </trkpt>
      <trkpt lat="37.0689858" lon="-8.9206694">
        <ele>79.555</ele>
        <time>2018-09-22T15:57:54.189Z</time>
      </trkpt>
      <trkpt lat="37.0689110" lon="-8.9207402">
        <ele>78.846</ele>
        <time>2018-09-22T15:57:57.180Z</time>
      </trkpt>
      <trkpt lat="37.0688335" lon="-8.9208133">
        <ele>76.448</ele>
        <time>2018-09-22T15:58:00.063Z</time>
      </trkpt>
      <trkpt lat="37.0687510" lon="-8.9208956">
        <ele>73.843</ele>
        <time>2018-09-22T15:58:02.955Z</time>
      </trkpt>
      <trkpt lat="37.0686615" lon="-8.9209815">
        <ele>72.568</ele>
        <time>2018-09-22T15:58:06.015Z</time>
      </trkpt>
      <trkpt lat="37.0685837" lon="-8.9210479">
        <ele>72.104</ele>
        <time>2018-09-22T15:58:08.587Z</time>
      </trkpt>
      <trkpt lat="37.0684985" lon="-8.9211210">
        <ele>71.370</ele>
        <time>2018-09-22T15:58:11.199Z</time>
      </trkpt>
      <trkpt lat="37.0683860" lon="-8.9212008">
        <ele>70.169</ele>
        <time>2018-09-22T15:58:14.108Z</time>
      </trkpt>
      <trkpt lat="37.0682763" lon="-8.9212986">
        <ele>69.222</ele>
        <time>2018-09-22T15:58:16.901Z</time>
      </trkpt>
      <trkpt lat="37.0681476" lon="-8.9214020">
        <ele>68.958</ele>
        <time>2018-09-22T15:58:19.959Z</time>
      </trkpt>
      <trkpt lat="37.0680281" lon="-8.9215295">
        <ele>69.221</ele>
        <time>2018-09-22T15:58:22.989Z</time>
      </trkpt>
      <trkpt lat="37.0679101" lon="-8.9216603">
        <ele>69.841</ele>
        <time>2018-09-22T15:58:25.951Z</time>
      </trkpt>
      <trkpt lat="37.0677713" lon="-8.9217697">
        <ele>70.766</ele>
        <time>2018-09-22T15:58:29.036Z</time>
      </trkpt>
      <trkpt lat="37.0676477" lon="-8.9218864">
        <ele>71.780</ele>
        <time>2018-09-22T15:58:31.962Z</time>
      </trkpt>
      <trkpt lat="37.0675209" lon="-8.9219946">
        <ele>72.526</ele>
        <time>2018-09-22T15:58:34.866Z</time>
      </trkpt>
      <trkpt lat="37.0673925" lon="-8.9221124">
        <ele>72.925</ele>
        <time>2018-09-22T15:58:37.821Z</time>
      </trkpt>
      <trkpt lat="37.0672673" lon="-8.9222369">
        <ele>73.230</ele>
        <time>2018-09-22T15:58:40.661Z</time>
      </trkpt>
      <trkpt lat="37.0671074" lon="-8.9223411">
        <ele>73.731</ele>
        <time>2018-09-22T15:58:43.633Z</time>
      </trkpt>
      <trkpt lat="37.0669298" lon="-8.9224871">
        <ele>74.435</ele>
        <time>2018-09-22T15:58:46.793Z</time>
      </trkpt>
      <trkpt lat="37.0667472" lon="-8.9226347">
        <ele>75.006</ele>
        <time>2018-09-22T15:58:49.771Z</time>
      </trkpt>
      <trkpt lat="37.0665759" lon="-8.9228212">
        <ele>75.158</ele>
        <time>2018-09-22T15:58:52.745Z</time>
      </trkpt>
      <trkpt lat="37.0663592" lon="-8.9229297">
        <ele>74.360</ele>
        <time>2018-09-22T15:58:55.672Z</time>
      </trkpt>
      <trkpt lat="37.0661113" lon="-8.9229941">
        <ele>72.419</ele>
        <time>2018-09-22T15:58:58.676Z</time>
      </trkpt>
      <trkpt lat="37.0658533" lon="-8.9230171">
        <ele>70.321</ele>
        <time>2018-09-22T15:59:01.585Z</time>
      </trkpt>
      <trkpt lat="37.0655677" lon="-8.9230255">
        <ele>69.057</ele>
        <time>2018-09-22T15:59:04.661Z</time>
      </trkpt>
      <trkpt lat="37.0652819" lon="-8.9230257">
        <ele>68.682</ele>
        <time>2018-09-22T15:59:07.625Z</time>
      </trkpt>
      <trkpt lat="37.0649753" lon="-8.9230160">
        <ele>68.889</ele>
        <time>2018-09-22T15:59:10.706Z</time>
      </trkpt>
      <trkpt lat="37.0646695" lon="-8.9230116">
        <ele>69.246</ele>
        <time>2018-09-22T15:59:13.703Z</time>
      </trkpt>
      <trkpt lat="37.0643770" lon="-8.9230152">
        <ele>69.482</ele>
        <time>2018-09-22T15:59:16.548Z</time>
      </trkpt>
      <trkpt lat="37.0640689" lon="-8.9230297">
        <ele>69.145</ele>
        <time>2018-09-22T15:59:19.572Z</time>
      </trkpt>
      <trkpt lat="37.0637612" lon="-8.9230672">
        <ele>67.847</ele>
        <time>2018-09-22T15:59:22.683Z</time>
      </trkpt>
      <trkpt lat="37.0634806" lon="-8.9230735">
        <ele>66.047</ele>
        <time>2018-09-22T15:59:25.616Z</time>
      </trkpt>
      <trkpt lat="37.0632141" lon="-8.9230870">
        <ele>64.468</ele>
        <time>2018-09-22T15:59:28.513Z</time>
      </trkpt>
      <trkpt lat="37.0629502" lon="-8.9230973">
        <ele>63.374</ele>
        <time>2018-09-22T15:59:31.489Z</time>
      </trkpt>
      <trkpt lat="37.0627023" lon="-8.9231476">
        <ele>62.837</ele>
        <time>2018-09-22T15:59:34.441Z</time>
      </trkpt>
      <trkpt lat="37.0624542" lon="-8.9231341">
        <ele>62.429</ele>
        <time>2018-09-22T15:59:37.488Z</time>
      </trkpt>
      <trkpt lat="37.0622227" lon="-8.9231542">
        <ele>61.616</ele>
        <time>2018-09-22T15:59:40.454Z</time>
      </trkpt>
      <trkpt lat="37.0620015" lon="-8.9231673">
        <ele>60.611</ele>
        <time>2018-09-22T15:59:43.468Z</time>
      </trkpt>
      <trkpt lat="37.0617962" lon="-8.9231730">
        <ele>59.846</ele>
        <time>2018-09-22T15:59:46.589Z</time>
      </trkpt>
      <trkpt lat="37.0616180" lon="-8.9231714">
        <ele>59.339</ele>
        <time>2018-09-22T15:59:49.613Z</time>
      </trkpt>
      <trkpt lat="37.0614563" lon="-8.9231712">
        <ele>59.025</ele>
        <time>2018-09-22T15:59:52.595Z</time>
      </trkpt>
      <trkpt lat="37.0612919" lon="-8.9231691">
        <ele>58.889</ele>
        <time>2018-09-22T15:59:55.836Z</time>
      </trkpt>
      <trkpt lat="37.0611419" lon="-8.9231576">
        <ele>58.940</ele>
        <time>2018-09-22T15:59:58.924Z</time>
      </trkpt>
      <trkpt lat="37.0610015" lon="-8.9231366">
        <ele>59.412</ele>
        <time>2018-09-22T16:00:01.926Z</time>
      </trkpt>
      <trkpt lat="37.0608752" lon="-8.9231511">
        <ele>60.405</ele>
        <time>2018-09-22T16:00:04.710Z</time>
      </trkpt>
      <trkpt lat="37.0607410" lon="-8.9231663">
        <ele>61.441</ele>
        <time>2018-09-22T16:00:07.662Z</time>
      </trkpt>
      <trkpt lat="37.0605985" lon="-8.9232073">
        <ele>62.016</ele>
        <time>2018-09-22T16:00:10.705Z</time>
      </trkpt>
      <trkpt lat="37.0604503" lon="-8.9232474">
        <ele>62.251</ele>
        <time>2018-09-22T16:00:13.727Z</time>
      </trkpt>
      <trkpt lat="37.0602976" lon="-8.9232934">
        <ele>62.446</ele>
        <time>2018-09-22T16:00:16.778Z</time>
      </trkpt>
      <trkpt lat="37.0601313" lon="-8.9233267">
        <ele>62.733</ele>
        <time>2018-09-22T16:00:19.952Z</time>
      </trkpt>
      <trkpt lat="37.0599756" lon="-8.9233849">
        <ele>63.412</ele>
        <time>2018-09-22T16:00:22.966Z</time>
      </trkpt>
      <trkpt lat="37.0598194" lon="-8.9234444">
        <ele>64.745</ele>
        <time>2018-09-22T16:00:25.956Z</time>
      </trkpt>
      <trkpt lat="37.0596561" lon="-8.9235032">
        <ele>66.430</ele>
        <time>2018-09-22T16:00:29.008Z</time>
      </trkpt>
      <trkpt lat="37.0595086" lon="-8.9235566">
        <ele>67.858</ele>
        <time>2018-09-22T16:00:31.782Z</time>
      </trkpt>
      <trkpt lat="37.0593781" lon="-8.9236319">
        <ele>68.650</ele>
        <time>2018-09-22T16:00:34.444Z</time>
      </trkpt>
      <trkpt lat="37.0592369" lon="-8.9236838">
        <ele>68.412</ele>
        <time>2018-09-22T16:00:37.234Z</time>
      </trkpt>
      <trkpt lat="37.0590800" lon="-8.9237601">
        <ele>67.121</ele>
        <time>2018-09-22T16:00:40.420Z</time>
      </trkpt>
      <trkpt lat="37.0589201" lon="-8.9238078">
        <ele>65.648</ele>
        <time>2018-09-22T16:00:43.473Z</time>
      </trkpt>
      <trkpt lat="37.0587596" lon="-8.9238619">
        <ele>65.025</ele>
        <time>2018-09-22T16:00:46.549Z</time>
      </trkpt>
      <trkpt lat="37.0586010" lon="-8.9238912">
        <ele>65.675</ele>
        <time>2018-09-22T16:00:49.523Z</time>
      </trkpt>
      <trkpt lat="37.0584247" lon="-8.9239460">
        <ele>67.184</ele>
        <time>2018-09-22T16:00:52.851Z</time>
      </trkpt>
      <trkpt lat="37.0582527" lon="-8.9240007">
        <ele>68.488</ele>
        <time>2018-09-22T16:00:56.163Z</time>
      </trkpt>
      <trkpt lat="37.0581040" lon="-8.9240666">
        <ele>68.983</ele>
        <time>2018-09-22T16:00:59.330Z</time>
      </trkpt>
      <trkpt lat="37.0579710" lon="-8.9241126">
        <ele>68.945</ele>
        <time>2018-09-22T16:01:02.444Z</time>
      </trkpt>
      <trkpt lat="37.0578577" lon="-8.9241396">
        <ele>68.837</ele>
        <time>2018-09-22T16:01:05.359Z</time>
      </trkpt>
      <trkpt lat="37.0577535" lon="-8.9241883">
        <ele>68.952</ele>
        <time>2018-09-22T16:01:08.340Z</time>
      </trkpt>
      <trkpt lat="37.0576557" lon="-8.9242179">
        <ele>69.372</ele>
        <time>2018-09-22T16:01:11.129Z</time>
      </trkpt>
      <trkpt lat="37.0575424" lon="-8.9242482">
        <ele>69.920</ele>
        <time>2018-09-22T16:01:14.289Z</time>
      </trkpt>
      <trkpt lat="37.0574358" lon="-8.9242908">
        <ele>70.270</ele>
        <time>2018-09-22T16:01:17.152Z</time>
      </trkpt>
      <trkpt lat="37.0573208" lon="-8.9243276">
        <ele>70.067</ele>
        <time>2018-09-22T16:01:20.000Z</time>
      </trkpt>
      <trkpt lat="37.0572019" lon="-8.9243768">
        <ele>69.272</ele>
        <time>2018-09-22T16:01:22.949Z</time>
      </trkpt>
      <trkpt lat="37.0571014" lon="-8.9244392">
        <ele>68.243</ele>
        <time>2018-09-22T16:01:25.722Z</time>
      </trkpt>
      <trkpt lat="37.0569950" lon="-8.9244493">
        <ele>67.173</ele>
        <time>2018-09-22T16:01:28.492Z</time>
      </trkpt>
      <trkpt lat="37.0568714" lon="-8.9244851">
        <ele>66.111</ele>
        <time>2018-09-22T16:01:31.719Z</time>
      </trkpt>
      <trkpt lat="37.0567448" lon="-8.9245157">
        <ele>65.326</ele>
        <time>2018-09-22T16:01:34.924Z</time>
      </trkpt>
      <trkpt lat="37.0566233" lon="-8.9245020">
        <ele>64.964</ele>
        <time>2018-09-22T16:01:38.013Z</time>
      </trkpt>
      <trkpt lat="37.0565038" lon="-8.9244944">
        <ele>64.916</ele>
        <time>2018-09-22T16:01:40.900Z</time>
      </trkpt>
      <trkpt lat="37.0563778" lon="-8.9244590">
        <ele>65.044</ele>
        <time>2018-09-22T16:01:43.719Z</time>
      </trkpt>
      <trkpt lat="37.0562274" lon="-8.9244555">
        <ele>65.204</ele>
        <time>2018-09-22T16:01:46.703Z</time>
      </trkpt>
      <trkpt lat="37.0560767" lon="-8.9244526">
        <ele>65.156</ele>
        <time>2018-09-22T16:01:49.526Z</time>
      </trkpt>
      <trkpt lat="37.0559065" lon="-8.9244308">
        <ele>64.811</ele>
        <time>2018-09-22T16:01:52.690Z</time>
      </trkpt>
      <trkpt lat="37.0557377" lon="-8.9244056">
        <ele>64.390</ele>
        <time>2018-09-22T16:01:55.873Z</time>
      </trkpt>
      <trkpt lat="37.0555897" lon="-8.9243856">
        <ele>64.324</ele>
        <time>2018-09-22T16:01:58.656Z</time>
      </trkpt>
      <trkpt lat="37.0554206" lon="-8.9243662">
        <ele>64.813</ele>
        <time>2018-09-22T16:02:01.688Z</time>
      </trkpt>
      <trkpt lat="37.0552552" lon="-8.9243405">
        <ele>65.490</ele>
        <time>2018-09-22T16:02:04.492Z</time>
      </trkpt>
      <trkpt lat="37.0550781" lon="-8.9243514">
        <ele>65.957</ele>
        <time>2018-09-22T16:02:07.395Z</time>
      </trkpt>
      <trkpt lat="37.0548894" lon="-8.9243210">
        <ele>66.159</ele>
        <time>2018-09-22T16:02:10.490Z</time>
      </trkpt>
      <trkpt lat="37.0547185" lon="-8.9242948">
        <ele>66.021</ele>
        <time>2018-09-22T16:02:13.247Z</time>
      </trkpt>
      <trkpt lat="37.0545249" lon="-8.9242774">
        <ele>65.463</ele>
        <time>2018-09-22T16:02:16.237Z</time>
      </trkpt>
      <trkpt lat="37.0543287" lon="-8.9242748">
        <ele>64.675</ele>
        <time>2018-09-22T16:02:19.087Z</time>
      </trkpt>
      <trkpt lat="37.0541026" lon="-8.9242427">
        <ele>63.795</ele>
        <time>2018-09-22T16:02:22.191Z</time>
      </trkpt>
      <trkpt lat="37.0538778" lon="-8.9242454">
        <ele>62.801</ele>
        <time>2018-09-22T16:02:25.211Z</time>
      </trkpt>
      <trkpt lat="37.0536705" lon="-8.9242894">
        <ele>61.754</ele>
        <time>2018-09-22T16:02:28.287Z</time>
      </trkpt>
      <trkpt lat="37.0535109" lon="-8.9243961">
        <ele>60.706</ele>
        <time>2018-09-22T16:02:31.287Z</time>
      </trkpt>
      <trkpt lat="37.0533831" lon="-8.9244887">
        <ele>59.729</ele>
        <time>2018-09-22T16:02:33.927Z</time>
      </trkpt>
      <trkpt lat="37.0532452" lon="-8.9245960">
        <ele>59.115</ele>
        <time>2018-09-22T16:02:36.947Z</time>
      </trkpt>
      <trkpt lat="37.0531090" lon="-8.9247064">
        <ele>58.908</ele>
        <time>2018-09-22T16:02:39.988Z</time>
      </trkpt>
      <trkpt lat="37.0529276" lon="-8.9246638">
        <ele>58.937</ele>
        <time>2018-09-22T16:02:43.380Z</time>
      </trkpt>
      <trkpt lat="37.0528228" lon="-8.9245309">
        <ele>59.376</ele>
        <time>2018-09-22T16:02:46.255Z</time>
      </trkpt>
      <trkpt lat="37.0527290" lon="-8.9245111">
        <ele>60.286</ele>
        <time>2018-09-22T16:02:48.350Z</time>
      </trkpt>
      <trkpt lat="37.0526275" lon="-8.9245883">
        <ele>60.874</ele>
        <time>2018-09-22T16:02:51.077Z</time>
      </trkpt>
      <trkpt lat="37.0525183" lon="-8.9246897">
        <ele>60.411</ele>
        <time>2018-09-22T16:02:54.054Z</time>
      </trkpt>
      <trkpt lat="37.0524241" lon="-8.9247667">
        <ele>59.297</ele>
        <time>2018-09-22T16:02:56.292Z</time>
      </trkpt>
      <trkpt lat="37.0523536" lon="-8.9248439">
        <ele>58.566</ele>
        <time>2018-09-22T16:02:58.122Z</time>
      </trkpt>
      <trkpt lat="37.0522717" lon="-8.9249310">
        <ele>58.636</ele>
        <time>2018-09-22T16:03:00.187Z</time>
      </trkpt>
      <trkpt lat="37.0521936" lon="-8.9250160">
        <ele>58.988</ele>
        <time>2018-09-22T16:03:02.121Z</time>
      </trkpt>
      <trkpt lat="37.0520950" lon="-8.9250975">
        <ele>58.837</ele>
        <time>2018-09-22T16:03:04.271Z</time>
      </trkpt>
      <trkpt lat="37.0520142" lon="-8.9251820">
        <ele>57.975</ele>
        <time>2018-09-22T16:03:06.143Z</time>
      </trkpt>
      <trkpt lat="37.0519232" lon="-8.9252710">
        <ele>56.759</ele>
        <time>2018-09-22T16:03:08.151Z</time>
      </trkpt>
      <trkpt lat="37.0518534" lon="-8.9253791">
        <ele>55.535</ele>
        <time>2018-09-22T16:03:10.050Z</time>
      </trkpt>
      <trkpt lat="37.0517585" lon="-8.9254742">
        <ele>54.469</ele>
        <time>2018-09-22T16:03:12.089Z</time>
      </trkpt>
      <trkpt lat="37.0516470" lon="-8.9255620">
        <ele>53.753</ele>
        <time>2018-09-22T16:03:14.222Z</time>
      </trkpt>
      <trkpt lat="37.0515437" lon="-8.9256464">
        <ele>53.504</ele>
        <time>2018-09-22T16:03:16.150Z</time>
      </trkpt>
      <trkpt lat="37.0514393" lon="-8.9257400">
        <ele>53.677</ele>
        <time>2018-09-22T16:03:18.121Z</time>
      </trkpt>
      <trkpt lat="37.0513345" lon="-8.9258366">
        <ele>54.029</ele>
        <time>2018-09-22T16:03:20.101Z</time>
      </trkpt>
      <trkpt lat="37.0512391" lon="-8.9259413">
        <ele>54.296</ele>
        <time>2018-09-22T16:03:22.017Z</time>
      </trkpt>
      <trkpt lat="37.0511318" lon="-8.9260464">
        <ele>54.334</ele>
        <time>2018-09-22T16:03:24.041Z</time>
      </trkpt>
      <trkpt lat="37.0510143" lon="-8.9261541">
        <ele>54.172</ele>
        <time>2018-09-22T16:03:26.142Z</time>
      </trkpt>
      <trkpt lat="37.0508980" lon="-8.9262556">
        <ele>53.999</ele>
        <time>2018-09-22T16:03:28.156Z</time>
      </trkpt>
      <trkpt lat="37.0507974" lon="-8.9263571">
        <ele>54.022</ele>
        <time>2018-09-22T16:03:29.960Z</time>
      </trkpt>
      <trkpt lat="37.0506834" lon="-8.9264670">
        <ele>54.505</ele>
        <time>2018-09-22T16:03:31.878Z</time>
      </trkpt>
      <trkpt lat="37.0505639" lon="-8.9266120">
        <ele>55.745</ele>
        <time>2018-09-22T16:03:33.980Z</time>
      </trkpt>
      <trkpt lat="37.0504271" lon="-8.9267221">
        <ele>57.589</ele>
        <time>2018-09-22T16:03:35.990Z</time>
      </trkpt>
      <trkpt lat="37.0502847" lon="-8.9268388">
        <ele>59.323</ele>
        <time>2018-09-22T16:03:38.067Z</time>
      </trkpt>
      <trkpt lat="37.0501398" lon="-8.9269528">
        <ele>60.350</ele>
        <time>2018-09-22T16:03:40.147Z</time>
      </trkpt>
      <trkpt lat="37.0500087" lon="-8.9270705">
        <ele>60.691</ele>
        <time>2018-09-22T16:03:42.158Z</time>
      </trkpt>
      <trkpt lat="37.0498859" lon="-8.9271846">
        <ele>60.713</ele>
        <time>2018-09-22T16:03:44.170Z</time>
      </trkpt>
      <trkpt lat="37.0497615" lon="-8.9272891">
        <ele>60.664</ele>
        <time>2018-09-22T16:03:46.243Z</time>
      </trkpt>
      <trkpt lat="37.0496212" lon="-8.9274710">
        <ele>60.585</ele>
        <time>2018-09-22T16:03:49.132Z</time>
      </trkpt>
      <trkpt lat="37.0494604" lon="-8.9276106">
        <ele>60.397</ele>
        <time>2018-09-22T16:03:52.067Z</time>
      </trkpt>
      <trkpt lat="37.0493263" lon="-8.9277619">
        <ele>60.014</ele>
        <time>2018-09-22T16:03:54.914Z</time>
      </trkpt>
      <trkpt lat="37.0491815" lon="-8.9279217">
        <ele>59.323</ele>
        <time>2018-09-22T16:03:58.114Z</time>
      </trkpt>
      <trkpt lat="37.0490493" lon="-8.9280361">
        <ele>58.414</ele>
        <time>2018-09-22T16:04:00.888Z</time>
      </trkpt>
      <trkpt lat="37.0489104" lon="-8.9281835">
        <ele>57.704</ele>
        <time>2018-09-22T16:04:03.976Z</time>
      </trkpt>
      <trkpt lat="37.0487565" lon="-8.9282969">
        <ele>57.520</ele>
        <time>2018-09-22T16:04:06.933Z</time>
      </trkpt>
      <trkpt lat="37.0486109" lon="-8.9284414">
        <ele>57.790</ele>
        <time>2018-09-22T16:04:09.980Z</time>
      </trkpt>
      <trkpt lat="37.0484388" lon="-8.9285284">
        <ele>58.387</ele>
        <time>2018-09-22T16:04:12.932Z</time>
      </trkpt>
      <trkpt lat="37.0482542" lon="-8.9286084">
        <ele>59.135</ele>
        <time>2018-09-22T16:04:15.948Z</time>
      </trkpt>
      <trkpt lat="37.0480789" lon="-8.9286918">
        <ele>59.712</ele>
        <time>2018-09-22T16:04:18.809Z</time>
      </trkpt>
      <trkpt lat="37.0478738" lon="-8.9287452">
        <ele>59.997</ele>
        <time>2018-09-22T16:04:21.970Z</time>
      </trkpt>
      <trkpt lat="37.0476967" lon="-8.9288297">
        <ele>60.166</ele>
        <time>2018-09-22T16:04:24.804Z</time>
      </trkpt>
      <trkpt lat="37.0474901" lon="-8.9289006">
        <ele>60.264</ele>
        <time>2018-09-22T16:04:27.954Z</time>
      </trkpt>
      <trkpt lat="37.0472939" lon="-8.9289710">
        <ele>60.265</ele>
        <time>2018-09-22T16:04:30.925Z</time>
      </trkpt>
      <trkpt lat="37.0470822" lon="-8.9290505">
        <ele>60.260</ele>
        <time>2018-09-22T16:04:34.239Z</time>
      </trkpt>
      <trkpt lat="37.0469075" lon="-8.9291209">
        <ele>60.322</ele>
        <time>2018-09-22T16:04:37.125Z</time>
      </trkpt>
      <trkpt lat="37.0467503" lon="-8.9292062">
        <ele>60.403</ele>
        <time>2018-09-22T16:04:39.906Z</time>
      </trkpt>
      <trkpt lat="37.0465702" lon="-8.9292826">
        <ele>60.277</ele>
        <time>2018-09-22T16:04:42.946Z</time>
      </trkpt>
      <trkpt lat="37.0463779" lon="-8.9293575">
        <ele>59.758</ele>
        <time>2018-09-22T16:04:46.066Z</time>
      </trkpt>
      <trkpt lat="37.0462042" lon="-8.9294422">
        <ele>58.864</ele>
        <time>2018-09-22T16:04:48.958Z</time>
      </trkpt>
      <trkpt lat="37.0460414" lon="-8.9295289">
        <ele>57.623</ele>
        <time>2018-09-22T16:04:51.725Z</time>
      </trkpt>
      <trkpt lat="37.0458777" lon="-8.9296167">
        <ele>56.232</ele>
        <time>2018-09-22T16:04:54.565Z</time>
      </trkpt>
      <trkpt lat="37.0457062" lon="-8.9297040">
        <ele>55.003</ele>
        <time>2018-09-22T16:04:57.555Z</time>
      </trkpt>
      <trkpt lat="37.0455329" lon="-8.9297925">
        <ele>54.056</ele>
        <time>2018-09-22T16:05:00.547Z</time>
      </trkpt>
      <trkpt lat="37.0453704" lon="-8.9298693">
        <ele>53.094</ele>
        <time>2018-09-22T16:05:03.453Z</time>
      </trkpt>
      <trkpt lat="37.0452265" lon="-8.9299293">
        <ele>51.847</ele>
        <time>2018-09-22T16:05:06.328Z</time>
      </trkpt>
      <trkpt lat="37.0450804" lon="-8.9299756">
        <ele>50.490</ele>
        <time>2018-09-22T16:05:09.494Z</time>
      </trkpt>
      <trkpt lat="37.0449202" lon="-8.9300280">
        <ele>49.402</ele>
        <time>2018-09-22T16:05:12.761Z</time>
      </trkpt>
      <trkpt lat="37.0447739" lon="-8.9301092">
        <ele>48.845</ele>
        <time>2018-09-22T16:05:15.619Z</time>
      </trkpt>
      <trkpt lat="37.0446196" lon="-8.9301894">
        <ele>49.026</ele>
        <time>2018-09-22T16:05:18.391Z</time>
      </trkpt>
      <trkpt lat="37.0444213" lon="-8.9302462">
        <ele>49.672</ele>
        <time>2018-09-22T16:05:21.552Z</time>
      </trkpt>
      <trkpt lat="37.0442433" lon="-8.9303253">
        <ele>50.537</ele>
        <time>2018-09-22T16:05:24.416Z</time>
      </trkpt>
      <trkpt lat="37.0440520" lon="-8.9304158">
        <ele>51.603</ele>
        <time>2018-09-22T16:05:27.539Z</time>
      </trkpt>
      <trkpt lat="37.0438789" lon="-8.9304765">
        <ele>52.629</ele>
        <time>2018-09-22T16:05:30.365Z</time>
      </trkpt>
      <trkpt lat="37.0437011" lon="-8.9305501">
        <ele>53.259</ele>
        <time>2018-09-22T16:05:33.363Z</time>
      </trkpt>
      <trkpt lat="37.0435456" lon="-8.9306297">
        <ele>53.482</ele>
        <time>2018-09-22T16:05:36.056Z</time>
      </trkpt>
      <trkpt lat="37.0433380" lon="-8.9306881">
        <ele>53.448</ele>
        <time>2018-09-22T16:05:39.465Z</time>
      </trkpt>
      <trkpt lat="37.0431474" lon="-8.9307660">
        <ele>53.329</ele>
        <time>2018-09-22T16:05:42.664Z</time>
      </trkpt>
      <trkpt lat="37.0429659" lon="-8.9308607">
        <ele>53.236</ele>
        <time>2018-09-22T16:05:45.810Z</time>
      </trkpt>
      <trkpt lat="37.0427834" lon="-8.9309363">
        <ele>52.490</ele>
        <time>2018-09-22T16:05:48.804Z</time>
      </trkpt>
      <trkpt lat="37.0425859" lon="-8.9310084">
        <ele>50.639</ele>
        <time>2018-09-22T16:05:51.931Z</time>
      </trkpt>
      <trkpt lat="37.0424012" lon="-8.9310720">
        <ele>48.771</ele>
        <time>2018-09-22T16:05:54.889Z</time>
      </trkpt>
      <trkpt lat="37.0422212" lon="-8.9311257">
        <ele>47.982</ele>
        <time>2018-09-22T16:05:57.781Z</time>
      </trkpt>
      <trkpt lat="37.0420849" lon="-8.9312261">
        <ele>48.035</ele>
        <time>2018-09-22T16:06:00.262Z</time>
      </trkpt>
      <trkpt lat="37.0419045" lon="-8.9313070">
        <ele>48.063</ele>
        <time>2018-09-22T16:06:03.291Z</time>
      </trkpt>
      <trkpt lat="37.0417214" lon="-8.9313640">
        <ele>47.540</ele>
        <time>2018-09-22T16:06:06.253Z</time>
      </trkpt>
      <trkpt lat="37.0415198" lon="-8.9314566">
        <ele>46.888</ele>
        <time>2018-09-22T16:06:09.530Z</time>
      </trkpt>
      <trkpt lat="37.0413135" lon="-8.9315320">
        <ele>46.612</ele>
        <time>2018-09-22T16:06:12.654Z</time>
      </trkpt>
      <trkpt lat="37.0411037" lon="-8.9316181">
        <ele>46.651</ele>
        <time>2018-09-22T16:06:15.790Z</time>
      </trkpt>
      <trkpt lat="37.0409041" lon="-8.9316903">
        <ele>46.927</ele>
        <time>2018-09-22T16:06:18.801Z</time>
      </trkpt>
      <trkpt lat="37.0407153" lon="-8.9317762">
        <ele>47.374</ele>
        <time>2018-09-22T16:06:21.806Z</time>
      </trkpt>
      <trkpt lat="37.0405252" lon="-8.9318473">
        <ele>47.869</ele>
        <time>2018-09-22T16:06:24.797Z</time>
      </trkpt>
      <trkpt lat="37.0403388" lon="-8.9319047">
        <ele>48.367</ele>
        <time>2018-09-22T16:06:27.694Z</time>
      </trkpt>
      <trkpt lat="37.0401583" lon="-8.9320149">
        <ele>48.780</ele>
        <time>2018-09-22T16:06:30.764Z</time>
      </trkpt>
      <trkpt lat="37.0399673" lon="-8.9320858">
        <ele>48.949</ele>
        <time>2018-09-22T16:06:33.877Z</time>
      </trkpt>
      <trkpt lat="37.0397790" lon="-8.9321410">
        <ele>48.881</ele>
        <time>2018-09-22T16:06:36.922Z</time>
      </trkpt>
      <trkpt lat="37.0395847" lon="-8.9322148">
        <ele>48.696</ele>
        <time>2018-09-22T16:06:40.074Z</time>
      </trkpt>
      <trkpt lat="37.0394126" lon="-8.9322829">
        <ele>48.438</ele>
        <time>2018-09-22T16:06:42.833Z</time>
      </trkpt>
      <trkpt lat="37.0392096" lon="-8.9323731">
        <ele>48.087</ele>
        <time>2018-09-22T16:06:45.991Z</time>
      </trkpt>
      <trkpt lat="37.0390009" lon="-8.9324614">
        <ele>47.619</ele>
        <time>2018-09-22T16:06:49.026Z</time>
      </trkpt>
      <trkpt lat="37.0387837" lon="-8.9325514">
        <ele>46.943</ele>
        <time>2018-09-22T16:06:52.074Z</time>
      </trkpt>
      <trkpt lat="37.0385628" lon="-8.9326072">
        <ele>46.153</ele>
        <time>2018-09-22T16:06:55.088Z</time>
      </trkpt>
      <trkpt lat="37.0383379" lon="-8.9326688">
        <ele>45.807</ele>
        <time>2018-09-22T16:06:58.240Z</time>
      </trkpt>
      <trkpt lat="37.0381389" lon="-8.9327599">
        <ele>46.375</ele>
        <time>2018-09-22T16:07:01.255Z</time>
      </trkpt>
      <trkpt lat="37.0379582" lon="-8.9328402">
        <ele>47.489</ele>
        <time>2018-09-22T16:07:04.115Z</time>
      </trkpt>
      <trkpt lat="37.0377900" lon="-8.9329009">
        <ele>48.146</ele>
        <time>2018-09-22T16:07:06.820Z</time>
      </trkpt>
      <trkpt lat="37.0375986" lon="-8.9329547">
        <ele>47.915</ele>
        <time>2018-09-22T16:07:09.940Z</time>
      </trkpt>
      <trkpt lat="37.0374264" lon="-8.9330449">
        <ele>47.446</ele>
        <time>2018-09-22T16:07:12.944Z</time>
      </trkpt>
      <trkpt lat="37.0372646" lon="-8.9331567">
        <ele>47.366</ele>
        <time>2018-09-22T16:07:15.868Z</time>
      </trkpt>
      <trkpt lat="37.0370690" lon="-8.9332109">
        <ele>47.466</ele>
        <time>2018-09-22T16:07:18.901Z</time>
      </trkpt>
      <trkpt lat="37.0368766" lon="-8.9332845">
        <ele>47.242</ele>
        <time>2018-09-22T16:07:21.812Z</time>
      </trkpt>
      <trkpt lat="37.0367071" lon="-8.9334031">
        <ele>46.659</ele>
        <time>2018-09-22T16:07:24.541Z</time>
      </trkpt>
      <trkpt lat="37.0364839" lon="-8.9334697">
        <ele>46.313</ele>
        <time>2018-09-22T16:07:27.673Z</time>
      </trkpt>
      <trkpt lat="37.0362580" lon="-8.9335497">
        <ele>46.575</ele>
        <time>2018-09-22T16:07:30.824Z</time>
      </trkpt>
      <trkpt lat="37.0360369" lon="-8.9336507">
        <ele>47.027</ele>
        <time>2018-09-22T16:07:33.995Z</time>
      </trkpt>
      <trkpt lat="37.0358270" lon="-8.9337248">
        <ele>47.220</ele>
        <time>2018-09-22T16:07:37.086Z</time>
      </trkpt>
      <trkpt lat="37.0356495" lon="-8.9337843">
        <ele>47.193</ele>
        <time>2018-09-22T16:07:39.995Z</time>
      </trkpt>
      <trkpt lat="37.0354994" lon="-8.9338422">
        <ele>47.212</ele>
        <time>2018-09-22T16:07:42.782Z</time>
      </trkpt>
      <trkpt lat="37.0353533" lon="-8.9339327">
        <ele>47.447</ele>
        <time>2018-09-22T16:07:45.779Z</time>
      </trkpt>
      <trkpt lat="37.0351733" lon="-8.9340018">
        <ele>47.781</ele>
        <time>2018-09-22T16:07:49.004Z</time>
      </trkpt>
      <trkpt lat="37.0350086" lon="-8.9340655">
        <ele>48.042</ele>
        <time>2018-09-22T16:07:51.811Z</time>
      </trkpt>
      <trkpt lat="37.0348370" lon="-8.9341303">
        <ele>48.269</ele>
        <time>2018-09-22T16:07:54.738Z</time>
      </trkpt>
      <trkpt lat="37.0346796" lon="-8.9342102">
        <ele>48.638</ele>
        <time>2018-09-22T16:07:57.558Z</time>
      </trkpt>
      <trkpt lat="37.0345061" lon="-8.9342769">
        <ele>49.161</ele>
        <time>2018-09-22T16:08:00.611Z</time>
      </trkpt>
      <trkpt lat="37.0343191" lon="-8.9343299">
        <ele>49.544</ele>
        <time>2018-09-22T16:08:03.850Z</time>
      </trkpt>
      <trkpt lat="37.0341510" lon="-8.9344153">
        <ele>49.454</ele>
        <time>2018-09-22T16:08:06.904Z</time>
      </trkpt>
      <trkpt lat="37.0339848" lon="-8.9344927">
        <ele>48.639</ele>
        <time>2018-09-22T16:08:09.851Z</time>
      </trkpt>
      <trkpt lat="37.0337964" lon="-8.9345671">
        <ele>47.169</ele>
        <time>2018-09-22T16:08:13.049Z</time>
      </trkpt>
      <trkpt lat="37.0336094" lon="-8.9346245">
        <ele>45.670</ele>
        <time>2018-09-22T16:08:16.034Z</time>
      </trkpt>
      <trkpt lat="37.0334151" lon="-8.9347044">
        <ele>44.749</ele>
        <time>2018-09-22T16:08:19.036Z</time>
      </trkpt>
      <trkpt lat="37.0332133" lon="-8.9347860">
        <ele>44.644</ele>
        <time>2018-09-22T16:08:22.035Z</time>
      </trkpt>
      <trkpt lat="37.0330045" lon="-8.9348636">
        <ele>45.189</ele>
        <time>2018-09-22T16:08:25.027Z</time>
      </trkpt>
      <trkpt lat="37.0327762" lon="-8.9349388">
        <ele>45.886</ele>
        <time>2018-09-22T16:08:28.155Z</time>
      </trkpt>
      <trkpt lat="37.0325547" lon="-8.9350481">
        <ele>46.417</ele>
        <time>2018-09-22T16:08:31.294Z</time>
      </trkpt>
      <trkpt lat="37.0323372" lon="-8.9351158">
        <ele>46.769</ele>
        <time>2018-09-22T16:08:34.310Z</time>
      </trkpt>
      <trkpt lat="37.0321275" lon="-8.9352065">
        <ele>46.859</ele>
        <time>2018-09-22T16:08:37.323Z</time>
      </trkpt>
      <trkpt lat="37.0319202" lon="-8.9352883">
        <ele>46.544</ele>
        <time>2018-09-22T16:08:40.297Z</time>
      </trkpt>
      <trkpt lat="37.0317155" lon="-8.9353774">
        <ele>45.918</ele>
        <time>2018-09-22T16:08:43.297Z</time>
      </trkpt>
      <trkpt lat="37.0315099" lon="-8.9354518">
        <ele>45.362</ele>
        <time>2018-09-22T16:08:46.319Z</time>
      </trkpt>
      <trkpt lat="37.0313176" lon="-8.9355329">
        <ele>45.125</ele>
        <time>2018-09-22T16:08:49.306Z</time>
      </trkpt>
      <trkpt lat="37.0311353" lon="-8.9356291">
        <ele>45.139</ele>
        <time>2018-09-22T16:08:52.325Z</time>
      </trkpt>
      <trkpt lat="37.0309304" lon="-8.9356972">
        <ele>45.224</ele>
        <time>2018-09-22T16:08:55.613Z</time>
      </trkpt>
      <trkpt lat="37.0307563" lon="-8.9357801">
        <ele>45.261</ele>
        <time>2018-09-22T16:08:58.561Z</time>
      </trkpt>
      <trkpt lat="37.0305608" lon="-8.9358527">
        <ele>45.103</ele>
        <time>2018-09-22T16:09:01.800Z</time>
      </trkpt>
      <trkpt lat="37.0303848" lon="-8.9359269">
        <ele>44.675</ele>
        <time>2018-09-22T16:09:04.631Z</time>
      </trkpt>
      <trkpt lat="37.0301871" lon="-8.9360010">
        <ele>44.187</ele>
        <time>2018-09-22T16:09:07.584Z</time>
      </trkpt>
      <trkpt lat="37.0299899" lon="-8.9360383">
        <ele>43.631</ele>
        <time>2018-09-22T16:09:10.334Z</time>
      </trkpt>
      <trkpt lat="37.0297948" lon="-8.9361343">
        <ele>42.802</ele>
        <time>2018-09-22T16:09:13.181Z</time>
      </trkpt>
      <trkpt lat="37.0295706" lon="-8.9361999">
        <ele>41.859</ele>
        <time>2018-09-22T16:09:16.225Z</time>
      </trkpt>
      <trkpt lat="37.0293453" lon="-8.9362750">
        <ele>40.954</ele>
        <time>2018-09-22T16:09:19.209Z</time>
      </trkpt>
      <trkpt lat="37.0291085" lon="-8.9363561">
        <ele>40.032</ele>
        <time>2018-09-22T16:09:22.255Z</time>
      </trkpt>
      <trkpt lat="37.0288783" lon="-8.9364296">
        <ele>39.354</ele>
        <time>2018-09-22T16:09:25.140Z</time>
      </trkpt>
      <trkpt lat="37.0286333" lon="-8.9365039">
        <ele>39.101</ele>
        <time>2018-09-22T16:09:28.234Z</time>
      </trkpt>
      <trkpt lat="37.0284127" lon="-8.9365776">
        <ele>39.123</ele>
        <time>2018-09-22T16:09:31.184Z</time>
      </trkpt>
      <trkpt lat="37.0281856" lon="-8.9366247">
        <ele>39.273</ele>
        <time>2018-09-22T16:09:34.319Z</time>
      </trkpt>
      <trkpt lat="37.0279791" lon="-8.9367131">
        <ele>39.463</ele>
        <time>2018-09-22T16:09:37.341Z</time>
      </trkpt>
      <trkpt lat="37.0277886" lon="-8.9367883">
        <ele>39.577</ele>
        <time>2018-09-22T16:09:40.175Z</time>
      </trkpt>
      <trkpt lat="37.0275772" lon="-8.9368299">
        <ele>39.550</ele>
        <time>2018-09-22T16:09:43.341Z</time>
      </trkpt>
      <trkpt lat="37.0273893" lon="-8.9368201">
        <ele>39.214</ele>
        <time>2018-09-22T16:09:46.336Z</time>
      </trkpt>
      <trkpt lat="37.0272241" lon="-8.9368008">
        <ele>38.600</ele>
        <time>2018-09-22T16:09:49.496Z</time>
      </trkpt>
      <trkpt lat="37.0271320" lon="-8.9368899">
        <ele>38.062</ele>
        <time>2018-09-22T16:09:53.037Z</time>
      </trkpt>
      <trkpt lat="37.0271293" lon="-8.9370063">
        <ele>37.782</ele>
        <time>2018-09-22T16:09:56.991Z</time>
      </trkpt>
      <trkpt lat="37.0271293" lon="-8.9370063">
        <ele>37.664</ele>
        <time>2018-09-22T16:09:57.991Z</time>
      </trkpt>
      <trkpt lat="37.0271293" lon="-8.9370063">
        <ele>37.634</ele>
        <time>2018-09-22T16:11:18.597Z</time>
      </trkpt>
      <trkpt lat="37.0271156" lon="-8.9372502">
        <ele>37.634</ele>
        <time>2018-09-22T16:11:31.789Z</time>
      </trkpt>
      <trkpt lat="37.0270280" lon="-8.9373090">
        <ele>36.852</ele>
        <time>2018-09-22T16:11:34.700Z</time>
      </trkpt>
      <trkpt lat="37.0268930" lon="-8.9373293">
        <ele>34.774</ele>
        <time>2018-09-22T16:11:38.143Z</time>
      </trkpt>
      <trkpt lat="37.0267496" lon="-8.9373589">
        <ele>32.562</ele>
        <time>2018-09-22T16:11:41.632Z</time>
      </trkpt>
      <trkpt lat="37.0265985" lon="-8.9373934">
        <ele>31.505</ele>
        <time>2018-09-22T16:11:44.907Z</time>
      </trkpt>
      <trkpt lat="37.0264292" lon="-8.9374257">
        <ele>31.602</ele>
        <time>2018-09-22T16:11:48.205Z</time>
      </trkpt>
      <trkpt lat="37.0262783" lon="-8.9374612">
        <ele>32.301</ele>
        <time>2018-09-22T16:11:51.038Z</time>
      </trkpt>
      <trkpt lat="37.0261182" lon="-8.9375173">
        <ele>32.944</ele>
        <time>2018-09-22T16:11:54.075Z</time>
      </trkpt>
      <trkpt lat="37.0259602" lon="-8.9375694">
        <ele>33.185</ele>
        <time>2018-09-22T16:11:57.045Z</time>
      </trkpt>
      <trkpt lat="37.0258002" lon="-8.9376134">
        <ele>33.048</ele>
        <time>2018-09-22T16:11:59.964Z</time>
      </trkpt>
      <trkpt lat="37.0256314" lon="-8.9376458">
        <ele>32.747</ele>
        <time>2018-09-22T16:12:02.907Z</time>
      </trkpt>
      <trkpt lat="37.0254558" lon="-8.9376824">
        <ele>32.592</ele>
        <time>2018-09-22T16:12:05.919Z</time>
      </trkpt>
      <trkpt lat="37.0252853" lon="-8.9377168">
        <ele>32.913</ele>
        <time>2018-09-22T16:12:08.931Z</time>
      </trkpt>
      <trkpt lat="37.0251149" lon="-8.9377377">
        <ele>33.671</ele>
        <time>2018-09-22T16:12:12.066Z</time>
      </trkpt>
      <trkpt lat="37.0249623" lon="-8.9377589">
        <ele>34.299</ele>
        <time>2018-09-22T16:12:14.909Z</time>
      </trkpt>
      <trkpt lat="37.0248049" lon="-8.9377596">
        <ele>34.317</ele>
        <time>2018-09-22T16:12:17.767Z</time>
      </trkpt>
      <trkpt lat="37.0246411" lon="-8.9377782">
        <ele>33.808</ele>
        <time>2018-09-22T16:12:20.723Z</time>
      </trkpt>
      <trkpt lat="37.0244747" lon="-8.9377932">
        <ele>33.191</ele>
        <time>2018-09-22T16:12:23.757Z</time>
      </trkpt>
      <trkpt lat="37.0243293" lon="-8.9378062">
        <ele>32.812</ele>
        <time>2018-09-22T16:12:26.392Z</time>
      </trkpt>
      <trkpt lat="37.0241687" lon="-8.9377958">
        <ele>32.502</ele>
        <time>2018-09-22T16:12:29.232Z</time>
      </trkpt>
      <trkpt lat="37.0239890" lon="-8.9377969">
        <ele>31.996</ele>
        <time>2018-09-22T16:12:32.440Z</time>
      </trkpt>
      <trkpt lat="37.0238289" lon="-8.9378019">
        <ele>31.295</ele>
        <time>2018-09-22T16:12:35.476Z</time>
      </trkpt>
      <trkpt lat="37.0236843" lon="-8.9377931">
        <ele>30.321</ele>
        <time>2018-09-22T16:12:38.421Z</time>
      </trkpt>
      <trkpt lat="37.0235429" lon="-8.9377750">
        <ele>28.988</ele>
        <time>2018-09-22T16:12:41.376Z</time>
      </trkpt>
      <trkpt lat="37.0234249" lon="-8.9377685">
        <ele>27.588</ele>
        <time>2018-09-22T16:12:43.694Z</time>
      </trkpt>
      <trkpt lat="37.0232668" lon="-8.9377494">
        <ele>26.320</ele>
        <time>2018-09-22T16:12:46.535Z</time>
      </trkpt>
      <trkpt lat="37.0231028" lon="-8.9377682">
        <ele>25.105</ele>
        <time>2018-09-22T16:12:49.303Z</time>
      </trkpt>
      <trkpt lat="37.0229156" lon="-8.9377770">
        <ele>23.959</ele>
        <time>2018-09-22T16:12:52.342Z</time>
      </trkpt>
      <trkpt lat="37.0227460" lon="-8.9378083">
        <ele>22.851</ele>
        <time>2018-09-22T16:12:55.098Z</time>
      </trkpt>
      <trkpt lat="37.0225656" lon="-8.9378530">
        <ele>21.445</ele>
        <time>2018-09-22T16:12:57.979Z</time>
      </trkpt>
      <trkpt lat="37.0223998" lon="-8.9379145">
        <ele>19.146</ele>
        <time>2018-09-22T16:13:00.625Z</time>
      </trkpt>
      <trkpt lat="37.0222004" lon="-8.9379908">
        <ele>16.068</ele>
        <time>2018-09-22T16:13:03.919Z</time>
      </trkpt>
      <trkpt lat="37.0220223" lon="-8.9380712">
        <ele>13.491</ele>
        <time>2018-09-22T16:13:07.064Z</time>
      </trkpt>
      <trkpt lat="37.0218512" lon="-8.9381412">
        <ele>12.565</ele>
        <time>2018-09-22T16:13:10.088Z</time>
      </trkpt>
      <trkpt lat="37.0216761" lon="-8.9382168">
        <ele>13.305</ele>
        <time>2018-09-22T16:13:13.229Z</time>
      </trkpt>
      <trkpt lat="37.0215182" lon="-8.9382879">
        <ele>14.989</ele>
        <time>2018-09-22T16:13:16.014Z</time>
      </trkpt>
      <trkpt lat="37.0213408" lon="-8.9383558">
        <ele>16.568</ele>
        <time>2018-09-22T16:13:19.076Z</time>
      </trkpt>
      <trkpt lat="37.0211862" lon="-8.9384313">
        <ele>17.357</ele>
        <time>2018-09-22T16:13:21.880Z</time>
      </trkpt>
      <trkpt lat="37.0210320" lon="-8.9385013">
        <ele>17.381</ele>
        <time>2018-09-22T16:13:24.670Z</time>
      </trkpt>
      <trkpt lat="37.0208773" lon="-8.9385833">
        <ele>17.347</ele>
        <time>2018-09-22T16:13:27.539Z</time>
      </trkpt>
      <trkpt lat="37.0207121" lon="-8.9386760">
        <ele>17.928</ele>
        <time>2018-09-22T16:13:30.744Z</time>
      </trkpt>
      <trkpt lat="37.0205951" lon="-8.9387575">
        <ele>18.943</ele>
        <time>2018-09-22T16:13:33.276Z</time>
      </trkpt>
      <trkpt lat="37.0204500" lon="-8.9388200">
        <ele>19.720</ele>
        <time>2018-09-22T16:13:36.222Z</time>
      </trkpt>
      <trkpt lat="37.0202973" lon="-8.9388941">
        <ele>20.004</ele>
        <time>2018-09-22T16:13:39.174Z</time>
      </trkpt>
      <trkpt lat="37.0201257" lon="-8.9389726">
        <ele>19.745</ele>
        <time>2018-09-22T16:13:42.116Z</time>
      </trkpt>
      <trkpt lat="37.0199407" lon="-8.9390657">
        <ele>19.027</ele>
        <time>2018-09-22T16:13:45.149Z</time>
      </trkpt>
      <trkpt lat="37.0197598" lon="-8.9391598">
        <ele>18.076</ele>
        <time>2018-09-22T16:13:48.253Z</time>
      </trkpt>
      <trkpt lat="37.0195899" lon="-8.9392307">
        <ele>16.975</ele>
        <time>2018-09-22T16:13:51.321Z</time>
      </trkpt>
      <trkpt lat="37.0194343" lon="-8.9393028">
        <ele>15.712</ele>
        <time>2018-09-22T16:13:54.225Z</time>
      </trkpt>
      <trkpt lat="37.0192761" lon="-8.9393815">
        <ele>14.477</ele>
        <time>2018-09-22T16:13:57.054Z</time>
      </trkpt>
      <trkpt lat="37.0191030" lon="-8.9394748">
        <ele>13.453</ele>
        <time>2018-09-22T16:13:59.902Z</time>
      </trkpt>
      <trkpt lat="37.0188986" lon="-8.9395669">
        <ele>12.732</ele>
        <time>2018-09-22T16:14:02.904Z</time>
      </trkpt>
      <trkpt lat="37.0186854" lon="-8.9396591">
        <ele>12.239</ele>
        <time>2018-09-22T16:14:05.914Z</time>
      </trkpt>
      <trkpt lat="37.0184839" lon="-8.9397622">
        <ele>11.684</ele>
        <time>2018-09-22T16:14:08.924Z</time>
      </trkpt>
      <trkpt lat="37.0182925" lon="-8.9398529">
        <ele>10.932</ele>
        <time>2018-09-22T16:14:11.955Z</time>
      </trkpt>
      <trkpt lat="37.0181014" lon="-8.9399411">
        <ele>10.112</ele>
        <time>2018-09-22T16:14:15.095Z</time>
      </trkpt>
      <trkpt lat="37.0179325" lon="-8.9400306">
        <ele>9.195</ele>
        <time>2018-09-22T16:14:17.961Z</time>
      </trkpt>
      <trkpt lat="37.0177612" lon="-8.9401215">
        <ele>8.249</ele>
        <time>2018-09-22T16:14:20.863Z</time>
      </trkpt>
      <trkpt lat="37.0175704" lon="-8.9401843">
        <ele>7.614</ele>
        <time>2018-09-22T16:14:23.980Z</time>
      </trkpt>
      <trkpt lat="37.0173977" lon="-8.9402777">
        <ele>7.635</ele>
        <time>2018-09-22T16:14:27.109Z</time>
      </trkpt>
      <trkpt lat="37.0172387" lon="-8.9403390">
        <ele>8.423</ele>
        <time>2018-09-22T16:14:30.012Z</time>
      </trkpt>
      <trkpt lat="37.0170823" lon="-8.9404110">
        <ele>9.372</ele>
        <time>2018-09-22T16:14:33.037Z</time>
      </trkpt>
      <trkpt lat="37.0169551" lon="-8.9404854">
        <ele>9.866</ele>
        <time>2018-09-22T16:14:35.675Z</time>
      </trkpt>
      <trkpt lat="37.0168145" lon="-8.9405620">
        <ele>9.985</ele>
        <time>2018-09-22T16:14:38.588Z</time>
      </trkpt>
      <trkpt lat="37.0166785" lon="-8.9406400">
        <ele>9.925</ele>
        <time>2018-09-22T16:14:41.481Z</time>
      </trkpt>
      <trkpt lat="37.0165433" lon="-8.9407079">
        <ele>9.359</ele>
        <time>2018-09-22T16:14:44.367Z</time>
      </trkpt>
      <trkpt lat="37.0164070" lon="-8.9407711">
        <ele>8.172</ele>
        <time>2018-09-22T16:14:47.239Z</time>
      </trkpt>
      <trkpt lat="37.0162654" lon="-8.9408533">
        <ele>7.009</ele>
        <time>2018-09-22T16:14:50.275Z</time>
      </trkpt>
      <trkpt lat="37.0161214" lon="-8.9409204">
        <ele>6.475</ele>
        <time>2018-09-22T16:14:53.262Z</time>
      </trkpt>
      <trkpt lat="37.0159809" lon="-8.9409701">
        <ele>6.681</ele>
        <time>2018-09-22T16:14:56.097Z</time>
      </trkpt>
      <trkpt lat="37.0158443" lon="-8.9410325">
        <ele>7.479</ele>
        <time>2018-09-22T16:14:58.902Z</time>
      </trkpt>
      <trkpt lat="37.0157018" lon="-8.9410995">
        <ele>8.375</ele>
        <time>2018-09-22T16:15:01.962Z</time>
      </trkpt>
      <trkpt lat="37.0155767" lon="-8.9411475">
        <ele>8.996</ele>
        <time>2018-09-22T16:15:04.827Z</time>
      </trkpt>
      <trkpt lat="37.0154624" lon="-8.9412054">
        <ele>9.301</ele>
        <time>2018-09-22T16:15:07.652Z</time>
      </trkpt>
      <trkpt lat="37.0153407" lon="-8.9412557">
        <ele>9.358</ele>
        <time>2018-09-22T16:15:10.551Z</time>
      </trkpt>
      <trkpt lat="37.0152288" lon="-8.9413085">
        <ele>9.320</ele>
        <time>2018-09-22T16:15:13.185Z</time>
      </trkpt>
      <trkpt lat="37.0150828" lon="-8.9413827">
        <ele>9.420</ele>
        <time>2018-09-22T16:15:16.579Z</time>
      </trkpt>
      <trkpt lat="37.0149686" lon="-8.9414672">
        <ele>9.770</ele>
        <time>2018-09-22T16:15:19.442Z</time>
      </trkpt>
      <trkpt lat="37.0148301" lon="-8.9415251">
        <ele>10.028</ele>
        <time>2018-09-22T16:15:22.544Z</time>
      </trkpt>
      <trkpt lat="37.0146888" lon="-8.9415859">
        <ele>9.904</ele>
        <time>2018-09-22T16:15:25.711Z</time>
      </trkpt>
      <trkpt lat="37.0145689" lon="-8.9416476">
        <ele>9.670</ele>
        <time>2018-09-22T16:15:28.620Z</time>
      </trkpt>
      <trkpt lat="37.0144681" lon="-8.9417550">
        <ele>9.622</ele>
        <time>2018-09-22T16:15:31.649Z</time>
      </trkpt>
      <trkpt lat="37.0143410" lon="-8.9417947">
        <ele>9.546</ele>
        <time>2018-09-22T16:15:34.701Z</time>
      </trkpt>
      <trkpt lat="37.0142223" lon="-8.9418564">
        <ele>9.211</ele>
        <time>2018-09-22T16:15:37.791Z</time>
      </trkpt>
      <trkpt lat="37.0141073" lon="-8.9419094">
        <ele>9.212</ele>
        <time>2018-09-22T16:15:40.705Z</time>
      </trkpt>
      <trkpt lat="37.0139849" lon="-8.9419548">
        <ele>10.051</ele>
        <time>2018-09-22T16:15:43.698Z</time>
      </trkpt>
      <trkpt lat="37.0138576" lon="-8.9419969">
        <ele>11.325</ele>
        <time>2018-09-22T16:15:46.750Z</time>
      </trkpt>
      <trkpt lat="37.0137326" lon="-8.9420415">
        <ele>12.772</ele>
        <time>2018-09-22T16:15:49.763Z</time>
      </trkpt>
      <trkpt lat="37.0136177" lon="-8.9420956">
        <ele>14.385</ele>
        <time>2018-09-22T16:15:52.732Z</time>
      </trkpt>
      <trkpt lat="37.0135144" lon="-8.9421650">
        <ele>15.728</ele>
        <time>2018-09-22T16:15:55.778Z</time>
      </trkpt>
      <trkpt lat="37.0134176" lon="-8.9422191">
        <ele>16.464</ele>
        <time>2018-09-22T16:15:58.695Z</time>
      </trkpt>
      <trkpt lat="37.0133300" lon="-8.9422762">
        <ele>16.682</ele>
        <time>2018-09-22T16:16:01.577Z</time>
      </trkpt>
      <trkpt lat="37.0132340" lon="-8.9423193">
        <ele>16.327</ele>
        <time>2018-09-22T16:16:04.992Z</time>
      </trkpt>
      <trkpt lat="37.0132340" lon="-8.9423193">
        <ele>15.427</ele>
        <time>2018-09-22T16:16:09.992Z</time>
      </trkpt>
      <trkpt lat="37.0132340" lon="-8.9423193">
        <ele>14.704</ele>
        <time>2018-09-22T16:17:10.418Z</time>
      </trkpt>
      <trkpt lat="37.0130502" lon="-8.9423876">
        <ele>14.713</ele>
        <time>2018-09-22T16:17:22.203Z</time>
      </trkpt>
      <trkpt lat="37.0129398" lon="-8.9424226">
        <ele>14.609</ele>
        <time>2018-09-22T16:17:25.183Z</time>
      </trkpt>
      <trkpt lat="37.0128217" lon="-8.9424652">
        <ele>13.625</ele>
        <time>2018-09-22T16:17:28.025Z</time>
      </trkpt>
      <trkpt lat="37.0126878" lon="-8.9425282">
        <ele>12.406</ele>
        <time>2018-09-22T16:17:31.221Z</time>
      </trkpt>
      <trkpt lat="37.0125365" lon="-8.9425902">
        <ele>11.756</ele>
        <time>2018-09-22T16:17:34.568Z</time>
      </trkpt>
      <trkpt lat="37.0123953" lon="-8.9426475">
        <ele>11.702</ele>
        <time>2018-09-22T16:17:37.424Z</time>
      </trkpt>
      <trkpt lat="37.0122401" lon="-8.9427037">
        <ele>12.342</ele>
        <time>2018-09-22T16:17:40.466Z</time>
      </trkpt>
      <trkpt lat="37.0121049" lon="-8.9427869">
        <ele>13.951</ele>
        <time>2018-09-22T16:17:43.420Z</time>
      </trkpt>
      <trkpt lat="37.0119869" lon="-8.9428617">
        <ele>16.071</ele>
        <time>2018-09-22T16:17:46.075Z</time>
      </trkpt>
      <trkpt lat="37.0118952" lon="-8.9429153">
        <ele>17.751</ele>
        <time>2018-09-22T16:17:48.205Z</time>
      </trkpt>
      <trkpt lat="37.0118120" lon="-8.9429634">
        <ele>18.709</ele>
        <time>2018-09-22T16:17:50.177Z</time>
      </trkpt>
      <trkpt lat="37.0116913" lon="-8.9430133">
        <ele>19.195</ele>
        <time>2018-09-22T16:17:52.916Z</time>
      </trkpt>
      <trkpt lat="37.0116056" lon="-8.9430526">
        <ele>19.390</ele>
        <time>2018-09-22T16:17:54.821Z</time>
      </trkpt>
      <trkpt lat="37.0115227" lon="-8.9431011">
        <ele>19.633</ele>
        <time>2018-09-22T16:17:56.677Z</time>
      </trkpt>
      <trkpt lat="37.0114275" lon="-8.9431405">
        <ele>20.250</ele>
        <time>2018-09-22T16:17:58.654Z</time>
      </trkpt>
      <trkpt lat="37.0113121" lon="-8.9431562">
        <ele>21.120</ele>
        <time>2018-09-22T16:18:00.891Z</time>
      </trkpt>
      <trkpt lat="37.0111849" lon="-8.9432272">
        <ele>22.006</ele>
        <time>2018-09-22T16:18:03.556Z</time>
      </trkpt>
      <trkpt lat="37.0110904" lon="-8.9432683">
        <ele>22.828</ele>
        <time>2018-09-22T16:18:05.493Z</time>
      </trkpt>
      <trkpt lat="37.0109892" lon="-8.9433096">
        <ele>23.399</ele>
        <time>2018-09-22T16:18:07.604Z</time>
      </trkpt>
      <trkpt lat="37.0109054" lon="-8.9433686">
        <ele>23.731</ele>
        <time>2018-09-22T16:18:09.585Z</time>
      </trkpt>
      <trkpt lat="37.0107831" lon="-8.9434238">
        <ele>24.054</ele>
        <time>2018-09-22T16:18:12.434Z</time>
      </trkpt>
      <trkpt lat="37.0106584" lon="-8.9434650">
        <ele>24.320</ele>
        <time>2018-09-22T16:18:15.303Z</time>
      </trkpt>
      <trkpt lat="37.0105758" lon="-8.9435289">
        <ele>24.410</ele>
        <time>2018-09-22T16:18:17.348Z</time>
      </trkpt>
      <trkpt lat="37.0104444" lon="-8.9435709">
        <ele>24.431</ele>
        <time>2018-09-22T16:18:20.100Z</time>
      </trkpt>
      <trkpt lat="37.0103227" lon="-8.9436422">
        <ele>24.554</ele>
        <time>2018-09-22T16:18:22.858Z</time>
      </trkpt>
      <trkpt lat="37.0102108" lon="-8.9437162">
        <ele>25.000</ele>
        <time>2018-09-22T16:18:25.563Z</time>
      </trkpt>
      <trkpt lat="37.0101291" lon="-8.9437677">
        <ele>25.845</ele>
        <time>2018-09-22T16:18:27.616Z</time>
      </trkpt>
      <trkpt lat="37.0100101" lon="-8.9438100">
        <ele>26.731</ele>
        <time>2018-09-22T16:18:30.401Z</time>
      </trkpt>
      <trkpt lat="37.0098942" lon="-8.9438738">
        <ele>26.931</ele>
        <time>2018-09-22T16:18:33.201Z</time>
      </trkpt>
      <trkpt lat="37.0098070" lon="-8.9439275">
        <ele>26.249</ele>
        <time>2018-09-22T16:18:35.382Z</time>
      </trkpt>
      <trkpt lat="37.0097044" lon="-8.9440070">
        <ele>25.505</ele>
        <time>2018-09-22T16:18:38.215Z</time>
      </trkpt>
      <trkpt lat="37.0095945" lon="-8.9440570">
        <ele>25.505</ele>
        <time>2018-09-22T16:18:41.060Z</time>
      </trkpt>
      <trkpt lat="37.0094678" lon="-8.9440929">
        <ele>26.154</ele>
        <time>2018-09-22T16:18:44.212Z</time>
      </trkpt>
      <trkpt lat="37.0093530" lon="-8.9441503">
        <ele>27.297</ele>
        <time>2018-09-22T16:18:47.305Z</time>
      </trkpt>
      <trkpt lat="37.0092504" lon="-8.9441835">
        <ele>28.939</ele>
        <time>2018-09-22T16:18:50.101Z</time>
      </trkpt>
      <trkpt lat="37.0091442" lon="-8.9442550">
        <ele>30.571</ele>
        <time>2018-09-22T16:18:53.171Z</time>
      </trkpt>
      <trkpt lat="37.0090338" lon="-8.9443062">
        <ele>31.433</ele>
        <time>2018-09-22T16:18:56.040Z</time>
      </trkpt>
      <trkpt lat="37.0089270" lon="-8.9443559">
        <ele>31.290</ele>
        <time>2018-09-22T16:18:58.923Z</time>
      </trkpt>
      <trkpt lat="37.0088334" lon="-8.9443998">
        <ele>30.573</ele>
        <time>2018-09-22T16:19:01.593Z</time>
      </trkpt>
      <trkpt lat="37.0087256" lon="-8.9444579">
        <ele>29.952</ele>
        <time>2018-09-22T16:19:04.664Z</time>
      </trkpt>
      <trkpt lat="37.0086190" lon="-8.9445092">
        <ele>29.812</ele>
        <time>2018-09-22T16:19:07.582Z</time>
      </trkpt>
      <trkpt lat="37.0085249" lon="-8.9445533">
        <ele>30.076</ele>
        <time>2018-09-22T16:19:10.291Z</time>
      </trkpt>
      <trkpt lat="37.0084184" lon="-8.9446020">
        <ele>30.493</ele>
        <time>2018-09-22T16:19:13.383Z</time>
      </trkpt>
      <trkpt lat="37.0083107" lon="-8.9446601">
        <ele>30.858</ele>
        <time>2018-09-22T16:19:16.434Z</time>
      </trkpt>
      <trkpt lat="37.0082240" lon="-8.9447068">
        <ele>31.062</ele>
        <time>2018-09-22T16:19:18.998Z</time>
      </trkpt>
      <trkpt lat="37.0082240" lon="-8.9447068">
        <ele>31.095</ele>
        <time>2018-09-22T16:19:24.998Z</time>
      </trkpt>
      <trkpt lat="37.0081987" lon="-8.9445565">
        <ele>22.667</ele>
        <time>2018-09-22T16:56:10.000Z</time>
      </trkpt>
      <trkpt lat="37.0081987" lon="-8.9445565">
        <ele>22.943</ele>
        <time>2018-09-22T16:56:11.000Z</time>
      </trkpt>
      <trkpt lat="37.0081987" lon="-8.9445565">
        <ele>23.671</ele>
        <time>2018-09-22T16:56:13.000Z</time>
      </trkpt>
      <trkpt lat="37.0081987" lon="-8.9445565">
        <ele>24.274</ele>
        <time>2018-09-22T16:56:19.317Z</time>
      </trkpt>
      <trkpt lat="37.0080757" lon="-8.9447491">
        <ele>24.254</ele>
        <time>2018-09-22T16:56:33.258Z</time>
      </trkpt>
      <trkpt lat="37.0079864" lon="-8.9448408">
        <ele>24.830</ele>
        <time>2018-09-22T16:56:37.396Z</time>
      </trkpt>
      <trkpt lat="37.0079205" lon="-8.9449456">
        <ele>27.055</ele>
        <time>2018-09-22T16:56:40.685Z</time>
      </trkpt>
      <trkpt lat="37.0078790" lon="-8.9450885">
        <ele>29.819</ele>
        <time>2018-09-22T16:56:44.024Z</time>
      </trkpt>
      <trkpt lat="37.0078789" lon="-8.9452375">
        <ele>31.806</ele>
        <time>2018-09-22T16:56:47.120Z</time>
      </trkpt>
      <trkpt lat="37.0078940" lon="-8.9453795">
        <ele>33.051</ele>
        <time>2018-09-22T16:56:50.127Z</time>
      </trkpt>
      <trkpt lat="37.0079179" lon="-8.9455152">
        <ele>33.787</ele>
        <time>2018-09-22T16:56:53.162Z</time>
      </trkpt>
      <trkpt lat="37.0079568" lon="-8.9456360">
        <ele>34.413</ele>
        <time>2018-09-22T16:56:56.047Z</time>
      </trkpt>
      <trkpt lat="37.0080086" lon="-8.9457502">
        <ele>35.217</ele>
        <time>2018-09-22T16:56:58.857Z</time>
      </trkpt>
      <trkpt lat="37.0080581" lon="-8.9458811">
        <ele>35.739</ele>
        <time>2018-09-22T16:57:01.771Z</time>
      </trkpt>
      <trkpt lat="37.0081108" lon="-8.9460117">
        <ele>35.376</ele>
        <time>2018-09-22T16:57:04.514Z</time>
      </trkpt>
      <trkpt lat="37.0081716" lon="-8.9461562">
        <ele>34.332</ele>
        <time>2018-09-22T16:57:07.439Z</time>
      </trkpt>
      <trkpt lat="37.0082523" lon="-8.9463037">
        <ele>33.170</ele>
        <time>2018-09-22T16:57:10.630Z</time>
      </trkpt>
      <trkpt lat="37.0083243" lon="-8.9464188">
        <ele>32.158</ele>
        <time>2018-09-22T16:57:13.260Z</time>
      </trkpt>
      <trkpt lat="37.0083952" lon="-8.9465730">
        <ele>31.274</ele>
        <time>2018-09-22T16:57:16.448Z</time>
      </trkpt>
      <trkpt lat="37.0084768" lon="-8.9467133">
        <ele>30.350</ele>
        <time>2018-09-22T16:57:19.535Z</time>
      </trkpt>
      <trkpt lat="37.0085694" lon="-8.9468470">
        <ele>29.361</ele>
        <time>2018-09-22T16:57:22.695Z</time>
      </trkpt>
      <trkpt lat="37.0086365" lon="-8.9469923">
        <ele>28.534</ele>
        <time>2018-09-22T16:57:25.743Z</time>
      </trkpt>
      <trkpt lat="37.0086996" lon="-8.9471381">
        <ele>28.030</ele>
        <time>2018-09-22T16:57:28.754Z</time>
      </trkpt>
      <trkpt lat="37.0087928" lon="-8.9472536">
        <ele>27.933</ele>
        <time>2018-09-22T16:57:31.657Z</time>
      </trkpt>
      <trkpt lat="37.0088721" lon="-8.9473840">
        <ele>28.239</ele>
        <time>2018-09-22T16:57:34.553Z</time>
      </trkpt>
      <trkpt lat="37.0089399" lon="-8.9475184">
        <ele>28.630</ele>
        <time>2018-09-22T16:57:37.524Z</time>
      </trkpt>
      <trkpt lat="37.0089952" lon="-8.9476502">
        <ele>28.821</ele>
        <time>2018-09-22T16:57:40.478Z</time>
      </trkpt>
      <trkpt lat="37.0090688" lon="-8.9477334">
        <ele>28.836</ele>
        <time>2018-09-22T16:57:42.983Z</time>
      </trkpt>
      <trkpt lat="37.0091498" lon="-8.9478671">
        <ele>28.791</ele>
        <time>2018-09-22T16:57:46.396Z</time>
      </trkpt>
      <trkpt lat="37.0092125" lon="-8.9479887">
        <ele>28.666</ele>
        <time>2018-09-22T16:57:49.360Z</time>
      </trkpt>
      <trkpt lat="37.0092815" lon="-8.9481021">
        <ele>28.414</ele>
        <time>2018-09-22T16:57:52.226Z</time>
      </trkpt>
      <trkpt lat="37.0093624" lon="-8.9482110">
        <ele>27.887</ele>
        <time>2018-09-22T16:57:55.165Z</time>
      </trkpt>
      <trkpt lat="37.0094511" lon="-8.9483230">
        <ele>27.027</ele>
        <time>2018-09-22T16:57:58.366Z</time>
      </trkpt>
      <trkpt lat="37.0095390" lon="-8.9484213">
        <ele>26.010</ele>
        <time>2018-09-22T16:58:01.516Z</time>
      </trkpt>
      <trkpt lat="37.0096219" lon="-8.9484996">
        <ele>25.038</ele>
        <time>2018-09-22T16:58:04.249Z</time>
      </trkpt>
      <trkpt lat="37.0097138" lon="-8.9485846">
        <ele>24.276</ele>
        <time>2018-09-22T16:58:07.083Z</time>
      </trkpt>
      <trkpt lat="37.0098089" lon="-8.9486673">
        <ele>23.888</ele>
        <time>2018-09-22T16:58:09.840Z</time>
      </trkpt>
      <trkpt lat="37.0099270" lon="-8.9487266">
        <ele>23.863</ele>
        <time>2018-09-22T16:58:12.887Z</time>
      </trkpt>
      <trkpt lat="37.0100174" lon="-8.9488340">
        <ele>24.185</ele>
        <time>2018-09-22T16:58:15.857Z</time>
      </trkpt>
      <trkpt lat="37.0101118" lon="-8.9489346">
        <ele>24.878</ele>
        <time>2018-09-22T16:58:18.708Z</time>
      </trkpt>
      <trkpt lat="37.0102234" lon="-8.9490392">
        <ele>25.798</ele>
        <time>2018-09-22T16:58:21.843Z</time>
      </trkpt>
      <trkpt lat="37.0103297" lon="-8.9491517">
        <ele>26.581</ele>
        <time>2018-09-22T16:58:24.941Z</time>
      </trkpt>
      <trkpt lat="37.0104641" lon="-8.9492311">
        <ele>26.984</ele>
        <time>2018-09-22T16:58:28.239Z</time>
      </trkpt>
      <trkpt lat="37.0105904" lon="-8.9493100">
        <ele>26.984</ele>
        <time>2018-09-22T16:58:31.367Z</time>
      </trkpt>
      <trkpt lat="37.0106902" lon="-8.9494166">
        <ele>26.275</ele>
        <time>2018-09-22T16:58:34.254Z</time>
      </trkpt>
      <trkpt lat="37.0107916" lon="-8.9495215">
        <ele>24.882</ele>
        <time>2018-09-22T16:58:37.096Z</time>
      </trkpt>
      <trkpt lat="37.0109027" lon="-8.9496242">
        <ele>23.555</ele>
        <time>2018-09-22T16:58:40.028Z</time>
      </trkpt>
      <trkpt lat="37.0110316" lon="-8.9497399">
        <ele>22.826</ele>
        <time>2018-09-22T16:58:43.409Z</time>
      </trkpt>
      <trkpt lat="37.0111489" lon="-8.9497951">
        <ele>22.606</ele>
        <time>2018-09-22T16:58:46.061Z</time>
      </trkpt>
      <trkpt lat="37.0112687" lon="-8.9498929">
        <ele>22.677</ele>
        <time>2018-09-22T16:58:49.032Z</time>
      </trkpt>
      <trkpt lat="37.0113808" lon="-8.9499947">
        <ele>22.808</ele>
        <time>2018-09-22T16:58:51.873Z</time>
      </trkpt>
      <trkpt lat="37.0114961" lon="-8.9501078">
        <ele>23.019</ele>
        <time>2018-09-22T16:58:54.825Z</time>
      </trkpt>
      <trkpt lat="37.0116257" lon="-8.9502167">
        <ele>23.398</ele>
        <time>2018-09-22T16:58:57.961Z</time>
      </trkpt>
      <trkpt lat="37.0117377" lon="-8.9503331">
        <ele>24.004</ele>
        <time>2018-09-22T16:59:00.940Z</time>
      </trkpt>
      <trkpt lat="37.0118628" lon="-8.9504229">
        <ele>24.780</ele>
        <time>2018-09-22T16:59:03.937Z</time>
      </trkpt>
      <trkpt lat="37.0119823" lon="-8.9505209">
        <ele>25.369</ele>
        <time>2018-09-22T16:59:06.950Z</time>
      </trkpt>
      <trkpt lat="37.0121059" lon="-8.9506192">
        <ele>25.512</ele>
        <time>2018-09-22T16:59:10.022Z</time>
      </trkpt>
      <trkpt lat="37.0122171" lon="-8.9507406">
        <ele>25.407</ele>
        <time>2018-09-22T16:59:12.986Z</time>
      </trkpt>
      <trkpt lat="37.0123549" lon="-8.9508544">
        <ele>25.413</ele>
        <time>2018-09-22T16:59:16.157Z</time>
      </trkpt>
      <trkpt lat="37.0124950" lon="-8.9509725">
        <ele>25.680</ele>
        <time>2018-09-22T16:59:19.415Z</time>
      </trkpt>
      <trkpt lat="37.0126152" lon="-8.9510728">
        <ele>26.175</ele>
        <time>2018-09-22T16:59:22.265Z</time>
      </trkpt>
      <trkpt lat="37.0127346" lon="-8.9511787">
        <ele>26.785</ele>
        <time>2018-09-22T16:59:25.214Z</time>
      </trkpt>
      <trkpt lat="37.0128491" lon="-8.9512711">
        <ele>27.273</ele>
        <time>2018-09-22T16:59:27.984Z</time>
      </trkpt>
      <trkpt lat="37.0129763" lon="-8.9513883">
        <ele>27.489</ele>
        <time>2018-09-22T16:59:31.178Z</time>
      </trkpt>
      <trkpt lat="37.0130907" lon="-8.9514944">
        <ele>27.756</ele>
        <time>2018-09-22T16:59:34.064Z</time>
      </trkpt>
      <trkpt lat="37.0132196" lon="-8.9516001">
        <ele>28.304</ele>
        <time>2018-09-22T16:59:37.276Z</time>
      </trkpt>
      <trkpt lat="37.0133348" lon="-8.9516941">
        <ele>28.869</ele>
        <time>2018-09-22T16:59:40.278Z</time>
      </trkpt>
      <trkpt lat="37.0134431" lon="-8.9518093">
        <ele>29.154</ele>
        <time>2018-09-22T16:59:43.446Z</time>
      </trkpt>
      <trkpt lat="37.0135462" lon="-8.9518991">
        <ele>29.093</ele>
        <time>2018-09-22T16:59:46.216Z</time>
      </trkpt>
      <trkpt lat="37.0136695" lon="-8.9520033">
        <ele>28.755</ele>
        <time>2018-09-22T16:59:49.454Z</time>
      </trkpt>
      <trkpt lat="37.0137777" lon="-8.9521279">
        <ele>28.470</ele>
        <time>2018-09-22T16:59:52.653Z</time>
      </trkpt>
      <trkpt lat="37.0139010" lon="-8.9522163">
        <ele>28.471</ele>
        <time>2018-09-22T16:59:55.777Z</time>
      </trkpt>
      <trkpt lat="37.0140025" lon="-8.9523268">
        <ele>28.574</ele>
        <time>2018-09-22T16:59:58.886Z</time>
      </trkpt>
      <trkpt lat="37.0141074" lon="-8.9524118">
        <ele>28.570</ele>
        <time>2018-09-22T17:00:01.989Z</time>
      </trkpt>
      <trkpt lat="37.0142013" lon="-8.9524988">
        <ele>28.494</ele>
        <time>2018-09-22T17:00:04.952Z</time>
      </trkpt>
      <trkpt lat="37.0143015" lon="-8.9525679">
        <ele>28.438</ele>
        <time>2018-09-22T17:00:07.871Z</time>
      </trkpt>
      <trkpt lat="37.0143981" lon="-8.9526559">
        <ele>28.351</ele>
        <time>2018-09-22T17:00:10.976Z</time>
      </trkpt>
      <trkpt lat="37.0144978" lon="-8.9527350">
        <ele>28.176</ele>
        <time>2018-09-22T17:00:14.114Z</time>
      </trkpt>
      <trkpt lat="37.0145967" lon="-8.9528112">
        <ele>27.805</ele>
        <time>2018-09-22T17:00:17.260Z</time>
      </trkpt>
      <trkpt lat="37.0146937" lon="-8.9528728">
        <ele>27.213</ele>
        <time>2018-09-22T17:00:20.243Z</time>
      </trkpt>
      <trkpt lat="37.0147804" lon="-8.9529580">
        <ele>26.678</ele>
        <time>2018-09-22T17:00:23.329Z</time>
      </trkpt>
      <trkpt lat="37.0148600" lon="-8.9530446">
        <ele>26.520</ele>
        <time>2018-09-22T17:00:26.353Z</time>
      </trkpt>
      <trkpt lat="37.0149391" lon="-8.9531299">
        <ele>26.870</ele>
        <time>2018-09-22T17:00:29.259Z</time>
      </trkpt>
      <trkpt lat="37.0150274" lon="-8.9531882">
        <ele>27.621</ele>
        <time>2018-09-22T17:00:31.924Z</time>
      </trkpt>
      <trkpt lat="37.0151205" lon="-8.9532591">
        <ele>28.379</ele>
        <time>2018-09-22T17:00:34.851Z</time>
      </trkpt>
      <trkpt lat="37.0152112" lon="-8.9533351">
        <ele>29.153</ele>
        <time>2018-09-22T17:00:37.804Z</time>
      </trkpt>
      <trkpt lat="37.0153005" lon="-8.9534159">
        <ele>30.113</ele>
        <time>2018-09-22T17:00:40.693Z</time>
      </trkpt>
      <trkpt lat="37.0153997" lon="-8.9534871">
        <ele>30.727</ele>
        <time>2018-09-22T17:00:43.606Z</time>
      </trkpt>
      <trkpt lat="37.0154991" lon="-8.9535673">
        <ele>30.480</ele>
        <time>2018-09-22T17:00:46.629Z</time>
      </trkpt>
      <trkpt lat="37.0155998" lon="-8.9536454">
        <ele>29.758</ele>
        <time>2018-09-22T17:00:49.681Z</time>
      </trkpt>
      <trkpt lat="37.0156955" lon="-8.9537305">
        <ele>29.245</ele>
        <time>2018-09-22T17:00:52.712Z</time>
      </trkpt>
      <trkpt lat="37.0157931" lon="-8.9538133">
        <ele>29.452</ele>
        <time>2018-09-22T17:00:55.771Z</time>
      </trkpt>
      <trkpt lat="37.0158868" lon="-8.9538889">
        <ele>30.334</ele>
        <time>2018-09-22T17:00:58.643Z</time>
      </trkpt>
      <trkpt lat="37.0159789" lon="-8.9539702">
        <ele>31.221</ele>
        <time>2018-09-22T17:01:01.479Z</time>
      </trkpt>
      <trkpt lat="37.0160715" lon="-8.9540474">
        <ele>31.720</ele>
        <time>2018-09-22T17:01:04.238Z</time>
      </trkpt>
      <trkpt lat="37.0161753" lon="-8.9541252">
        <ele>32.255</ele>
        <time>2018-09-22T17:01:07.283Z</time>
      </trkpt>
      <trkpt lat="37.0162716" lon="-8.9542062">
        <ele>33.079</ele>
        <time>2018-09-22T17:01:10.255Z</time>
      </trkpt>
      <trkpt lat="37.0163695" lon="-8.9542976">
        <ele>33.800</ele>
        <time>2018-09-22T17:01:13.378Z</time>
      </trkpt>
      <trkpt lat="37.0164708" lon="-8.9543705">
        <ele>33.724</ele>
        <time>2018-09-22T17:01:16.347Z</time>
      </trkpt>
      <trkpt lat="37.0165747" lon="-8.9544349">
        <ele>32.755</ele>
        <time>2018-09-22T17:01:19.238Z</time>
      </trkpt>
      <trkpt lat="37.0166739" lon="-8.9545120">
        <ele>31.662</ele>
        <time>2018-09-22T17:01:22.038Z</time>
      </trkpt>
      <trkpt lat="37.0167762" lon="-8.9546011">
        <ele>31.175</ele>
        <time>2018-09-22T17:01:24.966Z</time>
      </trkpt>
      <trkpt lat="37.0168830" lon="-8.9546794">
        <ele>31.337</ele>
        <time>2018-09-22T17:01:27.887Z</time>
      </trkpt>
      <trkpt lat="37.0169810" lon="-8.9547671">
        <ele>31.846</ele>
        <time>2018-09-22T17:01:30.702Z</time>
      </trkpt>
      <trkpt lat="37.0170777" lon="-8.9548599">
        <ele>32.339</ele>
        <time>2018-09-22T17:01:33.514Z</time>
      </trkpt>
      <trkpt lat="37.0171805" lon="-8.9549538">
        <ele>32.657</ele>
        <time>2018-09-22T17:01:36.433Z</time>
      </trkpt>
      <trkpt lat="37.0172908" lon="-8.9550479">
        <ele>32.801</ele>
        <time>2018-09-22T17:01:39.532Z</time>
      </trkpt>
      <trkpt lat="37.0173940" lon="-8.9551147">
        <ele>32.917</ele>
        <time>2018-09-22T17:01:42.306Z</time>
      </trkpt>
      <trkpt lat="37.0174910" lon="-8.9551913">
        <ele>33.145</ele>
        <time>2018-09-22T17:01:45.059Z</time>
      </trkpt>
      <trkpt lat="37.0175993" lon="-8.9552697">
        <ele>33.184</ele>
        <time>2018-09-22T17:01:48.020Z</time>
      </trkpt>
      <trkpt lat="37.0177038" lon="-8.9553634">
        <ele>32.784</ele>
        <time>2018-09-22T17:01:51.107Z</time>
      </trkpt>
      <trkpt lat="37.0178053" lon="-8.9554489">
        <ele>32.212</ele>
        <time>2018-09-22T17:01:54.145Z</time>
      </trkpt>
      <trkpt lat="37.0178980" lon="-8.9555319">
        <ele>31.937</ele>
        <time>2018-09-22T17:01:57.006Z</time>
      </trkpt>
      <trkpt lat="37.0179888" lon="-8.9556283">
        <ele>32.187</ele>
        <time>2018-09-22T17:01:59.937Z</time>
      </trkpt>
      <trkpt lat="37.0180815" lon="-8.9557260">
        <ele>32.826</ele>
        <time>2018-09-22T17:02:02.812Z</time>
      </trkpt>
      <trkpt lat="37.0181856" lon="-8.9558346">
        <ele>33.673</ele>
        <time>2018-09-22T17:02:06.021Z</time>
      </trkpt>
      <trkpt lat="37.0182856" lon="-8.9559265">
        <ele>34.595</ele>
        <time>2018-09-22T17:02:09.148Z</time>
      </trkpt>
      <trkpt lat="37.0183814" lon="-8.9560065">
        <ele>35.251</ele>
        <time>2018-09-22T17:02:12.168Z</time>
      </trkpt>
      <trkpt lat="37.0184804" lon="-8.9560694">
        <ele>35.487</ele>
        <time>2018-09-22T17:02:15.050Z</time>
      </trkpt>
      <trkpt lat="37.0185711" lon="-8.9561439">
        <ele>35.372</ele>
        <time>2018-09-22T17:02:17.900Z</time>
      </trkpt>
      <trkpt lat="37.0186570" lon="-8.9562278">
        <ele>34.989</ele>
        <time>2018-09-22T17:02:20.849Z</time>
      </trkpt>
      <trkpt lat="37.0187478" lon="-8.9563080">
        <ele>34.510</ele>
        <time>2018-09-22T17:02:23.816Z</time>
      </trkpt>
      <trkpt lat="37.0188555" lon="-8.9563733">
        <ele>34.108</ele>
        <time>2018-09-22T17:02:26.971Z</time>
      </trkpt>
      <trkpt lat="37.0189619" lon="-8.9564274">
        <ele>33.874</ele>
        <time>2018-09-22T17:02:30.040Z</time>
      </trkpt>
      <trkpt lat="37.0190659" lon="-8.9564828">
        <ele>33.782</ele>
        <time>2018-09-22T17:02:33.098Z</time>
      </trkpt>
      <trkpt lat="37.0191544" lon="-8.9565491">
        <ele>33.778</ele>
        <time>2018-09-22T17:02:35.968Z</time>
      </trkpt>
      <trkpt lat="37.0192405" lon="-8.9566136">
        <ele>34.190</ele>
        <time>2018-09-22T17:02:38.841Z</time>
      </trkpt>
      <trkpt lat="37.0193377" lon="-8.9566642">
        <ele>35.148</ele>
        <time>2018-09-22T17:02:41.871Z</time>
      </trkpt>
      <trkpt lat="37.0194259" lon="-8.9567304">
        <ele>35.697</ele>
        <time>2018-09-22T17:02:44.907Z</time>
      </trkpt>
      <trkpt lat="37.0195052" lon="-8.9567836">
        <ele>35.144</ele>
        <time>2018-09-22T17:02:47.667Z</time>
      </trkpt>
      <trkpt lat="37.0195959" lon="-8.9568392">
        <ele>34.084</ele>
        <time>2018-09-22T17:02:50.568Z</time>
      </trkpt>
      <trkpt lat="37.0196887" lon="-8.9569119">
        <ele>33.126</ele>
        <time>2018-09-22T17:02:53.509Z</time>
      </trkpt>
      <trkpt lat="37.0197819" lon="-8.9569875">
        <ele>32.379</ele>
        <time>2018-09-22T17:02:56.454Z</time>
      </trkpt>
      <trkpt lat="37.0198627" lon="-8.9570903">
        <ele>32.334</ele>
        <time>2018-09-22T17:02:59.598Z</time>
      </trkpt>
      <trkpt lat="37.0199424" lon="-8.9571718">
        <ele>33.196</ele>
        <time>2018-09-22T17:03:02.458Z</time>
      </trkpt>
      <trkpt lat="37.0200323" lon="-8.9572429">
        <ele>34.319</ele>
        <time>2018-09-22T17:03:05.358Z</time>
      </trkpt>
      <trkpt lat="37.0201273" lon="-8.9573197">
        <ele>35.088</ele>
        <time>2018-09-22T17:03:08.270Z</time>
      </trkpt>
      <trkpt lat="37.0202327" lon="-8.9574055">
        <ele>35.294</ele>
        <time>2018-09-22T17:03:11.333Z</time>
      </trkpt>
      <trkpt lat="37.0203394" lon="-8.9574740">
        <ele>34.968</ele>
        <time>2018-09-22T17:03:14.334Z</time>
      </trkpt>
      <trkpt lat="37.0204390" lon="-8.9575427">
        <ele>34.560</ele>
        <time>2018-09-22T17:03:17.202Z</time>
      </trkpt>
      <trkpt lat="37.0205376" lon="-8.9576423">
        <ele>34.598</ele>
        <time>2018-09-22T17:03:20.158Z</time>
      </trkpt>
      <trkpt lat="37.0206422" lon="-8.9577422">
        <ele>35.328</ele>
        <time>2018-09-22T17:03:23.083Z</time>
      </trkpt>
      <trkpt lat="37.0207387" lon="-8.9578382">
        <ele>36.529</ele>
        <time>2018-09-22T17:03:25.844Z</time>
      </trkpt>
      <trkpt lat="37.0208466" lon="-8.9579266">
        <ele>37.608</ele>
        <time>2018-09-22T17:03:28.671Z</time>
      </trkpt>
      <trkpt lat="37.0209855" lon="-8.9580101">
        <ele>38.204</ele>
        <time>2018-09-22T17:03:31.959Z</time>
      </trkpt>
      <trkpt lat="37.0210764" lon="-8.9581027">
        <ele>38.618</ele>
        <time>2018-09-22T17:03:34.591Z</time>
      </trkpt>
      <trkpt lat="37.0211874" lon="-8.9581771">
        <ele>39.499</ele>
        <time>2018-09-22T17:03:37.737Z</time>
      </trkpt>
      <trkpt lat="37.0212692" lon="-8.9582453">
        <ele>40.916</ele>
        <time>2018-09-22T17:03:40.432Z</time>
      </trkpt>
      <trkpt lat="37.0213364" lon="-8.9583365">
        <ele>42.259</ele>
        <time>2018-09-22T17:03:43.195Z</time>
      </trkpt>
      <trkpt lat="37.0214232" lon="-8.9584317">
        <ele>43.235</ele>
        <time>2018-09-22T17:03:46.302Z</time>
      </trkpt>
      <trkpt lat="37.0215296" lon="-8.9584895">
        <ele>43.961</ele>
        <time>2018-09-22T17:03:49.380Z</time>
      </trkpt>
      <trkpt lat="37.0216278" lon="-8.9585581">
        <ele>44.255</ele>
        <time>2018-09-22T17:03:52.398Z</time>
      </trkpt>
      <trkpt lat="37.0217244" lon="-8.9586229">
        <ele>44.005</ele>
        <time>2018-09-22T17:03:55.336Z</time>
      </trkpt>
      <trkpt lat="37.0218257" lon="-8.9586889">
        <ele>43.588</ele>
        <time>2018-09-22T17:03:58.323Z</time>
      </trkpt>
      <trkpt lat="37.0219303" lon="-8.9587781">
        <ele>43.450</ele>
        <time>2018-09-22T17:04:01.457Z</time>
      </trkpt>
      <trkpt lat="37.0220356" lon="-8.9588738">
        <ele>43.728</ele>
        <time>2018-09-22T17:04:04.559Z</time>
      </trkpt>
      <trkpt lat="37.0221438" lon="-8.9589643">
        <ele>44.220</ele>
        <time>2018-09-22T17:04:07.584Z</time>
      </trkpt>
      <trkpt lat="37.0222507" lon="-8.9590772">
        <ele>44.628</ele>
        <time>2018-09-22T17:04:10.711Z</time>
      </trkpt>
      <trkpt lat="37.0223586" lon="-8.9591735">
        <ele>44.888</ele>
        <time>2018-09-22T17:04:13.604Z</time>
      </trkpt>
      <trkpt lat="37.0224740" lon="-8.9592685">
        <ele>45.133</ele>
        <time>2018-09-22T17:04:16.591Z</time>
      </trkpt>
      <trkpt lat="37.0225919" lon="-8.9593597">
        <ele>45.551</ele>
        <time>2018-09-22T17:04:19.617Z</time>
      </trkpt>
      <trkpt lat="37.0226924" lon="-8.9594593">
        <ele>46.239</ele>
        <time>2018-09-22T17:04:22.528Z</time>
      </trkpt>
      <trkpt lat="37.0227980" lon="-8.9595446">
        <ele>47.003</ele>
        <time>2018-09-22T17:04:25.484Z</time>
      </trkpt>
      <trkpt lat="37.0228986" lon="-8.9596233">
        <ele>47.500</ele>
        <time>2018-09-22T17:04:28.328Z</time>
      </trkpt>
      <trkpt lat="37.0230139" lon="-8.9597076">
        <ele>47.637</ele>
        <time>2018-09-22T17:04:31.508Z</time>
      </trkpt>
      <trkpt lat="37.0231300" lon="-8.9597947">
        <ele>47.919</ele>
        <time>2018-09-22T17:04:34.700Z</time>
      </trkpt>
      <trkpt lat="37.0232179" lon="-8.9598740">
        <ele>48.699</ele>
        <time>2018-09-22T17:04:37.320Z</time>
      </trkpt>
      <trkpt lat="37.0233419" lon="-8.9599210">
        <ele>49.405</ele>
        <time>2018-09-22T17:04:40.530Z</time>
      </trkpt>
      <trkpt lat="37.0234472" lon="-8.9599940">
        <ele>49.272</ele>
        <time>2018-09-22T17:04:43.508Z</time>
      </trkpt>
      <trkpt lat="37.0235397" lon="-8.9600919">
        <ele>48.467</ele>
        <time>2018-09-22T17:04:46.490Z</time>
      </trkpt>
      <trkpt lat="37.0236392" lon="-8.9601724">
        <ele>47.704</ele>
        <time>2018-09-22T17:04:49.431Z</time>
      </trkpt>
      <trkpt lat="37.0237358" lon="-8.9602521">
        <ele>47.383</ele>
        <time>2018-09-22T17:04:52.363Z</time>
      </trkpt>
      <trkpt lat="37.0238348" lon="-8.9603433">
        <ele>47.449</ele>
        <time>2018-09-22T17:04:55.515Z</time>
      </trkpt>
      <trkpt lat="37.0239425" lon="-8.9604251">
        <ele>47.885</ele>
        <time>2018-09-22T17:04:58.736Z</time>
      </trkpt>
      <trkpt lat="37.0240471" lon="-8.9604900">
        <ele>48.565</ele>
        <time>2018-09-22T17:05:01.765Z</time>
      </trkpt>
      <trkpt lat="37.0241395" lon="-8.9605705">
        <ele>49.147</ele>
        <time>2018-09-22T17:05:04.742Z</time>
      </trkpt>
      <trkpt lat="37.0242238" lon="-8.9606549">
        <ele>49.476</ele>
        <time>2018-09-22T17:05:07.646Z</time>
      </trkpt>
      <trkpt lat="37.0243122" lon="-8.9607373">
        <ele>49.699</ele>
        <time>2018-09-22T17:05:10.644Z</time>
      </trkpt>
      <trkpt lat="37.0244066" lon="-8.9608029">
        <ele>49.908</ele>
        <time>2018-09-22T17:05:13.578Z</time>
      </trkpt>
      <trkpt lat="37.0245097" lon="-8.9608540">
        <ele>50.131</ele>
        <time>2018-09-22T17:05:16.543Z</time>
      </trkpt>
      <trkpt lat="37.0246128" lon="-8.9609238">
        <ele>50.370</ele>
        <time>2018-09-22T17:05:19.641Z</time>
      </trkpt>
      <trkpt lat="37.0247074" lon="-8.9609829">
        <ele>50.558</ele>
        <time>2018-09-22T17:05:22.491Z</time>
      </trkpt>
      <trkpt lat="37.0247949" lon="-8.9610559">
        <ele>50.688</ele>
        <time>2018-09-22T17:05:25.345Z</time>
      </trkpt>
      <trkpt lat="37.0248821" lon="-8.9611324">
        <ele>50.730</ele>
        <time>2018-09-22T17:05:28.211Z</time>
      </trkpt>
      <trkpt lat="37.0249679" lon="-8.9612139">
        <ele>50.690</ele>
        <time>2018-09-22T17:05:31.119Z</time>
      </trkpt>
      <trkpt lat="37.0250534" lon="-8.9612978">
        <ele>50.675</ele>
        <time>2018-09-22T17:05:34.090Z</time>
      </trkpt>
      <trkpt lat="37.0251412" lon="-8.9613684">
        <ele>50.661</ele>
        <time>2018-09-22T17:05:37.005Z</time>
      </trkpt>
      <trkpt lat="37.0252321" lon="-8.9614308">
        <ele>50.390</ele>
        <time>2018-09-22T17:05:39.936Z</time>
      </trkpt>
      <trkpt lat="37.0253220" lon="-8.9614994">
        <ele>49.818</ele>
        <time>2018-09-22T17:05:42.881Z</time>
      </trkpt>
      <trkpt lat="37.0254101" lon="-8.9615725">
        <ele>49.242</ele>
        <time>2018-09-22T17:05:45.765Z</time>
      </trkpt>
      <trkpt lat="37.0255074" lon="-8.9616375">
        <ele>49.000</ele>
        <time>2018-09-22T17:05:48.657Z</time>
      </trkpt>
      <trkpt lat="37.0256235" lon="-8.9617257">
        <ele>49.087</ele>
        <time>2018-09-22T17:05:51.984Z</time>
      </trkpt>
      <trkpt lat="37.0257309" lon="-8.9617808">
        <ele>49.396</ele>
        <time>2018-09-22T17:05:54.766Z</time>
      </trkpt>
      <trkpt lat="37.0258350" lon="-8.9618533">
        <ele>49.856</ele>
        <time>2018-09-22T17:05:57.711Z</time>
      </trkpt>
      <trkpt lat="37.0259151" lon="-8.9619232">
        <ele>50.318</ele>
        <time>2018-09-22T17:06:00.267Z</time>
      </trkpt>
      <trkpt lat="37.0259962" lon="-8.9619978">
        <ele>50.602</ele>
        <time>2018-09-22T17:06:03.169Z</time>
      </trkpt>
      <trkpt lat="37.0260943" lon="-8.9620664">
        <ele>50.895</ele>
        <time>2018-09-22T17:06:06.397Z</time>
      </trkpt>
      <trkpt lat="37.0261739" lon="-8.9621413">
        <ele>51.388</ele>
        <time>2018-09-22T17:06:09.283Z</time>
      </trkpt>
      <trkpt lat="37.0262552" lon="-8.9622104">
        <ele>51.860</ele>
        <time>2018-09-22T17:06:12.393Z</time>
      </trkpt>
      <trkpt lat="37.0263423" lon="-8.9622717">
        <ele>52.159</ele>
        <time>2018-09-22T17:06:15.988Z</time>
      </trkpt>
      <trkpt lat="37.0263423" lon="-8.9622717">
        <ele>52.330</ele>
        <time>2018-09-22T17:06:23.988Z</time>
      </trkpt>
      <trkpt lat="37.0263423" lon="-8.9622717">
        <ele>52.349</ele>
        <time>2018-09-22T17:08:06.271Z</time>
      </trkpt>
      <trkpt lat="37.0263215" lon="-8.9625847">
        <ele>52.265</ele>
        <time>2018-09-22T17:08:42.997Z</time>
      </trkpt>
      <trkpt lat="37.0263215" lon="-8.9625847">
        <ele>52.191</ele>
        <time>2018-09-22T17:08:57.997Z</time>
      </trkpt>
      <trkpt lat="37.0263215" lon="-8.9625847">
        <ele>52.152</ele>
        <time>2018-09-22T17:12:19.340Z</time>
      </trkpt>
      <trkpt lat="37.0263553" lon="-8.9624231">
        <ele>52.140</ele>
        <time>2018-09-22T17:12:38.993Z</time>
      </trkpt>
      <trkpt lat="37.0263553" lon="-8.9624231">
        <ele>52.125</ele>
        <time>2018-09-22T17:12:43.992Z</time>
      </trkpt>
      <trkpt lat="37.0263553" lon="-8.9624231">
        <ele>52.101</ele>
        <time>2018-09-22T17:13:33.886Z</time>
      </trkpt>
      <trkpt lat="37.0265430" lon="-8.9624502">
        <ele>52.077</ele>
        <time>2018-09-22T17:13:48.060Z</time>
      </trkpt>
      <trkpt lat="37.0266324" lon="-8.9625063">
        <ele>51.466</ele>
        <time>2018-09-22T17:13:51.643Z</time>
      </trkpt>
      <trkpt lat="37.0267129" lon="-8.9625665">
        <ele>49.829</ele>
        <time>2018-09-22T17:13:54.578Z</time>
      </trkpt>
      <trkpt lat="37.0268046" lon="-8.9626400">
        <ele>47.905</ele>
        <time>2018-09-22T17:13:57.694Z</time>
      </trkpt>
      <trkpt lat="37.0268936" lon="-8.9627047">
        <ele>46.608</ele>
        <time>2018-09-22T17:14:00.536Z</time>
      </trkpt>
      <trkpt lat="37.0269822" lon="-8.9627761">
        <ele>46.070</ele>
        <time>2018-09-22T17:14:03.422Z</time>
      </trkpt>
      <trkpt lat="37.0270775" lon="-8.9628480">
        <ele>46.081</ele>
        <time>2018-09-22T17:14:06.471Z</time>
      </trkpt>
      <trkpt lat="37.0271722" lon="-8.9629184">
        <ele>46.340</ele>
        <time>2018-09-22T17:14:09.487Z</time>
      </trkpt>
      <trkpt lat="37.0272699" lon="-8.9629955">
        <ele>46.649</ele>
        <time>2018-09-22T17:14:12.587Z</time>
      </trkpt>
      <trkpt lat="37.0273585" lon="-8.9630842">
        <ele>46.865</ele>
        <time>2018-09-22T17:14:15.540Z</time>
      </trkpt>
      <trkpt lat="37.0274584" lon="-8.9631996">
        <ele>47.045</ele>
        <time>2018-09-22T17:14:18.974Z</time>
      </trkpt>
      <trkpt lat="37.0275227" lon="-8.9633350">
        <ele>47.402</ele>
        <time>2018-09-22T17:14:22.102Z</time>
      </trkpt>
      <trkpt lat="37.0275744" lon="-8.9634669">
        <ele>47.887</ele>
        <time>2018-09-22T17:14:25.010Z</time>
      </trkpt>
      <trkpt lat="37.0276085" lon="-8.9636192">
        <ele>48.275</ele>
        <time>2018-09-22T17:14:28.125Z</time>
      </trkpt>
      <trkpt lat="37.0276339" lon="-8.9637626">
        <ele>48.498</ele>
        <time>2018-09-22T17:14:30.979Z</time>
      </trkpt>
      <trkpt lat="37.0276454" lon="-8.9639099">
        <ele>48.595</ele>
        <time>2018-09-22T17:14:33.815Z</time>
      </trkpt>
      <trkpt lat="37.0276482" lon="-8.9640584">
        <ele>48.605</ele>
        <time>2018-09-22T17:14:36.613Z</time>
      </trkpt>
      <trkpt lat="37.0276447" lon="-8.9642089">
        <ele>48.661</ele>
        <time>2018-09-22T17:14:39.435Z</time>
      </trkpt>
      <trkpt lat="37.0276456" lon="-8.9643630">
        <ele>48.840</ele>
        <time>2018-09-22T17:14:42.383Z</time>
      </trkpt>
      <trkpt lat="37.0276610" lon="-8.9645109">
        <ele>48.667</ele>
        <time>2018-09-22T17:14:45.334Z</time>
      </trkpt>
      <trkpt lat="37.0276725" lon="-8.9646468">
        <ele>47.624</ele>
        <time>2018-09-22T17:14:48.069Z</time>
      </trkpt>
      <trkpt lat="37.0276831" lon="-8.9647846">
        <ele>45.896</ele>
        <time>2018-09-22T17:14:50.757Z</time>
      </trkpt>
      <trkpt lat="37.0276905" lon="-8.9649436">
        <ele>44.171</ele>
        <time>2018-09-22T17:14:53.729Z</time>
      </trkpt>
      <trkpt lat="37.0276975" lon="-8.9651039">
        <ele>43.216</ele>
        <time>2018-09-22T17:14:56.708Z</time>
      </trkpt>
      <trkpt lat="37.0276995" lon="-8.9652577">
        <ele>43.259</ele>
        <time>2018-09-22T17:14:59.496Z</time>
      </trkpt>
      <trkpt lat="37.0276920" lon="-8.9654331">
        <ele>43.718</ele>
        <time>2018-09-22T17:15:02.629Z</time>
      </trkpt>
      <trkpt lat="37.0276906" lon="-8.9655915">
        <ele>44.030</ele>
        <time>2018-09-22T17:15:05.455Z</time>
      </trkpt>
      <trkpt lat="37.0276850" lon="-8.9657688">
        <ele>44.086</ele>
        <time>2018-09-22T17:15:08.632Z</time>
      </trkpt>
      <trkpt lat="37.0276919" lon="-8.9659327">
        <ele>44.333</ele>
        <time>2018-09-22T17:15:11.564Z</time>
      </trkpt>
      <trkpt lat="37.0276947" lon="-8.9660911">
        <ele>45.093</ele>
        <time>2018-09-22T17:15:14.324Z</time>
      </trkpt>
      <trkpt lat="37.0277075" lon="-8.9662489">
        <ele>45.741</ele>
        <time>2018-09-22T17:15:17.016Z</time>
      </trkpt>
      <trkpt lat="37.0277167" lon="-8.9664319">
        <ele>45.515</ele>
        <time>2018-09-22T17:15:20.062Z</time>
      </trkpt>
      <trkpt lat="37.0277244" lon="-8.9666065">
        <ele>44.641</ele>
        <time>2018-09-22T17:15:23.056Z</time>
      </trkpt>
      <trkpt lat="37.0277340" lon="-8.9667796">
        <ele>43.815</ele>
        <time>2018-09-22T17:15:26.178Z</time>
      </trkpt>
      <trkpt lat="37.0277263" lon="-8.9669354">
        <ele>43.330</ele>
        <time>2018-09-22T17:15:28.999Z</time>
      </trkpt>
      <trkpt lat="37.0277296" lon="-8.9671216">
        <ele>43.093</ele>
        <time>2018-09-22T17:15:32.374Z</time>
      </trkpt>
      <trkpt lat="37.0277383" lon="-8.9672732">
        <ele>42.990</ele>
        <time>2018-09-22T17:15:35.191Z</time>
      </trkpt>
      <trkpt lat="37.0277404" lon="-8.9674353">
        <ele>42.964</ele>
        <time>2018-09-22T17:15:38.227Z</time>
      </trkpt>
      <trkpt lat="37.0277362" lon="-8.9675834">
        <ele>42.967</ele>
        <time>2018-09-22T17:15:41.065Z</time>
      </trkpt>
      <trkpt lat="37.0277455" lon="-8.9677420">
        <ele>42.839</ele>
        <time>2018-09-22T17:15:44.092Z</time>
      </trkpt>
      <trkpt lat="37.0277475" lon="-8.9679067">
        <ele>42.335</ele>
        <time>2018-09-22T17:15:47.256Z</time>
      </trkpt>
      <trkpt lat="37.0277525" lon="-8.9680627">
        <ele>41.518</ele>
        <time>2018-09-22T17:15:50.334Z</time>
      </trkpt>
      <trkpt lat="37.0277630" lon="-8.9682196">
        <ele>40.786</ele>
        <time>2018-09-22T17:15:53.398Z</time>
      </trkpt>
      <trkpt lat="37.0277667" lon="-8.9683802">
        <ele>40.704</ele>
        <time>2018-09-22T17:15:56.522Z</time>
      </trkpt>
      <trkpt lat="37.0277623" lon="-8.9685257">
        <ele>41.374</ele>
        <time>2018-09-22T17:15:59.297Z</time>
      </trkpt>
      <trkpt lat="37.0277691" lon="-8.9686837">
        <ele>41.865</ele>
        <time>2018-09-22T17:16:02.159Z</time>
      </trkpt>
      <trkpt lat="37.0277738" lon="-8.9688975">
        <ele>41.456</ele>
        <time>2018-09-22T17:16:05.790Z</time>
      </trkpt>
      <trkpt lat="37.0277774" lon="-8.9690686">
        <ele>40.966</ele>
        <time>2018-09-22T17:16:08.564Z</time>
      </trkpt>
      <trkpt lat="37.0277671" lon="-8.9692427">
        <ele>41.224</ele>
        <time>2018-09-22T17:16:11.309Z</time>
      </trkpt>
      <trkpt lat="37.0277581" lon="-8.9694541">
        <ele>41.774</ele>
        <time>2018-09-22T17:16:14.662Z</time>
      </trkpt>
      <trkpt lat="37.0277485" lon="-8.9696276">
        <ele>42.004</ele>
        <time>2018-09-22T17:16:17.548Z</time>
      </trkpt>
      <trkpt lat="37.0277312" lon="-8.9697659">
        <ele>42.045</ele>
        <time>2018-09-22T17:16:19.950Z</time>
      </trkpt>
      <trkpt lat="37.0277117" lon="-8.9699428">
        <ele>42.204</ele>
        <time>2018-09-22T17:16:22.959Z</time>
      </trkpt>
      <trkpt lat="37.0276897" lon="-8.9701252">
        <ele>42.796</ele>
        <time>2018-09-22T17:16:26.040Z</time>
      </trkpt>
      <trkpt lat="37.0276795" lon="-8.9702762">
        <ele>44.052</ele>
        <time>2018-09-22T17:16:28.560Z</time>
      </trkpt>
      <trkpt lat="37.0276494" lon="-8.9704684">
        <ele>45.545</ele>
        <time>2018-09-22T17:16:31.817Z</time>
      </trkpt>
      <trkpt lat="37.0276427" lon="-8.9706274">
        <ele>46.444</ele>
        <time>2018-09-22T17:16:34.514Z</time>
      </trkpt>
      <trkpt lat="37.0276341" lon="-8.9708168">
        <ele>46.478</ele>
        <time>2018-09-22T17:16:37.691Z</time>
      </trkpt>
      <trkpt lat="37.0276148" lon="-8.9710071">
        <ele>45.988</ele>
        <time>2018-09-22T17:16:40.915Z</time>
      </trkpt>
      <trkpt lat="37.0276236" lon="-8.9711716">
        <ele>45.255</ele>
        <time>2018-09-22T17:16:43.740Z</time>
      </trkpt>
      <trkpt lat="37.0276049" lon="-8.9713375">
        <ele>44.275</ele>
        <time>2018-09-22T17:16:46.597Z</time>
      </trkpt>
      <trkpt lat="37.0275911" lon="-8.9715168">
        <ele>43.212</ele>
        <time>2018-09-22T17:16:49.702Z</time>
      </trkpt>
      <trkpt lat="37.0275690" lon="-8.9716586">
        <ele>42.459</ele>
        <time>2018-09-22T17:16:52.314Z</time>
      </trkpt>
      <trkpt lat="37.0275751" lon="-8.9718270">
        <ele>42.183</ele>
        <time>2018-09-22T17:16:55.387Z</time>
      </trkpt>
      <trkpt lat="37.0275480" lon="-8.9720075">
        <ele>42.237</ele>
        <time>2018-09-22T17:16:58.712Z</time>
      </trkpt>
      <trkpt lat="37.0275258" lon="-8.9721621">
        <ele>42.381</ele>
        <time>2018-09-22T17:17:01.669Z</time>
      </trkpt>
      <trkpt lat="37.0275252" lon="-8.9723027">
        <ele>42.509</ele>
        <time>2018-09-22T17:17:04.418Z</time>
      </trkpt>
      <trkpt lat="37.0275208" lon="-8.9724506">
        <ele>42.662</ele>
        <time>2018-09-22T17:17:07.406Z</time>
      </trkpt>
      <trkpt lat="37.0275152" lon="-8.9725807">
        <ele>42.804</ele>
        <time>2018-09-22T17:17:10.079Z</time>
      </trkpt>
      <trkpt lat="37.0274998" lon="-8.9727287">
        <ele>42.974</ele>
        <time>2018-09-22T17:17:13.123Z</time>
      </trkpt>
      <trkpt lat="37.0274709" lon="-8.9728870">
        <ele>43.279</ele>
        <time>2018-09-22T17:17:16.396Z</time>
      </trkpt>
      <trkpt lat="37.0274595" lon="-8.9730470">
        <ele>43.595</ele>
        <time>2018-09-22T17:17:19.495Z</time>
      </trkpt>
      <trkpt lat="37.0274520" lon="-8.9732144">
        <ele>43.872</ele>
        <time>2018-09-22T17:17:22.640Z</time>
      </trkpt>
      <trkpt lat="37.0274331" lon="-8.9733669">
        <ele>44.406</ele>
        <time>2018-09-22T17:17:25.608Z</time>
      </trkpt>
      <trkpt lat="37.0274191" lon="-8.9735197">
        <ele>45.190</ele>
        <time>2018-09-22T17:17:28.666Z</time>
      </trkpt>
      <trkpt lat="37.0274053" lon="-8.9736677">
        <ele>45.813</ele>
        <time>2018-09-22T17:17:31.658Z</time>
      </trkpt>
      <trkpt lat="37.0273883" lon="-8.9738229">
        <ele>46.227</ele>
        <time>2018-09-22T17:17:34.759Z</time>
      </trkpt>
      <trkpt lat="37.0273834" lon="-8.9739766">
        <ele>46.659</ele>
        <time>2018-09-22T17:17:37.564Z</time>
      </trkpt>
      <trkpt lat="37.0273738" lon="-8.9741684">
        <ele>47.029</ele>
        <time>2018-09-22T17:17:40.860Z</time>
      </trkpt>
      <trkpt lat="37.0273842" lon="-8.9743494">
        <ele>47.626</ele>
        <time>2018-09-22T17:17:43.994Z</time>
      </trkpt>
      <trkpt lat="37.0273744" lon="-8.9745089">
        <ele>48.859</ele>
        <time>2018-09-22T17:17:46.706Z</time>
      </trkpt>
      <trkpt lat="37.0273578" lon="-8.9746814">
        <ele>50.194</ele>
        <time>2018-09-22T17:17:49.640Z</time>
      </trkpt>
      <trkpt lat="37.0273422" lon="-8.9748406">
        <ele>50.880</ele>
        <time>2018-09-22T17:17:52.431Z</time>
      </trkpt>
      <trkpt lat="37.0273236" lon="-8.9750073">
        <ele>50.935</ele>
        <time>2018-09-22T17:17:55.329Z</time>
      </trkpt>
      <trkpt lat="37.0273038" lon="-8.9751805">
        <ele>50.747</ele>
        <time>2018-09-22T17:17:58.268Z</time>
      </trkpt>
      <trkpt lat="37.0273144" lon="-8.9753601">
        <ele>50.644</ele>
        <time>2018-09-22T17:18:01.284Z</time>
      </trkpt>
      <trkpt lat="37.0273239" lon="-8.9755321">
        <ele>50.817</ele>
        <time>2018-09-22T17:18:04.234Z</time>
      </trkpt>
      <trkpt lat="37.0273459" lon="-8.9757022">
        <ele>51.226</ele>
        <time>2018-09-22T17:18:07.315Z</time>
      </trkpt>
      <trkpt lat="37.0273710" lon="-8.9758350">
        <ele>51.596</ele>
        <time>2018-09-22T17:18:09.932Z</time>
      </trkpt>
      <trkpt lat="37.0273737" lon="-8.9759723">
        <ele>51.854</ele>
        <time>2018-09-22T17:18:12.707Z</time>
      </trkpt>
      <trkpt lat="37.0273876" lon="-8.9761229">
        <ele>52.313</ele>
        <time>2018-09-22T17:18:15.776Z</time>
      </trkpt>
      <trkpt lat="37.0274099" lon="-8.9762700">
        <ele>53.072</ele>
        <time>2018-09-22T17:18:18.764Z</time>
      </trkpt>
      <trkpt lat="37.0274322" lon="-8.9764135">
        <ele>53.776</ele>
        <time>2018-09-22T17:18:21.703Z</time>
      </trkpt>
      <trkpt lat="37.0274542" lon="-8.9765701">
        <ele>54.125</ele>
        <time>2018-09-22T17:18:24.853Z</time>
      </trkpt>
      <trkpt lat="37.0274698" lon="-8.9767226">
        <ele>54.222</ele>
        <time>2018-09-22T17:18:27.869Z</time>
      </trkpt>
      <trkpt lat="37.0274838" lon="-8.9768612">
        <ele>54.438</ele>
        <time>2018-09-22T17:18:30.703Z</time>
      </trkpt>
      <trkpt lat="37.0275025" lon="-8.9769989">
        <ele>54.937</ele>
        <time>2018-09-22T17:18:33.564Z</time>
      </trkpt>
      <trkpt lat="37.0275270" lon="-8.9771363">
        <ele>55.403</ele>
        <time>2018-09-22T17:18:36.479Z</time>
      </trkpt>
      <trkpt lat="37.0275478" lon="-8.9772633">
        <ele>55.431</ele>
        <time>2018-09-22T17:18:39.307Z</time>
      </trkpt>
      <trkpt lat="37.0275708" lon="-8.9773855">
        <ele>55.045</ele>
        <time>2018-09-22T17:18:42.126Z</time>
      </trkpt>
      <trkpt lat="37.0276010" lon="-8.9775219">
        <ele>54.649</ele>
        <time>2018-09-22T17:18:45.239Z</time>
      </trkpt>
      <trkpt lat="37.0276341" lon="-8.9776621">
        <ele>54.689</ele>
        <time>2018-09-22T17:18:48.455Z</time>
      </trkpt>
      <trkpt lat="37.0276654" lon="-8.9777950">
        <ele>55.358</ele>
        <time>2018-09-22T17:18:51.497Z</time>
      </trkpt>
      <trkpt lat="37.0276857" lon="-8.9779370">
        <ele>56.470</ele>
        <time>2018-09-22T17:18:54.678Z</time>
      </trkpt>
      <trkpt lat="37.0277104" lon="-8.9780661">
        <ele>57.396</ele>
        <time>2018-09-22T17:18:57.633Z</time>
      </trkpt>
      <trkpt lat="37.0277342" lon="-8.9782048">
        <ele>57.725</ele>
        <time>2018-09-22T17:19:00.743Z</time>
      </trkpt>
      <trkpt lat="37.0277691" lon="-8.9783364">
        <ele>57.672</ele>
        <time>2018-09-22T17:19:03.778Z</time>
      </trkpt>
      <trkpt lat="37.0277967" lon="-8.9784738">
        <ele>57.623</ele>
        <time>2018-09-22T17:19:06.890Z</time>
      </trkpt>
      <trkpt lat="37.0278148" lon="-8.9786083">
        <ele>58.066</ele>
        <time>2018-09-22T17:19:09.728Z</time>
      </trkpt>
      <trkpt lat="37.0278263" lon="-8.9787655">
        <ele>59.527</ele>
        <time>2018-09-22T17:19:12.727Z</time>
      </trkpt>
      <trkpt lat="37.0278600" lon="-8.9789269">
        <ele>61.562</ele>
        <time>2018-09-22T17:19:15.850Z</time>
      </trkpt>
      <trkpt lat="37.0278723" lon="-8.9790790">
        <ele>63.048</ele>
        <time>2018-09-22T17:19:18.971Z</time>
      </trkpt>
      <trkpt lat="37.0278949" lon="-8.9792119">
        <ele>63.682</ele>
        <time>2018-09-22T17:19:22.008Z</time>
      </trkpt>
      <trkpt lat="37.0279367" lon="-8.9793481">
        <ele>63.914</ele>
        <time>2018-09-22T17:19:25.303Z</time>
      </trkpt>
      <trkpt lat="37.0279633" lon="-8.9794825">
        <ele>63.754</ele>
        <time>2018-09-22T17:19:28.267Z</time>
      </trkpt>
      <trkpt lat="37.0279918" lon="-8.9796264">
        <ele>63.107</ele>
        <time>2018-09-22T17:19:31.311Z</time>
      </trkpt>
      <trkpt lat="37.0280144" lon="-8.9797626">
        <ele>62.366</ele>
        <time>2018-09-22T17:19:34.105Z</time>
      </trkpt>
      <trkpt lat="37.0280471" lon="-8.9799342">
        <ele>61.961</ele>
        <time>2018-09-22T17:19:37.466Z</time>
      </trkpt>
      <trkpt lat="37.0280735" lon="-8.9800656">
        <ele>61.822</ele>
        <time>2018-09-22T17:19:39.974Z</time>
      </trkpt>
      <trkpt lat="37.0281001" lon="-8.9802221">
        <ele>61.493</ele>
        <time>2018-09-22T17:19:42.898Z</time>
      </trkpt>
      <trkpt lat="37.0281325" lon="-8.9803866">
        <ele>60.546</ele>
        <time>2018-09-22T17:19:45.863Z</time>
      </trkpt>
      <trkpt lat="37.0281601" lon="-8.9805685">
        <ele>59.226</ele>
        <time>2018-09-22T17:19:48.971Z</time>
      </trkpt>
      <trkpt lat="37.0281992" lon="-8.9807379">
        <ele>58.109</ele>
        <time>2018-09-22T17:19:51.908Z</time>
      </trkpt>
      <trkpt lat="37.0282226" lon="-8.9809236">
        <ele>57.352</ele>
        <time>2018-09-22T17:19:54.970Z</time>
      </trkpt>
      <trkpt lat="37.0282611" lon="-8.9810891">
        <ele>56.818</ele>
        <time>2018-09-22T17:19:57.715Z</time>
      </trkpt>
      <trkpt lat="37.0282870" lon="-8.9812729">
        <ele>56.440</ele>
        <time>2018-09-22T17:20:00.706Z</time>
      </trkpt>
      <trkpt lat="37.0283320" lon="-8.9814218">
        <ele>56.023</ele>
        <time>2018-09-22T17:20:03.299Z</time>
      </trkpt>
      <trkpt lat="37.0283540" lon="-8.9815994">
        <ele>55.009</ele>
        <time>2018-09-22T17:20:06.310Z</time>
      </trkpt>
      <trkpt lat="37.0283804" lon="-8.9817690">
        <ele>53.042</ele>
        <time>2018-09-22T17:20:09.236Z</time>
      </trkpt>
      <trkpt lat="37.0283854" lon="-8.9819361">
        <ele>50.821</ele>
        <time>2018-09-22T17:20:12.054Z</time>
      </trkpt>
      <trkpt lat="37.0283772" lon="-8.9821481">
        <ele>49.547</ele>
        <time>2018-09-22T17:20:15.545Z</time>
      </trkpt>
      <trkpt lat="37.0283723" lon="-8.9823411">
        <ele>49.700</ele>
        <time>2018-09-22T17:20:18.637Z</time>
      </trkpt>
      <trkpt lat="37.0283611" lon="-8.9825445">
        <ele>50.748</ele>
        <time>2018-09-22T17:20:21.859Z</time>
      </trkpt>
      <trkpt lat="37.0283727" lon="-8.9827068">
        <ele>51.728</ele>
        <time>2018-09-22T17:20:24.456Z</time>
      </trkpt>
      <trkpt lat="37.0283482" lon="-8.9828990">
        <ele>52.162</ele>
        <time>2018-09-22T17:20:27.650Z</time>
      </trkpt>
      <trkpt lat="37.0283328" lon="-8.9830704">
        <ele>52.709</ele>
        <time>2018-09-22T17:20:30.557Z</time>
      </trkpt>
      <trkpt lat="37.0283265" lon="-8.9832608">
        <ele>53.928</ele>
        <time>2018-09-22T17:20:33.862Z</time>
      </trkpt>
      <trkpt lat="37.0283450" lon="-8.9834076">
        <ele>55.151</ele>
        <time>2018-09-22T17:20:36.433Z</time>
      </trkpt>
      <trkpt lat="37.0283259" lon="-8.9835985">
        <ele>55.062</ele>
        <time>2018-09-22T17:20:39.622Z</time>
      </trkpt>
      <trkpt lat="37.0282871" lon="-8.9838159">
        <ele>53.519</ele>
        <time>2018-09-22T17:20:43.016Z</time>
      </trkpt>
      <trkpt lat="37.0282442" lon="-8.9840407">
        <ele>51.868</ele>
        <time>2018-09-22T17:20:46.303Z</time>
      </trkpt>
      <trkpt lat="37.0281798" lon="-8.9842137">
        <ele>51.197</ele>
        <time>2018-09-22T17:20:48.923Z</time>
      </trkpt>
      <trkpt lat="37.0281057" lon="-8.9844090">
        <ele>50.896</ele>
        <time>2018-09-22T17:20:51.816Z</time>
      </trkpt>
      <trkpt lat="37.0280097" lon="-8.9845965">
        <ele>50.217</ele>
        <time>2018-09-22T17:20:54.745Z</time>
      </trkpt>
      <trkpt lat="37.0279579" lon="-8.9847211">
        <ele>49.333</ele>
        <time>2018-09-22T17:20:56.608Z</time>
      </trkpt>
      <trkpt lat="37.0278959" lon="-8.9848566">
        <ele>48.676</ele>
        <time>2018-09-22T17:20:58.749Z</time>
      </trkpt>
      <trkpt lat="37.0278442" lon="-8.9849640">
        <ele>48.568</ele>
        <time>2018-09-22T17:21:00.552Z</time>
      </trkpt>
      <trkpt lat="37.0277896" lon="-8.9850756">
        <ele>49.101</ele>
        <time>2018-09-22T17:21:02.552Z</time>
      </trkpt>
      <trkpt lat="37.0277416" lon="-8.9851715">
        <ele>49.851</ele>
        <time>2018-09-22T17:21:04.398Z</time>
      </trkpt>
      <trkpt lat="37.0276970" lon="-8.9852828">
        <ele>50.696</ele>
        <time>2018-09-22T17:21:06.536Z</time>
      </trkpt>
      <trkpt lat="37.0276522" lon="-8.9853848">
        <ele>51.935</ele>
        <time>2018-09-22T17:21:08.605Z</time>
      </trkpt>
      <trkpt lat="37.0275944" lon="-8.9855287">
        <ele>53.309</ele>
        <time>2018-09-22T17:21:11.529Z</time>
      </trkpt>
      <trkpt lat="37.0275250" lon="-8.9856760">
        <ele>54.237</ele>
        <time>2018-09-22T17:21:14.684Z</time>
      </trkpt>
      <trkpt lat="37.0274761" lon="-8.9858000">
        <ele>54.619</ele>
        <time>2018-09-22T17:21:17.307Z</time>
      </trkpt>
      <trkpt lat="37.0274158" lon="-8.9859257">
        <ele>54.702</ele>
        <time>2018-09-22T17:21:20.183Z</time>
      </trkpt>
      <trkpt lat="37.0273595" lon="-8.9860350">
        <ele>54.640</ele>
        <time>2018-09-22T17:21:22.856Z</time>
      </trkpt>
      <trkpt lat="37.0273163" lon="-8.9861614">
        <ele>54.430</ele>
        <time>2018-09-22T17:21:25.835Z</time>
      </trkpt>
      <trkpt lat="37.0272769" lon="-8.9862971">
        <ele>54.088</ele>
        <time>2018-09-22T17:21:28.929Z</time>
      </trkpt>
      <trkpt lat="37.0272376" lon="-8.9864459">
        <ele>53.677</ele>
        <time>2018-09-22T17:21:32.142Z</time>
      </trkpt>
      <trkpt lat="37.0271893" lon="-8.9865792">
        <ele>53.259</ele>
        <time>2018-09-22T17:21:35.079Z</time>
      </trkpt>
      <trkpt lat="37.0271240" lon="-8.9867068">
        <ele>53.058</ele>
        <time>2018-09-22T17:21:38.154Z</time>
      </trkpt>
      <trkpt lat="37.0270740" lon="-8.9868364">
        <ele>53.280</ele>
        <time>2018-09-22T17:21:40.960Z</time>
      </trkpt>
      <trkpt lat="37.0270205" lon="-8.9869712">
        <ele>53.857</ele>
        <time>2018-09-22T17:21:43.792Z</time>
      </trkpt>
      <trkpt lat="37.0269717" lon="-8.9870955">
        <ele>54.526</ele>
        <time>2018-09-22T17:21:46.408Z</time>
      </trkpt>
      <trkpt lat="37.0269017" lon="-8.9872486">
        <ele>55.060</ele>
        <time>2018-09-22T17:21:49.745Z</time>
      </trkpt>
      <trkpt lat="37.0268401" lon="-8.9873877">
        <ele>55.298</ele>
        <time>2018-09-22T17:21:52.680Z</time>
      </trkpt>
      <trkpt lat="37.0267923" lon="-8.9875480">
        <ele>55.115</ele>
        <time>2018-09-22T17:21:55.654Z</time>
      </trkpt>
      <trkpt lat="37.0267255" lon="-8.9876901">
        <ele>54.614</ele>
        <time>2018-09-22T17:21:58.505Z</time>
      </trkpt>
      <trkpt lat="37.0266601" lon="-8.9878107">
        <ele>54.138</ele>
        <time>2018-09-22T17:22:01.122Z</time>
      </trkpt>
      <trkpt lat="37.0265813" lon="-8.9879982">
        <ele>53.865</ele>
        <time>2018-09-22T17:22:04.847Z</time>
      </trkpt>
      <trkpt lat="37.0264994" lon="-8.9881662">
        <ele>53.730</ele>
        <time>2018-09-22T17:22:08.029Z</time>
      </trkpt>
      <trkpt lat="37.0264248" lon="-8.9883481">
        <ele>53.633</ele>
        <time>2018-09-22T17:22:11.152Z</time>
      </trkpt>
      <trkpt lat="37.0263307" lon="-8.9885106">
        <ele>53.302</ele>
        <time>2018-09-22T17:22:14.189Z</time>
      </trkpt>
      <trkpt lat="37.0262588" lon="-8.9886916">
        <ele>52.568</ele>
        <time>2018-09-22T17:22:17.331Z</time>
      </trkpt>
      <trkpt lat="37.0261961" lon="-8.9888583">
        <ele>51.761</ele>
        <time>2018-09-22T17:22:20.216Z</time>
      </trkpt>
      <trkpt lat="37.0261389" lon="-8.9890208">
        <ele>50.862</ele>
        <time>2018-09-22T17:22:23.093Z</time>
      </trkpt>
      <trkpt lat="37.0260799" lon="-8.9891498">
        <ele>49.616</ele>
        <time>2018-09-22T17:22:25.674Z</time>
      </trkpt>
      <trkpt lat="37.0260099" lon="-8.9892705">
        <ele>48.523</ele>
        <time>2018-09-22T17:22:28.534Z</time>
      </trkpt>
      <trkpt lat="37.0259800" lon="-8.9893976">
        <ele>48.196</ele>
        <time>2018-09-22T17:22:31.351Z</time>
      </trkpt>
      <trkpt lat="37.0259507" lon="-8.9895209">
        <ele>48.506</ele>
        <time>2018-09-22T17:22:34.235Z</time>
      </trkpt>
      <trkpt lat="37.0258977" lon="-8.9896282">
        <ele>48.917</ele>
        <time>2018-09-22T17:22:37.156Z</time>
      </trkpt>
      <trkpt lat="37.0258536" lon="-8.9897507">
        <ele>49.008</ele>
        <time>2018-09-22T17:22:40.234Z</time>
      </trkpt>
      <trkpt lat="37.0257525" lon="-8.9898990">
        <ele>48.844</ele>
        <time>2018-09-22T17:22:44.155Z</time>
      </trkpt>
      <trkpt lat="37.0256942" lon="-8.9900630">
        <ele>48.703</ele>
        <time>2018-09-22T17:22:47.202Z</time>
      </trkpt>
      <trkpt lat="37.0256270" lon="-8.9902152">
        <ele>48.906</ele>
        <time>2018-09-22T17:22:50.040Z</time>
      </trkpt>
      <trkpt lat="37.0255615" lon="-8.9903943">
        <ele>49.644</ele>
        <time>2018-09-22T17:22:53.203Z</time>
      </trkpt>
      <trkpt lat="37.0254842" lon="-8.9905833">
        <ele>50.657</ele>
        <time>2018-09-22T17:22:56.368Z</time>
      </trkpt>
      <trkpt lat="37.0253892" lon="-8.9907817">
        <ele>51.518</ele>
        <time>2018-09-22T17:22:59.558Z</time>
      </trkpt>
      <trkpt lat="37.0252914" lon="-8.9909660">
        <ele>52.159</ele>
        <time>2018-09-22T17:23:02.497Z</time>
      </trkpt>
      <trkpt lat="37.0252103" lon="-8.9911618">
        <ele>52.785</ele>
        <time>2018-09-22T17:23:05.427Z</time>
      </trkpt>
      <trkpt lat="37.0251380" lon="-8.9913479">
        <ele>53.456</ele>
        <time>2018-09-22T17:23:08.264Z</time>
      </trkpt>
      <trkpt lat="37.0250636" lon="-8.9915339">
        <ele>53.872</ele>
        <time>2018-09-22T17:23:11.239Z</time>
      </trkpt>
      <trkpt lat="37.0249945" lon="-8.9916773">
        <ele>53.532</ele>
        <time>2018-09-22T17:23:13.702Z</time>
      </trkpt>
      <trkpt lat="37.0249384" lon="-8.9919041">
        <ele>52.299</ele>
        <time>2018-09-22T17:23:17.071Z</time>
      </trkpt>
      <trkpt lat="37.0248510" lon="-8.9920883">
        <ele>50.754</ele>
        <time>2018-09-22T17:23:20.070Z</time>
      </trkpt>
      <trkpt lat="37.0247765" lon="-8.9923089">
        <ele>49.463</ele>
        <time>2018-09-22T17:23:23.580Z</time>
      </trkpt>
      <trkpt lat="37.0246983" lon="-8.9924749">
        <ele>48.478</ele>
        <time>2018-09-22T17:23:26.527Z</time>
      </trkpt>
      <trkpt lat="37.0246222" lon="-8.9926392">
        <ele>47.845</ele>
        <time>2018-09-22T17:23:29.593Z</time>
      </trkpt>
      <trkpt lat="37.0245550" lon="-8.9927815">
        <ele>47.721</ele>
        <time>2018-09-22T17:23:32.388Z</time>
      </trkpt>
      <trkpt lat="37.0245015" lon="-8.9929073">
        <ele>48.157</ele>
        <time>2018-09-22T17:23:34.957Z</time>
      </trkpt>
      <trkpt lat="37.0244568" lon="-8.9930696">
        <ele>48.917</ele>
        <time>2018-09-22T17:23:38.208Z</time>
      </trkpt>
      <trkpt lat="37.0244046" lon="-8.9932206">
        <ele>49.857</ele>
        <time>2018-09-22T17:23:41.317Z</time>
      </trkpt>
      <trkpt lat="37.0243538" lon="-8.9933519">
        <ele>51.219</ele>
        <time>2018-09-22T17:23:44.169Z</time>
      </trkpt>
      <trkpt lat="37.0243054" lon="-8.9934793">
        <ele>52.909</ele>
        <time>2018-09-22T17:23:47.080Z</time>
      </trkpt>
      <trkpt lat="37.0242522" lon="-8.9935922">
        <ele>54.406</ele>
        <time>2018-09-22T17:23:49.877Z</time>
      </trkpt>
      <trkpt lat="37.0241838" lon="-8.9936988">
        <ele>55.393</ele>
        <time>2018-09-22T17:23:53.066Z</time>
      </trkpt>
      <trkpt lat="37.0241243" lon="-8.9938074">
        <ele>55.824</ele>
        <time>2018-09-22T17:23:56.230Z</time>
      </trkpt>
      <trkpt lat="37.0240607" lon="-8.9939390">
        <ele>56.041</ele>
        <time>2018-09-22T17:23:59.660Z</time>
      </trkpt>
      <trkpt lat="37.0240073" lon="-8.9940880">
        <ele>56.642</ele>
        <time>2018-09-22T17:24:02.977Z</time>
      </trkpt>
      <trkpt lat="37.0239487" lon="-8.9942493">
        <ele>57.459</ele>
        <time>2018-09-22T17:24:06.305Z</time>
      </trkpt>
      <trkpt lat="37.0238761" lon="-8.9944511">
        <ele>57.979</ele>
        <time>2018-09-22T17:24:10.289Z</time>
      </trkpt>
      <trkpt lat="37.0238205" lon="-8.9945588">
        <ele>58.449</ele>
        <time>2018-09-22T17:24:12.680Z</time>
      </trkpt>
      <trkpt lat="37.0237629" lon="-8.9946801">
        <ele>59.226</ele>
        <time>2018-09-22T17:24:15.432Z</time>
      </trkpt>
      <trkpt lat="37.0237043" lon="-8.9948184">
        <ele>60.221</ele>
        <time>2018-09-22T17:24:18.631Z</time>
      </trkpt>
      <trkpt lat="37.0236408" lon="-8.9949339">
        <ele>61.220</ele>
        <time>2018-09-22T17:24:21.609Z</time>
      </trkpt>
      <trkpt lat="37.0235876" lon="-8.9950317">
        <ele>61.887</ele>
        <time>2018-09-22T17:24:24.262Z</time>
      </trkpt>
      <trkpt lat="37.0235199" lon="-8.9951480">
        <ele>61.785</ele>
        <time>2018-09-22T17:24:27.549Z</time>
      </trkpt>
      <trkpt lat="37.0234506" lon="-8.9952735">
        <ele>60.841</ele>
        <time>2018-09-22T17:24:30.903Z</time>
      </trkpt>
      <trkpt lat="37.0233864" lon="-8.9954006">
        <ele>59.637</ele>
        <time>2018-09-22T17:24:34.187Z</time>
      </trkpt>
      <trkpt lat="37.0233353" lon="-8.9955001">
        <ele>58.580</ele>
        <time>2018-09-22T17:24:36.995Z</time>
      </trkpt>
      <trkpt lat="37.0233353" lon="-8.9955001">
        <ele>57.622</ele>
        <time>2018-09-22T17:24:40.995Z</time>
      </trkpt>
    </trkseg>
  </trk>
</gpx>
